<?xml version='1.0' encoding='UTF-8'?><gpx version="1.1" creator="JPX - https://github.com/jenetics/jpx" xmlns="http://www.topografix.com/GPX/1/1"><trk><trkseg><trkpt lat="40.7201491" lon="9.1073532"><ele>206.0</ele><time>2026-03-22T07:46:53.243Z</time></trkpt><trkpt lat="40.7200298" lon="9.1073222"><ele>206.0</ele><time>2026-03-22T07:46:58.243Z</time></trkpt><trkpt lat="40.7199522" lon="9.1073338"><ele>206.0</ele><time>2026-03-22T07:46:59.243Z</time></trkpt><trkpt lat="40.7198521" lon="9.1073547"><ele>206.0</ele><time>2026-03-22T07:47:00.243Z</time></trkpt><trkpt lat="40.719757" lon="9.1073744"><ele>206.0</ele><time>2026-03-22T07:47:01.244Z</time></trkpt><trkpt lat="40.7196422" lon="9.1073939"><ele>206.0</ele><time>2026-03-22T07:47:02.243Z</time></trkpt><trkpt lat="40.7195292" lon="9.1074064"><ele>206.0</ele><time>2026-03-22T07:47:03.243Z</time></trkpt><trkpt lat="40.7194145" lon="9.1074191"><ele>206.0</ele><time>2026-03-22T07:47:04.243Z</time></trkpt><trkpt lat="40.7191888" lon="9.1074548"><ele>207.25</ele><time>2026-03-22T07:47:06.243Z</time></trkpt><trkpt lat="40.7190733" lon="9.1074795"><ele>208.5</ele><time>2026-03-22T07:47:07.243Z</time></trkpt><trkpt lat="40.7189561" lon="9.1074903"><ele>209.75</ele><time>2026-03-22T07:47:08.243Z</time></trkpt><trkpt lat="40.7188369" lon="9.1075036"><ele>211.0</ele><time>2026-03-22T07:47:09.243Z</time></trkpt><trkpt lat="40.718729" lon="9.1075157"><ele>211.0</ele><time>2026-03-22T07:47:10.243Z</time></trkpt><trkpt lat="40.7186224" lon="9.1075322"><ele>211.0</ele><time>2026-03-22T07:47:11.243Z</time></trkpt><trkpt lat="40.7185116" lon="9.1075445"><ele>211.0</ele><time>2026-03-22T07:47:12.243Z</time></trkpt><trkpt lat="40.7183969" lon="9.1075677"><ele>211.0</ele><time>2026-03-22T07:47:13.243Z</time></trkpt><trkpt lat="40.7182828" lon="9.1075958"><ele>211.5</ele><time>2026-03-22T07:47:14.243Z</time></trkpt><trkpt lat="40.7181728" lon="9.1076326"><ele>212.0</ele><time>2026-03-22T07:47:15.243Z</time></trkpt><trkpt lat="40.7180599" lon="9.1076879"><ele>212.5</ele><time>2026-03-22T07:47:16.243Z</time></trkpt><trkpt lat="40.7179431" lon="9.1077593"><ele>213.0</ele><time>2026-03-22T07:47:17.243Z</time></trkpt><trkpt lat="40.7178262" lon="9.1078534"><ele>214.0</ele><time>2026-03-22T07:47:18.243Z</time></trkpt><trkpt lat="40.7177081" lon="9.1079533"><ele>215.0</ele><time>2026-03-22T07:47:19.243Z</time></trkpt><trkpt lat="40.7175928" lon="9.1080697"><ele>216.0</ele><time>2026-03-22T07:47:20.243Z</time></trkpt><trkpt lat="40.7174933" lon="9.1082004"><ele>217.0</ele><time>2026-03-22T07:47:21.243Z</time></trkpt><trkpt lat="40.717407" lon="9.1083289"><ele>219.0</ele><time>2026-03-22T07:47:22.243Z</time></trkpt><trkpt lat="40.7173251" lon="9.1084709"><ele>221.0</ele><time>2026-03-22T07:47:23.243Z</time></trkpt><trkpt lat="40.7172494" lon="9.1086227"><ele>223.0</ele><time>2026-03-22T07:47:24.243Z</time></trkpt><trkpt lat="40.7171858" lon="9.1087846"><ele>225.0</ele><time>2026-03-22T07:47:25.243Z</time></trkpt><trkpt lat="40.7171337" lon="9.1089501"><ele>225.5</ele><time>2026-03-22T07:47:26.243Z</time></trkpt><trkpt lat="40.7170902" lon="9.1091229"><ele>226.0</ele><time>2026-03-22T07:47:27.243Z</time></trkpt><trkpt lat="40.7170541" lon="9.1093002"><ele>226.5</ele><time>2026-03-22T07:47:28.243Z</time></trkpt><trkpt lat="40.7170312" lon="9.1094803"><ele>227.0</ele><time>2026-03-22T07:47:29.243Z</time></trkpt><trkpt lat="40.7170212" lon="9.1096648"><ele>227.0</ele><time>2026-03-22T07:47:30.243Z</time></trkpt><trkpt lat="40.7170186" lon="9.1098524"><ele>227.0</ele><time>2026-03-22T07:47:31.243Z</time></trkpt><trkpt lat="40.7170208" lon="9.1100456"><ele>227.0</ele><time>2026-03-22T07:47:32.243Z</time></trkpt><trkpt lat="40.7170288" lon="9.1102408"><ele>227.0</ele><time>2026-03-22T07:47:33.243Z</time></trkpt><trkpt lat="40.7170327" lon="9.1104424"><ele>227.33333333333334</ele><time>2026-03-22T07:47:34.243Z</time></trkpt><trkpt lat="40.7170371" lon="9.1106464"><ele>227.66666666666669</ele><time>2026-03-22T07:47:35.243Z</time></trkpt><trkpt lat="40.717041" lon="9.1108503"><ele>228.0</ele><time>2026-03-22T07:47:36.243Z</time></trkpt><trkpt lat="40.7170479" lon="9.1110535"><ele>228.0</ele><time>2026-03-22T07:47:37.243Z</time></trkpt><trkpt lat="40.7170552" lon="9.1112513"><ele>228.0</ele><time>2026-03-22T07:47:38.243Z</time></trkpt><trkpt lat="40.7170591" lon="9.1114425"><ele>228.0</ele><time>2026-03-22T07:47:39.243Z</time></trkpt><trkpt lat="40.7170637" lon="9.1116204"><ele>228.0</ele><time>2026-03-22T07:47:40.243Z</time></trkpt><trkpt lat="40.7170686" lon="9.111789"><ele>228.2</ele><time>2026-03-22T07:47:41.243Z</time></trkpt><trkpt lat="40.717074" lon="9.1119374"><ele>228.4</ele><time>2026-03-22T07:47:42.243Z</time></trkpt><trkpt lat="40.7170795" lon="9.1120755"><ele>228.59999999999997</ele><time>2026-03-22T07:47:43.243Z</time></trkpt><trkpt lat="40.7170851" lon="9.1122007"><ele>228.79999999999998</ele><time>2026-03-22T07:47:44.243Z</time></trkpt><trkpt lat="40.7170911" lon="9.1123195"><ele>229.0</ele><time>2026-03-22T07:47:45.243Z</time></trkpt><trkpt lat="40.7170914" lon="9.1124184"><ele>228.71428571428572</ele><time>2026-03-22T07:47:46.243Z</time></trkpt><trkpt lat="40.7170927" lon="9.1125067"><ele>228.42857142857144</ele><time>2026-03-22T07:47:47.243Z</time></trkpt><trkpt lat="40.7170844" lon="9.1126046"><ele>228.14285714285717</ele><time>2026-03-22T07:47:49.243Z</time></trkpt><trkpt lat="40.7170776" lon="9.1126953"><ele>227.85714285714286</ele><time>2026-03-22T07:48:57.236Z</time></trkpt><trkpt lat="40.7170804" lon="9.1127985"><ele>227.5714285714286</ele><time>2026-03-22T07:48:59.236Z</time></trkpt><trkpt lat="40.7170817" lon="9.1128825"><ele>227.2857142857143</ele><time>2026-03-22T07:49:00.236Z</time></trkpt><trkpt lat="40.7170781" lon="9.1129751"><ele>227.0</ele><time>2026-03-22T07:49:01.236Z</time></trkpt><trkpt lat="40.7170718" lon="9.1130787"><ele>227.00000000000003</ele><time>2026-03-22T07:49:02.236Z</time></trkpt><trkpt lat="40.7170623" lon="9.1131853"><ele>227.0</ele><time>2026-03-22T07:49:03.236Z</time></trkpt><trkpt lat="40.7170482" lon="9.1132874"><ele>227.0</ele><time>2026-03-22T07:49:04.236Z</time></trkpt><trkpt lat="40.7170372" lon="9.1133841"><ele>227.0</ele><time>2026-03-22T07:49:05.236Z</time></trkpt><trkpt lat="40.7170187" lon="9.1134729"><ele>227.00000000000003</ele><time>2026-03-22T07:49:06.236Z</time></trkpt><trkpt lat="40.7170011" lon="9.1135541"><ele>227.0</ele><time>2026-03-22T07:49:07.236Z</time></trkpt><trkpt lat="40.7169412" lon="9.1137733"><ele>227.00000000000003</ele><time>2026-03-22T07:49:10.236Z</time></trkpt><trkpt lat="40.7168894" lon="9.1139264"><ele>227.0</ele><time>2026-03-22T07:49:13.236Z</time></trkpt><trkpt lat="40.7168556" lon="9.1140143"><ele>227.0</ele><time>2026-03-22T07:49:15.236Z</time></trkpt><trkpt lat="40.716833" lon="9.1140935"><ele>227.0</ele><time>2026-03-22T07:49:17.236Z</time></trkpt><trkpt lat="40.7167875" lon="9.114194"><ele>227.00000000000003</ele><time>2026-03-22T07:49:20.236Z</time></trkpt><trkpt lat="40.7167407" lon="9.1142797"><ele>227.0</ele><time>2026-03-22T07:49:23.236Z</time></trkpt><trkpt lat="40.7166979" lon="9.1143604"><ele>226.71428571428572</ele><time>2026-03-22T07:49:26.236Z</time></trkpt><trkpt lat="40.7166536" lon="9.1144287"><ele>226.42857142857144</ele><time>2026-03-22T07:49:29.236Z</time></trkpt><trkpt lat="40.7166243" lon="9.1145035"><ele>226.14285714285717</ele><time>2026-03-22T07:50:11.236Z</time></trkpt><trkpt lat="40.7165704" lon="9.1145771"><ele>225.8571428571429</ele><time>2026-03-22T07:50:14.236Z</time></trkpt><trkpt lat="40.7165218" lon="9.114673"><ele>225.57142857142858</ele><time>2026-03-22T07:50:16.236Z</time></trkpt><trkpt lat="40.7164996" lon="9.1147596"><ele>225.28571428571433</ele><time>2026-03-22T07:50:17.236Z</time></trkpt><trkpt lat="40.7164516" lon="9.1148224"><ele>225.00000000000003</ele><time>2026-03-22T07:50:18.236Z</time></trkpt><trkpt lat="40.7163269" lon="9.1149823"><ele>224.66666666666669</ele><time>2026-03-22T07:50:20.236Z</time></trkpt><trkpt lat="40.716196" lon="9.1151527"><ele>224.33333333333334</ele><time>2026-03-22T07:50:22.236Z</time></trkpt><trkpt lat="40.7160472" lon="9.1153466"><ele>224.0</ele><time>2026-03-22T07:50:24.236Z</time></trkpt><trkpt lat="40.7158784" lon="9.1155498"><ele>224.0</ele><time>2026-03-22T07:50:26.236Z</time></trkpt><trkpt lat="40.7157196" lon="9.1157518"><ele>224.0</ele><time>2026-03-22T07:50:28.236Z</time></trkpt><trkpt lat="40.715644" lon="9.1158556"><ele>224.0</ele><time>2026-03-22T07:50:29.236Z</time></trkpt><trkpt lat="40.7154951" lon="9.1160712"><ele>224.0</ele><time>2026-03-22T07:50:31.236Z</time></trkpt><trkpt lat="40.7153597" lon="9.1162916"><ele>224.0</ele><time>2026-03-22T07:50:33.236Z</time></trkpt><trkpt lat="40.7152388" lon="9.1165195"><ele>224.0</ele><time>2026-03-22T07:50:35.236Z</time></trkpt><trkpt lat="40.7151343" lon="9.1167575"><ele>226.33333333333334</ele><time>2026-03-22T07:50:37.236Z</time></trkpt><trkpt lat="40.7150506" lon="9.1170009"><ele>228.66666666666669</ele><time>2026-03-22T07:50:39.236Z</time></trkpt><trkpt lat="40.7149819" lon="9.1172828"><ele>231.0</ele><time>2026-03-22T07:50:41.236Z</time></trkpt><trkpt lat="40.7149126" lon="9.1175647"><ele>231.0</ele><time>2026-03-22T07:50:43.236Z</time></trkpt><trkpt lat="40.7148745" lon="9.1176989"><ele>231.0</ele><time>2026-03-22T07:50:44.236Z</time></trkpt><trkpt lat="40.714797" lon="9.1179353"><ele>231.0</ele><time>2026-03-22T07:50:46.236Z</time></trkpt><trkpt lat="40.7147595" lon="9.1180329"><ele>231.0</ele><time>2026-03-22T07:50:47.236Z</time></trkpt><trkpt lat="40.7146905" lon="9.1181867"><ele>230.8</ele><time>2026-03-22T07:50:49.236Z</time></trkpt><trkpt lat="40.7146395" lon="9.1182818"><ele>230.60000000000002</ele><time>2026-03-22T07:50:51.236Z</time></trkpt><trkpt lat="40.7145783" lon="9.1183781"><ele>230.4</ele><time>2026-03-22T07:51:30.236Z</time></trkpt><trkpt lat="40.7144991" lon="9.1185054"><ele>230.2</ele><time>2026-03-22T07:51:32.236Z</time></trkpt><trkpt lat="40.7144385" lon="9.1185818"><ele>230.0</ele><time>2026-03-22T07:51:33.236Z</time></trkpt><trkpt lat="40.7143648" lon="9.1186663"><ele>231.75</ele><time>2026-03-22T07:51:34.236Z</time></trkpt><trkpt lat="40.7142114" lon="9.1188317"><ele>233.5</ele><time>2026-03-22T07:51:36.236Z</time></trkpt><trkpt lat="40.714126" lon="9.1189115"><ele>235.25</ele><time>2026-03-22T07:51:37.236Z</time></trkpt><trkpt lat="40.7140283" lon="9.1189857"><ele>237.0</ele><time>2026-03-22T07:51:38.236Z</time></trkpt><trkpt lat="40.713925" lon="9.1190532"><ele>236.8</ele><time>2026-03-22T07:51:39.236Z</time></trkpt><trkpt lat="40.7138216" lon="9.1191118"><ele>236.6</ele><time>2026-03-22T07:51:40.236Z</time></trkpt><trkpt lat="40.7137178" lon="9.119156"><ele>236.40000000000003</ele><time>2026-03-22T07:51:41.236Z</time></trkpt><trkpt lat="40.7136219" lon="9.1191906"><ele>236.20000000000002</ele><time>2026-03-22T07:51:42.236Z</time></trkpt><trkpt lat="40.7135297" lon="9.1192259"><ele>236.0</ele><time>2026-03-22T07:51:43.236Z</time></trkpt><trkpt lat="40.7133359" lon="9.1192636"><ele>237.66666666666669</ele><time>2026-03-22T07:51:45.236Z</time></trkpt><trkpt lat="40.713226" lon="9.1192695"><ele>239.33333333333331</ele><time>2026-03-22T07:51:46.236Z</time></trkpt><trkpt lat="40.7129941" lon="9.1192618"><ele>241.0</ele><time>2026-03-22T07:51:48.236Z</time></trkpt><trkpt lat="40.7127469" lon="9.1192176"><ele>241.25</ele><time>2026-03-22T07:51:50.236Z</time></trkpt><trkpt lat="40.7126219" lon="9.1191904"><ele>241.5</ele><time>2026-03-22T07:51:51.236Z</time></trkpt><trkpt lat="40.7124922" lon="9.1191345"><ele>241.75</ele><time>2026-03-22T07:51:52.236Z</time></trkpt><trkpt lat="40.7123578" lon="9.1190676"><ele>242.0</ele><time>2026-03-22T07:51:53.236Z</time></trkpt><trkpt lat="40.7122222" lon="9.118985"><ele>244.33333333333334</ele><time>2026-03-22T07:51:54.236Z</time></trkpt><trkpt lat="40.7120901" lon="9.118875"><ele>246.66666666666669</ele><time>2026-03-22T07:51:55.236Z</time></trkpt><trkpt lat="40.7119671" lon="9.1187553"><ele>249.0</ele><time>2026-03-22T07:51:56.236Z</time></trkpt><trkpt lat="40.711848" lon="9.1186245"><ele>250.5</ele><time>2026-03-22T07:51:57.236Z</time></trkpt><trkpt lat="40.7116119" lon="9.1183539"><ele>252.0</ele><time>2026-03-22T07:51:59.236Z</time></trkpt><trkpt lat="40.711381" lon="9.1180904"><ele>253.33333333333331</ele><time>2026-03-22T07:52:01.236Z</time></trkpt><trkpt lat="40.7112684" lon="9.1179691"><ele>254.66666666666666</ele><time>2026-03-22T07:52:02.236Z</time></trkpt><trkpt lat="40.7111724" lon="9.1178606"><ele>256.0</ele><time>2026-03-22T07:52:03.236Z</time></trkpt><trkpt lat="40.7110219" lon="9.1176689"><ele>256.0</ele><time>2026-03-22T07:52:05.236Z</time></trkpt><trkpt lat="40.7109529" lon="9.1175898"><ele>256.0</ele><time>2026-03-22T07:52:06.236Z</time></trkpt><trkpt lat="40.710885" lon="9.1175191"><ele>256.0</ele><time>2026-03-22T07:52:07.236Z</time></trkpt><trkpt lat="40.7108192" lon="9.1174495"><ele>256.0</ele><time>2026-03-22T07:52:08.236Z</time></trkpt><trkpt lat="40.7107497" lon="9.1173802"><ele>256.0</ele><time>2026-03-22T07:52:09.236Z</time></trkpt><trkpt lat="40.7106195" lon="9.1172204"><ele>257.66666666666663</ele><time>2026-03-22T07:52:11.236Z</time></trkpt><trkpt lat="40.7104653" lon="9.1170438"><ele>259.3333333333333</ele><time>2026-03-22T07:52:13.236Z</time></trkpt><trkpt lat="40.7102932" lon="9.1168471"><ele>261.0</ele><time>2026-03-22T07:52:15.236Z</time></trkpt><trkpt lat="40.7102007" lon="9.1167423"><ele>261.0</ele><time>2026-03-22T07:52:16.236Z</time></trkpt><trkpt lat="40.7101057" lon="9.1166318"><ele>261.0</ele><time>2026-03-22T07:52:17.236Z</time></trkpt><trkpt lat="40.7100022" lon="9.1165177"><ele>261.0</ele><time>2026-03-22T07:52:18.236Z</time></trkpt><trkpt lat="40.7098953" lon="9.1164019"><ele>261.0</ele><time>2026-03-22T07:52:19.236Z</time></trkpt><trkpt lat="40.7098055" lon="9.1162652"><ele>261.75</ele><time>2026-03-22T07:52:20.236Z</time></trkpt><trkpt lat="40.7096922" lon="9.1161458"><ele>262.5</ele><time>2026-03-22T07:52:21.236Z</time></trkpt><trkpt lat="40.7095768" lon="9.1160241"><ele>263.25</ele><time>2026-03-22T07:52:22.236Z</time></trkpt><trkpt lat="40.709469" lon="9.115903"><ele>264.0</ele><time>2026-03-22T07:52:23.236Z</time></trkpt><trkpt lat="40.7093556" lon="9.1157813"><ele>264.0</ele><time>2026-03-22T07:52:24.236Z</time></trkpt><trkpt lat="40.7091438" lon="9.1155638"><ele>264.0</ele><time>2026-03-22T07:52:26.236Z</time></trkpt><trkpt lat="40.7089605" lon="9.1153843"><ele>264.0</ele><time>2026-03-22T07:52:28.236Z</time></trkpt><trkpt lat="40.7088743" lon="9.1153184"><ele>264.0</ele><time>2026-03-22T07:52:31.236Z</time></trkpt><trkpt lat="40.7088004" lon="9.1153294"><ele>264.0</ele><time>2026-03-22T07:54:01.237Z</time></trkpt><trkpt lat="40.7088199" lon="9.1154376"><ele>264.0</ele><time>2026-03-22T07:54:02.237Z</time></trkpt><trkpt lat="40.708826" lon="9.1155758"><ele>264.0</ele><time>2026-03-22T07:54:04.237Z</time></trkpt><trkpt lat="40.7088098" lon="9.1157367"><ele>264.0</ele><time>2026-03-22T07:54:06.237Z</time></trkpt><trkpt lat="40.7088136" lon="9.1158483"><ele>264.0</ele><time>2026-03-22T07:54:07.237Z</time></trkpt><trkpt lat="40.708807" lon="9.1160443"><ele>264.0</ele><time>2026-03-22T07:54:09.237Z</time></trkpt><trkpt lat="40.7087989" lon="9.1162277"><ele>264.0</ele><time>2026-03-22T07:54:11.237Z</time></trkpt><trkpt lat="40.708779" lon="9.1164048"><ele>264.0</ele><time>2026-03-22T07:54:13.237Z</time></trkpt><trkpt lat="40.708775" lon="9.1164979"><ele>264.0</ele><time>2026-03-22T07:54:14.237Z</time></trkpt><trkpt lat="40.7087706" lon="9.11659"><ele>264.0</ele><time>2026-03-22T07:54:15.237Z</time></trkpt><trkpt lat="40.7087596" lon="9.1166877"><ele>264.0</ele><time>2026-03-22T07:54:16.237Z</time></trkpt><trkpt lat="40.7087507" lon="9.1167874"><ele>264.0</ele><time>2026-03-22T07:54:17.237Z</time></trkpt><trkpt lat="40.7087069" lon="9.116986"><ele>264.0</ele><time>2026-03-22T07:54:19.237Z</time></trkpt><trkpt lat="40.7086847" lon="9.1170797"><ele>264.25</ele><time>2026-03-22T07:54:20.237Z</time></trkpt><trkpt lat="40.7086653" lon="9.1171702"><ele>264.5</ele><time>2026-03-22T07:54:21.237Z</time></trkpt><trkpt lat="40.7086393" lon="9.117354"><ele>264.75</ele><time>2026-03-22T07:54:23.237Z</time></trkpt><trkpt lat="40.7086258" lon="9.1175362"><ele>265.0</ele><time>2026-03-22T07:54:25.237Z</time></trkpt><trkpt lat="40.7085767" lon="9.1177216"><ele>264.75</ele><time>2026-03-22T07:54:27.237Z</time></trkpt><trkpt lat="40.7085021" lon="9.1179015"><ele>264.5</ele><time>2026-03-22T07:54:29.237Z</time></trkpt><trkpt lat="40.7084227" lon="9.1180727"><ele>264.25</ele><time>2026-03-22T07:54:31.237Z</time></trkpt><trkpt lat="40.7083886" lon="9.1181651"><ele>264.0</ele><time>2026-03-22T07:54:32.237Z</time></trkpt><trkpt lat="40.7083218" lon="9.1183285"><ele>264.0</ele><time>2026-03-22T07:54:34.237Z</time></trkpt><trkpt lat="40.7082462" lon="9.1184748"><ele>264.0</ele><time>2026-03-22T07:54:36.237Z</time></trkpt><trkpt lat="40.708148" lon="9.1186155"><ele>264.0</ele><time>2026-03-22T07:54:38.237Z</time></trkpt><trkpt lat="40.7080981" lon="9.118694"><ele>264.0</ele><time>2026-03-22T07:54:39.237Z</time></trkpt><trkpt lat="40.7080435" lon="9.1187754"><ele>264.0</ele><time>2026-03-22T07:54:40.237Z</time></trkpt><trkpt lat="40.7079903" lon="9.1188463"><ele>264.0</ele><time>2026-03-22T07:54:41.237Z</time></trkpt><trkpt lat="40.7078727" lon="9.1189976"><ele>264.0</ele><time>2026-03-22T07:54:43.237Z</time></trkpt><trkpt lat="40.7077606" lon="9.1191415"><ele>264.0</ele><time>2026-03-22T07:54:45.237Z</time></trkpt><trkpt lat="40.7076941" lon="9.1192186"><ele>264.0</ele><time>2026-03-22T07:54:46.237Z</time></trkpt><trkpt lat="40.7076254" lon="9.1193004"><ele>263.0</ele><time>2026-03-22T07:54:47.237Z</time></trkpt><trkpt lat="40.7075531" lon="9.1193839"><ele>262.0</ele><time>2026-03-22T07:54:48.237Z</time></trkpt><trkpt lat="40.7074111" lon="9.1195285"><ele>261.0</ele><time>2026-03-22T07:54:50.237Z</time></trkpt><trkpt lat="40.7072672" lon="9.119686"><ele>261.0</ele><time>2026-03-22T07:54:52.237Z</time></trkpt><trkpt lat="40.7072027" lon="9.1197676"><ele>261.0</ele><time>2026-03-22T07:54:53.237Z</time></trkpt><trkpt lat="40.7070799" lon="9.119916"><ele>261.0</ele><time>2026-03-22T07:54:55.237Z</time></trkpt><trkpt lat="40.707029" lon="9.1199879"><ele>261.0</ele><time>2026-03-22T07:54:56.237Z</time></trkpt><trkpt lat="40.7069766" lon="9.1200664"><ele>261.0</ele><time>2026-03-22T07:54:57.237Z</time></trkpt><trkpt lat="40.706914" lon="9.120139"><ele>260.0</ele><time>2026-03-22T07:54:58.237Z</time></trkpt><trkpt lat="40.7067968" lon="9.1203105"><ele>259.0</ele><time>2026-03-22T07:55:00.237Z</time></trkpt><trkpt lat="40.7066964" lon="9.1205006"><ele>258.0</ele><time>2026-03-22T07:55:02.237Z</time></trkpt><trkpt lat="40.7066474" lon="9.1205923"><ele>257.0</ele><time>2026-03-22T07:55:03.237Z</time></trkpt><trkpt lat="40.7065568" lon="9.1207664"><ele>256.33333333333337</ele><time>2026-03-22T07:55:05.237Z</time></trkpt><trkpt lat="40.7064591" lon="9.1209131"><ele>255.66666666666669</ele><time>2026-03-22T07:55:07.237Z</time></trkpt><trkpt lat="40.7063725" lon="9.1210778"><ele>255.0</ele><time>2026-03-22T07:55:09.237Z</time></trkpt><trkpt lat="40.7062815" lon="9.1212659"><ele>255.0</ele><time>2026-03-22T07:55:11.237Z</time></trkpt><trkpt lat="40.7062346" lon="9.1213547"><ele>255.0</ele><time>2026-03-22T07:55:12.237Z</time></trkpt><trkpt lat="40.7061912" lon="9.1214479"><ele>255.0</ele><time>2026-03-22T07:55:13.237Z</time></trkpt><trkpt lat="40.7061486" lon="9.1215407"><ele>255.0</ele><time>2026-03-22T07:55:14.237Z</time></trkpt><trkpt lat="40.7060985" lon="9.1216402"><ele>255.0</ele><time>2026-03-22T07:55:15.237Z</time></trkpt><trkpt lat="40.70605" lon="9.1217473"><ele>255.0</ele><time>2026-03-22T07:55:16.237Z</time></trkpt><trkpt lat="40.7059977" lon="9.1218461"><ele>251.33333333333331</ele><time>2026-03-22T07:55:17.237Z</time></trkpt><trkpt lat="40.7058743" lon="9.122035"><ele>247.66666666666666</ele><time>2026-03-22T07:55:19.237Z</time></trkpt><trkpt lat="40.7057646" lon="9.122204"><ele>244.0</ele><time>2026-03-22T07:55:21.237Z</time></trkpt><trkpt lat="40.7056407" lon="9.1223463"><ele>244.2</ele><time>2026-03-22T07:55:23.237Z</time></trkpt><trkpt lat="40.7055842" lon="9.122411"><ele>244.39999999999998</ele><time>2026-03-22T07:55:24.237Z</time></trkpt><trkpt lat="40.7055223" lon="9.1224744"><ele>244.6</ele><time>2026-03-22T07:55:25.237Z</time></trkpt><trkpt lat="40.7054501" lon="9.1225317"><ele>244.8</ele><time>2026-03-22T07:55:26.237Z</time></trkpt><trkpt lat="40.7053856" lon="9.1226036"><ele>245.0</ele><time>2026-03-22T07:55:27.237Z</time></trkpt><trkpt lat="40.7052937" lon="9.1227879"><ele>245.0</ele><time>2026-03-22T07:55:29.237Z</time></trkpt><trkpt lat="40.7052669" lon="9.122895"><ele>245.0</ele><time>2026-03-22T07:55:30.237Z</time></trkpt><trkpt lat="40.70526" lon="9.1231038"><ele>245.0</ele><time>2026-03-22T07:55:32.237Z</time></trkpt><trkpt lat="40.7052865" lon="9.1232189"><ele>245.0</ele><time>2026-03-22T07:55:33.237Z</time></trkpt><trkpt lat="40.705329" lon="9.1233396"><ele>245.0</ele><time>2026-03-22T07:55:34.237Z</time></trkpt><trkpt lat="40.7053641" lon="9.1234459"><ele>243.5</ele><time>2026-03-22T07:55:35.237Z</time></trkpt><trkpt lat="40.7054114" lon="9.1236587"><ele>242.0</ele><time>2026-03-22T07:55:37.237Z</time></trkpt><trkpt lat="40.7054301" lon="9.1238531"><ele>240.5</ele><time>2026-03-22T07:55:39.237Z</time></trkpt><trkpt lat="40.7054275" lon="9.1239434"><ele>239.0</ele><time>2026-03-22T07:55:40.237Z</time></trkpt><trkpt lat="40.7053358" lon="9.1241539"><ele>238.79999999999998</ele><time>2026-03-22T07:55:43.237Z</time></trkpt><trkpt lat="40.7052795" lon="9.124227"><ele>238.59999999999997</ele><time>2026-03-22T07:55:44.237Z</time></trkpt><trkpt lat="40.7051561" lon="9.1243655"><ele>238.4</ele><time>2026-03-22T07:55:46.237Z</time></trkpt><trkpt lat="40.7050774" lon="9.1244113"><ele>238.2</ele><time>2026-03-22T07:55:47.237Z</time></trkpt><trkpt lat="40.7049979" lon="9.1244548"><ele>238.0</ele><time>2026-03-22T07:55:48.237Z</time></trkpt><trkpt lat="40.7049296" lon="9.1245019"><ele>236.5</ele><time>2026-03-22T07:55:49.237Z</time></trkpt><trkpt lat="40.7048611" lon="9.1245423"><ele>235.0</ele><time>2026-03-22T07:55:50.237Z</time></trkpt><trkpt lat="40.7047244" lon="9.1246475"><ele>233.5</ele><time>2026-03-22T07:55:52.237Z</time></trkpt><trkpt lat="40.7046055" lon="9.1247562"><ele>232.0</ele><time>2026-03-22T07:55:54.237Z</time></trkpt><trkpt lat="40.7044997" lon="9.1248989"><ele>230.66666666666666</ele><time>2026-03-22T07:55:56.237Z</time></trkpt><trkpt lat="40.7043961" lon="9.1250854"><ele>229.33333333333331</ele><time>2026-03-22T07:55:58.237Z</time></trkpt><trkpt lat="40.7043011" lon="9.1252539"><ele>228.0</ele><time>2026-03-22T07:56:00.237Z</time></trkpt><trkpt lat="40.7042101" lon="9.1253682"><ele>228.0</ele><time>2026-03-22T07:56:02.237Z</time></trkpt><trkpt lat="40.7040619" lon="9.1255242"><ele>228.0</ele><time>2026-03-22T07:56:05.237Z</time></trkpt><trkpt lat="40.7039871" lon="9.125652"><ele>228.0</ele><time>2026-03-22T07:56:07.237Z</time></trkpt><trkpt lat="40.7039451" lon="9.1258084"><ele>228.0</ele><time>2026-03-22T07:56:09.237Z</time></trkpt><trkpt lat="40.7039633" lon="9.1259038"><ele>226.66666666666669</ele><time>2026-03-22T07:56:10.237Z</time></trkpt><trkpt lat="40.703981" lon="9.1260991"><ele>225.33333333333334</ele><time>2026-03-22T07:56:12.237Z</time></trkpt><trkpt lat="40.7039887" lon="9.126311"><ele>224.0</ele><time>2026-03-22T07:56:14.237Z</time></trkpt><trkpt lat="40.70402" lon="9.1265032"><ele>224.39999999999998</ele><time>2026-03-22T07:56:16.237Z</time></trkpt><trkpt lat="40.704027" lon="9.1266041"><ele>224.79999999999998</ele><time>2026-03-22T07:56:17.237Z</time></trkpt><trkpt lat="40.7040616" lon="9.1267252"><ele>225.20000000000002</ele><time>2026-03-22T07:56:18.237Z</time></trkpt><trkpt lat="40.7040502" lon="9.1269333"><ele>225.60000000000002</ele><time>2026-03-22T07:56:20.237Z</time></trkpt><trkpt lat="40.7040505" lon="9.1270437"><ele>226.0</ele><time>2026-03-22T07:56:21.237Z</time></trkpt><trkpt lat="40.7040542" lon="9.1271518"><ele>226.0</ele><time>2026-03-22T07:56:22.237Z</time></trkpt><trkpt lat="40.7040529" lon="9.1272734"><ele>226.0</ele><time>2026-03-22T07:56:23.237Z</time></trkpt><trkpt lat="40.7040454" lon="9.1273857"><ele>226.0</ele><time>2026-03-22T07:56:24.237Z</time></trkpt><trkpt lat="40.7040608" lon="9.1276056"><ele>226.0</ele><time>2026-03-22T07:56:26.237Z</time></trkpt><trkpt lat="40.7040566" lon="9.1277984"><ele>226.20000000000002</ele><time>2026-03-22T07:56:28.237Z</time></trkpt><trkpt lat="40.7040423" lon="9.1278866"><ele>226.40000000000003</ele><time>2026-03-22T07:56:29.237Z</time></trkpt><trkpt lat="40.7040368" lon="9.127981"><ele>226.6</ele><time>2026-03-22T07:56:30.237Z</time></trkpt><trkpt lat="40.7040375" lon="9.1281389"><ele>226.8</ele><time>2026-03-22T07:56:32.237Z</time></trkpt><trkpt lat="40.7040603" lon="9.1283011"><ele>227.0</ele><time>2026-03-22T07:56:34.237Z</time></trkpt><trkpt lat="40.7040815" lon="9.1285326"><ele>226.0</ele><time>2026-03-22T07:56:37.237Z</time></trkpt><trkpt lat="40.7040601" lon="9.1286205"><ele>225.0</ele><time>2026-03-22T07:56:38.237Z</time></trkpt><trkpt lat="40.7040493" lon="9.1287057"><ele>224.0</ele><time>2026-03-22T07:56:39.237Z</time></trkpt><trkpt lat="40.7040945" lon="9.1288936"><ele>223.0</ele><time>2026-03-22T07:56:41.237Z</time></trkpt><trkpt lat="40.7041562" lon="9.1290712"><ele>222.0</ele><time>2026-03-22T07:56:43.237Z</time></trkpt><trkpt lat="40.7042229" lon="9.1292581"><ele>221.0</ele><time>2026-03-22T07:56:45.237Z</time></trkpt><trkpt lat="40.7042466" lon="9.1293516"><ele>220.0</ele><time>2026-03-22T07:56:46.237Z</time></trkpt><trkpt lat="40.7042639" lon="9.1294559"><ele>219.0</ele><time>2026-03-22T07:56:47.237Z</time></trkpt><trkpt lat="40.7042964" lon="9.1296656"><ele>218.0</ele><time>2026-03-22T07:56:49.237Z</time></trkpt><trkpt lat="40.704314" lon="9.1298576"><ele>217.25</ele><time>2026-03-22T07:56:51.237Z</time></trkpt><trkpt lat="40.7043087" lon="9.1300276"><ele>216.5</ele><time>2026-03-22T07:56:53.237Z</time></trkpt><trkpt lat="40.7043103" lon="9.1302037"><ele>215.75</ele><time>2026-03-22T07:56:55.237Z</time></trkpt><trkpt lat="40.7043294" lon="9.1303582"><ele>215.0</ele><time>2026-03-22T07:56:57.237Z</time></trkpt><trkpt lat="40.704356" lon="9.1304804"><ele>215.0</ele><time>2026-03-22T07:56:59.237Z</time></trkpt><trkpt lat="40.7044084" lon="9.1306783"><ele>215.0</ele><time>2026-03-22T07:57:02.237Z</time></trkpt><trkpt lat="40.7044431" lon="9.1307601"><ele>215.0</ele><time>2026-03-22T07:57:03.237Z</time></trkpt><trkpt lat="40.7045182" lon="9.1309224"><ele>215.0</ele><time>2026-03-22T07:57:05.237Z</time></trkpt><trkpt lat="40.7045585" lon="9.1309954"><ele>215.0</ele><time>2026-03-22T07:57:06.237Z</time></trkpt><trkpt lat="40.7046692" lon="9.1311414"><ele>214.5</ele><time>2026-03-22T07:57:08.237Z</time></trkpt><trkpt lat="40.7047433" lon="9.1313177"><ele>214.0</ele><time>2026-03-22T07:57:10.237Z</time></trkpt><trkpt lat="40.7047644" lon="9.1314169"><ele>213.5</ele><time>2026-03-22T07:57:11.237Z</time></trkpt><trkpt lat="40.7047706" lon="9.1316266"><ele>213.0</ele><time>2026-03-22T07:57:13.237Z</time></trkpt><trkpt lat="40.7047832" lon="9.1318492"><ele>216.0</ele><time>2026-03-22T07:57:15.237Z</time></trkpt><trkpt lat="40.704824" lon="9.1320676"><ele>219.0</ele><time>2026-03-22T07:57:17.237Z</time></trkpt><trkpt lat="40.7048306" lon="9.1322791"><ele>222.0</ele><time>2026-03-22T07:57:19.237Z</time></trkpt><trkpt lat="40.7048679" lon="9.1324914"><ele>222.75</ele><time>2026-03-22T07:57:21.237Z</time></trkpt><trkpt lat="40.704901" lon="9.1327064"><ele>223.5</ele><time>2026-03-22T07:57:23.237Z</time></trkpt><trkpt lat="40.704939" lon="9.1329126"><ele>224.25</ele><time>2026-03-22T07:57:25.237Z</time></trkpt><trkpt lat="40.7049766" lon="9.1330309"><ele>225.0</ele><time>2026-03-22T07:57:26.237Z</time></trkpt><trkpt lat="40.7050084" lon="9.1331237"><ele>225.0</ele><time>2026-03-22T07:57:27.237Z</time></trkpt><trkpt lat="40.7050373" lon="9.1332131"><ele>225.0</ele><time>2026-03-22T07:57:28.237Z</time></trkpt><trkpt lat="40.7050683" lon="9.133306"><ele>225.0</ele><time>2026-03-22T07:57:29.237Z</time></trkpt><trkpt lat="40.7050928" lon="9.1333938"><ele>225.0</ele><time>2026-03-22T07:57:30.237Z</time></trkpt><trkpt lat="40.7051357" lon="9.1335737"><ele>225.0</ele><time>2026-03-22T07:57:32.237Z</time></trkpt><trkpt lat="40.7051479" lon="9.1336611"><ele>225.0</ele><time>2026-03-22T07:57:33.237Z</time></trkpt><trkpt lat="40.7051674" lon="9.13379"><ele>225.2</ele><time>2026-03-22T07:57:35.237Z</time></trkpt><trkpt lat="40.7051546" lon="9.1338935"><ele>225.4</ele><time>2026-03-22T07:57:37.237Z</time></trkpt><trkpt lat="40.7050902" lon="9.133989"><ele>225.60000000000002</ele><time>2026-03-22T07:57:39.237Z</time></trkpt><trkpt lat="40.7049655" lon="9.1340493"><ele>225.8</ele><time>2026-03-22T07:57:41.237Z</time></trkpt><trkpt lat="40.7048692" lon="9.1341371"><ele>226.0</ele><time>2026-03-22T07:57:43.237Z</time></trkpt><trkpt lat="40.7047951" lon="9.1342543"><ele>226.0</ele><time>2026-03-22T07:57:45.237Z</time></trkpt><trkpt lat="40.7047545" lon="9.1343834"><ele>226.0</ele><time>2026-03-22T07:57:47.237Z</time></trkpt><trkpt lat="40.7047207" lon="9.1345579"><ele>226.0</ele><time>2026-03-22T07:57:49.237Z</time></trkpt><trkpt lat="40.7047253" lon="9.1347575"><ele>226.0</ele><time>2026-03-22T07:57:51.237Z</time></trkpt><trkpt lat="40.7047474" lon="9.1349897"><ele>224.66666666666666</ele><time>2026-03-22T07:57:53.237Z</time></trkpt><trkpt lat="40.7047834" lon="9.1352549"><ele>223.33333333333331</ele><time>2026-03-22T07:57:55.237Z</time></trkpt><trkpt lat="40.7048163" lon="9.1355066"><ele>222.0</ele><time>2026-03-22T07:57:57.237Z</time></trkpt><trkpt lat="40.7048285" lon="9.135628"><ele>223.33333333333331</ele><time>2026-03-22T07:57:58.237Z</time></trkpt><trkpt lat="40.7048391" lon="9.1358718"><ele>224.66666666666666</ele><time>2026-03-22T07:58:00.237Z</time></trkpt><trkpt lat="40.7048267" lon="9.136117"><ele>226.0</ele><time>2026-03-22T07:58:02.237Z</time></trkpt><trkpt lat="40.7048071" lon="9.1363706"><ele>227.0</ele><time>2026-03-22T07:58:04.237Z</time></trkpt><trkpt lat="40.7047892" lon="9.1366343"><ele>228.0</ele><time>2026-03-22T07:58:06.237Z</time></trkpt><trkpt lat="40.7047752" lon="9.1368748"><ele>229.0</ele><time>2026-03-22T07:58:08.237Z</time></trkpt><trkpt lat="40.7047662" lon="9.1370664"><ele>229.0</ele><time>2026-03-22T07:58:10.237Z</time></trkpt><trkpt lat="40.7047177" lon="9.1372178"><ele>228.99999999999997</ele><time>2026-03-22T07:58:12.237Z</time></trkpt><trkpt lat="40.7046103" lon="9.1373348"><ele>228.99999999999997</ele><time>2026-03-22T07:58:14.237Z</time></trkpt><trkpt lat="40.7045427" lon="9.1373662"><ele>229.0</ele><time>2026-03-22T07:58:15.237Z</time></trkpt><trkpt lat="40.7044641" lon="9.1373897"><ele>229.0</ele><time>2026-03-22T07:58:16.237Z</time></trkpt><trkpt lat="40.7043995" lon="9.137433"><ele>228.6</ele><time>2026-03-22T07:58:17.237Z</time></trkpt><trkpt lat="40.704332" lon="9.1374303"><ele>228.2</ele><time>2026-03-22T07:58:18.237Z</time></trkpt><trkpt lat="40.7042343" lon="9.1373807"><ele>227.79999999999998</ele><time>2026-03-22T07:58:19.237Z</time></trkpt><trkpt lat="40.7041474" lon="9.1373455"><ele>227.39999999999998</ele><time>2026-03-22T07:58:20.237Z</time></trkpt><trkpt lat="40.7040696" lon="9.1373108"><ele>227.0</ele><time>2026-03-22T07:58:21.237Z</time></trkpt><trkpt lat="40.7039642" lon="9.1372736"><ele>227.0</ele><time>2026-03-22T07:58:23.237Z</time></trkpt><trkpt lat="40.7038621" lon="9.1373469"><ele>227.0</ele><time>2026-03-22T07:58:25.237Z</time></trkpt><trkpt lat="40.7038064" lon="9.1374107"><ele>227.0</ele><time>2026-03-22T07:58:26.237Z</time></trkpt><trkpt lat="40.7037304" lon="9.1374684"><ele>227.0</ele><time>2026-03-22T07:58:27.237Z</time></trkpt><trkpt lat="40.7036555" lon="9.1375181"><ele>227.0</ele><time>2026-03-22T07:58:28.237Z</time></trkpt><trkpt lat="40.703564" lon="9.1375869"><ele>227.8</ele><time>2026-03-22T07:58:29.237Z</time></trkpt><trkpt lat="40.7034812" lon="9.1376616"><ele>228.6</ele><time>2026-03-22T07:58:30.237Z</time></trkpt><trkpt lat="40.7033888" lon="9.1377213"><ele>229.40000000000003</ele><time>2026-03-22T07:58:31.237Z</time></trkpt><trkpt lat="40.7032877" lon="9.1377758"><ele>230.20000000000002</ele><time>2026-03-22T07:58:32.237Z</time></trkpt><trkpt lat="40.7031963" lon="9.1378225"><ele>231.0</ele><time>2026-03-22T07:58:33.237Z</time></trkpt><trkpt lat="40.7030992" lon="9.1378871"><ele>231.0</ele><time>2026-03-22T07:58:34.237Z</time></trkpt><trkpt lat="40.7030094" lon="9.1379576"><ele>231.00000000000003</ele><time>2026-03-22T07:58:35.237Z</time></trkpt><trkpt lat="40.7029214" lon="9.1380293"><ele>231.00000000000003</ele><time>2026-03-22T07:58:36.237Z</time></trkpt><trkpt lat="40.7028333" lon="9.1380949"><ele>231.0</ele><time>2026-03-22T07:58:37.237Z</time></trkpt><trkpt lat="40.7027513" lon="9.1381552"><ele>231.0</ele><time>2026-03-22T07:58:38.237Z</time></trkpt><trkpt lat="40.7026659" lon="9.138214"><ele>231.16666666666666</ele><time>2026-03-22T07:58:39.237Z</time></trkpt><trkpt lat="40.702591" lon="9.1382641"><ele>231.33333333333331</ele><time>2026-03-22T07:58:40.237Z</time></trkpt><trkpt lat="40.7025181" lon="9.138303"><ele>231.5</ele><time>2026-03-22T07:58:41.237Z</time></trkpt><trkpt lat="40.7024462" lon="9.1383364"><ele>231.66666666666666</ele><time>2026-03-22T07:58:42.237Z</time></trkpt><trkpt lat="40.7023701" lon="9.138382"><ele>231.83333333333331</ele><time>2026-03-22T07:58:43.237Z</time></trkpt><trkpt lat="40.7022984" lon="9.138442"><ele>232.0</ele><time>2026-03-22T07:58:44.237Z</time></trkpt><trkpt lat="40.7022281" lon="9.1385115"><ele>232.0</ele><time>2026-03-22T07:58:45.237Z</time></trkpt><trkpt lat="40.7021587" lon="9.1385931"><ele>232.0</ele><time>2026-03-22T07:58:46.237Z</time></trkpt><trkpt lat="40.7020938" lon="9.1386704"><ele>232.0</ele><time>2026-03-22T07:58:47.237Z</time></trkpt><trkpt lat="40.702029" lon="9.1387621"><ele>232.0</ele><time>2026-03-22T07:58:48.237Z</time></trkpt><trkpt lat="40.7019523" lon="9.1388565"><ele>232.0</ele><time>2026-03-22T07:58:49.237Z</time></trkpt><trkpt lat="40.7018822" lon="9.1389481"><ele>232.16666666666666</ele><time>2026-03-22T07:58:50.237Z</time></trkpt><trkpt lat="40.7018204" lon="9.1390275"><ele>232.33333333333331</ele><time>2026-03-22T07:58:51.237Z</time></trkpt><trkpt lat="40.7017658" lon="9.1391077"><ele>232.5</ele><time>2026-03-22T07:58:52.237Z</time></trkpt><trkpt lat="40.7017121" lon="9.1391837"><ele>232.66666666666669</ele><time>2026-03-22T07:58:53.237Z</time></trkpt><trkpt lat="40.7016587" lon="9.1392493"><ele>232.83333333333334</ele><time>2026-03-22T07:58:54.237Z</time></trkpt><trkpt lat="40.701604" lon="9.1393328"><ele>233.0</ele><time>2026-03-22T07:58:55.237Z</time></trkpt><trkpt lat="40.7015502" lon="9.1394173"><ele>233.00000000000003</ele><time>2026-03-22T07:58:56.237Z</time></trkpt><trkpt lat="40.7014994" lon="9.139517"><ele>233.0</ele><time>2026-03-22T07:58:57.237Z</time></trkpt><trkpt lat="40.701447" lon="9.1396181"><ele>233.0</ele><time>2026-03-22T07:58:58.237Z</time></trkpt><trkpt lat="40.701395" lon="9.139706"><ele>233.0</ele><time>2026-03-22T07:58:59.237Z</time></trkpt><trkpt lat="40.7013452" lon="9.139805"><ele>233.00000000000003</ele><time>2026-03-22T07:59:00.237Z</time></trkpt><trkpt lat="40.7012972" lon="9.1398851"><ele>233.0</ele><time>2026-03-22T07:59:01.237Z</time></trkpt><trkpt lat="40.701257" lon="9.1399806"><ele>234.33333333333334</ele><time>2026-03-22T07:59:02.238Z</time></trkpt><trkpt lat="40.7012271" lon="9.1400835"><ele>235.66666666666669</ele><time>2026-03-22T07:59:03.237Z</time></trkpt><trkpt lat="40.7012062" lon="9.1401915"><ele>237.0</ele><time>2026-03-22T07:59:04.237Z</time></trkpt><trkpt lat="40.7011921" lon="9.1403103"><ele>238.33333333333331</ele><time>2026-03-22T07:59:05.237Z</time></trkpt><trkpt lat="40.7011703" lon="9.1404255"><ele>239.66666666666666</ele><time>2026-03-22T07:59:06.237Z</time></trkpt><trkpt lat="40.7011566" lon="9.1405382"><ele>241.0</ele><time>2026-03-22T07:59:07.237Z</time></trkpt><trkpt lat="40.7011449" lon="9.14065"><ele>242.4</ele><time>2026-03-22T07:59:08.237Z</time></trkpt><trkpt lat="40.7011328" lon="9.1407622"><ele>243.8</ele><time>2026-03-22T07:59:09.237Z</time></trkpt><trkpt lat="40.7011286" lon="9.1408856"><ele>245.20000000000002</ele><time>2026-03-22T07:59:10.237Z</time></trkpt><trkpt lat="40.7011344" lon="9.1410154"><ele>246.60000000000002</ele><time>2026-03-22T07:59:11.237Z</time></trkpt><trkpt lat="40.7011411" lon="9.1411372"><ele>248.0</ele><time>2026-03-22T07:59:12.237Z</time></trkpt><trkpt lat="40.7011429" lon="9.1412529"><ele>248.0</ele><time>2026-03-22T07:59:13.237Z</time></trkpt><trkpt lat="40.70115" lon="9.141358"><ele>248.0</ele><time>2026-03-22T07:59:14.237Z</time></trkpt><trkpt lat="40.7011552" lon="9.1414485"><ele>248.0</ele><time>2026-03-22T07:59:15.237Z</time></trkpt><trkpt lat="40.7011597" lon="9.1415355"><ele>248.0</ele><time>2026-03-22T07:59:16.237Z</time></trkpt><trkpt lat="40.7011585" lon="9.1416842"><ele>248.0</ele><time>2026-03-22T07:59:18.237Z</time></trkpt><trkpt lat="40.7011075" lon="9.141832"><ele>246.33333333333334</ele><time>2026-03-22T07:59:20.237Z</time></trkpt><trkpt lat="40.7010345" lon="9.1419532"><ele>244.66666666666669</ele><time>2026-03-22T07:59:22.237Z</time></trkpt><trkpt lat="40.7009749" lon="9.1419967"><ele>243.0</ele><time>2026-03-22T07:59:23.237Z</time></trkpt><trkpt lat="40.7009013" lon="9.142032"><ele>241.33333333333331</ele><time>2026-03-22T07:59:24.237Z</time></trkpt><trkpt lat="40.7008158" lon="9.1421105"><ele>239.66666666666666</ele><time>2026-03-22T07:59:26.237Z</time></trkpt><trkpt lat="40.7007535" lon="9.1421253"><ele>238.0</ele><time>2026-03-22T07:59:28.237Z</time></trkpt><trkpt lat="40.7006125" lon="9.1420926"><ele>238.0</ele><time>2026-03-22T07:59:31.237Z</time></trkpt><trkpt lat="40.7005088" lon="9.1420628"><ele>238.0</ele><time>2026-03-22T07:59:33.237Z</time></trkpt><trkpt lat="40.7004454" lon="9.1420485"><ele>238.0</ele><time>2026-03-22T07:59:34.237Z</time></trkpt><trkpt lat="40.7002833" lon="9.1420087"><ele>238.0</ele><time>2026-03-22T07:59:36.237Z</time></trkpt><trkpt lat="40.7000964" lon="9.141961"><ele>238.66666666666666</ele><time>2026-03-22T07:59:38.237Z</time></trkpt><trkpt lat="40.6999348" lon="9.1418839"><ele>239.33333333333331</ele><time>2026-03-22T07:59:40.237Z</time></trkpt><trkpt lat="40.6997857" lon="9.1418075"><ele>240.0</ele><time>2026-03-22T07:59:42.237Z</time></trkpt><trkpt lat="40.6996491" lon="9.14171"><ele>240.0</ele><time>2026-03-22T07:59:44.237Z</time></trkpt><trkpt lat="40.6995163" lon="9.1415835"><ele>240.0</ele><time>2026-03-22T07:59:46.237Z</time></trkpt><trkpt lat="40.6993654" lon="9.1414298"><ele>240.0</ele><time>2026-03-22T07:59:48.237Z</time></trkpt><trkpt lat="40.6992013" lon="9.1412462"><ele>241.33333333333331</ele><time>2026-03-22T07:59:50.237Z</time></trkpt><trkpt lat="40.6990358" lon="9.1410513"><ele>242.66666666666666</ele><time>2026-03-22T07:59:52.237Z</time></trkpt><trkpt lat="40.698886" lon="9.1408849"><ele>244.0</ele><time>2026-03-22T07:59:54.237Z</time></trkpt><trkpt lat="40.6987738" lon="9.1407266"><ele>244.0</ele><time>2026-03-22T07:59:56.237Z</time></trkpt><trkpt lat="40.6986694" lon="9.140596"><ele>244.0</ele><time>2026-03-22T07:59:58.237Z</time></trkpt><trkpt lat="40.6986136" lon="9.1405482"><ele>244.0</ele><time>2026-03-22T07:59:59.237Z</time></trkpt><trkpt lat="40.698505" lon="9.1404825"><ele>244.0</ele><time>2026-03-22T08:00:01.237Z</time></trkpt><trkpt lat="40.6983894" lon="9.1404108"><ele>244.0</ele><time>2026-03-22T08:00:03.237Z</time></trkpt><trkpt lat="40.6982612" lon="9.1403708"><ele>244.0</ele><time>2026-03-22T08:00:05.237Z</time></trkpt><trkpt lat="40.6981996" lon="9.140347"><ele>244.0</ele><time>2026-03-22T08:00:06.237Z</time></trkpt><trkpt lat="40.6980193" lon="9.1402775"><ele>244.0</ele><time>2026-03-22T08:00:09.237Z</time></trkpt><trkpt lat="40.6978962" lon="9.1402459"><ele>243.66666666666666</ele><time>2026-03-22T08:00:11.237Z</time></trkpt><trkpt lat="40.6977436" lon="9.1402113"><ele>243.33333333333331</ele><time>2026-03-22T08:00:13.237Z</time></trkpt><trkpt lat="40.6975875" lon="9.1401957"><ele>243.0</ele><time>2026-03-22T08:00:15.237Z</time></trkpt><trkpt lat="40.6974138" lon="9.1401685"><ele>243.0</ele><time>2026-03-22T08:00:17.237Z</time></trkpt><trkpt lat="40.6973282" lon="9.1401645"><ele>243.0</ele><time>2026-03-22T08:00:18.237Z</time></trkpt><trkpt lat="40.6972539" lon="9.140158"><ele>243.0</ele><time>2026-03-22T08:00:19.237Z</time></trkpt><trkpt lat="40.6971352" lon="9.1401423"><ele>243.0</ele><time>2026-03-22T08:00:21.237Z</time></trkpt><trkpt lat="40.6970056" lon="9.1401495"><ele>243.0</ele><time>2026-03-22T08:00:23.237Z</time></trkpt><trkpt lat="40.6969456" lon="9.1401959"><ele>243.0</ele><time>2026-03-22T08:00:24.237Z</time></trkpt><trkpt lat="40.6968882" lon="9.1402575"><ele>243.0</ele><time>2026-03-22T08:00:25.237Z</time></trkpt><trkpt lat="40.6968371" lon="9.140344"><ele>243.0</ele><time>2026-03-22T08:00:26.237Z</time></trkpt><trkpt lat="40.6967838" lon="9.1404249"><ele>243.0</ele><time>2026-03-22T08:00:27.237Z</time></trkpt><trkpt lat="40.6967371" lon="9.1405142"><ele>243.0</ele><time>2026-03-22T08:00:28.237Z</time></trkpt><trkpt lat="40.6966862" lon="9.1405967"><ele>243.0</ele><time>2026-03-22T08:00:29.237Z</time></trkpt><trkpt lat="40.6966425" lon="9.1406768"><ele>243.16666666666666</ele><time>2026-03-22T08:00:30.237Z</time></trkpt><trkpt lat="40.696593" lon="9.1407486"><ele>243.33333333333331</ele><time>2026-03-22T08:00:31.237Z</time></trkpt><trkpt lat="40.69654" lon="9.1408218"><ele>243.5</ele><time>2026-03-22T08:00:32.237Z</time></trkpt><trkpt lat="40.6964937" lon="9.1409032"><ele>243.66666666666666</ele><time>2026-03-22T08:00:33.237Z</time></trkpt><trkpt lat="40.6964475" lon="9.1409786"><ele>243.83333333333331</ele><time>2026-03-22T08:00:34.237Z</time></trkpt><trkpt lat="40.6963998" lon="9.1410557"><ele>244.0</ele><time>2026-03-22T08:00:35.237Z</time></trkpt><trkpt lat="40.6963461" lon="9.1411296"><ele>243.99999999999997</ele><time>2026-03-22T08:00:36.237Z</time></trkpt><trkpt lat="40.6962917" lon="9.1411998"><ele>244.0</ele><time>2026-03-22T08:00:37.237Z</time></trkpt><trkpt lat="40.6962348" lon="9.1412547"><ele>243.99999999999997</ele><time>2026-03-22T08:00:38.237Z</time></trkpt><trkpt lat="40.6961759" lon="9.1413073"><ele>243.99999999999997</ele><time>2026-03-22T08:00:39.237Z</time></trkpt><trkpt lat="40.6961131" lon="9.1413662"><ele>244.0</ele><time>2026-03-22T08:00:40.237Z</time></trkpt><trkpt lat="40.6960525" lon="9.1414289"><ele>243.99999999999997</ele><time>2026-03-22T08:00:41.237Z</time></trkpt><trkpt lat="40.6959981" lon="9.1414974"><ele>243.99999999999997</ele><time>2026-03-22T08:00:42.237Z</time></trkpt><trkpt lat="40.6959505" lon="9.1415605"><ele>245.5</ele><time>2026-03-22T08:00:43.237Z</time></trkpt><trkpt lat="40.6958765" lon="9.1416781"><ele>247.0</ele><time>2026-03-22T08:00:45.237Z</time></trkpt><trkpt lat="40.6958179" lon="9.1418169"><ele>248.5</ele><time>2026-03-22T08:00:47.237Z</time></trkpt><trkpt lat="40.6957523" lon="9.1419587"><ele>250.0</ele><time>2026-03-22T08:00:49.237Z</time></trkpt><trkpt lat="40.6956828" lon="9.1420722"><ele>250.0</ele><time>2026-03-22T08:00:51.237Z</time></trkpt><trkpt lat="40.6955815" lon="9.142182"><ele>250.0</ele><time>2026-03-22T08:00:53.237Z</time></trkpt><trkpt lat="40.6954892" lon="9.1422259"><ele>250.0</ele><time>2026-03-22T08:00:54.237Z</time></trkpt><trkpt lat="40.6954133" lon="9.1422865"><ele>250.0</ele><time>2026-03-22T08:00:55.237Z</time></trkpt><trkpt lat="40.6953325" lon="9.1423498"><ele>250.0</ele><time>2026-03-22T08:00:56.237Z</time></trkpt><trkpt lat="40.6952567" lon="9.1423866"><ele>250.49999999999997</ele><time>2026-03-22T08:00:57.237Z</time></trkpt><trkpt lat="40.6951833" lon="9.1424323"><ele>251.0</ele><time>2026-03-22T08:00:58.237Z</time></trkpt><trkpt lat="40.6951149" lon="9.1424612"><ele>251.5</ele><time>2026-03-22T08:00:59.237Z</time></trkpt><trkpt lat="40.6950535" lon="9.1424881"><ele>252.0</ele><time>2026-03-22T08:01:00.237Z</time></trkpt><trkpt lat="40.6949842" lon="9.1425011"><ele>252.49999999999997</ele><time>2026-03-22T08:01:01.237Z</time></trkpt><trkpt lat="40.6949047" lon="9.142506"><ele>253.0</ele><time>2026-03-22T08:01:02.237Z</time></trkpt><trkpt lat="40.6947354" lon="9.1425396"><ele>253.0</ele><time>2026-03-22T08:01:04.237Z</time></trkpt><trkpt lat="40.6945573" lon="9.1426062"><ele>253.0</ele><time>2026-03-22T08:01:06.237Z</time></trkpt><trkpt lat="40.694468" lon="9.1426428"><ele>253.0</ele><time>2026-03-22T08:01:07.237Z</time></trkpt><trkpt lat="40.6943027" lon="9.1427082"><ele>253.4</ele><time>2026-03-22T08:01:09.237Z</time></trkpt><trkpt lat="40.6941511" lon="9.1427206"><ele>253.8</ele><time>2026-03-22T08:01:11.237Z</time></trkpt><trkpt lat="40.6940187" lon="9.1427517"><ele>254.2</ele><time>2026-03-22T08:01:13.237Z</time></trkpt><trkpt lat="40.6939535" lon="9.1427871"><ele>254.6</ele><time>2026-03-22T08:01:14.237Z</time></trkpt><trkpt lat="40.6938966" lon="9.1428428"><ele>255.0</ele><time>2026-03-22T08:01:15.237Z</time></trkpt><trkpt lat="40.6938042" lon="9.1429516"><ele>255.0</ele><time>2026-03-22T08:01:17.237Z</time></trkpt><trkpt lat="40.6937112" lon="9.1430403"><ele>255.0</ele><time>2026-03-22T08:01:19.237Z</time></trkpt><trkpt lat="40.693602" lon="9.1430991"><ele>255.0</ele><time>2026-03-22T08:01:21.237Z</time></trkpt><trkpt lat="40.6935332" lon="9.1431246"><ele>255.0</ele><time>2026-03-22T08:01:22.237Z</time></trkpt><trkpt lat="40.6933759" lon="9.1431594"><ele>255.75</ele><time>2026-03-22T08:01:24.237Z</time></trkpt><trkpt lat="40.6932974" lon="9.1431767"><ele>256.5</ele><time>2026-03-22T08:01:25.237Z</time></trkpt><trkpt lat="40.6931372" lon="9.1432032"><ele>257.25</ele><time>2026-03-22T08:01:27.237Z</time></trkpt><trkpt lat="40.6929788" lon="9.1432246"><ele>258.0</ele><time>2026-03-22T08:01:29.237Z</time></trkpt><trkpt lat="40.6928277" lon="9.14323"><ele>259.2</ele><time>2026-03-22T08:01:31.237Z</time></trkpt><trkpt lat="40.6927027" lon="9.1432149"><ele>260.4</ele><time>2026-03-22T08:01:33.237Z</time></trkpt><trkpt lat="40.6926052" lon="9.1432197"><ele>261.59999999999997</ele><time>2026-03-22T08:01:35.237Z</time></trkpt><trkpt lat="40.6925372" lon="9.143204"><ele>262.8</ele><time>2026-03-22T08:01:37.237Z</time></trkpt><trkpt lat="40.6924546" lon="9.1432003"><ele>264.0</ele><time>2026-03-22T08:03:52.236Z</time></trkpt><trkpt lat="40.6923589" lon="9.143229"><ele>264.0</ele><time>2026-03-22T08:03:54.236Z</time></trkpt><trkpt lat="40.6922564" lon="9.1432631"><ele>264.0</ele><time>2026-03-22T08:03:56.236Z</time></trkpt><trkpt lat="40.6921461" lon="9.1432802"><ele>264.0</ele><time>2026-03-22T08:03:58.236Z</time></trkpt><trkpt lat="40.6920443" lon="9.1432768"><ele>264.0</ele><time>2026-03-22T08:04:00.236Z</time></trkpt><trkpt lat="40.6919241" lon="9.1432889"><ele>264.0</ele><time>2026-03-22T08:04:02.237Z</time></trkpt><trkpt lat="40.6918033" lon="9.1433246"><ele>266.5</ele><time>2026-03-22T08:04:04.236Z</time></trkpt><trkpt lat="40.6917422" lon="9.1433527"><ele>269.0</ele><time>2026-03-22T08:04:05.236Z</time></trkpt><trkpt lat="40.6916756" lon="9.1433862"><ele>271.5</ele><time>2026-03-22T08:04:06.236Z</time></trkpt><trkpt lat="40.6916177" lon="9.1434232"><ele>274.0</ele><time>2026-03-22T08:04:07.236Z</time></trkpt><trkpt lat="40.6914898" lon="9.1434657"><ele>276.5</ele><time>2026-03-22T08:04:09.236Z</time></trkpt><trkpt lat="40.6914233" lon="9.1434882"><ele>279.0</ele><time>2026-03-22T08:04:10.236Z</time></trkpt><trkpt lat="40.6913633" lon="9.1435146"><ele>279.0</ele><time>2026-03-22T08:04:11.236Z</time></trkpt><trkpt lat="40.6912636" lon="9.1435699"><ele>279.0</ele><time>2026-03-22T08:04:13.236Z</time></trkpt><trkpt lat="40.6911608" lon="9.1436394"><ele>279.0</ele><time>2026-03-22T08:04:15.236Z</time></trkpt><trkpt lat="40.6910583" lon="9.1436972"><ele>279.0</ele><time>2026-03-22T08:04:17.236Z</time></trkpt><trkpt lat="40.6909383" lon="9.1437286"><ele>280.8333333333333</ele><time>2026-03-22T08:04:19.236Z</time></trkpt><trkpt lat="40.6908641" lon="9.1437482"><ele>282.6666666666667</ele><time>2026-03-22T08:04:20.236Z</time></trkpt><trkpt lat="40.6907992" lon="9.1437755"><ele>284.5</ele><time>2026-03-22T08:04:21.236Z</time></trkpt><trkpt lat="40.6907375" lon="9.143802"><ele>286.33333333333337</ele><time>2026-03-22T08:04:22.236Z</time></trkpt><trkpt lat="40.6906785" lon="9.1438419"><ele>288.1666666666667</ele><time>2026-03-22T08:04:23.236Z</time></trkpt><trkpt lat="40.6905673" lon="9.1439426"><ele>290.0</ele><time>2026-03-22T08:04:26.236Z</time></trkpt><trkpt lat="40.6904868" lon="9.1439698"><ele>290.0</ele><time>2026-03-22T08:04:30.236Z</time></trkpt><trkpt lat="40.6903853" lon="9.1438193"><ele>290.0</ele><time>2026-03-22T08:04:33.236Z</time></trkpt><trkpt lat="40.6903364" lon="9.1437386"><ele>290.0</ele><time>2026-03-22T08:04:35.236Z</time></trkpt><trkpt lat="40.6902791" lon="9.1436641"><ele>290.0</ele><time>2026-03-22T08:05:40.238Z</time></trkpt><trkpt lat="40.6903183" lon="9.143739"><ele>290.0</ele><time>2026-03-22T08:06:05.238Z</time></trkpt><trkpt lat="40.6903988" lon="9.1438402"><ele>290.0</ele><time>2026-03-22T08:06:09.238Z</time></trkpt><trkpt lat="40.690447" lon="9.1439153"><ele>290.0</ele><time>2026-03-22T08:06:13.238Z</time></trkpt><trkpt lat="40.6904659" lon="9.1439951"><ele>290.0</ele><time>2026-03-22T08:06:17.238Z</time></trkpt><trkpt lat="40.6902344" lon="9.1441499"><ele>290.0</ele><time>2026-03-22T08:06:23.238Z</time></trkpt><trkpt lat="40.690139" lon="9.1441666"><ele>291.5</ele><time>2026-03-22T08:06:25.238Z</time></trkpt><trkpt lat="40.6900349" lon="9.1441693"><ele>293.0</ele><time>2026-03-22T08:06:27.238Z</time></trkpt><trkpt lat="40.6899128" lon="9.1441865"><ele>294.5</ele><time>2026-03-22T08:06:29.238Z</time></trkpt><trkpt lat="40.6897955" lon="9.1442153"><ele>296.0</ele><time>2026-03-22T08:06:31.238Z</time></trkpt><trkpt lat="40.689685" lon="9.1442658"><ele>296.0</ele><time>2026-03-22T08:06:33.238Z</time></trkpt><trkpt lat="40.689599" lon="9.1443312"><ele>296.0</ele><time>2026-03-22T08:06:35.238Z</time></trkpt><trkpt lat="40.6895096" lon="9.1444434"><ele>296.0</ele><time>2026-03-22T08:06:37.238Z</time></trkpt><trkpt lat="40.6894402" lon="9.1445676"><ele>296.0</ele><time>2026-03-22T08:06:39.238Z</time></trkpt><trkpt lat="40.6893989" lon="9.144692"><ele>296.0</ele><time>2026-03-22T08:06:41.238Z</time></trkpt><trkpt lat="40.6893714" lon="9.1448378"><ele>296.6</ele><time>2026-03-22T08:06:43.238Z</time></trkpt><trkpt lat="40.689365" lon="9.144968"><ele>297.20000000000005</ele><time>2026-03-22T08:06:45.238Z</time></trkpt><trkpt lat="40.6893429" lon="9.1450846"><ele>297.79999999999995</ele><time>2026-03-22T08:06:47.238Z</time></trkpt><trkpt lat="40.6892995" lon="9.1451846"><ele>298.4</ele><time>2026-03-22T08:06:49.238Z</time></trkpt><trkpt lat="40.689247" lon="9.1452959"><ele>299.0</ele><time>2026-03-22T08:06:51.238Z</time></trkpt><trkpt lat="40.6891972" lon="9.1454454"><ele>299.0</ele><time>2026-03-22T08:06:53.238Z</time></trkpt><trkpt lat="40.6891597" lon="9.1455912"><ele>299.0</ele><time>2026-03-22T08:06:55.238Z</time></trkpt><trkpt lat="40.6891439" lon="9.1457439"><ele>299.0</ele><time>2026-03-22T08:06:57.238Z</time></trkpt><trkpt lat="40.6891482" lon="9.1458963"><ele>299.0</ele><time>2026-03-22T08:06:59.238Z</time></trkpt><trkpt lat="40.6891456" lon="9.1460414"><ele>299.59999999999997</ele><time>2026-03-22T08:07:01.238Z</time></trkpt><trkpt lat="40.6891188" lon="9.1462044"><ele>300.2</ele><time>2026-03-22T08:07:03.238Z</time></trkpt><trkpt lat="40.6891016" lon="9.1462859"><ele>300.79999999999995</ele><time>2026-03-22T08:07:04.238Z</time></trkpt><trkpt lat="40.6890718" lon="9.1464362"><ele>301.4</ele><time>2026-03-22T08:07:06.238Z</time></trkpt><trkpt lat="40.6890525" lon="9.1465626"><ele>302.0</ele><time>2026-03-22T08:07:08.238Z</time></trkpt><trkpt lat="40.6890427" lon="9.1466642"><ele>303.0</ele><time>2026-03-22T08:07:10.238Z</time></trkpt><trkpt lat="40.6890171" lon="9.1467668"><ele>304.0</ele><time>2026-03-22T08:07:12.238Z</time></trkpt><trkpt lat="40.688978" lon="9.1469499"><ele>305.0</ele><time>2026-03-22T08:07:15.238Z</time></trkpt><trkpt lat="40.6889511" lon="9.1470952"><ele>306.0</ele><time>2026-03-22T08:07:17.238Z</time></trkpt><trkpt lat="40.6889307" lon="9.1472064"><ele>307.0</ele><time>2026-03-22T08:07:19.238Z</time></trkpt><trkpt lat="40.6889114" lon="9.1473081"><ele>309.6</ele><time>2026-03-22T08:07:21.238Z</time></trkpt><trkpt lat="40.6889015" lon="9.1474138"><ele>312.2</ele><time>2026-03-22T08:07:23.238Z</time></trkpt><trkpt lat="40.6888659" lon="9.1475841"><ele>314.8</ele><time>2026-03-22T08:07:26.238Z</time></trkpt><trkpt lat="40.6888492" lon="9.1477243"><ele>317.4</ele><time>2026-03-22T08:07:28.238Z</time></trkpt><trkpt lat="40.6888246" lon="9.1478688"><ele>320.0</ele><time>2026-03-22T08:07:30.238Z</time></trkpt><trkpt lat="40.6887996" lon="9.1480246"><ele>320.0</ele><time>2026-03-22T08:07:32.238Z</time></trkpt><trkpt lat="40.6887718" lon="9.1481773"><ele>320.0</ele><time>2026-03-22T08:07:34.238Z</time></trkpt><trkpt lat="40.688728" lon="9.1483157"><ele>320.0</ele><time>2026-03-22T08:07:36.238Z</time></trkpt><trkpt lat="40.6886662" lon="9.1484215"><ele>320.0</ele><time>2026-03-22T08:07:38.238Z</time></trkpt><trkpt lat="40.6885801" lon="9.1485204"><ele>320.0</ele><time>2026-03-22T08:07:40.238Z</time></trkpt><trkpt lat="40.6884879" lon="9.1486136"><ele>322.2</ele><time>2026-03-22T08:07:42.238Z</time></trkpt><trkpt lat="40.6884096" lon="9.1487389"><ele>324.4</ele><time>2026-03-22T08:07:44.238Z</time></trkpt><trkpt lat="40.6883468" lon="9.1488563"><ele>326.6</ele><time>2026-03-22T08:07:46.238Z</time></trkpt><trkpt lat="40.6882823" lon="9.1489346"><ele>328.8</ele><time>2026-03-22T08:07:48.238Z</time></trkpt><trkpt lat="40.6882077" lon="9.1489698"><ele>331.0</ele><time>2026-03-22T08:07:50.238Z</time></trkpt><trkpt lat="40.6881169" lon="9.1489921"><ele>332.0</ele><time>2026-03-22T08:07:52.238Z</time></trkpt><trkpt lat="40.6880049" lon="9.1490746"><ele>333.0</ele><time>2026-03-22T08:07:54.238Z</time></trkpt><trkpt lat="40.6879137" lon="9.1491542"><ele>334.0</ele><time>2026-03-22T08:07:56.238Z</time></trkpt><trkpt lat="40.6878256" lon="9.1492464"><ele>335.0</ele><time>2026-03-22T08:07:58.238Z</time></trkpt><trkpt lat="40.6877466" lon="9.1493409"><ele>336.0</ele><time>2026-03-22T08:08:00.238Z</time></trkpt><trkpt lat="40.6876492" lon="9.1494097"><ele>337.0</ele><time>2026-03-22T08:08:02.238Z</time></trkpt><trkpt lat="40.6875517" lon="9.149479"><ele>338.0</ele><time>2026-03-22T08:08:04.238Z</time></trkpt><trkpt lat="40.6874479" lon="9.1495582"><ele>339.0</ele><time>2026-03-22T08:08:06.238Z</time></trkpt><trkpt lat="40.6873885" lon="9.1496109"><ele>340.0</ele><time>2026-03-22T08:08:07.238Z</time></trkpt><trkpt lat="40.6873335" lon="9.1496699"><ele>340.0</ele><time>2026-03-22T08:08:08.238Z</time></trkpt><trkpt lat="40.6872843" lon="9.14973"><ele>340.0</ele><time>2026-03-22T08:08:09.238Z</time></trkpt><trkpt lat="40.6872499" lon="9.1498078"><ele>340.0</ele><time>2026-03-22T08:08:10.238Z</time></trkpt><trkpt lat="40.6872327" lon="9.149893"><ele>340.0</ele><time>2026-03-22T08:08:11.238Z</time></trkpt><trkpt lat="40.6872122" lon="9.1500214"><ele>340.0</ele><time>2026-03-22T08:08:13.238Z</time></trkpt><trkpt lat="40.6871778" lon="9.1501461"><ele>340.0</ele><time>2026-03-22T08:08:15.238Z</time></trkpt><trkpt lat="40.6871511" lon="9.1502916"><ele>341.0</ele><time>2026-03-22T08:08:17.238Z</time></trkpt><trkpt lat="40.6871278" lon="9.1504375"><ele>342.0</ele><time>2026-03-22T08:08:19.238Z</time></trkpt><trkpt lat="40.6871289" lon="9.1505227"><ele>343.0</ele><time>2026-03-22T08:08:20.238Z</time></trkpt><trkpt lat="40.6871245" lon="9.15067"><ele>344.0</ele><time>2026-03-22T08:08:22.238Z</time></trkpt><trkpt lat="40.6871623" lon="9.1508114"><ele>345.0</ele><time>2026-03-22T08:08:24.238Z</time></trkpt><trkpt lat="40.6872342" lon="9.1509087"><ele>346.1666666666667</ele><time>2026-03-22T08:08:26.238Z</time></trkpt><trkpt lat="40.6873206" lon="9.1509526"><ele>347.3333333333333</ele><time>2026-03-22T08:08:28.238Z</time></trkpt><trkpt lat="40.6873745" lon="9.1510112"><ele>348.5</ele><time>2026-03-22T08:08:30.238Z</time></trkpt><trkpt lat="40.6874223" lon="9.1511107"><ele>349.66666666666663</ele><time>2026-03-22T08:08:32.238Z</time></trkpt><trkpt lat="40.6874582" lon="9.1511851"><ele>350.8333333333333</ele><time>2026-03-22T08:08:34.238Z</time></trkpt><trkpt lat="40.6874856" lon="9.1512686"><ele>352.0</ele><time>2026-03-22T08:08:36.238Z</time></trkpt><trkpt lat="40.6875047" lon="9.1513598"><ele>352.0</ele><time>2026-03-22T08:08:38.238Z</time></trkpt><trkpt lat="40.6875049" lon="9.1514461"><ele>352.0</ele><time>2026-03-22T08:08:40.238Z</time></trkpt><trkpt lat="40.6874114" lon="9.1515662"><ele>352.0</ele><time>2026-03-22T08:08:41.238Z</time></trkpt><trkpt lat="40.6873831" lon="9.1516796"><ele>352.0</ele><time>2026-03-22T08:08:43.238Z</time></trkpt><trkpt lat="40.6873634" lon="9.1517655"><ele>352.0</ele><time>2026-03-22T08:08:45.238Z</time></trkpt><trkpt lat="40.6873458" lon="9.1518467"><ele>352.0</ele><time>2026-03-22T08:08:47.238Z</time></trkpt><trkpt lat="40.6873106" lon="9.1519221"><ele>353.0</ele><time>2026-03-22T08:08:52.238Z</time></trkpt><trkpt lat="40.6872618" lon="9.1519758"><ele>354.0</ele><time>2026-03-22T08:08:54.238Z</time></trkpt><trkpt lat="40.6871869" lon="9.1520445"><ele>355.0</ele><time>2026-03-22T08:08:56.238Z</time></trkpt><trkpt lat="40.6871302" lon="9.1520991"><ele>356.0</ele><time>2026-03-22T08:08:58.238Z</time></trkpt><trkpt lat="40.6870339" lon="9.1520781"><ele>357.0</ele><time>2026-03-22T08:09:09.238Z</time></trkpt><trkpt lat="40.687007" lon="9.1519553"><ele>358.0</ele><time>2026-03-22T08:09:12.237Z</time></trkpt><trkpt lat="40.6870184" lon="9.1518707"><ele>358.0</ele><time>2026-03-22T08:09:13.238Z</time></trkpt><trkpt lat="40.6869728" lon="9.1517323"><ele>358.0</ele><time>2026-03-22T08:09:15.238Z</time></trkpt><trkpt lat="40.6869344" lon="9.1516655"><ele>358.0</ele><time>2026-03-22T08:09:16.238Z</time></trkpt><trkpt lat="40.6868839" lon="9.151602"><ele>358.0</ele><time>2026-03-22T08:09:17.238Z</time></trkpt><trkpt lat="40.6868279" lon="9.1515422"><ele>358.0</ele><time>2026-03-22T08:09:18.238Z</time></trkpt><trkpt lat="40.6867646" lon="9.151487"><ele>358.0</ele><time>2026-03-22T08:09:19.238Z</time></trkpt><trkpt lat="40.6866911" lon="9.1514398"><ele>359.75</ele><time>2026-03-22T08:09:20.238Z</time></trkpt><trkpt lat="40.6866162" lon="9.1513967"><ele>361.5</ele><time>2026-03-22T08:09:21.238Z</time></trkpt><trkpt lat="40.6864795" lon="9.1513324"><ele>363.25</ele><time>2026-03-22T08:09:23.238Z</time></trkpt><trkpt lat="40.6863616" lon="9.1512765"><ele>365.0</ele><time>2026-03-22T08:09:25.238Z</time></trkpt><trkpt lat="40.6862496" lon="9.1512122"><ele>365.0</ele><time>2026-03-22T08:09:27.238Z</time></trkpt><trkpt lat="40.6861932" lon="9.1511746"><ele>365.0</ele><time>2026-03-22T08:09:28.238Z</time></trkpt><trkpt lat="40.6861374" lon="9.1511323"><ele>365.0</ele><time>2026-03-22T08:09:29.238Z</time></trkpt><trkpt lat="40.6860251" lon="9.1510326"><ele>365.0</ele><time>2026-03-22T08:09:31.238Z</time></trkpt><trkpt lat="40.6859208" lon="9.1509206"><ele>365.0</ele><time>2026-03-22T08:09:33.238Z</time></trkpt><trkpt lat="40.6858243" lon="9.1508021"><ele>368.2</ele><time>2026-03-22T08:09:35.238Z</time></trkpt><trkpt lat="40.6857831" lon="9.1507362"><ele>371.4</ele><time>2026-03-22T08:09:36.238Z</time></trkpt><trkpt lat="40.685745" lon="9.1506654"><ele>374.6</ele><time>2026-03-22T08:09:37.238Z</time></trkpt><trkpt lat="40.6856729" lon="9.1505152"><ele>377.8</ele><time>2026-03-22T08:09:39.238Z</time></trkpt><trkpt lat="40.6856072" lon="9.1503594"><ele>381.0</ele><time>2026-03-22T08:09:41.238Z</time></trkpt><trkpt lat="40.6855355" lon="9.1502118"><ele>381.25</ele><time>2026-03-22T08:09:43.238Z</time></trkpt><trkpt lat="40.6854466" lon="9.1500662"><ele>381.5</ele><time>2026-03-22T08:09:45.238Z</time></trkpt><trkpt lat="40.6853393" lon="9.1499545"><ele>381.75</ele><time>2026-03-22T08:09:47.238Z</time></trkpt><trkpt lat="40.6852266" lon="9.1498673"><ele>382.0</ele><time>2026-03-22T08:09:49.238Z</time></trkpt><trkpt lat="40.6851049" lon="9.1498092"><ele>384.40000000000003</ele><time>2026-03-22T08:09:51.238Z</time></trkpt><trkpt lat="40.684956" lon="9.1497842"><ele>386.8</ele><time>2026-03-22T08:09:53.238Z</time></trkpt><trkpt lat="40.6848827" lon="9.1497744"><ele>389.2</ele><time>2026-03-22T08:09:54.238Z</time></trkpt><trkpt lat="40.6848079" lon="9.1497696"><ele>391.6</ele><time>2026-03-22T08:09:55.238Z</time></trkpt><trkpt lat="40.6847306" lon="9.1497689"><ele>394.0</ele><time>2026-03-22T08:09:56.238Z</time></trkpt><trkpt lat="40.6845822" lon="9.1497397"><ele>394.25</ele><time>2026-03-22T08:09:58.238Z</time></trkpt><trkpt lat="40.6844184" lon="9.1497261"><ele>394.5</ele><time>2026-03-22T08:10:00.238Z</time></trkpt><trkpt lat="40.6842738" lon="9.1497106"><ele>394.75</ele><time>2026-03-22T08:10:02.238Z</time></trkpt><trkpt lat="40.6841609" lon="9.1496979"><ele>395.0</ele><time>2026-03-22T08:10:04.238Z</time></trkpt><trkpt lat="40.6840487" lon="9.1497038"><ele>394.99999999999994</ele><time>2026-03-22T08:10:06.238Z</time></trkpt><trkpt lat="40.6839671" lon="9.1497128"><ele>395.0</ele><time>2026-03-22T08:10:09.238Z</time></trkpt><trkpt lat="40.6838971" lon="9.1497409"><ele>395.0</ele><time>2026-03-22T08:12:41.239Z</time></trkpt><trkpt lat="40.6838065" lon="9.1497498"><ele>395.0</ele><time>2026-03-22T08:12:43.239Z</time></trkpt><trkpt lat="40.68373" lon="9.1497779"><ele>394.99999999999994</ele><time>2026-03-22T08:12:45.239Z</time></trkpt><trkpt lat="40.6836529" lon="9.1497953"><ele>395.0</ele><time>2026-03-22T08:12:47.239Z</time></trkpt><trkpt lat="40.6835269" lon="9.1497733"><ele>395.2</ele><time>2026-03-22T08:12:49.239Z</time></trkpt><trkpt lat="40.6834153" lon="9.1497841"><ele>395.4</ele><time>2026-03-22T08:12:51.239Z</time></trkpt><trkpt lat="40.6833197" lon="9.1498003"><ele>395.6</ele><time>2026-03-22T08:12:53.239Z</time></trkpt><trkpt lat="40.6832391" lon="9.1498214"><ele>395.8</ele><time>2026-03-22T08:12:55.239Z</time></trkpt><trkpt lat="40.6831449" lon="9.1497971"><ele>396.0</ele><time>2026-03-22T08:12:57.239Z</time></trkpt><trkpt lat="40.683042" lon="9.1497821"><ele>396.0</ele><time>2026-03-22T08:12:59.239Z</time></trkpt><trkpt lat="40.6829748" lon="9.1497681"><ele>396.0</ele><time>2026-03-22T08:13:00.239Z</time></trkpt><trkpt lat="40.6828675" lon="9.1497313"><ele>396.0</ele><time>2026-03-22T08:13:02.239Z</time></trkpt><trkpt lat="40.6827541" lon="9.149701"><ele>396.0</ele><time>2026-03-22T08:13:04.239Z</time></trkpt><trkpt lat="40.6826422" lon="9.1496577"><ele>396.0</ele><time>2026-03-22T08:13:06.239Z</time></trkpt><trkpt lat="40.6825194" lon="9.1496206"><ele>396.8</ele><time>2026-03-22T08:13:08.239Z</time></trkpt><trkpt lat="40.6824034" lon="9.1495989"><ele>397.6</ele><time>2026-03-22T08:13:10.239Z</time></trkpt><trkpt lat="40.6823372" lon="9.1495933"><ele>398.4</ele><time>2026-03-22T08:13:11.239Z</time></trkpt><trkpt lat="40.6822318" lon="9.149542"><ele>399.2</ele><time>2026-03-22T08:13:13.239Z</time></trkpt><trkpt lat="40.6821686" lon="9.1495163"><ele>400.0</ele><time>2026-03-22T08:13:14.239Z</time></trkpt><trkpt lat="40.682057" lon="9.1494767"><ele>400.0</ele><time>2026-03-22T08:13:16.239Z</time></trkpt><trkpt lat="40.6819448" lon="9.1494567"><ele>400.0</ele><time>2026-03-22T08:13:18.239Z</time></trkpt><trkpt lat="40.6818343" lon="9.1494611"><ele>400.0</ele><time>2026-03-22T08:13:20.239Z</time></trkpt><trkpt lat="40.6817253" lon="9.1495119"><ele>400.0</ele><time>2026-03-22T08:13:22.239Z</time></trkpt><trkpt lat="40.6816222" lon="9.149571"><ele>400.83333333333337</ele><time>2026-03-22T08:13:24.239Z</time></trkpt><trkpt lat="40.6815601" lon="9.149589"><ele>401.6666666666667</ele><time>2026-03-22T08:13:26.239Z</time></trkpt><trkpt lat="40.6814959" lon="9.1496203"><ele>402.5</ele><time>2026-03-22T08:13:30.239Z</time></trkpt><trkpt lat="40.6814254" lon="9.1495846"><ele>403.33333333333337</ele><time>2026-03-22T08:13:41.239Z</time></trkpt><trkpt lat="40.681364" lon="9.1495646"><ele>404.1666666666667</ele><time>2026-03-22T08:13:43.239Z</time></trkpt><trkpt lat="40.6812639" lon="9.149485"><ele>405.0</ele><time>2026-03-22T08:13:46.239Z</time></trkpt><trkpt lat="40.6811795" lon="9.1494273"><ele>407.2</ele><time>2026-03-22T08:13:48.239Z</time></trkpt><trkpt lat="40.681074" lon="9.1494326"><ele>409.4</ele><time>2026-03-22T08:13:50.239Z</time></trkpt><trkpt lat="40.6809723" lon="9.1494708"><ele>411.6</ele><time>2026-03-22T08:13:52.239Z</time></trkpt><trkpt lat="40.6808626" lon="9.1495396"><ele>413.8</ele><time>2026-03-22T08:13:55.239Z</time></trkpt><trkpt lat="40.6807973" lon="9.1495872"><ele>416.0</ele><time>2026-03-22T08:13:57.239Z</time></trkpt><trkpt lat="40.6806791" lon="9.1496746"><ele>416.0</ele><time>2026-03-22T08:14:00.239Z</time></trkpt><trkpt lat="40.6805936" lon="9.1496862"><ele>416.0</ele><time>2026-03-22T08:14:02.239Z</time></trkpt><trkpt lat="40.6805084" lon="9.1496731"><ele>416.0</ele><time>2026-03-22T08:14:04.239Z</time></trkpt><trkpt lat="40.6804312" lon="9.1496518"><ele>416.0</ele><time>2026-03-22T08:14:06.239Z</time></trkpt><trkpt lat="40.6803235" lon="9.1495139"><ele>416.0</ele><time>2026-03-22T08:14:09.239Z</time></trkpt><trkpt lat="40.6802625" lon="9.1494198"><ele>420.75</ele><time>2026-03-22T08:14:11.239Z</time></trkpt><trkpt lat="40.6801972" lon="9.1493153"><ele>425.5</ele><time>2026-03-22T08:14:13.239Z</time></trkpt><trkpt lat="40.6801324" lon="9.1492057"><ele>430.25</ele><time>2026-03-22T08:14:15.239Z</time></trkpt><trkpt lat="40.6800826" lon="9.1489875"><ele>435.0</ele><time>2026-03-22T08:14:18.239Z</time></trkpt><trkpt lat="40.6800653" lon="9.1488586"><ele>435.0</ele><time>2026-03-22T08:14:20.239Z</time></trkpt><trkpt lat="40.6800629" lon="9.1486889"><ele>435.0</ele><time>2026-03-22T08:14:23.239Z</time></trkpt><trkpt lat="40.6800674" lon="9.1485842"><ele>435.0</ele><time>2026-03-22T08:14:25.239Z</time></trkpt><trkpt lat="40.6800583" lon="9.1484755"><ele>435.0</ele><time>2026-03-22T08:14:27.239Z</time></trkpt><trkpt lat="40.6800409" lon="9.1483583"><ele>435.0</ele><time>2026-03-22T08:14:29.239Z</time></trkpt><trkpt lat="40.6799838" lon="9.1482387"><ele>435.8</ele><time>2026-03-22T08:14:31.239Z</time></trkpt><trkpt lat="40.6798936" lon="9.1481308"><ele>436.6</ele><time>2026-03-22T08:14:33.239Z</time></trkpt><trkpt lat="40.6798418" lon="9.1480791"><ele>437.4</ele><time>2026-03-22T08:14:34.239Z</time></trkpt><trkpt lat="40.6797467" lon="9.1480119"><ele>438.2</ele><time>2026-03-22T08:14:36.239Z</time></trkpt><trkpt lat="40.6796584" lon="9.147992"><ele>439.0</ele><time>2026-03-22T08:14:38.239Z</time></trkpt><trkpt lat="40.6795898" lon="9.1479933"><ele>439.0</ele><time>2026-03-22T08:14:40.239Z</time></trkpt><trkpt lat="40.6795182" lon="9.1479571"><ele>439.0</ele><time>2026-03-22T08:14:48.239Z</time></trkpt><trkpt lat="40.679432" lon="9.1479046"><ele>439.0</ele><time>2026-03-22T08:14:55.239Z</time></trkpt><trkpt lat="40.6793581" lon="9.1478885"><ele>439.0</ele><time>2026-03-22T08:14:56.239Z</time></trkpt><trkpt lat="40.6792521" lon="9.1478353"><ele>439.0</ele><time>2026-03-22T08:14:58.239Z</time></trkpt><trkpt lat="40.679151" lon="9.1477586"><ele>442.25</ele><time>2026-03-22T08:15:00.239Z</time></trkpt><trkpt lat="40.6790542" lon="9.1476876"><ele>445.5</ele><time>2026-03-22T08:15:02.239Z</time></trkpt><trkpt lat="40.6789535" lon="9.1476193"><ele>448.75</ele><time>2026-03-22T08:15:04.239Z</time></trkpt><trkpt lat="40.6788034" lon="9.1475089"><ele>452.0</ele><time>2026-03-22T08:15:07.239Z</time></trkpt><trkpt lat="40.6787204" lon="9.1474309"><ele>456.40000000000003</ele><time>2026-03-22T08:15:09.239Z</time></trkpt><trkpt lat="40.678593" lon="9.1473039"><ele>460.80000000000007</ele><time>2026-03-22T08:15:12.239Z</time></trkpt><trkpt lat="40.6785357" lon="9.1472308"><ele>465.2</ele><time>2026-03-22T08:15:14.239Z</time></trkpt><trkpt lat="40.6784612" lon="9.1471646"><ele>469.6</ele><time>2026-03-22T08:15:16.239Z</time></trkpt><trkpt lat="40.6783715" lon="9.1470979"><ele>474.0</ele><time>2026-03-22T08:15:18.239Z</time></trkpt><trkpt lat="40.6782655" lon="9.1470647"><ele>474.0</ele><time>2026-03-22T08:15:20.239Z</time></trkpt><trkpt lat="40.6781994" lon="9.1470598"><ele>474.0</ele><time>2026-03-22T08:15:21.239Z</time></trkpt><trkpt lat="40.6780918" lon="9.1470461"><ele>474.0</ele><time>2026-03-22T08:15:23.239Z</time></trkpt><trkpt lat="40.6778888" lon="9.1470621"><ele>474.0</ele><time>2026-03-22T08:15:26.239Z</time></trkpt><trkpt lat="40.6777629" lon="9.1470714"><ele>475.2</ele><time>2026-03-22T08:15:28.239Z</time></trkpt><trkpt lat="40.6776528" lon="9.1470993"><ele>476.4</ele><time>2026-03-22T08:15:30.239Z</time></trkpt><trkpt lat="40.6775651" lon="9.1471376"><ele>477.6</ele><time>2026-03-22T08:15:32.239Z</time></trkpt><trkpt lat="40.6774942" lon="9.1471842"><ele>478.8</ele><time>2026-03-22T08:15:34.239Z</time></trkpt><trkpt lat="40.6774065" lon="9.1472314"><ele>480.0</ele><time>2026-03-22T08:15:36.239Z</time></trkpt><trkpt lat="40.6773033" lon="9.147297"><ele>480.0</ele><time>2026-03-22T08:15:38.239Z</time></trkpt><trkpt lat="40.6771859" lon="9.1473583"><ele>480.0</ele><time>2026-03-22T08:15:40.239Z</time></trkpt><trkpt lat="40.6770553" lon="9.1474195"><ele>480.0</ele><time>2026-03-22T08:15:42.239Z</time></trkpt><trkpt lat="40.6769293" lon="9.1474761"><ele>480.0</ele><time>2026-03-22T08:15:44.239Z</time></trkpt><trkpt lat="40.6767957" lon="9.147509"><ele>478.25</ele><time>2026-03-22T08:15:46.239Z</time></trkpt><trkpt lat="40.6766527" lon="9.1475132"><ele>476.5</ele><time>2026-03-22T08:15:48.239Z</time></trkpt><trkpt lat="40.6765186" lon="9.1475044"><ele>474.75</ele><time>2026-03-22T08:15:50.239Z</time></trkpt><trkpt lat="40.6763923" lon="9.1474731"><ele>473.0</ele><time>2026-03-22T08:15:52.239Z</time></trkpt><trkpt lat="40.6762554" lon="9.1474351"><ele>473.0</ele><time>2026-03-22T08:15:54.239Z</time></trkpt><trkpt lat="40.6761827" lon="9.1474093"><ele>472.99999999999994</ele><time>2026-03-22T08:15:55.239Z</time></trkpt><trkpt lat="40.6760409" lon="9.147351"><ele>472.99999999999994</ele><time>2026-03-22T08:15:57.239Z</time></trkpt><trkpt lat="40.6759682" lon="9.1473139"><ele>473.0</ele><time>2026-03-22T08:15:58.239Z</time></trkpt><trkpt lat="40.6758986" lon="9.1472818"><ele>473.0</ele><time>2026-03-22T08:15:59.239Z</time></trkpt><trkpt lat="40.6757829" lon="9.1472052"><ele>471.0</ele><time>2026-03-22T08:16:01.239Z</time></trkpt><trkpt lat="40.6756697" lon="9.1471217"><ele>469.0</ele><time>2026-03-22T08:16:03.239Z</time></trkpt><trkpt lat="40.675552" lon="9.1470481"><ele>467.0</ele><time>2026-03-22T08:16:05.239Z</time></trkpt><trkpt lat="40.6754377" lon="9.1470075"><ele>465.0</ele><time>2026-03-22T08:16:07.239Z</time></trkpt><trkpt lat="40.6753134" lon="9.1470194"><ele>464.75</ele><time>2026-03-22T08:16:09.239Z</time></trkpt><trkpt lat="40.6751909" lon="9.1470693"><ele>464.5</ele><time>2026-03-22T08:16:11.239Z</time></trkpt><trkpt lat="40.6750665" lon="9.1471117"><ele>464.25</ele><time>2026-03-22T08:16:13.239Z</time></trkpt><trkpt lat="40.6749525" lon="9.1471486"><ele>464.0</ele><time>2026-03-22T08:16:15.239Z</time></trkpt><trkpt lat="40.6748509" lon="9.1471845"><ele>463.99999999999994</ele><time>2026-03-22T08:16:17.239Z</time></trkpt><trkpt lat="40.6747385" lon="9.1472198"><ele>464.0</ele><time>2026-03-22T08:16:19.239Z</time></trkpt><trkpt lat="40.6746354" lon="9.1472763"><ele>464.0</ele><time>2026-03-22T08:16:21.239Z</time></trkpt><trkpt lat="40.6745787" lon="9.1473168"><ele>464.0</ele><time>2026-03-22T08:16:22.239Z</time></trkpt><trkpt lat="40.6745236" lon="9.1473645"><ele>463.99999999999994</ele><time>2026-03-22T08:16:23.239Z</time></trkpt><trkpt lat="40.674469" lon="9.1474176"><ele>464.0</ele><time>2026-03-22T08:16:24.239Z</time></trkpt><trkpt lat="40.6744141" lon="9.1474729"><ele>466.2</ele><time>2026-03-22T08:16:25.239Z</time></trkpt><trkpt lat="40.6743657" lon="9.1475288"><ele>468.4</ele><time>2026-03-22T08:16:26.239Z</time></trkpt><trkpt lat="40.6743129" lon="9.1475848"><ele>470.6</ele><time>2026-03-22T08:16:27.239Z</time></trkpt><trkpt lat="40.6742245" lon="9.1477137"><ele>472.8</ele><time>2026-03-22T08:16:29.239Z</time></trkpt><trkpt lat="40.6741643" lon="9.1478605"><ele>475.0</ele><time>2026-03-22T08:16:31.239Z</time></trkpt><trkpt lat="40.6741268" lon="9.1480139"><ele>475.00000000000006</ele><time>2026-03-22T08:16:33.239Z</time></trkpt><trkpt lat="40.6741051" lon="9.1480933"><ele>475.0</ele><time>2026-03-22T08:16:34.239Z</time></trkpt><trkpt lat="40.6740984" lon="9.1481877"><ele>475.0</ele><time>2026-03-22T08:16:35.239Z</time></trkpt><trkpt lat="40.6740966" lon="9.1482936"><ele>475.0</ele><time>2026-03-22T08:16:36.239Z</time></trkpt><trkpt lat="40.6740885" lon="9.1484011"><ele>475.00000000000006</ele><time>2026-03-22T08:16:37.239Z</time></trkpt><trkpt lat="40.6740987" lon="9.1485005"><ele>475.0</ele><time>2026-03-22T08:16:38.239Z</time></trkpt><trkpt lat="40.6741041" lon="9.1486002"><ele>476.83333333333337</ele><time>2026-03-22T08:16:39.239Z</time></trkpt><trkpt lat="40.6741186" lon="9.1486967"><ele>478.6666666666667</ele><time>2026-03-22T08:16:40.239Z</time></trkpt><trkpt lat="40.6741279" lon="9.1487791"><ele>480.5</ele><time>2026-03-22T08:16:41.239Z</time></trkpt><trkpt lat="40.6741296" lon="9.1488654"><ele>482.33333333333337</ele><time>2026-03-22T08:16:42.239Z</time></trkpt><trkpt lat="40.674151" lon="9.1490225"><ele>484.1666666666667</ele><time>2026-03-22T08:16:44.239Z</time></trkpt><trkpt lat="40.6741591" lon="9.1491755"><ele>486.0</ele><time>2026-03-22T08:16:46.239Z</time></trkpt><trkpt lat="40.6741557" lon="9.1492729"><ele>486.8</ele><time>2026-03-22T08:16:47.239Z</time></trkpt><trkpt lat="40.6741399" lon="9.1493982"><ele>487.6</ele><time>2026-03-22T08:16:49.239Z</time></trkpt><trkpt lat="40.6741" lon="9.1495088"><ele>488.4</ele><time>2026-03-22T08:16:51.239Z</time></trkpt><trkpt lat="40.6740649" lon="9.1496312"><ele>489.2</ele><time>2026-03-22T08:16:53.239Z</time></trkpt><trkpt lat="40.6740366" lon="9.1497688"><ele>490.0</ele><time>2026-03-22T08:16:55.239Z</time></trkpt><trkpt lat="40.674019" lon="9.1498486"><ele>491.6666666666667</ele><time>2026-03-22T08:16:56.239Z</time></trkpt><trkpt lat="40.6740015" lon="9.1499326"><ele>493.33333333333337</ele><time>2026-03-22T08:16:57.239Z</time></trkpt><trkpt lat="40.6739804" lon="9.1500195"><ele>495.0</ele><time>2026-03-22T08:16:58.239Z</time></trkpt><trkpt lat="40.6739522" lon="9.1501934"><ele>496.66666666666663</ele><time>2026-03-22T08:17:00.239Z</time></trkpt><trkpt lat="40.6739362" lon="9.1502921"><ele>498.3333333333333</ele><time>2026-03-22T08:17:01.239Z</time></trkpt><trkpt lat="40.6739263" lon="9.1504067"><ele>500.0</ele><time>2026-03-22T08:17:02.239Z</time></trkpt><trkpt lat="40.6739183" lon="9.1505206"><ele>499.99999999999994</ele><time>2026-03-22T08:17:03.239Z</time></trkpt><trkpt lat="40.673914" lon="9.1506316"><ele>500.0</ele><time>2026-03-22T08:17:04.239Z</time></trkpt><trkpt lat="40.673921" lon="9.1507405"><ele>500.0</ele><time>2026-03-22T08:17:05.239Z</time></trkpt><trkpt lat="40.673926" lon="9.1508353"><ele>500.0</ele><time>2026-03-22T08:17:06.239Z</time></trkpt><trkpt lat="40.6739323" lon="9.150922"><ele>499.99999999999994</ele><time>2026-03-22T08:17:07.239Z</time></trkpt><trkpt lat="40.6739323" lon="9.151066"><ele>500.0</ele><time>2026-03-22T08:17:09.239Z</time></trkpt><trkpt lat="40.6739119" lon="9.151222"><ele>501.8333333333333</ele><time>2026-03-22T08:17:11.239Z</time></trkpt><trkpt lat="40.6738947" lon="9.1513517"><ele>503.66666666666663</ele><time>2026-03-22T08:17:13.239Z</time></trkpt><trkpt lat="40.673883" lon="9.1514335"><ele>505.5</ele><time>2026-03-22T08:17:14.239Z</time></trkpt><trkpt lat="40.6738777" lon="9.1515316"><ele>507.33333333333337</ele><time>2026-03-22T08:17:15.239Z</time></trkpt><trkpt lat="40.6738781" lon="9.1516231"><ele>509.1666666666667</ele><time>2026-03-22T08:17:16.239Z</time></trkpt><trkpt lat="40.6738757" lon="9.1517236"><ele>511.0</ele><time>2026-03-22T08:17:17.239Z</time></trkpt><trkpt lat="40.6738576" lon="9.1519305"><ele>513.3333333333334</ele><time>2026-03-22T08:17:19.239Z</time></trkpt><trkpt lat="40.6738425" lon="9.1521517"><ele>515.6666666666666</ele><time>2026-03-22T08:17:21.239Z</time></trkpt><trkpt lat="40.6738344" lon="9.1523884"><ele>518.0</ele><time>2026-03-22T08:17:23.239Z</time></trkpt><trkpt lat="40.6738191" lon="9.1526039"><ele>518.75</ele><time>2026-03-22T08:17:25.239Z</time></trkpt><trkpt lat="40.6738134" lon="9.1528029"><ele>519.5</ele><time>2026-03-22T08:17:27.239Z</time></trkpt><trkpt lat="40.6738237" lon="9.1529882"><ele>520.25</ele><time>2026-03-22T08:17:29.239Z</time></trkpt><trkpt lat="40.6738197" lon="9.1531601"><ele>521.0</ele><time>2026-03-22T08:17:31.239Z</time></trkpt><trkpt lat="40.6738332" lon="9.1533104"><ele>521.0</ele><time>2026-03-22T08:17:33.239Z</time></trkpt><trkpt lat="40.6738851" lon="9.1534456"><ele>521.0</ele><time>2026-03-22T08:17:35.239Z</time></trkpt><trkpt lat="40.6739661" lon="9.1535722"><ele>521.0</ele><time>2026-03-22T08:17:37.239Z</time></trkpt><trkpt lat="40.6740752" lon="9.1536493"><ele>521.0</ele><time>2026-03-22T08:17:39.239Z</time></trkpt><trkpt lat="40.6741837" lon="9.1537411"><ele>521.0</ele><time>2026-03-22T08:17:41.239Z</time></trkpt><trkpt lat="40.6742642" lon="9.153872"><ele>521.0</ele><time>2026-03-22T08:17:43.239Z</time></trkpt><trkpt lat="40.6742963" lon="9.1539542"><ele>521.0</ele><time>2026-03-22T08:17:44.239Z</time></trkpt><trkpt lat="40.674324" lon="9.1540409"><ele>521.0</ele><time>2026-03-22T08:17:45.239Z</time></trkpt><trkpt lat="40.6743551" lon="9.1542083"><ele>521.0</ele><time>2026-03-22T08:17:47.239Z</time></trkpt><trkpt lat="40.6743844" lon="9.1543717"><ele>519.6</ele><time>2026-03-22T08:17:49.239Z</time></trkpt><trkpt lat="40.6743977" lon="9.1544629"><ele>518.2</ele><time>2026-03-22T08:17:50.239Z</time></trkpt><trkpt lat="40.6744075" lon="9.1546602"><ele>516.8</ele><time>2026-03-22T08:17:52.239Z</time></trkpt><trkpt lat="40.6744003" lon="9.1548288"><ele>515.4</ele><time>2026-03-22T08:17:54.239Z</time></trkpt><trkpt lat="40.6743947" lon="9.1549133"><ele>514.0</ele><time>2026-03-22T08:17:55.239Z</time></trkpt><trkpt lat="40.6743728" lon="9.1551043"><ele>514.0</ele><time>2026-03-22T08:17:57.239Z</time></trkpt><trkpt lat="40.6743418" lon="9.1552386"><ele>514.0</ele><time>2026-03-22T08:17:59.239Z</time></trkpt><trkpt lat="40.6743241" lon="9.1553458"><ele>514.0</ele><time>2026-03-22T08:18:01.239Z</time></trkpt><trkpt lat="40.6743113" lon="9.1554561"><ele>514.0</ele><time>2026-03-22T08:18:03.239Z</time></trkpt><trkpt lat="40.6742451" lon="9.1556346"><ele>514.0</ele><time>2026-03-22T08:18:06.239Z</time></trkpt><trkpt lat="40.6742022" lon="9.1557329"><ele>516.5</ele><time>2026-03-22T08:18:08.239Z</time></trkpt><trkpt lat="40.6741501" lon="9.1558573"><ele>519.0</ele><time>2026-03-22T08:18:10.239Z</time></trkpt><trkpt lat="40.6740822" lon="9.1559711"><ele>521.5</ele><time>2026-03-22T08:18:12.239Z</time></trkpt><trkpt lat="40.6740043" lon="9.1561161"><ele>524.0</ele><time>2026-03-22T08:18:14.239Z</time></trkpt><trkpt lat="40.6739371" lon="9.1563051"><ele>524.0</ele><time>2026-03-22T08:18:16.239Z</time></trkpt><trkpt lat="40.6738827" lon="9.1565151"><ele>524.0</ele><time>2026-03-22T08:18:18.239Z</time></trkpt><trkpt lat="40.6738572" lon="9.1567402"><ele>524.0</ele><time>2026-03-22T08:18:20.239Z</time></trkpt><trkpt lat="40.6738363" lon="9.1569682"><ele>527.5</ele><time>2026-03-22T08:18:22.239Z</time></trkpt><trkpt lat="40.673828" lon="9.1570666"><ele>531.0</ele><time>2026-03-22T08:18:23.239Z</time></trkpt><trkpt lat="40.6738195" lon="9.1572647"><ele>534.5</ele><time>2026-03-22T08:18:25.239Z</time></trkpt><trkpt lat="40.6738201" lon="9.1574888"><ele>538.0</ele><time>2026-03-22T08:18:27.239Z</time></trkpt><trkpt lat="40.6738198" lon="9.1575785"><ele>539.0</ele><time>2026-03-22T08:18:28.239Z</time></trkpt><trkpt lat="40.6738094" lon="9.1577605"><ele>540.0</ele><time>2026-03-22T08:18:30.239Z</time></trkpt><trkpt lat="40.6738241" lon="9.1579511"><ele>541.0</ele><time>2026-03-22T08:18:32.239Z</time></trkpt><trkpt lat="40.6738594" lon="9.1581598"><ele>542.0</ele><time>2026-03-22T08:18:34.239Z</time></trkpt><trkpt lat="40.6738861" lon="9.1582471"><ele>542.0</ele><time>2026-03-22T08:18:35.239Z</time></trkpt><trkpt lat="40.6739219" lon="9.1583677"><ele>542.0</ele><time>2026-03-22T08:18:37.239Z</time></trkpt><trkpt lat="40.673952" lon="9.1584602"><ele>542.0</ele><time>2026-03-22T08:18:39.239Z</time></trkpt><trkpt lat="40.6739547" lon="9.1585528"><ele>542.0</ele><time>2026-03-22T08:18:42.239Z</time></trkpt><trkpt lat="40.6739633" lon="9.158661"><ele>542.0</ele><time>2026-03-22T08:18:48.239Z</time></trkpt><trkpt lat="40.6739769" lon="9.1587506"><ele>542.0</ele><time>2026-03-22T08:18:50.239Z</time></trkpt><trkpt lat="40.6739905" lon="9.1588404"><ele>542.0</ele><time>2026-03-22T08:18:51.239Z</time></trkpt><trkpt lat="40.6740123" lon="9.158979"><ele>542.0</ele><time>2026-03-22T08:18:53.239Z</time></trkpt><trkpt lat="40.6740408" lon="9.1591358"><ele>542.0</ele><time>2026-03-22T08:18:55.239Z</time></trkpt><trkpt lat="40.6740489" lon="9.1592188"><ele>542.0</ele><time>2026-03-22T08:18:56.239Z</time></trkpt><trkpt lat="40.6740713" lon="9.1593715"><ele>542.0</ele><time>2026-03-22T08:18:58.239Z</time></trkpt><trkpt lat="40.6740871" lon="9.1594572"><ele>542.2</ele><time>2026-03-22T08:18:59.239Z</time></trkpt><trkpt lat="40.6741166" lon="9.1595559"><ele>542.4000000000001</ele><time>2026-03-22T08:19:00.239Z</time></trkpt><trkpt lat="40.6741457" lon="9.1596448"><ele>542.5999999999999</ele><time>2026-03-22T08:19:01.239Z</time></trkpt><trkpt lat="40.6741806" lon="9.1597247"><ele>542.8</ele><time>2026-03-22T08:19:02.239Z</time></trkpt><trkpt lat="40.6742229" lon="9.1598044"><ele>543.0</ele><time>2026-03-22T08:19:03.239Z</time></trkpt><trkpt lat="40.6743224" lon="9.1599683"><ele>543.4</ele><time>2026-03-22T08:19:06.239Z</time></trkpt><trkpt lat="40.6743937" lon="9.1600887"><ele>543.8</ele><time>2026-03-22T08:19:09.239Z</time></trkpt><trkpt lat="40.6744234" lon="9.1601826"><ele>544.2</ele><time>2026-03-22T08:19:12.239Z</time></trkpt><trkpt lat="40.6743867" lon="9.1603099"><ele>544.6</ele><time>2026-03-22T08:19:15.239Z</time></trkpt><trkpt lat="40.6743127" lon="9.160343"><ele>545.0</ele><time>2026-03-22T08:19:16.239Z</time></trkpt><trkpt lat="40.6742052" lon="9.1604212"><ele>545.0</ele><time>2026-03-22T08:19:18.239Z</time></trkpt><trkpt lat="40.6740947" lon="9.1604857"><ele>545.0</ele><time>2026-03-22T08:19:20.239Z</time></trkpt><trkpt lat="40.6739781" lon="9.1605407"><ele>545.0</ele><time>2026-03-22T08:19:22.239Z</time></trkpt><trkpt lat="40.6737602" lon="9.1606334"><ele>545.0</ele><time>2026-03-22T08:19:26.239Z</time></trkpt><trkpt lat="40.6736673" lon="9.1606772"><ele>545.0</ele><time>2026-03-22T08:19:28.239Z</time></trkpt><trkpt lat="40.673566" lon="9.1607189"><ele>545.0</ele><time>2026-03-22T08:19:30.24Z</time></trkpt><trkpt lat="40.6734389" lon="9.1607987"><ele>545.0</ele><time>2026-03-22T08:19:33.239Z</time></trkpt><trkpt lat="40.6733533" lon="9.1608626"><ele>545.0</ele><time>2026-03-22T08:19:35.239Z</time></trkpt><trkpt lat="40.6732643" lon="9.1609295"><ele>547.5</ele><time>2026-03-22T08:19:37.239Z</time></trkpt><trkpt lat="40.6731988" lon="9.1609832"><ele>550.0</ele><time>2026-03-22T08:19:39.239Z</time></trkpt><trkpt lat="40.6731412" lon="9.1610218"><ele>552.5</ele><time>2026-03-22T08:19:41.239Z</time></trkpt><trkpt lat="40.6730652" lon="9.1610541"><ele>555.0</ele><time>2026-03-22T08:19:52.239Z</time></trkpt><trkpt lat="40.6729779" lon="9.1610735"><ele>557.5</ele><time>2026-03-22T08:19:54.239Z</time></trkpt><trkpt lat="40.6728537" lon="9.1610871"><ele>560.0</ele><time>2026-03-22T08:19:57.239Z</time></trkpt><trkpt lat="40.6727705" lon="9.1610867"><ele>561.8333333333333</ele><time>2026-03-22T08:19:59.239Z</time></trkpt><trkpt lat="40.6726871" lon="9.1610755"><ele>563.6666666666666</ele><time>2026-03-22T08:20:01.239Z</time></trkpt><trkpt lat="40.6725888" lon="9.1610553"><ele>565.5</ele><time>2026-03-22T08:20:03.239Z</time></trkpt><trkpt lat="40.6724946" lon="9.1610314"><ele>567.3333333333334</ele><time>2026-03-22T08:20:05.239Z</time></trkpt><trkpt lat="40.6724383" lon="9.1609666"><ele>569.1666666666667</ele><time>2026-03-22T08:20:07.239Z</time></trkpt><trkpt lat="40.6723912" lon="9.1609049"><ele>571.0</ele><time>2026-03-22T08:20:09.239Z</time></trkpt><trkpt lat="40.6723185" lon="9.1607856"><ele>569.6</ele><time>2026-03-22T08:20:12.239Z</time></trkpt><trkpt lat="40.6722951" lon="9.1606554"><ele>568.2</ele><time>2026-03-22T08:20:14.239Z</time></trkpt><trkpt lat="40.6722696" lon="9.1605392"><ele>566.8</ele><time>2026-03-22T08:20:16.239Z</time></trkpt><trkpt lat="40.6722607" lon="9.1603991"><ele>565.4</ele><time>2026-03-22T08:20:18.239Z</time></trkpt><trkpt lat="40.6722256" lon="9.1602517"><ele>564.0</ele><time>2026-03-22T08:20:20.239Z</time></trkpt><trkpt lat="40.6721657" lon="9.1601143"><ele>564.0</ele><time>2026-03-22T08:20:22.239Z</time></trkpt><trkpt lat="40.6720937" lon="9.1600141"><ele>564.0</ele><time>2026-03-22T08:20:24.239Z</time></trkpt><trkpt lat="40.67202" lon="9.1599427"><ele>564.0</ele><time>2026-03-22T08:20:26.239Z</time></trkpt><trkpt lat="40.6719264" lon="9.1599119"><ele>564.0</ele><time>2026-03-22T08:20:28.239Z</time></trkpt><trkpt lat="40.6718007" lon="9.1598739"><ele>564.0</ele><time>2026-03-22T08:20:31.239Z</time></trkpt><trkpt lat="40.6717131" lon="9.1598348"><ele>566.0</ele><time>2026-03-22T08:20:33.239Z</time></trkpt><trkpt lat="40.6715458" lon="9.1597902"><ele>568.0</ele><time>2026-03-22T08:20:36.239Z</time></trkpt><trkpt lat="40.6714411" lon="9.159752"><ele>570.0</ele><time>2026-03-22T08:20:38.239Z</time></trkpt><trkpt lat="40.6713466" lon="9.1597179"><ele>572.0</ele><time>2026-03-22T08:20:40.239Z</time></trkpt><trkpt lat="40.6712118" lon="9.1596573"><ele>574.2</ele><time>2026-03-22T08:20:43.239Z</time></trkpt><trkpt lat="40.6710945" lon="9.1596422"><ele>576.4000000000001</ele><time>2026-03-22T08:20:45.239Z</time></trkpt><trkpt lat="40.6709866" lon="9.1596461"><ele>578.5999999999999</ele><time>2026-03-22T08:20:47.239Z</time></trkpt><trkpt lat="40.6709025" lon="9.1596672"><ele>580.8</ele><time>2026-03-22T08:20:49.239Z</time></trkpt><trkpt lat="40.6708169" lon="9.1596922"><ele>583.0</ele><time>2026-03-22T08:20:51.239Z</time></trkpt><trkpt lat="40.6707008" lon="9.1597272"><ele>583.0</ele><time>2026-03-22T08:20:53.239Z</time></trkpt><trkpt lat="40.6705768" lon="9.1597334"><ele>583.0</ele><time>2026-03-22T08:20:55.239Z</time></trkpt><trkpt lat="40.6705043" lon="9.1597171"><ele>583.0</ele><time>2026-03-22T08:20:56.239Z</time></trkpt><trkpt lat="40.6704285" lon="9.1596933"><ele>583.0</ele><time>2026-03-22T08:20:57.239Z</time></trkpt><trkpt lat="40.6703584" lon="9.1596562"><ele>583.0</ele><time>2026-03-22T08:20:58.239Z</time></trkpt><trkpt lat="40.6702179" lon="9.1595672"><ele>586.0</ele><time>2026-03-22T08:21:00.239Z</time></trkpt><trkpt lat="40.6701583" lon="9.159535"><ele>589.0</ele><time>2026-03-22T08:21:01.239Z</time></trkpt><trkpt lat="40.6700303" lon="9.1594517"><ele>592.0</ele><time>2026-03-22T08:21:03.239Z</time></trkpt><trkpt lat="40.669905" lon="9.159385"><ele>595.0</ele><time>2026-03-22T08:21:05.239Z</time></trkpt><trkpt lat="40.669811" lon="9.1593428"><ele>598.0</ele><time>2026-03-22T08:21:07.239Z</time></trkpt><trkpt lat="40.6697542" lon="9.1593059"><ele>598.0</ele><time>2026-03-22T08:21:44.239Z</time></trkpt><trkpt lat="40.6696871" lon="9.1593083"><ele>598.0</ele><time>2026-03-22T08:24:31.235Z</time></trkpt><trkpt lat="40.6695096" lon="9.1592233"><ele>598.0</ele><time>2026-03-22T08:24:34.235Z</time></trkpt><trkpt lat="40.6694024" lon="9.1591545"><ele>598.0</ele><time>2026-03-22T08:24:36.235Z</time></trkpt><trkpt lat="40.669311" lon="9.1590933"><ele>599.6</ele><time>2026-03-22T08:24:38.235Z</time></trkpt><trkpt lat="40.6692146" lon="9.1590115"><ele>601.1999999999999</ele><time>2026-03-22T08:24:40.235Z</time></trkpt><trkpt lat="40.6691122" lon="9.1589383"><ele>602.8</ele><time>2026-03-22T08:24:42.235Z</time></trkpt><trkpt lat="40.6690238" lon="9.1588833"><ele>604.4</ele><time>2026-03-22T08:24:44.235Z</time></trkpt><trkpt lat="40.6689156" lon="9.1588622"><ele>606.0</ele><time>2026-03-22T08:24:46.235Z</time></trkpt><trkpt lat="40.6688087" lon="9.1588578"><ele>606.0</ele><time>2026-03-22T08:24:48.235Z</time></trkpt><trkpt lat="40.6686835" lon="9.158892"><ele>606.0</ele><time>2026-03-22T08:24:50.235Z</time></trkpt><trkpt lat="40.6685599" lon="9.1589447"><ele>606.0</ele><time>2026-03-22T08:24:52.235Z</time></trkpt><trkpt lat="40.6684367" lon="9.1589722"><ele>606.0</ele><time>2026-03-22T08:24:54.235Z</time></trkpt><trkpt lat="40.6683362" lon="9.1589769"><ele>608.0</ele><time>2026-03-22T08:24:56.235Z</time></trkpt><trkpt lat="40.6682538" lon="9.1589613"><ele>610.0</ele><time>2026-03-22T08:24:58.235Z</time></trkpt><trkpt lat="40.6681696" lon="9.1588984"><ele>612.0</ele><time>2026-03-22T08:25:00.235Z</time></trkpt><trkpt lat="40.6680762" lon="9.1588079"><ele>614.0</ele><time>2026-03-22T08:25:02.235Z</time></trkpt><trkpt lat="40.6680174" lon="9.1587628"><ele>616.0</ele><time>2026-03-22T08:25:03.235Z</time></trkpt><trkpt lat="40.66795" lon="9.1587148"><ele>618.0</ele><time>2026-03-22T08:25:04.235Z</time></trkpt><trkpt lat="40.6678673" lon="9.1586981"><ele>618.0</ele><time>2026-03-22T08:25:06.235Z</time></trkpt><trkpt lat="40.66781" lon="9.1586622"><ele>618.0</ele><time>2026-03-22T08:25:07.235Z</time></trkpt><trkpt lat="40.6677053" lon="9.1585802"><ele>618.0</ele><time>2026-03-22T08:25:08.235Z</time></trkpt><trkpt lat="40.6676264" lon="9.1585238"><ele>618.0</ele><time>2026-03-22T08:25:09.235Z</time></trkpt><trkpt lat="40.6675411" lon="9.1585145"><ele>618.0</ele><time>2026-03-22T08:25:10.235Z</time></trkpt><trkpt lat="40.6674568" lon="9.1584645"><ele>619.6666666666666</ele><time>2026-03-22T08:25:11.235Z</time></trkpt><trkpt lat="40.6673474" lon="9.1584406"><ele>621.3333333333334</ele><time>2026-03-22T08:25:13.235Z</time></trkpt><trkpt lat="40.667263" lon="9.1583493"><ele>623.0</ele><time>2026-03-22T08:25:14.235Z</time></trkpt><trkpt lat="40.6671927" lon="9.1583115"><ele>624.6666666666667</ele><time>2026-03-22T08:25:15.235Z</time></trkpt><trkpt lat="40.6671257" lon="9.1582639"><ele>626.3333333333334</ele><time>2026-03-22T08:25:16.235Z</time></trkpt><trkpt lat="40.6670663" lon="9.1582048"><ele>628.0</ele><time>2026-03-22T08:25:17.235Z</time></trkpt><trkpt lat="40.6670059" lon="9.1581546"><ele>630.5999999999999</ele><time>2026-03-22T08:25:18.235Z</time></trkpt><trkpt lat="40.6669186" lon="9.1580593"><ele>633.1999999999999</ele><time>2026-03-22T08:25:20.235Z</time></trkpt><trkpt lat="40.6668691" lon="9.1579892"><ele>635.8</ele><time>2026-03-22T08:25:21.235Z</time></trkpt><trkpt lat="40.6667985" lon="9.1578821"><ele>638.4</ele><time>2026-03-22T08:25:23.235Z</time></trkpt><trkpt lat="40.6667172" lon="9.157744"><ele>641.0</ele><time>2026-03-22T08:25:25.235Z</time></trkpt><trkpt lat="40.6666908" lon="9.157657"><ele>641.0</ele><time>2026-03-22T08:25:26.235Z</time></trkpt><trkpt lat="40.6666537" lon="9.1575707"><ele>641.0</ele><time>2026-03-22T08:25:27.235Z</time></trkpt><trkpt lat="40.6665673" lon="9.1573937"><ele>641.0</ele><time>2026-03-22T08:25:29.235Z</time></trkpt><trkpt lat="40.6664707" lon="9.1572545"><ele>641.0</ele><time>2026-03-22T08:25:31.235Z</time></trkpt><trkpt lat="40.6663698" lon="9.1571529"><ele>641.25</ele><time>2026-03-22T08:25:33.235Z</time></trkpt><trkpt lat="40.6662849" lon="9.1570736"><ele>641.5</ele><time>2026-03-22T08:25:35.235Z</time></trkpt><trkpt lat="40.6661932" lon="9.1569905"><ele>641.75</ele><time>2026-03-22T08:25:37.235Z</time></trkpt><trkpt lat="40.6660806" lon="9.156922"><ele>642.0</ele><time>2026-03-22T08:25:39.235Z</time></trkpt><trkpt lat="40.6659572" lon="9.1568822"><ele>645.75</ele><time>2026-03-22T08:25:41.235Z</time></trkpt><trkpt lat="40.6658385" lon="9.1568635"><ele>649.5</ele><time>2026-03-22T08:25:43.235Z</time></trkpt><trkpt lat="40.6657188" lon="9.1568602"><ele>653.25</ele><time>2026-03-22T08:25:45.235Z</time></trkpt><trkpt lat="40.6655844" lon="9.1568829"><ele>657.0</ele><time>2026-03-22T08:25:47.235Z</time></trkpt><trkpt lat="40.6654676" lon="9.1568987"><ele>657.0</ele><time>2026-03-22T08:25:49.235Z</time></trkpt><trkpt lat="40.6653581" lon="9.1569249"><ele>657.0</ele><time>2026-03-22T08:25:51.235Z</time></trkpt><trkpt lat="40.6652731" lon="9.1569653"><ele>657.0</ele><time>2026-03-22T08:25:53.235Z</time></trkpt><trkpt lat="40.6652189" lon="9.1570719"><ele>657.0</ele><time>2026-03-22T08:25:55.235Z</time></trkpt><trkpt lat="40.6652139" lon="9.1571889"><ele>657.0</ele><time>2026-03-22T08:25:57.235Z</time></trkpt><trkpt lat="40.6652578" lon="9.1573121"><ele>658.25</ele><time>2026-03-22T08:26:00.235Z</time></trkpt><trkpt lat="40.66538" lon="9.1574435"><ele>659.5</ele><time>2026-03-22T08:26:04.235Z</time></trkpt><trkpt lat="40.6654472" lon="9.1575325"><ele>660.75</ele><time>2026-03-22T08:26:06.235Z</time></trkpt><trkpt lat="40.66549" lon="9.1576292"><ele>662.0</ele><time>2026-03-22T08:26:09.235Z</time></trkpt><trkpt lat="40.6653164" lon="9.1578064"><ele>665.0</ele><time>2026-03-22T08:26:14.235Z</time></trkpt><trkpt lat="40.6652554" lon="9.1578297"><ele>668.0</ele><time>2026-03-22T08:26:15.235Z</time></trkpt><trkpt lat="40.6649957" lon="9.1578756"><ele>671.0</ele><time>2026-03-22T08:26:19.235Z</time></trkpt><trkpt lat="40.6648587" lon="9.1579521"><ele>671.0</ele><time>2026-03-22T08:26:21.235Z</time></trkpt><trkpt lat="40.6647697" lon="9.1580283"><ele>671.0</ele><time>2026-03-22T08:26:23.235Z</time></trkpt><trkpt lat="40.6646647" lon="9.1580939"><ele>671.0</ele><time>2026-03-22T08:26:25.235Z</time></trkpt><trkpt lat="40.6645953" lon="9.1582016"><ele>671.0</ele><time>2026-03-22T08:26:27.235Z</time></trkpt><trkpt lat="40.6645219" lon="9.1583411"><ele>671.5</ele><time>2026-03-22T08:26:29.235Z</time></trkpt><trkpt lat="40.6644871" lon="9.1584187"><ele>672.0</ele><time>2026-03-22T08:26:30.235Z</time></trkpt><trkpt lat="40.6644519" lon="9.1586003"><ele>672.5</ele><time>2026-03-22T08:26:32.235Z</time></trkpt><trkpt lat="40.6644405" lon="9.1587007"><ele>673.0</ele><time>2026-03-22T08:26:33.235Z</time></trkpt><trkpt lat="40.6644285" lon="9.1588062"><ele>673.5</ele><time>2026-03-22T08:26:34.235Z</time></trkpt><trkpt lat="40.6644149" lon="9.1589074"><ele>674.0</ele><time>2026-03-22T08:26:35.235Z</time></trkpt><trkpt lat="40.6644089" lon="9.1590221"><ele>675.5</ele><time>2026-03-22T08:26:36.235Z</time></trkpt><trkpt lat="40.6643994" lon="9.1591438"><ele>677.0</ele><time>2026-03-22T08:26:37.235Z</time></trkpt><trkpt lat="40.6643869" lon="9.1593739"><ele>678.5</ele><time>2026-03-22T08:26:39.235Z</time></trkpt><trkpt lat="40.6643629" lon="9.1595773"><ele>680.0</ele><time>2026-03-22T08:26:41.235Z</time></trkpt><trkpt lat="40.6643766" lon="9.1597758"><ele>680.75</ele><time>2026-03-22T08:26:43.235Z</time></trkpt><trkpt lat="40.664404" lon="9.1599754"><ele>681.5</ele><time>2026-03-22T08:26:45.235Z</time></trkpt><trkpt lat="40.6644448" lon="9.1601863"><ele>682.25</ele><time>2026-03-22T08:26:47.235Z</time></trkpt><trkpt lat="40.6644714" lon="9.1603055"><ele>683.0</ele><time>2026-03-22T08:26:48.235Z</time></trkpt><trkpt lat="40.6644928" lon="9.1604269"><ele>689.0</ele><time>2026-03-22T08:26:49.235Z</time></trkpt><trkpt lat="40.6645477" lon="9.1606793"><ele>695.0</ele><time>2026-03-22T08:26:51.235Z</time></trkpt><trkpt lat="40.6646087" lon="9.1609207"><ele>701.0</ele><time>2026-03-22T08:26:53.235Z</time></trkpt><trkpt lat="40.6646658" lon="9.1611323"><ele>702.0</ele><time>2026-03-22T08:26:55.235Z</time></trkpt><trkpt lat="40.6647004" lon="9.1613229"><ele>703.0</ele><time>2026-03-22T08:26:57.235Z</time></trkpt><trkpt lat="40.6647114" lon="9.1614081"><ele>704.0</ele><time>2026-03-22T08:26:58.235Z</time></trkpt><trkpt lat="40.6647265" lon="9.1615033"><ele>705.0</ele><time>2026-03-22T08:26:59.235Z</time></trkpt><trkpt lat="40.6647157" lon="9.1615964"><ele>706.0</ele><time>2026-03-22T08:27:00.235Z</time></trkpt><trkpt lat="40.6646939" lon="9.1616815"><ele>707.0</ele><time>2026-03-22T08:27:01.235Z</time></trkpt><trkpt lat="40.6646569" lon="9.1618143"><ele>708.0</ele><time>2026-03-22T08:27:03.235Z</time></trkpt><trkpt lat="40.6646462" lon="9.1619627"><ele>709.0</ele><time>2026-03-22T08:27:05.235Z</time></trkpt><trkpt lat="40.6646751" lon="9.1621102"><ele>710.0</ele><time>2026-03-22T08:27:07.235Z</time></trkpt><trkpt lat="40.6647078" lon="9.1622397"><ele>711.0</ele><time>2026-03-22T08:27:09.235Z</time></trkpt><trkpt lat="40.6646994" lon="9.1623597"><ele>712.0</ele><time>2026-03-22T08:27:11.235Z</time></trkpt><trkpt lat="40.6646696" lon="9.1625165"><ele>711.0</ele><time>2026-03-22T08:27:13.235Z</time></trkpt><trkpt lat="40.6646067" lon="9.1626692"><ele>710.0</ele><time>2026-03-22T08:27:15.235Z</time></trkpt><trkpt lat="40.664547" lon="9.1627603"><ele>709.0</ele><time>2026-03-22T08:27:16.235Z</time></trkpt><trkpt lat="40.664492" lon="9.1628421"><ele>708.0</ele><time>2026-03-22T08:27:17.235Z</time></trkpt><trkpt lat="40.6644479" lon="9.162911"><ele>707.0</ele><time>2026-03-22T08:27:18.235Z</time></trkpt><trkpt lat="40.6643712" lon="9.1630741"><ele>710.75</ele><time>2026-03-22T08:27:20.235Z</time></trkpt><trkpt lat="40.6643205" lon="9.1632433"><ele>714.5</ele><time>2026-03-22T08:27:22.235Z</time></trkpt><trkpt lat="40.6642884" lon="9.1634231"><ele>718.25</ele><time>2026-03-22T08:27:24.235Z</time></trkpt><trkpt lat="40.6642696" lon="9.1636394"><ele>722.0</ele><time>2026-03-22T08:27:26.235Z</time></trkpt><trkpt lat="40.6642665" lon="9.1637549"><ele>722.0</ele><time>2026-03-22T08:27:27.235Z</time></trkpt><trkpt lat="40.6642657" lon="9.1638811"><ele>722.0</ele><time>2026-03-22T08:27:28.235Z</time></trkpt><trkpt lat="40.6642662" lon="9.1641444"><ele>722.0</ele><time>2026-03-22T08:27:30.235Z</time></trkpt><trkpt lat="40.6642609" lon="9.1644065"><ele>725.0</ele><time>2026-03-22T08:27:32.235Z</time></trkpt><trkpt lat="40.6642584" lon="9.1646493"><ele>728.0</ele><time>2026-03-22T08:27:34.235Z</time></trkpt><trkpt lat="40.6642447" lon="9.1648928"><ele>731.0</ele><time>2026-03-22T08:27:36.235Z</time></trkpt><trkpt lat="40.6642361" lon="9.1651405"><ele>732.3333333333333</ele><time>2026-03-22T08:27:38.235Z</time></trkpt><trkpt lat="40.6642172" lon="9.165401"><ele>733.6666666666666</ele><time>2026-03-22T08:27:40.235Z</time></trkpt><trkpt lat="40.6642026" lon="9.1656395"><ele>735.0</ele><time>2026-03-22T08:27:42.235Z</time></trkpt><trkpt lat="40.6641901" lon="9.1658642"><ele>736.5</ele><time>2026-03-22T08:27:44.235Z</time></trkpt><trkpt lat="40.6641965" lon="9.1661041"><ele>738.0</ele><time>2026-03-22T08:27:46.235Z</time></trkpt><trkpt lat="40.6642151" lon="9.1662214"><ele>739.5</ele><time>2026-03-22T08:27:47.235Z</time></trkpt><trkpt lat="40.664227" lon="9.1663394"><ele>741.0</ele><time>2026-03-22T08:27:48.235Z</time></trkpt><trkpt lat="40.6642495" lon="9.1664628"><ele>742.6666666666666</ele><time>2026-03-22T08:27:49.235Z</time></trkpt><trkpt lat="40.6642663" lon="9.1665897"><ele>744.3333333333333</ele><time>2026-03-22T08:27:50.235Z</time></trkpt><trkpt lat="40.6642942" lon="9.1668387"><ele>746.0</ele><time>2026-03-22T08:27:52.235Z</time></trkpt><trkpt lat="40.6643169" lon="9.167054"><ele>746.0</ele><time>2026-03-22T08:27:54.235Z</time></trkpt><trkpt lat="40.6643246" lon="9.1672334"><ele>746.0</ele><time>2026-03-22T08:27:56.235Z</time></trkpt><trkpt lat="40.6643269" lon="9.1673533"><ele>746.0</ele><time>2026-03-22T08:27:58.235Z</time></trkpt><trkpt lat="40.6643204" lon="9.1674454"><ele>746.0</ele><time>2026-03-22T08:28:00.235Z</time></trkpt><trkpt lat="40.6642532" lon="9.1675488"><ele>746.0</ele><time>2026-03-22T08:28:02.235Z</time></trkpt><trkpt lat="40.6641252" lon="9.1675896"><ele>746.0</ele><time>2026-03-22T08:28:04.235Z</time></trkpt><trkpt lat="40.664005" lon="9.167587"><ele>746.0</ele><time>2026-03-22T08:28:06.235Z</time></trkpt><trkpt lat="40.6638845" lon="9.1675323"><ele>746.0</ele><time>2026-03-22T08:28:08.235Z</time></trkpt><trkpt lat="40.6637367" lon="9.1674208"><ele>746.0</ele><time>2026-03-22T08:28:10.235Z</time></trkpt><trkpt lat="40.6636066" lon="9.1673077"><ele>746.0</ele><time>2026-03-22T08:28:12.235Z</time></trkpt><trkpt lat="40.6634914" lon="9.1671895"><ele>746.0</ele><time>2026-03-22T08:28:14.235Z</time></trkpt><trkpt lat="40.6633967" lon="9.1670454"><ele>746.0</ele><time>2026-03-22T08:28:16.235Z</time></trkpt><trkpt lat="40.6633203" lon="9.1668966"><ele>746.0</ele><time>2026-03-22T08:28:18.235Z</time></trkpt><trkpt lat="40.6632344" lon="9.1667276"><ele>746.0</ele><time>2026-03-22T08:28:20.235Z</time></trkpt><trkpt lat="40.6631896" lon="9.1666293"><ele>746.0</ele><time>2026-03-22T08:28:21.235Z</time></trkpt><trkpt lat="40.6631461" lon="9.1665268"><ele>746.0</ele><time>2026-03-22T08:28:22.235Z</time></trkpt><trkpt lat="40.6631061" lon="9.1664353"><ele>746.0</ele><time>2026-03-22T08:28:23.235Z</time></trkpt><trkpt lat="40.6630282" lon="9.1662632"><ele>746.0</ele><time>2026-03-22T08:28:25.235Z</time></trkpt><trkpt lat="40.6629637" lon="9.1660906"><ele>744.75</ele><time>2026-03-22T08:28:27.235Z</time></trkpt><trkpt lat="40.662904" lon="9.1659222"><ele>743.5</ele><time>2026-03-22T08:28:29.235Z</time></trkpt><trkpt lat="40.6628326" lon="9.1657879"><ele>742.25</ele><time>2026-03-22T08:28:31.235Z</time></trkpt><trkpt lat="40.6627359" lon="9.1657029"><ele>741.0</ele><time>2026-03-22T08:28:33.235Z</time></trkpt><trkpt lat="40.6626297" lon="9.165669"><ele>742.6666666666666</ele><time>2026-03-22T08:28:35.235Z</time></trkpt><trkpt lat="40.6625171" lon="9.1656737"><ele>744.3333333333334</ele><time>2026-03-22T08:28:37.235Z</time></trkpt><trkpt lat="40.6624538" lon="9.165692"><ele>746.0</ele><time>2026-03-22T08:28:39.235Z</time></trkpt><trkpt lat="40.6623896" lon="9.1657266"><ele>747.6666666666667</ele><time>2026-03-22T08:28:41.235Z</time></trkpt><trkpt lat="40.6623134" lon="9.16577"><ele>749.3333333333334</ele><time>2026-03-22T08:28:44.235Z</time></trkpt><trkpt lat="40.6622582" lon="9.1658213"><ele>751.0</ele><time>2026-03-22T08:28:46.235Z</time></trkpt><trkpt lat="40.6622001" lon="9.165891"><ele>751.3333333333334</ele><time>2026-03-22T08:28:48.235Z</time></trkpt><trkpt lat="40.6621519" lon="9.1660046"><ele>751.6666666666667</ele><time>2026-03-22T08:28:50.235Z</time></trkpt><trkpt lat="40.6621065" lon="9.1661008"><ele>752.0</ele><time>2026-03-22T08:28:52.235Z</time></trkpt><trkpt lat="40.6620717" lon="9.1661836"><ele>752.3333333333334</ele><time>2026-03-22T08:28:54.235Z</time></trkpt><trkpt lat="40.6620453" lon="9.1662611"><ele>752.6666666666666</ele><time>2026-03-22T08:28:56.235Z</time></trkpt><trkpt lat="40.66203" lon="9.1663427"><ele>753.0</ele><time>2026-03-22T08:28:58.235Z</time></trkpt><trkpt lat="40.6620185" lon="9.1664383"><ele>753.5999999999999</ele><time>2026-03-22T08:29:00.235Z</time></trkpt><trkpt lat="40.6620045" lon="9.1665561"><ele>754.1999999999999</ele><time>2026-03-22T08:29:02.235Z</time></trkpt><trkpt lat="40.661978" lon="9.1666863"><ele>754.8</ele><time>2026-03-22T08:29:04.235Z</time></trkpt><trkpt lat="40.6619737" lon="9.1667991"><ele>755.4</ele><time>2026-03-22T08:29:06.235Z</time></trkpt><trkpt lat="40.661959" lon="9.1668986"><ele>756.0</ele><time>2026-03-22T08:29:08.235Z</time></trkpt><trkpt lat="40.6619497" lon="9.1670354"><ele>756.0</ele><time>2026-03-22T08:29:10.235Z</time></trkpt><trkpt lat="40.6619352" lon="9.1671509"><ele>756.0</ele><time>2026-03-22T08:29:12.235Z</time></trkpt><trkpt lat="40.6619307" lon="9.1672676"><ele>756.0</ele><time>2026-03-22T08:29:14.235Z</time></trkpt><trkpt lat="40.6619548" lon="9.1673544"><ele>756.0</ele><time>2026-03-22T08:29:16.235Z</time></trkpt><trkpt lat="40.6619823" lon="9.1674676"><ele>756.0</ele><time>2026-03-22T08:29:18.235Z</time></trkpt><trkpt lat="40.6619297" lon="9.167549"><ele>756.0</ele><time>2026-03-22T08:29:19.235Z</time></trkpt><trkpt lat="40.6619045" lon="9.1676925"><ele>756.5</ele><time>2026-03-22T08:29:21.235Z</time></trkpt><trkpt lat="40.6618699" lon="9.1677729"><ele>757.0</ele><time>2026-03-22T08:29:22.235Z</time></trkpt><trkpt lat="40.661831" lon="9.1678824"><ele>757.5</ele><time>2026-03-22T08:29:24.235Z</time></trkpt><trkpt lat="40.6618013" lon="9.1679669"><ele>758.0</ele><time>2026-03-22T08:29:26.235Z</time></trkpt><trkpt lat="40.661771" lon="9.1680688"><ele>758.5</ele><time>2026-03-22T08:29:28.235Z</time></trkpt><trkpt lat="40.6617815" lon="9.1681766"><ele>759.0</ele><time>2026-03-22T08:29:31.235Z</time></trkpt><trkpt lat="40.6617157" lon="9.1683472"><ele>759.4000000000001</ele><time>2026-03-22T08:29:33.235Z</time></trkpt><trkpt lat="40.6617145" lon="9.1684666"><ele>759.8</ele><time>2026-03-22T08:29:35.235Z</time></trkpt><trkpt lat="40.6617014" lon="9.1686032"><ele>760.2</ele><time>2026-03-22T08:29:37.235Z</time></trkpt><trkpt lat="40.6617041" lon="9.1687477"><ele>760.5999999999999</ele><time>2026-03-22T08:29:39.235Z</time></trkpt><trkpt lat="40.6616786" lon="9.168887"><ele>761.0</ele><time>2026-03-22T08:29:41.235Z</time></trkpt><trkpt lat="40.6616601" lon="9.1689839"><ele>762.25</ele><time>2026-03-22T08:29:43.235Z</time></trkpt><trkpt lat="40.6616241" lon="9.169059"><ele>763.5</ele><time>2026-03-22T08:29:44.235Z</time></trkpt><trkpt lat="40.6615869" lon="9.1691714"><ele>764.75</ele><time>2026-03-22T08:29:46.235Z</time></trkpt><trkpt lat="40.6615441" lon="9.1693389"><ele>766.0</ele><time>2026-03-22T08:29:50.235Z</time></trkpt><trkpt lat="40.6614024" lon="9.1694612"><ele>766.0</ele><time>2026-03-22T08:29:52.235Z</time></trkpt><trkpt lat="40.6613165" lon="9.1695574"><ele>766.0</ele><time>2026-03-22T08:29:54.235Z</time></trkpt><trkpt lat="40.6612109" lon="9.1696596"><ele>766.0</ele><time>2026-03-22T08:29:56.235Z</time></trkpt><trkpt lat="40.6611224" lon="9.1697527"><ele>766.0</ele><time>2026-03-22T08:29:58.235Z</time></trkpt><trkpt lat="40.6610629" lon="9.1698232"><ele>766.0</ele><time>2026-03-22T08:30:00.235Z</time></trkpt><trkpt lat="40.6610047" lon="9.1698846"><ele>765.8</ele><time>2026-03-22T08:30:02.235Z</time></trkpt><trkpt lat="40.6609501" lon="9.1700286"><ele>765.5999999999999</ele><time>2026-03-22T08:30:05.235Z</time></trkpt><trkpt lat="40.6609343" lon="9.1701461"><ele>765.4</ele><time>2026-03-22T08:30:07.235Z</time></trkpt><trkpt lat="40.6609503" lon="9.1702749"><ele>765.2</ele><time>2026-03-22T08:30:09.235Z</time></trkpt><trkpt lat="40.6609889" lon="9.1704037"><ele>765.0</ele><time>2026-03-22T08:30:11.235Z</time></trkpt><trkpt lat="40.6610198" lon="9.170546"><ele>765.0</ele><time>2026-03-22T08:30:13.235Z</time></trkpt><trkpt lat="40.6610586" lon="9.1706862"><ele>765.0</ele><time>2026-03-22T08:30:15.235Z</time></trkpt><trkpt lat="40.6610998" lon="9.1708143"><ele>765.0</ele><time>2026-03-22T08:30:17.235Z</time></trkpt><trkpt lat="40.6611411" lon="9.1709203"><ele>765.0</ele><time>2026-03-22T08:30:19.235Z</time></trkpt><trkpt lat="40.6611783" lon="9.1710243"><ele>765.0</ele><time>2026-03-22T08:30:21.235Z</time></trkpt><trkpt lat="40.6612332" lon="9.1712079"><ele>768.6</ele><time>2026-03-22T08:30:24.235Z</time></trkpt><trkpt lat="40.6612366" lon="9.1713465"><ele>772.2</ele><time>2026-03-22T08:30:26.235Z</time></trkpt><trkpt lat="40.6612291" lon="9.1714927"><ele>775.8</ele><time>2026-03-22T08:30:28.235Z</time></trkpt><trkpt lat="40.6612214" lon="9.1715885"><ele>779.4</ele><time>2026-03-22T08:30:30.235Z</time></trkpt><trkpt lat="40.6612002" lon="9.1717085"><ele>783.0</ele><time>2026-03-22T08:30:32.235Z</time></trkpt><trkpt lat="40.661194" lon="9.171823"><ele>784.0</ele><time>2026-03-22T08:30:34.235Z</time></trkpt><trkpt lat="40.6611673" lon="9.1719291"><ele>785.0</ele><time>2026-03-22T08:30:36.235Z</time></trkpt><trkpt lat="40.6611475" lon="9.1720292"><ele>786.0</ele><time>2026-03-22T08:30:38.235Z</time></trkpt><trkpt lat="40.6611237" lon="9.1721207"><ele>787.0</ele><time>2026-03-22T08:30:40.235Z</time></trkpt><trkpt lat="40.6609594" lon="9.1722754"><ele>788.0</ele><time>2026-03-22T08:30:42.235Z</time></trkpt><trkpt lat="40.6608916" lon="9.1723255"><ele>785.5</ele><time>2026-03-22T08:30:43.235Z</time></trkpt><trkpt lat="40.6608242" lon="9.1723778"><ele>783.0</ele><time>2026-03-22T08:30:44.235Z</time></trkpt><trkpt lat="40.6607658" lon="9.1724246"><ele>780.5</ele><time>2026-03-22T08:30:45.235Z</time></trkpt><trkpt lat="40.6606805" lon="9.1725293"><ele>778.0</ele><time>2026-03-22T08:30:47.235Z</time></trkpt><trkpt lat="40.6605685" lon="9.1727337"><ele>778.0</ele><time>2026-03-22T08:30:50.235Z</time></trkpt><trkpt lat="40.6605113" lon="9.1729015"><ele>778.0</ele><time>2026-03-22T08:30:52.235Z</time></trkpt><trkpt lat="40.6604791" lon="9.1730785"><ele>778.0</ele><time>2026-03-22T08:30:54.235Z</time></trkpt><trkpt lat="40.6604272" lon="9.1732443"><ele>778.0</ele><time>2026-03-22T08:30:56.235Z</time></trkpt><trkpt lat="40.6603684" lon="9.1733916"><ele>779.75</ele><time>2026-03-22T08:30:58.235Z</time></trkpt><trkpt lat="40.6602975" lon="9.1735215"><ele>781.5</ele><time>2026-03-22T08:31:00.235Z</time></trkpt><trkpt lat="40.6602172" lon="9.1736476"><ele>783.25</ele><time>2026-03-22T08:31:02.235Z</time></trkpt><trkpt lat="40.6601519" lon="9.173768"><ele>785.0</ele><time>2026-03-22T08:31:04.235Z</time></trkpt><trkpt lat="40.6600623" lon="9.1738876"><ele>783.3333333333334</ele><time>2026-03-22T08:31:06.235Z</time></trkpt><trkpt lat="40.6599105" lon="9.1740241"><ele>781.6666666666667</ele><time>2026-03-22T08:31:08.235Z</time></trkpt><trkpt lat="40.6597804" lon="9.1741447"><ele>780.0</ele><time>2026-03-22T08:31:10.235Z</time></trkpt><trkpt lat="40.659654" lon="9.1742674"><ele>780.0</ele><time>2026-03-22T08:31:12.235Z</time></trkpt><trkpt lat="40.6595603" lon="9.1743531"><ele>780.0</ele><time>2026-03-22T08:31:14.235Z</time></trkpt><trkpt lat="40.6595094" lon="9.1744042"><ele>780.0</ele><time>2026-03-22T08:31:16.235Z</time></trkpt><trkpt lat="40.659446" lon="9.1744342"><ele>780.0</ele><time>2026-03-22T08:32:59.238Z</time></trkpt><trkpt lat="40.6593827" lon="9.1745079"><ele>780.0</ele><time>2026-03-22T08:33:22.238Z</time></trkpt><trkpt lat="40.6593301" lon="9.1745814"><ele>780.0</ele><time>2026-03-22T08:33:24.238Z</time></trkpt><trkpt lat="40.659276" lon="9.1746753"><ele>779.0</ele><time>2026-03-22T08:33:26.238Z</time></trkpt><trkpt lat="40.6591866" lon="9.1747459"><ele>778.0</ele><time>2026-03-22T08:33:28.238Z</time></trkpt><trkpt lat="40.6590994" lon="9.1748213"><ele>777.0</ele><time>2026-03-22T08:33:30.238Z</time></trkpt><trkpt lat="40.6589978" lon="9.1748996"><ele>776.0</ele><time>2026-03-22T08:33:32.238Z</time></trkpt><trkpt lat="40.6588615" lon="9.175028"><ele>776.0</ele><time>2026-03-22T08:33:35.238Z</time></trkpt><trkpt lat="40.658772" lon="9.1750991"><ele>776.0</ele><time>2026-03-22T08:33:37.238Z</time></trkpt><trkpt lat="40.6586862" lon="9.1751338"><ele>776.0</ele><time>2026-03-22T08:33:39.238Z</time></trkpt><trkpt lat="40.658603" lon="9.1751512"><ele>776.0</ele><time>2026-03-22T08:33:41.238Z</time></trkpt><trkpt lat="40.6585102" lon="9.1751304"><ele>776.0</ele><time>2026-03-22T08:33:43.238Z</time></trkpt><trkpt lat="40.6584053" lon="9.1751051"><ele>778.75</ele><time>2026-03-22T08:33:45.238Z</time></trkpt><trkpt lat="40.6582976" lon="9.1750746"><ele>781.5</ele><time>2026-03-22T08:33:47.238Z</time></trkpt><trkpt lat="40.6581831" lon="9.1750495"><ele>784.25</ele><time>2026-03-22T08:33:49.238Z</time></trkpt><trkpt lat="40.6580158" lon="9.1750012"><ele>787.0</ele><time>2026-03-22T08:33:52.238Z</time></trkpt><trkpt lat="40.6579051" lon="9.1749759"><ele>787.0</ele><time>2026-03-22T08:33:54.238Z</time></trkpt><trkpt lat="40.6577892" lon="9.1749531"><ele>787.0</ele><time>2026-03-22T08:33:56.238Z</time></trkpt><trkpt lat="40.6576902" lon="9.1749286"><ele>787.0</ele><time>2026-03-22T08:33:58.238Z</time></trkpt><trkpt lat="40.6575954" lon="9.1749087"><ele>787.0</ele><time>2026-03-22T08:34:00.238Z</time></trkpt><trkpt lat="40.6574964" lon="9.1748807"><ele>787.0</ele><time>2026-03-22T08:34:02.238Z</time></trkpt><trkpt lat="40.657396" lon="9.1748293"><ele>788.6</ele><time>2026-03-22T08:34:04.238Z</time></trkpt><trkpt lat="40.6573045" lon="9.174771"><ele>790.2</ele><time>2026-03-22T08:34:06.238Z</time></trkpt><trkpt lat="40.6572078" lon="9.174683"><ele>791.8</ele><time>2026-03-22T08:34:08.238Z</time></trkpt><trkpt lat="40.6571023" lon="9.1745904"><ele>793.4</ele><time>2026-03-22T08:34:10.238Z</time></trkpt><trkpt lat="40.6570479" lon="9.174546"><ele>795.0</ele><time>2026-03-22T08:34:11.238Z</time></trkpt><trkpt lat="40.6569901" lon="9.1744912"><ele>795.0</ele><time>2026-03-22T08:34:12.238Z</time></trkpt><trkpt lat="40.6569332" lon="9.1744419"><ele>795.0</ele><time>2026-03-22T08:34:13.238Z</time></trkpt><trkpt lat="40.6568726" lon="9.1743857"><ele>795.0</ele><time>2026-03-22T08:34:14.238Z</time></trkpt><trkpt lat="40.6568167" lon="9.174322"><ele>795.0</ele><time>2026-03-22T08:34:15.238Z</time></trkpt><trkpt lat="40.6567048" lon="9.1742126"><ele>795.0</ele><time>2026-03-22T08:34:17.238Z</time></trkpt><trkpt lat="40.6566044" lon="9.1741237"><ele>796.25</ele><time>2026-03-22T08:34:19.238Z</time></trkpt><trkpt lat="40.6564336" lon="9.1740084"><ele>797.5</ele><time>2026-03-22T08:34:22.238Z</time></trkpt><trkpt lat="40.6563732" lon="9.1739723"><ele>798.75</ele><time>2026-03-22T08:34:23.238Z</time></trkpt><trkpt lat="40.6562673" lon="9.1738905"><ele>800.0</ele><time>2026-03-22T08:34:25.238Z</time></trkpt><trkpt lat="40.6561603" lon="9.1738074"><ele>800.5</ele><time>2026-03-22T08:34:27.238Z</time></trkpt><trkpt lat="40.6561041" lon="9.1737611"><ele>801.0</ele><time>2026-03-22T08:34:28.238Z</time></trkpt><trkpt lat="40.6559834" lon="9.1736707"><ele>801.5</ele><time>2026-03-22T08:34:30.238Z</time></trkpt><trkpt lat="40.6558612" lon="9.1735726"><ele>802.0</ele><time>2026-03-22T08:34:32.238Z</time></trkpt><trkpt lat="40.6557362" lon="9.1734819"><ele>802.0</ele><time>2026-03-22T08:34:34.238Z</time></trkpt><trkpt lat="40.6556677" lon="9.1734459"><ele>802.0</ele><time>2026-03-22T08:34:35.238Z</time></trkpt><trkpt lat="40.6555971" lon="9.1734188"><ele>802.0</ele><time>2026-03-22T08:34:36.238Z</time></trkpt><trkpt lat="40.6554582" lon="9.1733947"><ele>802.0</ele><time>2026-03-22T08:34:38.238Z</time></trkpt><trkpt lat="40.6553263" lon="9.1734047"><ele>802.0</ele><time>2026-03-22T08:34:40.238Z</time></trkpt><trkpt lat="40.6552547" lon="9.1734283"><ele>802.6</ele><time>2026-03-22T08:34:41.238Z</time></trkpt><trkpt lat="40.6551879" lon="9.1734586"><ele>803.2</ele><time>2026-03-22T08:34:42.238Z</time></trkpt><trkpt lat="40.6550791" lon="9.1735089"><ele>803.8</ele><time>2026-03-22T08:34:44.238Z</time></trkpt><trkpt lat="40.6549948" lon="9.1735522"><ele>804.4</ele><time>2026-03-22T08:34:46.238Z</time></trkpt><trkpt lat="40.6548985" lon="9.1735907"><ele>805.0</ele><time>2026-03-22T08:34:48.238Z</time></trkpt><trkpt lat="40.654784" lon="9.1736329"><ele>805.0</ele><time>2026-03-22T08:34:50.238Z</time></trkpt><trkpt lat="40.6546847" lon="9.1736634"><ele>805.0</ele><time>2026-03-22T08:34:52.238Z</time></trkpt><trkpt lat="40.6546055" lon="9.1736993"><ele>805.0</ele><time>2026-03-22T08:34:54.238Z</time></trkpt><trkpt lat="40.6545267" lon="9.1737246"><ele>805.0</ele><time>2026-03-22T08:34:57.239Z</time></trkpt><trkpt lat="40.6544049" lon="9.1737257"><ele>805.0</ele><time>2026-03-22T08:35:00.238Z</time></trkpt><trkpt lat="40.6543005" lon="9.1737484"><ele>805.75</ele><time>2026-03-22T08:35:02.238Z</time></trkpt><trkpt lat="40.6541894" lon="9.1737676"><ele>806.5</ele><time>2026-03-22T08:35:04.238Z</time></trkpt><trkpt lat="40.6540725" lon="9.1737901"><ele>807.25</ele><time>2026-03-22T08:35:06.238Z</time></trkpt><trkpt lat="40.6538882" lon="9.173816"><ele>808.0</ele><time>2026-03-22T08:35:09.238Z</time></trkpt><trkpt lat="40.6538238" lon="9.1738141"><ele>808.0</ele><time>2026-03-22T08:35:10.238Z</time></trkpt><trkpt lat="40.6537581" lon="9.1738095"><ele>808.0</ele><time>2026-03-22T08:35:11.238Z</time></trkpt><trkpt lat="40.6536893" lon="9.1738068"><ele>808.0</ele><time>2026-03-22T08:35:12.238Z</time></trkpt><trkpt lat="40.6535743" lon="9.1737865"><ele>808.0</ele><time>2026-03-22T08:35:14.238Z</time></trkpt><trkpt lat="40.6534509" lon="9.1737645"><ele>808.0</ele><time>2026-03-22T08:35:16.238Z</time></trkpt><trkpt lat="40.653317" lon="9.173733"><ele>807.5</ele><time>2026-03-22T08:35:18.238Z</time></trkpt><trkpt lat="40.653187" lon="9.1737129"><ele>807.0</ele><time>2026-03-22T08:35:20.238Z</time></trkpt><trkpt lat="40.653064" lon="9.1736754"><ele>806.5</ele><time>2026-03-22T08:35:22.238Z</time></trkpt><trkpt lat="40.6529421" lon="9.1736384"><ele>806.0</ele><time>2026-03-22T08:35:24.238Z</time></trkpt><trkpt lat="40.6528333" lon="9.1736147"><ele>804.75</ele><time>2026-03-22T08:35:26.238Z</time></trkpt><trkpt lat="40.6526829" lon="9.1735804"><ele>803.5</ele><time>2026-03-22T08:35:29.238Z</time></trkpt><trkpt lat="40.6525738" lon="9.173545"><ele>802.25</ele><time>2026-03-22T08:35:31.238Z</time></trkpt><trkpt lat="40.6524512" lon="9.1735139"><ele>801.0</ele><time>2026-03-22T08:35:33.238Z</time></trkpt><trkpt lat="40.6523172" lon="9.1734689"><ele>801.0</ele><time>2026-03-22T08:35:35.238Z</time></trkpt><trkpt lat="40.652182" lon="9.1734222"><ele>801.0</ele><time>2026-03-22T08:35:37.238Z</time></trkpt><trkpt lat="40.6520444" lon="9.1733895"><ele>801.0</ele><time>2026-03-22T08:35:39.238Z</time></trkpt><trkpt lat="40.651907" lon="9.1733655"><ele>801.0</ele><time>2026-03-22T08:35:41.238Z</time></trkpt><trkpt lat="40.6517752" lon="9.1733795"><ele>802.3333333333334</ele><time>2026-03-22T08:35:43.238Z</time></trkpt><trkpt lat="40.6517096" lon="9.1733944"><ele>803.6666666666667</ele><time>2026-03-22T08:35:44.238Z</time></trkpt><trkpt lat="40.6516492" lon="9.173419"><ele>805.0</ele><time>2026-03-22T08:35:45.238Z</time></trkpt><trkpt lat="40.651588" lon="9.173447"><ele>806.3333333333334</ele><time>2026-03-22T08:35:46.238Z</time></trkpt><trkpt lat="40.6515248" lon="9.1734831"><ele>807.6666666666667</ele><time>2026-03-22T08:35:47.238Z</time></trkpt><trkpt lat="40.6514627" lon="9.173521"><ele>809.0</ele><time>2026-03-22T08:35:48.238Z</time></trkpt><trkpt lat="40.6513369" lon="9.1735902"><ele>809.0</ele><time>2026-03-22T08:35:50.239Z</time></trkpt><trkpt lat="40.651273" lon="9.1736438"><ele>809.0</ele><time>2026-03-22T08:35:51.238Z</time></trkpt><trkpt lat="40.6511038" lon="9.1737899"><ele>809.0</ele><time>2026-03-22T08:35:54.238Z</time></trkpt><trkpt lat="40.6510453" lon="9.1738335"><ele>809.0</ele><time>2026-03-22T08:35:55.238Z</time></trkpt><trkpt lat="40.6509231" lon="9.173905"><ele>808.5</ele><time>2026-03-22T08:35:57.238Z</time></trkpt><trkpt lat="40.6508056" lon="9.1739728"><ele>808.0</ele><time>2026-03-22T08:35:59.238Z</time></trkpt><trkpt lat="40.6506743" lon="9.1740341"><ele>807.5</ele><time>2026-03-22T08:36:01.238Z</time></trkpt><trkpt lat="40.6506099" lon="9.1740602"><ele>807.0</ele><time>2026-03-22T08:36:02.238Z</time></trkpt><trkpt lat="40.6504439" lon="9.1741614"><ele>807.0</ele><time>2026-03-22T08:36:05.238Z</time></trkpt><trkpt lat="40.6503773" lon="9.1743195"><ele>807.0</ele><time>2026-03-22T08:36:07.238Z</time></trkpt><trkpt lat="40.6503501" lon="9.1745058"><ele>807.0</ele><time>2026-03-22T08:36:09.238Z</time></trkpt><trkpt lat="40.6503294" lon="9.1746999"><ele>807.0</ele><time>2026-03-22T08:36:11.238Z</time></trkpt><trkpt lat="40.6502974" lon="9.1748641"><ele>808.75</ele><time>2026-03-22T08:36:13.238Z</time></trkpt><trkpt lat="40.6502452" lon="9.1750094"><ele>810.5</ele><time>2026-03-22T08:36:15.238Z</time></trkpt><trkpt lat="40.6501714" lon="9.1751077"><ele>812.25</ele><time>2026-03-22T08:36:17.238Z</time></trkpt><trkpt lat="40.650077" lon="9.1751921"><ele>814.0</ele><time>2026-03-22T08:36:19.238Z</time></trkpt><trkpt lat="40.6499714" lon="9.1752428"><ele>814.0</ele><time>2026-03-22T08:36:21.238Z</time></trkpt><trkpt lat="40.6498568" lon="9.1752865"><ele>814.0</ele><time>2026-03-22T08:36:23.238Z</time></trkpt><trkpt lat="40.6497356" lon="9.1753144"><ele>814.0</ele><time>2026-03-22T08:36:25.238Z</time></trkpt><trkpt lat="40.6496192" lon="9.1753153"><ele>814.0</ele><time>2026-03-22T08:36:27.238Z</time></trkpt><trkpt lat="40.6495562" lon="9.1752963"><ele>814.0</ele><time>2026-03-22T08:36:28.238Z</time></trkpt><trkpt lat="40.64949" lon="9.1752742"><ele>814.2</ele><time>2026-03-22T08:36:29.238Z</time></trkpt><trkpt lat="40.6493524" lon="9.1752069"><ele>814.4000000000001</ele><time>2026-03-22T08:36:31.238Z</time></trkpt><trkpt lat="40.6492898" lon="9.1751692"><ele>814.6</ele><time>2026-03-22T08:36:32.238Z</time></trkpt><trkpt lat="40.6492272" lon="9.1751376"><ele>814.8</ele><time>2026-03-22T08:36:33.238Z</time></trkpt><trkpt lat="40.6491204" lon="9.1750535"><ele>815.0</ele><time>2026-03-22T08:36:35.238Z</time></trkpt><trkpt lat="40.6489952" lon="9.1749725"><ele>815.0</ele><time>2026-03-22T08:36:37.238Z</time></trkpt><trkpt lat="40.6488779" lon="9.1749053"><ele>815.0</ele><time>2026-03-22T08:36:39.238Z</time></trkpt><trkpt lat="40.6487581" lon="9.1748207"><ele>815.0</ele><time>2026-03-22T08:36:41.238Z</time></trkpt><trkpt lat="40.6486923" lon="9.1747811"><ele>815.0</ele><time>2026-03-22T08:36:42.238Z</time></trkpt><trkpt lat="40.6485642" lon="9.1747103"><ele>814.75</ele><time>2026-03-22T08:36:44.238Z</time></trkpt><trkpt lat="40.6483976" lon="9.1746058"><ele>814.5</ele><time>2026-03-22T08:36:47.238Z</time></trkpt><trkpt lat="40.648276" lon="9.1745383"><ele>814.25</ele><time>2026-03-22T08:36:49.238Z</time></trkpt><trkpt lat="40.6482178" lon="9.174498"><ele>814.0</ele><time>2026-03-22T08:36:50.238Z</time></trkpt><trkpt lat="40.6481144" lon="9.1744108"><ele>814.0</ele><time>2026-03-22T08:36:52.238Z</time></trkpt><trkpt lat="40.6480102" lon="9.1743173"><ele>814.0</ele><time>2026-03-22T08:36:54.238Z</time></trkpt><trkpt lat="40.6479088" lon="9.1742211"><ele>814.0</ele><time>2026-03-22T08:36:56.238Z</time></trkpt><trkpt lat="40.6478165" lon="9.1741431"><ele>814.0</ele><time>2026-03-22T08:36:58.238Z</time></trkpt><trkpt lat="40.6477299" lon="9.1740887"><ele>813.4000000000001</ele><time>2026-03-22T08:37:00.238Z</time></trkpt><trkpt lat="40.6476459" lon="9.1740196"><ele>812.8</ele><time>2026-03-22T08:37:02.238Z</time></trkpt><trkpt lat="40.6475634" lon="9.173935"><ele>812.2</ele><time>2026-03-22T08:37:04.238Z</time></trkpt><trkpt lat="40.6474967" lon="9.1738435"><ele>811.5999999999999</ele><time>2026-03-22T08:37:06.238Z</time></trkpt><trkpt lat="40.6474561" lon="9.1737399"><ele>811.0</ele><time>2026-03-22T08:37:08.238Z</time></trkpt><trkpt lat="40.6473954" lon="9.1735595"><ele>811.0</ele><time>2026-03-22T08:37:11.238Z</time></trkpt><trkpt lat="40.647339" lon="9.1734458"><ele>811.0</ele><time>2026-03-22T08:37:13.238Z</time></trkpt><trkpt lat="40.6472278" lon="9.1733046"><ele>811.0</ele><time>2026-03-22T08:37:16.238Z</time></trkpt><trkpt lat="40.6471442" lon="9.1732329"><ele>811.0</ele><time>2026-03-22T08:37:18.238Z</time></trkpt><trkpt lat="40.6470468" lon="9.1731769"><ele>810.5</ele><time>2026-03-22T08:37:20.238Z</time></trkpt><trkpt lat="40.646946" lon="9.1731212"><ele>810.0</ele><time>2026-03-22T08:37:22.238Z</time></trkpt><trkpt lat="40.6468448" lon="9.1730777"><ele>809.5</ele><time>2026-03-22T08:37:24.238Z</time></trkpt><trkpt lat="40.6467529" lon="9.1730401"><ele>809.0</ele><time>2026-03-22T08:37:26.238Z</time></trkpt><trkpt lat="40.6465998" lon="9.1729971"><ele>809.0</ele><time>2026-03-22T08:37:29.238Z</time></trkpt><trkpt lat="40.6464827" lon="9.1729758"><ele>809.0</ele><time>2026-03-22T08:37:31.238Z</time></trkpt><trkpt lat="40.64638" lon="9.1729709"><ele>809.0</ele><time>2026-03-22T08:37:33.238Z</time></trkpt><trkpt lat="40.6462735" lon="9.1729363"><ele>809.0</ele><time>2026-03-22T08:37:35.238Z</time></trkpt><trkpt lat="40.6461573" lon="9.1728771"><ele>806.2</ele><time>2026-03-22T08:37:37.238Z</time></trkpt><trkpt lat="40.6460374" lon="9.1728045"><ele>803.4000000000001</ele><time>2026-03-22T08:37:39.238Z</time></trkpt><trkpt lat="40.6459747" lon="9.1727687"><ele>800.6</ele><time>2026-03-22T08:37:40.238Z</time></trkpt><trkpt lat="40.6459111" lon="9.172731"><ele>797.8</ele><time>2026-03-22T08:37:41.238Z</time></trkpt><trkpt lat="40.6458467" lon="9.1726927"><ele>795.0</ele><time>2026-03-22T08:37:42.238Z</time></trkpt><trkpt lat="40.6457246" lon="9.1726127"><ele>795.0</ele><time>2026-03-22T08:37:44.238Z</time></trkpt><trkpt lat="40.6456635" lon="9.1725744"><ele>795.0</ele><time>2026-03-22T08:37:45.238Z</time></trkpt><trkpt lat="40.6455981" lon="9.172532"><ele>795.0</ele><time>2026-03-22T08:37:46.238Z</time></trkpt><trkpt lat="40.6455338" lon="9.1724888"><ele>795.0</ele><time>2026-03-22T08:37:47.238Z</time></trkpt><trkpt lat="40.6454129" lon="9.1724086"><ele>795.0</ele><time>2026-03-22T08:37:49.238Z</time></trkpt><trkpt lat="40.6453038" lon="9.1723525"><ele>793.6</ele><time>2026-03-22T08:37:51.238Z</time></trkpt><trkpt lat="40.6452123" lon="9.1722989"><ele>792.2</ele><time>2026-03-22T08:37:53.238Z</time></trkpt><trkpt lat="40.645136" lon="9.1722359"><ele>790.8</ele><time>2026-03-22T08:37:55.238Z</time></trkpt><trkpt lat="40.645061" lon="9.1721603"><ele>789.4</ele><time>2026-03-22T08:37:57.238Z</time></trkpt><trkpt lat="40.6449386" lon="9.1720458"><ele>788.0</ele><time>2026-03-22T08:38:00.238Z</time></trkpt><trkpt lat="40.6448717" lon="9.171933"><ele>788.0</ele><time>2026-03-22T08:38:02.238Z</time></trkpt><trkpt lat="40.6448112" lon="9.1717986"><ele>788.0</ele><time>2026-03-22T08:38:04.238Z</time></trkpt><trkpt lat="40.6447435" lon="9.1716627"><ele>788.0</ele><time>2026-03-22T08:38:06.238Z</time></trkpt><trkpt lat="40.6446753" lon="9.1715384"><ele>788.0</ele><time>2026-03-22T08:38:08.238Z</time></trkpt><trkpt lat="40.6445957" lon="9.1714233"><ele>790.25</ele><time>2026-03-22T08:38:10.238Z</time></trkpt><trkpt lat="40.6444985" lon="9.1713176"><ele>792.5</ele><time>2026-03-22T08:38:12.238Z</time></trkpt><trkpt lat="40.6444083" lon="9.1712198"><ele>794.75</ele><time>2026-03-22T08:38:14.238Z</time></trkpt><trkpt lat="40.6442812" lon="9.1710569"><ele>797.0</ele><time>2026-03-22T08:38:17.238Z</time></trkpt><trkpt lat="40.6441886" lon="9.1709525"><ele>795.2</ele><time>2026-03-22T08:38:19.238Z</time></trkpt><trkpt lat="40.6440902" lon="9.1708593"><ele>793.4000000000001</ele><time>2026-03-22T08:38:21.238Z</time></trkpt><trkpt lat="40.6439908" lon="9.1707562"><ele>791.5999999999999</ele><time>2026-03-22T08:38:23.238Z</time></trkpt><trkpt lat="40.6438806" lon="9.170651"><ele>789.8</ele><time>2026-03-22T08:38:25.238Z</time></trkpt><trkpt lat="40.643825" lon="9.1706079"><ele>788.0</ele><time>2026-03-22T08:38:26.238Z</time></trkpt><trkpt lat="40.6437675" lon="9.1705653"><ele>788.0</ele><time>2026-03-22T08:38:27.238Z</time></trkpt><trkpt lat="40.6436434" lon="9.1705118"><ele>788.0</ele><time>2026-03-22T08:38:29.238Z</time></trkpt><trkpt lat="40.6435732" lon="9.1705043"><ele>788.0</ele><time>2026-03-22T08:38:30.238Z</time></trkpt><trkpt lat="40.6434958" lon="9.170508"><ele>788.0</ele><time>2026-03-22T08:38:31.238Z</time></trkpt><trkpt lat="40.6433558" lon="9.1705268"><ele>788.0</ele><time>2026-03-22T08:38:33.238Z</time></trkpt><trkpt lat="40.6432266" lon="9.1705375"><ele>785.5999999999999</ele><time>2026-03-22T08:38:35.238Z</time></trkpt><trkpt lat="40.6431633" lon="9.1705468"><ele>783.1999999999999</ele><time>2026-03-22T08:38:36.238Z</time></trkpt><trkpt lat="40.6429944" lon="9.1705792"><ele>780.8</ele><time>2026-03-22T08:38:39.238Z</time></trkpt><trkpt lat="40.6429142" lon="9.1705986"><ele>778.4</ele><time>2026-03-22T08:38:41.238Z</time></trkpt><trkpt lat="40.6428351" lon="9.1706101"><ele>776.0</ele><time>2026-03-22T08:38:44.238Z</time></trkpt><trkpt lat="40.6427643" lon="9.1706127"><ele>774.4</ele><time>2026-03-22T08:39:43.237Z</time></trkpt><trkpt lat="40.6426706" lon="9.170614"><ele>772.8</ele><time>2026-03-22T08:39:46.237Z</time></trkpt><trkpt lat="40.6426107" lon="9.1706659"><ele>771.1999999999999</ele><time>2026-03-22T08:39:47.237Z</time></trkpt><trkpt lat="40.6425211" lon="9.1706945"><ele>769.5999999999999</ele><time>2026-03-22T08:39:49.237Z</time></trkpt><trkpt lat="40.6424274" lon="9.170719"><ele>768.0</ele><time>2026-03-22T08:39:51.237Z</time></trkpt><trkpt lat="40.6423075" lon="9.1707483"><ele>766.4</ele><time>2026-03-22T08:39:53.237Z</time></trkpt><trkpt lat="40.6422474" lon="9.1707821"><ele>764.8</ele><time>2026-03-22T08:39:54.237Z</time></trkpt><trkpt lat="40.6421863" lon="9.1708139"><ele>763.2</ele><time>2026-03-22T08:39:55.237Z</time></trkpt><trkpt lat="40.6420225" lon="9.1709394"><ele>761.6</ele><time>2026-03-22T08:39:58.237Z</time></trkpt><trkpt lat="40.6419674" lon="9.1709909"><ele>760.0</ele><time>2026-03-22T08:39:59.237Z</time></trkpt><trkpt lat="40.641875" lon="9.1711224"><ele>760.0</ele><time>2026-03-22T08:40:01.237Z</time></trkpt><trkpt lat="40.6418401" lon="9.1711976"><ele>760.0</ele><time>2026-03-22T08:40:02.237Z</time></trkpt><trkpt lat="40.6418051" lon="9.1712675"><ele>760.0</ele><time>2026-03-22T08:40:03.237Z</time></trkpt><trkpt lat="40.641737" lon="9.171378"><ele>760.0</ele><time>2026-03-22T08:40:05.237Z</time></trkpt><trkpt lat="40.6416166" lon="9.1715422"><ele>760.0</ele><time>2026-03-22T08:40:08.237Z</time></trkpt><trkpt lat="40.6415189" lon="9.1716209"><ele>758.6</ele><time>2026-03-22T08:40:10.237Z</time></trkpt><trkpt lat="40.6414651" lon="9.1716644"><ele>757.2</ele><time>2026-03-22T08:40:11.237Z</time></trkpt><trkpt lat="40.6414026" lon="9.1717328"><ele>755.8</ele><time>2026-03-22T08:40:12.237Z</time></trkpt><trkpt lat="40.6412304" lon="9.1718149"><ele>754.4</ele><time>2026-03-22T08:40:15.237Z</time></trkpt><trkpt lat="40.6411628" lon="9.1718312"><ele>753.0</ele><time>2026-03-22T08:40:16.237Z</time></trkpt><trkpt lat="40.6411013" lon="9.1718574"><ele>753.0</ele><time>2026-03-22T08:40:17.237Z</time></trkpt><trkpt lat="40.6410377" lon="9.1718732"><ele>753.0</ele><time>2026-03-22T08:40:18.237Z</time></trkpt><trkpt lat="40.6409704" lon="9.1718888"><ele>753.0</ele><time>2026-03-22T08:40:19.237Z</time></trkpt><trkpt lat="40.6409094" lon="9.17191"><ele>753.0</ele><time>2026-03-22T08:40:20.237Z</time></trkpt><trkpt lat="40.6408261" lon="9.171919"><ele>753.0</ele><time>2026-03-22T08:40:21.237Z</time></trkpt><trkpt lat="40.6406759" lon="9.1719573"><ele>753.0</ele><time>2026-03-22T08:40:23.237Z</time></trkpt><trkpt lat="40.6405571" lon="9.1719672"><ele>753.0</ele><time>2026-03-22T08:40:25.237Z</time></trkpt><trkpt lat="40.6404458" lon="9.171978"><ele>753.0</ele><time>2026-03-22T08:40:27.237Z</time></trkpt><trkpt lat="40.6403173" lon="9.17199"><ele>753.0</ele><time>2026-03-22T08:40:29.237Z</time></trkpt><trkpt lat="40.6401422" lon="9.1719597"><ele>753.0</ele><time>2026-03-22T08:40:32.237Z</time></trkpt><trkpt lat="40.640007" lon="9.1719367"><ele>751.5</ele><time>2026-03-22T08:40:34.237Z</time></trkpt><trkpt lat="40.6399071" lon="9.171857"><ele>750.0</ele><time>2026-03-22T08:40:36.237Z</time></trkpt><trkpt lat="40.6398107" lon="9.1717707"><ele>748.5</ele><time>2026-03-22T08:40:38.237Z</time></trkpt><trkpt lat="40.6397324" lon="9.1716633"><ele>747.0</ele><time>2026-03-22T08:40:40.237Z</time></trkpt><trkpt lat="40.6396439" lon="9.1715452"><ele>745.5</ele><time>2026-03-22T08:40:42.237Z</time></trkpt><trkpt lat="40.6395231" lon="9.1714467"><ele>744.0</ele><time>2026-03-22T08:40:44.237Z</time></trkpt><trkpt lat="40.6393914" lon="9.1713824"><ele>742.5</ele><time>2026-03-22T08:40:46.237Z</time></trkpt><trkpt lat="40.639277" lon="9.1713076"><ele>741.0</ele><time>2026-03-22T08:40:48.237Z</time></trkpt><trkpt lat="40.6391763" lon="9.1712718"><ele>741.0</ele><time>2026-03-22T08:40:50.237Z</time></trkpt><trkpt lat="40.6390833" lon="9.1712677"><ele>741.0</ele><time>2026-03-22T08:40:52.237Z</time></trkpt><trkpt lat="40.6389718" lon="9.1712728"><ele>741.0</ele><time>2026-03-22T08:40:54.237Z</time></trkpt><trkpt lat="40.6389051" lon="9.1714097"><ele>741.0</ele><time>2026-03-22T08:40:56.237Z</time></trkpt><trkpt lat="40.6388832" lon="9.1714891"><ele>741.0</ele><time>2026-03-22T08:40:57.237Z</time></trkpt><trkpt lat="40.6388812" lon="9.171651"><ele>739.6666666666666</ele><time>2026-03-22T08:40:59.237Z</time></trkpt><trkpt lat="40.6388631" lon="9.1718456"><ele>738.3333333333333</ele><time>2026-03-22T08:41:01.237Z</time></trkpt><trkpt lat="40.6388306" lon="9.1720426"><ele>737.0</ele><time>2026-03-22T08:41:03.237Z</time></trkpt><trkpt lat="40.6387793" lon="9.1722359"><ele>736.3333333333333</ele><time>2026-03-22T08:41:05.237Z</time></trkpt><trkpt lat="40.6387152" lon="9.1724357"><ele>735.6666666666666</ele><time>2026-03-22T08:41:07.237Z</time></trkpt><trkpt lat="40.6386527" lon="9.1726358"><ele>735.0</ele><time>2026-03-22T08:41:09.237Z</time></trkpt><trkpt lat="40.6385931" lon="9.1728397"><ele>737.0</ele><time>2026-03-22T08:41:11.237Z</time></trkpt><trkpt lat="40.6385165" lon="9.173011"><ele>739.0</ele><time>2026-03-22T08:41:13.237Z</time></trkpt><trkpt lat="40.638431" lon="9.173201"><ele>741.0</ele><time>2026-03-22T08:41:15.237Z</time></trkpt><trkpt lat="40.6383431" lon="9.1733822"><ele>741.0</ele><time>2026-03-22T08:41:17.237Z</time></trkpt><trkpt lat="40.6383113" lon="9.1734789"><ele>741.0</ele><time>2026-03-22T08:41:18.237Z</time></trkpt><trkpt lat="40.6382594" lon="9.1737585"><ele>741.0</ele><time>2026-03-22T08:41:21.237Z</time></trkpt><trkpt lat="40.6382518" lon="9.1739546"><ele>741.0</ele><time>2026-03-22T08:41:23.237Z</time></trkpt><trkpt lat="40.6382278" lon="9.1740994"><ele>741.75</ele><time>2026-03-22T08:41:25.237Z</time></trkpt><trkpt lat="40.6382119" lon="9.1742572"><ele>742.5</ele><time>2026-03-22T08:41:27.237Z</time></trkpt><trkpt lat="40.6381655" lon="9.1744413"><ele>743.25</ele><time>2026-03-22T08:41:29.237Z</time></trkpt><trkpt lat="40.6381361" lon="9.1745432"><ele>744.0</ele><time>2026-03-22T08:41:30.238Z</time></trkpt><trkpt lat="40.6380348" lon="9.1747145"><ele>744.0</ele><time>2026-03-22T08:41:32.237Z</time></trkpt><trkpt lat="40.6379201" lon="9.1748438"><ele>744.0</ele><time>2026-03-22T08:41:34.237Z</time></trkpt><trkpt lat="40.6378592" lon="9.1748948"><ele>744.0</ele><time>2026-03-22T08:41:35.237Z</time></trkpt><trkpt lat="40.6378001" lon="9.174957"><ele>744.0</ele><time>2026-03-22T08:41:36.237Z</time></trkpt><trkpt lat="40.6377045" lon="9.1750755"><ele>744.0</ele><time>2026-03-22T08:41:38.237Z</time></trkpt><trkpt lat="40.6376922" lon="9.175238"><ele>750.3333333333334</ele><time>2026-03-22T08:41:40.237Z</time></trkpt><trkpt lat="40.6377069" lon="9.1754922"><ele>756.6666666666667</ele><time>2026-03-22T08:41:42.237Z</time></trkpt><trkpt lat="40.6377227" lon="9.1757037"><ele>763.0</ele><time>2026-03-22T08:41:44.237Z</time></trkpt><trkpt lat="40.6377277" lon="9.1759175"><ele>763.25</ele><time>2026-03-22T08:41:46.237Z</time></trkpt><trkpt lat="40.6377183" lon="9.1761152"><ele>763.5</ele><time>2026-03-22T08:41:48.237Z</time></trkpt><trkpt lat="40.6376972" lon="9.1762861"><ele>763.75</ele><time>2026-03-22T08:41:50.237Z</time></trkpt><trkpt lat="40.6376563" lon="9.1764234"><ele>764.0</ele><time>2026-03-22T08:41:52.237Z</time></trkpt><trkpt lat="40.6375811" lon="9.1765392"><ele>763.5</ele><time>2026-03-22T08:41:54.237Z</time></trkpt><trkpt lat="40.6374793" lon="9.1766175"><ele>763.0</ele><time>2026-03-22T08:41:56.237Z</time></trkpt><trkpt lat="40.637418" lon="9.1766448"><ele>762.5</ele><time>2026-03-22T08:41:57.237Z</time></trkpt><trkpt lat="40.6373494" lon="9.1766596"><ele>762.0</ele><time>2026-03-22T08:41:58.237Z</time></trkpt><trkpt lat="40.6372762" lon="9.1766639"><ele>761.5</ele><time>2026-03-22T08:41:59.237Z</time></trkpt><trkpt lat="40.6372118" lon="9.1766734"><ele>761.0</ele><time>2026-03-22T08:42:00.237Z</time></trkpt><trkpt lat="40.6370894" lon="9.1766356"><ele>764.3333333333333</ele><time>2026-03-22T08:42:02.237Z</time></trkpt><trkpt lat="40.6369079" lon="9.1766227"><ele>767.6666666666666</ele><time>2026-03-22T08:42:04.237Z</time></trkpt><trkpt lat="40.636759" lon="9.1765477"><ele>771.0</ele><time>2026-03-22T08:42:06.237Z</time></trkpt><trkpt lat="40.6365711" lon="9.1765313"><ele>773.5</ele><time>2026-03-22T08:42:08.237Z</time></trkpt><trkpt lat="40.636479" lon="9.1765193"><ele>776.0</ele><time>2026-03-22T08:42:09.237Z</time></trkpt><trkpt lat="40.6363267" lon="9.1764733"><ele>778.5</ele><time>2026-03-22T08:42:11.237Z</time></trkpt><trkpt lat="40.6361582" lon="9.1764184"><ele>781.0</ele><time>2026-03-22T08:42:13.237Z</time></trkpt><trkpt lat="40.6359967" lon="9.1763504"><ele>783.5</ele><time>2026-03-22T08:42:15.237Z</time></trkpt><trkpt lat="40.6358339" lon="9.1762662"><ele>786.0</ele><time>2026-03-22T08:42:17.237Z</time></trkpt><trkpt lat="40.635773" lon="9.1762033"><ele>788.5</ele><time>2026-03-22T08:42:18.237Z</time></trkpt><trkpt lat="40.6356287" lon="9.1761204"><ele>791.0</ele><time>2026-03-22T08:42:20.237Z</time></trkpt><trkpt lat="40.6355149" lon="9.1760187"><ele>791.0</ele><time>2026-03-22T08:42:22.237Z</time></trkpt><trkpt lat="40.6353802" lon="9.175886"><ele>791.0</ele><time>2026-03-22T08:42:24.237Z</time></trkpt><trkpt lat="40.6352686" lon="9.1757677"><ele>791.0</ele><time>2026-03-22T08:42:26.237Z</time></trkpt><trkpt lat="40.6351468" lon="9.1756517"><ele>791.6666666666667</ele><time>2026-03-22T08:42:28.237Z</time></trkpt><trkpt lat="40.6350156" lon="9.1755395"><ele>792.3333333333334</ele><time>2026-03-22T08:42:30.237Z</time></trkpt><trkpt lat="40.6349477" lon="9.1754906"><ele>793.0</ele><time>2026-03-22T08:42:31.237Z</time></trkpt><trkpt lat="40.6348743" lon="9.1754485"><ele>793.6666666666667</ele><time>2026-03-22T08:42:32.237Z</time></trkpt><trkpt lat="40.6348162" lon="9.1754103"><ele>794.3333333333334</ele><time>2026-03-22T08:42:33.237Z</time></trkpt><trkpt lat="40.6347608" lon="9.1753603"><ele>795.0</ele><time>2026-03-22T08:42:34.237Z</time></trkpt><trkpt lat="40.6346452" lon="9.1752589"><ele>795.0</ele><time>2026-03-22T08:42:36.237Z</time></trkpt><trkpt lat="40.6345184" lon="9.1751703"><ele>795.0</ele><time>2026-03-22T08:42:38.237Z</time></trkpt><trkpt lat="40.6344638" lon="9.1751244"><ele>795.0</ele><time>2026-03-22T08:42:39.237Z</time></trkpt><trkpt lat="40.6343995" lon="9.175061"><ele>795.0</ele><time>2026-03-22T08:42:40.237Z</time></trkpt><trkpt lat="40.634324" lon="9.1750218"><ele>795.0</ele><time>2026-03-22T08:42:41.237Z</time></trkpt><trkpt lat="40.6341805" lon="9.1749614"><ele>795.75</ele><time>2026-03-22T08:42:43.237Z</time></trkpt><trkpt lat="40.6340333" lon="9.1749171"><ele>796.5</ele><time>2026-03-22T08:42:45.237Z</time></trkpt><trkpt lat="40.6339098" lon="9.1748789"><ele>797.25</ele><time>2026-03-22T08:42:47.237Z</time></trkpt><trkpt lat="40.6338072" lon="9.17482"><ele>798.0</ele><time>2026-03-22T08:42:49.237Z</time></trkpt><trkpt lat="40.6337396" lon="9.174766"><ele>798.0</ele><time>2026-03-22T08:42:51.237Z</time></trkpt><trkpt lat="40.6336726" lon="9.1747913"><ele>798.0</ele><time>2026-03-22T08:42:52.237Z</time></trkpt><trkpt lat="40.633611" lon="9.1748186"><ele>798.0</ele><time>2026-03-22T08:42:56.237Z</time></trkpt><trkpt lat="40.6335122" lon="9.1748586"><ele>798.0</ele><time>2026-03-22T08:43:57.24Z</time></trkpt><trkpt lat="40.6334005" lon="9.1748486"><ele>798.0</ele><time>2026-03-22T08:43:59.24Z</time></trkpt><trkpt lat="40.6332556" lon="9.1747947"><ele>795.2</ele><time>2026-03-22T08:44:02.24Z</time></trkpt><trkpt lat="40.6331651" lon="9.1747183"><ele>792.4</ele><time>2026-03-22T08:44:04.24Z</time></trkpt><trkpt lat="40.6330752" lon="9.1746482"><ele>789.6</ele><time>2026-03-22T08:44:06.24Z</time></trkpt><trkpt lat="40.6329872" lon="9.1745921"><ele>786.8000000000001</ele><time>2026-03-22T08:44:08.24Z</time></trkpt><trkpt lat="40.6329109" lon="9.1745599"><ele>784.0</ele><time>2026-03-22T08:44:11.24Z</time></trkpt><trkpt lat="40.6328336" lon="9.1745408"><ele>781.4000000000001</ele><time>2026-03-22T08:44:56.243Z</time></trkpt><trkpt lat="40.632743" lon="9.1746378"><ele>778.8</ele><time>2026-03-22T08:44:58.243Z</time></trkpt><trkpt lat="40.6326445" lon="9.1747129"><ele>776.2</ele><time>2026-03-22T08:45:00.243Z</time></trkpt><trkpt lat="40.6325875" lon="9.1747558"><ele>773.5999999999999</ele><time>2026-03-22T08:45:01.243Z</time></trkpt><trkpt lat="40.632467" lon="9.1748572"><ele>771.0</ele><time>2026-03-22T08:45:03.243Z</time></trkpt><trkpt lat="40.6324072" lon="9.1749051"><ele>771.0</ele><time>2026-03-22T08:45:04.243Z</time></trkpt><trkpt lat="40.6323507" lon="9.1749533"><ele>771.0</ele><time>2026-03-22T08:45:05.243Z</time></trkpt><trkpt lat="40.6322584" lon="9.1750291"><ele>771.0</ele><time>2026-03-22T08:45:07.243Z</time></trkpt><trkpt lat="40.6321643" lon="9.1751081"><ele>771.0</ele><time>2026-03-22T08:45:09.243Z</time></trkpt><trkpt lat="40.6321001" lon="9.1751968"><ele>771.0</ele><time>2026-03-22T08:45:11.243Z</time></trkpt><trkpt lat="40.6320452" lon="9.1752615"><ele>771.0</ele><time>2026-03-22T08:45:13.243Z</time></trkpt><trkpt lat="40.6320042" lon="9.1753336"><ele>771.0</ele><time>2026-03-22T08:45:16.243Z</time></trkpt><trkpt lat="40.6319724" lon="9.1754642"><ele>771.0</ele><time>2026-03-22T08:45:53.236Z</time></trkpt><trkpt lat="40.6319494" lon="9.1756371"><ele>771.0</ele><time>2026-03-22T08:45:55.236Z</time></trkpt><trkpt lat="40.6319367" lon="9.1757336"><ele>771.0</ele><time>2026-03-22T08:45:56.236Z</time></trkpt><trkpt lat="40.6319318" lon="9.1758355"><ele>772.0</ele><time>2026-03-22T08:45:57.236Z</time></trkpt><trkpt lat="40.6319228" lon="9.1759361"><ele>773.0</ele><time>2026-03-22T08:45:58.236Z</time></trkpt><trkpt lat="40.6319128" lon="9.176036"><ele>774.0</ele><time>2026-03-22T08:45:59.236Z</time></trkpt><trkpt lat="40.6319011" lon="9.1761384"><ele>775.0</ele><time>2026-03-22T08:46:00.236Z</time></trkpt><trkpt lat="40.6318992" lon="9.1762433"><ele>776.0</ele><time>2026-03-22T08:46:01.236Z</time></trkpt><trkpt lat="40.6318686" lon="9.1763545"><ele>777.0</ele><time>2026-03-22T08:46:02.236Z</time></trkpt><trkpt lat="40.6318438" lon="9.1764651"><ele>776.6666666666667</ele><time>2026-03-22T08:46:03.236Z</time></trkpt><trkpt lat="40.6317887" lon="9.1766659"><ele>776.3333333333334</ele><time>2026-03-22T08:46:05.236Z</time></trkpt><trkpt lat="40.631742" lon="9.1768753"><ele>776.0</ele><time>2026-03-22T08:46:07.236Z</time></trkpt><trkpt lat="40.6316711" lon="9.1770799"><ele>776.0</ele><time>2026-03-22T08:46:09.236Z</time></trkpt><trkpt lat="40.6315958" lon="9.1772783"><ele>776.0</ele><time>2026-03-22T08:46:11.236Z</time></trkpt><trkpt lat="40.6315223" lon="9.1774709"><ele>776.0</ele><time>2026-03-22T08:46:13.236Z</time></trkpt><trkpt lat="40.6314381" lon="9.1776602"><ele>775.25</ele><time>2026-03-22T08:46:15.236Z</time></trkpt><trkpt lat="40.6313473" lon="9.1778326"><ele>774.5</ele><time>2026-03-22T08:46:17.236Z</time></trkpt><trkpt lat="40.6312544" lon="9.177982"><ele>773.75</ele><time>2026-03-22T08:46:19.236Z</time></trkpt><trkpt lat="40.6311734" lon="9.1781083"><ele>773.0</ele><time>2026-03-22T08:46:21.236Z</time></trkpt><trkpt lat="40.6310665" lon="9.1782141"><ele>775.25</ele><time>2026-03-22T08:46:23.236Z</time></trkpt><trkpt lat="40.6309925" lon="9.178355"><ele>777.5</ele><time>2026-03-22T08:46:25.236Z</time></trkpt><trkpt lat="40.6309182" lon="9.1784624"><ele>779.75</ele><time>2026-03-22T08:46:27.236Z</time></trkpt><trkpt lat="40.6308189" lon="9.1785365"><ele>782.0</ele><time>2026-03-22T08:46:29.236Z</time></trkpt><trkpt lat="40.630705" lon="9.17857"><ele>782.0</ele><time>2026-03-22T08:46:31.236Z</time></trkpt><trkpt lat="40.6305771" lon="9.1785714"><ele>782.0</ele><time>2026-03-22T08:46:33.236Z</time></trkpt><trkpt lat="40.6305022" lon="9.1785578"><ele>782.0</ele><time>2026-03-22T08:46:34.236Z</time></trkpt><trkpt lat="40.6303597" lon="9.1785073"><ele>782.0</ele><time>2026-03-22T08:46:36.236Z</time></trkpt><trkpt lat="40.630236" lon="9.1784879"><ele>783.0</ele><time>2026-03-22T08:46:38.236Z</time></trkpt><trkpt lat="40.6300848" lon="9.1784829"><ele>784.0</ele><time>2026-03-22T08:46:40.236Z</time></trkpt><trkpt lat="40.629947" lon="9.1784702"><ele>785.0</ele><time>2026-03-22T08:46:42.236Z</time></trkpt><trkpt lat="40.6298154" lon="9.1784073"><ele>786.0</ele><time>2026-03-22T08:46:44.236Z</time></trkpt><trkpt lat="40.6296878" lon="9.178327"><ele>786.0</ele><time>2026-03-22T08:46:46.236Z</time></trkpt><trkpt lat="40.6296179" lon="9.1782605"><ele>786.0</ele><time>2026-03-22T08:46:47.236Z</time></trkpt><trkpt lat="40.6295499" lon="9.1781941"><ele>786.0</ele><time>2026-03-22T08:46:48.236Z</time></trkpt><trkpt lat="40.6294296" lon="9.1780737"><ele>786.0</ele><time>2026-03-22T08:46:50.236Z</time></trkpt><trkpt lat="40.6293429" lon="9.1779799"><ele>786.0</ele><time>2026-03-22T08:46:52.236Z</time></trkpt><trkpt lat="40.6292105" lon="9.1778752"><ele>784.8</ele><time>2026-03-22T08:46:55.236Z</time></trkpt><trkpt lat="40.6291168" lon="9.1777882"><ele>783.5999999999999</ele><time>2026-03-22T08:46:57.236Z</time></trkpt><trkpt lat="40.6290153" lon="9.1777022"><ele>782.4</ele><time>2026-03-22T08:46:59.236Z</time></trkpt><trkpt lat="40.6289179" lon="9.1776357"><ele>781.2</ele><time>2026-03-22T08:47:01.236Z</time></trkpt><trkpt lat="40.6288176" lon="9.1775974"><ele>780.0</ele><time>2026-03-22T08:47:03.236Z</time></trkpt><trkpt lat="40.6286241" lon="9.1776041"><ele>778.0</ele><time>2026-03-22T08:47:06.236Z</time></trkpt><trkpt lat="40.6284734" lon="9.1776635"><ele>776.0</ele><time>2026-03-22T08:47:08.236Z</time></trkpt><trkpt lat="40.6283111" lon="9.1777376"><ele>774.0</ele><time>2026-03-22T08:47:10.236Z</time></trkpt><trkpt lat="40.6281513" lon="9.177789"><ele>774.0</ele><time>2026-03-22T08:47:12.236Z</time></trkpt><trkpt lat="40.6279916" lon="9.1778267"><ele>774.0</ele><time>2026-03-22T08:47:14.236Z</time></trkpt><trkpt lat="40.6278276" lon="9.1778758"><ele>774.0</ele><time>2026-03-22T08:47:16.236Z</time></trkpt><trkpt lat="40.6276774" lon="9.1779427"><ele>775.0</ele><time>2026-03-22T08:47:18.236Z</time></trkpt><trkpt lat="40.627606" lon="9.177985"><ele>776.0</ele><time>2026-03-22T08:47:19.236Z</time></trkpt><trkpt lat="40.627534" lon="9.1780256"><ele>777.0</ele><time>2026-03-22T08:47:20.236Z</time></trkpt><trkpt lat="40.6274587" lon="9.1780666"><ele>778.0</ele><time>2026-03-22T08:47:21.236Z</time></trkpt><trkpt lat="40.6273743" lon="9.1781072"><ele>779.0</ele><time>2026-03-22T08:47:22.236Z</time></trkpt><trkpt lat="40.6273043" lon="9.1781487"><ele>780.0</ele><time>2026-03-22T08:47:23.236Z</time></trkpt><trkpt lat="40.6271408" lon="9.1782339"><ele>781.0</ele><time>2026-03-22T08:47:25.236Z</time></trkpt><trkpt lat="40.6269722" lon="9.1783304"><ele>782.0</ele><time>2026-03-22T08:47:27.236Z</time></trkpt><trkpt lat="40.6268893" lon="9.1783763"><ele>783.0</ele><time>2026-03-22T08:47:28.236Z</time></trkpt><trkpt lat="40.6268041" lon="9.1784195"><ele>784.0</ele><time>2026-03-22T08:47:29.236Z</time></trkpt><trkpt lat="40.6267194" lon="9.1784642"><ele>784.0</ele><time>2026-03-22T08:47:30.236Z</time></trkpt><trkpt lat="40.6264609" lon="9.1786096"><ele>784.0</ele><time>2026-03-22T08:47:33.236Z</time></trkpt><trkpt lat="40.6262988" lon="9.1787247"><ele>784.0</ele><time>2026-03-22T08:47:35.236Z</time></trkpt><trkpt lat="40.6262153" lon="9.1787985"><ele>784.0</ele><time>2026-03-22T08:47:36.236Z</time></trkpt><trkpt lat="40.6261357" lon="9.1788738"><ele>784.0</ele><time>2026-03-22T08:47:37.236Z</time></trkpt><trkpt lat="40.6260642" lon="9.1789434"><ele>784.0</ele><time>2026-03-22T08:47:38.236Z</time></trkpt><trkpt lat="40.6259961" lon="9.1790239"><ele>784.0</ele><time>2026-03-22T08:47:39.236Z</time></trkpt><trkpt lat="40.6259271" lon="9.1791128"><ele>785.6666666666666</ele><time>2026-03-22T08:47:40.236Z</time></trkpt><trkpt lat="40.6258713" lon="9.1792035"><ele>787.3333333333333</ele><time>2026-03-22T08:47:41.236Z</time></trkpt><trkpt lat="40.6258133" lon="9.1792849"><ele>789.0</ele><time>2026-03-22T08:47:42.236Z</time></trkpt><trkpt lat="40.6257586" lon="9.1793666"><ele>790.6666666666667</ele><time>2026-03-22T08:47:43.236Z</time></trkpt><trkpt lat="40.6256974" lon="9.1794603"><ele>792.3333333333334</ele><time>2026-03-22T08:47:44.236Z</time></trkpt><trkpt lat="40.6256414" lon="9.1795377"><ele>794.0</ele><time>2026-03-22T08:47:45.236Z</time></trkpt><trkpt lat="40.6255936" lon="9.1796045"><ele>794.0</ele><time>2026-03-22T08:47:46.236Z</time></trkpt><trkpt lat="40.6254693" lon="9.1797555"><ele>794.0</ele><time>2026-03-22T08:47:48.236Z</time></trkpt><trkpt lat="40.6253481" lon="9.1798928"><ele>794.0</ele><time>2026-03-22T08:47:50.236Z</time></trkpt><trkpt lat="40.6252503" lon="9.1799856"><ele>794.0</ele><time>2026-03-22T08:47:52.236Z</time></trkpt><trkpt lat="40.6251636" lon="9.1800749"><ele>795.5714285714286</ele><time>2026-03-22T08:47:54.236Z</time></trkpt><trkpt lat="40.6250836" lon="9.180133"><ele>797.1428571428571</ele><time>2026-03-22T08:47:56.236Z</time></trkpt><trkpt lat="40.6250199" lon="9.1801825"><ele>798.7142857142858</ele><time>2026-03-22T08:47:58.236Z</time></trkpt><trkpt lat="40.6249625" lon="9.1802269"><ele>800.2857142857142</ele><time>2026-03-22T08:48:00.236Z</time></trkpt><trkpt lat="40.6249756" lon="9.1801361"><ele>801.8571428571429</ele><time>2026-03-22T08:48:29.238Z</time></trkpt><trkpt lat="40.6250455" lon="9.1801151"><ele>803.4285714285714</ele><time>2026-03-22T08:48:36.237Z</time></trkpt><trkpt lat="40.6251121" lon="9.1800863"><ele>805.0</ele><time>2026-03-22T08:48:43.242Z</time></trkpt><trkpt lat="40.6250642" lon="9.1801606"><ele>805.0</ele><time>2026-03-22T08:49:49.241Z</time></trkpt><trkpt lat="40.6250059" lon="9.1802013"><ele>805.0</ele><time>2026-03-22T08:49:54.241Z</time></trkpt><trkpt lat="40.6249442" lon="9.1802343"><ele>805.0</ele><time>2026-03-22T08:50:00.254Z</time></trkpt><trkpt lat="40.6246078" lon="9.1804302"><ele>804.9999999999999</ele><time>2026-03-22T08:50:25.241Z</time></trkpt><trkpt lat="40.6245422" lon="9.180485"><ele>805.0</ele><time>2026-03-22T08:50:26.241Z</time></trkpt><trkpt lat="40.6244831" lon="9.1805189"><ele>805.0</ele><time>2026-03-22T08:50:27.241Z</time></trkpt><trkpt lat="40.6243606" lon="9.1805706"><ele>805.0</ele><time>2026-03-22T08:50:29.241Z</time></trkpt><trkpt lat="40.6242945" lon="9.1805992"><ele>804.9999999999999</ele><time>2026-03-22T08:50:30.241Z</time></trkpt><trkpt lat="40.6242247" lon="9.1806309"><ele>805.0</ele><time>2026-03-22T08:50:31.241Z</time></trkpt><trkpt lat="40.6241583" lon="9.1806519"><ele>805.1428571428571</ele><time>2026-03-22T08:50:32.241Z</time></trkpt><trkpt lat="40.6240886" lon="9.1806749"><ele>805.2857142857142</ele><time>2026-03-22T08:50:33.241Z</time></trkpt><trkpt lat="40.624019" lon="9.1806965"><ele>805.4285714285714</ele><time>2026-03-22T08:50:34.241Z</time></trkpt><trkpt lat="40.6239344" lon="9.1807241"><ele>805.5714285714286</ele><time>2026-03-22T08:50:35.241Z</time></trkpt><trkpt lat="40.623863" lon="9.1807281"><ele>805.7142857142857</ele><time>2026-03-22T08:50:36.241Z</time></trkpt><trkpt lat="40.6237914" lon="9.1807385"><ele>805.8571428571429</ele><time>2026-03-22T08:50:37.241Z</time></trkpt><trkpt lat="40.6237229" lon="9.1807526"><ele>806.0</ele><time>2026-03-22T08:50:38.241Z</time></trkpt><trkpt lat="40.6236591" lon="9.1807676"><ele>807.5714285714286</ele><time>2026-03-22T08:50:39.241Z</time></trkpt><trkpt lat="40.6235888" lon="9.180778"><ele>809.1428571428571</ele><time>2026-03-22T08:50:40.241Z</time></trkpt><trkpt lat="40.623524" lon="9.1807876"><ele>810.7142857142857</ele><time>2026-03-22T08:50:41.241Z</time></trkpt><trkpt lat="40.6234554" lon="9.1807913"><ele>812.2857142857142</ele><time>2026-03-22T08:50:42.241Z</time></trkpt><trkpt lat="40.6233823" lon="9.1808054"><ele>813.8571428571429</ele><time>2026-03-22T08:50:43.241Z</time></trkpt><trkpt lat="40.6233143" lon="9.1808127"><ele>815.4285714285713</ele><time>2026-03-22T08:50:44.241Z</time></trkpt><trkpt lat="40.6232493" lon="9.1808272"><ele>817.0</ele><time>2026-03-22T08:50:45.242Z</time></trkpt><trkpt lat="40.6231786" lon="9.1808516"><ele>816.9999999999999</ele><time>2026-03-22T08:50:46.241Z</time></trkpt><trkpt lat="40.6230938" lon="9.1808741"><ele>817.0</ele><time>2026-03-22T08:50:48.241Z</time></trkpt><trkpt lat="40.6230011" lon="9.1809067"><ele>817.0</ele><time>2026-03-22T08:50:50.241Z</time></trkpt><trkpt lat="40.6228897" lon="9.1809386"><ele>817.0</ele><time>2026-03-22T08:50:52.241Z</time></trkpt><trkpt lat="40.622819" lon="9.1809484"><ele>816.9999999999999</ele><time>2026-03-22T08:50:53.241Z</time></trkpt><trkpt lat="40.6227545" lon="9.1809577"><ele>817.0</ele><time>2026-03-22T08:50:54.241Z</time></trkpt><trkpt lat="40.6226848" lon="9.1809787"><ele>817.9999999999999</ele><time>2026-03-22T08:50:55.241Z</time></trkpt><trkpt lat="40.6226106" lon="9.1810057"><ele>819.0</ele><time>2026-03-22T08:50:56.241Z</time></trkpt><trkpt lat="40.6225427" lon="9.1810359"><ele>820.0</ele><time>2026-03-22T08:50:57.241Z</time></trkpt><trkpt lat="40.6224745" lon="9.1810637"><ele>821.0</ele><time>2026-03-22T08:50:58.241Z</time></trkpt><trkpt lat="40.6223979" lon="9.1811013"><ele>821.9999999999999</ele><time>2026-03-22T08:50:59.241Z</time></trkpt><trkpt lat="40.6223319" lon="9.1811306"><ele>823.0</ele><time>2026-03-22T08:51:00.241Z</time></trkpt><trkpt lat="40.6222563" lon="9.1811577"><ele>822.9999999999999</ele><time>2026-03-22T08:51:01.241Z</time></trkpt><trkpt lat="40.6221812" lon="9.1811833"><ele>823.0</ele><time>2026-03-22T08:51:02.241Z</time></trkpt><trkpt lat="40.6221031" lon="9.181204"><ele>823.0</ele><time>2026-03-22T08:51:03.241Z</time></trkpt><trkpt lat="40.6220301" lon="9.1812372"><ele>823.0</ele><time>2026-03-22T08:51:04.241Z</time></trkpt><trkpt lat="40.6219523" lon="9.1812661"><ele>822.9999999999999</ele><time>2026-03-22T08:51:05.241Z</time></trkpt><trkpt lat="40.6218802" lon="9.181295"><ele>823.0</ele><time>2026-03-22T08:51:06.241Z</time></trkpt><trkpt lat="40.6218105" lon="9.1813263"><ele>824.5714285714286</ele><time>2026-03-22T08:51:07.241Z</time></trkpt><trkpt lat="40.6217393" lon="9.1813574"><ele>826.1428571428571</ele><time>2026-03-22T08:51:08.241Z</time></trkpt><trkpt lat="40.6216722" lon="9.181385"><ele>827.7142857142858</ele><time>2026-03-22T08:51:09.241Z</time></trkpt><trkpt lat="40.621605" lon="9.1814317"><ele>829.2857142857142</ele><time>2026-03-22T08:51:10.241Z</time></trkpt><trkpt lat="40.6215484" lon="9.1814773"><ele>830.8571428571428</ele><time>2026-03-22T08:51:11.241Z</time></trkpt><trkpt lat="40.6214868" lon="9.181517"><ele>832.4285714285714</ele><time>2026-03-22T08:51:12.241Z</time></trkpt><trkpt lat="40.6214233" lon="9.1815571"><ele>834.0</ele><time>2026-03-22T08:51:13.241Z</time></trkpt><trkpt lat="40.6213559" lon="9.1816006"><ele>835.1666666666666</ele><time>2026-03-22T08:51:14.241Z</time></trkpt><trkpt lat="40.6212925" lon="9.1816707"><ele>836.3333333333333</ele><time>2026-03-22T08:51:15.241Z</time></trkpt><trkpt lat="40.6212245" lon="9.1817364"><ele>837.5</ele><time>2026-03-22T08:51:16.241Z</time></trkpt><trkpt lat="40.6211556" lon="9.1818016"><ele>838.6666666666666</ele><time>2026-03-22T08:51:17.241Z</time></trkpt><trkpt lat="40.6210955" lon="9.1818743"><ele>839.8333333333333</ele><time>2026-03-22T08:51:18.241Z</time></trkpt><trkpt lat="40.6210415" lon="9.1819394"><ele>841.0</ele><time>2026-03-22T08:51:19.241Z</time></trkpt><trkpt lat="40.620986" lon="9.1820279"><ele>842.8333333333333</ele><time>2026-03-22T08:51:20.241Z</time></trkpt><trkpt lat="40.6209309" lon="9.182111"><ele>844.6666666666666</ele><time>2026-03-22T08:51:21.241Z</time></trkpt><trkpt lat="40.6208855" lon="9.1821929"><ele>846.5</ele><time>2026-03-22T08:51:22.241Z</time></trkpt><trkpt lat="40.6208373" lon="9.1822849"><ele>848.3333333333333</ele><time>2026-03-22T08:51:23.241Z</time></trkpt><trkpt lat="40.6207819" lon="9.1823661"><ele>850.1666666666666</ele><time>2026-03-22T08:51:24.241Z</time></trkpt><trkpt lat="40.6207453" lon="9.1824522"><ele>852.0</ele><time>2026-03-22T08:51:25.241Z</time></trkpt><trkpt lat="40.6206607" lon="9.1825723"><ele>852.6666666666666</ele><time>2026-03-22T08:51:27.241Z</time></trkpt><trkpt lat="40.6205804" lon="9.1826592"><ele>853.3333333333333</ele><time>2026-03-22T08:51:29.241Z</time></trkpt><trkpt lat="40.6205343" lon="9.1827193"><ele>854.0</ele><time>2026-03-22T08:51:31.241Z</time></trkpt><trkpt lat="40.620493" lon="9.1827919"><ele>854.6666666666666</ele><time>2026-03-22T08:51:51.241Z</time></trkpt><trkpt lat="40.6204059" lon="9.1827398"><ele>855.3333333333333</ele><time>2026-03-22T08:53:05.242Z</time></trkpt><trkpt lat="40.6203139" lon="9.1826751"><ele>856.0</ele><time>2026-03-22T08:53:07.242Z</time></trkpt><trkpt lat="40.6201643" lon="9.1825649"><ele>856.1999999999999</ele><time>2026-03-22T08:53:10.242Z</time></trkpt><trkpt lat="40.6200518" lon="9.1824723"><ele>856.3999999999999</ele><time>2026-03-22T08:53:12.242Z</time></trkpt><trkpt lat="40.6199505" lon="9.1824082"><ele>856.6</ele><time>2026-03-22T08:53:14.242Z</time></trkpt><trkpt lat="40.6198342" lon="9.1823368"><ele>856.8</ele><time>2026-03-22T08:53:16.242Z</time></trkpt><trkpt lat="40.6197645" lon="9.182312"><ele>857.0</ele><time>2026-03-22T08:53:17.242Z</time></trkpt><trkpt lat="40.619696" lon="9.1822751"><ele>857.0</ele><time>2026-03-22T08:53:18.242Z</time></trkpt><trkpt lat="40.6195547" lon="9.1822045"><ele>857.0</ele><time>2026-03-22T08:53:20.242Z</time></trkpt><trkpt lat="40.619486" lon="9.182179"><ele>857.0</ele><time>2026-03-22T08:53:21.242Z</time></trkpt><trkpt lat="40.6194254" lon="9.1821506"><ele>857.0</ele><time>2026-03-22T08:53:22.242Z</time></trkpt><trkpt lat="40.6193156" lon="9.182092"><ele>857.0</ele><time>2026-03-22T08:53:24.242Z</time></trkpt><trkpt lat="40.6191965" lon="9.1820558"><ele>857.75</ele><time>2026-03-22T08:53:26.243Z</time></trkpt><trkpt lat="40.619083" lon="9.1820318"><ele>858.5</ele><time>2026-03-22T08:53:28.242Z</time></trkpt><trkpt lat="40.618961" lon="9.1820253"><ele>859.25</ele><time>2026-03-22T08:53:30.242Z</time></trkpt><trkpt lat="40.6188242" lon="9.1820342"><ele>860.0</ele><time>2026-03-22T08:53:32.242Z</time></trkpt><trkpt lat="40.6186875" lon="9.182063"><ele>860.6</ele><time>2026-03-22T08:53:34.242Z</time></trkpt><trkpt lat="40.6186176" lon="9.1820801"><ele>861.2</ele><time>2026-03-22T08:53:35.242Z</time></trkpt><trkpt lat="40.6185463" lon="9.1820969"><ele>861.8</ele><time>2026-03-22T08:53:36.242Z</time></trkpt><trkpt lat="40.6184159" lon="9.1821241"><ele>862.4</ele><time>2026-03-22T08:53:38.242Z</time></trkpt><trkpt lat="40.6182846" lon="9.1821505"><ele>863.0</ele><time>2026-03-22T08:53:40.242Z</time></trkpt><trkpt lat="40.618157" lon="9.182188"><ele>863.0000000000001</ele><time>2026-03-22T08:53:42.242Z</time></trkpt><trkpt lat="40.6180943" lon="9.182202"><ele>863.0</ele><time>2026-03-22T08:53:43.242Z</time></trkpt><trkpt lat="40.6179801" lon="9.1822187"><ele>863.0</ele><time>2026-03-22T08:53:45.242Z</time></trkpt><trkpt lat="40.6178928" lon="9.1822491"><ele>863.0</ele><time>2026-03-22T08:53:47.242Z</time></trkpt><trkpt lat="40.6178145" lon="9.1822168"><ele>863.0000000000001</ele><time>2026-03-22T08:53:49.242Z</time></trkpt><trkpt lat="40.6177261" lon="9.1821868"><ele>863.0</ele><time>2026-03-22T08:53:51.242Z</time></trkpt><trkpt lat="40.6176488" lon="9.1820964"><ele>865.5</ele><time>2026-03-22T08:53:53.242Z</time></trkpt><trkpt lat="40.6175692" lon="9.1819814"><ele>868.0</ele><time>2026-03-22T08:53:55.242Z</time></trkpt><trkpt lat="40.6174792" lon="9.1818585"><ele>870.5</ele><time>2026-03-22T08:53:57.242Z</time></trkpt><trkpt lat="40.6173775" lon="9.1817339"><ele>873.0</ele><time>2026-03-22T08:53:59.242Z</time></trkpt><trkpt lat="40.6173329" lon="9.1816713"><ele>873.0</ele><time>2026-03-22T08:54:00.242Z</time></trkpt><trkpt lat="40.6172369" lon="9.1815461"><ele>873.0</ele><time>2026-03-22T08:54:02.242Z</time></trkpt><trkpt lat="40.6171471" lon="9.1814309"><ele>873.0</ele><time>2026-03-22T08:54:04.242Z</time></trkpt><trkpt lat="40.6170692" lon="9.1813173"><ele>873.0</ele><time>2026-03-22T08:54:06.242Z</time></trkpt><trkpt lat="40.6170078" lon="9.181205"><ele>874.75</ele><time>2026-03-22T08:54:08.242Z</time></trkpt><trkpt lat="40.6169271" lon="9.1810795"><ele>876.5</ele><time>2026-03-22T08:54:10.242Z</time></trkpt><trkpt lat="40.6168402" lon="9.1809409"><ele>878.25</ele><time>2026-03-22T08:54:12.242Z</time></trkpt><trkpt lat="40.6167496" lon="9.1807811"><ele>880.0</ele><time>2026-03-22T08:54:14.242Z</time></trkpt><trkpt lat="40.6167131" lon="9.1806998"><ele>879.8333333333333</ele><time>2026-03-22T08:54:15.242Z</time></trkpt><trkpt lat="40.616674" lon="9.1806185"><ele>879.6666666666666</ele><time>2026-03-22T08:54:16.242Z</time></trkpt><trkpt lat="40.6166468" lon="9.180543"><ele>879.5</ele><time>2026-03-22T08:54:17.242Z</time></trkpt><trkpt lat="40.6166182" lon="9.1804656"><ele>879.3333333333333</ele><time>2026-03-22T08:54:18.242Z</time></trkpt><trkpt lat="40.6165875" lon="9.1803032"><ele>879.1666666666666</ele><time>2026-03-22T08:54:20.242Z</time></trkpt><trkpt lat="40.6165748" lon="9.1802088"><ele>879.0</ele><time>2026-03-22T08:54:21.242Z</time></trkpt><trkpt lat="40.616556" lon="9.1801231"><ele>879.0</ele><time>2026-03-22T08:54:22.242Z</time></trkpt><trkpt lat="40.6165391" lon="9.1800311"><ele>879.0</ele><time>2026-03-22T08:54:23.242Z</time></trkpt><trkpt lat="40.6165243" lon="9.1799389"><ele>879.0</ele><time>2026-03-22T08:54:24.242Z</time></trkpt><trkpt lat="40.6165027" lon="9.1798418"><ele>879.0</ele><time>2026-03-22T08:54:25.242Z</time></trkpt><trkpt lat="40.6164841" lon="9.1797435"><ele>879.0</ele><time>2026-03-22T08:54:26.242Z</time></trkpt><trkpt lat="40.6164641" lon="9.1796425"><ele>879.0</ele><time>2026-03-22T08:54:27.242Z</time></trkpt><trkpt lat="40.6164421" lon="9.1795384"><ele>878.3333333333334</ele><time>2026-03-22T08:54:28.242Z</time></trkpt><trkpt lat="40.6164195" lon="9.1794345"><ele>877.6666666666667</ele><time>2026-03-22T08:54:29.242Z</time></trkpt><trkpt lat="40.6163978" lon="9.1793321"><ele>877.0</ele><time>2026-03-22T08:54:30.242Z</time></trkpt><trkpt lat="40.6163822" lon="9.1792384"><ele>876.3333333333334</ele><time>2026-03-22T08:54:31.242Z</time></trkpt><trkpt lat="40.6163588" lon="9.1791458"><ele>875.6666666666667</ele><time>2026-03-22T08:54:32.242Z</time></trkpt><trkpt lat="40.6163362" lon="9.1790524"><ele>875.0</ele><time>2026-03-22T08:54:33.242Z</time></trkpt><trkpt lat="40.6163088" lon="9.1789588"><ele>874.1666666666667</ele><time>2026-03-22T08:54:34.242Z</time></trkpt><trkpt lat="40.6162852" lon="9.178864"><ele>873.3333333333334</ele><time>2026-03-22T08:54:35.242Z</time></trkpt><trkpt lat="40.6162569" lon="9.1787611"><ele>872.5</ele><time>2026-03-22T08:54:36.242Z</time></trkpt><trkpt lat="40.6162228" lon="9.1786538"><ele>871.6666666666667</ele><time>2026-03-22T08:54:37.242Z</time></trkpt><trkpt lat="40.6161997" lon="9.1785453"><ele>870.8333333333334</ele><time>2026-03-22T08:54:38.242Z</time></trkpt><trkpt lat="40.6161654" lon="9.1784433"><ele>870.0</ele><time>2026-03-22T08:54:39.242Z</time></trkpt><trkpt lat="40.6161326" lon="9.1783388"><ele>871.1666666666666</ele><time>2026-03-22T08:54:40.242Z</time></trkpt><trkpt lat="40.6161017" lon="9.1782385"><ele>872.3333333333333</ele><time>2026-03-22T08:54:41.242Z</time></trkpt><trkpt lat="40.6160663" lon="9.1781465"><ele>873.5</ele><time>2026-03-22T08:54:42.242Z</time></trkpt><trkpt lat="40.6160282" lon="9.1780532"><ele>874.6666666666666</ele><time>2026-03-22T08:54:43.242Z</time></trkpt><trkpt lat="40.6159916" lon="9.1779686"><ele>875.8333333333333</ele><time>2026-03-22T08:54:44.242Z</time></trkpt><trkpt lat="40.6159537" lon="9.1778828"><ele>877.0</ele><time>2026-03-22T08:54:45.242Z</time></trkpt><trkpt lat="40.6159042" lon="9.1778092"><ele>876.9999999999999</ele><time>2026-03-22T08:54:46.242Z</time></trkpt><trkpt lat="40.6158538" lon="9.1777366"><ele>877.0</ele><time>2026-03-22T08:54:47.242Z</time></trkpt><trkpt lat="40.6158034" lon="9.1776677"><ele>877.0</ele><time>2026-03-22T08:54:48.242Z</time></trkpt><trkpt lat="40.6157524" lon="9.1776013"><ele>877.0</ele><time>2026-03-22T08:54:49.242Z</time></trkpt><trkpt lat="40.6156843" lon="9.1775256"><ele>876.9999999999999</ele><time>2026-03-22T08:54:50.242Z</time></trkpt><trkpt lat="40.6156264" lon="9.1774582"><ele>877.0</ele><time>2026-03-22T08:54:51.242Z</time></trkpt><trkpt lat="40.6155493" lon="9.1774018"><ele>876.9999999999999</ele><time>2026-03-22T08:54:52.242Z</time></trkpt><trkpt lat="40.6154803" lon="9.177357"><ele>877.0</ele><time>2026-03-22T08:54:53.242Z</time></trkpt><trkpt lat="40.6154099" lon="9.1773158"><ele>877.0</ele><time>2026-03-22T08:54:54.242Z</time></trkpt><trkpt lat="40.6153354" lon="9.1772788"><ele>877.0</ele><time>2026-03-22T08:54:55.242Z</time></trkpt><trkpt lat="40.6152626" lon="9.1772476"><ele>876.9999999999999</ele><time>2026-03-22T08:54:56.242Z</time></trkpt><trkpt lat="40.6151889" lon="9.1772289"><ele>877.0</ele><time>2026-03-22T08:54:57.242Z</time></trkpt><trkpt lat="40.615112" lon="9.1772038"><ele>876.6666666666666</ele><time>2026-03-22T08:54:58.242Z</time></trkpt><trkpt lat="40.6150325" lon="9.1771751"><ele>876.3333333333333</ele><time>2026-03-22T08:54:59.242Z</time></trkpt><trkpt lat="40.6149552" lon="9.1771476"><ele>876.0</ele><time>2026-03-22T08:55:00.242Z</time></trkpt><trkpt lat="40.61488" lon="9.1771173"><ele>875.6666666666667</ele><time>2026-03-22T08:55:01.242Z</time></trkpt><trkpt lat="40.614803" lon="9.1770878"><ele>875.3333333333334</ele><time>2026-03-22T08:55:02.242Z</time></trkpt><trkpt lat="40.614726" lon="9.1770582"><ele>875.0</ele><time>2026-03-22T08:55:03.242Z</time></trkpt><trkpt lat="40.6146397" lon="9.1770237"><ele>875.0000000000001</ele><time>2026-03-22T08:55:04.242Z</time></trkpt><trkpt lat="40.6145631" lon="9.1769973"><ele>875.0</ele><time>2026-03-22T08:55:05.242Z</time></trkpt><trkpt lat="40.6144921" lon="9.1769574"><ele>875.0</ele><time>2026-03-22T08:55:06.242Z</time></trkpt><trkpt lat="40.6144301" lon="9.1769169"><ele>875.0</ele><time>2026-03-22T08:55:07.242Z</time></trkpt><trkpt lat="40.6143671" lon="9.1768776"><ele>875.0000000000001</ele><time>2026-03-22T08:55:08.242Z</time></trkpt><trkpt lat="40.6143094" lon="9.1768382"><ele>875.0</ele><time>2026-03-22T08:55:09.242Z</time></trkpt><trkpt lat="40.6142111" lon="9.1767387"><ele>877.3333333333334</ele><time>2026-03-22T08:55:11.242Z</time></trkpt><trkpt lat="40.6141601" lon="9.1766877"><ele>879.6666666666667</ele><time>2026-03-22T08:55:12.242Z</time></trkpt><trkpt lat="40.6140819" lon="9.1766025"><ele>882.0</ele><time>2026-03-22T08:55:14.242Z</time></trkpt><trkpt lat="40.6140414" lon="9.1764837"><ele>884.3333333333333</ele><time>2026-03-22T08:55:16.242Z</time></trkpt><trkpt lat="40.614036" lon="9.1764007"><ele>886.6666666666666</ele><time>2026-03-22T08:55:17.242Z</time></trkpt><trkpt lat="40.6140452" lon="9.1763157"><ele>889.0</ele><time>2026-03-22T08:55:18.242Z</time></trkpt><trkpt lat="40.6140633" lon="9.1762174"><ele>889.3333333333333</ele><time>2026-03-22T08:55:19.242Z</time></trkpt><trkpt lat="40.6140872" lon="9.1761146"><ele>889.6666666666666</ele><time>2026-03-22T08:55:20.242Z</time></trkpt><trkpt lat="40.6141125" lon="9.1760144"><ele>890.0</ele><time>2026-03-22T08:55:21.242Z</time></trkpt><trkpt lat="40.6141337" lon="9.1759143"><ele>890.3333333333333</ele><time>2026-03-22T08:55:22.242Z</time></trkpt><trkpt lat="40.6141444" lon="9.1757962"><ele>890.6666666666666</ele><time>2026-03-22T08:55:23.242Z</time></trkpt><trkpt lat="40.614147" lon="9.1756947"><ele>891.0</ele><time>2026-03-22T08:55:24.242Z</time></trkpt><trkpt lat="40.6141408" lon="9.1755941"><ele>891.2857142857143</ele><time>2026-03-22T08:55:25.242Z</time></trkpt><trkpt lat="40.6141182" lon="9.1755003"><ele>891.5714285714286</ele><time>2026-03-22T08:55:26.242Z</time></trkpt><trkpt lat="40.6140837" lon="9.1754088"><ele>891.8571428571429</ele><time>2026-03-22T08:55:27.242Z</time></trkpt><trkpt lat="40.6140483" lon="9.1753298"><ele>892.1428571428571</ele><time>2026-03-22T08:55:28.242Z</time></trkpt><trkpt lat="40.6140055" lon="9.1752544"><ele>892.4285714285714</ele><time>2026-03-22T08:55:29.242Z</time></trkpt><trkpt lat="40.6139541" lon="9.175186"><ele>892.7142857142858</ele><time>2026-03-22T08:55:30.242Z</time></trkpt><trkpt lat="40.6138992" lon="9.1751181"><ele>893.0</ele><time>2026-03-22T08:55:31.242Z</time></trkpt><trkpt lat="40.6138394" lon="9.1750512"><ele>893.0000000000001</ele><time>2026-03-22T08:55:32.242Z</time></trkpt><trkpt lat="40.6137763" lon="9.1749924"><ele>893.0</ele><time>2026-03-22T08:55:33.242Z</time></trkpt><trkpt lat="40.6137097" lon="9.1749431"><ele>893.0</ele><time>2026-03-22T08:55:34.242Z</time></trkpt><trkpt lat="40.6136364" lon="9.1748874"><ele>893.0</ele><time>2026-03-22T08:55:35.242Z</time></trkpt><trkpt lat="40.6135697" lon="9.1748293"><ele>893.0000000000001</ele><time>2026-03-22T08:55:36.243Z</time></trkpt><trkpt lat="40.6135099" lon="9.1747636"><ele>893.0</ele><time>2026-03-22T08:55:37.242Z</time></trkpt><trkpt lat="40.6134469" lon="9.1746968"><ele>892.8333333333334</ele><time>2026-03-22T08:55:38.242Z</time></trkpt><trkpt lat="40.613393" lon="9.1746267"><ele>892.6666666666667</ele><time>2026-03-22T08:55:39.242Z</time></trkpt><trkpt lat="40.6133354" lon="9.1745606"><ele>892.5</ele><time>2026-03-22T08:55:40.242Z</time></trkpt><trkpt lat="40.613277" lon="9.174501"><ele>892.3333333333333</ele><time>2026-03-22T08:55:41.242Z</time></trkpt><trkpt lat="40.6132172" lon="9.1744388"><ele>892.1666666666666</ele><time>2026-03-22T08:55:42.242Z</time></trkpt><trkpt lat="40.6131528" lon="9.1743765"><ele>892.0</ele><time>2026-03-22T08:55:43.242Z</time></trkpt><trkpt lat="40.6130896" lon="9.1743138"><ele>892.0</ele><time>2026-03-22T08:55:44.242Z</time></trkpt><trkpt lat="40.6130219" lon="9.1742526"><ele>892.0</ele><time>2026-03-22T08:55:45.242Z</time></trkpt><trkpt lat="40.6129172" lon="9.1741705"><ele>892.0</ele><time>2026-03-22T08:55:47.242Z</time></trkpt><trkpt lat="40.6128152" lon="9.1740901"><ele>892.0</ele><time>2026-03-22T08:55:49.242Z</time></trkpt><trkpt lat="40.6126683" lon="9.1739776"><ele>893.6</ele><time>2026-03-22T08:55:52.242Z</time></trkpt><trkpt lat="40.6125652" lon="9.17391"><ele>895.2</ele><time>2026-03-22T08:55:54.242Z</time></trkpt><trkpt lat="40.612473" lon="9.1738615"><ele>896.8</ele><time>2026-03-22T08:55:56.242Z</time></trkpt><trkpt lat="40.6123877" lon="9.1737798"><ele>898.4</ele><time>2026-03-22T08:55:58.242Z</time></trkpt><trkpt lat="40.6123192" lon="9.1736857"><ele>900.0</ele><time>2026-03-22T08:56:00.242Z</time></trkpt><trkpt lat="40.6122706" lon="9.1735868"><ele>900.0</ele><time>2026-03-22T08:56:02.242Z</time></trkpt><trkpt lat="40.6122636" lon="9.173489"><ele>900.0</ele><time>2026-03-22T08:56:04.242Z</time></trkpt><trkpt lat="40.6123181" lon="9.173382"><ele>900.0</ele><time>2026-03-22T08:56:07.242Z</time></trkpt><trkpt lat="40.6124149" lon="9.1733543"><ele>900.0</ele><time>2026-03-22T08:56:08.242Z</time></trkpt><trkpt lat="40.6124781" lon="9.1733239"><ele>900.0</ele><time>2026-03-22T08:56:09.242Z</time></trkpt><trkpt lat="40.6126701" lon="9.1732008"><ele>900.75</ele><time>2026-03-22T08:56:12.242Z</time></trkpt><trkpt lat="40.6128062" lon="9.1731097"><ele>901.5</ele><time>2026-03-22T08:56:14.242Z</time></trkpt><trkpt lat="40.6129446" lon="9.1730313"><ele>902.25</ele><time>2026-03-22T08:56:16.242Z</time></trkpt><trkpt lat="40.6130753" lon="9.1729655"><ele>903.0</ele><time>2026-03-22T08:56:18.242Z</time></trkpt><trkpt lat="40.6131462" lon="9.1729241"><ele>903.0</ele><time>2026-03-22T08:56:19.242Z</time></trkpt><trkpt lat="40.6132152" lon="9.1728754"><ele>903.0</ele><time>2026-03-22T08:56:20.242Z</time></trkpt><trkpt lat="40.6132842" lon="9.1728099"><ele>903.0</ele><time>2026-03-22T08:56:21.242Z</time></trkpt><trkpt lat="40.6134151" lon="9.1726947"><ele>903.0</ele><time>2026-03-22T08:56:23.242Z</time></trkpt><trkpt lat="40.6135439" lon="9.172543"><ele>901.0</ele><time>2026-03-22T08:56:25.242Z</time></trkpt><trkpt lat="40.6136614" lon="9.1723572"><ele>899.0</ele><time>2026-03-22T08:56:27.242Z</time></trkpt><trkpt lat="40.6137689" lon="9.1721311"><ele>897.0</ele><time>2026-03-22T08:56:29.242Z</time></trkpt><trkpt lat="40.6138583" lon="9.1719096"><ele>897.0</ele><time>2026-03-22T08:56:31.242Z</time></trkpt><trkpt lat="40.6138961" lon="9.1717958"><ele>897.0</ele><time>2026-03-22T08:56:32.242Z</time></trkpt><trkpt lat="40.6139361" lon="9.1716904"><ele>897.0</ele><time>2026-03-22T08:56:33.242Z</time></trkpt><trkpt lat="40.6139708" lon="9.1715822"><ele>897.0</ele><time>2026-03-22T08:56:34.242Z</time></trkpt><trkpt lat="40.6140278" lon="9.1713848"><ele>897.0</ele><time>2026-03-22T08:56:36.242Z</time></trkpt><trkpt lat="40.6140872" lon="9.1712121"><ele>897.0</ele><time>2026-03-22T08:56:38.242Z</time></trkpt><trkpt lat="40.6141389" lon="9.1710486"><ele>897.0</ele><time>2026-03-22T08:56:40.242Z</time></trkpt><trkpt lat="40.6141662" lon="9.1709678"><ele>897.0</ele><time>2026-03-22T08:56:41.242Z</time></trkpt><trkpt lat="40.6141965" lon="9.1708926"><ele>897.0</ele><time>2026-03-22T08:56:42.242Z</time></trkpt><trkpt lat="40.6142251" lon="9.1708068"><ele>897.0</ele><time>2026-03-22T08:56:43.242Z</time></trkpt><trkpt lat="40.6142557" lon="9.1707286"><ele>897.0</ele><time>2026-03-22T08:56:44.242Z</time></trkpt><trkpt lat="40.6142874" lon="9.1706312"><ele>897.25</ele><time>2026-03-22T08:56:45.242Z</time></trkpt><trkpt lat="40.6143241" lon="9.1705346"><ele>897.5</ele><time>2026-03-22T08:56:46.242Z</time></trkpt><trkpt lat="40.6143981" lon="9.1703668"><ele>897.75</ele><time>2026-03-22T08:56:48.242Z</time></trkpt><trkpt lat="40.6144683" lon="9.1701766"><ele>898.0</ele><time>2026-03-22T08:56:50.242Z</time></trkpt><trkpt lat="40.6145032" lon="9.170087"><ele>895.75</ele><time>2026-03-22T08:56:51.242Z</time></trkpt><trkpt lat="40.6145622" lon="9.1699138"><ele>893.5</ele><time>2026-03-22T08:56:53.242Z</time></trkpt><trkpt lat="40.6146139" lon="9.1697343"><ele>891.25</ele><time>2026-03-22T08:56:55.242Z</time></trkpt><trkpt lat="40.6146579" lon="9.169559"><ele>889.0</ele><time>2026-03-22T08:56:57.242Z</time></trkpt><trkpt lat="40.6147033" lon="9.1694074"><ele>888.9999999999999</ele><time>2026-03-22T08:56:59.242Z</time></trkpt><trkpt lat="40.6147378" lon="9.1692948"><ele>889.0</ele><time>2026-03-22T08:57:01.242Z</time></trkpt><trkpt lat="40.6147585" lon="9.1692037"><ele>889.0</ele><time>2026-03-22T08:57:04.242Z</time></trkpt><trkpt lat="40.6147266" lon="9.1691293"><ele>889.0</ele><time>2026-03-22T08:58:04.239Z</time></trkpt><trkpt lat="40.6146768" lon="9.1690691"><ele>888.9999999999999</ele><time>2026-03-22T08:58:09.239Z</time></trkpt><trkpt lat="40.6146061" lon="9.169069"><ele>889.0</ele><time>2026-03-22T08:58:12.239Z</time></trkpt><trkpt lat="40.6144598" lon="9.1692156"><ele>891.0</ele><time>2026-03-22T08:58:13.239Z</time></trkpt><trkpt lat="40.6143798" lon="9.1693016"><ele>893.0000000000001</ele><time>2026-03-22T08:58:15.239Z</time></trkpt><trkpt lat="40.6142917" lon="9.1693804"><ele>895.0000000000001</ele><time>2026-03-22T08:58:17.239Z</time></trkpt><trkpt lat="40.6142434" lon="9.1694394"><ele>897.0</ele><time>2026-03-22T08:58:18.239Z</time></trkpt><trkpt lat="40.6141605" lon="9.1695406"><ele>899.0</ele><time>2026-03-22T08:58:20.239Z</time></trkpt><trkpt lat="40.6140628" lon="9.1696974"><ele>899.0</ele><time>2026-03-22T08:58:23.239Z</time></trkpt><trkpt lat="40.6140072" lon="9.1698188"><ele>899.0</ele><time>2026-03-22T08:58:25.239Z</time></trkpt><trkpt lat="40.6139151" lon="9.1700287"><ele>899.0</ele><time>2026-03-22T08:58:28.239Z</time></trkpt><trkpt lat="40.6138548" lon="9.1701901"><ele>899.0</ele><time>2026-03-22T08:58:30.239Z</time></trkpt><trkpt lat="40.6137866" lon="9.1703393"><ele>898.75</ele><time>2026-03-22T08:58:32.239Z</time></trkpt><trkpt lat="40.6137197" lon="9.1704763"><ele>898.5</ele><time>2026-03-22T08:58:34.239Z</time></trkpt><trkpt lat="40.613636" lon="9.1706066"><ele>898.25</ele><time>2026-03-22T08:58:36.239Z</time></trkpt><trkpt lat="40.6135341" lon="9.1707629"><ele>898.0</ele><time>2026-03-22T08:58:38.239Z</time></trkpt><trkpt lat="40.6134838" lon="9.1708482"><ele>902.0</ele><time>2026-03-22T08:58:39.239Z</time></trkpt><trkpt lat="40.613429" lon="9.1709329"><ele>906.0</ele><time>2026-03-22T08:58:40.239Z</time></trkpt><trkpt lat="40.6133765" lon="9.171026"><ele>910.0</ele><time>2026-03-22T08:58:41.239Z</time></trkpt><trkpt lat="40.6132701" lon="9.171197"><ele>914.0</ele><time>2026-03-22T08:58:43.239Z</time></trkpt><trkpt lat="40.6131756" lon="9.1713596"><ele>914.0</ele><time>2026-03-22T08:58:45.239Z</time></trkpt><trkpt lat="40.6131295" lon="9.1714305"><ele>914.0</ele><time>2026-03-22T08:58:46.239Z</time></trkpt><trkpt lat="40.6130346" lon="9.1715741"><ele>914.0</ele><time>2026-03-22T08:58:48.239Z</time></trkpt><trkpt lat="40.6129281" lon="9.1717304"><ele>914.0</ele><time>2026-03-22T08:58:50.239Z</time></trkpt><trkpt lat="40.6128263" lon="9.1718741"><ele>914.8000000000001</ele><time>2026-03-22T08:58:52.239Z</time></trkpt><trkpt lat="40.6127738" lon="9.1719439"><ele>915.6000000000001</ele><time>2026-03-22T08:58:53.239Z</time></trkpt><trkpt lat="40.6127201" lon="9.1720157"><ele>916.4</ele><time>2026-03-22T08:58:54.239Z</time></trkpt><trkpt lat="40.6126064" lon="9.172162"><ele>917.2</ele><time>2026-03-22T08:58:56.239Z</time></trkpt><trkpt lat="40.6125143" lon="9.1722761"><ele>918.0</ele><time>2026-03-22T08:58:58.239Z</time></trkpt><trkpt lat="40.6123814" lon="9.1724146"><ele>918.0</ele><time>2026-03-22T08:59:01.239Z</time></trkpt><trkpt lat="40.6122975" lon="9.1724928"><ele>918.0</ele><time>2026-03-22T08:59:03.239Z</time></trkpt><trkpt lat="40.6121378" lon="9.1725755"><ele>918.0</ele><time>2026-03-22T08:59:06.239Z</time></trkpt><trkpt lat="40.6119438" lon="9.1726078"><ele>922.75</ele><time>2026-03-22T08:59:09.239Z</time></trkpt><trkpt lat="40.6118749" lon="9.1726099"><ele>927.5</ele><time>2026-03-22T08:59:10.239Z</time></trkpt><trkpt lat="40.6117317" lon="9.1726086"><ele>932.25</ele><time>2026-03-22T08:59:12.239Z</time></trkpt><trkpt lat="40.6115782" lon="9.1726095"><ele>937.0</ele><time>2026-03-22T08:59:14.239Z</time></trkpt><trkpt lat="40.6114263" lon="9.1726149"><ele>937.0</ele><time>2026-03-22T08:59:16.239Z</time></trkpt><trkpt lat="40.611278" lon="9.1726251"><ele>937.0</ele><time>2026-03-22T08:59:18.239Z</time></trkpt><trkpt lat="40.6111597" lon="9.1726207"><ele>937.0</ele><time>2026-03-22T08:59:20.239Z</time></trkpt><trkpt lat="40.6109741" lon="9.1726509"><ele>940.0</ele><time>2026-03-22T08:59:23.239Z</time></trkpt><trkpt lat="40.6108577" lon="9.1726715"><ele>943.0</ele><time>2026-03-22T08:59:25.239Z</time></trkpt><trkpt lat="40.6107935" lon="9.1726773"><ele>946.0</ele><time>2026-03-22T08:59:26.239Z</time></trkpt><trkpt lat="40.6106644" lon="9.1726936"><ele>949.0</ele><time>2026-03-22T08:59:28.239Z</time></trkpt><trkpt lat="40.6105922" lon="9.1727013"><ele>952.0</ele><time>2026-03-22T08:59:29.239Z</time></trkpt><trkpt lat="40.6105185" lon="9.1727106"><ele>952.0</ele><time>2026-03-22T08:59:30.239Z</time></trkpt><trkpt lat="40.6103595" lon="9.1727419"><ele>952.0</ele><time>2026-03-22T08:59:32.239Z</time></trkpt><trkpt lat="40.6102191" lon="9.1727644"><ele>952.0</ele><time>2026-03-22T08:59:34.239Z</time></trkpt><trkpt lat="40.6100864" lon="9.1727732"><ele>952.0</ele><time>2026-03-22T08:59:36.239Z</time></trkpt><trkpt lat="40.6099264" lon="9.1728087"><ele>956.5</ele><time>2026-03-22T08:59:38.239Z</time></trkpt><trkpt lat="40.6097969" lon="9.1728263"><ele>961.0</ele><time>2026-03-22T08:59:40.239Z</time></trkpt><trkpt lat="40.6096738" lon="9.1728612"><ele>965.5</ele><time>2026-03-22T08:59:42.239Z</time></trkpt><trkpt lat="40.6095594" lon="9.1728977"><ele>970.0</ele><time>2026-03-22T08:59:44.239Z</time></trkpt><trkpt lat="40.6094312" lon="9.1729299"><ele>973.6</ele><time>2026-03-22T08:59:46.239Z</time></trkpt><trkpt lat="40.6093584" lon="9.17295"><ele>977.2</ele><time>2026-03-22T08:59:47.239Z</time></trkpt><trkpt lat="40.6092861" lon="9.1729702"><ele>980.8</ele><time>2026-03-22T08:59:48.239Z</time></trkpt><trkpt lat="40.6091592" lon="9.1730031"><ele>984.4</ele><time>2026-03-22T08:59:50.239Z</time></trkpt><trkpt lat="40.6090245" lon="9.1730478"><ele>988.0</ele><time>2026-03-22T08:59:52.239Z</time></trkpt><trkpt lat="40.6088881" lon="9.1731251"><ele>987.25</ele><time>2026-03-22T08:59:54.239Z</time></trkpt><trkpt lat="40.6087631" lon="9.1731954"><ele>986.5</ele><time>2026-03-22T08:59:56.239Z</time></trkpt><trkpt lat="40.6086525" lon="9.1732633"><ele>985.75</ele><time>2026-03-22T08:59:58.239Z</time></trkpt><trkpt lat="40.6085397" lon="9.1733606"><ele>985.0</ele><time>2026-03-22T09:00:00.239Z</time></trkpt><trkpt lat="40.6084533" lon="9.1734699"><ele>985.0</ele><time>2026-03-22T09:00:02.239Z</time></trkpt><trkpt lat="40.608421" lon="9.1736002"><ele>985.0</ele><time>2026-03-22T09:00:04.239Z</time></trkpt><trkpt lat="40.6084447" lon="9.1737644"><ele>985.0</ele><time>2026-03-22T09:00:06.239Z</time></trkpt><trkpt lat="40.6084683" lon="9.1738629"><ele>985.0</ele><time>2026-03-22T09:00:07.239Z</time></trkpt><trkpt lat="40.6084863" lon="9.1739729"><ele>985.0</ele><time>2026-03-22T09:00:08.239Z</time></trkpt><trkpt lat="40.6085054" lon="9.1740829"><ele>984.6666666666666</ele><time>2026-03-22T09:00:09.239Z</time></trkpt><trkpt lat="40.6085262" lon="9.1741882"><ele>984.3333333333333</ele><time>2026-03-22T09:00:10.239Z</time></trkpt><trkpt lat="40.6085627" lon="9.1742866"><ele>984.0</ele><time>2026-03-22T09:00:11.239Z</time></trkpt><trkpt lat="40.6086038" lon="9.1743888"><ele>983.6666666666667</ele><time>2026-03-22T09:00:12.239Z</time></trkpt><trkpt lat="40.6086524" lon="9.1744879"><ele>983.3333333333334</ele><time>2026-03-22T09:00:13.239Z</time></trkpt><trkpt lat="40.6087054" lon="9.1745866"><ele>983.0</ele><time>2026-03-22T09:00:14.239Z</time></trkpt><trkpt lat="40.6087642" lon="9.1746927"><ele>982.0000000000001</ele><time>2026-03-22T09:00:15.239Z</time></trkpt><trkpt lat="40.6088063" lon="9.1747851"><ele>981.0</ele><time>2026-03-22T09:00:16.239Z</time></trkpt><trkpt lat="40.6088539" lon="9.1748656"><ele>980.0</ele><time>2026-03-22T09:00:17.239Z</time></trkpt><trkpt lat="40.608896" lon="9.1749453"><ele>979.0</ele><time>2026-03-22T09:00:18.239Z</time></trkpt><trkpt lat="40.6089409" lon="9.1750194"><ele>978.0000000000001</ele><time>2026-03-22T09:00:19.239Z</time></trkpt><trkpt lat="40.6090124" lon="9.1751622"><ele>977.0</ele><time>2026-03-22T09:00:21.239Z</time></trkpt><trkpt lat="40.6090365" lon="9.1752929"><ele>977.0000000000001</ele><time>2026-03-22T09:00:23.239Z</time></trkpt><trkpt lat="40.6090267" lon="9.1753851"><ele>977.0</ele><time>2026-03-22T09:00:25.239Z</time></trkpt><trkpt lat="40.6089722" lon="9.1754655"><ele>977.0</ele><time>2026-03-22T09:00:29.239Z</time></trkpt><trkpt lat="40.6089129" lon="9.175509"><ele>977.0</ele><time>2026-03-22T09:00:31.239Z</time></trkpt><trkpt lat="40.6088253" lon="9.175532"><ele>977.0000000000001</ele><time>2026-03-22T09:00:34.239Z</time></trkpt><trkpt lat="40.6087293" lon="9.1755152"><ele>977.0</ele><time>2026-03-22T09:00:36.239Z</time></trkpt><trkpt lat="40.6086194" lon="9.1754641"><ele>980.25</ele><time>2026-03-22T09:00:38.239Z</time></trkpt><trkpt lat="40.6085059" lon="9.1754076"><ele>983.5</ele><time>2026-03-22T09:00:40.239Z</time></trkpt><trkpt lat="40.6083929" lon="9.1753354"><ele>986.75</ele><time>2026-03-22T09:00:42.239Z</time></trkpt><trkpt lat="40.6082826" lon="9.1752533"><ele>990.0</ele><time>2026-03-22T09:00:44.239Z</time></trkpt><trkpt lat="40.6081785" lon="9.1751593"><ele>990.0</ele><time>2026-03-22T09:00:46.239Z</time></trkpt><trkpt lat="40.6080891" lon="9.1750683"><ele>990.0</ele><time>2026-03-22T09:00:48.239Z</time></trkpt><trkpt lat="40.6080101" lon="9.1749704"><ele>990.0</ele><time>2026-03-22T09:00:50.239Z</time></trkpt><trkpt lat="40.6079412" lon="9.1748506"><ele>990.0</ele><time>2026-03-22T09:00:52.239Z</time></trkpt><trkpt lat="40.6078846" lon="9.1747032"><ele>988.6</ele><time>2026-03-22T09:00:54.239Z</time></trkpt><trkpt lat="40.6078602" lon="9.1746263"><ele>987.2</ele><time>2026-03-22T09:00:55.239Z</time></trkpt><trkpt lat="40.6078291" lon="9.1744635"><ele>985.8</ele><time>2026-03-22T09:00:57.239Z</time></trkpt><trkpt lat="40.607813" lon="9.1743749"><ele>984.4</ele><time>2026-03-22T09:00:58.239Z</time></trkpt><trkpt lat="40.6077821" lon="9.1741929"><ele>983.0</ele><time>2026-03-22T09:01:00.239Z</time></trkpt><trkpt lat="40.6077593" lon="9.17401"><ele>989.0</ele><time>2026-03-22T09:01:02.239Z</time></trkpt><trkpt lat="40.6077351" lon="9.1738299"><ele>995.0</ele><time>2026-03-22T09:01:04.239Z</time></trkpt><trkpt lat="40.607711" lon="9.1736661"><ele>1001.0</ele><time>2026-03-22T09:01:06.239Z</time></trkpt><trkpt lat="40.6076919" lon="9.1735279"><ele>1007.0</ele><time>2026-03-22T09:01:08.239Z</time></trkpt><trkpt lat="40.6076683" lon="9.1734074"><ele>1007.0</ele><time>2026-03-22T09:01:10.239Z</time></trkpt><trkpt lat="40.6076475" lon="9.1733029"><ele>1007.0</ele><time>2026-03-22T09:01:12.239Z</time></trkpt><trkpt lat="40.6075976" lon="9.1732071"><ele>1007.0</ele><time>2026-03-22T09:01:15.239Z</time></trkpt><trkpt lat="40.6075339" lon="9.1733139"><ele>1007.0</ele><time>2026-03-22T09:01:19.239Z</time></trkpt><trkpt lat="40.6075004" lon="9.1735238"><ele>1007.0</ele><time>2026-03-22T09:01:22.239Z</time></trkpt><trkpt lat="40.6074582" lon="9.1736662"><ele>1007.0</ele><time>2026-03-22T09:01:24.239Z</time></trkpt><trkpt lat="40.6074072" lon="9.1738106"><ele>1007.0</ele><time>2026-03-22T09:01:26.239Z</time></trkpt><trkpt lat="40.6073463" lon="9.1739887"><ele>1007.0</ele><time>2026-03-22T09:01:28.239Z</time></trkpt><trkpt lat="40.607274" lon="9.174166"><ele>1007.0</ele><time>2026-03-22T09:01:30.239Z</time></trkpt><trkpt lat="40.6072097" lon="9.1743453"><ele>1006.6</ele><time>2026-03-22T09:01:32.239Z</time></trkpt><trkpt lat="40.6071589" lon="9.1744872"><ele>1006.2</ele><time>2026-03-22T09:01:34.239Z</time></trkpt><trkpt lat="40.6071004" lon="9.1746022"><ele>1005.8</ele><time>2026-03-22T09:01:36.239Z</time></trkpt><trkpt lat="40.6070449" lon="9.174694"><ele>1005.4</ele><time>2026-03-22T09:01:38.239Z</time></trkpt><trkpt lat="40.6069951" lon="9.1747595"><ele>1005.0</ele><time>2026-03-22T09:01:40.239Z</time></trkpt><trkpt lat="40.6069183" lon="9.1747649"><ele>1009.75</ele><time>2026-03-22T09:01:43.239Z</time></trkpt><trkpt lat="40.6068597" lon="9.1744283"><ele>1014.5</ele><time>2026-03-22T09:01:49.239Z</time></trkpt><trkpt lat="40.6068495" lon="9.1743371"><ele>1019.25</ele><time>2026-03-22T09:01:50.239Z</time></trkpt><trkpt lat="40.6068327" lon="9.1742373"><ele>1024.0</ele><time>2026-03-22T09:01:51.239Z</time></trkpt><trkpt lat="40.6068035" lon="9.174068"><ele>1023.9999999999999</ele><time>2026-03-22T09:01:53.239Z</time></trkpt><trkpt lat="40.6067856" lon="9.1739868"><ele>1024.0</ele><time>2026-03-22T09:01:54.239Z</time></trkpt><trkpt lat="40.606762" lon="9.1739096"><ele>1024.0</ele><time>2026-03-22T09:01:55.239Z</time></trkpt><trkpt lat="40.6067171" lon="9.173773"><ele>1024.0</ele><time>2026-03-22T09:01:57.239Z</time></trkpt><trkpt lat="40.6066793" lon="9.1736472"><ele>1023.9999999999999</ele><time>2026-03-22T09:01:59.239Z</time></trkpt><trkpt lat="40.6066501" lon="9.1735266"><ele>1024.0</ele><time>2026-03-22T09:02:01.239Z</time></trkpt><trkpt lat="40.6066397" lon="9.1733886"><ele>1023.9999999999999</ele><time>2026-03-22T09:02:03.239Z</time></trkpt><trkpt lat="40.6066512" lon="9.1732533"><ele>1024.0</ele><time>2026-03-22T09:02:05.239Z</time></trkpt><trkpt lat="40.6066432" lon="9.1731574"><ele>1024.0</ele><time>2026-03-22T09:02:07.239Z</time></trkpt><trkpt lat="40.6065738" lon="9.1731007"><ele>1024.0</ele><time>2026-03-22T09:02:10.239Z</time></trkpt><trkpt lat="40.6065121" lon="9.1731242"><ele>1023.9999999999999</ele><time>2026-03-22T09:02:45.239Z</time></trkpt><trkpt lat="40.6064475" lon="9.173132"><ele>1024.0</ele><time>2026-03-22T09:02:52.239Z</time></trkpt><trkpt lat="40.6063869" lon="9.1731725"><ele>1024.0</ele><time>2026-03-22T09:02:59.238Z</time></trkpt><trkpt lat="40.6063317" lon="9.1732278"><ele>1023.9999999999999</ele><time>2026-03-22T09:03:09.24Z</time></trkpt><trkpt lat="40.606272" lon="9.1732548"><ele>1024.0</ele><time>2026-03-22T09:03:15.269Z</time></trkpt><trkpt lat="40.6062155" lon="9.1733011"><ele>1024.0</ele><time>2026-03-22T09:03:21.275Z</time></trkpt><trkpt lat="40.6061645" lon="9.1733666"><ele>1023.9999999999999</ele><time>2026-03-22T09:03:28.248Z</time></trkpt><trkpt lat="40.6060982" lon="9.1733751"><ele>1024.0</ele><time>2026-03-22T09:03:33.248Z</time></trkpt><trkpt lat="40.6060304" lon="9.1734071"><ele>1024.0</ele><time>2026-03-22T09:03:39.248Z</time></trkpt><trkpt lat="40.6059798" lon="9.173457"><ele>1024.0</ele><time>2026-03-22T09:03:46.242Z</time></trkpt><trkpt lat="40.6060222" lon="9.173378"><ele>1023.9999999999999</ele><time>2026-03-22T09:03:57.242Z</time></trkpt><trkpt lat="40.6060767" lon="9.1733324"><ele>1024.0</ele><time>2026-03-22T09:04:02.248Z</time></trkpt><trkpt lat="40.6061456" lon="9.1733134"><ele>1024.0</ele><time>2026-03-22T09:04:07.248Z</time></trkpt><trkpt lat="40.6062175" lon="9.1732912"><ele>1023.9999999999999</ele><time>2026-03-22T09:04:13.242Z</time></trkpt><trkpt lat="40.6062808" lon="9.1732588"><ele>1024.0</ele><time>2026-03-22T09:04:19.242Z</time></trkpt><trkpt lat="40.6063426" lon="9.1732093"><ele>1024.0</ele><time>2026-03-22T09:04:26.161Z</time></trkpt><trkpt lat="40.6064077" lon="9.1731784"><ele>1025.7142857142858</ele><time>2026-03-22T09:04:33.248Z</time></trkpt><trkpt lat="40.6064701" lon="9.1731353"><ele>1027.4285714285713</ele><time>2026-03-22T09:04:40.248Z</time></trkpt><trkpt lat="40.6065268" lon="9.1730941"><ele>1029.142857142857</ele><time>2026-03-22T09:04:51.302Z</time></trkpt><trkpt lat="40.6065963" lon="9.1731105"><ele>1030.857142857143</ele><time>2026-03-22T09:04:58.253Z</time></trkpt><trkpt lat="40.6065252" lon="9.1731301"><ele>1032.5714285714284</ele><time>2026-03-22T09:06:08.242Z</time></trkpt><trkpt lat="40.6064624" lon="9.1731145"><ele>1034.2857142857142</ele><time>2026-03-22T09:06:16.242Z</time></trkpt><trkpt lat="40.606394" lon="9.173126"><ele>1036.0</ele><time>2026-03-22T09:06:23.242Z</time></trkpt><trkpt lat="40.6063417" lon="9.1731728"><ele>1036.0</ele><time>2026-03-22T09:06:30.242Z</time></trkpt><trkpt lat="40.6064124" lon="9.173169"><ele>1036.0</ele><time>2026-03-22T09:06:54.242Z</time></trkpt><trkpt lat="40.606476" lon="9.1731437"><ele>1036.0</ele><time>2026-03-22T09:07:02.242Z</time></trkpt><trkpt lat="40.6065447" lon="9.1731319"><ele>1036.0</ele><time>2026-03-22T09:07:13.248Z</time></trkpt><trkpt lat="40.6064728" lon="9.1731222"><ele>1036.0</ele><time>2026-03-22T09:11:16.239Z</time></trkpt><trkpt lat="40.6064146" lon="9.1731567"><ele>1036.0</ele><time>2026-03-22T09:11:18.239Z</time></trkpt><trkpt lat="40.6063568" lon="9.1731908"><ele>1036.0</ele><time>2026-03-22T09:11:20.239Z</time></trkpt><trkpt lat="40.6062738" lon="9.1732483"><ele>1034.0</ele><time>2026-03-22T09:11:23.239Z</time></trkpt><trkpt lat="40.6061922" lon="9.1732865"><ele>1032.0</ele><time>2026-03-22T09:11:26.239Z</time></trkpt><trkpt lat="40.606108" lon="9.1733083"><ele>1030.0</ele><time>2026-03-22T09:11:29.239Z</time></trkpt><trkpt lat="40.6059999" lon="9.1733301"><ele>1028.0</ele><time>2026-03-22T09:11:33.239Z</time></trkpt><trkpt lat="40.6059253" lon="9.1733598"><ele>1026.0</ele><time>2026-03-22T09:11:36.239Z</time></trkpt><trkpt lat="40.6058753" lon="9.1734324"><ele>1024.0</ele><time>2026-03-22T09:11:39.239Z</time></trkpt><trkpt lat="40.6058241" lon="9.1734934"><ele>1022.9999999999999</ele><time>2026-03-22T09:11:41.239Z</time></trkpt><trkpt lat="40.6057767" lon="9.17361"><ele>1022.0</ele><time>2026-03-22T09:11:44.239Z</time></trkpt><trkpt lat="40.6057353" lon="9.1736961"><ele>1021.0</ele><time>2026-03-22T09:11:46.239Z</time></trkpt><trkpt lat="40.6056907" lon="9.173792"><ele>1020.0</ele><time>2026-03-22T09:11:48.239Z</time></trkpt><trkpt lat="40.6056732" lon="9.1738884"><ele>1018.9999999999999</ele><time>2026-03-22T09:11:49.239Z</time></trkpt><trkpt lat="40.6056551" lon="9.1739785"><ele>1018.0</ele><time>2026-03-22T09:11:50.239Z</time></trkpt><trkpt lat="40.6056011" lon="9.1741372"><ele>1017.9999999999999</ele><time>2026-03-22T09:11:52.239Z</time></trkpt><trkpt lat="40.6055381" lon="9.1742243"><ele>1018.0</ele><time>2026-03-22T09:11:54.239Z</time></trkpt><trkpt lat="40.6054716" lon="9.1743128"><ele>1018.0</ele><time>2026-03-22T09:11:56.239Z</time></trkpt><trkpt lat="40.6054057" lon="9.1743984"><ele>1018.0</ele><time>2026-03-22T09:11:58.239Z</time></trkpt><trkpt lat="40.6053481" lon="9.1744756"><ele>1017.9999999999999</ele><time>2026-03-22T09:12:00.239Z</time></trkpt><trkpt lat="40.6052836" lon="9.1745505"><ele>1018.0</ele><time>2026-03-22T09:12:03.239Z</time></trkpt><trkpt lat="40.6052415" lon="9.1746207"><ele>1015.2</ele><time>2026-03-22T09:12:05.239Z</time></trkpt><trkpt lat="40.6051883" lon="9.1746915"><ele>1012.4</ele><time>2026-03-22T09:12:07.239Z</time></trkpt><trkpt lat="40.6051275" lon="9.1747547"><ele>1009.6000000000001</ele><time>2026-03-22T09:12:09.239Z</time></trkpt><trkpt lat="40.605058" lon="9.1748175"><ele>1006.8000000000001</ele><time>2026-03-22T09:12:11.239Z</time></trkpt><trkpt lat="40.6049296" lon="9.1748554"><ele>1004.0</ele><time>2026-03-22T09:12:13.239Z</time></trkpt><trkpt lat="40.6048506" lon="9.1749244"><ele>1004.0</ele><time>2026-03-22T09:12:15.239Z</time></trkpt><trkpt lat="40.604761" lon="9.1750074"><ele>1004.0000000000001</ele><time>2026-03-22T09:12:17.239Z</time></trkpt><trkpt lat="40.6046785" lon="9.1750876"><ele>1004.0000000000001</ele><time>2026-03-22T09:12:19.239Z</time></trkpt><trkpt lat="40.6046128" lon="9.1751568"><ele>1004.0</ele><time>2026-03-22T09:12:21.239Z</time></trkpt><trkpt lat="40.6045632" lon="9.1752438"><ele>1004.0</ele><time>2026-03-22T09:12:23.239Z</time></trkpt><trkpt lat="40.6045145" lon="9.1753625"><ele>999.75</ele><time>2026-03-22T09:12:25.239Z</time></trkpt><trkpt lat="40.6044553" lon="9.1754934"><ele>995.5</ele><time>2026-03-22T09:12:27.239Z</time></trkpt><trkpt lat="40.6044144" lon="9.175624"><ele>991.25</ele><time>2026-03-22T09:12:29.239Z</time></trkpt><trkpt lat="40.6043743" lon="9.1757713"><ele>987.0</ele><time>2026-03-22T09:12:31.239Z</time></trkpt><trkpt lat="40.6043482" lon="9.1759833"><ele>987.0</ele><time>2026-03-22T09:12:34.239Z</time></trkpt><trkpt lat="40.604329" lon="9.1761186"><ele>987.0</ele><time>2026-03-22T09:12:36.239Z</time></trkpt><trkpt lat="40.6042888" lon="9.1762587"><ele>987.0</ele><time>2026-03-22T09:12:38.239Z</time></trkpt><trkpt lat="40.6042695" lon="9.1764067"><ele>987.0</ele><time>2026-03-22T09:12:40.239Z</time></trkpt><trkpt lat="40.6042595" lon="9.1765647"><ele>986.5</ele><time>2026-03-22T09:12:42.239Z</time></trkpt><trkpt lat="40.6042626" lon="9.1767285"><ele>986.0</ele><time>2026-03-22T09:12:44.239Z</time></trkpt><trkpt lat="40.6042461" lon="9.1768886"><ele>985.5</ele><time>2026-03-22T09:12:46.239Z</time></trkpt><trkpt lat="40.6042338" lon="9.1770506"><ele>985.0</ele><time>2026-03-22T09:12:48.239Z</time></trkpt><trkpt lat="40.6042273" lon="9.177213"><ele>985.0</ele><time>2026-03-22T09:12:50.239Z</time></trkpt><trkpt lat="40.6042284" lon="9.1773791"><ele>985.0</ele><time>2026-03-22T09:12:52.239Z</time></trkpt><trkpt lat="40.6042214" lon="9.177548"><ele>985.0</ele><time>2026-03-22T09:12:54.239Z</time></trkpt><trkpt lat="40.6042115" lon="9.1777134"><ele>985.0</ele><time>2026-03-22T09:12:56.239Z</time></trkpt><trkpt lat="40.604204" lon="9.1778772"><ele>985.0</ele><time>2026-03-22T09:12:58.239Z</time></trkpt><trkpt lat="40.6042035" lon="9.1779629"><ele>985.0</ele><time>2026-03-22T09:12:59.239Z</time></trkpt><trkpt lat="40.6041981" lon="9.1780514"><ele>985.0</ele><time>2026-03-22T09:13:00.239Z</time></trkpt><trkpt lat="40.604184" lon="9.1781349"><ele>985.0</ele><time>2026-03-22T09:13:01.239Z</time></trkpt><trkpt lat="40.6041373" lon="9.178275"><ele>985.0</ele><time>2026-03-22T09:13:03.239Z</time></trkpt><trkpt lat="40.6040694" lon="9.1784817"><ele>985.8</ele><time>2026-03-22T09:13:06.239Z</time></trkpt><trkpt lat="40.60401" lon="9.1786119"><ele>986.6</ele><time>2026-03-22T09:13:08.239Z</time></trkpt><trkpt lat="40.603918" lon="9.1787569"><ele>987.4000000000001</ele><time>2026-03-22T09:13:11.239Z</time></trkpt><trkpt lat="40.6038432" lon="9.1787999"><ele>988.2</ele><time>2026-03-22T09:13:24.239Z</time></trkpt><trkpt lat="40.6038322" lon="9.1787172"><ele>989.0</ele><time>2026-03-22T09:13:32.239Z</time></trkpt><trkpt lat="40.6038253" lon="9.1788195"><ele>989.0</ele><time>2026-03-22T09:14:33.237Z</time></trkpt><trkpt lat="40.6038583" lon="9.1789072"><ele>989.0000000000001</ele><time>2026-03-22T09:14:36.237Z</time></trkpt><trkpt lat="40.6038266" lon="9.1790219"><ele>989.0000000000001</ele><time>2026-03-22T09:14:39.237Z</time></trkpt><trkpt lat="40.6037682" lon="9.1791037"><ele>989.0</ele><time>2026-03-22T09:14:41.237Z</time></trkpt><trkpt lat="40.6036404" lon="9.1791808"><ele>989.0</ele><time>2026-03-22T09:14:43.237Z</time></trkpt><trkpt lat="40.6035748" lon="9.1792703"><ele>988.0</ele><time>2026-03-22T09:14:45.237Z</time></trkpt><trkpt lat="40.6035076" lon="9.1793743"><ele>987.0</ele><time>2026-03-22T09:14:47.237Z</time></trkpt><trkpt lat="40.6034355" lon="9.1794747"><ele>986.0</ele><time>2026-03-22T09:14:49.237Z</time></trkpt><trkpt lat="40.6033257" lon="9.1796105"><ele>985.0</ele><time>2026-03-22T09:14:52.237Z</time></trkpt><trkpt lat="40.6032405" lon="9.1796963"><ele>985.0</ele><time>2026-03-22T09:14:54.237Z</time></trkpt><trkpt lat="40.6031468" lon="9.179741"><ele>985.0</ele><time>2026-03-22T09:14:56.237Z</time></trkpt><trkpt lat="40.6029957" lon="9.179806"><ele>985.0</ele><time>2026-03-22T09:14:59.237Z</time></trkpt><trkpt lat="40.6028978" lon="9.1798898"><ele>985.0</ele><time>2026-03-22T09:15:01.237Z</time></trkpt><trkpt lat="40.6028179" lon="9.1799836"><ele>984.8</ele><time>2026-03-22T09:15:03.237Z</time></trkpt><trkpt lat="40.6027454" lon="9.1801069"><ele>984.6</ele><time>2026-03-22T09:15:05.237Z</time></trkpt><trkpt lat="40.6027058" lon="9.18024"><ele>984.4000000000001</ele><time>2026-03-22T09:15:07.237Z</time></trkpt><trkpt lat="40.6027073" lon="9.1803733"><ele>984.2</ele><time>2026-03-22T09:15:09.237Z</time></trkpt><trkpt lat="40.6027553" lon="9.1804931"><ele>984.0</ele><time>2026-03-22T09:15:11.237Z</time></trkpt><trkpt lat="40.6028859" lon="9.1806349"><ele>984.0</ele><time>2026-03-22T09:15:14.237Z</time></trkpt><trkpt lat="40.6029743" lon="9.1807194"><ele>984.0000000000001</ele><time>2026-03-22T09:15:16.237Z</time></trkpt><trkpt lat="40.6030643" lon="9.1808183"><ele>984.0000000000001</ele><time>2026-03-22T09:15:18.237Z</time></trkpt><trkpt lat="40.6031067" lon="9.1808832"><ele>984.0</ele><time>2026-03-22T09:15:19.237Z</time></trkpt><trkpt lat="40.6031555" lon="9.1810138"><ele>984.0</ele><time>2026-03-22T09:15:21.237Z</time></trkpt><trkpt lat="40.6031379" lon="9.181151"><ele>984.0</ele><time>2026-03-22T09:15:23.237Z</time></trkpt><trkpt lat="40.6030904" lon="9.1813504"><ele>984.0</ele><time>2026-03-22T09:15:26.237Z</time></trkpt><trkpt lat="40.6030832" lon="9.1814936"><ele>984.0</ele><time>2026-03-22T09:15:28.237Z</time></trkpt><trkpt lat="40.6031006" lon="9.1816482"><ele>984.0</ele><time>2026-03-22T09:15:30.237Z</time></trkpt><trkpt lat="40.6031468" lon="9.181812"><ele>983.75</ele><time>2026-03-22T09:15:32.237Z</time></trkpt><trkpt lat="40.6031727" lon="9.1818896"><ele>983.5</ele><time>2026-03-22T09:15:33.237Z</time></trkpt><trkpt lat="40.6032468" lon="9.1821184"><ele>983.25</ele><time>2026-03-22T09:15:36.237Z</time></trkpt><trkpt lat="40.6033563" lon="9.1823281"><ele>983.0</ele><time>2026-03-22T09:15:39.237Z</time></trkpt><trkpt lat="40.6034437" lon="9.182445"><ele>982.5</ele><time>2026-03-22T09:15:41.237Z</time></trkpt><trkpt lat="40.6035188" lon="9.182534"><ele>982.0</ele><time>2026-03-22T09:15:43.237Z</time></trkpt><trkpt lat="40.6035764" lon="9.1826564"><ele>981.5</ele><time>2026-03-22T09:15:45.237Z</time></trkpt><trkpt lat="40.6036161" lon="9.1828701"><ele>981.0</ele><time>2026-03-22T09:15:48.237Z</time></trkpt><trkpt lat="40.6036273" lon="9.1830012"><ele>981.0</ele><time>2026-03-22T09:15:50.237Z</time></trkpt><trkpt lat="40.6036478" lon="9.1831483"><ele>981.0</ele><time>2026-03-22T09:15:52.237Z</time></trkpt><trkpt lat="40.6036675" lon="9.1833135"><ele>981.0</ele><time>2026-03-22T09:15:54.237Z</time></trkpt><trkpt lat="40.6036866" lon="9.1834719"><ele>981.0</ele><time>2026-03-22T09:15:56.237Z</time></trkpt><trkpt lat="40.6037126" lon="9.1836396"><ele>980.4</ele><time>2026-03-22T09:15:58.237Z</time></trkpt><trkpt lat="40.6037375" lon="9.183814"><ele>979.8</ele><time>2026-03-22T09:16:00.237Z</time></trkpt><trkpt lat="40.6037444" lon="9.1838985"><ele>979.1999999999999</ele><time>2026-03-22T09:16:01.237Z</time></trkpt><trkpt lat="40.6037541" lon="9.1839887"><ele>978.5999999999999</ele><time>2026-03-22T09:16:02.237Z</time></trkpt><trkpt lat="40.603776" lon="9.1841451"><ele>978.0</ele><time>2026-03-22T09:16:04.237Z</time></trkpt><trkpt lat="40.6038362" lon="9.1842736"><ele>978.0</ele><time>2026-03-22T09:16:06.237Z</time></trkpt><trkpt lat="40.6039106" lon="9.1843944"><ele>978.0</ele><time>2026-03-22T09:16:08.237Z</time></trkpt><trkpt lat="40.6039598" lon="9.1845124"><ele>978.0</ele><time>2026-03-22T09:16:10.237Z</time></trkpt><trkpt lat="40.6039777" lon="9.1846109"><ele>978.0</ele><time>2026-03-22T09:16:12.237Z</time></trkpt><trkpt lat="40.6039965" lon="9.1846905"><ele>978.0</ele><time>2026-03-22T09:16:16.237Z</time></trkpt><trkpt lat="40.6040507" lon="9.1847634"><ele>978.0</ele><time>2026-03-22T09:17:00.24Z</time></trkpt><trkpt lat="40.6040844" lon="9.1848542"><ele>978.0</ele><time>2026-03-22T09:17:04.24Z</time></trkpt><trkpt lat="40.6040316" lon="9.1849069"><ele>978.0</ele><time>2026-03-22T09:17:09.24Z</time></trkpt><trkpt lat="40.6039167" lon="9.1848938"><ele>978.0</ele><time>2026-03-22T09:17:13.24Z</time></trkpt><trkpt lat="40.6038453" lon="9.184856"><ele>978.0</ele><time>2026-03-22T09:17:15.24Z</time></trkpt><trkpt lat="40.6037752" lon="9.1847895"><ele>978.0</ele><time>2026-03-22T09:17:17.24Z</time></trkpt><trkpt lat="40.6036046" lon="9.184697"><ele>976.4</ele><time>2026-03-22T09:17:19.24Z</time></trkpt><trkpt lat="40.6035542" lon="9.1845818"><ele>974.8</ele><time>2026-03-22T09:17:21.24Z</time></trkpt><trkpt lat="40.6035117" lon="9.1844797"><ele>973.2</ele><time>2026-03-22T09:17:23.24Z</time></trkpt><trkpt lat="40.6034573" lon="9.1843787"><ele>971.6</ele><time>2026-03-22T09:17:25.24Z</time></trkpt><trkpt lat="40.603409" lon="9.1842704"><ele>970.0</ele><time>2026-03-22T09:17:27.24Z</time></trkpt><trkpt lat="40.603346" lon="9.1841447"><ele>970.0</ele><time>2026-03-22T09:17:29.24Z</time></trkpt><trkpt lat="40.6033068" lon="9.1840797"><ele>970.0</ele><time>2026-03-22T09:17:30.24Z</time></trkpt><trkpt lat="40.6031908" lon="9.1838988"><ele>970.0</ele><time>2026-03-22T09:17:33.24Z</time></trkpt><trkpt lat="40.6030659" lon="9.1837315"><ele>970.0</ele><time>2026-03-22T09:17:36.24Z</time></trkpt><trkpt lat="40.6029813" lon="9.1836331"><ele>971.5</ele><time>2026-03-22T09:17:38.24Z</time></trkpt><trkpt lat="40.6028784" lon="9.1835672"><ele>973.0</ele><time>2026-03-22T09:17:40.24Z</time></trkpt><trkpt lat="40.6027604" lon="9.1835409"><ele>974.5</ele><time>2026-03-22T09:17:42.24Z</time></trkpt><trkpt lat="40.6026344" lon="9.1835332"><ele>976.0</ele><time>2026-03-22T09:17:44.24Z</time></trkpt><trkpt lat="40.6025161" lon="9.1835208"><ele>973.5999999999999</ele><time>2026-03-22T09:17:46.24Z</time></trkpt><trkpt lat="40.6024518" lon="9.1835195"><ele>971.1999999999999</ele><time>2026-03-22T09:17:47.24Z</time></trkpt><trkpt lat="40.6023316" lon="9.1834878"><ele>968.8000000000001</ele><time>2026-03-22T09:17:49.24Z</time></trkpt><trkpt lat="40.6022129" lon="9.1834339"><ele>966.4000000000001</ele><time>2026-03-22T09:17:51.24Z</time></trkpt><trkpt lat="40.6021187" lon="9.1833617"><ele>964.0</ele><time>2026-03-22T09:17:53.24Z</time></trkpt><trkpt lat="40.6020215" lon="9.1832936"><ele>961.9999999999999</ele><time>2026-03-22T09:17:55.24Z</time></trkpt><trkpt lat="40.6019478" lon="9.1832154"><ele>960.0</ele><time>2026-03-22T09:17:57.24Z</time></trkpt><trkpt lat="40.6018734" lon="9.1830749"><ele>958.0</ele><time>2026-03-22T09:17:59.24Z</time></trkpt><trkpt lat="40.601836" lon="9.1830003"><ele>956.0</ele><time>2026-03-22T09:18:00.24Z</time></trkpt><trkpt lat="40.6018019" lon="9.1829066"><ele>953.9999999999999</ele><time>2026-03-22T09:18:01.24Z</time></trkpt><trkpt lat="40.601771" lon="9.1828181"><ele>952.0</ele><time>2026-03-22T09:18:02.24Z</time></trkpt><trkpt lat="40.6017414" lon="9.1827352"><ele>951.9999999999999</ele><time>2026-03-22T09:18:03.24Z</time></trkpt><trkpt lat="40.6017008" lon="9.1826555"><ele>952.0</ele><time>2026-03-22T09:18:04.24Z</time></trkpt><trkpt lat="40.6016592" lon="9.1825774"><ele>952.0</ele><time>2026-03-22T09:18:05.24Z</time></trkpt><trkpt lat="40.6016235" lon="9.1825074"><ele>952.0</ele><time>2026-03-22T09:18:06.24Z</time></trkpt><trkpt lat="40.6015911" lon="9.1824359"><ele>951.9999999999999</ele><time>2026-03-22T09:18:07.24Z</time></trkpt><trkpt lat="40.6015294" lon="9.1822996"><ele>952.0</ele><time>2026-03-22T09:18:09.24Z</time></trkpt><trkpt lat="40.6014691" lon="9.1821618"><ele>953.6</ele><time>2026-03-22T09:18:11.24Z</time></trkpt><trkpt lat="40.6014369" lon="9.1820879"><ele>955.2</ele><time>2026-03-22T09:18:12.24Z</time></trkpt><trkpt lat="40.6013974" lon="9.1819739"><ele>956.8</ele><time>2026-03-22T09:18:14.24Z</time></trkpt><trkpt lat="40.6013436" lon="9.1818892"><ele>958.4</ele><time>2026-03-22T09:18:16.24Z</time></trkpt><trkpt lat="40.6012618" lon="9.181869"><ele>960.0</ele><time>2026-03-22T09:18:18.24Z</time></trkpt><trkpt lat="40.6011903" lon="9.1820189"><ele>960.0</ele><time>2026-03-22T09:18:21.24Z</time></trkpt><trkpt lat="40.6011932" lon="9.1821026"><ele>960.0</ele><time>2026-03-22T09:18:22.24Z</time></trkpt><trkpt lat="40.6011991" lon="9.1822633"><ele>960.0</ele><time>2026-03-22T09:18:24.24Z</time></trkpt><trkpt lat="40.6012108" lon="9.182401"><ele>960.0</ele><time>2026-03-22T09:18:26.24Z</time></trkpt><trkpt lat="40.6012204" lon="9.1825312"><ele>960.0</ele><time>2026-03-22T09:18:28.24Z</time></trkpt><trkpt lat="40.6011899" lon="9.1826376"><ele>953.8</ele><time>2026-03-22T09:18:30.24Z</time></trkpt><trkpt lat="40.6011163" lon="9.182713"><ele>947.6</ele><time>2026-03-22T09:18:32.24Z</time></trkpt><trkpt lat="40.601034" lon="9.1827254"><ele>941.4000000000001</ele><time>2026-03-22T09:18:34.24Z</time></trkpt><trkpt lat="40.6009336" lon="9.1826705"><ele>935.2</ele><time>2026-03-22T09:18:36.24Z</time></trkpt><trkpt lat="40.6008596" lon="9.1825847"><ele>929.0</ele><time>2026-03-22T09:18:38.24Z</time></trkpt><trkpt lat="40.6007636" lon="9.182495"><ele>929.0000000000001</ele><time>2026-03-22T09:18:40.24Z</time></trkpt><trkpt lat="40.6006744" lon="9.1824275"><ele>929.0</ele><time>2026-03-22T09:18:42.24Z</time></trkpt><trkpt lat="40.6005659" lon="9.1823953"><ele>929.0</ele><time>2026-03-22T09:18:44.24Z</time></trkpt><trkpt lat="40.6005014" lon="9.1823831"><ele>929.0</ele><time>2026-03-22T09:18:45.24Z</time></trkpt><trkpt lat="40.6004359" lon="9.1823661"><ele>929.0000000000001</ele><time>2026-03-22T09:18:46.24Z</time></trkpt><trkpt lat="40.600368" lon="9.1823586"><ele>929.0</ele><time>2026-03-22T09:18:47.24Z</time></trkpt><trkpt lat="40.6003027" lon="9.1823533"><ele>926.1666666666667</ele><time>2026-03-22T09:18:48.24Z</time></trkpt><trkpt lat="40.6002354" lon="9.1823458"><ele>923.3333333333334</ele><time>2026-03-22T09:18:49.24Z</time></trkpt><trkpt lat="40.6001629" lon="9.182338"><ele>920.5</ele><time>2026-03-22T09:18:50.24Z</time></trkpt><trkpt lat="40.6000854" lon="9.1823303"><ele>917.6666666666667</ele><time>2026-03-22T09:18:51.24Z</time></trkpt><trkpt lat="40.5999962" lon="9.1823268"><ele>914.8333333333334</ele><time>2026-03-22T09:18:52.24Z</time></trkpt><trkpt lat="40.5999112" lon="9.1823112"><ele>912.0</ele><time>2026-03-22T09:18:53.24Z</time></trkpt><trkpt lat="40.5998329" lon="9.1823091"><ele>912.0</ele><time>2026-03-22T09:18:54.24Z</time></trkpt><trkpt lat="40.5997388" lon="9.182316"><ele>912.0</ele><time>2026-03-22T09:18:55.24Z</time></trkpt><trkpt lat="40.5996555" lon="9.1823151"><ele>912.0</ele><time>2026-03-22T09:18:56.24Z</time></trkpt><trkpt lat="40.5995692" lon="9.1823187"><ele>912.0</ele><time>2026-03-22T09:18:57.24Z</time></trkpt><trkpt lat="40.5994846" lon="9.1823207"><ele>912.0</ele><time>2026-03-22T09:18:58.24Z</time></trkpt><trkpt lat="40.5994024" lon="9.1823204"><ele>912.0</ele><time>2026-03-22T09:18:59.24Z</time></trkpt><trkpt lat="40.5993236" lon="9.1823011"><ele>910.6666666666666</ele><time>2026-03-22T09:19:00.24Z</time></trkpt><trkpt lat="40.5992466" lon="9.1822857"><ele>909.3333333333333</ele><time>2026-03-22T09:19:01.24Z</time></trkpt><trkpt lat="40.5991569" lon="9.1822721"><ele>908.0</ele><time>2026-03-22T09:19:02.24Z</time></trkpt><trkpt lat="40.5990693" lon="9.1822549"><ele>906.6666666666666</ele><time>2026-03-22T09:19:03.24Z</time></trkpt><trkpt lat="40.5989859" lon="9.1822411"><ele>905.3333333333333</ele><time>2026-03-22T09:19:04.24Z</time></trkpt><trkpt lat="40.598906" lon="9.18222"><ele>904.0</ele><time>2026-03-22T09:19:05.24Z</time></trkpt><trkpt lat="40.598834" lon="9.1821947"><ele>903.9999999999999</ele><time>2026-03-22T09:19:06.24Z</time></trkpt><trkpt lat="40.5987608" lon="9.182189"><ele>904.0</ele><time>2026-03-22T09:19:07.24Z</time></trkpt><trkpt lat="40.5986861" lon="9.182171"><ele>904.0</ele><time>2026-03-22T09:19:08.24Z</time></trkpt><trkpt lat="40.5986049" lon="9.1821462"><ele>904.0</ele><time>2026-03-22T09:19:09.24Z</time></trkpt><trkpt lat="40.5985301" lon="9.1821245"><ele>903.9999999999999</ele><time>2026-03-22T09:19:10.24Z</time></trkpt><trkpt lat="40.5984501" lon="9.1820912"><ele>904.0</ele><time>2026-03-22T09:19:11.24Z</time></trkpt><trkpt lat="40.5983808" lon="9.1820582"><ele>903.8333333333333</ele><time>2026-03-22T09:19:12.24Z</time></trkpt><trkpt lat="40.5983091" lon="9.1820123"><ele>903.6666666666666</ele><time>2026-03-22T09:19:13.24Z</time></trkpt><trkpt lat="40.5982469" lon="9.1819686"><ele>903.5</ele><time>2026-03-22T09:19:14.24Z</time></trkpt><trkpt lat="40.5981415" lon="9.1818873"><ele>903.3333333333333</ele><time>2026-03-22T09:19:16.24Z</time></trkpt><trkpt lat="40.5981009" lon="9.1817943"><ele>903.1666666666666</ele><time>2026-03-22T09:19:18.24Z</time></trkpt><trkpt lat="40.5980778" lon="9.1816722"><ele>903.0</ele><time>2026-03-22T09:19:20.24Z</time></trkpt><trkpt lat="40.5980925" lon="9.1815483"><ele>901.0</ele><time>2026-03-22T09:19:22.24Z</time></trkpt><trkpt lat="40.5981547" lon="9.1814394"><ele>899.0</ele><time>2026-03-22T09:19:24.24Z</time></trkpt><trkpt lat="40.5981981" lon="9.181379"><ele>897.0</ele><time>2026-03-22T09:19:25.24Z</time></trkpt><trkpt lat="40.598302" lon="9.1812965"><ele>895.0</ele><time>2026-03-22T09:19:27.24Z</time></trkpt><trkpt lat="40.598368" lon="9.1812508"><ele>893.0</ele><time>2026-03-22T09:19:28.24Z</time></trkpt><trkpt lat="40.5984393" lon="9.1812016"><ele>891.0</ele><time>2026-03-22T09:19:29.24Z</time></trkpt><trkpt lat="40.598512" lon="9.1811621"><ele>891.0</ele><time>2026-03-22T09:19:30.24Z</time></trkpt><trkpt lat="40.598594" lon="9.1811333"><ele>890.9999999999999</ele><time>2026-03-22T09:19:31.24Z</time></trkpt><trkpt lat="40.5986778" lon="9.1810961"><ele>890.9999999999999</ele><time>2026-03-22T09:19:32.24Z</time></trkpt><trkpt lat="40.598777" lon="9.1810502"><ele>891.0</ele><time>2026-03-22T09:19:33.24Z</time></trkpt><trkpt lat="40.5988764" lon="9.1810091"><ele>891.0</ele><time>2026-03-22T09:19:34.24Z</time></trkpt><trkpt lat="40.5989622" lon="9.1809665"><ele>891.5</ele><time>2026-03-22T09:19:35.24Z</time></trkpt><trkpt lat="40.5990374" lon="9.1809333"><ele>892.0</ele><time>2026-03-22T09:19:36.24Z</time></trkpt><trkpt lat="40.599114" lon="9.1809101"><ele>892.5</ele><time>2026-03-22T09:19:37.24Z</time></trkpt><trkpt lat="40.5991871" lon="9.18088"><ele>893.0</ele><time>2026-03-22T09:19:38.24Z</time></trkpt><trkpt lat="40.5992587" lon="9.1808415"><ele>893.5</ele><time>2026-03-22T09:19:39.24Z</time></trkpt><trkpt lat="40.5993286" lon="9.1807929"><ele>894.0</ele><time>2026-03-22T09:19:40.24Z</time></trkpt><trkpt lat="40.5993956" lon="9.1807425"><ele>895.8333333333334</ele><time>2026-03-22T09:19:41.24Z</time></trkpt><trkpt lat="40.59946" lon="9.1806793"><ele>897.6666666666667</ele><time>2026-03-22T09:19:42.24Z</time></trkpt><trkpt lat="40.5995059" lon="9.1806192"><ele>899.5</ele><time>2026-03-22T09:19:43.24Z</time></trkpt><trkpt lat="40.5995493" lon="9.1805521"><ele>901.3333333333334</ele><time>2026-03-22T09:19:44.24Z</time></trkpt><trkpt lat="40.5996079" lon="9.1804085"><ele>903.1666666666667</ele><time>2026-03-22T09:19:46.24Z</time></trkpt><trkpt lat="40.5996196" lon="9.180327"><ele>905.0</ele><time>2026-03-22T09:19:47.24Z</time></trkpt><trkpt lat="40.5996323" lon="9.1802301"><ele>905.0000000000001</ele><time>2026-03-22T09:19:48.24Z</time></trkpt><trkpt lat="40.599645" lon="9.1801351"><ele>905.0</ele><time>2026-03-22T09:19:49.24Z</time></trkpt><trkpt lat="40.5996471" lon="9.1800414"><ele>905.0</ele><time>2026-03-22T09:19:50.24Z</time></trkpt><trkpt lat="40.5996422" lon="9.1799265"><ele>905.0</ele><time>2026-03-22T09:19:51.24Z</time></trkpt><trkpt lat="40.5996403" lon="9.1798236"><ele>905.0000000000001</ele><time>2026-03-22T09:19:52.24Z</time></trkpt><trkpt lat="40.5996333" lon="9.179713"><ele>905.0</ele><time>2026-03-22T09:19:53.24Z</time></trkpt><trkpt lat="40.5996229" lon="9.1796119"><ele>905.4285714285713</ele><time>2026-03-22T09:19:54.24Z</time></trkpt><trkpt lat="40.5996156" lon="9.1795097"><ele>905.8571428571428</ele><time>2026-03-22T09:19:55.24Z</time></trkpt><trkpt lat="40.5995997" lon="9.1794186"><ele>906.2857142857142</ele><time>2026-03-22T09:19:56.24Z</time></trkpt><trkpt lat="40.5995838" lon="9.1793315"><ele>906.7142857142858</ele><time>2026-03-22T09:19:57.24Z</time></trkpt><trkpt lat="40.5995659" lon="9.1792445"><ele>907.1428571428572</ele><time>2026-03-22T09:19:58.24Z</time></trkpt><trkpt lat="40.5995436" lon="9.1791594"><ele>907.5714285714287</ele><time>2026-03-22T09:19:59.24Z</time></trkpt><trkpt lat="40.599526" lon="9.1790795"><ele>908.0</ele><time>2026-03-22T09:20:00.24Z</time></trkpt><trkpt lat="40.5995079" lon="9.1789885"><ele>902.5714285714287</ele><time>2026-03-22T09:20:01.24Z</time></trkpt><trkpt lat="40.5994854" lon="9.1789019"><ele>897.1428571428572</ele><time>2026-03-22T09:20:02.24Z</time></trkpt><trkpt lat="40.5994622" lon="9.1788209"><ele>891.7142857142858</ele><time>2026-03-22T09:20:03.24Z</time></trkpt><trkpt lat="40.5994379" lon="9.1787366"><ele>886.2857142857143</ele><time>2026-03-22T09:20:04.24Z</time></trkpt><trkpt lat="40.5994085" lon="9.1786528"><ele>880.8571428571429</ele><time>2026-03-22T09:20:05.24Z</time></trkpt><trkpt lat="40.5993731" lon="9.1785693"><ele>875.4285714285716</ele><time>2026-03-22T09:20:06.24Z</time></trkpt><trkpt lat="40.5993399" lon="9.1784893"><ele>870.0</ele><time>2026-03-22T09:20:07.24Z</time></trkpt><trkpt lat="40.599308" lon="9.1784047"><ele>870.0000000000001</ele><time>2026-03-22T09:20:08.24Z</time></trkpt><trkpt lat="40.5992749" lon="9.1783158"><ele>870.0</ele><time>2026-03-22T09:20:09.24Z</time></trkpt><trkpt lat="40.59924" lon="9.1782313"><ele>870.0</ele><time>2026-03-22T09:20:10.24Z</time></trkpt><trkpt lat="40.5992008" lon="9.178158"><ele>870.0</ele><time>2026-03-22T09:20:11.24Z</time></trkpt><trkpt lat="40.5991614" lon="9.1780922"><ele>870.0</ele><time>2026-03-22T09:20:12.24Z</time></trkpt><trkpt lat="40.5991184" lon="9.1780314"><ele>870.0000000000001</ele><time>2026-03-22T09:20:13.24Z</time></trkpt><trkpt lat="40.5990704" lon="9.1779735"><ele>870.0</ele><time>2026-03-22T09:20:14.24Z</time></trkpt><trkpt lat="40.5990211" lon="9.1779203"><ele>871.7142857142858</ele><time>2026-03-22T09:20:15.24Z</time></trkpt><trkpt lat="40.598968" lon="9.1778688"><ele>873.4285714285714</ele><time>2026-03-22T09:20:16.24Z</time></trkpt><trkpt lat="40.5989112" lon="9.1778306"><ele>875.1428571428571</ele><time>2026-03-22T09:20:17.24Z</time></trkpt><trkpt lat="40.5988438" lon="9.1777624"><ele>876.8571428571429</ele><time>2026-03-22T09:20:18.24Z</time></trkpt><trkpt lat="40.5987825" lon="9.1777019"><ele>878.5714285714286</ele><time>2026-03-22T09:20:19.24Z</time></trkpt><trkpt lat="40.5987169" lon="9.1776456"><ele>880.2857142857143</ele><time>2026-03-22T09:20:20.24Z</time></trkpt><trkpt lat="40.5986501" lon="9.1775922"><ele>882.0</ele><time>2026-03-22T09:20:21.24Z</time></trkpt><trkpt lat="40.5985832" lon="9.1775508"><ele>880.0</ele><time>2026-03-22T09:20:22.24Z</time></trkpt><trkpt lat="40.5985062" lon="9.1774952"><ele>878.0</ele><time>2026-03-22T09:20:23.24Z</time></trkpt><trkpt lat="40.5984402" lon="9.1774333"><ele>876.0</ele><time>2026-03-22T09:20:24.24Z</time></trkpt><trkpt lat="40.5983715" lon="9.177365"><ele>874.0</ele><time>2026-03-22T09:20:25.24Z</time></trkpt><trkpt lat="40.5983067" lon="9.1773004"><ele>872.0</ele><time>2026-03-22T09:20:26.24Z</time></trkpt><trkpt lat="40.5982447" lon="9.1772295"><ele>870.0</ele><time>2026-03-22T09:20:27.24Z</time></trkpt><trkpt lat="40.5981893" lon="9.1771589"><ele>870.0</ele><time>2026-03-22T09:20:28.24Z</time></trkpt><trkpt lat="40.5981246" lon="9.1770941"><ele>870.0</ele><time>2026-03-22T09:20:29.24Z</time></trkpt><trkpt lat="40.5980597" lon="9.1770214"><ele>870.0</ele><time>2026-03-22T09:20:30.24Z</time></trkpt><trkpt lat="40.5979986" lon="9.1769445"><ele>870.0</ele><time>2026-03-22T09:20:31.24Z</time></trkpt><trkpt lat="40.597941" lon="9.1768616"><ele>870.0</ele><time>2026-03-22T09:20:32.24Z</time></trkpt><trkpt lat="40.5978794" lon="9.176785"><ele>870.0</ele><time>2026-03-22T09:20:33.24Z</time></trkpt><trkpt lat="40.59782" lon="9.1767134"><ele>867.1666666666666</ele><time>2026-03-22T09:20:34.24Z</time></trkpt><trkpt lat="40.5977595" lon="9.1766383"><ele>864.3333333333333</ele><time>2026-03-22T09:20:35.24Z</time></trkpt><trkpt lat="40.5977058" lon="9.1765609"><ele>861.5</ele><time>2026-03-22T09:20:36.24Z</time></trkpt><trkpt lat="40.5976514" lon="9.1764829"><ele>858.6666666666666</ele><time>2026-03-22T09:20:37.24Z</time></trkpt><trkpt lat="40.5975959" lon="9.1764"><ele>855.8333333333333</ele><time>2026-03-22T09:20:38.24Z</time></trkpt><trkpt lat="40.5975319" lon="9.1763344"><ele>853.0</ele><time>2026-03-22T09:20:39.24Z</time></trkpt><trkpt lat="40.5974789" lon="9.1762562"><ele>852.9999999999999</ele><time>2026-03-22T09:20:40.24Z</time></trkpt><trkpt lat="40.5974264" lon="9.1761835"><ele>853.0</ele><time>2026-03-22T09:20:41.24Z</time></trkpt><trkpt lat="40.5973708" lon="9.1761103"><ele>853.0</ele><time>2026-03-22T09:20:42.24Z</time></trkpt><trkpt lat="40.5973121" lon="9.1760439"><ele>853.0</ele><time>2026-03-22T09:20:43.24Z</time></trkpt><trkpt lat="40.5972532" lon="9.1759765"><ele>852.9999999999999</ele><time>2026-03-22T09:20:44.24Z</time></trkpt><trkpt lat="40.5971956" lon="9.1759137"><ele>853.0</ele><time>2026-03-22T09:20:45.24Z</time></trkpt><trkpt lat="40.5971313" lon="9.1758659"><ele>853.0</ele><time>2026-03-22T09:20:46.24Z</time></trkpt><trkpt lat="40.5970693" lon="9.17582"><ele>853.0</ele><time>2026-03-22T09:20:47.24Z</time></trkpt><trkpt lat="40.5970052" lon="9.1757836"><ele>853.0</ele><time>2026-03-22T09:20:48.24Z</time></trkpt><trkpt lat="40.5969353" lon="9.1757441"><ele>853.0</ele><time>2026-03-22T09:20:49.24Z</time></trkpt><trkpt lat="40.5968707" lon="9.1757056"><ele>853.0</ele><time>2026-03-22T09:20:50.24Z</time></trkpt><trkpt lat="40.5968031" lon="9.1756642"><ele>853.0</ele><time>2026-03-22T09:20:51.24Z</time></trkpt><trkpt lat="40.5967348" lon="9.1756266"><ele>853.0</ele><time>2026-03-22T09:20:52.24Z</time></trkpt><trkpt lat="40.5966645" lon="9.1755892"><ele>851.6666666666666</ele><time>2026-03-22T09:20:53.24Z</time></trkpt><trkpt lat="40.5966014" lon="9.1755701"><ele>850.3333333333333</ele><time>2026-03-22T09:20:54.24Z</time></trkpt><trkpt lat="40.5965267" lon="9.1755531"><ele>849.0</ele><time>2026-03-22T09:20:55.24Z</time></trkpt><trkpt lat="40.596458" lon="9.1755268"><ele>847.6666666666667</ele><time>2026-03-22T09:20:56.24Z</time></trkpt><trkpt lat="40.5963648" lon="9.1755134"><ele>846.3333333333334</ele><time>2026-03-22T09:20:57.24Z</time></trkpt><trkpt lat="40.5962807" lon="9.1754876"><ele>845.0</ele><time>2026-03-22T09:20:58.24Z</time></trkpt><trkpt lat="40.5961944" lon="9.1754705"><ele>843.0000000000001</ele><time>2026-03-22T09:20:59.24Z</time></trkpt><trkpt lat="40.5961023" lon="9.1754629"><ele>841.0</ele><time>2026-03-22T09:21:00.24Z</time></trkpt><trkpt lat="40.5960121" lon="9.1754504"><ele>839.0</ele><time>2026-03-22T09:21:01.24Z</time></trkpt><trkpt lat="40.5959256" lon="9.1754305"><ele>837.0</ele><time>2026-03-22T09:21:02.24Z</time></trkpt><trkpt lat="40.5958422" lon="9.1754128"><ele>835.0000000000001</ele><time>2026-03-22T09:21:03.24Z</time></trkpt><trkpt lat="40.5957571" lon="9.175394"><ele>833.0</ele><time>2026-03-22T09:21:04.24Z</time></trkpt><trkpt lat="40.5956708" lon="9.1753679"><ele>833.0</ele><time>2026-03-22T09:21:05.24Z</time></trkpt><trkpt lat="40.5955097" lon="9.1753221"><ele>833.0</ele><time>2026-03-22T09:21:07.24Z</time></trkpt><trkpt lat="40.5953408" lon="9.1752824"><ele>833.0</ele><time>2026-03-22T09:21:09.24Z</time></trkpt><trkpt lat="40.595168" lon="9.1752451"><ele>829.25</ele><time>2026-03-22T09:21:11.24Z</time></trkpt><trkpt lat="40.5950182" lon="9.1751948"><ele>825.5</ele><time>2026-03-22T09:21:13.24Z</time></trkpt><trkpt lat="40.5948663" lon="9.175124"><ele>821.75</ele><time>2026-03-22T09:21:15.24Z</time></trkpt><trkpt lat="40.5947932" lon="9.1751067"><ele>818.0</ele><time>2026-03-22T09:21:16.24Z</time></trkpt><trkpt lat="40.5946548" lon="9.1750731"><ele>818.0</ele><time>2026-03-22T09:21:18.24Z</time></trkpt><trkpt lat="40.594532" lon="9.1750417"><ele>818.0</ele><time>2026-03-22T09:21:20.24Z</time></trkpt><trkpt lat="40.5943571" lon="9.1749466"><ele>818.0</ele><time>2026-03-22T09:21:23.24Z</time></trkpt><trkpt lat="40.5942245" lon="9.1748789"><ele>816.25</ele><time>2026-03-22T09:21:25.24Z</time></trkpt><trkpt lat="40.5941192" lon="9.174802"><ele>814.5</ele><time>2026-03-22T09:21:27.24Z</time></trkpt><trkpt lat="40.5939577" lon="9.1746964"><ele>812.75</ele><time>2026-03-22T09:21:30.24Z</time></trkpt><trkpt lat="40.5938449" lon="9.174613"><ele>811.0</ele><time>2026-03-22T09:21:32.24Z</time></trkpt><trkpt lat="40.5937929" lon="9.1745541"><ele>810.9999999999999</ele><time>2026-03-22T09:21:33.24Z</time></trkpt><trkpt lat="40.5937422" lon="9.1744861"><ele>811.0</ele><time>2026-03-22T09:21:34.24Z</time></trkpt><trkpt lat="40.5936876" lon="9.1744199"><ele>811.0</ele><time>2026-03-22T09:21:35.24Z</time></trkpt><trkpt lat="40.593639" lon="9.1743467"><ele>811.0</ele><time>2026-03-22T09:21:36.24Z</time></trkpt><trkpt lat="40.593589" lon="9.1742814"><ele>810.9999999999999</ele><time>2026-03-22T09:21:37.24Z</time></trkpt><trkpt lat="40.5935458" lon="9.1742103"><ele>811.0</ele><time>2026-03-22T09:21:38.24Z</time></trkpt><trkpt lat="40.5934737" lon="9.1740822"><ele>804.0</ele><time>2026-03-22T09:21:40.24Z</time></trkpt><trkpt lat="40.593419" lon="9.1739764"><ele>797.0</ele><time>2026-03-22T09:21:42.24Z</time></trkpt><trkpt lat="40.5934008" lon="9.1738796"><ele>790.0</ele><time>2026-03-22T09:21:44.24Z</time></trkpt><trkpt lat="40.5934169" lon="9.1737658"><ele>783.0</ele><time>2026-03-22T09:21:46.24Z</time></trkpt><trkpt lat="40.5934892" lon="9.1735692"><ele>776.0</ele><time>2026-03-22T09:21:49.24Z</time></trkpt><trkpt lat="40.5935625" lon="9.1734569"><ele>776.0</ele><time>2026-03-22T09:21:51.24Z</time></trkpt><trkpt lat="40.5936635" lon="9.1734017"><ele>776.0</ele><time>2026-03-22T09:21:53.24Z</time></trkpt><trkpt lat="40.5937646" lon="9.1733247"><ele>776.0</ele><time>2026-03-22T09:21:55.24Z</time></trkpt><trkpt lat="40.5938606" lon="9.1732774"><ele>776.0</ele><time>2026-03-22T09:21:57.239Z</time></trkpt><trkpt lat="40.5939555" lon="9.1732044"><ele>776.0</ele><time>2026-03-22T09:21:59.241Z</time></trkpt><trkpt lat="40.5940553" lon="9.1731478"><ele>771.75</ele><time>2026-03-22T09:22:01.241Z</time></trkpt><trkpt lat="40.5941573" lon="9.173091"><ele>767.5</ele><time>2026-03-22T09:22:03.238Z</time></trkpt><trkpt lat="40.5942836" lon="9.1730327"><ele>763.25</ele><time>2026-03-22T09:22:05.24Z</time></trkpt><trkpt lat="40.5943531" lon="9.1730155"><ele>759.0</ele><time>2026-03-22T09:22:06.275Z</time></trkpt><trkpt lat="40.5944942" lon="9.17295"><ele>762.25</ele><time>2026-03-22T09:22:08.263Z</time></trkpt><trkpt lat="40.5946198" lon="9.1728795"><ele>765.5</ele><time>2026-03-22T09:22:10.244Z</time></trkpt><trkpt lat="40.5947653" lon="9.1728171"><ele>768.75</ele><time>2026-03-22T09:22:12.244Z</time></trkpt><trkpt lat="40.5949024" lon="9.1727434"><ele>772.0</ele><time>2026-03-22T09:22:14.244Z</time></trkpt><trkpt lat="40.5950335" lon="9.1726681"><ele>772.0</ele><time>2026-03-22T09:22:16.244Z</time></trkpt><trkpt lat="40.5951797" lon="9.1725823"><ele>772.0</ele><time>2026-03-22T09:22:18.244Z</time></trkpt><trkpt lat="40.5953357" lon="9.172481"><ele>772.0</ele><time>2026-03-22T09:22:20.244Z</time></trkpt><trkpt lat="40.5954129" lon="9.1724368"><ele>772.0</ele><time>2026-03-22T09:22:21.244Z</time></trkpt><trkpt lat="40.5954843" lon="9.1724055"><ele>766.75</ele><time>2026-03-22T09:22:22.244Z</time></trkpt><trkpt lat="40.595617" lon="9.1723423"><ele>761.5</ele><time>2026-03-22T09:22:24.244Z</time></trkpt><trkpt lat="40.595691" lon="9.1723217"><ele>756.25</ele><time>2026-03-22T09:22:25.244Z</time></trkpt><trkpt lat="40.5958417" lon="9.1722774"><ele>751.0</ele><time>2026-03-22T09:22:27.244Z</time></trkpt><trkpt lat="40.5960027" lon="9.1722472"><ele>751.0</ele><time>2026-03-22T09:22:29.244Z</time></trkpt><trkpt lat="40.5961575" lon="9.1721436"><ele>751.0</ele><time>2026-03-22T09:22:31.244Z</time></trkpt><trkpt lat="40.596223" lon="9.1721036"><ele>751.0</ele><time>2026-03-22T09:22:32.244Z</time></trkpt><trkpt lat="40.596288" lon="9.1720664"><ele>751.0</ele><time>2026-03-22T09:22:33.244Z</time></trkpt><trkpt lat="40.5963558" lon="9.1720342"><ele>751.0</ele><time>2026-03-22T09:22:34.244Z</time></trkpt><trkpt lat="40.5964261" lon="9.1720023"><ele>753.0</ele><time>2026-03-22T09:22:35.244Z</time></trkpt><trkpt lat="40.5964981" lon="9.1719666"><ele>755.0</ele><time>2026-03-22T09:22:36.244Z</time></trkpt><trkpt lat="40.5966458" lon="9.1719195"><ele>757.0</ele><time>2026-03-22T09:22:38.244Z</time></trkpt><trkpt lat="40.5967299" lon="9.1719067"><ele>759.0</ele><time>2026-03-22T09:22:39.244Z</time></trkpt><trkpt lat="40.5969043" lon="9.171861"><ele>759.75</ele><time>2026-03-22T09:22:41.244Z</time></trkpt><trkpt lat="40.5970731" lon="9.1717948"><ele>760.5</ele><time>2026-03-22T09:22:43.244Z</time></trkpt><trkpt lat="40.5971614" lon="9.1717739"><ele>761.25</ele><time>2026-03-22T09:22:44.244Z</time></trkpt><trkpt lat="40.5972483" lon="9.171754"><ele>762.0</ele><time>2026-03-22T09:22:45.244Z</time></trkpt><trkpt lat="40.5974104" lon="9.1716893"><ele>762.0</ele><time>2026-03-22T09:22:47.244Z</time></trkpt><trkpt lat="40.5975398" lon="9.1716452"><ele>762.0</ele><time>2026-03-22T09:22:49.244Z</time></trkpt><trkpt lat="40.5976459" lon="9.1715962"><ele>762.0</ele><time>2026-03-22T09:22:51.244Z</time></trkpt><trkpt lat="40.5977551" lon="9.171554"><ele>762.0</ele><time>2026-03-22T09:22:53.244Z</time></trkpt><trkpt lat="40.5978867" lon="9.1714785"><ele>761.4000000000001</ele><time>2026-03-22T09:22:55.244Z</time></trkpt><trkpt lat="40.5980014" lon="9.1714166"><ele>760.8000000000001</ele><time>2026-03-22T09:22:57.245Z</time></trkpt><trkpt lat="40.5981168" lon="9.1713724"><ele>760.2</ele><time>2026-03-22T09:22:59.244Z</time></trkpt><trkpt lat="40.5981908" lon="9.1713443"><ele>759.6</ele><time>2026-03-22T09:23:01.244Z</time></trkpt><trkpt lat="40.5982575" lon="9.1712837"><ele>759.0</ele><time>2026-03-22T09:23:03.244Z</time></trkpt><trkpt lat="40.5982404" lon="9.1711697"><ele>759.0</ele><time>2026-03-22T09:23:05.244Z</time></trkpt><trkpt lat="40.5982475" lon="9.1710868"><ele>759.0</ele><time>2026-03-22T09:23:50.244Z</time></trkpt><trkpt lat="40.5981605" lon="9.1710698"><ele>759.0</ele><time>2026-03-22T09:24:41.244Z</time></trkpt><trkpt lat="40.5980658" lon="9.1711357"><ele>759.0</ele><time>2026-03-22T09:24:43.244Z</time></trkpt><trkpt lat="40.597969" lon="9.1711589"><ele>759.0</ele><time>2026-03-22T09:24:45.244Z</time></trkpt><trkpt lat="40.5978253" lon="9.1711734"><ele>756.1666666666666</ele><time>2026-03-22T09:24:48.244Z</time></trkpt><trkpt lat="40.5977222" lon="9.1711612"><ele>753.3333333333334</ele><time>2026-03-22T09:24:50.244Z</time></trkpt><trkpt lat="40.597636" lon="9.1711492"><ele>750.5</ele><time>2026-03-22T09:24:52.244Z</time></trkpt><trkpt lat="40.5975528" lon="9.1711301"><ele>747.6666666666667</ele><time>2026-03-22T09:24:54.244Z</time></trkpt><trkpt lat="40.5974709" lon="9.1710507"><ele>744.8333333333334</ele><time>2026-03-22T09:24:56.244Z</time></trkpt><trkpt lat="40.5974077" lon="9.1710041"><ele>742.0</ele><time>2026-03-22T09:24:58.245Z</time></trkpt><trkpt lat="40.5973527" lon="9.1709341"><ele>742.0</ele><time>2026-03-22T09:25:00.244Z</time></trkpt><trkpt lat="40.5972858" lon="9.1708503"><ele>742.0</ele><time>2026-03-22T09:25:02.244Z</time></trkpt><trkpt lat="40.59723" lon="9.1707915"><ele>742.0</ele><time>2026-03-22T09:25:03.244Z</time></trkpt><trkpt lat="40.5971458" lon="9.1706982"><ele>742.0</ele><time>2026-03-22T09:25:05.244Z</time></trkpt><trkpt lat="40.5970116" lon="9.1706222"><ele>742.0</ele><time>2026-03-22T09:25:08.244Z</time></trkpt><trkpt lat="40.5969132" lon="9.1705736"><ele>738.4000000000001</ele><time>2026-03-22T09:25:10.244Z</time></trkpt><trkpt lat="40.5968253" lon="9.1705417"><ele>734.8000000000001</ele><time>2026-03-22T09:25:12.244Z</time></trkpt><trkpt lat="40.5967255" lon="9.1705088"><ele>731.2</ele><time>2026-03-22T09:25:14.244Z</time></trkpt><trkpt lat="40.5966219" lon="9.1704908"><ele>727.6</ele><time>2026-03-22T09:25:16.244Z</time></trkpt><trkpt lat="40.5965173" lon="9.1704966"><ele>724.0</ele><time>2026-03-22T09:25:18.244Z</time></trkpt><trkpt lat="40.5963584" lon="9.1705346"><ele>724.0</ele><time>2026-03-22T09:25:21.244Z</time></trkpt><trkpt lat="40.5962541" lon="9.1705457"><ele>724.0</ele><time>2026-03-22T09:25:23.244Z</time></trkpt><trkpt lat="40.5961497" lon="9.1705498"><ele>724.0</ele><time>2026-03-22T09:25:25.244Z</time></trkpt><trkpt lat="40.5960392" lon="9.1705544"><ele>724.0</ele><time>2026-03-22T09:25:27.244Z</time></trkpt><trkpt lat="40.5959089" lon="9.170534"><ele>720.6</ele><time>2026-03-22T09:25:29.244Z</time></trkpt><trkpt lat="40.5957711" lon="9.1705296"><ele>717.2</ele><time>2026-03-22T09:25:31.244Z</time></trkpt><trkpt lat="40.5956817" lon="9.170444"><ele>713.8000000000001</ele><time>2026-03-22T09:25:33.244Z</time></trkpt><trkpt lat="40.5955874" lon="9.1703964"><ele>710.4000000000001</ele><time>2026-03-22T09:25:35.244Z</time></trkpt><trkpt lat="40.595499" lon="9.1703815"><ele>707.0</ele><time>2026-03-22T09:25:37.244Z</time></trkpt><trkpt lat="40.5953701" lon="9.1703603"><ele>704.4000000000001</ele><time>2026-03-22T09:25:39.244Z</time></trkpt><trkpt lat="40.5952464" lon="9.1703634"><ele>701.8000000000001</ele><time>2026-03-22T09:25:41.244Z</time></trkpt><trkpt lat="40.5951257" lon="9.1703465"><ele>699.2</ele><time>2026-03-22T09:25:43.244Z</time></trkpt><trkpt lat="40.595006" lon="9.1703443"><ele>696.6</ele><time>2026-03-22T09:25:45.244Z</time></trkpt><trkpt lat="40.5949324" lon="9.170347"><ele>694.0</ele><time>2026-03-22T09:25:46.244Z</time></trkpt><trkpt lat="40.5947961" lon="9.1703588"><ele>694.0</ele><time>2026-03-22T09:25:48.244Z</time></trkpt><trkpt lat="40.5946478" lon="9.1703951"><ele>694.0</ele><time>2026-03-22T09:25:50.244Z</time></trkpt><trkpt lat="40.5945835" lon="9.1704029"><ele>694.0</ele><time>2026-03-22T09:25:51.244Z</time></trkpt><trkpt lat="40.5945092" lon="9.1704209"><ele>694.0</ele><time>2026-03-22T09:25:52.244Z</time></trkpt><trkpt lat="40.5943902" lon="9.1704311"><ele>694.0</ele><time>2026-03-22T09:25:54.244Z</time></trkpt><trkpt lat="40.5942466" lon="9.1704484"><ele>692.25</ele><time>2026-03-22T09:25:56.244Z</time></trkpt><trkpt lat="40.5941348" lon="9.1704739"><ele>690.5</ele><time>2026-03-22T09:25:58.244Z</time></trkpt><trkpt lat="40.594008" lon="9.1704929"><ele>688.75</ele><time>2026-03-22T09:26:00.244Z</time></trkpt><trkpt lat="40.593881" lon="9.1705238"><ele>687.0</ele><time>2026-03-22T09:26:02.244Z</time></trkpt><trkpt lat="40.5937496" lon="9.170559"><ele>683.0</ele><time>2026-03-22T09:26:04.244Z</time></trkpt><trkpt lat="40.5936158" lon="9.170597"><ele>679.0</ele><time>2026-03-22T09:26:06.244Z</time></trkpt><trkpt lat="40.5935026" lon="9.1705985"><ele>675.0</ele><time>2026-03-22T09:26:08.244Z</time></trkpt><trkpt lat="40.5933798" lon="9.1705955"><ele>671.0</ele><time>2026-03-22T09:26:10.244Z</time></trkpt><trkpt lat="40.5932532" lon="9.1705929"><ele>671.0</ele><time>2026-03-22T09:26:12.244Z</time></trkpt><trkpt lat="40.5931881" lon="9.1705851"><ele>671.0</ele><time>2026-03-22T09:26:13.244Z</time></trkpt><trkpt lat="40.593118" lon="9.1705644"><ele>671.0</ele><time>2026-03-22T09:26:14.244Z</time></trkpt><trkpt lat="40.5929948" lon="9.1705341"><ele>671.0</ele><time>2026-03-22T09:26:16.244Z</time></trkpt><trkpt lat="40.5928707" lon="9.1705118"><ele>671.0</ele><time>2026-03-22T09:26:18.244Z</time></trkpt><trkpt lat="40.5927467" lon="9.1704829"><ele>667.5</ele><time>2026-03-22T09:26:20.244Z</time></trkpt><trkpt lat="40.5926391" lon="9.1704458"><ele>664.0</ele><time>2026-03-22T09:26:22.244Z</time></trkpt><trkpt lat="40.5925232" lon="9.1703922"><ele>660.5</ele><time>2026-03-22T09:26:24.244Z</time></trkpt><trkpt lat="40.5924174" lon="9.1703448"><ele>657.0</ele><time>2026-03-22T09:26:26.244Z</time></trkpt><trkpt lat="40.592249" lon="9.1702519"><ele>657.0</ele><time>2026-03-22T09:26:29.244Z</time></trkpt><trkpt lat="40.5921472" lon="9.17022"><ele>657.0</ele><time>2026-03-22T09:26:31.244Z</time></trkpt><trkpt lat="40.5920239" lon="9.1701876"><ele>657.0</ele><time>2026-03-22T09:26:33.244Z</time></trkpt><trkpt lat="40.5919514" lon="9.1701875"><ele>657.0</ele><time>2026-03-22T09:26:34.244Z</time></trkpt><trkpt lat="40.5918802" lon="9.1701895"><ele>657.0</ele><time>2026-03-22T09:26:35.244Z</time></trkpt><trkpt lat="40.591752" lon="9.1701978"><ele>655.25</ele><time>2026-03-22T09:26:37.244Z</time></trkpt><trkpt lat="40.591599" lon="9.170195"><ele>653.5</ele><time>2026-03-22T09:26:39.244Z</time></trkpt><trkpt lat="40.591519" lon="9.1702066"><ele>651.75</ele><time>2026-03-22T09:26:40.244Z</time></trkpt><trkpt lat="40.5913573" lon="9.1702311"><ele>650.0</ele><time>2026-03-22T09:26:42.244Z</time></trkpt><trkpt lat="40.5911958" lon="9.1702481"><ele>647.6666666666666</ele><time>2026-03-22T09:26:44.244Z</time></trkpt><trkpt lat="40.5911239" lon="9.1702574"><ele>645.3333333333333</ele><time>2026-03-22T09:26:45.244Z</time></trkpt><trkpt lat="40.5910453" lon="9.1702585"><ele>643.0</ele><time>2026-03-22T09:26:46.244Z</time></trkpt><trkpt lat="40.5909631" lon="9.1702642"><ele>640.6666666666666</ele><time>2026-03-22T09:26:47.244Z</time></trkpt><trkpt lat="40.5908833" lon="9.1702735"><ele>638.3333333333334</ele><time>2026-03-22T09:26:48.244Z</time></trkpt><trkpt lat="40.5908013" lon="9.170289"><ele>636.0</ele><time>2026-03-22T09:26:49.244Z</time></trkpt><trkpt lat="40.5907208" lon="9.1702979"><ele>636.0</ele><time>2026-03-22T09:26:50.244Z</time></trkpt><trkpt lat="40.5906357" lon="9.1703234"><ele>636.0</ele><time>2026-03-22T09:26:51.244Z</time></trkpt><trkpt lat="40.5905647" lon="9.1703377"><ele>636.0</ele><time>2026-03-22T09:26:52.244Z</time></trkpt><trkpt lat="40.5904937" lon="9.1703541"><ele>636.0</ele><time>2026-03-22T09:26:53.244Z</time></trkpt><trkpt lat="40.5904187" lon="9.1703779"><ele>636.0</ele><time>2026-03-22T09:26:54.244Z</time></trkpt><trkpt lat="40.5903468" lon="9.1703952"><ele>636.0</ele><time>2026-03-22T09:26:55.244Z</time></trkpt><trkpt lat="40.590281" lon="9.1704231"><ele>633.0</ele><time>2026-03-22T09:26:56.244Z</time></trkpt><trkpt lat="40.5901653" lon="9.1704444"><ele>630.0</ele><time>2026-03-22T09:26:58.244Z</time></trkpt><trkpt lat="40.5900525" lon="9.1704042"><ele>627.0</ele><time>2026-03-22T09:27:00.244Z</time></trkpt><trkpt lat="40.589937" lon="9.1703385"><ele>624.0</ele><time>2026-03-22T09:27:02.244Z</time></trkpt><trkpt lat="40.5897958" lon="9.1701709"><ele>624.0</ele><time>2026-03-22T09:27:05.244Z</time></trkpt><trkpt lat="40.5897071" lon="9.1700572"><ele>624.0</ele><time>2026-03-22T09:27:07.244Z</time></trkpt><trkpt lat="40.5896194" lon="9.1699595"><ele>624.0</ele><time>2026-03-22T09:27:09.244Z</time></trkpt><trkpt lat="40.5895372" lon="9.1698783"><ele>624.0</ele><time>2026-03-22T09:27:11.244Z</time></trkpt><trkpt lat="40.5894756" lon="9.1698333"><ele>624.0</ele><time>2026-03-22T09:27:14.244Z</time></trkpt><trkpt lat="40.5893479" lon="9.1697819"><ele>621.6</ele><time>2026-03-22T09:27:27.244Z</time></trkpt><trkpt lat="40.5892528" lon="9.1697317"><ele>619.2</ele><time>2026-03-22T09:27:29.244Z</time></trkpt><trkpt lat="40.5891611" lon="9.169679"><ele>616.8000000000001</ele><time>2026-03-22T09:27:31.244Z</time></trkpt><trkpt lat="40.5890602" lon="9.1696374"><ele>614.4</ele><time>2026-03-22T09:27:33.244Z</time></trkpt><trkpt lat="40.5889514" lon="9.1696079"><ele>612.0</ele><time>2026-03-22T09:27:35.244Z</time></trkpt><trkpt lat="40.5888365" lon="9.1695941"><ele>612.0</ele><time>2026-03-22T09:27:37.244Z</time></trkpt><trkpt lat="40.5887335" lon="9.1695714"><ele>612.0</ele><time>2026-03-22T09:27:39.244Z</time></trkpt><trkpt lat="40.5886524" lon="9.1695207"><ele>612.0</ele><time>2026-03-22T09:27:41.244Z</time></trkpt><trkpt lat="40.5885672" lon="9.1694599"><ele>612.0</ele><time>2026-03-22T09:27:43.244Z</time></trkpt><trkpt lat="40.5884665" lon="9.1693141"><ele>612.0</ele><time>2026-03-22T09:27:46.244Z</time></trkpt><trkpt lat="40.5883662" lon="9.1691682"><ele>609.8333333333334</ele><time>2026-03-22T09:27:49.244Z</time></trkpt><trkpt lat="40.5883052" lon="9.1690679"><ele>607.6666666666666</ele><time>2026-03-22T09:27:51.244Z</time></trkpt><trkpt lat="40.5882661" lon="9.1689838"><ele>605.5</ele><time>2026-03-22T09:27:53.244Z</time></trkpt><trkpt lat="40.5882254" lon="9.1689176"><ele>603.3333333333333</ele><time>2026-03-22T09:27:54.244Z</time></trkpt><trkpt lat="40.5881854" lon="9.168849"><ele>601.1666666666666</ele><time>2026-03-22T09:27:55.244Z</time></trkpt><trkpt lat="40.5880974" lon="9.1687451"><ele>599.0</ele><time>2026-03-22T09:27:57.244Z</time></trkpt><trkpt lat="40.5880014" lon="9.1686861"><ele>598.4</ele><time>2026-03-22T09:27:59.244Z</time></trkpt><trkpt lat="40.587898" lon="9.1686444"><ele>597.8</ele><time>2026-03-22T09:28:01.244Z</time></trkpt><trkpt lat="40.5878121" lon="9.1686022"><ele>597.2</ele><time>2026-03-22T09:28:03.244Z</time></trkpt><trkpt lat="40.5877275" lon="9.1685293"><ele>596.6</ele><time>2026-03-22T09:28:05.244Z</time></trkpt><trkpt lat="40.5876535" lon="9.1684889"><ele>596.0</ele><time>2026-03-22T09:28:07.244Z</time></trkpt><trkpt lat="40.587586" lon="9.1684579"><ele>593.8</ele><time>2026-03-22T09:28:17.244Z</time></trkpt><trkpt lat="40.5875938" lon="9.1683003"><ele>591.6</ele><time>2026-03-22T09:28:19.244Z</time></trkpt><trkpt lat="40.5876036" lon="9.1681891"><ele>589.4</ele><time>2026-03-22T09:28:20.244Z</time></trkpt><trkpt lat="40.5876238" lon="9.168056"><ele>587.2</ele><time>2026-03-22T09:28:21.244Z</time></trkpt><trkpt lat="40.5876346" lon="9.167908"><ele>585.0</ele><time>2026-03-22T09:28:22.244Z</time></trkpt><trkpt lat="40.5876336" lon="9.1677776"><ele>585.0</ele><time>2026-03-22T09:28:23.244Z</time></trkpt><trkpt lat="40.587641" lon="9.167657"><ele>585.0</ele><time>2026-03-22T09:28:24.244Z</time></trkpt><trkpt lat="40.5876471" lon="9.1675513"><ele>585.0</ele><time>2026-03-22T09:28:25.244Z</time></trkpt><trkpt lat="40.5876573" lon="9.1674468"><ele>585.0</ele><time>2026-03-22T09:28:26.244Z</time></trkpt><trkpt lat="40.5876824" lon="9.1672438"><ele>585.0</ele><time>2026-03-22T09:28:28.244Z</time></trkpt><trkpt lat="40.5877006" lon="9.1671449"><ele>584.0</ele><time>2026-03-22T09:28:29.244Z</time></trkpt><trkpt lat="40.5877183" lon="9.1670584"><ele>583.0</ele><time>2026-03-22T09:28:30.244Z</time></trkpt><trkpt lat="40.587735" lon="9.1669747"><ele>582.0</ele><time>2026-03-22T09:28:31.244Z</time></trkpt><trkpt lat="40.5877699" lon="9.1668165"><ele>581.0</ele><time>2026-03-22T09:28:33.244Z</time></trkpt><trkpt lat="40.5878139" lon="9.1665977"><ele>580.0</ele><time>2026-03-22T09:28:36.244Z</time></trkpt><trkpt lat="40.5878372" lon="9.1664591"><ele>580.6666666666667</ele><time>2026-03-22T09:28:38.244Z</time></trkpt><trkpt lat="40.5878489" lon="9.1663417"><ele>581.3333333333334</ele><time>2026-03-22T09:28:40.244Z</time></trkpt><trkpt lat="40.5878718" lon="9.1662554"><ele>582.0</ele><time>2026-03-22T09:28:43.244Z</time></trkpt><trkpt lat="40.5878886" lon="9.166136"><ele>582.6666666666666</ele><time>2026-03-22T09:29:20.239Z</time></trkpt><trkpt lat="40.5879083" lon="9.1660253"><ele>583.3333333333333</ele><time>2026-03-22T09:29:21.239Z</time></trkpt><trkpt lat="40.5879347" lon="9.1658947"><ele>584.0</ele><time>2026-03-22T09:29:22.239Z</time></trkpt><trkpt lat="40.5879608" lon="9.1657456"><ele>584.5</ele><time>2026-03-22T09:29:23.239Z</time></trkpt><trkpt lat="40.5879918" lon="9.1655989"><ele>585.0</ele><time>2026-03-22T09:29:24.239Z</time></trkpt><trkpt lat="40.5880253" lon="9.1654298"><ele>585.5</ele><time>2026-03-22T09:29:25.239Z</time></trkpt><trkpt lat="40.5880552" lon="9.1652704"><ele>586.0</ele><time>2026-03-22T09:29:26.239Z</time></trkpt><trkpt lat="40.5880858" lon="9.1651068"><ele>586.0</ele><time>2026-03-22T09:29:27.239Z</time></trkpt><trkpt lat="40.5881202" lon="9.1649517"><ele>586.0</ele><time>2026-03-22T09:29:28.239Z</time></trkpt><trkpt lat="40.5881488" lon="9.1647928"><ele>586.0</ele><time>2026-03-22T09:29:29.239Z</time></trkpt><trkpt lat="40.5881777" lon="9.1646491"><ele>586.0</ele><time>2026-03-22T09:29:30.239Z</time></trkpt><trkpt lat="40.5882046" lon="9.1645142"><ele>587.4</ele><time>2026-03-22T09:29:31.239Z</time></trkpt><trkpt lat="40.5882293" lon="9.1643917"><ele>588.8</ele><time>2026-03-22T09:29:32.239Z</time></trkpt><trkpt lat="40.5882579" lon="9.1641796"><ele>590.1999999999999</ele><time>2026-03-22T09:29:34.239Z</time></trkpt><trkpt lat="40.5882594" lon="9.1640756"><ele>591.6</ele><time>2026-03-22T09:29:35.239Z</time></trkpt><trkpt lat="40.588246" lon="9.1639622"><ele>593.0</ele><time>2026-03-22T09:29:36.239Z</time></trkpt><trkpt lat="40.5882351" lon="9.1638487"><ele>593.25</ele><time>2026-03-22T09:29:37.239Z</time></trkpt><trkpt lat="40.5882256" lon="9.1637345"><ele>593.5</ele><time>2026-03-22T09:29:38.239Z</time></trkpt><trkpt lat="40.5882337" lon="9.1636205"><ele>593.75</ele><time>2026-03-22T09:29:39.239Z</time></trkpt><trkpt lat="40.5882483" lon="9.1634998"><ele>594.0</ele><time>2026-03-22T09:29:40.239Z</time></trkpt><trkpt lat="40.5882951" lon="9.1632552"><ele>593.6666666666666</ele><time>2026-03-22T09:29:42.239Z</time></trkpt><trkpt lat="40.5883175" lon="9.1631438"><ele>593.3333333333334</ele><time>2026-03-22T09:29:43.239Z</time></trkpt><trkpt lat="40.5883313" lon="9.1630383"><ele>593.0</ele><time>2026-03-22T09:29:44.239Z</time></trkpt><trkpt lat="40.5883451" lon="9.1629432"><ele>592.6666666666667</ele><time>2026-03-22T09:29:45.239Z</time></trkpt><trkpt lat="40.5883611" lon="9.1628575"><ele>592.3333333333334</ele><time>2026-03-22T09:29:46.239Z</time></trkpt><trkpt lat="40.5883812" lon="9.1626943"><ele>592.0</ele><time>2026-03-22T09:29:48.239Z</time></trkpt><trkpt lat="40.5884103" lon="9.1625555"><ele>592.0</ele><time>2026-03-22T09:29:50.239Z</time></trkpt><trkpt lat="40.5884499" lon="9.1623954"><ele>592.0</ele><time>2026-03-22T09:29:52.239Z</time></trkpt><trkpt lat="40.5884591" lon="9.1621982"><ele>592.0</ele><time>2026-03-22T09:29:54.239Z</time></trkpt><trkpt lat="40.5884444" lon="9.1620759"><ele>592.0</ele><time>2026-03-22T09:29:55.239Z</time></trkpt><trkpt lat="40.5883928" lon="9.1617982"><ele>588.5</ele><time>2026-03-22T09:29:57.239Z</time></trkpt><trkpt lat="40.5883459" lon="9.1615007"><ele>585.0</ele><time>2026-03-22T09:29:59.239Z</time></trkpt><trkpt lat="40.5883231" lon="9.1612017"><ele>585.0</ele><time>2026-03-22T09:30:01.239Z</time></trkpt><trkpt lat="40.5883019" lon="9.1609119"><ele>585.0</ele><time>2026-03-22T09:30:03.239Z</time></trkpt><trkpt lat="40.5882493" lon="9.1606283"><ele>585.0</ele><time>2026-03-22T09:30:05.239Z</time></trkpt><trkpt lat="40.5881686" lon="9.1603457"><ele>587.3333333333334</ele><time>2026-03-22T09:30:07.24Z</time></trkpt><trkpt lat="40.5881245" lon="9.1602052"><ele>589.6666666666667</ele><time>2026-03-22T09:30:08.239Z</time></trkpt><trkpt lat="40.5880341" lon="9.1599194"><ele>592.0</ele><time>2026-03-22T09:30:10.239Z</time></trkpt><trkpt lat="40.5879587" lon="9.1596729"><ele>592.4</ele><time>2026-03-22T09:30:12.239Z</time></trkpt><trkpt lat="40.5879084" lon="9.1594557"><ele>592.8000000000001</ele><time>2026-03-22T09:30:14.239Z</time></trkpt><trkpt lat="40.5878916" lon="9.1593507"><ele>593.2</ele><time>2026-03-22T09:30:15.239Z</time></trkpt><trkpt lat="40.5878903" lon="9.1592412"><ele>593.6</ele><time>2026-03-22T09:30:16.239Z</time></trkpt><trkpt lat="40.5879007" lon="9.1591293"><ele>594.0</ele><time>2026-03-22T09:30:17.239Z</time></trkpt><trkpt lat="40.5879134" lon="9.1590099"><ele>594.75</ele><time>2026-03-22T09:30:18.239Z</time></trkpt><trkpt lat="40.5879282" lon="9.1588804"><ele>595.5</ele><time>2026-03-22T09:30:19.239Z</time></trkpt><trkpt lat="40.5879492" lon="9.1587549"><ele>596.25</ele><time>2026-03-22T09:30:20.239Z</time></trkpt><trkpt lat="40.5879676" lon="9.1586164"><ele>597.0</ele><time>2026-03-22T09:30:21.239Z</time></trkpt><trkpt lat="40.5879996" lon="9.1583633"><ele>594.3333333333334</ele><time>2026-03-22T09:30:23.239Z</time></trkpt><trkpt lat="40.5880279" lon="9.1581024"><ele>591.6666666666667</ele><time>2026-03-22T09:30:25.239Z</time></trkpt><trkpt lat="40.5880464" lon="9.1579797"><ele>589.0</ele><time>2026-03-22T09:30:26.239Z</time></trkpt><trkpt lat="40.5880801" lon="9.1577455"><ele>589.0</ele><time>2026-03-22T09:30:28.239Z</time></trkpt><trkpt lat="40.5881411" lon="9.1575454"><ele>589.0</ele><time>2026-03-22T09:30:30.239Z</time></trkpt><trkpt lat="40.5882591" lon="9.1573635"><ele>589.0</ele><time>2026-03-22T09:30:32.239Z</time></trkpt><trkpt lat="40.5883313" lon="9.1572831"><ele>589.0</ele><time>2026-03-22T09:30:33.239Z</time></trkpt><trkpt lat="40.5885068" lon="9.1571254"><ele>586.0</ele><time>2026-03-22T09:30:35.239Z</time></trkpt><trkpt lat="40.5887173" lon="9.1569629"><ele>583.0</ele><time>2026-03-22T09:30:37.239Z</time></trkpt><trkpt lat="40.5888268" lon="9.1568932"><ele>580.0</ele><time>2026-03-22T09:30:38.239Z</time></trkpt><trkpt lat="40.5890326" lon="9.1567542"><ele>580.0</ele><time>2026-03-22T09:30:40.239Z</time></trkpt><trkpt lat="40.5892387" lon="9.1566128"><ele>580.0</ele><time>2026-03-22T09:30:42.239Z</time></trkpt><trkpt lat="40.58944" lon="9.1564799"><ele>577.6666666666667</ele><time>2026-03-22T09:30:44.239Z</time></trkpt><trkpt lat="40.589632" lon="9.1563611"><ele>575.3333333333334</ele><time>2026-03-22T09:30:46.239Z</time></trkpt><trkpt lat="40.5897229" lon="9.1563109"><ele>573.0</ele><time>2026-03-22T09:30:47.239Z</time></trkpt><trkpt lat="40.5898916" lon="9.1561822"><ele>573.0</ele><time>2026-03-22T09:30:49.239Z</time></trkpt><trkpt lat="40.5900244" lon="9.1560294"><ele>573.0</ele><time>2026-03-22T09:30:51.239Z</time></trkpt><trkpt lat="40.5900833" lon="9.1559337"><ele>573.0</ele><time>2026-03-22T09:30:52.239Z</time></trkpt><trkpt lat="40.5901341" lon="9.1558052"><ele>573.0</ele><time>2026-03-22T09:30:53.239Z</time></trkpt><trkpt lat="40.5901918" lon="9.1556785"><ele>571.0</ele><time>2026-03-22T09:30:54.239Z</time></trkpt><trkpt lat="40.5902487" lon="9.1555442"><ele>569.0</ele><time>2026-03-22T09:30:55.239Z</time></trkpt><trkpt lat="40.590306" lon="9.1554106"><ele>567.0</ele><time>2026-03-22T09:30:56.239Z</time></trkpt><trkpt lat="40.5903951" lon="9.1551385"><ele>572.3333333333334</ele><time>2026-03-22T09:30:58.239Z</time></trkpt><trkpt lat="40.5904748" lon="9.1548796"><ele>577.6666666666667</ele><time>2026-03-22T09:31:00.239Z</time></trkpt><trkpt lat="40.5905475" lon="9.154655"><ele>583.0</ele><time>2026-03-22T09:31:02.239Z</time></trkpt><trkpt lat="40.5906612" lon="9.1544858"><ele>583.0</ele><time>2026-03-22T09:31:04.239Z</time></trkpt><trkpt lat="40.5908159" lon="9.1543608"><ele>583.0</ele><time>2026-03-22T09:31:06.239Z</time></trkpt><trkpt lat="40.590992" lon="9.1542491"><ele>583.0</ele><time>2026-03-22T09:31:08.239Z</time></trkpt><trkpt lat="40.5911716" lon="9.1541481"><ele>584.0</ele><time>2026-03-22T09:31:10.239Z</time></trkpt><trkpt lat="40.5913505" lon="9.1540245"><ele>585.0</ele><time>2026-03-22T09:31:12.239Z</time></trkpt><trkpt lat="40.5915242" lon="9.1538694"><ele>586.0</ele><time>2026-03-22T09:31:14.239Z</time></trkpt><trkpt lat="40.5916107" lon="9.1537912"><ele>586.0</ele><time>2026-03-22T09:31:15.239Z</time></trkpt><trkpt lat="40.5917006" lon="9.1537135"><ele>586.0</ele><time>2026-03-22T09:31:16.239Z</time></trkpt><trkpt lat="40.5918773" lon="9.1535621"><ele>586.0</ele><time>2026-03-22T09:31:18.239Z</time></trkpt><trkpt lat="40.5919682" lon="9.1534883"><ele>586.0</ele><time>2026-03-22T09:31:19.239Z</time></trkpt><trkpt lat="40.5921767" lon="9.153317"><ele>585.0</ele><time>2026-03-22T09:31:21.239Z</time></trkpt><trkpt lat="40.5924103" lon="9.1531128"><ele>584.0</ele><time>2026-03-22T09:31:23.239Z</time></trkpt><trkpt lat="40.5926414" lon="9.1529074"><ele>584.0</ele><time>2026-03-22T09:31:25.239Z</time></trkpt><trkpt lat="40.5927546" lon="9.1528031"><ele>584.0</ele><time>2026-03-22T09:31:26.239Z</time></trkpt><trkpt lat="40.592864" lon="9.1527003"><ele>584.0</ele><time>2026-03-22T09:31:27.239Z</time></trkpt><trkpt lat="40.5929774" lon="9.1525941"><ele>584.0</ele><time>2026-03-22T09:31:28.239Z</time></trkpt><trkpt lat="40.593171" lon="9.152416"><ele>584.6666666666666</ele><time>2026-03-22T09:31:30.239Z</time></trkpt><trkpt lat="40.5932663" lon="9.1523205"><ele>585.3333333333334</ele><time>2026-03-22T09:31:31.239Z</time></trkpt><trkpt lat="40.5934556" lon="9.152122"><ele>586.0</ele><time>2026-03-22T09:31:33.239Z</time></trkpt><trkpt lat="40.5935462" lon="9.1520324"><ele>586.0</ele><time>2026-03-22T09:31:34.239Z</time></trkpt><trkpt lat="40.5936353" lon="9.1519334"><ele>586.0</ele><time>2026-03-22T09:31:35.239Z</time></trkpt><trkpt lat="40.5937173" lon="9.1518316"><ele>586.0</ele><time>2026-03-22T09:31:36.239Z</time></trkpt><trkpt lat="40.5938825" lon="9.1516273"><ele>581.5</ele><time>2026-03-22T09:31:38.239Z</time></trkpt><trkpt lat="40.5940615" lon="9.1514434"><ele>577.0</ele><time>2026-03-22T09:31:40.239Z</time></trkpt><trkpt lat="40.5941528" lon="9.1513754"><ele>572.5</ele><time>2026-03-22T09:31:41.239Z</time></trkpt><trkpt lat="40.5942446" lon="9.1513103"><ele>568.0</ele><time>2026-03-22T09:31:42.239Z</time></trkpt><trkpt lat="40.5943949" lon="9.1511391"><ele>565.0</ele><time>2026-03-22T09:31:44.239Z</time></trkpt><trkpt lat="40.5945155" lon="9.1509022"><ele>562.0</ele><time>2026-03-22T09:31:46.24Z</time></trkpt><trkpt lat="40.5945782" lon="9.1507753"><ele>559.0</ele><time>2026-03-22T09:31:47.239Z</time></trkpt><trkpt lat="40.5947142" lon="9.1505175"><ele>559.0</ele><time>2026-03-22T09:31:49.239Z</time></trkpt><trkpt lat="40.5948664" lon="9.1502834"><ele>559.0</ele><time>2026-03-22T09:31:51.239Z</time></trkpt><trkpt lat="40.5950211" lon="9.1500672"><ele>559.0</ele><time>2026-03-22T09:31:53.239Z</time></trkpt><trkpt lat="40.595096" lon="9.1499701"><ele>559.0</ele><time>2026-03-22T09:31:54.239Z</time></trkpt><trkpt lat="40.5951763" lon="9.1498774"><ele>559.0</ele><time>2026-03-22T09:31:55.239Z</time></trkpt><trkpt lat="40.595264" lon="9.1497916"><ele>559.0</ele><time>2026-03-22T09:31:56.239Z</time></trkpt><trkpt lat="40.5953607" lon="9.1497141"><ele>559.0</ele><time>2026-03-22T09:31:57.239Z</time></trkpt><trkpt lat="40.5955609" lon="9.149549"><ele>554.75</ele><time>2026-03-22T09:31:59.239Z</time></trkpt><trkpt lat="40.5956718" lon="9.1494682"><ele>550.5</ele><time>2026-03-22T09:32:00.239Z</time></trkpt><trkpt lat="40.5957794" lon="9.1493807"><ele>546.25</ele><time>2026-03-22T09:32:01.239Z</time></trkpt><trkpt lat="40.5958875" lon="9.149309"><ele>542.0</ele><time>2026-03-22T09:32:02.239Z</time></trkpt><trkpt lat="40.5959851" lon="9.1492349"><ele>542.0</ele><time>2026-03-22T09:32:03.239Z</time></trkpt><trkpt lat="40.5960763" lon="9.1491727"><ele>542.0</ele><time>2026-03-22T09:32:04.239Z</time></trkpt><trkpt lat="40.5961613" lon="9.1491169"><ele>542.0</ele><time>2026-03-22T09:32:05.239Z</time></trkpt><trkpt lat="40.5962541" lon="9.1490713"><ele>542.0</ele><time>2026-03-22T09:32:06.239Z</time></trkpt><trkpt lat="40.5963494" lon="9.1490441"><ele>542.0</ele><time>2026-03-22T09:32:07.239Z</time></trkpt><trkpt lat="40.5964497" lon="9.1490337"><ele>540.3333333333333</ele><time>2026-03-22T09:32:08.239Z</time></trkpt><trkpt lat="40.5965432" lon="9.1490302"><ele>538.6666666666666</ele><time>2026-03-22T09:32:09.239Z</time></trkpt><trkpt lat="40.5966237" lon="9.1490126"><ele>537.0</ele><time>2026-03-22T09:32:10.239Z</time></trkpt><trkpt lat="40.5967071" lon="9.148982"><ele>535.3333333333334</ele><time>2026-03-22T09:32:11.239Z</time></trkpt><trkpt lat="40.5967831" lon="9.1489271"><ele>533.6666666666667</ele><time>2026-03-22T09:32:12.239Z</time></trkpt><trkpt lat="40.5968535" lon="9.1488485"><ele>532.0</ele><time>2026-03-22T09:32:13.239Z</time></trkpt><trkpt lat="40.5969042" lon="9.148758"><ele>532.0</ele><time>2026-03-22T09:32:14.239Z</time></trkpt><trkpt lat="40.5969379" lon="9.1486667"><ele>532.0</ele><time>2026-03-22T09:32:15.239Z</time></trkpt><trkpt lat="40.5969485" lon="9.1485763"><ele>532.0</ele><time>2026-03-22T09:32:16.239Z</time></trkpt><trkpt lat="40.5969379" lon="9.1484855"><ele>532.0</ele><time>2026-03-22T09:32:17.239Z</time></trkpt><trkpt lat="40.5969095" lon="9.1483897"><ele>532.0</ele><time>2026-03-22T09:32:18.239Z</time></trkpt><trkpt lat="40.5968622" lon="9.1483015"><ele>532.0</ele><time>2026-03-22T09:32:19.239Z</time></trkpt><trkpt lat="40.5967995" lon="9.1482199"><ele>530.2</ele><time>2026-03-22T09:32:20.239Z</time></trkpt><trkpt lat="40.5967198" lon="9.1481465"><ele>528.4000000000001</ele><time>2026-03-22T09:32:21.239Z</time></trkpt><trkpt lat="40.5966354" lon="9.1480708"><ele>526.5999999999999</ele><time>2026-03-22T09:32:22.239Z</time></trkpt><trkpt lat="40.5965529" lon="9.1479781"><ele>524.8</ele><time>2026-03-22T09:32:23.239Z</time></trkpt><trkpt lat="40.5964726" lon="9.1478705"><ele>523.0</ele><time>2026-03-22T09:32:24.239Z</time></trkpt><trkpt lat="40.5963905" lon="9.1477439"><ele>523.0</ele><time>2026-03-22T09:32:25.239Z</time></trkpt><trkpt lat="40.5963035" lon="9.1476002"><ele>523.0</ele><time>2026-03-22T09:32:26.239Z</time></trkpt><trkpt lat="40.5962215" lon="9.1474479"><ele>523.0</ele><time>2026-03-22T09:32:27.239Z</time></trkpt><trkpt lat="40.5961426" lon="9.1472925"><ele>523.0</ele><time>2026-03-22T09:32:28.239Z</time></trkpt><trkpt lat="40.5961042" lon="9.1471555"><ele>520.5</ele><time>2026-03-22T09:32:29.239Z</time></trkpt><trkpt lat="40.5960162" lon="9.1470243"><ele>518.0</ele><time>2026-03-22T09:32:30.239Z</time></trkpt><trkpt lat="40.5959521" lon="9.1469028"><ele>515.5</ele><time>2026-03-22T09:32:31.239Z</time></trkpt><trkpt lat="40.5958858" lon="9.1467891"><ele>513.0</ele><time>2026-03-22T09:32:32.239Z</time></trkpt><trkpt lat="40.5958086" lon="9.1466805"><ele>513.0</ele><time>2026-03-22T09:32:33.239Z</time></trkpt><trkpt lat="40.5957176" lon="9.1465808"><ele>513.0</ele><time>2026-03-22T09:32:34.239Z</time></trkpt><trkpt lat="40.5956135" lon="9.1464822"><ele>513.0</ele><time>2026-03-22T09:32:35.239Z</time></trkpt><trkpt lat="40.5955118" lon="9.1463867"><ele>513.0</ele><time>2026-03-22T09:32:36.239Z</time></trkpt><trkpt lat="40.5954293" lon="9.1462821"><ele>514.8</ele><time>2026-03-22T09:32:37.239Z</time></trkpt><trkpt lat="40.5953541" lon="9.1461863"><ele>516.5999999999999</ele><time>2026-03-22T09:32:38.239Z</time></trkpt><trkpt lat="40.5952855" lon="9.1460836"><ele>518.4000000000001</ele><time>2026-03-22T09:32:39.239Z</time></trkpt><trkpt lat="40.5952297" lon="9.1459785"><ele>520.2</ele><time>2026-03-22T09:32:40.239Z</time></trkpt><trkpt lat="40.5951753" lon="9.1458805"><ele>522.0</ele><time>2026-03-22T09:32:41.239Z</time></trkpt><trkpt lat="40.5951291" lon="9.1457775"><ele>508.0</ele><time>2026-03-22T09:32:42.239Z</time></trkpt><trkpt lat="40.5950356" lon="9.145504"><ele>494.0</ele><time>2026-03-22T09:32:44.239Z</time></trkpt><trkpt lat="40.5949346" lon="9.1451439"><ele>494.0</ele><time>2026-03-22T09:32:46.239Z</time></trkpt><trkpt lat="40.5948873" lon="9.1449553"><ele>494.0</ele><time>2026-03-22T09:32:47.239Z</time></trkpt><trkpt lat="40.594834" lon="9.144772"><ele>494.0</ele><time>2026-03-22T09:32:48.239Z</time></trkpt><trkpt lat="40.5947215" lon="9.1444174"><ele>492.5</ele><time>2026-03-22T09:32:50.239Z</time></trkpt><trkpt lat="40.5946078" lon="9.1440821"><ele>491.0</ele><time>2026-03-22T09:32:52.239Z</time></trkpt><trkpt lat="40.5945" lon="9.1437561"><ele>485.0</ele><time>2026-03-22T09:32:54.239Z</time></trkpt><trkpt lat="40.5943949" lon="9.1434516"><ele>479.0</ele><time>2026-03-22T09:32:56.239Z</time></trkpt><trkpt lat="40.594306" lon="9.143184"><ele>478.75</ele><time>2026-03-22T09:32:58.239Z</time></trkpt><trkpt lat="40.5942588" lon="9.1429304"><ele>478.5</ele><time>2026-03-22T09:33:00.239Z</time></trkpt><trkpt lat="40.5942621" lon="9.1427901"><ele>478.25</ele><time>2026-03-22T09:33:01.239Z</time></trkpt><trkpt lat="40.5942826" lon="9.1426345"><ele>478.0</ele><time>2026-03-22T09:33:02.239Z</time></trkpt><trkpt lat="40.5943124" lon="9.1424734"><ele>479.6666666666667</ele><time>2026-03-22T09:33:03.239Z</time></trkpt><trkpt lat="40.5944108" lon="9.1421574"><ele>481.33333333333337</ele><time>2026-03-22T09:33:05.239Z</time></trkpt><trkpt lat="40.5944566" lon="9.1420107"><ele>483.0</ele><time>2026-03-22T09:33:06.239Z</time></trkpt><trkpt lat="40.5945361" lon="9.1417496"><ele>480.5</ele><time>2026-03-22T09:33:08.239Z</time></trkpt><trkpt lat="40.5945595" lon="9.1416121"><ele>478.0</ele><time>2026-03-22T09:33:09.239Z</time></trkpt><trkpt lat="40.5945663" lon="9.1414652"><ele>475.5</ele><time>2026-03-22T09:33:10.239Z</time></trkpt><trkpt lat="40.5945621" lon="9.1413024"><ele>473.0</ele><time>2026-03-22T09:33:11.239Z</time></trkpt><trkpt lat="40.5945601" lon="9.1411382"><ele>473.0</ele><time>2026-03-22T09:33:12.239Z</time></trkpt><trkpt lat="40.594561" lon="9.1409733"><ele>473.0</ele><time>2026-03-22T09:33:13.239Z</time></trkpt><trkpt lat="40.5945674" lon="9.1408238"><ele>473.0</ele><time>2026-03-22T09:33:14.239Z</time></trkpt><trkpt lat="40.594587" lon="9.140691"><ele>473.0</ele><time>2026-03-22T09:33:15.239Z</time></trkpt><trkpt lat="40.5946153" lon="9.1405448"><ele>476.3333333333333</ele><time>2026-03-22T09:33:16.239Z</time></trkpt><trkpt lat="40.5946573" lon="9.1404038"><ele>479.66666666666663</ele><time>2026-03-22T09:33:17.239Z</time></trkpt><trkpt lat="40.5947446" lon="9.1401025"><ele>483.0</ele><time>2026-03-22T09:33:19.239Z</time></trkpt><trkpt lat="40.5947876" lon="9.139948"><ele>486.66666666666663</ele><time>2026-03-22T09:33:20.239Z</time></trkpt><trkpt lat="40.5948292" lon="9.1397879"><ele>490.3333333333333</ele><time>2026-03-22T09:33:21.239Z</time></trkpt><trkpt lat="40.5949102" lon="9.1394846"><ele>494.0</ele><time>2026-03-22T09:33:23.239Z</time></trkpt><trkpt lat="40.5949635" lon="9.1391908"><ele>497.0</ele><time>2026-03-22T09:33:25.239Z</time></trkpt><trkpt lat="40.5949678" lon="9.1388875"><ele>500.0</ele><time>2026-03-22T09:33:27.239Z</time></trkpt><trkpt lat="40.594957" lon="9.1387184"><ele>503.0</ele><time>2026-03-22T09:33:28.239Z</time></trkpt><trkpt lat="40.5949461" lon="9.1383667"><ele>508.0</ele><time>2026-03-22T09:33:30.239Z</time></trkpt><trkpt lat="40.5949475" lon="9.1380033"><ele>513.0</ele><time>2026-03-22T09:33:32.239Z</time></trkpt><trkpt lat="40.5949539" lon="9.1376464"><ele>516.6666666666666</ele><time>2026-03-22T09:33:34.239Z</time></trkpt><trkpt lat="40.5949615" lon="9.1373017"><ele>520.3333333333333</ele><time>2026-03-22T09:33:36.239Z</time></trkpt><trkpt lat="40.5949702" lon="9.1371446"><ele>524.0</ele><time>2026-03-22T09:33:37.239Z</time></trkpt><trkpt lat="40.5949892" lon="9.1368176"><ele>531.0</ele><time>2026-03-22T09:33:39.239Z</time></trkpt><trkpt lat="40.5950521" lon="9.1364767"><ele>538.0</ele><time>2026-03-22T09:33:41.239Z</time></trkpt><trkpt lat="40.5951408" lon="9.1361432"><ele>538.0</ele><time>2026-03-22T09:33:43.239Z</time></trkpt><trkpt lat="40.5951899" lon="9.1360064"><ele>538.0</ele><time>2026-03-22T09:33:44.239Z</time></trkpt><trkpt lat="40.5952307" lon="9.1358734"><ele>538.0</ele><time>2026-03-22T09:33:45.239Z</time></trkpt><trkpt lat="40.5953075" lon="9.1356381"><ele>538.0</ele><time>2026-03-22T09:33:47.239Z</time></trkpt><trkpt lat="40.5953483" lon="9.1354354"><ele>539.25</ele><time>2026-03-22T09:33:49.239Z</time></trkpt><trkpt lat="40.5953449" lon="9.1352389"><ele>540.5</ele><time>2026-03-22T09:33:51.239Z</time></trkpt><trkpt lat="40.5953264" lon="9.135149"><ele>541.75</ele><time>2026-03-22T09:33:52.239Z</time></trkpt><trkpt lat="40.5952738" lon="9.1350091"><ele>543.0</ele><time>2026-03-22T09:33:54.239Z</time></trkpt><trkpt lat="40.5951769" lon="9.1349094"><ele>539.3333333333334</ele><time>2026-03-22T09:33:56.239Z</time></trkpt><trkpt lat="40.5950322" lon="9.1348348"><ele>535.6666666666667</ele><time>2026-03-22T09:33:58.239Z</time></trkpt><trkpt lat="40.5948527" lon="9.1348094"><ele>532.0</ele><time>2026-03-22T09:34:00.239Z</time></trkpt><trkpt lat="40.5946182" lon="9.1348517"><ele>532.0</ele><time>2026-03-22T09:34:02.239Z</time></trkpt><trkpt lat="40.5945065" lon="9.1348775"><ele>532.0</ele><time>2026-03-22T09:34:03.239Z</time></trkpt><trkpt lat="40.5942867" lon="9.1348867"><ele>532.0</ele><time>2026-03-22T09:34:05.239Z</time></trkpt><trkpt lat="40.5941774" lon="9.1348697"><ele>532.0</ele><time>2026-03-22T09:34:06.239Z</time></trkpt><trkpt lat="40.5939387" lon="9.1348045"><ele>536.0</ele><time>2026-03-22T09:34:08.239Z</time></trkpt><trkpt lat="40.593715" lon="9.13473"><ele>540.0</ele><time>2026-03-22T09:34:10.239Z</time></trkpt><trkpt lat="40.5934926" lon="9.1346961"><ele>543.3333333333334</ele><time>2026-03-22T09:34:12.239Z</time></trkpt><trkpt lat="40.5932946" lon="9.1347035"><ele>546.6666666666667</ele><time>2026-03-22T09:34:14.239Z</time></trkpt><trkpt lat="40.5931102" lon="9.1347897"><ele>550.0</ele><time>2026-03-22T09:34:16.239Z</time></trkpt><trkpt lat="40.5930114" lon="9.1348585"><ele>556.3333333333334</ele><time>2026-03-22T09:34:17.239Z</time></trkpt><trkpt lat="40.5929075" lon="9.1349377"><ele>562.6666666666666</ele><time>2026-03-22T09:34:18.239Z</time></trkpt><trkpt lat="40.5927945" lon="9.1350273"><ele>569.0</ele><time>2026-03-22T09:34:19.239Z</time></trkpt><trkpt lat="40.592566" lon="9.1352104"><ele>569.6666666666666</ele><time>2026-03-22T09:34:21.239Z</time></trkpt><trkpt lat="40.5923624" lon="9.1353521"><ele>570.3333333333334</ele><time>2026-03-22T09:34:23.239Z</time></trkpt><trkpt lat="40.5922662" lon="9.1354034"><ele>571.0</ele><time>2026-03-22T09:34:24.239Z</time></trkpt><trkpt lat="40.5920461" lon="9.1354452"><ele>572.5</ele><time>2026-03-22T09:34:26.239Z</time></trkpt><trkpt lat="40.5917822" lon="9.1354417"><ele>574.0</ele><time>2026-03-22T09:34:28.239Z</time></trkpt><trkpt lat="40.5914984" lon="9.1354264"><ele>574.0</ele><time>2026-03-22T09:34:30.239Z</time></trkpt><trkpt lat="40.5912009" lon="9.1354151"><ele>574.0</ele><time>2026-03-22T09:34:32.239Z</time></trkpt><trkpt lat="40.5910492" lon="9.1354223"><ele>574.0</ele><time>2026-03-22T09:34:33.239Z</time></trkpt><trkpt lat="40.5907328" lon="9.135446"><ele>578.5</ele><time>2026-03-22T09:34:35.239Z</time></trkpt><trkpt lat="40.5904273" lon="9.1354631"><ele>583.0</ele><time>2026-03-22T09:34:37.239Z</time></trkpt><trkpt lat="40.5901197" lon="9.1354042"><ele>587.5</ele><time>2026-03-22T09:34:39.239Z</time></trkpt><trkpt lat="40.589796" lon="9.1353371"><ele>592.0</ele><time>2026-03-22T09:34:41.239Z</time></trkpt><trkpt lat="40.5894974" lon="9.1352694"><ele>600.3333333333334</ele><time>2026-03-22T09:34:43.239Z</time></trkpt><trkpt lat="40.5893612" lon="9.1352394"><ele>608.6666666666666</ele><time>2026-03-22T09:34:44.239Z</time></trkpt><trkpt lat="40.5891141" lon="9.1351676"><ele>617.0</ele><time>2026-03-22T09:34:46.239Z</time></trkpt><trkpt lat="40.5890015" lon="9.1351237"><ele>617.0</ele><time>2026-03-22T09:34:47.239Z</time></trkpt><trkpt lat="40.5888849" lon="9.1350571"><ele>617.0</ele><time>2026-03-22T09:34:48.239Z</time></trkpt><trkpt lat="40.5887679" lon="9.1349804"><ele>617.0</ele><time>2026-03-22T09:34:49.239Z</time></trkpt><trkpt lat="40.5885293" lon="9.1347977"><ele>618.2</ele><time>2026-03-22T09:34:51.239Z</time></trkpt><trkpt lat="40.5884327" lon="9.1347083"><ele>619.4000000000001</ele><time>2026-03-22T09:34:52.239Z</time></trkpt><trkpt lat="40.5883491" lon="9.134625"><ele>620.5999999999999</ele><time>2026-03-22T09:34:53.239Z</time></trkpt><trkpt lat="40.5882754" lon="9.1345493"><ele>621.8</ele><time>2026-03-22T09:34:54.239Z</time></trkpt><trkpt lat="40.5882029" lon="9.1344575"><ele>623.0</ele><time>2026-03-22T09:34:55.239Z</time></trkpt><trkpt lat="40.5881315" lon="9.1343505"><ele>623.0</ele><time>2026-03-22T09:34:56.239Z</time></trkpt><trkpt lat="40.5880599" lon="9.1342419"><ele>623.0</ele><time>2026-03-22T09:34:57.239Z</time></trkpt><trkpt lat="40.5879249" lon="9.134046"><ele>623.0</ele><time>2026-03-22T09:34:59.239Z</time></trkpt><trkpt lat="40.5877653" lon="9.1338983"><ele>622.0</ele><time>2026-03-22T09:35:01.239Z</time></trkpt><trkpt lat="40.5876556" lon="9.1338453"><ele>621.0</ele><time>2026-03-22T09:35:02.239Z</time></trkpt><trkpt lat="40.5874203" lon="9.1337545"><ele>620.0</ele><time>2026-03-22T09:35:04.239Z</time></trkpt><trkpt lat="40.58721" lon="9.1336704"><ele>621.6666666666666</ele><time>2026-03-22T09:35:06.239Z</time></trkpt><trkpt lat="40.5870089" lon="9.1335738"><ele>623.3333333333334</ele><time>2026-03-22T09:35:08.239Z</time></trkpt><trkpt lat="40.5868266" lon="9.1334621"><ele>625.0</ele><time>2026-03-22T09:35:10.239Z</time></trkpt><trkpt lat="40.5867504" lon="9.1334154"><ele>625.0</ele><time>2026-03-22T09:35:11.239Z</time></trkpt><trkpt lat="40.5866909" lon="9.1333762"><ele>625.0</ele><time>2026-03-22T09:35:12.239Z</time></trkpt><trkpt lat="40.5865611" lon="9.133286"><ele>625.0</ele><time>2026-03-22T09:35:15.239Z</time></trkpt><trkpt lat="40.5864957" lon="9.1332461"><ele>625.0</ele><time>2026-03-22T09:35:17.239Z</time></trkpt><trkpt lat="40.5864182" lon="9.1332351"><ele>625.0</ele><time>2026-03-22T09:35:19.239Z</time></trkpt><trkpt lat="40.5863547" lon="9.1332089"><ele>625.0</ele><time>2026-03-22T09:35:20.239Z</time></trkpt><trkpt lat="40.5862738" lon="9.133147"><ele>627.0</ele><time>2026-03-22T09:35:21.239Z</time></trkpt><trkpt lat="40.5861803" lon="9.1330625"><ele>629.0</ele><time>2026-03-22T09:35:22.239Z</time></trkpt><trkpt lat="40.5860974" lon="9.1329385"><ele>631.0</ele><time>2026-03-22T09:35:23.239Z</time></trkpt><trkpt lat="40.5860105" lon="9.1328034"><ele>633.0</ele><time>2026-03-22T09:35:24.239Z</time></trkpt><trkpt lat="40.585863" lon="9.1324818"><ele>631.5</ele><time>2026-03-22T09:35:26.239Z</time></trkpt><trkpt lat="40.5857526" lon="9.1321071"><ele>630.0</ele><time>2026-03-22T09:35:28.239Z</time></trkpt><trkpt lat="40.5856551" lon="9.1317563"><ele>623.5</ele><time>2026-03-22T09:35:30.239Z</time></trkpt><trkpt lat="40.5855131" lon="9.1314472"><ele>617.0</ele><time>2026-03-22T09:35:32.239Z</time></trkpt><trkpt lat="40.5853171" lon="9.1312195"><ele>625.6666666666666</ele><time>2026-03-22T09:35:34.239Z</time></trkpt><trkpt lat="40.5850507" lon="9.1310668"><ele>634.3333333333334</ele><time>2026-03-22T09:35:36.239Z</time></trkpt><trkpt lat="40.584904" lon="9.1309955"><ele>643.0</ele><time>2026-03-22T09:35:37.239Z</time></trkpt><trkpt lat="40.5845979" lon="9.1308547"><ele>642.5</ele><time>2026-03-22T09:35:39.239Z</time></trkpt><trkpt lat="40.5842676" lon="9.1307509"><ele>642.0</ele><time>2026-03-22T09:35:41.239Z</time></trkpt><trkpt lat="40.5841216" lon="9.1307202"><ele>642.0</ele><time>2026-03-22T09:35:42.239Z</time></trkpt><trkpt lat="40.5839834" lon="9.1306851"><ele>642.0</ele><time>2026-03-22T09:35:43.239Z</time></trkpt><trkpt lat="40.583741" lon="9.1305677"><ele>642.0</ele><time>2026-03-22T09:35:45.239Z</time></trkpt><trkpt lat="40.5835424" lon="9.1303585"><ele>648.0</ele><time>2026-03-22T09:35:47.239Z</time></trkpt><trkpt lat="40.5834043" lon="9.1300386"><ele>654.0</ele><time>2026-03-22T09:35:49.239Z</time></trkpt><trkpt lat="40.5833465" lon="9.1298406"><ele>660.0</ele><time>2026-03-22T09:35:50.239Z</time></trkpt><trkpt lat="40.5832824" lon="9.1296324"><ele>660.0</ele><time>2026-03-22T09:35:51.239Z</time></trkpt><trkpt lat="40.5832173" lon="9.1294163"><ele>660.0</ele><time>2026-03-22T09:35:52.239Z</time></trkpt><trkpt lat="40.5830917" lon="9.1289715"><ele>658.5</ele><time>2026-03-22T09:35:54.239Z</time></trkpt><trkpt lat="40.5829697" lon="9.1285974"><ele>657.0</ele><time>2026-03-22T09:35:56.239Z</time></trkpt><trkpt lat="40.5828691" lon="9.1283065"><ele>660.5</ele><time>2026-03-22T09:35:58.239Z</time></trkpt><trkpt lat="40.5828214" lon="9.1281868"><ele>664.0</ele><time>2026-03-22T09:35:59.239Z</time></trkpt><trkpt lat="40.5827294" lon="9.1280041"><ele>667.5</ele><time>2026-03-22T09:36:01.239Z</time></trkpt><trkpt lat="40.582692" lon="9.1279355"><ele>671.0</ele><time>2026-03-22T09:36:02.239Z</time></trkpt><trkpt lat="40.5825969" lon="9.1278438"><ele>671.0</ele><time>2026-03-22T09:36:05.239Z</time></trkpt><trkpt lat="40.5825227" lon="9.1278174"><ele>671.0</ele><time>2026-03-22T09:36:09.239Z</time></trkpt><trkpt lat="40.5824719" lon="9.1277092"><ele>671.0</ele><time>2026-03-22T09:36:49.239Z</time></trkpt><trkpt lat="40.5825149" lon="9.1275329"><ele>671.0</ele><time>2026-03-22T09:36:51.239Z</time></trkpt><trkpt lat="40.5825443" lon="9.1274168"><ele>671.0</ele><time>2026-03-22T09:36:52.239Z</time></trkpt><trkpt lat="40.5825749" lon="9.1272777"><ele>673.25</ele><time>2026-03-22T09:36:53.239Z</time></trkpt><trkpt lat="40.582613" lon="9.1271221"><ele>675.5</ele><time>2026-03-22T09:36:54.239Z</time></trkpt><trkpt lat="40.5826566" lon="9.1269736"><ele>677.75</ele><time>2026-03-22T09:36:55.239Z</time></trkpt><trkpt lat="40.582697" lon="9.1268422"><ele>680.0</ele><time>2026-03-22T09:36:56.239Z</time></trkpt><trkpt lat="40.5827224" lon="9.1267134"><ele>680.0</ele><time>2026-03-22T09:36:57.239Z</time></trkpt><trkpt lat="40.5827348" lon="9.1265934"><ele>680.0</ele><time>2026-03-22T09:36:58.239Z</time></trkpt><trkpt lat="40.582726" lon="9.126474"><ele>680.0</ele><time>2026-03-22T09:36:59.239Z</time></trkpt><trkpt lat="40.5827189" lon="9.1263648"><ele>680.0</ele><time>2026-03-22T09:37:00.239Z</time></trkpt><trkpt lat="40.5826112" lon="9.12624"><ele>680.0</ele><time>2026-03-22T09:37:01.239Z</time></trkpt><trkpt lat="40.5825223" lon="9.1261104"><ele>682.75</ele><time>2026-03-22T09:37:02.239Z</time></trkpt><trkpt lat="40.5824273" lon="9.1259753"><ele>685.5</ele><time>2026-03-22T09:37:03.239Z</time></trkpt><trkpt lat="40.5823292" lon="9.1258442"><ele>688.25</ele><time>2026-03-22T09:37:04.239Z</time></trkpt><trkpt lat="40.5822336" lon="9.1257044"><ele>691.0</ele><time>2026-03-22T09:37:05.239Z</time></trkpt><trkpt lat="40.5821332" lon="9.1255566"><ele>690.75</ele><time>2026-03-22T09:37:06.239Z</time></trkpt><trkpt lat="40.5820328" lon="9.125415"><ele>690.5</ele><time>2026-03-22T09:37:07.239Z</time></trkpt><trkpt lat="40.581926" lon="9.1252776"><ele>690.25</ele><time>2026-03-22T09:37:08.239Z</time></trkpt><trkpt lat="40.5818331" lon="9.1251372"><ele>690.0</ele><time>2026-03-22T09:37:09.239Z</time></trkpt><trkpt lat="40.5816824" lon="9.1248789"><ele>692.5</ele><time>2026-03-22T09:37:11.239Z</time></trkpt><trkpt lat="40.5816333" lon="9.1247296"><ele>695.0</ele><time>2026-03-22T09:37:12.239Z</time></trkpt><trkpt lat="40.5816079" lon="9.1245627"><ele>697.5</ele><time>2026-03-22T09:37:13.239Z</time></trkpt><trkpt lat="40.581583" lon="9.1243972"><ele>700.0</ele><time>2026-03-22T09:37:14.239Z</time></trkpt><trkpt lat="40.5815637" lon="9.1242172"><ele>701.5</ele><time>2026-03-22T09:37:15.239Z</time></trkpt><trkpt lat="40.5815594" lon="9.1238346"><ele>703.0</ele><time>2026-03-22T09:37:17.239Z</time></trkpt><trkpt lat="40.5815883" lon="9.1234307"><ele>706.3333333333334</ele><time>2026-03-22T09:37:19.239Z</time></trkpt><trkpt lat="40.5816233" lon="9.1230431"><ele>709.6666666666666</ele><time>2026-03-22T09:37:21.239Z</time></trkpt><trkpt lat="40.5816284" lon="9.1228694"><ele>713.0</ele><time>2026-03-22T09:37:22.239Z</time></trkpt><trkpt lat="40.5816139" lon="9.1226995"><ele>713.0</ele><time>2026-03-22T09:37:23.239Z</time></trkpt><trkpt lat="40.5815732" lon="9.1225172"><ele>713.0</ele><time>2026-03-22T09:37:24.239Z</time></trkpt><trkpt lat="40.5815107" lon="9.1223347"><ele>713.0</ele><time>2026-03-22T09:37:25.239Z</time></trkpt><trkpt lat="40.5813539" lon="9.1219856"><ele>711.0</ele><time>2026-03-22T09:37:27.239Z</time></trkpt><trkpt lat="40.5812821" lon="9.1218006"><ele>709.0</ele><time>2026-03-22T09:37:28.239Z</time></trkpt><trkpt lat="40.5811457" lon="9.1214092"><ele>709.0</ele><time>2026-03-22T09:37:30.239Z</time></trkpt><trkpt lat="40.5810205" lon="9.121018"><ele>709.0</ele><time>2026-03-22T09:37:32.239Z</time></trkpt><trkpt lat="40.5809198" lon="9.1206373"><ele>708.3333333333334</ele><time>2026-03-22T09:37:34.239Z</time></trkpt><trkpt lat="40.5809016" lon="9.120453"><ele>707.6666666666666</ele><time>2026-03-22T09:37:35.239Z</time></trkpt><trkpt lat="40.5809146" lon="9.1200958"><ele>707.0</ele><time>2026-03-22T09:37:37.239Z</time></trkpt><trkpt lat="40.5810316" lon="9.1197585"><ele>718.0</ele><time>2026-03-22T09:37:39.239Z</time></trkpt><trkpt lat="40.5812109" lon="9.1194623"><ele>729.0</ele><time>2026-03-22T09:37:41.239Z</time></trkpt><trkpt lat="40.5813657" lon="9.1191811"><ele>730.25</ele><time>2026-03-22T09:37:43.239Z</time></trkpt><trkpt lat="40.5814199" lon="9.1190269"><ele>731.5</ele><time>2026-03-22T09:37:44.239Z</time></trkpt><trkpt lat="40.5814211" lon="9.1188323"><ele>732.75</ele><time>2026-03-22T09:37:45.239Z</time></trkpt><trkpt lat="40.5814106" lon="9.1186324"><ele>734.0</ele><time>2026-03-22T09:37:46.239Z</time></trkpt><trkpt lat="40.5813943" lon="9.1184365"><ele>734.0</ele><time>2026-03-22T09:37:47.239Z</time></trkpt><trkpt lat="40.5813746" lon="9.118242"><ele>734.0</ele><time>2026-03-22T09:37:48.239Z</time></trkpt><trkpt lat="40.5813351" lon="9.1178653"><ele>734.0</ele><time>2026-03-22T09:37:50.239Z</time></trkpt><trkpt lat="40.58132" lon="9.1174867"><ele>737.3333333333333</ele><time>2026-03-22T09:37:52.239Z</time></trkpt><trkpt lat="40.5813432" lon="9.117108"><ele>740.6666666666666</ele><time>2026-03-22T09:37:54.239Z</time></trkpt><trkpt lat="40.5813588" lon="9.1169156"><ele>744.0</ele><time>2026-03-22T09:37:55.239Z</time></trkpt><trkpt lat="40.5813998" lon="9.1167526"><ele>745.3333333333334</ele><time>2026-03-22T09:37:56.239Z</time></trkpt><trkpt lat="40.5814417" lon="9.1164274"><ele>746.6666666666667</ele><time>2026-03-22T09:37:58.239Z</time></trkpt><trkpt lat="40.581475" lon="9.1161945"><ele>748.0</ele><time>2026-03-22T09:38:00.239Z</time></trkpt><trkpt lat="40.5814763" lon="9.1159588"><ele>749.6666666666667</ele><time>2026-03-22T09:38:02.239Z</time></trkpt><trkpt lat="40.5814467" lon="9.1157126"><ele>751.3333333333334</ele><time>2026-03-22T09:38:04.239Z</time></trkpt><trkpt lat="40.5813969" lon="9.1154671"><ele>753.0</ele><time>2026-03-22T09:38:06.239Z</time></trkpt><trkpt lat="40.5813481" lon="9.1152301"><ele>753.0</ele><time>2026-03-22T09:38:08.239Z</time></trkpt><trkpt lat="40.5812898" lon="9.1149961"><ele>753.0</ele><time>2026-03-22T09:38:10.239Z</time></trkpt><trkpt lat="40.5812509" lon="9.1147699"><ele>753.0</ele><time>2026-03-22T09:38:12.239Z</time></trkpt><trkpt lat="40.5812131" lon="9.1145675"><ele>753.3333333333334</ele><time>2026-03-22T09:38:14.239Z</time></trkpt><trkpt lat="40.5811954" lon="9.1143825"><ele>753.6666666666667</ele><time>2026-03-22T09:38:16.239Z</time></trkpt><trkpt lat="40.5812072" lon="9.1141876"><ele>754.0</ele><time>2026-03-22T09:38:18.239Z</time></trkpt><trkpt lat="40.5812653" lon="9.113973"><ele>755.0</ele><time>2026-03-22T09:38:20.239Z</time></trkpt><trkpt lat="40.5813553" lon="9.1137185"><ele>756.0</ele><time>2026-03-22T09:38:22.239Z</time></trkpt><trkpt lat="40.5813904" lon="9.1133902"><ele>757.25</ele><time>2026-03-22T09:38:24.239Z</time></trkpt><trkpt lat="40.5813947" lon="9.1132213"><ele>758.5</ele><time>2026-03-22T09:38:25.239Z</time></trkpt><trkpt lat="40.5813933" lon="9.1130438"><ele>759.75</ele><time>2026-03-22T09:38:26.239Z</time></trkpt><trkpt lat="40.5813866" lon="9.1128605"><ele>761.0</ele><time>2026-03-22T09:38:27.239Z</time></trkpt><trkpt lat="40.581391" lon="9.112709"><ele>761.0</ele><time>2026-03-22T09:38:28.239Z</time></trkpt><trkpt lat="40.5813997" lon="9.1125523"><ele>761.0</ele><time>2026-03-22T09:38:29.239Z</time></trkpt><trkpt lat="40.5814173" lon="9.1124046"><ele>761.0</ele><time>2026-03-22T09:38:30.239Z</time></trkpt><trkpt lat="40.5814372" lon="9.1122652"><ele>761.0</ele><time>2026-03-22T09:38:31.239Z</time></trkpt><trkpt lat="40.5814546" lon="9.1121253"><ele>761.0</ele><time>2026-03-22T09:38:32.239Z</time></trkpt><trkpt lat="40.581507" lon="9.1118633"><ele>761.5999999999999</ele><time>2026-03-22T09:38:34.239Z</time></trkpt><trkpt lat="40.5815375" lon="9.111732"><ele>762.2</ele><time>2026-03-22T09:38:35.239Z</time></trkpt><trkpt lat="40.5815871" lon="9.1116011"><ele>762.8</ele><time>2026-03-22T09:38:36.239Z</time></trkpt><trkpt lat="40.5816396" lon="9.1114823"><ele>763.4000000000001</ele><time>2026-03-22T09:38:37.239Z</time></trkpt><trkpt lat="40.5816875" lon="9.111377"><ele>764.0</ele><time>2026-03-22T09:38:38.239Z</time></trkpt><trkpt lat="40.5817269" lon="9.1112821"><ele>764.5</ele><time>2026-03-22T09:38:39.239Z</time></trkpt><trkpt lat="40.5817452" lon="9.1110799"><ele>765.0</ele><time>2026-03-22T09:38:41.239Z</time></trkpt><trkpt lat="40.5817297" lon="9.1109684"><ele>765.5</ele><time>2026-03-22T09:38:42.239Z</time></trkpt><trkpt lat="40.5816947" lon="9.1108647"><ele>766.0</ele><time>2026-03-22T09:38:43.239Z</time></trkpt><trkpt lat="40.581552" lon="9.1106696"><ele>770.6666666666667</ele><time>2026-03-22T09:38:45.239Z</time></trkpt><trkpt lat="40.5813983" lon="9.1104718"><ele>775.3333333333334</ele><time>2026-03-22T09:38:47.239Z</time></trkpt><trkpt lat="40.5813218" lon="9.1103781"><ele>780.0</ele><time>2026-03-22T09:38:48.239Z</time></trkpt><trkpt lat="40.5811887" lon="9.1102027"><ele>781.6666666666667</ele><time>2026-03-22T09:38:50.239Z</time></trkpt><trkpt lat="40.5810771" lon="9.1100259"><ele>783.3333333333334</ele><time>2026-03-22T09:38:52.239Z</time></trkpt><trkpt lat="40.5809842" lon="9.1098678"><ele>785.0</ele><time>2026-03-22T09:38:54.239Z</time></trkpt><trkpt lat="40.5808658" lon="9.1097233"><ele>785.0</ele><time>2026-03-22T09:38:57.239Z</time></trkpt><trkpt lat="40.580797" lon="9.1096506"><ele>785.0</ele><time>2026-03-22T09:39:10.239Z</time></trkpt><trkpt lat="40.5807115" lon="9.1096062"><ele>785.0</ele><time>2026-03-22T09:39:12.239Z</time></trkpt><trkpt lat="40.5806078" lon="9.1095633"><ele>785.0</ele><time>2026-03-22T09:39:14.239Z</time></trkpt><trkpt lat="40.5804849" lon="9.1095515"><ele>785.0</ele><time>2026-03-22T09:39:16.239Z</time></trkpt><trkpt lat="40.5803099" lon="9.1096073"><ele>784.25</ele><time>2026-03-22T09:39:19.239Z</time></trkpt><trkpt lat="40.5801931" lon="9.109633"><ele>783.5</ele><time>2026-03-22T09:39:21.239Z</time></trkpt><trkpt lat="40.5800648" lon="9.1096388"><ele>782.75</ele><time>2026-03-22T09:39:23.239Z</time></trkpt><trkpt lat="40.5799227" lon="9.1096442"><ele>782.0</ele><time>2026-03-22T09:39:25.239Z</time></trkpt><trkpt lat="40.5797853" lon="9.1096141"><ele>782.0</ele><time>2026-03-22T09:39:27.239Z</time></trkpt><trkpt lat="40.5796342" lon="9.1095439"><ele>782.0</ele><time>2026-03-22T09:39:30.239Z</time></trkpt><trkpt lat="40.5795505" lon="9.1094252"><ele>782.0</ele><time>2026-03-22T09:39:32.239Z</time></trkpt><trkpt lat="40.5795434" lon="9.1093183"><ele>782.0</ele><time>2026-03-22T09:39:33.239Z</time></trkpt><trkpt lat="40.5794998" lon="9.1091349"><ele>778.3333333333334</ele><time>2026-03-22T09:39:35.239Z</time></trkpt><trkpt lat="40.5794371" lon="9.1088981"><ele>774.6666666666667</ele><time>2026-03-22T09:39:37.239Z</time></trkpt><trkpt lat="40.5794086" lon="9.1086466"><ele>771.0</ele><time>2026-03-22T09:39:39.239Z</time></trkpt><trkpt lat="40.5793847" lon="9.1085312"><ele>771.0</ele><time>2026-03-22T09:39:40.239Z</time></trkpt><trkpt lat="40.5793588" lon="9.1084265"><ele>771.0</ele><time>2026-03-22T09:39:41.239Z</time></trkpt><trkpt lat="40.5793208" lon="9.1083057"><ele>771.0</ele><time>2026-03-22T09:39:42.239Z</time></trkpt><trkpt lat="40.5792397" lon="9.1080958"><ele>771.0</ele><time>2026-03-22T09:39:44.239Z</time></trkpt><trkpt lat="40.5791528" lon="9.1078814"><ele>774.1999999999999</ele><time>2026-03-22T09:39:46.239Z</time></trkpt><trkpt lat="40.5791128" lon="9.1077772"><ele>777.4</ele><time>2026-03-22T09:39:47.239Z</time></trkpt><trkpt lat="40.5790576" lon="9.1076924"><ele>780.6</ele><time>2026-03-22T09:39:48.239Z</time></trkpt><trkpt lat="40.5790127" lon="9.1076146"><ele>783.8</ele><time>2026-03-22T09:39:49.239Z</time></trkpt><trkpt lat="40.5789346" lon="9.1074462"><ele>787.0</ele><time>2026-03-22T09:39:51.239Z</time></trkpt><trkpt lat="40.5788756" lon="9.1072979"><ele>789.7142857142857</ele><time>2026-03-22T09:39:53.239Z</time></trkpt><trkpt lat="40.578835" lon="9.1072006"><ele>792.4285714285713</ele><time>2026-03-22T09:39:55.239Z</time></trkpt><trkpt lat="40.5788118" lon="9.1071228"><ele>795.1428571428571</ele><time>2026-03-22T09:39:57.239Z</time></trkpt><trkpt lat="40.5787764" lon="9.1070448"><ele>797.8571428571429</ele><time>2026-03-22T09:40:00.239Z</time></trkpt><trkpt lat="40.5787338" lon="9.1069737"><ele>800.5714285714286</ele><time>2026-03-22T09:40:40.241Z</time></trkpt><trkpt lat="40.5786953" lon="9.1070504"><ele>803.2857142857143</ele><time>2026-03-22T09:45:18.241Z</time></trkpt><trkpt lat="40.578722" lon="9.1069725"><ele>806.0</ele><time>2026-03-22T09:46:33.241Z</time></trkpt><trkpt lat="40.5787719" lon="9.1070279"><ele>806.0000000000001</ele><time>2026-03-22T09:50:47.24Z</time></trkpt><trkpt lat="40.5787172" lon="9.1069606"><ele>806.0</ele><time>2026-03-22T10:01:40.237Z</time></trkpt><trkpt lat="40.5786249" lon="9.1069224"><ele>806.0</ele><time>2026-03-22T10:01:42.237Z</time></trkpt><trkpt lat="40.5785146" lon="9.1068501"><ele>806.0</ele><time>2026-03-22T10:01:44.237Z</time></trkpt><trkpt lat="40.5784594" lon="9.1068034"><ele>806.0000000000001</ele><time>2026-03-22T10:01:45.237Z</time></trkpt><trkpt lat="40.5783984" lon="9.1067482"><ele>806.0</ele><time>2026-03-22T10:01:46.237Z</time></trkpt><trkpt lat="40.5783413" lon="9.1066843"><ele>804.5999999999999</ele><time>2026-03-22T10:01:47.237Z</time></trkpt><trkpt lat="40.5782833" lon="9.1066113"><ele>803.2</ele><time>2026-03-22T10:01:48.237Z</time></trkpt><trkpt lat="40.5782277" lon="9.1065319"><ele>801.8</ele><time>2026-03-22T10:01:49.237Z</time></trkpt><trkpt lat="40.5781704" lon="9.1064498"><ele>800.4000000000001</ele><time>2026-03-22T10:01:50.237Z</time></trkpt><trkpt lat="40.5780423" lon="9.106281"><ele>799.0</ele><time>2026-03-22T10:01:52.237Z</time></trkpt><trkpt lat="40.5779092" lon="9.1061184"><ele>797.75</ele><time>2026-03-22T10:01:54.237Z</time></trkpt><trkpt lat="40.5778414" lon="9.1060502"><ele>796.5</ele><time>2026-03-22T10:01:55.237Z</time></trkpt><trkpt lat="40.5777649" lon="9.1059797"><ele>795.25</ele><time>2026-03-22T10:01:56.237Z</time></trkpt><trkpt lat="40.5776842" lon="9.1059052"><ele>794.0</ele><time>2026-03-22T10:01:57.237Z</time></trkpt><trkpt lat="40.5775095" lon="9.1057427"><ele>794.0</ele><time>2026-03-22T10:01:59.237Z</time></trkpt><trkpt lat="40.5774229" lon="9.1056489"><ele>794.0</ele><time>2026-03-22T10:02:00.237Z</time></trkpt><trkpt lat="40.5772371" lon="9.1054492"><ele>794.0</ele><time>2026-03-22T10:02:02.237Z</time></trkpt><trkpt lat="40.5771476" lon="9.1053395"><ele>794.0</ele><time>2026-03-22T10:02:03.237Z</time></trkpt><trkpt lat="40.5770633" lon="9.1052228"><ele>794.0</ele><time>2026-03-22T10:02:04.237Z</time></trkpt><trkpt lat="40.5769051" lon="9.1049765"><ele>794.0</ele><time>2026-03-22T10:02:06.237Z</time></trkpt><trkpt lat="40.5767582" lon="9.1047029"><ele>786.0</ele><time>2026-03-22T10:02:08.237Z</time></trkpt><trkpt lat="40.5766486" lon="9.1044245"><ele>778.0</ele><time>2026-03-22T10:02:10.237Z</time></trkpt><trkpt lat="40.5766196" lon="9.1042816"><ele>770.0</ele><time>2026-03-22T10:02:11.237Z</time></trkpt><trkpt lat="40.5766083" lon="9.1039922"><ele>769.0</ele><time>2026-03-22T10:02:13.237Z</time></trkpt><trkpt lat="40.5766559" lon="9.1036796"><ele>768.0</ele><time>2026-03-22T10:02:15.237Z</time></trkpt><trkpt lat="40.5766982" lon="9.1033592"><ele>769.3333333333333</ele><time>2026-03-22T10:02:17.237Z</time></trkpt><trkpt lat="40.5767035" lon="9.1031912"><ele>770.6666666666666</ele><time>2026-03-22T10:02:18.237Z</time></trkpt><trkpt lat="40.5766061" lon="9.1028516"><ele>772.0</ele><time>2026-03-22T10:02:20.237Z</time></trkpt><trkpt lat="40.5764708" lon="9.1025207"><ele>773.5</ele><time>2026-03-22T10:02:22.237Z</time></trkpt><trkpt lat="40.576406" lon="9.1023691"><ele>775.0</ele><time>2026-03-22T10:02:23.237Z</time></trkpt><trkpt lat="40.5763405" lon="9.1022222"><ele>776.5</ele><time>2026-03-22T10:02:24.237Z</time></trkpt><trkpt lat="40.5762812" lon="9.1020739"><ele>778.0</ele><time>2026-03-22T10:02:25.237Z</time></trkpt><trkpt lat="40.5762206" lon="9.1019169"><ele>775.0</ele><time>2026-03-22T10:02:26.237Z</time></trkpt><trkpt lat="40.5761612" lon="9.1017731"><ele>772.0</ele><time>2026-03-22T10:02:27.237Z</time></trkpt><trkpt lat="40.5760964" lon="9.1016218"><ele>769.0</ele><time>2026-03-22T10:02:28.237Z</time></trkpt><trkpt lat="40.5760306" lon="9.1014686"><ele>766.0</ele><time>2026-03-22T10:02:29.237Z</time></trkpt><trkpt lat="40.5759591" lon="9.1013128"><ele>766.0</ele><time>2026-03-22T10:02:30.237Z</time></trkpt><trkpt lat="40.575889" lon="9.1011573"><ele>766.0</ele><time>2026-03-22T10:02:31.237Z</time></trkpt><trkpt lat="40.5758318" lon="9.101003"><ele>766.0</ele><time>2026-03-22T10:02:32.237Z</time></trkpt><trkpt lat="40.5757667" lon="9.1008626"><ele>766.0</ele><time>2026-03-22T10:02:33.237Z</time></trkpt><trkpt lat="40.575704" lon="9.1007243"><ele>766.3333333333334</ele><time>2026-03-22T10:02:34.237Z</time></trkpt><trkpt lat="40.5756441" lon="9.1005804"><ele>766.6666666666666</ele><time>2026-03-22T10:02:35.237Z</time></trkpt><trkpt lat="40.5755365" lon="9.1002894"><ele>767.0</ele><time>2026-03-22T10:02:37.237Z</time></trkpt><trkpt lat="40.5754972" lon="9.1001622"><ele>767.0</ele><time>2026-03-22T10:02:38.237Z</time></trkpt><trkpt lat="40.57547" lon="9.1000172"><ele>767.0</ele><time>2026-03-22T10:02:39.237Z</time></trkpt><trkpt lat="40.5754956" lon="9.0997067"><ele>767.0</ele><time>2026-03-22T10:02:41.237Z</time></trkpt><trkpt lat="40.5756188" lon="9.0994289"><ele>766.25</ele><time>2026-03-22T10:02:43.237Z</time></trkpt><trkpt lat="40.5756924" lon="9.0992973"><ele>765.5</ele><time>2026-03-22T10:02:44.237Z</time></trkpt><trkpt lat="40.5757485" lon="9.099146"><ele>764.75</ele><time>2026-03-22T10:02:45.237Z</time></trkpt><trkpt lat="40.5757678" lon="9.0989698"><ele>764.0</ele><time>2026-03-22T10:02:46.237Z</time></trkpt><trkpt lat="40.5757656" lon="9.0987747"><ele>763.5</ele><time>2026-03-22T10:02:47.237Z</time></trkpt><trkpt lat="40.5757683" lon="9.0985785"><ele>763.0</ele><time>2026-03-22T10:02:48.237Z</time></trkpt><trkpt lat="40.5757773" lon="9.0983851"><ele>762.5</ele><time>2026-03-22T10:02:49.237Z</time></trkpt><trkpt lat="40.575779" lon="9.0981859"><ele>762.0</ele><time>2026-03-22T10:02:50.237Z</time></trkpt><trkpt lat="40.5757625" lon="9.0979963"><ele>762.0</ele><time>2026-03-22T10:02:51.237Z</time></trkpt><trkpt lat="40.5757245" lon="9.0978148"><ele>762.0</ele><time>2026-03-22T10:02:52.237Z</time></trkpt><trkpt lat="40.5756505" lon="9.0976443"><ele>762.0</ele><time>2026-03-22T10:02:53.237Z</time></trkpt><trkpt lat="40.5755488" lon="9.0974912"><ele>762.0</ele><time>2026-03-22T10:02:54.237Z</time></trkpt><trkpt lat="40.5754263" lon="9.0973612"><ele>760.5</ele><time>2026-03-22T10:02:55.237Z</time></trkpt><trkpt lat="40.5752997" lon="9.0972402"><ele>759.0</ele><time>2026-03-22T10:02:56.237Z</time></trkpt><trkpt lat="40.5751844" lon="9.0971323"><ele>757.5</ele><time>2026-03-22T10:02:57.237Z</time></trkpt><trkpt lat="40.5750788" lon="9.0970318"><ele>756.0</ele><time>2026-03-22T10:02:58.237Z</time></trkpt><trkpt lat="40.574985" lon="9.0969207"><ele>756.0</ele><time>2026-03-22T10:02:59.237Z</time></trkpt><trkpt lat="40.5749159" lon="9.0967966"><ele>756.0</ele><time>2026-03-22T10:03:00.237Z</time></trkpt><trkpt lat="40.5748706" lon="9.0966617"><ele>756.0</ele><time>2026-03-22T10:03:01.237Z</time></trkpt><trkpt lat="40.5748522" lon="9.0965094"><ele>756.0</ele><time>2026-03-22T10:03:02.237Z</time></trkpt><trkpt lat="40.5748391" lon="9.0963388"><ele>757.6666666666666</ele><time>2026-03-22T10:03:03.237Z</time></trkpt><trkpt lat="40.5748346" lon="9.096155"><ele>759.3333333333333</ele><time>2026-03-22T10:03:04.237Z</time></trkpt><trkpt lat="40.5748333" lon="9.0959545"><ele>761.0</ele><time>2026-03-22T10:03:05.237Z</time></trkpt><trkpt lat="40.57483" lon="9.0957422"><ele>761.6666666666666</ele><time>2026-03-22T10:03:06.237Z</time></trkpt><trkpt lat="40.5748425" lon="9.0955329"><ele>762.3333333333334</ele><time>2026-03-22T10:03:07.237Z</time></trkpt><trkpt lat="40.5748432" lon="9.0953244"><ele>763.0</ele><time>2026-03-22T10:03:08.237Z</time></trkpt><trkpt lat="40.5748264" lon="9.0951275"><ele>763.0</ele><time>2026-03-22T10:03:09.237Z</time></trkpt><trkpt lat="40.5747966" lon="9.0949236"><ele>763.0</ele><time>2026-03-22T10:03:10.237Z</time></trkpt><trkpt lat="40.5747321" lon="9.0947225"><ele>763.0</ele><time>2026-03-22T10:03:11.237Z</time></trkpt><trkpt lat="40.5746506" lon="9.0945275"><ele>764.6666666666667</ele><time>2026-03-22T10:03:12.237Z</time></trkpt><trkpt lat="40.5745631" lon="9.0943376"><ele>766.3333333333334</ele><time>2026-03-22T10:03:13.237Z</time></trkpt><trkpt lat="40.5744801" lon="9.0941542"><ele>768.0</ele><time>2026-03-22T10:03:14.237Z</time></trkpt><trkpt lat="40.5744095" lon="9.0939888"><ele>760.6666666666666</ele><time>2026-03-22T10:03:15.237Z</time></trkpt><trkpt lat="40.5743532" lon="9.0938367"><ele>753.3333333333333</ele><time>2026-03-22T10:03:16.237Z</time></trkpt><trkpt lat="40.5743243" lon="9.0936813"><ele>746.0</ele><time>2026-03-22T10:03:17.237Z</time></trkpt><trkpt lat="40.5743508" lon="9.0933875"><ele>745.25</ele><time>2026-03-22T10:03:19.237Z</time></trkpt><trkpt lat="40.5744078" lon="9.0932409"><ele>744.5</ele><time>2026-03-22T10:03:20.237Z</time></trkpt><trkpt lat="40.5744738" lon="9.0930945"><ele>743.75</ele><time>2026-03-22T10:03:21.237Z</time></trkpt><trkpt lat="40.5745255" lon="9.0929354"><ele>743.0</ele><time>2026-03-22T10:03:22.237Z</time></trkpt><trkpt lat="40.5745146" lon="9.0926091"><ele>743.0</ele><time>2026-03-22T10:03:24.237Z</time></trkpt><trkpt lat="40.5744467" lon="9.0924477"><ele>743.0</ele><time>2026-03-22T10:03:25.237Z</time></trkpt><trkpt lat="40.5743824" lon="9.0922776"><ele>743.0</ele><time>2026-03-22T10:03:26.237Z</time></trkpt><trkpt lat="40.5743395" lon="9.0920904"><ele>743.0</ele><time>2026-03-22T10:03:27.237Z</time></trkpt><trkpt lat="40.5743001" lon="9.0918834"><ele>744.6666666666666</ele><time>2026-03-22T10:03:28.237Z</time></trkpt><trkpt lat="40.5742601" lon="9.0916874"><ele>746.3333333333334</ele><time>2026-03-22T10:03:29.237Z</time></trkpt><trkpt lat="40.5741971" lon="9.091495"><ele>748.0</ele><time>2026-03-22T10:03:30.237Z</time></trkpt><trkpt lat="40.5741148" lon="9.0913059"><ele>751.6666666666667</ele><time>2026-03-22T10:03:31.237Z</time></trkpt><trkpt lat="40.57401" lon="9.091128"><ele>755.3333333333334</ele><time>2026-03-22T10:03:32.237Z</time></trkpt><trkpt lat="40.5738772" lon="9.0909903"><ele>759.0</ele><time>2026-03-22T10:03:33.237Z</time></trkpt><trkpt lat="40.5737245" lon="9.0908732"><ele>756.6666666666666</ele><time>2026-03-22T10:03:34.237Z</time></trkpt><trkpt lat="40.5735721" lon="9.0907656"><ele>754.3333333333333</ele><time>2026-03-22T10:03:35.237Z</time></trkpt><trkpt lat="40.5734215" lon="9.0906577"><ele>752.0</ele><time>2026-03-22T10:03:36.237Z</time></trkpt><trkpt lat="40.5732828" lon="9.0905524"><ele>752.0</ele><time>2026-03-22T10:03:37.237Z</time></trkpt><trkpt lat="40.5731608" lon="9.0904287"><ele>752.0</ele><time>2026-03-22T10:03:38.237Z</time></trkpt><trkpt lat="40.5730621" lon="9.090285"><ele>752.0</ele><time>2026-03-22T10:03:39.237Z</time></trkpt><trkpt lat="40.5729819" lon="9.090126"><ele>752.0</ele><time>2026-03-22T10:03:40.237Z</time></trkpt><trkpt lat="40.5729178" lon="9.0899592"><ele>751.5</ele><time>2026-03-22T10:03:41.237Z</time></trkpt><trkpt lat="40.5728489" lon="9.0898014"><ele>751.0</ele><time>2026-03-22T10:03:42.237Z</time></trkpt><trkpt lat="40.5727645" lon="9.0896758"><ele>750.5</ele><time>2026-03-22T10:03:43.237Z</time></trkpt><trkpt lat="40.5726561" lon="9.0895971"><ele>750.0</ele><time>2026-03-22T10:03:44.237Z</time></trkpt><trkpt lat="40.5725349" lon="9.0895664"><ele>750.0</ele><time>2026-03-22T10:03:45.237Z</time></trkpt><trkpt lat="40.5724085" lon="9.0895925"><ele>750.0</ele><time>2026-03-22T10:03:46.237Z</time></trkpt><trkpt lat="40.5722825" lon="9.0896551"><ele>750.0</ele><time>2026-03-22T10:03:47.237Z</time></trkpt><trkpt lat="40.5721522" lon="9.0897478"><ele>750.0</ele><time>2026-03-22T10:03:48.237Z</time></trkpt><trkpt lat="40.5720295" lon="9.0898418"><ele>748.75</ele><time>2026-03-22T10:03:49.237Z</time></trkpt><trkpt lat="40.5719111" lon="9.0899216"><ele>747.5</ele><time>2026-03-22T10:03:50.237Z</time></trkpt><trkpt lat="40.5717859" lon="9.0899818"><ele>746.25</ele><time>2026-03-22T10:03:51.237Z</time></trkpt><trkpt lat="40.571655" lon="9.0899975"><ele>745.0</ele><time>2026-03-22T10:03:52.237Z</time></trkpt><trkpt lat="40.5715247" lon="9.0899834"><ele>745.0</ele><time>2026-03-22T10:03:53.237Z</time></trkpt><trkpt lat="40.5713829" lon="9.0899518"><ele>745.0</ele><time>2026-03-22T10:03:54.237Z</time></trkpt><trkpt lat="40.5712443" lon="9.0899175"><ele>745.0</ele><time>2026-03-22T10:03:55.237Z</time></trkpt><trkpt lat="40.5711107" lon="9.0898801"><ele>745.0</ele><time>2026-03-22T10:03:56.237Z</time></trkpt><trkpt lat="40.5709807" lon="9.0898299"><ele>741.75</ele><time>2026-03-22T10:03:57.237Z</time></trkpt><trkpt lat="40.5708664" lon="9.0897523"><ele>738.5</ele><time>2026-03-22T10:03:58.237Z</time></trkpt><trkpt lat="40.5707617" lon="9.0896384"><ele>735.25</ele><time>2026-03-22T10:03:59.237Z</time></trkpt><trkpt lat="40.5706713" lon="9.0895078"><ele>732.0</ele><time>2026-03-22T10:04:00.237Z</time></trkpt><trkpt lat="40.5705976" lon="9.0893604"><ele>732.0</ele><time>2026-03-22T10:04:01.237Z</time></trkpt><trkpt lat="40.5705331" lon="9.0892172"><ele>732.0</ele><time>2026-03-22T10:04:02.237Z</time></trkpt><trkpt lat="40.5705045" lon="9.089079"><ele>732.0</ele><time>2026-03-22T10:04:03.237Z</time></trkpt><trkpt lat="40.570502" lon="9.0889512"><ele>732.0</ele><time>2026-03-22T10:04:04.237Z</time></trkpt><trkpt lat="40.5705308" lon="9.0888238"><ele>732.0</ele><time>2026-03-22T10:04:05.237Z</time></trkpt><trkpt lat="40.5705724" lon="9.0887011"><ele>732.0</ele><time>2026-03-22T10:04:06.237Z</time></trkpt><trkpt lat="40.5706139" lon="9.0885826"><ele>732.0</ele><time>2026-03-22T10:04:07.237Z</time></trkpt><trkpt lat="40.5706388" lon="9.0884501"><ele>732.0</ele><time>2026-03-22T10:04:08.237Z</time></trkpt><trkpt lat="40.5706162" lon="9.0883175"><ele>732.0</ele><time>2026-03-22T10:04:09.237Z</time></trkpt><trkpt lat="40.5705437" lon="9.088198"><ele>732.0</ele><time>2026-03-22T10:04:10.237Z</time></trkpt><trkpt lat="40.5704502" lon="9.0880906"><ele>729.0</ele><time>2026-03-22T10:04:11.237Z</time></trkpt><trkpt lat="40.5703401" lon="9.0879731"><ele>726.0</ele><time>2026-03-22T10:04:12.237Z</time></trkpt><trkpt lat="40.57022" lon="9.0878498"><ele>723.0</ele><time>2026-03-22T10:04:13.237Z</time></trkpt><trkpt lat="40.5700942" lon="9.0877141"><ele>723.0</ele><time>2026-03-22T10:04:14.237Z</time></trkpt><trkpt lat="40.5699608" lon="9.0875778"><ele>723.0</ele><time>2026-03-22T10:04:15.237Z</time></trkpt><trkpt lat="40.5698329" lon="9.0874439"><ele>723.0</ele><time>2026-03-22T10:04:16.237Z</time></trkpt><trkpt lat="40.5697143" lon="9.0872984"><ele>720.3333333333334</ele><time>2026-03-22T10:04:17.237Z</time></trkpt><trkpt lat="40.5696082" lon="9.0871453"><ele>717.6666666666667</ele><time>2026-03-22T10:04:18.237Z</time></trkpt><trkpt lat="40.5695014" lon="9.0869923"><ele>715.0</ele><time>2026-03-22T10:04:19.237Z</time></trkpt><trkpt lat="40.5693878" lon="9.0868465"><ele>715.0</ele><time>2026-03-22T10:04:20.237Z</time></trkpt><trkpt lat="40.56926" lon="9.0867149"><ele>715.0</ele><time>2026-03-22T10:04:21.237Z</time></trkpt><trkpt lat="40.5691295" lon="9.0866071"><ele>715.0</ele><time>2026-03-22T10:04:22.237Z</time></trkpt><trkpt lat="40.5689907" lon="9.0865284"><ele>712.75</ele><time>2026-03-22T10:04:23.237Z</time></trkpt><trkpt lat="40.5688602" lon="9.0864643"><ele>710.5</ele><time>2026-03-22T10:04:24.237Z</time></trkpt><trkpt lat="40.568744" lon="9.0864073"><ele>708.25</ele><time>2026-03-22T10:04:25.237Z</time></trkpt><trkpt lat="40.5686435" lon="9.0863279"><ele>706.0</ele><time>2026-03-22T10:04:26.237Z</time></trkpt><trkpt lat="40.5685684" lon="9.0862248"><ele>706.0</ele><time>2026-03-22T10:04:27.237Z</time></trkpt><trkpt lat="40.5685142" lon="9.0860923"><ele>706.0</ele><time>2026-03-22T10:04:28.237Z</time></trkpt><trkpt lat="40.5684787" lon="9.0859349"><ele>706.0</ele><time>2026-03-22T10:04:29.237Z</time></trkpt><trkpt lat="40.56844" lon="9.0857612"><ele>706.0</ele><time>2026-03-22T10:04:30.237Z</time></trkpt><trkpt lat="40.5684009" lon="9.0855709"><ele>707.0</ele><time>2026-03-22T10:04:31.237Z</time></trkpt><trkpt lat="40.5683583" lon="9.0853697"><ele>708.0</ele><time>2026-03-22T10:04:32.237Z</time></trkpt><trkpt lat="40.5683156" lon="9.0851771"><ele>709.0</ele><time>2026-03-22T10:04:33.237Z</time></trkpt><trkpt lat="40.568275" lon="9.0849879"><ele>709.75</ele><time>2026-03-22T10:04:34.237Z</time></trkpt><trkpt lat="40.56824" lon="9.0848119"><ele>710.5</ele><time>2026-03-22T10:04:35.237Z</time></trkpt><trkpt lat="40.5682025" lon="9.0846469"><ele>711.25</ele><time>2026-03-22T10:04:36.237Z</time></trkpt><trkpt lat="40.5681697" lon="9.0845033"><ele>712.0</ele><time>2026-03-22T10:04:37.237Z</time></trkpt><trkpt lat="40.5681277" lon="9.0843726"><ele>712.0</ele><time>2026-03-22T10:04:38.237Z</time></trkpt><trkpt lat="40.5680747" lon="9.0842692"><ele>712.0</ele><time>2026-03-22T10:04:39.237Z</time></trkpt><trkpt lat="40.5679926" lon="9.0842173"><ele>712.0</ele><time>2026-03-22T10:04:40.237Z</time></trkpt><trkpt lat="40.5678999" lon="9.0842073"><ele>712.0</ele><time>2026-03-22T10:04:41.237Z</time></trkpt><trkpt lat="40.5677944" lon="9.0842134"><ele>712.0</ele><time>2026-03-22T10:04:42.237Z</time></trkpt><trkpt lat="40.5676792" lon="9.0842034"><ele>711.0</ele><time>2026-03-22T10:04:43.237Z</time></trkpt><trkpt lat="40.5674327" lon="9.0840935"><ele>710.0</ele><time>2026-03-22T10:04:45.237Z</time></trkpt><trkpt lat="40.5671735" lon="9.0839936"><ele>707.0</ele><time>2026-03-22T10:04:47.237Z</time></trkpt><trkpt lat="40.5669014" lon="9.0840138"><ele>704.0</ele><time>2026-03-22T10:04:49.237Z</time></trkpt><trkpt lat="40.5666855" lon="9.0840575"><ele>704.0</ele><time>2026-03-22T10:04:51.237Z</time></trkpt><trkpt lat="40.5665004" lon="9.0840053"><ele>704.0</ele><time>2026-03-22T10:04:53.237Z</time></trkpt><trkpt lat="40.5664177" lon="9.0839341"><ele>704.0</ele><time>2026-03-22T10:04:54.237Z</time></trkpt><trkpt lat="40.5662669" lon="9.0836962"><ele>702.6666666666666</ele><time>2026-03-22T10:04:56.237Z</time></trkpt><trkpt lat="40.5661031" lon="9.0834018"><ele>701.3333333333334</ele><time>2026-03-22T10:04:58.237Z</time></trkpt><trkpt lat="40.5660251" lon="9.0832676"><ele>700.0</ele><time>2026-03-22T10:04:59.237Z</time></trkpt><trkpt lat="40.5658565" lon="9.0830427"><ele>700.0</ele><time>2026-03-22T10:05:01.237Z</time></trkpt><trkpt lat="40.5656408" lon="9.0829078"><ele>700.0</ele><time>2026-03-22T10:05:03.237Z</time></trkpt><trkpt lat="40.5655108" lon="9.0829491"><ele>700.0</ele><time>2026-03-22T10:05:04.237Z</time></trkpt><trkpt lat="40.5653018" lon="9.0831592"><ele>697.0</ele><time>2026-03-22T10:05:06.237Z</time></trkpt><trkpt lat="40.5650714" lon="9.0834647"><ele>694.0</ele><time>2026-03-22T10:05:08.237Z</time></trkpt><trkpt lat="40.5648373" lon="9.0837726"><ele>694.0</ele><time>2026-03-22T10:05:10.237Z</time></trkpt><trkpt lat="40.5645973" lon="9.0840776"><ele>694.0</ele><time>2026-03-22T10:05:12.237Z</time></trkpt><trkpt lat="40.5644954" lon="9.0842089"><ele>693.6666666666667</ele><time>2026-03-22T10:05:13.237Z</time></trkpt><trkpt lat="40.5644005" lon="9.0843279"><ele>693.3333333333334</ele><time>2026-03-22T10:05:14.237Z</time></trkpt><trkpt lat="40.5642078" lon="9.0845231"><ele>693.0</ele><time>2026-03-22T10:05:16.237Z</time></trkpt><trkpt lat="40.5639673" lon="9.084622"><ele>690.5</ele><time>2026-03-22T10:05:18.237Z</time></trkpt><trkpt lat="40.5636838" lon="9.0846561"><ele>688.0</ele><time>2026-03-22T10:05:20.237Z</time></trkpt><trkpt lat="40.5634177" lon="9.0847047"><ele>688.0</ele><time>2026-03-22T10:05:22.237Z</time></trkpt><trkpt lat="40.5631874" lon="9.0846865"><ele>688.0</ele><time>2026-03-22T10:05:24.237Z</time></trkpt><trkpt lat="40.5630881" lon="9.0846469"><ele>688.0</ele><time>2026-03-22T10:05:25.237Z</time></trkpt><trkpt lat="40.5629978" lon="9.0845853"><ele>688.0</ele><time>2026-03-22T10:05:26.237Z</time></trkpt><trkpt lat="40.5629182" lon="9.0845176"><ele>686.2</ele><time>2026-03-22T10:05:27.237Z</time></trkpt><trkpt lat="40.562838" lon="9.0844568"><ele>684.4</ele><time>2026-03-22T10:05:28.237Z</time></trkpt><trkpt lat="40.5627623" lon="9.0843902"><ele>682.6</ele><time>2026-03-22T10:05:29.237Z</time></trkpt><trkpt lat="40.5626923" lon="9.0843307"><ele>680.8000000000001</ele><time>2026-03-22T10:05:30.237Z</time></trkpt><trkpt lat="40.5626279" lon="9.084272"><ele>679.0</ele><time>2026-03-22T10:05:31.237Z</time></trkpt><trkpt lat="40.5624833" lon="9.0841375"><ele>680.6666666666667</ele><time>2026-03-22T10:05:33.237Z</time></trkpt><trkpt lat="40.5623294" lon="9.0839436"><ele>682.3333333333334</ele><time>2026-03-22T10:05:35.237Z</time></trkpt><trkpt lat="40.5622566" lon="9.0838158"><ele>684.0</ele><time>2026-03-22T10:05:36.237Z</time></trkpt><trkpt lat="40.5621923" lon="9.083667"><ele>684.0</ele><time>2026-03-22T10:05:37.237Z</time></trkpt><trkpt lat="40.5621415" lon="9.0835177"><ele>684.0</ele><time>2026-03-22T10:05:38.237Z</time></trkpt><trkpt lat="40.5621012" lon="9.0833626"><ele>684.0</ele><time>2026-03-22T10:05:39.237Z</time></trkpt><trkpt lat="40.5620851" lon="9.083032"><ele>684.0</ele><time>2026-03-22T10:05:41.237Z</time></trkpt><trkpt lat="40.5621102" lon="9.082712"><ele>684.0</ele><time>2026-03-22T10:05:43.237Z</time></trkpt><trkpt lat="40.5621178" lon="9.0825639"><ele>684.0</ele><time>2026-03-22T10:05:44.237Z</time></trkpt><trkpt lat="40.5621066" lon="9.0822883"><ele>684.0</ele><time>2026-03-22T10:05:46.237Z</time></trkpt><trkpt lat="40.5621037" lon="9.0821676"><ele>684.0</ele><time>2026-03-22T10:05:47.237Z</time></trkpt><trkpt lat="40.5620951" lon="9.081994"><ele>684.0</ele><time>2026-03-22T10:05:49.237Z</time></trkpt><trkpt lat="40.5620814" lon="9.0818825"><ele>684.0</ele><time>2026-03-22T10:05:51.237Z</time></trkpt><trkpt lat="40.5620645" lon="9.0817807"><ele>684.0</ele><time>2026-03-22T10:05:55.237Z</time></trkpt><trkpt lat="40.5620059" lon="9.0817004"><ele>682.5</ele><time>2026-03-22T10:06:40.237Z</time></trkpt><trkpt lat="40.5618707" lon="9.0818355"><ele>681.0</ele><time>2026-03-22T10:06:42.237Z</time></trkpt><trkpt lat="40.5618128" lon="9.0819717"><ele>679.5</ele><time>2026-03-22T10:06:44.237Z</time></trkpt><trkpt lat="40.5618032" lon="9.08207"><ele>678.0</ele><time>2026-03-22T10:06:45.237Z</time></trkpt><trkpt lat="40.5617985" lon="9.0821969"><ele>677.5</ele><time>2026-03-22T10:06:46.237Z</time></trkpt><trkpt lat="40.5618043" lon="9.0824537"><ele>677.0</ele><time>2026-03-22T10:06:48.237Z</time></trkpt><trkpt lat="40.5618083" lon="9.0825713"><ele>676.5</ele><time>2026-03-22T10:06:49.237Z</time></trkpt><trkpt lat="40.5618061" lon="9.0826899"><ele>676.0</ele><time>2026-03-22T10:06:50.237Z</time></trkpt><trkpt lat="40.5617987" lon="9.0828896"><ele>676.0</ele><time>2026-03-22T10:06:52.237Z</time></trkpt><trkpt lat="40.5617849" lon="9.0830466"><ele>676.0</ele><time>2026-03-22T10:06:54.237Z</time></trkpt><trkpt lat="40.5617867" lon="9.0831754"><ele>676.0</ele><time>2026-03-22T10:06:56.237Z</time></trkpt><trkpt lat="40.5617845" lon="9.083272"><ele>676.0</ele><time>2026-03-22T10:06:59.237Z</time></trkpt><trkpt lat="40.5617837" lon="9.0833611"><ele>676.0</ele><time>2026-03-22T10:09:24.236Z</time></trkpt><trkpt lat="40.5618107" lon="9.0835057"><ele>675.5</ele><time>2026-03-22T10:09:26.236Z</time></trkpt><trkpt lat="40.5618107" lon="9.0835959"><ele>675.0</ele><time>2026-03-22T10:09:27.236Z</time></trkpt><trkpt lat="40.5618096" lon="9.0837027"><ele>674.5</ele><time>2026-03-22T10:09:28.236Z</time></trkpt><trkpt lat="40.5617961" lon="9.0838119"><ele>674.0</ele><time>2026-03-22T10:09:29.236Z</time></trkpt><trkpt lat="40.56177" lon="9.0839276"><ele>673.5</ele><time>2026-03-22T10:09:30.236Z</time></trkpt><trkpt lat="40.5617625" lon="9.0840547"><ele>673.0</ele><time>2026-03-22T10:09:31.236Z</time></trkpt><trkpt lat="40.5615855" lon="9.0843175"><ele>672.0</ele><time>2026-03-22T10:09:33.236Z</time></trkpt><trkpt lat="40.5615054" lon="9.0844599"><ele>671.0</ele><time>2026-03-22T10:09:34.236Z</time></trkpt><trkpt lat="40.5614157" lon="9.0846129"><ele>670.0</ele><time>2026-03-22T10:09:35.236Z</time></trkpt><trkpt lat="40.5613231" lon="9.0847603"><ele>669.0</ele><time>2026-03-22T10:09:36.236Z</time></trkpt><trkpt lat="40.5612218" lon="9.0849259"><ele>671.0</ele><time>2026-03-22T10:09:37.236Z</time></trkpt><trkpt lat="40.5610365" lon="9.0852389"><ele>673.0</ele><time>2026-03-22T10:09:39.236Z</time></trkpt><trkpt lat="40.5609373" lon="9.0854132"><ele>673.0</ele><time>2026-03-22T10:09:40.236Z</time></trkpt><trkpt lat="40.5607302" lon="9.0857584"><ele>673.0</ele><time>2026-03-22T10:09:42.236Z</time></trkpt><trkpt lat="40.5606222" lon="9.0859343"><ele>672.0</ele><time>2026-03-22T10:09:43.236Z</time></trkpt><trkpt lat="40.5604124" lon="9.0862948"><ele>671.0</ele><time>2026-03-22T10:09:45.236Z</time></trkpt><trkpt lat="40.56031" lon="9.0864682"><ele>674.5</ele><time>2026-03-22T10:09:46.236Z</time></trkpt><trkpt lat="40.5602075" lon="9.0866481"><ele>678.0</ele><time>2026-03-22T10:09:47.236Z</time></trkpt><trkpt lat="40.5599999" lon="9.0870025"><ele>678.0</ele><time>2026-03-22T10:09:49.236Z</time></trkpt><trkpt lat="40.5597954" lon="9.0873527"><ele>678.0</ele><time>2026-03-22T10:09:51.236Z</time></trkpt><trkpt lat="40.5596988" lon="9.0875207"><ele>679.0</ele><time>2026-03-22T10:09:52.236Z</time></trkpt><trkpt lat="40.5596031" lon="9.0876946"><ele>680.0</ele><time>2026-03-22T10:09:53.236Z</time></trkpt><trkpt lat="40.5594066" lon="9.088039"><ele>686.0</ele><time>2026-03-22T10:09:55.236Z</time></trkpt><trkpt lat="40.5592134" lon="9.088369"><ele>692.0</ele><time>2026-03-22T10:09:57.236Z</time></trkpt><trkpt lat="40.5590135" lon="9.088734"><ele>692.0</ele><time>2026-03-22T10:09:59.236Z</time></trkpt><trkpt lat="40.5588151" lon="9.0890903"><ele>692.0</ele><time>2026-03-22T10:10:01.236Z</time></trkpt><trkpt lat="40.5587248" lon="9.0892712"><ele>696.0</ele><time>2026-03-22T10:10:02.236Z</time></trkpt><trkpt lat="40.5585512" lon="9.0896092"><ele>700.0</ele><time>2026-03-22T10:10:04.236Z</time></trkpt><trkpt lat="40.5583824" lon="9.0899597"><ele>700.0</ele><time>2026-03-22T10:10:06.236Z</time></trkpt><trkpt lat="40.5583088" lon="9.090119"><ele>700.0</ele><time>2026-03-22T10:10:07.236Z</time></trkpt><trkpt lat="40.5582453" lon="9.0902843"><ele>700.0</ele><time>2026-03-22T10:10:08.236Z</time></trkpt><trkpt lat="40.5581892" lon="9.0904548"><ele>700.0</ele><time>2026-03-22T10:10:09.236Z</time></trkpt><trkpt lat="40.5581422" lon="9.0906301"><ele>700.3333333333334</ele><time>2026-03-22T10:10:10.236Z</time></trkpt><trkpt lat="40.5581057" lon="9.0907956"><ele>700.6666666666666</ele><time>2026-03-22T10:10:11.236Z</time></trkpt><trkpt lat="40.5581022" lon="9.0911395"><ele>701.0</ele><time>2026-03-22T10:10:13.236Z</time></trkpt><trkpt lat="40.5581225" lon="9.0913306"><ele>706.5</ele><time>2026-03-22T10:10:14.236Z</time></trkpt><trkpt lat="40.5582041" lon="9.0917208"><ele>712.0</ele><time>2026-03-22T10:10:16.236Z</time></trkpt><trkpt lat="40.5583554" lon="9.0920856"><ele>712.0</ele><time>2026-03-22T10:10:18.236Z</time></trkpt><trkpt lat="40.5584505" lon="9.0922432"><ele>712.0</ele><time>2026-03-22T10:10:19.236Z</time></trkpt><trkpt lat="40.5585937" lon="9.0925262"><ele>712.0</ele><time>2026-03-22T10:10:21.236Z</time></trkpt><trkpt lat="40.5586599" lon="9.0928064"><ele>716.3333333333334</ele><time>2026-03-22T10:10:23.236Z</time></trkpt><trkpt lat="40.5586493" lon="9.09294"><ele>720.6666666666666</ele><time>2026-03-22T10:10:24.236Z</time></trkpt><trkpt lat="40.5585492" lon="9.0931458"><ele>725.0</ele><time>2026-03-22T10:10:26.236Z</time></trkpt><trkpt lat="40.5583561" lon="9.0932531"><ele>725.0</ele><time>2026-03-22T10:10:28.236Z</time></trkpt><trkpt lat="40.5581283" lon="9.0931946"><ele>725.0</ele><time>2026-03-22T10:10:30.236Z</time></trkpt><trkpt lat="40.5578936" lon="9.0929979"><ele>728.3333333333333</ele><time>2026-03-22T10:10:32.236Z</time></trkpt><trkpt lat="40.5577703" lon="9.0928904"><ele>731.6666666666666</ele><time>2026-03-22T10:10:33.236Z</time></trkpt><trkpt lat="40.5576293" lon="9.0928019"><ele>735.0</ele><time>2026-03-22T10:10:34.236Z</time></trkpt><trkpt lat="40.5575005" lon="9.092704"><ele>735.0</ele><time>2026-03-22T10:10:35.236Z</time></trkpt><trkpt lat="40.557135" lon="9.0926485"><ele>735.0</ele><time>2026-03-22T10:10:37.236Z</time></trkpt><trkpt lat="40.5567787" lon="9.0925788"><ele>741.0</ele><time>2026-03-22T10:10:39.236Z</time></trkpt><trkpt lat="40.5564489" lon="9.0925291"><ele>747.0</ele><time>2026-03-22T10:10:41.236Z</time></trkpt><trkpt lat="40.5562952" lon="9.0924956"><ele>747.3333333333334</ele><time>2026-03-22T10:10:42.236Z</time></trkpt><trkpt lat="40.5561424" lon="9.0924476"><ele>747.6666666666667</ele><time>2026-03-22T10:10:43.236Z</time></trkpt><trkpt lat="40.5559938" lon="9.0923654"><ele>748.0</ele><time>2026-03-22T10:10:44.236Z</time></trkpt><trkpt lat="40.555875" lon="9.0922442"><ele>748.0</ele><time>2026-03-22T10:10:45.236Z</time></trkpt><trkpt lat="40.5557628" lon="9.0921073"><ele>748.0</ele><time>2026-03-22T10:10:46.236Z</time></trkpt><trkpt lat="40.5556602" lon="9.0919442"><ele>748.0</ele><time>2026-03-22T10:10:47.236Z</time></trkpt><trkpt lat="40.5554704" lon="9.0915672"><ele>757.5</ele><time>2026-03-22T10:10:49.236Z</time></trkpt><trkpt lat="40.5552531" lon="9.0911731"><ele>767.0</ele><time>2026-03-22T10:10:51.236Z</time></trkpt><trkpt lat="40.5551202" lon="9.0910073"><ele>767.0</ele><time>2026-03-22T10:10:52.236Z</time></trkpt><trkpt lat="40.5550263" lon="9.0907638"><ele>767.0</ele><time>2026-03-22T10:10:53.236Z</time></trkpt><trkpt lat="40.5548192" lon="9.090348"><ele>761.5</ele><time>2026-03-22T10:10:55.236Z</time></trkpt><trkpt lat="40.5545874" lon="9.0899295"><ele>756.0</ele><time>2026-03-22T10:10:57.236Z</time></trkpt><trkpt lat="40.5543687" lon="9.0895024"><ele>761.0</ele><time>2026-03-22T10:10:59.236Z</time></trkpt><trkpt lat="40.5541305" lon="9.089135"><ele>766.0</ele><time>2026-03-22T10:11:01.236Z</time></trkpt><trkpt lat="40.5540178" lon="9.088951"><ele>766.0</ele><time>2026-03-22T10:11:02.236Z</time></trkpt><trkpt lat="40.5537573" lon="9.0885856"><ele>766.0</ele><time>2026-03-22T10:11:04.236Z</time></trkpt><trkpt lat="40.5535056" lon="9.0882069"><ele>774.0</ele><time>2026-03-22T10:11:06.236Z</time></trkpt><trkpt lat="40.553369" lon="9.0880307"><ele>782.0</ele><time>2026-03-22T10:11:07.236Z</time></trkpt><trkpt lat="40.5530889" lon="9.0877131"><ele>782.0</ele><time>2026-03-22T10:11:09.236Z</time></trkpt><trkpt lat="40.5529224" lon="9.0875775"><ele>782.0</ele><time>2026-03-22T10:11:10.236Z</time></trkpt><trkpt lat="40.5526133" lon="9.0872523"><ele>787.0</ele><time>2026-03-22T10:11:12.236Z</time></trkpt><trkpt lat="40.5524576" lon="9.0870891"><ele>792.0</ele><time>2026-03-22T10:11:13.236Z</time></trkpt><trkpt lat="40.5522879" lon="9.0869289"><ele>797.0</ele><time>2026-03-22T10:11:14.236Z</time></trkpt><trkpt lat="40.5521227" lon="9.0867825"><ele>803.5</ele><time>2026-03-22T10:11:15.236Z</time></trkpt><trkpt lat="40.5519467" lon="9.0866301"><ele>810.0</ele><time>2026-03-22T10:11:16.236Z</time></trkpt><trkpt lat="40.5515793" lon="9.0863917"><ele>810.0</ele><time>2026-03-22T10:11:18.236Z</time></trkpt><trkpt lat="40.5514029" lon="9.0862805"><ele>810.0</ele><time>2026-03-22T10:11:19.236Z</time></trkpt><trkpt lat="40.5512248" lon="9.0861678"><ele>810.0</ele><time>2026-03-22T10:11:20.236Z</time></trkpt><trkpt lat="40.5510433" lon="9.0860536"><ele>811.6666666666667</ele><time>2026-03-22T10:11:21.236Z</time></trkpt><trkpt lat="40.5508684" lon="9.0859311"><ele>813.3333333333334</ele><time>2026-03-22T10:11:22.236Z</time></trkpt><trkpt lat="40.5506889" lon="9.0858146"><ele>815.0</ele><time>2026-03-22T10:11:23.236Z</time></trkpt><trkpt lat="40.5505063" lon="9.0857013"><ele>822.5</ele><time>2026-03-22T10:11:24.236Z</time></trkpt><trkpt lat="40.550143" lon="9.08546"><ele>830.0</ele><time>2026-03-22T10:11:26.236Z</time></trkpt><trkpt lat="40.5497806" lon="9.0852053"><ele>830.0</ele><time>2026-03-22T10:11:28.236Z</time></trkpt><trkpt lat="40.5495949" lon="9.0850916"><ele>830.0</ele><time>2026-03-22T10:11:29.236Z</time></trkpt><trkpt lat="40.5492479" lon="9.0848699"><ele>835.5</ele><time>2026-03-22T10:11:31.236Z</time></trkpt><trkpt lat="40.5489363" lon="9.0846822"><ele>841.0</ele><time>2026-03-22T10:11:33.236Z</time></trkpt><trkpt lat="40.5486455" lon="9.0845332"><ele>841.0</ele><time>2026-03-22T10:11:35.236Z</time></trkpt><trkpt lat="40.5483562" lon="9.084413"><ele>841.0</ele><time>2026-03-22T10:11:37.236Z</time></trkpt><trkpt lat="40.5482069" lon="9.0843975"><ele>841.0</ele><time>2026-03-22T10:11:38.236Z</time></trkpt><trkpt lat="40.5480511" lon="9.0844017"><ele>841.0</ele><time>2026-03-22T10:11:39.236Z</time></trkpt><trkpt lat="40.5477415" lon="9.0844796"><ele>841.5</ele><time>2026-03-22T10:11:41.236Z</time></trkpt><trkpt lat="40.547442" lon="9.0846375"><ele>842.0</ele><time>2026-03-22T10:11:43.236Z</time></trkpt><trkpt lat="40.5471765" lon="9.0848675"><ele>844.5</ele><time>2026-03-22T10:11:45.236Z</time></trkpt><trkpt lat="40.5469541" lon="9.0851623"><ele>847.0</ele><time>2026-03-22T10:11:47.236Z</time></trkpt><trkpt lat="40.5468054" lon="9.0854962"><ele>850.0</ele><time>2026-03-22T10:11:49.236Z</time></trkpt><trkpt lat="40.5466939" lon="9.0858792"><ele>853.0</ele><time>2026-03-22T10:11:51.236Z</time></trkpt><trkpt lat="40.5466405" lon="9.0860712"><ele>853.0</ele><time>2026-03-22T10:11:52.236Z</time></trkpt><trkpt lat="40.5466082" lon="9.0862664"><ele>853.0</ele><time>2026-03-22T10:11:53.236Z</time></trkpt><trkpt lat="40.5465992" lon="9.0864676"><ele>853.0</ele><time>2026-03-22T10:11:54.236Z</time></trkpt><trkpt lat="40.5466108" lon="9.0866706"><ele>857.0</ele><time>2026-03-22T10:11:55.236Z</time></trkpt><trkpt lat="40.5466318" lon="9.0868835"><ele>861.0</ele><time>2026-03-22T10:11:56.236Z</time></trkpt><trkpt lat="40.5467178" lon="9.0872897"><ele>863.5</ele><time>2026-03-22T10:11:58.236Z</time></trkpt><trkpt lat="40.546888" lon="9.0876712"><ele>866.0</ele><time>2026-03-22T10:12:00.236Z</time></trkpt><trkpt lat="40.5470963" lon="9.0880584"><ele>866.0</ele><time>2026-03-22T10:12:02.236Z</time></trkpt><trkpt lat="40.5472149" lon="9.0882497"><ele>866.0</ele><time>2026-03-22T10:12:03.236Z</time></trkpt><trkpt lat="40.5474415" lon="9.0886501"><ele>871.0</ele><time>2026-03-22T10:12:05.236Z</time></trkpt><trkpt lat="40.547685" lon="9.0890503"><ele>876.0</ele><time>2026-03-22T10:12:07.236Z</time></trkpt><trkpt lat="40.5479424" lon="9.0894549"><ele>877.5</ele><time>2026-03-22T10:12:09.236Z</time></trkpt><trkpt lat="40.5481846" lon="9.0898887"><ele>879.0</ele><time>2026-03-22T10:12:11.236Z</time></trkpt><trkpt lat="40.5484203" lon="9.0902806"><ele>882.5</ele><time>2026-03-22T10:12:13.236Z</time></trkpt><trkpt lat="40.5486284" lon="9.0906207"><ele>886.0</ele><time>2026-03-22T10:12:15.236Z</time></trkpt><trkpt lat="40.5488161" lon="9.0909958"><ele>886.0</ele><time>2026-03-22T10:12:17.236Z</time></trkpt><trkpt lat="40.5489626" lon="9.0914441"><ele>886.0</ele><time>2026-03-22T10:12:19.236Z</time></trkpt><trkpt lat="40.5490937" lon="9.0919084"><ele>889.3333333333333</ele><time>2026-03-22T10:12:21.236Z</time></trkpt><trkpt lat="40.5491488" lon="9.0921386"><ele>892.6666666666667</ele><time>2026-03-22T10:12:22.236Z</time></trkpt><trkpt lat="40.5491998" lon="9.092374"><ele>896.0</ele><time>2026-03-22T10:12:23.236Z</time></trkpt><trkpt lat="40.5492702" lon="9.0928368"><ele>899.0</ele><time>2026-03-22T10:12:25.236Z</time></trkpt><trkpt lat="40.5492844" lon="9.0930568"><ele>902.0</ele><time>2026-03-22T10:12:26.236Z</time></trkpt><trkpt lat="40.5492989" lon="9.0932731"><ele>905.0</ele><time>2026-03-22T10:12:27.236Z</time></trkpt><trkpt lat="40.5492977" lon="9.0934885"><ele>910.0</ele><time>2026-03-22T10:12:28.236Z</time></trkpt><trkpt lat="40.5492424" lon="9.0939145"><ele>915.0</ele><time>2026-03-22T10:12:30.236Z</time></trkpt><trkpt lat="40.5491143" lon="9.0943225"><ele>917.5</ele><time>2026-03-22T10:12:32.236Z</time></trkpt><trkpt lat="40.5489117" lon="9.0946831"><ele>920.0</ele><time>2026-03-22T10:12:34.236Z</time></trkpt><trkpt lat="40.5486391" lon="9.0950023"><ele>921.0</ele><time>2026-03-22T10:12:36.236Z</time></trkpt><trkpt lat="40.5483246" lon="9.0952469"><ele>922.0</ele><time>2026-03-22T10:12:38.236Z</time></trkpt><trkpt lat="40.5481589" lon="9.0953291"><ele>922.0</ele><time>2026-03-22T10:12:39.236Z</time></trkpt><trkpt lat="40.5478456" lon="9.0954023"><ele>922.0</ele><time>2026-03-22T10:12:41.236Z</time></trkpt><trkpt lat="40.5474997" lon="9.0953986"><ele>922.0</ele><time>2026-03-22T10:12:43.236Z</time></trkpt><trkpt lat="40.5473134" lon="9.0953999"><ele>922.0</ele><time>2026-03-22T10:12:44.236Z</time></trkpt><trkpt lat="40.5471195" lon="9.0953984"><ele>922.0</ele><time>2026-03-22T10:12:45.236Z</time></trkpt><trkpt lat="40.5467015" lon="9.0953881"><ele>921.5</ele><time>2026-03-22T10:12:47.236Z</time></trkpt><trkpt lat="40.5464687" lon="9.0953868"><ele>921.0</ele><time>2026-03-22T10:12:48.236Z</time></trkpt><trkpt lat="40.5462444" lon="9.095377"><ele>919.0</ele><time>2026-03-22T10:12:49.236Z</time></trkpt><trkpt lat="40.5460194" lon="9.0953663"><ele>917.0</ele><time>2026-03-22T10:12:50.236Z</time></trkpt><trkpt lat="40.5455782" lon="9.0953495"><ele>914.5</ele><time>2026-03-22T10:12:52.236Z</time></trkpt><trkpt lat="40.5451482" lon="9.0953357"><ele>912.0</ele><time>2026-03-22T10:12:54.236Z</time></trkpt><trkpt lat="40.5447295" lon="9.0953258"><ele>911.5</ele><time>2026-03-22T10:12:56.236Z</time></trkpt><trkpt lat="40.5443068" lon="9.0953221"><ele>911.0</ele><time>2026-03-22T10:12:58.236Z</time></trkpt><trkpt lat="40.5441002" lon="9.0953109"><ele>911.0</ele><time>2026-03-22T10:12:59.236Z</time></trkpt><trkpt lat="40.5438981" lon="9.0953048"><ele>911.0</ele><time>2026-03-22T10:13:00.236Z</time></trkpt><trkpt lat="40.543688" lon="9.0953063"><ele>911.0</ele><time>2026-03-22T10:13:01.236Z</time></trkpt><trkpt lat="40.5434794" lon="9.0953055"><ele>913.0</ele><time>2026-03-22T10:13:02.236Z</time></trkpt><trkpt lat="40.5432717" lon="9.0952955"><ele>915.0</ele><time>2026-03-22T10:13:03.236Z</time></trkpt><trkpt lat="40.5428585" lon="9.0952795"><ele>915.5</ele><time>2026-03-22T10:13:05.236Z</time></trkpt><trkpt lat="40.5424471" lon="9.0952702"><ele>916.0</ele><time>2026-03-22T10:13:07.236Z</time></trkpt><trkpt lat="40.5420492" lon="9.0952595"><ele>917.0</ele><time>2026-03-22T10:13:09.236Z</time></trkpt><trkpt lat="40.5416407" lon="9.0952477"><ele>918.0</ele><time>2026-03-22T10:13:11.236Z</time></trkpt><trkpt lat="40.5412363" lon="9.0952394"><ele>919.0</ele><time>2026-03-22T10:13:13.236Z</time></trkpt><trkpt lat="40.5408251" lon="9.0952338"><ele>920.0</ele><time>2026-03-22T10:13:15.236Z</time></trkpt><trkpt lat="40.5404077" lon="9.0952254"><ele>921.0</ele><time>2026-03-22T10:13:17.236Z</time></trkpt><trkpt lat="40.5399966" lon="9.0952187"><ele>922.0</ele><time>2026-03-22T10:13:19.236Z</time></trkpt><trkpt lat="40.5395928" lon="9.0952032"><ele>923.0</ele><time>2026-03-22T10:13:21.236Z</time></trkpt><trkpt lat="40.5391821" lon="9.0951952"><ele>924.0</ele><time>2026-03-22T10:13:23.236Z</time></trkpt><trkpt lat="40.5387841" lon="9.0951973"><ele>928.5</ele><time>2026-03-22T10:13:25.236Z</time></trkpt><trkpt lat="40.5383888" lon="9.0951836"><ele>933.0</ele><time>2026-03-22T10:13:27.236Z</time></trkpt><trkpt lat="40.5379834" lon="9.0951848"><ele>936.5</ele><time>2026-03-22T10:13:29.236Z</time></trkpt><trkpt lat="40.5375647" lon="9.0951715"><ele>940.0</ele><time>2026-03-22T10:13:31.236Z</time></trkpt><trkpt lat="40.5371606" lon="9.0951556"><ele>942.6666666666666</ele><time>2026-03-22T10:13:33.236Z</time></trkpt><trkpt lat="40.5369538" lon="9.0951555"><ele>945.3333333333333</ele><time>2026-03-22T10:13:34.236Z</time></trkpt><trkpt lat="40.5367526" lon="9.0951595"><ele>948.0</ele><time>2026-03-22T10:13:35.236Z</time></trkpt><trkpt lat="40.5363429" lon="9.0952157"><ele>946.0</ele><time>2026-03-22T10:13:37.236Z</time></trkpt><trkpt lat="40.5361323" lon="9.0952507"><ele>944.0</ele><time>2026-03-22T10:13:38.236Z</time></trkpt><trkpt lat="40.5356966" lon="9.0953061"><ele>933.0</ele><time>2026-03-22T10:13:40.236Z</time></trkpt><trkpt lat="40.5352461" lon="9.0953689"><ele>933.0</ele><time>2026-03-22T10:13:42.236Z</time></trkpt><trkpt lat="40.5350223" lon="9.0954041"><ele>933.0</ele><time>2026-03-22T10:13:43.236Z</time></trkpt><trkpt lat="40.5347959" lon="9.0954207"><ele>933.0</ele><time>2026-03-22T10:13:44.236Z</time></trkpt><trkpt lat="40.5345701" lon="9.0954367"><ele>933.0</ele><time>2026-03-22T10:13:45.236Z</time></trkpt><trkpt lat="40.5341387" lon="9.0954447"><ele>929.5</ele><time>2026-03-22T10:13:47.236Z</time></trkpt><trkpt lat="40.5339462" lon="9.0954437"><ele>926.0</ele><time>2026-03-22T10:13:48.236Z</time></trkpt><trkpt lat="40.5335988" lon="9.0954635"><ele>925.0</ele><time>2026-03-22T10:13:50.236Z</time></trkpt><trkpt lat="40.5332944" lon="9.0954888"><ele>924.0</ele><time>2026-03-22T10:13:52.236Z</time></trkpt><trkpt lat="40.5330076" lon="9.0955882"><ele>925.0</ele><time>2026-03-22T10:13:54.236Z</time></trkpt><trkpt lat="40.5327417" lon="9.0958"><ele>926.0</ele><time>2026-03-22T10:13:56.236Z</time></trkpt><trkpt lat="40.5326254" lon="9.0959503"><ele>926.0</ele><time>2026-03-22T10:13:57.236Z</time></trkpt><trkpt lat="40.532534" lon="9.096129"><ele>926.0</ele><time>2026-03-22T10:13:58.236Z</time></trkpt><trkpt lat="40.5323767" lon="9.0965217"><ele>929.0</ele><time>2026-03-22T10:14:00.236Z</time></trkpt><trkpt lat="40.5323139" lon="9.0967358"><ele>932.0</ele><time>2026-03-22T10:14:01.236Z</time></trkpt><trkpt lat="40.5321991" lon="9.0969184"><ele>935.0</ele><time>2026-03-22T10:14:02.236Z</time></trkpt><trkpt lat="40.5320857" lon="9.0970919"><ele>933.0</ele><time>2026-03-22T10:14:03.236Z</time></trkpt><trkpt lat="40.5317983" lon="9.097358"><ele>931.0</ele><time>2026-03-22T10:14:05.236Z</time></trkpt><trkpt lat="40.531498" lon="9.0974701"><ele>931.0</ele><time>2026-03-22T10:14:07.236Z</time></trkpt><trkpt lat="40.5313358" lon="9.0974808"><ele>931.0</ele><time>2026-03-22T10:14:08.236Z</time></trkpt><trkpt lat="40.5311721" lon="9.097459"><ele>931.0</ele><time>2026-03-22T10:14:09.236Z</time></trkpt><trkpt lat="40.530843" lon="9.0973385"><ele>930.5</ele><time>2026-03-22T10:14:11.236Z</time></trkpt><trkpt lat="40.5304796" lon="9.0971944"><ele>930.0</ele><time>2026-03-22T10:14:13.236Z</time></trkpt><trkpt lat="40.5301063" lon="9.0970453"><ele>930.0</ele><time>2026-03-22T10:14:15.236Z</time></trkpt><trkpt lat="40.5297077" lon="9.0968882"><ele>930.0</ele><time>2026-03-22T10:14:17.236Z</time></trkpt><trkpt lat="40.529299" lon="9.0967383"><ele>930.5</ele><time>2026-03-22T10:14:19.236Z</time></trkpt><trkpt lat="40.5289144" lon="9.0965782"><ele>931.0</ele><time>2026-03-22T10:14:21.236Z</time></trkpt><trkpt lat="40.5285494" lon="9.0963545"><ele>931.5</ele><time>2026-03-22T10:14:23.236Z</time></trkpt><trkpt lat="40.5281872" lon="9.0960741"><ele>932.0</ele><time>2026-03-22T10:14:25.236Z</time></trkpt><trkpt lat="40.5278057" lon="9.0957948"><ele>933.5</ele><time>2026-03-22T10:14:27.236Z</time></trkpt><trkpt lat="40.5274136" lon="9.0955102"><ele>935.0</ele><time>2026-03-22T10:14:29.236Z</time></trkpt><trkpt lat="40.527217" lon="9.0953644"><ele>936.0</ele><time>2026-03-22T10:14:30.236Z</time></trkpt><trkpt lat="40.5270247" lon="9.0952179"><ele>937.0</ele><time>2026-03-22T10:14:31.236Z</time></trkpt><trkpt lat="40.526829" lon="9.0950635"><ele>937.0</ele><time>2026-03-22T10:14:32.236Z</time></trkpt><trkpt lat="40.5266345" lon="9.0949105"><ele>937.0</ele><time>2026-03-22T10:14:33.236Z</time></trkpt><trkpt lat="40.5264425" lon="9.0947669"><ele>937.0</ele><time>2026-03-22T10:14:34.236Z</time></trkpt><trkpt lat="40.5262396" lon="9.0946186"><ele>937.0</ele><time>2026-03-22T10:14:35.236Z</time></trkpt><trkpt lat="40.5260381" lon="9.0944633"><ele>937.0</ele><time>2026-03-22T10:14:36.236Z</time></trkpt><trkpt lat="40.52565" lon="9.0941528"><ele>934.0</ele><time>2026-03-22T10:14:38.236Z</time></trkpt><trkpt lat="40.5252627" lon="9.0938384"><ele>934.0</ele><time>2026-03-22T10:14:40.236Z</time></trkpt><trkpt lat="40.5250677" lon="9.0936898"><ele>934.0</ele><time>2026-03-22T10:14:41.236Z</time></trkpt><trkpt lat="40.5248736" lon="9.0935408"><ele>934.0</ele><time>2026-03-22T10:14:42.236Z</time></trkpt><trkpt lat="40.5246714" lon="9.0933929"><ele>934.0</ele><time>2026-03-22T10:14:43.236Z</time></trkpt><trkpt lat="40.5244773" lon="9.0932475"><ele>937.0</ele><time>2026-03-22T10:14:44.236Z</time></trkpt><trkpt lat="40.5240931" lon="9.0929395"><ele>939.0</ele><time>2026-03-22T10:14:46.236Z</time></trkpt><trkpt lat="40.5236936" lon="9.0926314"><ele>939.0</ele><time>2026-03-22T10:14:48.236Z</time></trkpt><trkpt lat="40.5234928" lon="9.0924727"><ele>939.0</ele><time>2026-03-22T10:14:49.236Z</time></trkpt><trkpt lat="40.523086" lon="9.0921591"><ele>940.0</ele><time>2026-03-22T10:14:51.236Z</time></trkpt><trkpt lat="40.5226887" lon="9.0918513"><ele>944.0</ele><time>2026-03-22T10:14:53.236Z</time></trkpt><trkpt lat="40.5222915" lon="9.0915365"><ele>948.0</ele><time>2026-03-22T10:14:55.236Z</time></trkpt><trkpt lat="40.5218869" lon="9.0912291"><ele>948.0</ele><time>2026-03-22T10:14:57.236Z</time></trkpt><trkpt lat="40.5214894" lon="9.0909218"><ele>952.0</ele><time>2026-03-22T10:14:59.236Z</time></trkpt><trkpt lat="40.521079" lon="9.0906268"><ele>952.0</ele><time>2026-03-22T10:15:01.236Z</time></trkpt><trkpt lat="40.5206813" lon="9.0903333"><ele>956.0</ele><time>2026-03-22T10:15:03.236Z</time></trkpt><trkpt lat="40.5202896" lon="9.0900298"><ele>956.0</ele><time>2026-03-22T10:15:05.236Z</time></trkpt><trkpt lat="40.5199034" lon="9.0897291"><ele>956.0</ele><time>2026-03-22T10:15:07.236Z</time></trkpt><trkpt lat="40.5197055" lon="9.0895792"><ele>957.0</ele><time>2026-03-22T10:15:08.236Z</time></trkpt><trkpt lat="40.5193209" lon="9.0892812"><ele>958.0</ele><time>2026-03-22T10:15:10.236Z</time></trkpt><trkpt lat="40.5189349" lon="9.088965"><ele>960.5</ele><time>2026-03-22T10:15:12.236Z</time></trkpt><trkpt lat="40.518563" lon="9.0886613"><ele>963.0</ele><time>2026-03-22T10:15:14.236Z</time></trkpt><trkpt lat="40.5183694" lon="9.0885054"><ele>963.0</ele><time>2026-03-22T10:15:15.236Z</time></trkpt><trkpt lat="40.518179" lon="9.0883559"><ele>963.0</ele><time>2026-03-22T10:15:16.236Z</time></trkpt><trkpt lat="40.5179844" lon="9.0881942"><ele>962.5</ele><time>2026-03-22T10:15:17.236Z</time></trkpt><trkpt lat="40.5177768" lon="9.0880351"><ele>962.0</ele><time>2026-03-22T10:15:18.236Z</time></trkpt><trkpt lat="40.5173586" lon="9.0877225"><ele>962.0</ele><time>2026-03-22T10:15:20.236Z</time></trkpt><trkpt lat="40.5171399" lon="9.0875735"><ele>962.0</ele><time>2026-03-22T10:15:21.236Z</time></trkpt><trkpt lat="40.516729" lon="9.0872538"><ele>962.0</ele><time>2026-03-22T10:15:23.236Z</time></trkpt><trkpt lat="40.5163064" lon="9.0869371"><ele>960.0</ele><time>2026-03-22T10:15:25.236Z</time></trkpt><trkpt lat="40.5158827" lon="9.0866062"><ele>961.5</ele><time>2026-03-22T10:15:27.236Z</time></trkpt><trkpt lat="40.5156811" lon="9.0864458"><ele>963.0</ele><time>2026-03-22T10:15:28.236Z</time></trkpt><trkpt lat="40.515481" lon="9.0862902"><ele>963.0</ele><time>2026-03-22T10:15:29.236Z</time></trkpt><trkpt lat="40.5150851" lon="9.0859807"><ele>970.0</ele><time>2026-03-22T10:15:31.236Z</time></trkpt><trkpt lat="40.5147029" lon="9.0856681"><ele>967.5</ele><time>2026-03-22T10:15:33.236Z</time></trkpt><trkpt lat="40.5143549" lon="9.0853225"><ele>965.0</ele><time>2026-03-22T10:15:35.236Z</time></trkpt><trkpt lat="40.5140104" lon="9.084952"><ele>969.5</ele><time>2026-03-22T10:15:37.236Z</time></trkpt><trkpt lat="40.513665" lon="9.0845874"><ele>974.0</ele><time>2026-03-22T10:15:39.236Z</time></trkpt><trkpt lat="40.5133299" lon="9.0842373"><ele>975.5</ele><time>2026-03-22T10:15:41.236Z</time></trkpt><trkpt lat="40.5129934" lon="9.0838831"><ele>977.0</ele><time>2026-03-22T10:15:43.236Z</time></trkpt><trkpt lat="40.5126707" lon="9.0835199"><ele>978.0</ele><time>2026-03-22T10:15:45.236Z</time></trkpt><trkpt lat="40.5123325" lon="9.0831632"><ele>979.0</ele><time>2026-03-22T10:15:47.236Z</time></trkpt><trkpt lat="40.5120089" lon="9.0827985"><ele>977.6666666666666</ele><time>2026-03-22T10:15:49.236Z</time></trkpt><trkpt lat="40.5118338" lon="9.0826124"><ele>976.3333333333333</ele><time>2026-03-22T10:15:50.236Z</time></trkpt><trkpt lat="40.5116625" lon="9.082422"><ele>975.0</ele><time>2026-03-22T10:15:51.236Z</time></trkpt><trkpt lat="40.5113159" lon="9.0820398"><ele>973.0</ele><time>2026-03-22T10:15:53.236Z</time></trkpt><trkpt lat="40.5109623" lon="9.0816484"><ele>970.0</ele><time>2026-03-22T10:15:55.236Z</time></trkpt><trkpt lat="40.5105935" lon="9.0812641"><ele>973.0</ele><time>2026-03-22T10:15:57.236Z</time></trkpt><trkpt lat="40.5102223" lon="9.0808723"><ele>969.0</ele><time>2026-03-22T10:15:59.236Z</time></trkpt><trkpt lat="40.5098558" lon="9.0804812"><ele>973.0</ele><time>2026-03-22T10:16:01.236Z</time></trkpt><trkpt lat="40.5094891" lon="9.0800994"><ele>970.0</ele><time>2026-03-22T10:16:03.236Z</time></trkpt><trkpt lat="40.5091146" lon="9.0797113"><ele>970.0</ele><time>2026-03-22T10:16:05.236Z</time></trkpt><trkpt lat="40.5087473" lon="9.0793177"><ele>972.0</ele><time>2026-03-22T10:16:07.236Z</time></trkpt><trkpt lat="40.5083766" lon="9.0789366"><ele>972.0</ele><time>2026-03-22T10:16:09.236Z</time></trkpt><trkpt lat="40.5080085" lon="9.0785398"><ele>975.0</ele><time>2026-03-22T10:16:11.236Z</time></trkpt><trkpt lat="40.5076342" lon="9.0781608"><ele>975.0</ele><time>2026-03-22T10:16:13.236Z</time></trkpt><trkpt lat="40.5074511" lon="9.0779695"><ele>975.0</ele><time>2026-03-22T10:16:14.236Z</time></trkpt><trkpt lat="40.5070993" lon="9.0775843"><ele>979.0</ele><time>2026-03-22T10:16:16.236Z</time></trkpt><trkpt lat="40.5067267" lon="9.077196"><ele>979.0</ele><time>2026-03-22T10:16:18.236Z</time></trkpt><trkpt lat="40.506356" lon="9.0768076"><ele>978.0</ele><time>2026-03-22T10:16:20.236Z</time></trkpt><trkpt lat="40.5060111" lon="9.0764258"><ele>978.0</ele><time>2026-03-22T10:16:22.236Z</time></trkpt><trkpt lat="40.5058282" lon="9.0762341"><ele>978.0</ele><time>2026-03-22T10:16:23.236Z</time></trkpt><trkpt lat="40.5056383" lon="9.076042"><ele>978.0</ele><time>2026-03-22T10:16:24.236Z</time></trkpt><trkpt lat="40.5054542" lon="9.0758477"><ele>978.0</ele><time>2026-03-22T10:16:25.236Z</time></trkpt><trkpt lat="40.5052687" lon="9.0756562"><ele>977.0</ele><time>2026-03-22T10:16:26.236Z</time></trkpt><trkpt lat="40.5048954" lon="9.0752701"><ele>977.0</ele><time>2026-03-22T10:16:28.236Z</time></trkpt><trkpt lat="40.5045065" lon="9.0748758"><ele>977.0</ele><time>2026-03-22T10:16:30.236Z</time></trkpt><trkpt lat="40.5041371" lon="9.0744722"><ele>977.0</ele><time>2026-03-22T10:16:32.236Z</time></trkpt><trkpt lat="40.5039495" lon="9.0742699"><ele>977.0</ele><time>2026-03-22T10:16:33.236Z</time></trkpt><trkpt lat="40.5037674" lon="9.0740745"><ele>976.5</ele><time>2026-03-22T10:16:34.236Z</time></trkpt><trkpt lat="40.5035823" lon="9.0738774"><ele>976.0</ele><time>2026-03-22T10:16:35.236Z</time></trkpt><trkpt lat="40.5033887" lon="9.0736757"><ele>976.0</ele><time>2026-03-22T10:16:36.236Z</time></trkpt><trkpt lat="40.5031988" lon="9.0734734"><ele>976.0</ele><time>2026-03-22T10:16:37.236Z</time></trkpt><trkpt lat="40.5028011" lon="9.0730774"><ele>977.0</ele><time>2026-03-22T10:16:39.236Z</time></trkpt><trkpt lat="40.5024262" lon="9.0726698"><ele>975.0</ele><time>2026-03-22T10:16:41.236Z</time></trkpt><trkpt lat="40.502054" lon="9.0722633"><ele>975.0</ele><time>2026-03-22T10:16:43.236Z</time></trkpt><trkpt lat="40.501688" lon="9.0718562"><ele>975.0</ele><time>2026-03-22T10:16:45.236Z</time></trkpt><trkpt lat="40.5014959" lon="9.0716538"><ele>975.0</ele><time>2026-03-22T10:16:46.236Z</time></trkpt><trkpt lat="40.5011107" lon="9.0712659"><ele>979.0</ele><time>2026-03-22T10:16:48.236Z</time></trkpt><trkpt lat="40.5007394" lon="9.0708742"><ele>985.0</ele><time>2026-03-22T10:16:50.236Z</time></trkpt><trkpt lat="40.5003702" lon="9.0704897"><ele>985.0</ele><time>2026-03-22T10:16:52.236Z</time></trkpt><trkpt lat="40.5000249" lon="9.0701165"><ele>985.0</ele><time>2026-03-22T10:16:54.236Z</time></trkpt><trkpt lat="40.4998302" lon="9.0699268"><ele>985.3333333333333</ele><time>2026-03-22T10:16:55.236Z</time></trkpt><trkpt lat="40.49965" lon="9.0697367"><ele>985.6666666666667</ele><time>2026-03-22T10:16:56.236Z</time></trkpt><trkpt lat="40.4994988" lon="9.0695543"><ele>986.0</ele><time>2026-03-22T10:16:57.236Z</time></trkpt><trkpt lat="40.4993188" lon="9.0693696"><ele>988.5</ele><time>2026-03-22T10:16:58.236Z</time></trkpt><trkpt lat="40.4991446" lon="9.0691803"><ele>991.0</ele><time>2026-03-22T10:16:59.236Z</time></trkpt><trkpt lat="40.498968" lon="9.0689953"><ele>992.0</ele><time>2026-03-22T10:17:00.236Z</time></trkpt><trkpt lat="40.4987947" lon="9.0688135"><ele>993.0</ele><time>2026-03-22T10:17:01.236Z</time></trkpt><trkpt lat="40.4984737" lon="9.0684676"><ele>996.0</ele><time>2026-03-22T10:17:03.236Z</time></trkpt><trkpt lat="40.4983124" lon="9.0682827"><ele>999.0</ele><time>2026-03-22T10:17:04.236Z</time></trkpt><trkpt lat="40.4981294" lon="9.068105"><ele>1002.0</ele><time>2026-03-22T10:17:05.236Z</time></trkpt><trkpt lat="40.4977829" lon="9.0677359"><ele>1006.5</ele><time>2026-03-22T10:17:07.236Z</time></trkpt><trkpt lat="40.4974444" lon="9.0673628"><ele>1011.0</ele><time>2026-03-22T10:17:09.236Z</time></trkpt><trkpt lat="40.4970954" lon="9.0669893"><ele>1017.0</ele><time>2026-03-22T10:17:11.236Z</time></trkpt><trkpt lat="40.4967529" lon="9.066605"><ele>1017.0</ele><time>2026-03-22T10:17:13.236Z</time></trkpt><trkpt lat="40.4964078" lon="9.0662328"><ele>1017.0</ele><time>2026-03-22T10:17:15.236Z</time></trkpt><trkpt lat="40.4962417" lon="9.0660601"><ele>1020.0</ele><time>2026-03-22T10:17:16.236Z</time></trkpt><trkpt lat="40.4959141" lon="9.0657248"><ele>1023.0</ele><time>2026-03-22T10:17:18.236Z</time></trkpt><trkpt lat="40.4955702" lon="9.0654101"><ele>1027.0</ele><time>2026-03-22T10:17:20.236Z</time></trkpt><trkpt lat="40.4951799" lon="9.0651349"><ele>1031.0</ele><time>2026-03-22T10:17:22.236Z</time></trkpt><trkpt lat="40.4947676" lon="9.0648822"><ele>1036.0</ele><time>2026-03-22T10:17:24.236Z</time></trkpt><trkpt lat="40.494332" lon="9.0646231"><ele>1036.0</ele><time>2026-03-22T10:17:26.236Z</time></trkpt><trkpt lat="40.4939185" lon="9.0643738"><ele>1037.5</ele><time>2026-03-22T10:17:28.236Z</time></trkpt><trkpt lat="40.4935341" lon="9.0641353"><ele>1039.0</ele><time>2026-03-22T10:17:30.236Z</time></trkpt><trkpt lat="40.4933587" lon="9.0640245"><ele>1039.6666666666665</ele><time>2026-03-22T10:17:31.236Z</time></trkpt><trkpt lat="40.4931706" lon="9.0639162"><ele>1040.3333333333333</ele><time>2026-03-22T10:17:32.236Z</time></trkpt><trkpt lat="40.4930039" lon="9.0638124"><ele>1041.0</ele><time>2026-03-22T10:17:33.236Z</time></trkpt><trkpt lat="40.4928658" lon="9.063651"><ele>1041.0</ele><time>2026-03-22T10:17:34.236Z</time></trkpt><trkpt lat="40.4925503" lon="9.0632978"><ele>1041.0</ele><time>2026-03-22T10:17:36.236Z</time></trkpt><trkpt lat="40.4922544" lon="9.0628631"><ele>1041.0</ele><time>2026-03-22T10:17:38.236Z</time></trkpt><trkpt lat="40.491942" lon="9.0624053"><ele>1041.0</ele><time>2026-03-22T10:17:40.236Z</time></trkpt><trkpt lat="40.4916253" lon="9.0619184"><ele>1039.0</ele><time>2026-03-22T10:17:42.236Z</time></trkpt><trkpt lat="40.4912937" lon="9.0614325"><ele>1046.0</ele><time>2026-03-22T10:17:44.236Z</time></trkpt><trkpt lat="40.4909642" lon="9.0609366"><ele>1048.0</ele><time>2026-03-22T10:17:46.236Z</time></trkpt><trkpt lat="40.4906344" lon="9.0604405"><ele>1051.0</ele><time>2026-03-22T10:17:48.236Z</time></trkpt><trkpt lat="40.4903054" lon="9.0599351"><ele>1051.0</ele><time>2026-03-22T10:17:50.236Z</time></trkpt><trkpt lat="40.4901337" lon="9.0596861"><ele>1051.0</ele><time>2026-03-22T10:17:51.236Z</time></trkpt><trkpt lat="40.4899699" lon="9.0594327"><ele>1051.0</ele><time>2026-03-22T10:17:52.236Z</time></trkpt><trkpt lat="40.4898001" lon="9.0591833"><ele>1051.0</ele><time>2026-03-22T10:17:53.236Z</time></trkpt><trkpt lat="40.489463" lon="9.058685"><ele>1057.0</ele><time>2026-03-22T10:17:55.236Z</time></trkpt><trkpt lat="40.4891226" lon="9.058196"><ele>1057.0</ele><time>2026-03-22T10:17:57.236Z</time></trkpt><trkpt lat="40.4888038" lon="9.0577036"><ele>1056.0</ele><time>2026-03-22T10:17:59.236Z</time></trkpt><trkpt lat="40.4885071" lon="9.057258"><ele>1056.0</ele><time>2026-03-22T10:18:01.236Z</time></trkpt><trkpt lat="40.4883642" lon="9.0570544"><ele>1056.0</ele><time>2026-03-22T10:18:02.236Z</time></trkpt><trkpt lat="40.4880518" lon="9.0566759"><ele>1057.0</ele><time>2026-03-22T10:18:04.236Z</time></trkpt><trkpt lat="40.4878872" lon="9.0565119"><ele>1058.0</ele><time>2026-03-22T10:18:05.236Z</time></trkpt><trkpt lat="40.4877117" lon="9.0563646"><ele>1059.0</ele><time>2026-03-22T10:18:06.236Z</time></trkpt><trkpt lat="40.4873427" lon="9.0560428"><ele>1053.0</ele><time>2026-03-22T10:18:08.236Z</time></trkpt><trkpt lat="40.4869471" lon="9.0557056"><ele>1053.0</ele><time>2026-03-22T10:18:10.236Z</time></trkpt><trkpt lat="40.4865296" lon="9.0553256"><ele>1046.0</ele><time>2026-03-22T10:18:12.236Z</time></trkpt><trkpt lat="40.4861021" lon="9.0549829"><ele>1046.0</ele><time>2026-03-22T10:18:14.236Z</time></trkpt><trkpt lat="40.4856833" lon="9.0546326"><ele>1039.0</ele><time>2026-03-22T10:18:16.236Z</time></trkpt><trkpt lat="40.4852587" lon="9.0542919"><ele>1040.0</ele><time>2026-03-22T10:18:18.236Z</time></trkpt><trkpt lat="40.484878" lon="9.0539565"><ele>1041.5</ele><time>2026-03-22T10:18:20.236Z</time></trkpt><trkpt lat="40.4845057" lon="9.0536936"><ele>1043.0</ele><time>2026-03-22T10:18:22.236Z</time></trkpt><trkpt lat="40.4841046" lon="9.0534788"><ele>1041.5</ele><time>2026-03-22T10:18:24.236Z</time></trkpt><trkpt lat="40.4836959" lon="9.0532914"><ele>1040.0</ele><time>2026-03-22T10:18:26.236Z</time></trkpt><trkpt lat="40.4832648" lon="9.0531389"><ele>1039.5</ele><time>2026-03-22T10:18:28.236Z</time></trkpt><trkpt lat="40.4828449" lon="9.0529684"><ele>1039.0</ele><time>2026-03-22T10:18:30.236Z</time></trkpt><trkpt lat="40.4824656" lon="9.052816"><ele>1039.0</ele><time>2026-03-22T10:18:32.236Z</time></trkpt><trkpt lat="40.4821248" lon="9.0526726"><ele>1039.0</ele><time>2026-03-22T10:18:34.236Z</time></trkpt><trkpt lat="40.4817717" lon="9.0525956"><ele>1041.0</ele><time>2026-03-22T10:18:36.236Z</time></trkpt><trkpt lat="40.4813976" lon="9.0526142"><ele>1043.0</ele><time>2026-03-22T10:18:38.236Z</time></trkpt><trkpt lat="40.4812162" lon="9.0526723"><ele>1043.3333333333335</ele><time>2026-03-22T10:18:39.236Z</time></trkpt><trkpt lat="40.4810264" lon="9.0527547"><ele>1043.6666666666667</ele><time>2026-03-22T10:18:40.236Z</time></trkpt><trkpt lat="40.4808324" lon="9.0528352"><ele>1044.0</ele><time>2026-03-22T10:18:41.236Z</time></trkpt><trkpt lat="40.4806338" lon="9.0529048"><ele>1044.0</ele><time>2026-03-22T10:18:42.236Z</time></trkpt><trkpt lat="40.4804395" lon="9.0529725"><ele>1044.0</ele><time>2026-03-22T10:18:43.236Z</time></trkpt><trkpt lat="40.4802477" lon="9.0530428"><ele>1044.0</ele><time>2026-03-22T10:18:44.236Z</time></trkpt><trkpt lat="40.4800623" lon="9.0531129"><ele>1042.0</ele><time>2026-03-22T10:18:45.236Z</time></trkpt><trkpt lat="40.4798853" lon="9.0531826"><ele>1040.0</ele><time>2026-03-22T10:18:46.236Z</time></trkpt><trkpt lat="40.4795391" lon="9.0532831"><ele>1038.5</ele><time>2026-03-22T10:18:48.236Z</time></trkpt><trkpt lat="40.4791811" lon="9.053309"><ele>1037.0</ele><time>2026-03-22T10:18:50.236Z</time></trkpt><trkpt lat="40.478838" lon="9.0532086"><ele>1034.3333333333335</ele><time>2026-03-22T10:18:52.236Z</time></trkpt><trkpt lat="40.4786895" lon="9.0531251"><ele>1031.6666666666667</ele><time>2026-03-22T10:18:53.236Z</time></trkpt><trkpt lat="40.4785492" lon="9.0530226"><ele>1029.0</ele><time>2026-03-22T10:18:54.236Z</time></trkpt><trkpt lat="40.4784219" lon="9.0528957"><ele>1029.0</ele><time>2026-03-22T10:18:55.236Z</time></trkpt><trkpt lat="40.4781914" lon="9.0525889"><ele>1029.0</ele><time>2026-03-22T10:18:57.236Z</time></trkpt><trkpt lat="40.4779933" lon="9.052233"><ele>1026.0</ele><time>2026-03-22T10:18:59.236Z</time></trkpt><trkpt lat="40.4778877" lon="9.0518375"><ele>1023.0</ele><time>2026-03-22T10:19:01.236Z</time></trkpt><trkpt lat="40.4779287" lon="9.0514235"><ele>1019.5</ele><time>2026-03-22T10:19:03.236Z</time></trkpt><trkpt lat="40.4780285" lon="9.0509889"><ele>1016.0</ele><time>2026-03-22T10:19:05.236Z</time></trkpt><trkpt lat="40.4781454" lon="9.0504674"><ele>1014.5</ele><time>2026-03-22T10:19:07.236Z</time></trkpt><trkpt lat="40.4782281" lon="9.0499719"><ele>1013.0</ele><time>2026-03-22T10:19:09.236Z</time></trkpt><trkpt lat="40.4783515" lon="9.0495947"><ele>1012.3333333333334</ele><time>2026-03-22T10:19:11.236Z</time></trkpt><trkpt lat="40.4784033" lon="9.0493748"><ele>1011.6666666666667</ele><time>2026-03-22T10:19:12.236Z</time></trkpt><trkpt lat="40.4784001" lon="9.049199"><ele>1011.0</ele><time>2026-03-22T10:19:13.236Z</time></trkpt><trkpt lat="40.4783697" lon="9.0489851"><ele>1005.5</ele><time>2026-03-22T10:19:14.236Z</time></trkpt><trkpt lat="40.4782144" lon="9.0485974"><ele>1000.0</ele><time>2026-03-22T10:19:16.236Z</time></trkpt><trkpt lat="40.478112" lon="9.0483976"><ele>999.5</ele><time>2026-03-22T10:19:17.236Z</time></trkpt><trkpt lat="40.4779174" lon="9.0480185"><ele>999.0</ele><time>2026-03-22T10:19:19.236Z</time></trkpt><trkpt lat="40.4777373" lon="9.0476849"><ele>999.0</ele><time>2026-03-22T10:19:21.236Z</time></trkpt><trkpt lat="40.4775026" lon="9.0474641"><ele>999.0</ele><time>2026-03-22T10:19:23.236Z</time></trkpt><trkpt lat="40.4772147" lon="9.0473543"><ele>989.0</ele><time>2026-03-22T10:19:25.236Z</time></trkpt><trkpt lat="40.4768678" lon="9.0473431"><ele>979.0</ele><time>2026-03-22T10:19:27.236Z</time></trkpt><trkpt lat="40.4764725" lon="9.047364"><ele>977.0</ele><time>2026-03-22T10:19:29.236Z</time></trkpt><trkpt lat="40.4760425" lon="9.0474125"><ele>975.0</ele><time>2026-03-22T10:19:31.236Z</time></trkpt><trkpt lat="40.4755837" lon="9.0474486"><ele>990.0</ele><time>2026-03-22T10:19:33.236Z</time></trkpt><trkpt lat="40.4751166" lon="9.0475092"><ele>990.0</ele><time>2026-03-22T10:19:35.236Z</time></trkpt><trkpt lat="40.4746928" lon="9.0475485"><ele>990.0</ele><time>2026-03-22T10:19:37.236Z</time></trkpt><trkpt lat="40.4745178" lon="9.0475659"><ele>988.5</ele><time>2026-03-22T10:19:38.236Z</time></trkpt><trkpt lat="40.474383" lon="9.0475854"><ele>987.0</ele><time>2026-03-22T10:19:39.236Z</time></trkpt><trkpt lat="40.4742655" lon="9.0476044"><ele>985.5</ele><time>2026-03-22T10:19:40.236Z</time></trkpt><trkpt lat="40.474088" lon="9.047561"><ele>984.0</ele><time>2026-03-22T10:19:42.236Z</time></trkpt><trkpt lat="40.4739988" lon="9.0474632"><ele>984.0</ele><time>2026-03-22T10:19:44.236Z</time></trkpt><trkpt lat="40.4739341" lon="9.04743"><ele>984.0000000000001</ele><time>2026-03-22T10:19:46.236Z</time></trkpt><trkpt lat="40.4737868" lon="9.0474681"><ele>984.0000000000001</ele><time>2026-03-22T10:19:48.236Z</time></trkpt><trkpt lat="40.4736992" lon="9.0475194"><ele>984.0</ele><time>2026-03-22T10:19:49.236Z</time></trkpt><trkpt lat="40.4735888" lon="9.0475877"><ele>984.0</ele><time>2026-03-22T10:19:50.236Z</time></trkpt><trkpt lat="40.473462" lon="9.047648"><ele>983.0</ele><time>2026-03-22T10:19:51.236Z</time></trkpt><trkpt lat="40.4731737" lon="9.0477571"><ele>982.0</ele><time>2026-03-22T10:19:53.236Z</time></trkpt><trkpt lat="40.4728524" lon="9.0478747"><ele>984.0</ele><time>2026-03-22T10:19:55.236Z</time></trkpt><trkpt lat="40.4726902" lon="9.0479551"><ele>986.0</ele><time>2026-03-22T10:19:56.236Z</time></trkpt><trkpt lat="40.4723848" lon="9.0481199"><ele>982.5</ele><time>2026-03-22T10:19:58.236Z</time></trkpt><trkpt lat="40.4720861" lon="9.0482572"><ele>979.0</ele><time>2026-03-22T10:20:00.236Z</time></trkpt><trkpt lat="40.4717544" lon="9.0483922"><ele>979.0</ele><time>2026-03-22T10:20:02.236Z</time></trkpt><trkpt lat="40.4713987" lon="9.0485081"><ele>979.0</ele><time>2026-03-22T10:20:04.236Z</time></trkpt><trkpt lat="40.4710527" lon="9.048593"><ele>980.5</ele><time>2026-03-22T10:20:06.236Z</time></trkpt><trkpt lat="40.470733" lon="9.0486649"><ele>982.0</ele><time>2026-03-22T10:20:08.236Z</time></trkpt><trkpt lat="40.4705814" lon="9.0487073"><ele>983.6666666666666</ele><time>2026-03-22T10:20:09.236Z</time></trkpt><trkpt lat="40.4704379" lon="9.0487778"><ele>985.3333333333333</ele><time>2026-03-22T10:20:10.236Z</time></trkpt><trkpt lat="40.4702046" lon="9.0489586"><ele>987.0</ele><time>2026-03-22T10:20:12.236Z</time></trkpt><trkpt lat="40.470016" lon="9.0491296"><ele>985.5</ele><time>2026-03-22T10:20:14.236Z</time></trkpt><trkpt lat="40.4697989" lon="9.0491657"><ele>984.0</ele><time>2026-03-22T10:20:16.236Z</time></trkpt><trkpt lat="40.4695264" lon="9.0490755"><ele>984.0</ele><time>2026-03-22T10:20:18.236Z</time></trkpt><trkpt lat="40.4693868" lon="9.0490327"><ele>984.0</ele><time>2026-03-22T10:20:19.236Z</time></trkpt><trkpt lat="40.4692501" lon="9.0489866"><ele>984.0</ele><time>2026-03-22T10:20:20.236Z</time></trkpt><trkpt lat="40.4689961" lon="9.0488893"><ele>984.0</ele><time>2026-03-22T10:20:22.236Z</time></trkpt><trkpt lat="40.4687945" lon="9.0486961"><ele>984.0</ele><time>2026-03-22T10:20:24.236Z</time></trkpt><trkpt lat="40.4687196" lon="9.0485505"><ele>984.0</ele><time>2026-03-22T10:20:25.236Z</time></trkpt><trkpt lat="40.4685979" lon="9.0482185"><ele>972.0</ele><time>2026-03-22T10:20:27.236Z</time></trkpt><trkpt lat="40.4685018" lon="9.0478723"><ele>960.0</ele><time>2026-03-22T10:20:29.236Z</time></trkpt><trkpt lat="40.4684387" lon="9.0474582"><ele>960.0</ele><time>2026-03-22T10:20:31.236Z</time></trkpt><trkpt lat="40.4684306" lon="9.0470753"><ele>960.0</ele><time>2026-03-22T10:20:33.236Z</time></trkpt><trkpt lat="40.4683858" lon="9.0467448"><ele>960.6666666666667</ele><time>2026-03-22T10:20:35.236Z</time></trkpt><trkpt lat="40.4683112" lon="9.0465998"><ele>961.3333333333334</ele><time>2026-03-22T10:20:36.236Z</time></trkpt><trkpt lat="40.4681837" lon="9.046304"><ele>962.0</ele><time>2026-03-22T10:20:38.236Z</time></trkpt><trkpt lat="40.4681747" lon="9.0459488"><ele>958.0</ele><time>2026-03-22T10:20:40.236Z</time></trkpt><trkpt lat="40.4681911" lon="9.0455697"><ele>954.0</ele><time>2026-03-22T10:20:42.236Z</time></trkpt><trkpt lat="40.468216" lon="9.0451869"><ele>954.0</ele><time>2026-03-22T10:20:44.236Z</time></trkpt><trkpt lat="40.4682371" lon="9.0449802"><ele>954.0</ele><time>2026-03-22T10:20:45.236Z</time></trkpt><trkpt lat="40.4683253" lon="9.0446311"><ele>954.0</ele><time>2026-03-22T10:20:47.236Z</time></trkpt><trkpt lat="40.4683838" lon="9.0443757"><ele>954.5</ele><time>2026-03-22T10:20:49.236Z</time></trkpt><trkpt lat="40.4682836" lon="9.0441774"><ele>955.0</ele><time>2026-03-22T10:20:51.236Z</time></trkpt><trkpt lat="40.4681949" lon="9.0441217"><ele>955.5</ele><time>2026-03-22T10:20:52.236Z</time></trkpt><trkpt lat="40.4680871" lon="9.0440847"><ele>956.0</ele><time>2026-03-22T10:20:53.236Z</time></trkpt><trkpt lat="40.4679798" lon="9.0440319"><ele>948.5</ele><time>2026-03-22T10:20:54.236Z</time></trkpt><trkpt lat="40.467817" lon="9.0438245"><ele>941.0</ele><time>2026-03-22T10:20:56.236Z</time></trkpt><trkpt lat="40.4677778" lon="9.0435324"><ele>953.5</ele><time>2026-03-22T10:20:58.236Z</time></trkpt><trkpt lat="40.4676418" lon="9.0431377"><ele>966.0</ele><time>2026-03-22T10:21:01.236Z</time></trkpt><trkpt lat="40.4674099" lon="9.0430144"><ele>966.0</ele><time>2026-03-22T10:21:03.236Z</time></trkpt><trkpt lat="40.4672495" lon="9.0429675"><ele>966.0</ele><time>2026-03-22T10:21:04.236Z</time></trkpt><trkpt lat="40.4670852" lon="9.0429178"><ele>966.0</ele><time>2026-03-22T10:21:05.236Z</time></trkpt><trkpt lat="40.4669149" lon="9.042891"><ele>961.0</ele><time>2026-03-22T10:21:06.236Z</time></trkpt><trkpt lat="40.4665836" lon="9.0429119"><ele>956.0</ele><time>2026-03-22T10:21:08.236Z</time></trkpt><trkpt lat="40.4662826" lon="9.0429064"><ele>947.5</ele><time>2026-03-22T10:21:10.236Z</time></trkpt><trkpt lat="40.4660089" lon="9.0427976"><ele>939.0</ele><time>2026-03-22T10:21:12.236Z</time></trkpt><trkpt lat="40.4657294" lon="9.0426123"><ele>934.5</ele><time>2026-03-22T10:21:14.236Z</time></trkpt><trkpt lat="40.4653794" lon="9.0425569"><ele>930.0</ele><time>2026-03-22T10:21:16.236Z</time></trkpt><trkpt lat="40.4651886" lon="9.0425605"><ele>930.0</ele><time>2026-03-22T10:21:17.236Z</time></trkpt><trkpt lat="40.4648271" lon="9.0425949"><ele>930.0</ele><time>2026-03-22T10:21:19.236Z</time></trkpt><trkpt lat="40.464513" lon="9.0426422"><ele>927.5</ele><time>2026-03-22T10:21:21.236Z</time></trkpt><trkpt lat="40.4642472" lon="9.042662"><ele>925.0</ele><time>2026-03-22T10:21:23.236Z</time></trkpt><trkpt lat="40.4639991" lon="9.0425848"><ele>925.0</ele><time>2026-03-22T10:21:25.236Z</time></trkpt><trkpt lat="40.4638809" lon="9.0424921"><ele>925.0</ele><time>2026-03-22T10:21:26.236Z</time></trkpt><trkpt lat="40.4637571" lon="9.0423775"><ele>925.0</ele><time>2026-03-22T10:21:27.236Z</time></trkpt><trkpt lat="40.463621" lon="9.0422671"><ele>925.0</ele><time>2026-03-22T10:21:28.236Z</time></trkpt><trkpt lat="40.4634746" lon="9.0421859"><ele>923.5</ele><time>2026-03-22T10:21:29.236Z</time></trkpt><trkpt lat="40.4632279" lon="9.0420397"><ele>922.0</ele><time>2026-03-22T10:21:31.236Z</time></trkpt><trkpt lat="40.4630846" lon="9.0418089"><ele>926.3333333333333</ele><time>2026-03-22T10:21:33.236Z</time></trkpt><trkpt lat="40.4630473" lon="9.0414668"><ele>930.6666666666667</ele><time>2026-03-22T10:21:35.236Z</time></trkpt><trkpt lat="40.4630238" lon="9.0412915"><ele>935.0</ele><time>2026-03-22T10:21:36.236Z</time></trkpt><trkpt lat="40.462942" lon="9.0409978"><ele>937.0</ele><time>2026-03-22T10:21:38.236Z</time></trkpt><trkpt lat="40.4628417" lon="9.040872"><ele>939.0</ele><time>2026-03-22T10:21:39.236Z</time></trkpt><trkpt lat="40.4625733" lon="9.0406841"><ele>941.0</ele><time>2026-03-22T10:21:41.236Z</time></trkpt><trkpt lat="40.462424" lon="9.040605"><ele>941.0</ele><time>2026-03-22T10:21:42.236Z</time></trkpt><trkpt lat="40.4622732" lon="9.0405196"><ele>941.0</ele><time>2026-03-22T10:21:43.236Z</time></trkpt><trkpt lat="40.4619933" lon="9.0403886"><ele>928.0</ele><time>2026-03-22T10:21:45.236Z</time></trkpt><trkpt lat="40.4616838" lon="9.0403339"><ele>915.0</ele><time>2026-03-22T10:21:47.236Z</time></trkpt><trkpt lat="40.4613977" lon="9.0401798"><ele>908.0</ele><time>2026-03-22T10:21:49.237Z</time></trkpt><trkpt lat="40.4611505" lon="9.0399948"><ele>901.0</ele><time>2026-03-22T10:21:51.236Z</time></trkpt><trkpt lat="40.4609133" lon="9.039952"><ele>901.0</ele><time>2026-03-22T10:21:53.236Z</time></trkpt><trkpt lat="40.4607866" lon="9.0399938"><ele>901.0</ele><time>2026-03-22T10:21:54.236Z</time></trkpt><trkpt lat="40.4606589" lon="9.0400588"><ele>901.0</ele><time>2026-03-22T10:21:55.236Z</time></trkpt><trkpt lat="40.4605357" lon="9.040084"><ele>901.0</ele><time>2026-03-22T10:21:56.236Z</time></trkpt><trkpt lat="40.4602839" lon="9.0400203"><ele>903.0</ele><time>2026-03-22T10:21:58.236Z</time></trkpt><trkpt lat="40.4600271" lon="9.039835"><ele>905.0</ele><time>2026-03-22T10:22:00.236Z</time></trkpt><trkpt lat="40.4599046" lon="9.0397163"><ele>907.0</ele><time>2026-03-22T10:22:01.236Z</time></trkpt><trkpt lat="40.4598045" lon="9.0396178"><ele>907.0</ele><time>2026-03-22T10:22:02.236Z</time></trkpt><trkpt lat="40.4596123" lon="9.039345"><ele>907.0</ele><time>2026-03-22T10:22:04.236Z</time></trkpt><trkpt lat="40.459635" lon="9.0391371"><ele>907.0</ele><time>2026-03-22T10:22:05.236Z</time></trkpt><trkpt lat="40.4595813" lon="9.038804"><ele>902.3333333333333</ele><time>2026-03-22T10:22:07.236Z</time></trkpt><trkpt lat="40.4595482" lon="9.038663"><ele>897.6666666666667</ele><time>2026-03-22T10:22:08.236Z</time></trkpt><trkpt lat="40.4594702" lon="9.0385654"><ele>893.0</ele><time>2026-03-22T10:22:09.236Z</time></trkpt><trkpt lat="40.459236" lon="9.0384904"><ele>893.0</ele><time>2026-03-22T10:22:11.236Z</time></trkpt><trkpt lat="40.459104" lon="9.0384908"><ele>893.0</ele><time>2026-03-22T10:22:12.236Z</time></trkpt><trkpt lat="40.4589546" lon="9.0385101"><ele>893.0</ele><time>2026-03-22T10:22:13.236Z</time></trkpt><trkpt lat="40.458804" lon="9.0385247"><ele>893.0</ele><time>2026-03-22T10:22:14.236Z</time></trkpt><trkpt lat="40.4586665" lon="9.0384947"><ele>896.3333333333334</ele><time>2026-03-22T10:22:15.236Z</time></trkpt><trkpt lat="40.4585374" lon="9.038417"><ele>899.6666666666667</ele><time>2026-03-22T10:22:16.236Z</time></trkpt><trkpt lat="40.4583202" lon="9.0381801"><ele>903.0</ele><time>2026-03-22T10:22:18.236Z</time></trkpt><trkpt lat="40.4581671" lon="9.0379024"><ele>903.0</ele><time>2026-03-22T10:22:20.236Z</time></trkpt><trkpt lat="40.4580113" lon="9.0377292"><ele>903.0</ele><time>2026-03-22T10:22:22.236Z</time></trkpt><trkpt lat="40.4578302" lon="9.037713"><ele>903.0</ele><time>2026-03-22T10:22:24.236Z</time></trkpt><trkpt lat="40.4576539" lon="9.0378884"><ele>902.0</ele><time>2026-03-22T10:22:26.236Z</time></trkpt><trkpt lat="40.4574392" lon="9.0381477"><ele>901.0</ele><time>2026-03-22T10:22:28.236Z</time></trkpt><trkpt lat="40.4571671" lon="9.0384269"><ele>895.5</ele><time>2026-03-22T10:22:30.236Z</time></trkpt><trkpt lat="40.4568878" lon="9.0387342"><ele>890.0</ele><time>2026-03-22T10:22:32.236Z</time></trkpt><trkpt lat="40.4566326" lon="9.0390565"><ele>890.0</ele><time>2026-03-22T10:22:34.236Z</time></trkpt><trkpt lat="40.4565149" lon="9.0392106"><ele>890.0</ele><time>2026-03-22T10:22:35.236Z</time></trkpt><trkpt lat="40.4563892" lon="9.0393602"><ele>890.0</ele><time>2026-03-22T10:22:36.236Z</time></trkpt><trkpt lat="40.4561656" lon="9.039672"><ele>875.5</ele><time>2026-03-22T10:22:38.236Z</time></trkpt><trkpt lat="40.4559503" lon="9.0399803"><ele>861.0</ele><time>2026-03-22T10:22:40.236Z</time></trkpt><trkpt lat="40.4556965" lon="9.0402613"><ele>861.0</ele><time>2026-03-22T10:22:42.236Z</time></trkpt><trkpt lat="40.4555026" lon="9.0405754"><ele>861.0</ele><time>2026-03-22T10:22:44.236Z</time></trkpt><trkpt lat="40.4553887" lon="9.0409705"><ele>865.5</ele><time>2026-03-22T10:22:46.236Z</time></trkpt><trkpt lat="40.4552632" lon="9.0413544"><ele>870.0</ele><time>2026-03-22T10:22:48.236Z</time></trkpt><trkpt lat="40.4550839" lon="9.0416721"><ele>866.5</ele><time>2026-03-22T10:22:50.236Z</time></trkpt><trkpt lat="40.4548292" lon="9.0419268"><ele>863.0</ele><time>2026-03-22T10:22:52.236Z</time></trkpt><trkpt lat="40.454536" lon="9.0421738"><ele>863.0</ele><time>2026-03-22T10:22:54.236Z</time></trkpt><trkpt lat="40.4543907" lon="9.0422766"><ele>863.0</ele><time>2026-03-22T10:22:55.236Z</time></trkpt><trkpt lat="40.4542462" lon="9.0423856"><ele>863.0</ele><time>2026-03-22T10:22:56.236Z</time></trkpt><trkpt lat="40.4540943" lon="9.0425086"><ele>856.3333333333334</ele><time>2026-03-22T10:22:57.236Z</time></trkpt><trkpt lat="40.45393" lon="9.0426094"><ele>849.6666666666667</ele><time>2026-03-22T10:22:58.236Z</time></trkpt><trkpt lat="40.4537818" lon="9.0427243"><ele>843.0</ele><time>2026-03-22T10:22:59.236Z</time></trkpt><trkpt lat="40.4536401" lon="9.0428125"><ele>843.0</ele><time>2026-03-22T10:23:00.236Z</time></trkpt><trkpt lat="40.4533533" lon="9.0429951"><ele>843.0</ele><time>2026-03-22T10:23:02.236Z</time></trkpt><trkpt lat="40.4532172" lon="9.0430501"><ele>843.0</ele><time>2026-03-22T10:23:03.236Z</time></trkpt><trkpt lat="40.4530849" lon="9.0430822"><ele>843.0</ele><time>2026-03-22T10:23:04.236Z</time></trkpt><trkpt lat="40.4528469" lon="9.0430218"><ele>843.0</ele><time>2026-03-22T10:23:06.236Z</time></trkpt><trkpt lat="40.4526242" lon="9.0428666"><ele>840.25</ele><time>2026-03-22T10:23:08.236Z</time></trkpt><trkpt lat="40.452545" lon="9.0427806"><ele>837.5</ele><time>2026-03-22T10:23:09.236Z</time></trkpt><trkpt lat="40.4524907" lon="9.0426839"><ele>834.75</ele><time>2026-03-22T10:23:10.236Z</time></trkpt><trkpt lat="40.4524468" lon="9.0424636"><ele>832.0</ele><time>2026-03-22T10:23:12.236Z</time></trkpt><trkpt lat="40.4524827" lon="9.0421924"><ele>832.0</ele><time>2026-03-22T10:23:14.236Z</time></trkpt><trkpt lat="40.4524764" lon="9.0419169"><ele>832.0</ele><time>2026-03-22T10:23:16.236Z</time></trkpt><trkpt lat="40.4523516" lon="9.0416696"><ele>832.0</ele><time>2026-03-22T10:23:18.236Z</time></trkpt><trkpt lat="40.4522519" lon="9.0415776"><ele>836.0</ele><time>2026-03-22T10:23:19.236Z</time></trkpt><trkpt lat="40.452165" lon="9.0413365"><ele>840.0</ele><time>2026-03-22T10:23:21.236Z</time></trkpt><trkpt lat="40.4521471" lon="9.0410208"><ele>844.0</ele><time>2026-03-22T10:23:23.236Z</time></trkpt><trkpt lat="40.4521101" lon="9.0408127"><ele>847.5</ele><time>2026-03-22T10:23:25.236Z</time></trkpt><trkpt lat="40.4519665" lon="9.0406605"><ele>851.0</ele><time>2026-03-22T10:23:27.236Z</time></trkpt><trkpt lat="40.4516969" lon="9.0408302"><ele>835.5</ele><time>2026-03-22T10:23:29.236Z</time></trkpt><trkpt lat="40.4514237" lon="9.0408922"><ele>820.0</ele><time>2026-03-22T10:23:31.236Z</time></trkpt><trkpt lat="40.4511527" lon="9.040921"><ele>813.0</ele><time>2026-03-22T10:23:33.236Z</time></trkpt><trkpt lat="40.4508866" lon="9.0408025"><ele>806.0</ele><time>2026-03-22T10:23:35.236Z</time></trkpt><trkpt lat="40.4506094" lon="9.0406517"><ele>815.0</ele><time>2026-03-22T10:23:37.236Z</time></trkpt><trkpt lat="40.4503601" lon="9.0404731"><ele>824.0</ele><time>2026-03-22T10:23:39.236Z</time></trkpt><trkpt lat="40.4501536" lon="9.0403384"><ele>824.0</ele><time>2026-03-22T10:23:41.236Z</time></trkpt><trkpt lat="40.4500536" lon="9.0403309"><ele>824.0</ele><time>2026-03-22T10:23:42.236Z</time></trkpt><trkpt lat="40.4499582" lon="9.0403749"><ele>824.0</ele><time>2026-03-22T10:23:43.236Z</time></trkpt><trkpt lat="40.4498888" lon="9.0404758"><ele>824.0</ele><time>2026-03-22T10:23:44.236Z</time></trkpt><trkpt lat="40.4498482" lon="9.0406129"><ele>824.0</ele><time>2026-03-22T10:23:45.236Z</time></trkpt><trkpt lat="40.449785" lon="9.0409501"><ele>822.5</ele><time>2026-03-22T10:23:47.236Z</time></trkpt><trkpt lat="40.4497103" lon="9.0412658"><ele>821.0</ele><time>2026-03-22T10:23:49.236Z</time></trkpt><trkpt lat="40.4495352" lon="9.0415166"><ele>805.5</ele><time>2026-03-22T10:23:51.236Z</time></trkpt><trkpt lat="40.4493156" lon="9.0416904"><ele>790.0</ele><time>2026-03-22T10:23:53.236Z</time></trkpt><trkpt lat="40.4490276" lon="9.0417872"><ele>795.5</ele><time>2026-03-22T10:23:55.236Z</time></trkpt><trkpt lat="40.4486955" lon="9.0418036"><ele>801.0</ele><time>2026-03-22T10:23:57.236Z</time></trkpt><trkpt lat="40.4483453" lon="9.0418378"><ele>801.0</ele><time>2026-03-22T10:23:59.236Z</time></trkpt><trkpt lat="40.4480099" lon="9.0419508"><ele>801.0</ele><time>2026-03-22T10:24:01.236Z</time></trkpt><trkpt lat="40.4478516" lon="9.0420236"><ele>803.0</ele><time>2026-03-22T10:24:02.236Z</time></trkpt><trkpt lat="40.4477072" lon="9.0420872"><ele>805.0</ele><time>2026-03-22T10:24:03.236Z</time></trkpt><trkpt lat="40.4474323" lon="9.042142"><ele>807.0</ele><time>2026-03-22T10:24:05.236Z</time></trkpt><trkpt lat="40.4472032" lon="9.0421911"><ele>806.0</ele><time>2026-03-22T10:24:07.236Z</time></trkpt><trkpt lat="40.4470054" lon="9.042439"><ele>805.0</ele><time>2026-03-22T10:24:09.236Z</time></trkpt><trkpt lat="40.4469147" lon="9.042585"><ele>804.0</ele><time>2026-03-22T10:24:10.236Z</time></trkpt><trkpt lat="40.4468073" lon="9.0427636"><ele>795.0</ele><time>2026-03-22T10:24:11.236Z</time></trkpt><trkpt lat="40.4467215" lon="9.0429212"><ele>786.0</ele><time>2026-03-22T10:24:12.236Z</time></trkpt><trkpt lat="40.4465284" lon="9.0432941"><ele>779.5</ele><time>2026-03-22T10:24:14.236Z</time></trkpt><trkpt lat="40.4463567" lon="9.0436402"><ele>773.0</ele><time>2026-03-22T10:24:16.236Z</time></trkpt><trkpt lat="40.4462736" lon="9.0437879"><ele>773.0</ele><time>2026-03-22T10:24:17.236Z</time></trkpt><trkpt lat="40.4461708" lon="9.0438865"><ele>773.0</ele><time>2026-03-22T10:24:18.236Z</time></trkpt><trkpt lat="40.4460535" lon="9.0439527"><ele>773.0</ele><time>2026-03-22T10:24:19.236Z</time></trkpt><trkpt lat="40.4458275" lon="9.0439368"><ele>773.0</ele><time>2026-03-22T10:24:21.236Z</time></trkpt><trkpt lat="40.4456976" lon="9.0436936"><ele>773.0</ele><time>2026-03-22T10:24:23.236Z</time></trkpt><trkpt lat="40.4456532" lon="9.0433914"><ele>776.3333333333334</ele><time>2026-03-22T10:24:25.236Z</time></trkpt><trkpt lat="40.4455628" lon="9.0430661"><ele>779.6666666666667</ele><time>2026-03-22T10:24:27.236Z</time></trkpt><trkpt lat="40.4455052" lon="9.0429134"><ele>783.0</ele><time>2026-03-22T10:24:28.236Z</time></trkpt><trkpt lat="40.4453506" lon="9.0427919"><ele>774.0</ele><time>2026-03-22T10:24:30.236Z</time></trkpt><trkpt lat="40.4452576" lon="9.0428354"><ele>765.0</ele><time>2026-03-22T10:24:31.236Z</time></trkpt><trkpt lat="40.4451166" lon="9.0430794"><ele>756.0</ele><time>2026-03-22T10:24:33.236Z</time></trkpt><trkpt lat="40.4451221" lon="9.0433456"><ele>754.5</ele><time>2026-03-22T10:24:35.236Z</time></trkpt><trkpt lat="40.4452473" lon="9.0436114"><ele>753.0</ele><time>2026-03-22T10:24:37.236Z</time></trkpt><trkpt lat="40.4453389" lon="9.0439615"><ele>748.0</ele><time>2026-03-22T10:24:39.236Z</time></trkpt><trkpt lat="40.4453566" lon="9.044342"><ele>743.0</ele><time>2026-03-22T10:24:41.236Z</time></trkpt><trkpt lat="40.4453873" lon="9.0447046"><ele>744.0</ele><time>2026-03-22T10:24:43.236Z</time></trkpt><trkpt lat="40.4454764" lon="9.0449872"><ele>745.0</ele><time>2026-03-22T10:24:45.236Z</time></trkpt><trkpt lat="40.4455693" lon="9.0451219"><ele>746.0</ele><time>2026-03-22T10:24:47.236Z</time></trkpt><trkpt lat="40.4456188" lon="9.0451802"><ele>747.0</ele><time>2026-03-22T10:24:49.236Z</time></trkpt><trkpt lat="40.4458347" lon="9.0449664"><ele>746.3333333333334</ele><time>2026-03-22T10:24:51.236Z</time></trkpt><trkpt lat="40.4459791" lon="9.0448571"><ele>745.6666666666667</ele><time>2026-03-22T10:24:52.236Z</time></trkpt><trkpt lat="40.4461159" lon="9.0447531"><ele>745.0</ele><time>2026-03-22T10:24:53.236Z</time></trkpt><trkpt lat="40.4464183" lon="9.044555"><ele>745.0</ele><time>2026-03-22T10:24:55.236Z</time></trkpt><trkpt lat="40.446666" lon="9.0443393"><ele>745.0</ele><time>2026-03-22T10:24:57.236Z</time></trkpt><trkpt lat="40.4469552" lon="9.0440095"><ele>740.6666666666667</ele><time>2026-03-22T10:24:59.236Z</time></trkpt><trkpt lat="40.4470351" lon="9.0437983"><ele>736.3333333333334</ele><time>2026-03-22T10:25:00.236Z</time></trkpt><trkpt lat="40.4471324" lon="9.0436459"><ele>732.0</ele><time>2026-03-22T10:25:01.237Z</time></trkpt><trkpt lat="40.4473056" lon="9.0433932"><ele>750.5</ele><time>2026-03-22T10:25:03.236Z</time></trkpt><trkpt lat="40.4475361" lon="9.0432545"><ele>769.0</ele><time>2026-03-22T10:25:05.236Z</time></trkpt><trkpt lat="40.4478745" lon="9.0431578"><ele>764.5</ele><time>2026-03-22T10:25:07.236Z</time></trkpt><trkpt lat="40.4481875" lon="9.04309"><ele>760.0</ele><time>2026-03-22T10:25:09.236Z</time></trkpt><trkpt lat="40.4484787" lon="9.0430328"><ele>760.0</ele><time>2026-03-22T10:25:11.236Z</time></trkpt><trkpt lat="40.4487538" lon="9.043085"><ele>760.0</ele><time>2026-03-22T10:25:13.236Z</time></trkpt><trkpt lat="40.4489847" lon="9.0431843"><ele>758.0</ele><time>2026-03-22T10:25:15.236Z</time></trkpt><trkpt lat="40.4491866" lon="9.0432269"><ele>756.0</ele><time>2026-03-22T10:25:17.236Z</time></trkpt><trkpt lat="40.4494125" lon="9.0431356"><ele>754.0</ele><time>2026-03-22T10:25:19.236Z</time></trkpt><trkpt lat="40.4496253" lon="9.0429553"><ele>750.0</ele><time>2026-03-22T10:25:21.236Z</time></trkpt><trkpt lat="40.4497065" lon="9.042834"><ele>746.0</ele><time>2026-03-22T10:25:22.236Z</time></trkpt><trkpt lat="40.4498148" lon="9.0427506"><ele>742.0</ele><time>2026-03-22T10:25:23.236Z</time></trkpt><trkpt lat="40.4499324" lon="9.0426887"><ele>738.0</ele><time>2026-03-22T10:25:24.236Z</time></trkpt><trkpt lat="40.4500172" lon="9.0426954"><ele>738.0</ele><time>2026-03-22T10:25:25.236Z</time></trkpt><trkpt lat="40.4501295" lon="9.0428322"><ele>738.0</ele><time>2026-03-22T10:25:27.236Z</time></trkpt><trkpt lat="40.4502507" lon="9.0430024"><ele>738.0</ele><time>2026-03-22T10:25:29.236Z</time></trkpt><trkpt lat="40.4504456" lon="9.0430846"><ele>740.0</ele><time>2026-03-22T10:25:31.236Z</time></trkpt><trkpt lat="40.4506903" lon="9.0431045"><ele>742.0</ele><time>2026-03-22T10:25:33.236Z</time></trkpt><trkpt lat="40.4507932" lon="9.0431071"><ele>744.0</ele><time>2026-03-22T10:25:34.236Z</time></trkpt><trkpt lat="40.4509717" lon="9.0431697"><ele>735.3333333333334</ele><time>2026-03-22T10:25:36.236Z</time></trkpt><trkpt lat="40.4510547" lon="9.0433556"><ele>726.6666666666667</ele><time>2026-03-22T10:25:38.236Z</time></trkpt><trkpt lat="40.4510297" lon="9.0436899"><ele>718.0</ele><time>2026-03-22T10:25:40.236Z</time></trkpt><trkpt lat="40.4510163" lon="9.0440609"><ele>709.5</ele><time>2026-03-22T10:25:42.236Z</time></trkpt><trkpt lat="40.4510278" lon="9.0443991"><ele>701.0</ele><time>2026-03-22T10:25:44.236Z</time></trkpt><trkpt lat="40.4511071" lon="9.0447579"><ele>695.5</ele><time>2026-03-22T10:25:46.236Z</time></trkpt><trkpt lat="40.4512222" lon="9.0451105"><ele>690.0</ele><time>2026-03-22T10:25:48.236Z</time></trkpt><trkpt lat="40.4512453" lon="9.0454177"><ele>690.0</ele><time>2026-03-22T10:25:50.236Z</time></trkpt><trkpt lat="40.4511948" lon="9.0457432"><ele>690.0</ele><time>2026-03-22T10:25:52.236Z</time></trkpt><trkpt lat="40.4511626" lon="9.045926"><ele>690.0</ele><time>2026-03-22T10:25:53.236Z</time></trkpt><trkpt lat="40.4509444" lon="9.0462368"><ele>690.6666666666666</ele><time>2026-03-22T10:25:55.236Z</time></trkpt><trkpt lat="40.4508418" lon="9.0463934"><ele>691.3333333333333</ele><time>2026-03-22T10:25:56.236Z</time></trkpt><trkpt lat="40.4507461" lon="9.0465383"><ele>692.0</ele><time>2026-03-22T10:25:57.236Z</time></trkpt><trkpt lat="40.4506492" lon="9.0466993"><ele>696.3333333333333</ele><time>2026-03-22T10:25:58.236Z</time></trkpt><trkpt lat="40.4505618" lon="9.0468561"><ele>700.6666666666666</ele><time>2026-03-22T10:25:59.236Z</time></trkpt><trkpt lat="40.4504463" lon="9.0471952"><ele>705.0</ele><time>2026-03-22T10:26:01.236Z</time></trkpt><trkpt lat="40.4504211" lon="9.0473667"><ele>707.3333333333334</ele><time>2026-03-22T10:26:02.236Z</time></trkpt><trkpt lat="40.4504266" lon="9.0475449"><ele>709.6666666666667</ele><time>2026-03-22T10:26:03.236Z</time></trkpt><trkpt lat="40.4504704" lon="9.0477074"><ele>712.0</ele><time>2026-03-22T10:26:04.236Z</time></trkpt><trkpt lat="40.4506253" lon="9.0480544"><ele>699.5</ele><time>2026-03-22T10:26:06.236Z</time></trkpt><trkpt lat="40.4508149" lon="9.0484059"><ele>687.0</ele><time>2026-03-22T10:26:08.236Z</time></trkpt><trkpt lat="40.4508965" lon="9.0485799"><ele>687.0</ele><time>2026-03-22T10:26:09.236Z</time></trkpt><trkpt lat="40.4509809" lon="9.0487665"><ele>687.0</ele><time>2026-03-22T10:26:10.236Z</time></trkpt><trkpt lat="40.4510992" lon="9.0491404"><ele>676.5</ele><time>2026-03-22T10:26:12.236Z</time></trkpt><trkpt lat="40.451138" lon="9.0494898"><ele>666.0</ele><time>2026-03-22T10:26:14.236Z</time></trkpt><trkpt lat="40.4512339" lon="9.0497887"><ele>676.0</ele><time>2026-03-22T10:26:16.236Z</time></trkpt><trkpt lat="40.4514279" lon="9.0500192"><ele>686.0</ele><time>2026-03-22T10:26:18.236Z</time></trkpt><trkpt lat="40.4516697" lon="9.0502429"><ele>686.0</ele><time>2026-03-22T10:26:20.236Z</time></trkpt><trkpt lat="40.4519188" lon="9.0504637"><ele>686.0</ele><time>2026-03-22T10:26:22.236Z</time></trkpt><trkpt lat="40.4521701" lon="9.0506576"><ele>681.0</ele><time>2026-03-22T10:26:24.237Z</time></trkpt><trkpt lat="40.4523594" lon="9.0508874"><ele>676.0</ele><time>2026-03-22T10:26:26.236Z</time></trkpt><trkpt lat="40.4525148" lon="9.0511698"><ele>676.0</ele><time>2026-03-22T10:26:28.236Z</time></trkpt><trkpt lat="40.4525758" lon="9.0513439"><ele>676.0</ele><time>2026-03-22T10:26:29.236Z</time></trkpt><trkpt lat="40.4526313" lon="9.0515183"><ele>676.0</ele><time>2026-03-22T10:26:30.236Z</time></trkpt><trkpt lat="40.4526978" lon="9.0516701"><ele>676.0</ele><time>2026-03-22T10:26:31.236Z</time></trkpt><trkpt lat="40.4527381" lon="9.0518267"><ele>669.3333333333334</ele><time>2026-03-22T10:26:32.236Z</time></trkpt><trkpt lat="40.4527753" lon="9.051976"><ele>662.6666666666666</ele><time>2026-03-22T10:26:33.236Z</time></trkpt><trkpt lat="40.452761" lon="9.052134"><ele>656.0</ele><time>2026-03-22T10:26:34.236Z</time></trkpt><trkpt lat="40.4526238" lon="9.0524169"><ele>653.0</ele><time>2026-03-22T10:26:36.236Z</time></trkpt><trkpt lat="40.4525363" lon="9.0526935"><ele>650.0</ele><time>2026-03-22T10:26:38.236Z</time></trkpt><trkpt lat="40.4525536" lon="9.0530143"><ele>647.5</ele><time>2026-03-22T10:26:40.236Z</time></trkpt><trkpt lat="40.4526547" lon="9.0534032"><ele>645.0</ele><time>2026-03-22T10:26:42.236Z</time></trkpt><trkpt lat="40.4527823" lon="9.0538436"><ele>650.5</ele><time>2026-03-22T10:26:44.236Z</time></trkpt><trkpt lat="40.4529109" lon="9.0543094"><ele>656.0</ele><time>2026-03-22T10:26:46.236Z</time></trkpt><trkpt lat="40.4530602" lon="9.0547488"><ele>650.0</ele><time>2026-03-22T10:26:48.236Z</time></trkpt><trkpt lat="40.4531787" lon="9.0551573"><ele>644.0</ele><time>2026-03-22T10:26:50.236Z</time></trkpt><trkpt lat="40.453286" lon="9.0555083"><ele>644.0</ele><time>2026-03-22T10:26:52.236Z</time></trkpt><trkpt lat="40.4534367" lon="9.055754"><ele>644.0</ele><time>2026-03-22T10:26:54.236Z</time></trkpt><trkpt lat="40.4536315" lon="9.0558378"><ele>644.0</ele><time>2026-03-22T10:26:56.236Z</time></trkpt><trkpt lat="40.4537281" lon="9.0558333"><ele>647.0</ele><time>2026-03-22T10:26:57.236Z</time></trkpt><trkpt lat="40.4539766" lon="9.0557788"><ele>650.0</ele><time>2026-03-22T10:26:59.236Z</time></trkpt><trkpt lat="40.4542558" lon="9.0557077"><ele>650.0</ele><time>2026-03-22T10:27:01.236Z</time></trkpt><trkpt lat="40.4544174" lon="9.0556449"><ele>650.0</ele><time>2026-03-22T10:27:02.236Z</time></trkpt><trkpt lat="40.4545914" lon="9.0555647"><ele>650.0</ele><time>2026-03-22T10:27:03.236Z</time></trkpt><trkpt lat="40.4547545" lon="9.0554799"><ele>646.0</ele><time>2026-03-22T10:27:04.236Z</time></trkpt><trkpt lat="40.4549048" lon="9.0554187"><ele>642.0</ele><time>2026-03-22T10:27:05.236Z</time></trkpt><trkpt lat="40.4550682" lon="9.0553617"><ele>638.0</ele><time>2026-03-22T10:27:06.236Z</time></trkpt><trkpt lat="40.4552159" lon="9.0552942"><ele>629.0</ele><time>2026-03-22T10:27:07.236Z</time></trkpt><trkpt lat="40.4554923" lon="9.055184"><ele>620.0</ele><time>2026-03-22T10:27:09.236Z</time></trkpt><trkpt lat="40.4557362" lon="9.055082"><ele>621.3333333333333</ele><time>2026-03-22T10:27:11.236Z</time></trkpt><trkpt lat="40.4558827" lon="9.054936"><ele>622.6666666666666</ele><time>2026-03-22T10:27:13.236Z</time></trkpt><trkpt lat="40.4559426" lon="9.0546457"><ele>624.0</ele><time>2026-03-22T10:27:15.236Z</time></trkpt><trkpt lat="40.4559417" lon="9.0544977"><ele>624.0</ele><time>2026-03-22T10:27:16.236Z</time></trkpt><trkpt lat="40.4559473" lon="9.0543573"><ele>624.0</ele><time>2026-03-22T10:27:17.236Z</time></trkpt><trkpt lat="40.4559343" lon="9.0541634"><ele>624.0</ele><time>2026-03-22T10:27:18.236Z</time></trkpt><trkpt lat="40.4559537" lon="9.0538319"><ele>622.6666666666666</ele><time>2026-03-22T10:27:20.236Z</time></trkpt><trkpt lat="40.4560289" lon="9.0535117"><ele>621.3333333333333</ele><time>2026-03-22T10:27:22.236Z</time></trkpt><trkpt lat="40.4561138" lon="9.0533633"><ele>620.0</ele><time>2026-03-22T10:27:23.236Z</time></trkpt><trkpt lat="40.4563258" lon="9.0530786"><ele>620.0</ele><time>2026-03-22T10:27:25.236Z</time></trkpt><trkpt lat="40.456564" lon="9.0528254"><ele>620.0</ele><time>2026-03-22T10:27:27.236Z</time></trkpt><trkpt lat="40.4567735" lon="9.0525519"><ele>621.5</ele><time>2026-03-22T10:27:29.236Z</time></trkpt><trkpt lat="40.456962" lon="9.0523535"><ele>623.0</ele><time>2026-03-22T10:27:31.236Z</time></trkpt><trkpt lat="40.4571648" lon="9.0522157"><ele>623.0</ele><time>2026-03-22T10:27:33.236Z</time></trkpt><trkpt lat="40.457364" lon="9.05227"><ele>623.0</ele><time>2026-03-22T10:27:35.236Z</time></trkpt><trkpt lat="40.457553" lon="9.0524181"><ele>623.0</ele><time>2026-03-22T10:27:37.236Z</time></trkpt><trkpt lat="40.4576501" lon="9.05244"><ele>619.8</ele><time>2026-03-22T10:27:38.236Z</time></trkpt><trkpt lat="40.4577255" lon="9.0524784"><ele>616.5999999999999</ele><time>2026-03-22T10:27:39.236Z</time></trkpt><trkpt lat="40.4578111" lon="9.0525272"><ele>613.4000000000001</ele><time>2026-03-22T10:27:40.236Z</time></trkpt><trkpt lat="40.4578963" lon="9.0525306"><ele>610.2</ele><time>2026-03-22T10:27:41.236Z</time></trkpt><trkpt lat="40.4580275" lon="9.052452"><ele>607.0</ele><time>2026-03-22T10:27:43.236Z</time></trkpt><trkpt lat="40.4582962" lon="9.0521009"><ele>608.5</ele><time>2026-03-22T10:27:45.236Z</time></trkpt><trkpt lat="40.4584979" lon="9.0516309"><ele>610.0</ele><time>2026-03-22T10:27:47.236Z</time></trkpt><trkpt lat="40.4586063" lon="9.0512545"><ele>610.0</ele><time>2026-03-22T10:27:49.236Z</time></trkpt><trkpt lat="40.4586652" lon="9.0509311"><ele>610.0</ele><time>2026-03-22T10:27:51.236Z</time></trkpt><trkpt lat="40.4586799" lon="9.050772"><ele>610.0</ele><time>2026-03-22T10:27:52.236Z</time></trkpt><trkpt lat="40.458669" lon="9.0505778"><ele>611.5</ele><time>2026-03-22T10:27:53.236Z</time></trkpt><trkpt lat="40.4587048" lon="9.0502172"><ele>613.0</ele><time>2026-03-22T10:27:55.236Z</time></trkpt><trkpt lat="40.4587223" lon="9.0499269"><ele>612.6666666666667</ele><time>2026-03-22T10:27:57.236Z</time></trkpt><trkpt lat="40.4587576" lon="9.0496403"><ele>612.3333333333334</ele><time>2026-03-22T10:27:59.236Z</time></trkpt><trkpt lat="40.4587612" lon="9.0493599"><ele>612.0</ele><time>2026-03-22T10:28:01.236Z</time></trkpt><trkpt lat="40.4589868" lon="9.0493062"><ele>612.0</ele><time>2026-03-22T10:28:03.236Z</time></trkpt><trkpt lat="40.4591495" lon="9.0493773"><ele>612.0</ele><time>2026-03-22T10:28:05.236Z</time></trkpt><trkpt lat="40.4592428" lon="9.0495665"><ele>612.0</ele><time>2026-03-22T10:28:07.236Z</time></trkpt><trkpt lat="40.4591754" lon="9.0498022"><ele>608.0</ele><time>2026-03-22T10:28:09.236Z</time></trkpt><trkpt lat="40.4590471" lon="9.0500215"><ele>604.0</ele><time>2026-03-22T10:28:11.236Z</time></trkpt><trkpt lat="40.4589902" lon="9.0501474"><ele>600.0</ele><time>2026-03-22T10:28:12.236Z</time></trkpt><trkpt lat="40.4589503" lon="9.0502971"><ele>596.0</ele><time>2026-03-22T10:28:13.236Z</time></trkpt><trkpt lat="40.4589253" lon="9.0504839"><ele>596.0</ele><time>2026-03-22T10:28:14.236Z</time></trkpt><trkpt lat="40.4589118" lon="9.0506727"><ele>596.0</ele><time>2026-03-22T10:28:15.236Z</time></trkpt><trkpt lat="40.4588879" lon="9.0510279"><ele>596.0</ele><time>2026-03-22T10:28:17.236Z</time></trkpt><trkpt lat="40.4588403" lon="9.051373"><ele>599.0</ele><time>2026-03-22T10:28:19.236Z</time></trkpt><trkpt lat="40.4587197" lon="9.0517265"><ele>602.0</ele><time>2026-03-22T10:28:21.236Z</time></trkpt><trkpt lat="40.458594" lon="9.0521023"><ele>602.0</ele><time>2026-03-22T10:28:23.236Z</time></trkpt><trkpt lat="40.4584777" lon="9.0524322"><ele>602.0</ele><time>2026-03-22T10:28:25.236Z</time></trkpt><trkpt lat="40.458338" lon="9.0527278"><ele>594.5</ele><time>2026-03-22T10:28:27.236Z</time></trkpt><trkpt lat="40.4581736" lon="9.0529708"><ele>587.0</ele><time>2026-03-22T10:28:29.236Z</time></trkpt><trkpt lat="40.4579648" lon="9.0531545"><ele>586.3333333333333</ele><time>2026-03-22T10:28:31.236Z</time></trkpt><trkpt lat="40.4577621" lon="9.0532803"><ele>585.6666666666666</ele><time>2026-03-22T10:28:33.236Z</time></trkpt><trkpt lat="40.4576248" lon="9.0534485"><ele>585.0</ele><time>2026-03-22T10:28:35.236Z</time></trkpt><trkpt lat="40.4576354" lon="9.0536704"><ele>585.0</ele><time>2026-03-22T10:28:37.236Z</time></trkpt><trkpt lat="40.4577306" lon="9.0538489"><ele>585.0</ele><time>2026-03-22T10:28:39.236Z</time></trkpt><trkpt lat="40.4578856" lon="9.0540475"><ele>585.0</ele><time>2026-03-22T10:28:41.236Z</time></trkpt><trkpt lat="40.4579182" lon="9.0543129"><ele>582.6666666666666</ele><time>2026-03-22T10:28:43.236Z</time></trkpt><trkpt lat="40.4578502" lon="9.0546447"><ele>580.3333333333333</ele><time>2026-03-22T10:28:45.236Z</time></trkpt><trkpt lat="40.4577858" lon="9.0548365"><ele>578.0</ele><time>2026-03-22T10:28:46.236Z</time></trkpt><trkpt lat="40.4577184" lon="9.0550421"><ele>575.6666666666666</ele><time>2026-03-22T10:28:47.236Z</time></trkpt><trkpt lat="40.4576669" lon="9.0552295"><ele>573.3333333333334</ele><time>2026-03-22T10:28:48.236Z</time></trkpt><trkpt lat="40.4576125" lon="9.0554565"><ele>571.0</ele><time>2026-03-22T10:28:49.236Z</time></trkpt><trkpt lat="40.4575678" lon="9.0556441"><ele>567.6666666666667</ele><time>2026-03-22T10:28:50.236Z</time></trkpt><trkpt lat="40.4575434" lon="9.0558593"><ele>564.3333333333334</ele><time>2026-03-22T10:28:51.236Z</time></trkpt><trkpt lat="40.4575449" lon="9.0560836"><ele>561.0</ele><time>2026-03-22T10:28:52.236Z</time></trkpt><trkpt lat="40.4575581" lon="9.0562974"><ele>561.0</ele><time>2026-03-22T10:28:53.236Z</time></trkpt><trkpt lat="40.4575821" lon="9.0565139"><ele>561.0</ele><time>2026-03-22T10:28:54.236Z</time></trkpt><trkpt lat="40.4576338" lon="9.0567213"><ele>561.0</ele><time>2026-03-22T10:28:55.236Z</time></trkpt><trkpt lat="40.4576697" lon="9.0569057"><ele>560.5</ele><time>2026-03-22T10:28:56.236Z</time></trkpt><trkpt lat="40.4577096" lon="9.0570715"><ele>560.0</ele><time>2026-03-22T10:28:57.236Z</time></trkpt><trkpt lat="40.457733" lon="9.057226"><ele>559.5</ele><time>2026-03-22T10:28:58.236Z</time></trkpt><trkpt lat="40.4577231" lon="9.0573868"><ele>559.0</ele><time>2026-03-22T10:28:59.236Z</time></trkpt><trkpt lat="40.4576764" lon="9.0575276"><ele>556.0</ele><time>2026-03-22T10:29:00.236Z</time></trkpt><trkpt lat="40.4576115" lon="9.0576507"><ele>553.0</ele><time>2026-03-22T10:29:01.236Z</time></trkpt><trkpt lat="40.457516" lon="9.0577564"><ele>550.0</ele><time>2026-03-22T10:29:02.236Z</time></trkpt><trkpt lat="40.4574104" lon="9.0578495"><ele>547.0</ele><time>2026-03-22T10:29:03.236Z</time></trkpt><trkpt lat="40.4572916" lon="9.0579315"><ele>547.0</ele><time>2026-03-22T10:29:04.236Z</time></trkpt><trkpt lat="40.4571745" lon="9.0579929"><ele>547.0</ele><time>2026-03-22T10:29:05.236Z</time></trkpt><trkpt lat="40.4570452" lon="9.0580745"><ele>547.0</ele><time>2026-03-22T10:29:06.236Z</time></trkpt><trkpt lat="40.4569154" lon="9.0581461"><ele>547.0</ele><time>2026-03-22T10:29:07.236Z</time></trkpt><trkpt lat="40.4567919" lon="9.0582129"><ele>545.0</ele><time>2026-03-22T10:29:08.236Z</time></trkpt><trkpt lat="40.4566772" lon="9.0582707"><ele>543.0</ele><time>2026-03-22T10:29:09.236Z</time></trkpt><trkpt lat="40.4565676" lon="9.0583243"><ele>541.0</ele><time>2026-03-22T10:29:10.236Z</time></trkpt><trkpt lat="40.4564628" lon="9.0583616"><ele>539.0</ele><time>2026-03-22T10:29:11.236Z</time></trkpt><trkpt lat="40.4563386" lon="9.0583223"><ele>545.0</ele><time>2026-03-22T10:29:12.236Z</time></trkpt><trkpt lat="40.4562136" lon="9.0582775"><ele>551.0</ele><time>2026-03-22T10:29:13.236Z</time></trkpt><trkpt lat="40.4560949" lon="9.0582465"><ele>557.0</ele><time>2026-03-22T10:29:14.236Z</time></trkpt><trkpt lat="40.4559843" lon="9.0582309"><ele>563.0</ele><time>2026-03-22T10:29:15.236Z</time></trkpt><trkpt lat="40.4558892" lon="9.0582211"><ele>563.0</ele><time>2026-03-22T10:29:16.236Z</time></trkpt><trkpt lat="40.4557821" lon="9.0582548"><ele>563.0</ele><time>2026-03-22T10:29:17.236Z</time></trkpt><trkpt lat="40.455679" lon="9.0583029"><ele>563.0</ele><time>2026-03-22T10:29:18.236Z</time></trkpt><trkpt lat="40.4556249" lon="9.0584329"><ele>563.0</ele><time>2026-03-22T10:29:19.236Z</time></trkpt><trkpt lat="40.4555583" lon="9.0585733"><ele>557.75</ele><time>2026-03-22T10:29:20.236Z</time></trkpt><trkpt lat="40.4555148" lon="9.058718"><ele>552.5</ele><time>2026-03-22T10:29:21.236Z</time></trkpt><trkpt lat="40.455457" lon="9.0588697"><ele>547.25</ele><time>2026-03-22T10:29:22.236Z</time></trkpt><trkpt lat="40.4554114" lon="9.0590203"><ele>542.0</ele><time>2026-03-22T10:29:23.236Z</time></trkpt><trkpt lat="40.4553523" lon="9.0593274"><ele>540.0</ele><time>2026-03-22T10:29:25.236Z</time></trkpt><trkpt lat="40.4553646" lon="9.0596428"><ele>538.0</ele><time>2026-03-22T10:29:27.236Z</time></trkpt><trkpt lat="40.4554295" lon="9.0598238"><ele>536.0</ele><time>2026-03-22T10:29:28.236Z</time></trkpt><trkpt lat="40.4554786" lon="9.0599994"><ele>525.0</ele><time>2026-03-22T10:29:29.236Z</time></trkpt><trkpt lat="40.4556165" lon="9.0603185"><ele>514.0</ele><time>2026-03-22T10:29:31.236Z</time></trkpt><trkpt lat="40.4557722" lon="9.060583"><ele>514.3333333333334</ele><time>2026-03-22T10:29:33.236Z</time></trkpt><trkpt lat="40.4558864" lon="9.0608238"><ele>514.6666666666666</ele><time>2026-03-22T10:29:35.236Z</time></trkpt><trkpt lat="40.4559429" lon="9.061101"><ele>515.0</ele><time>2026-03-22T10:29:37.236Z</time></trkpt><trkpt lat="40.4559133" lon="9.0614345"><ele>513.3333333333333</ele><time>2026-03-22T10:29:39.236Z</time></trkpt><trkpt lat="40.4558502" lon="9.0617678"><ele>511.66666666666663</ele><time>2026-03-22T10:29:41.236Z</time></trkpt><trkpt lat="40.4558097" lon="9.061913"><ele>510.0</ele><time>2026-03-22T10:29:42.236Z</time></trkpt><trkpt lat="40.4556346" lon="9.0621861"><ele>513.5</ele><time>2026-03-22T10:29:44.236Z</time></trkpt><trkpt lat="40.4554208" lon="9.0624458"><ele>517.0</ele><time>2026-03-22T10:29:46.236Z</time></trkpt><trkpt lat="40.4552476" lon="9.0627427"><ele>517.0</ele><time>2026-03-22T10:29:48.236Z</time></trkpt><trkpt lat="40.4551443" lon="9.0631427"><ele>517.0</ele><time>2026-03-22T10:29:50.236Z</time></trkpt><trkpt lat="40.4550126" lon="9.063517"><ele>510.6666666666667</ele><time>2026-03-22T10:29:52.236Z</time></trkpt><trkpt lat="40.4549307" lon="9.0637051"><ele>504.33333333333337</ele><time>2026-03-22T10:29:53.236Z</time></trkpt><trkpt lat="40.4548521" lon="9.0638791"><ele>498.0</ele><time>2026-03-22T10:29:54.236Z</time></trkpt><trkpt lat="40.4547732" lon="9.0640291"><ele>498.75</ele><time>2026-03-22T10:29:55.236Z</time></trkpt><trkpt lat="40.4546922" lon="9.0641585"><ele>499.5</ele><time>2026-03-22T10:29:56.236Z</time></trkpt><trkpt lat="40.4546107" lon="9.064257"><ele>500.25</ele><time>2026-03-22T10:29:57.236Z</time></trkpt><trkpt lat="40.4545025" lon="9.0643359"><ele>501.0</ele><time>2026-03-22T10:29:58.236Z</time></trkpt><trkpt lat="40.4543894" lon="9.0643827"><ele>501.0</ele><time>2026-03-22T10:29:59.236Z</time></trkpt><trkpt lat="40.4542793" lon="9.0644113"><ele>501.0</ele><time>2026-03-22T10:30:00.236Z</time></trkpt><trkpt lat="40.4541798" lon="9.0644529"><ele>501.0</ele><time>2026-03-22T10:30:01.236Z</time></trkpt><trkpt lat="40.4541052" lon="9.0645245"><ele>501.0</ele><time>2026-03-22T10:30:02.236Z</time></trkpt><trkpt lat="40.454066" lon="9.0645968"><ele>501.0</ele><time>2026-03-22T10:30:03.236Z</time></trkpt><trkpt lat="40.4540307" lon="9.0646935"><ele>501.0</ele><time>2026-03-22T10:30:05.236Z</time></trkpt><trkpt lat="40.4540434" lon="9.0647756"><ele>501.0</ele><time>2026-03-22T10:30:38.236Z</time></trkpt><trkpt lat="40.4541751" lon="9.0648089"><ele>501.0</ele><time>2026-03-22T10:30:41.236Z</time></trkpt><trkpt lat="40.4542646" lon="9.064795"><ele>501.0</ele><time>2026-03-22T10:30:42.236Z</time></trkpt><trkpt lat="40.4543455" lon="9.0648092"><ele>501.0</ele><time>2026-03-22T10:30:43.236Z</time></trkpt><trkpt lat="40.4544552" lon="9.0647854"><ele>501.0</ele><time>2026-03-22T10:30:44.236Z</time></trkpt><trkpt lat="40.4545477" lon="9.0647589"><ele>501.0</ele><time>2026-03-22T10:30:45.236Z</time></trkpt><trkpt lat="40.4546497" lon="9.0647191"><ele>501.0</ele><time>2026-03-22T10:30:46.236Z</time></trkpt><trkpt lat="40.4547483" lon="9.0646525"><ele>501.0</ele><time>2026-03-22T10:30:47.236Z</time></trkpt><trkpt lat="40.454845" lon="9.0645737"><ele>501.0</ele><time>2026-03-22T10:30:48.236Z</time></trkpt><trkpt lat="40.455019" lon="9.0643705"><ele>500.25</ele><time>2026-03-22T10:30:50.236Z</time></trkpt><trkpt lat="40.4551263" lon="9.064243"><ele>499.5</ele><time>2026-03-22T10:30:51.236Z</time></trkpt><trkpt lat="40.455234" lon="9.0641067"><ele>498.75</ele><time>2026-03-22T10:30:52.236Z</time></trkpt><trkpt lat="40.4553155" lon="9.0639849"><ele>498.0</ele><time>2026-03-22T10:30:53.236Z</time></trkpt><trkpt lat="40.4554014" lon="9.0638727"><ele>491.0</ele><time>2026-03-22T10:30:54.236Z</time></trkpt><trkpt lat="40.455524" lon="9.063745"><ele>484.0</ele><time>2026-03-22T10:30:55.236Z</time></trkpt><trkpt lat="40.4555826" lon="9.0636548"><ele>477.0</ele><time>2026-03-22T10:30:56.236Z</time></trkpt><trkpt lat="40.4557404" lon="9.0634404"><ele>482.33333333333337</ele><time>2026-03-22T10:30:58.236Z</time></trkpt><trkpt lat="40.455851" lon="9.0631947"><ele>487.6666666666667</ele><time>2026-03-22T10:31:00.236Z</time></trkpt><trkpt lat="40.4560724" lon="9.0631673"><ele>493.0</ele><time>2026-03-22T10:31:02.236Z</time></trkpt><trkpt lat="40.4561705" lon="9.0631832"><ele>487.0</ele><time>2026-03-22T10:31:03.236Z</time></trkpt><trkpt lat="40.4563836" lon="9.0631397"><ele>481.0</ele><time>2026-03-22T10:31:05.236Z</time></trkpt><trkpt lat="40.4564825" lon="9.0630768"><ele>475.0</ele><time>2026-03-22T10:31:06.236Z</time></trkpt><trkpt lat="40.4566287" lon="9.0629402"><ele>475.0</ele><time>2026-03-22T10:31:08.236Z</time></trkpt><trkpt lat="40.4567535" lon="9.0627502"><ele>475.0</ele><time>2026-03-22T10:31:10.236Z</time></trkpt><trkpt lat="40.4568436" lon="9.0624919"><ele>475.0</ele><time>2026-03-22T10:31:12.236Z</time></trkpt><trkpt lat="40.4568802" lon="9.0623821"><ele>474.0</ele><time>2026-03-22T10:31:13.236Z</time></trkpt><trkpt lat="40.4569541" lon="9.062153"><ele>473.0</ele><time>2026-03-22T10:31:15.236Z</time></trkpt><trkpt lat="40.4570534" lon="9.0619878"><ele>472.0</ele><time>2026-03-22T10:31:17.236Z</time></trkpt><trkpt lat="40.4571282" lon="9.0618034"><ele>472.0</ele><time>2026-03-22T10:31:19.236Z</time></trkpt><trkpt lat="40.4571919" lon="9.0617349"><ele>472.00000000000006</ele><time>2026-03-22T10:31:20.236Z</time></trkpt><trkpt lat="40.4573071" lon="9.0616822"><ele>472.00000000000006</ele><time>2026-03-22T10:31:22.236Z</time></trkpt><trkpt lat="40.4573911" lon="9.0617531"><ele>472.0</ele><time>2026-03-22T10:31:24.236Z</time></trkpt><trkpt lat="40.4574754" lon="9.0618753"><ele>472.0</ele><time>2026-03-22T10:31:26.236Z</time></trkpt><trkpt lat="40.457507" lon="9.0619488"><ele>472.0</ele><time>2026-03-22T10:31:27.236Z</time></trkpt><trkpt lat="40.4575118" lon="9.0620341"><ele>472.0</ele><time>2026-03-22T10:31:28.236Z</time></trkpt><trkpt lat="40.4574825" lon="9.0622207"><ele>472.0</ele><time>2026-03-22T10:31:30.236Z</time></trkpt><trkpt lat="40.4574308" lon="9.0624756"><ele>472.0</ele><time>2026-03-22T10:31:32.236Z</time></trkpt><trkpt lat="40.4573736" lon="9.0627629"><ele>472.0</ele><time>2026-03-22T10:31:34.236Z</time></trkpt><trkpt lat="40.4573302" lon="9.063051"><ele>472.0</ele><time>2026-03-22T10:31:36.236Z</time></trkpt><trkpt lat="40.45727" lon="9.0633297"><ele>472.0</ele><time>2026-03-22T10:31:38.236Z</time></trkpt><trkpt lat="40.457201" lon="9.0636139"><ele>467.5</ele><time>2026-03-22T10:31:40.236Z</time></trkpt><trkpt lat="40.4570903" lon="9.0639012"><ele>463.0</ele><time>2026-03-22T10:31:42.236Z</time></trkpt><trkpt lat="40.4569595" lon="9.064164"><ele>458.5</ele><time>2026-03-22T10:31:44.236Z</time></trkpt><trkpt lat="40.4568142" lon="9.0644319"><ele>454.0</ele><time>2026-03-22T10:31:46.236Z</time></trkpt><trkpt lat="40.4567145" lon="9.0647471"><ele>454.0</ele><time>2026-03-22T10:31:48.236Z</time></trkpt><trkpt lat="40.4566507" lon="9.0650754"><ele>454.0</ele><time>2026-03-22T10:31:50.236Z</time></trkpt><trkpt lat="40.45663" lon="9.0652335"><ele>454.0</ele><time>2026-03-22T10:31:51.236Z</time></trkpt><trkpt lat="40.4566247" lon="9.0653988"><ele>454.0</ele><time>2026-03-22T10:31:52.236Z</time></trkpt><trkpt lat="40.4566191" lon="9.0655491"><ele>454.0</ele><time>2026-03-22T10:31:53.236Z</time></trkpt><trkpt lat="40.4566037" lon="9.065694"><ele>454.0</ele><time>2026-03-22T10:31:54.236Z</time></trkpt><trkpt lat="40.4566229" lon="9.0658332"><ele>454.0</ele><time>2026-03-22T10:31:55.236Z</time></trkpt><trkpt lat="40.4566408" lon="9.0659629"><ele>454.0</ele><time>2026-03-22T10:31:56.236Z</time></trkpt><trkpt lat="40.4566456" lon="9.0661013"><ele>452.0</ele><time>2026-03-22T10:31:57.236Z</time></trkpt><trkpt lat="40.4566205" lon="9.066378"><ele>450.0</ele><time>2026-03-22T10:31:59.236Z</time></trkpt><trkpt lat="40.4566122" lon="9.0666576"><ele>448.0</ele><time>2026-03-22T10:32:01.236Z</time></trkpt><trkpt lat="40.4567107" lon="9.0669713"><ele>447.0</ele><time>2026-03-22T10:32:03.236Z</time></trkpt><trkpt lat="40.4567544" lon="9.0671417"><ele>446.0</ele><time>2026-03-22T10:32:04.236Z</time></trkpt><trkpt lat="40.4567767" lon="9.0673141"><ele>445.0</ele><time>2026-03-22T10:32:05.236Z</time></trkpt><trkpt lat="40.4567652" lon="9.0676411"><ele>442.0</ele><time>2026-03-22T10:32:07.236Z</time></trkpt><trkpt lat="40.4567636" lon="9.067964"><ele>439.0</ele><time>2026-03-22T10:32:09.236Z</time></trkpt><trkpt lat="40.4568615" lon="9.068337"><ele>437.0</ele><time>2026-03-22T10:32:11.236Z</time></trkpt><trkpt lat="40.4569663" lon="9.0686977"><ele>435.0</ele><time>2026-03-22T10:32:13.236Z</time></trkpt><trkpt lat="40.4569707" lon="9.0690451"><ele>432.5</ele><time>2026-03-22T10:32:15.236Z</time></trkpt><trkpt lat="40.4569602" lon="9.0693883"><ele>430.0</ele><time>2026-03-22T10:32:17.236Z</time></trkpt><trkpt lat="40.4570244" lon="9.0697001"><ele>431.6666666666667</ele><time>2026-03-22T10:32:19.236Z</time></trkpt><trkpt lat="40.4571422" lon="9.0700126"><ele>433.33333333333337</ele><time>2026-03-22T10:32:21.236Z</time></trkpt><trkpt lat="40.4571996" lon="9.0701956"><ele>435.0</ele><time>2026-03-22T10:32:22.236Z</time></trkpt><trkpt lat="40.4572213" lon="9.0703891"><ele>435.0</ele><time>2026-03-22T10:32:23.236Z</time></trkpt><trkpt lat="40.4572343" lon="9.070599"><ele>435.0</ele><time>2026-03-22T10:32:24.236Z</time></trkpt><trkpt lat="40.4572608" lon="9.0708016"><ele>435.0</ele><time>2026-03-22T10:32:25.236Z</time></trkpt><trkpt lat="40.4572809" lon="9.0710111"><ele>431.66666666666663</ele><time>2026-03-22T10:32:26.236Z</time></trkpt><trkpt lat="40.4573052" lon="9.0712024"><ele>428.3333333333333</ele><time>2026-03-22T10:32:27.236Z</time></trkpt><trkpt lat="40.4573363" lon="9.0715826"><ele>425.0</ele><time>2026-03-22T10:32:29.236Z</time></trkpt><trkpt lat="40.4573105" lon="9.0719171"><ele>423.66666666666663</ele><time>2026-03-22T10:32:31.236Z</time></trkpt><trkpt lat="40.457247" lon="9.0721917"><ele>422.33333333333337</ele><time>2026-03-22T10:32:33.236Z</time></trkpt><trkpt lat="40.4570969" lon="9.0723469"><ele>421.0</ele><time>2026-03-22T10:32:35.236Z</time></trkpt><trkpt lat="40.4568857" lon="9.0724079"><ele>416.6666666666667</ele><time>2026-03-22T10:32:37.236Z</time></trkpt><trkpt lat="40.456739" lon="9.072545"><ele>412.33333333333337</ele><time>2026-03-22T10:32:39.236Z</time></trkpt><trkpt lat="40.4566941" lon="9.0727439"><ele>408.0</ele><time>2026-03-22T10:32:41.236Z</time></trkpt><trkpt lat="40.4567391" lon="9.0729673"><ele>408.0</ele><time>2026-03-22T10:32:43.236Z</time></trkpt><trkpt lat="40.4567544" lon="9.0730991"><ele>408.0</ele><time>2026-03-22T10:32:44.236Z</time></trkpt><trkpt lat="40.456773" lon="9.0732219"><ele>408.0</ele><time>2026-03-22T10:32:45.236Z</time></trkpt><trkpt lat="40.4567812" lon="9.0733465"><ele>408.0</ele><time>2026-03-22T10:32:46.236Z</time></trkpt><trkpt lat="40.4567631" lon="9.0735544"><ele>407.2</ele><time>2026-03-22T10:32:48.236Z</time></trkpt><trkpt lat="40.4567407" lon="9.0736752"><ele>406.4</ele><time>2026-03-22T10:32:50.236Z</time></trkpt><trkpt lat="40.4567014" lon="9.0737708"><ele>405.59999999999997</ele><time>2026-03-22T10:33:02.236Z</time></trkpt><trkpt lat="40.4565883" lon="9.0737748"><ele>404.79999999999995</ele><time>2026-03-22T10:33:04.236Z</time></trkpt><trkpt lat="40.4565172" lon="9.0736813"><ele>404.0</ele><time>2026-03-22T10:33:06.236Z</time></trkpt><trkpt lat="40.4564933" lon="9.0735951"><ele>404.0</ele><time>2026-03-22T10:33:07.236Z</time></trkpt><trkpt lat="40.4564609" lon="9.0735234"><ele>404.0</ele><time>2026-03-22T10:33:08.236Z</time></trkpt><trkpt lat="40.4562729" lon="9.0734017"><ele>404.0</ele><time>2026-03-22T10:33:10.236Z</time></trkpt><trkpt lat="40.4561833" lon="9.0733696"><ele>404.0</ele><time>2026-03-22T10:33:11.236Z</time></trkpt><trkpt lat="40.456099" lon="9.0733733"><ele>404.2</ele><time>2026-03-22T10:33:12.236Z</time></trkpt><trkpt lat="40.456001" lon="9.0734082"><ele>404.4</ele><time>2026-03-22T10:33:13.236Z</time></trkpt><trkpt lat="40.4559083" lon="9.073461"><ele>404.6</ele><time>2026-03-22T10:33:14.236Z</time></trkpt><trkpt lat="40.4558144" lon="9.0735239"><ele>404.8</ele><time>2026-03-22T10:33:15.236Z</time></trkpt><trkpt lat="40.4557136" lon="9.073599"><ele>405.0</ele><time>2026-03-22T10:33:16.236Z</time></trkpt><trkpt lat="40.4556185" lon="9.0736785"><ele>416.5</ele><time>2026-03-22T10:33:17.236Z</time></trkpt><trkpt lat="40.455447" lon="9.0738646"><ele>428.0</ele><time>2026-03-22T10:33:19.236Z</time></trkpt><trkpt lat="40.4552707" lon="9.0740977"><ele>422.3333333333333</ele><time>2026-03-22T10:33:21.236Z</time></trkpt><trkpt lat="40.4551101" lon="9.0743691"><ele>416.66666666666663</ele><time>2026-03-22T10:33:23.236Z</time></trkpt><trkpt lat="40.4550526" lon="9.0745374"><ele>411.0</ele><time>2026-03-22T10:33:24.236Z</time></trkpt><trkpt lat="40.4549535" lon="9.0748431"><ele>412.33333333333337</ele><time>2026-03-22T10:33:26.236Z</time></trkpt><trkpt lat="40.454901" lon="9.0749769"><ele>413.6666666666667</ele><time>2026-03-22T10:33:27.236Z</time></trkpt><trkpt lat="40.4547656" lon="9.0752586"><ele>415.0</ele><time>2026-03-22T10:33:29.236Z</time></trkpt><trkpt lat="40.4546008" lon="9.0755462"><ele>413.0</ele><time>2026-03-22T10:33:31.236Z</time></trkpt><trkpt lat="40.4544602" lon="9.0758875"><ele>411.0</ele><time>2026-03-22T10:33:33.236Z</time></trkpt><trkpt lat="40.4543005" lon="9.0762583"><ele>404.0</ele><time>2026-03-22T10:33:35.236Z</time></trkpt><trkpt lat="40.4541182" lon="9.0766447"><ele>397.0</ele><time>2026-03-22T10:33:37.236Z</time></trkpt><trkpt lat="40.4539491" lon="9.0770294"><ele>402.0</ele><time>2026-03-22T10:33:39.236Z</time></trkpt><trkpt lat="40.4537541" lon="9.0774239"><ele>407.0</ele><time>2026-03-22T10:33:41.236Z</time></trkpt><trkpt lat="40.4535828" lon="9.077802"><ele>407.0</ele><time>2026-03-22T10:33:43.236Z</time></trkpt><trkpt lat="40.4534109" lon="9.0782034"><ele>407.0</ele><time>2026-03-22T10:33:45.236Z</time></trkpt><trkpt lat="40.4533161" lon="9.0784091"><ele>398.0</ele><time>2026-03-22T10:33:46.236Z</time></trkpt><trkpt lat="40.4531142" lon="9.0788119"><ele>389.0</ele><time>2026-03-22T10:33:48.236Z</time></trkpt><trkpt lat="40.4530175" lon="9.0790009"><ele>386.66666666666663</ele><time>2026-03-22T10:33:49.236Z</time></trkpt><trkpt lat="40.4529179" lon="9.0791804"><ele>384.3333333333333</ele><time>2026-03-22T10:33:50.236Z</time></trkpt><trkpt lat="40.4528164" lon="9.079361"><ele>382.0</ele><time>2026-03-22T10:33:51.236Z</time></trkpt><trkpt lat="40.4527124" lon="9.0795431"><ele>382.0</ele><time>2026-03-22T10:33:52.236Z</time></trkpt><trkpt lat="40.4525065" lon="9.0798783"><ele>382.0</ele><time>2026-03-22T10:33:54.236Z</time></trkpt><trkpt lat="40.4522451" lon="9.0801807"><ele>375.0</ele><time>2026-03-22T10:33:56.236Z</time></trkpt><trkpt lat="40.4519373" lon="9.0804598"><ele>368.0</ele><time>2026-03-22T10:33:58.236Z</time></trkpt><trkpt lat="40.4515784" lon="9.0807162"><ele>363.0</ele><time>2026-03-22T10:34:00.236Z</time></trkpt><trkpt lat="40.4512086" lon="9.0809415"><ele>358.0</ele><time>2026-03-22T10:34:02.236Z</time></trkpt><trkpt lat="40.451031" lon="9.081045"><ele>358.0</ele><time>2026-03-22T10:34:03.236Z</time></trkpt><trkpt lat="40.4508562" lon="9.0811444"><ele>358.0</ele><time>2026-03-22T10:34:04.236Z</time></trkpt><trkpt lat="40.4506775" lon="9.0812499"><ele>358.0</ele><time>2026-03-22T10:34:05.236Z</time></trkpt><trkpt lat="40.4504989" lon="9.081359"><ele>356.0</ele><time>2026-03-22T10:34:06.236Z</time></trkpt><trkpt lat="40.450149" lon="9.0815612"><ele>354.0</ele><time>2026-03-22T10:34:08.236Z</time></trkpt><trkpt lat="40.4497877" lon="9.0817783"><ele>351.0</ele><time>2026-03-22T10:34:10.236Z</time></trkpt><trkpt lat="40.4495952" lon="9.0818906"><ele>348.0</ele><time>2026-03-22T10:34:11.236Z</time></trkpt><trkpt lat="40.4491928" lon="9.0821099"><ele>342.0</ele><time>2026-03-22T10:34:13.236Z</time></trkpt><trkpt lat="40.4487793" lon="9.0823521"><ele>343.0</ele><time>2026-03-22T10:34:15.236Z</time></trkpt><trkpt lat="40.4483632" lon="9.0825939"><ele>343.0</ele><time>2026-03-22T10:34:17.236Z</time></trkpt><trkpt lat="40.4479689" lon="9.0828238"><ele>343.0</ele><time>2026-03-22T10:34:19.236Z</time></trkpt><trkpt lat="40.4476037" lon="9.0830444"><ele>340.0</ele><time>2026-03-22T10:34:21.236Z</time></trkpt><trkpt lat="40.4472612" lon="9.0832489"><ele>337.0</ele><time>2026-03-22T10:34:23.236Z</time></trkpt><trkpt lat="40.4471008" lon="9.0833651"><ele>334.0</ele><time>2026-03-22T10:34:24.236Z</time></trkpt><trkpt lat="40.4469581" lon="9.0834898"><ele>331.0</ele><time>2026-03-22T10:34:25.236Z</time></trkpt><trkpt lat="40.4466894" lon="9.0838051"><ele>331.0</ele><time>2026-03-22T10:34:27.236Z</time></trkpt><trkpt lat="40.4464504" lon="9.0841767"><ele>331.0</ele><time>2026-03-22T10:34:29.236Z</time></trkpt><trkpt lat="40.4462023" lon="9.0845698"><ele>329.0</ele><time>2026-03-22T10:34:31.236Z</time></trkpt><trkpt lat="40.4459538" lon="9.0849731"><ele>327.0</ele><time>2026-03-22T10:34:33.236Z</time></trkpt><trkpt lat="40.4456984" lon="9.0854011"><ele>325.0</ele><time>2026-03-22T10:34:35.236Z</time></trkpt><trkpt lat="40.445434" lon="9.0858387"><ele>323.0</ele><time>2026-03-22T10:34:37.236Z</time></trkpt><trkpt lat="40.4451645" lon="9.0862811"><ele>322.5</ele><time>2026-03-22T10:34:39.236Z</time></trkpt><trkpt lat="40.4448938" lon="9.0867142"><ele>322.0</ele><time>2026-03-22T10:34:41.236Z</time></trkpt><trkpt lat="40.4446316" lon="9.0871425"><ele>319.5</ele><time>2026-03-22T10:34:43.236Z</time></trkpt><trkpt lat="40.4443785" lon="9.0875528"><ele>317.0</ele><time>2026-03-22T10:34:45.236Z</time></trkpt><trkpt lat="40.4442416" lon="9.087762"><ele>317.0</ele><time>2026-03-22T10:34:46.236Z</time></trkpt><trkpt lat="40.4441109" lon="9.0879672"><ele>317.0</ele><time>2026-03-22T10:34:47.236Z</time></trkpt><trkpt lat="40.4439837" lon="9.0881726"><ele>317.0</ele><time>2026-03-22T10:34:48.236Z</time></trkpt><trkpt lat="40.4437247" lon="9.0885577"><ele>314.5</ele><time>2026-03-22T10:34:50.236Z</time></trkpt><trkpt lat="40.4434373" lon="9.0889078"><ele>312.0</ele><time>2026-03-22T10:34:52.236Z</time></trkpt><trkpt lat="40.4431287" lon="9.0892356"><ele>309.5</ele><time>2026-03-22T10:34:54.236Z</time></trkpt><trkpt lat="40.4428246" lon="9.0895591"><ele>307.0</ele><time>2026-03-22T10:34:56.236Z</time></trkpt><trkpt lat="40.4426843" lon="9.0897255"><ele>307.0</ele><time>2026-03-22T10:34:57.236Z</time></trkpt><trkpt lat="40.4425347" lon="9.0899069"><ele>307.0</ele><time>2026-03-22T10:34:58.236Z</time></trkpt><trkpt lat="40.4422357" lon="9.0902894"><ele>304.5</ele><time>2026-03-22T10:35:00.236Z</time></trkpt><trkpt lat="40.4419458" lon="9.0906703"><ele>302.0</ele><time>2026-03-22T10:35:02.236Z</time></trkpt><trkpt lat="40.44168" lon="9.0910586"><ele>300.5</ele><time>2026-03-22T10:35:04.236Z</time></trkpt><trkpt lat="40.4413982" lon="9.0914202"><ele>299.0</ele><time>2026-03-22T10:35:06.236Z</time></trkpt><trkpt lat="40.4412606" lon="9.0916127"><ele>297.0</ele><time>2026-03-22T10:35:07.236Z</time></trkpt><trkpt lat="40.4409702" lon="9.0920073"><ele>295.0</ele><time>2026-03-22T10:35:09.236Z</time></trkpt><trkpt lat="40.4406855" lon="9.0924024"><ele>293.0</ele><time>2026-03-22T10:35:11.236Z</time></trkpt><trkpt lat="40.4403968" lon="9.0927949"><ele>291.0</ele><time>2026-03-22T10:35:13.236Z</time></trkpt><trkpt lat="40.4402545" lon="9.0929949"><ele>290.0</ele><time>2026-03-22T10:35:14.236Z</time></trkpt><trkpt lat="40.4399672" lon="9.0933976"><ele>289.0</ele><time>2026-03-22T10:35:16.236Z</time></trkpt><trkpt lat="40.4398214" lon="9.0935937"><ele>288.0</ele><time>2026-03-22T10:35:17.236Z</time></trkpt><trkpt lat="40.4395369" lon="9.0939967"><ele>287.0</ele><time>2026-03-22T10:35:19.236Z</time></trkpt><trkpt lat="40.4392529" lon="9.0943948"><ele>287.0</ele><time>2026-03-22T10:35:21.236Z</time></trkpt><trkpt lat="40.4389683" lon="9.0947906"><ele>287.0</ele><time>2026-03-22T10:35:23.236Z</time></trkpt><trkpt lat="40.4386979" lon="9.0952093"><ele>285.5</ele><time>2026-03-22T10:35:25.236Z</time></trkpt><trkpt lat="40.4384217" lon="9.0956128"><ele>284.0</ele><time>2026-03-22T10:35:27.236Z</time></trkpt><trkpt lat="40.4381379" lon="9.0960227"><ele>283.6666666666667</ele><time>2026-03-22T10:35:29.236Z</time></trkpt><trkpt lat="40.4380061" lon="9.0962284"><ele>283.3333333333333</ele><time>2026-03-22T10:35:30.236Z</time></trkpt><trkpt lat="40.4378701" lon="9.0964242"><ele>283.0</ele><time>2026-03-22T10:35:31.236Z</time></trkpt><trkpt lat="40.4377355" lon="9.0966284"><ele>281.5</ele><time>2026-03-22T10:35:32.236Z</time></trkpt><trkpt lat="40.4376007" lon="9.0968262"><ele>280.0</ele><time>2026-03-22T10:35:33.236Z</time></trkpt><trkpt lat="40.4373422" lon="9.0972079"><ele>278.5</ele><time>2026-03-22T10:35:35.236Z</time></trkpt><trkpt lat="40.4371127" lon="9.0976029"><ele>277.0</ele><time>2026-03-22T10:35:37.236Z</time></trkpt><trkpt lat="40.4368852" lon="9.0979345"><ele>277.0</ele><time>2026-03-22T10:35:39.236Z</time></trkpt><trkpt lat="40.4366652" lon="9.0982549"><ele>277.0</ele><time>2026-03-22T10:35:41.236Z</time></trkpt><trkpt lat="40.4364521" lon="9.0985885"><ele>276.0</ele><time>2026-03-22T10:35:43.236Z</time></trkpt><trkpt lat="40.4362378" lon="9.0989003"><ele>275.0</ele><time>2026-03-22T10:35:45.236Z</time></trkpt><trkpt lat="40.4360252" lon="9.0992106"><ele>274.5</ele><time>2026-03-22T10:35:47.236Z</time></trkpt><trkpt lat="40.435804" lon="9.0995017"><ele>274.0</ele><time>2026-03-22T10:35:49.236Z</time></trkpt><trkpt lat="40.4355671" lon="9.0997856"><ele>271.5</ele><time>2026-03-22T10:35:51.236Z</time></trkpt><trkpt lat="40.4353671" lon="9.1000864"><ele>269.0</ele><time>2026-03-22T10:35:53.236Z</time></trkpt><trkpt lat="40.4352525" lon="9.1002393"><ele>269.0</ele><time>2026-03-22T10:35:54.236Z</time></trkpt><trkpt lat="40.4350131" lon="9.1005857"><ele>269.0</ele><time>2026-03-22T10:35:56.236Z</time></trkpt><trkpt lat="40.4347475" lon="9.1009588"><ele>267.0</ele><time>2026-03-22T10:35:58.236Z</time></trkpt><trkpt lat="40.4344755" lon="9.1013498"><ele>265.0</ele><time>2026-03-22T10:36:00.236Z</time></trkpt><trkpt lat="40.4341836" lon="9.1017585"><ele>265.0</ele><time>2026-03-22T10:36:02.236Z</time></trkpt><trkpt lat="40.4339022" lon="9.1021821"><ele>265.0</ele><time>2026-03-22T10:36:04.236Z</time></trkpt><trkpt lat="40.4336143" lon="9.1025931"><ele>263.0</ele><time>2026-03-22T10:36:06.236Z</time></trkpt><trkpt lat="40.4333416" lon="9.1030058"><ele>261.0</ele><time>2026-03-22T10:36:08.236Z</time></trkpt><trkpt lat="40.4330632" lon="9.1034213"><ele>260.5</ele><time>2026-03-22T10:36:10.236Z</time></trkpt><trkpt lat="40.4327847" lon="9.1038241"><ele>260.0</ele><time>2026-03-22T10:36:12.236Z</time></trkpt><trkpt lat="40.4325098" lon="9.1042131"><ele>259.0</ele><time>2026-03-22T10:36:14.236Z</time></trkpt><trkpt lat="40.4322314" lon="9.1046288"><ele>258.0</ele><time>2026-03-22T10:36:16.236Z</time></trkpt><trkpt lat="40.4319611" lon="9.1050352"><ele>257.0</ele><time>2026-03-22T10:36:18.236Z</time></trkpt><trkpt lat="40.4316867" lon="9.1054396"><ele>256.0</ele><time>2026-03-22T10:36:20.236Z</time></trkpt><trkpt lat="40.4314006" lon="9.105853"><ele>253.5</ele><time>2026-03-22T10:36:22.236Z</time></trkpt><trkpt lat="40.4311069" lon="9.1062738"><ele>251.0</ele><time>2026-03-22T10:36:24.236Z</time></trkpt><trkpt lat="40.4308178" lon="9.1066936"><ele>250.33333333333334</ele><time>2026-03-22T10:36:26.236Z</time></trkpt><trkpt lat="40.4306687" lon="9.1069136"><ele>249.66666666666669</ele><time>2026-03-22T10:36:27.236Z</time></trkpt><trkpt lat="40.4305298" lon="9.1071317"><ele>249.0</ele><time>2026-03-22T10:36:28.236Z</time></trkpt><trkpt lat="40.4302347" lon="9.107567"><ele>246.5</ele><time>2026-03-22T10:36:30.236Z</time></trkpt><trkpt lat="40.429934" lon="9.1079892"><ele>244.0</ele><time>2026-03-22T10:36:32.236Z</time></trkpt><trkpt lat="40.42979" lon="9.1081965"><ele>244.0</ele><time>2026-03-22T10:36:33.236Z</time></trkpt><trkpt lat="40.4296458" lon="9.1084163"><ele>244.0</ele><time>2026-03-22T10:36:34.236Z</time></trkpt><trkpt lat="40.4295076" lon="9.1086252"><ele>244.0</ele><time>2026-03-22T10:36:35.236Z</time></trkpt><trkpt lat="40.4292409" lon="9.1090246"><ele>244.0</ele><time>2026-03-22T10:36:37.236Z</time></trkpt><trkpt lat="40.4291158" lon="9.1092147"><ele>244.0</ele><time>2026-03-22T10:36:38.236Z</time></trkpt><trkpt lat="40.4289886" lon="9.1094006"><ele>244.0</ele><time>2026-03-22T10:36:39.236Z</time></trkpt><trkpt lat="40.4287264" lon="9.1097689"><ele>245.5</ele><time>2026-03-22T10:36:41.236Z</time></trkpt><trkpt lat="40.4284782" lon="9.1101297"><ele>247.0</ele><time>2026-03-22T10:36:43.236Z</time></trkpt><trkpt lat="40.4282347" lon="9.1104838"><ele>247.0</ele><time>2026-03-22T10:36:45.236Z</time></trkpt><trkpt lat="40.4279946" lon="9.1108258"><ele>247.0</ele><time>2026-03-22T10:36:47.236Z</time></trkpt><trkpt lat="40.4277794" lon="9.1111325"><ele>248.0</ele><time>2026-03-22T10:36:49.236Z</time></trkpt><trkpt lat="40.4275763" lon="9.1114402"><ele>249.0</ele><time>2026-03-22T10:36:51.236Z</time></trkpt><trkpt lat="40.4273571" lon="9.1117564"><ele>249.5</ele><time>2026-03-22T10:36:53.236Z</time></trkpt><trkpt lat="40.4271316" lon="9.1120799"><ele>250.0</ele><time>2026-03-22T10:36:55.236Z</time></trkpt><trkpt lat="40.4268913" lon="9.1124423"><ele>250.0</ele><time>2026-03-22T10:36:57.236Z</time></trkpt><trkpt lat="40.4266314" lon="9.1128025"><ele>250.0</ele><time>2026-03-22T10:36:59.237Z</time></trkpt><trkpt lat="40.426503" lon="9.1129939"><ele>250.0</ele><time>2026-03-22T10:37:00.236Z</time></trkpt><trkpt lat="40.4263687" lon="9.1131935"><ele>250.0</ele><time>2026-03-22T10:37:01.236Z</time></trkpt><trkpt lat="40.4262317" lon="9.1133919"><ele>250.0</ele><time>2026-03-22T10:37:02.236Z</time></trkpt><trkpt lat="40.4260975" lon="9.1135884"><ele>251.0</ele><time>2026-03-22T10:37:03.236Z</time></trkpt><trkpt lat="40.4259552" lon="9.1137921"><ele>252.0</ele><time>2026-03-22T10:37:04.236Z</time></trkpt><trkpt lat="40.4258216" lon="9.1139875"><ele>253.0</ele><time>2026-03-22T10:37:05.236Z</time></trkpt><trkpt lat="40.4256828" lon="9.1141907"><ele>253.0</ele><time>2026-03-22T10:37:06.236Z</time></trkpt><trkpt lat="40.4255461" lon="9.1143999"><ele>253.0</ele><time>2026-03-22T10:37:07.236Z</time></trkpt><trkpt lat="40.4254035" lon="9.1146017"><ele>253.0</ele><time>2026-03-22T10:37:08.236Z</time></trkpt><trkpt lat="40.425265" lon="9.1148064"><ele>254.33333333333331</ele><time>2026-03-22T10:37:09.236Z</time></trkpt><trkpt lat="40.4251276" lon="9.115005"><ele>255.66666666666669</ele><time>2026-03-22T10:37:10.236Z</time></trkpt><trkpt lat="40.4250038" lon="9.1151998"><ele>257.0</ele><time>2026-03-22T10:37:11.236Z</time></trkpt><trkpt lat="40.4248752" lon="9.1153913"><ele>257.0</ele><time>2026-03-22T10:37:12.236Z</time></trkpt><trkpt lat="40.4247457" lon="9.1155751"><ele>257.0</ele><time>2026-03-22T10:37:13.236Z</time></trkpt><trkpt lat="40.4246172" lon="9.115751"><ele>257.0</ele><time>2026-03-22T10:37:14.236Z</time></trkpt><trkpt lat="40.4245016" lon="9.1159284"><ele>258.0</ele><time>2026-03-22T10:37:15.236Z</time></trkpt><trkpt lat="40.4243814" lon="9.1161083"><ele>259.0</ele><time>2026-03-22T10:37:16.236Z</time></trkpt><trkpt lat="40.4242813" lon="9.1162924"><ele>260.0</ele><time>2026-03-22T10:37:17.236Z</time></trkpt><trkpt lat="40.4242051" lon="9.1164944"><ele>260.6666666666667</ele><time>2026-03-22T10:37:18.236Z</time></trkpt><trkpt lat="40.4241303" lon="9.1166995"><ele>261.3333333333333</ele><time>2026-03-22T10:37:19.236Z</time></trkpt><trkpt lat="40.4240892" lon="9.1169118"><ele>262.0</ele><time>2026-03-22T10:37:20.236Z</time></trkpt><trkpt lat="40.4240606" lon="9.1171331"><ele>262.0</ele><time>2026-03-22T10:37:21.236Z</time></trkpt><trkpt lat="40.424042" lon="9.1173652"><ele>262.0</ele><time>2026-03-22T10:37:22.236Z</time></trkpt><trkpt lat="40.424046" lon="9.1175762"><ele>262.0</ele><time>2026-03-22T10:37:23.236Z</time></trkpt><trkpt lat="40.4240693" lon="9.1177996"><ele>262.66666666666663</ele><time>2026-03-22T10:37:24.236Z</time></trkpt><trkpt lat="40.4240912" lon="9.1180274"><ele>263.3333333333333</ele><time>2026-03-22T10:37:25.236Z</time></trkpt><trkpt lat="40.424138" lon="9.1182525"><ele>264.0</ele><time>2026-03-22T10:37:26.236Z</time></trkpt><trkpt lat="40.424174" lon="9.1184595"><ele>264.3333333333333</ele><time>2026-03-22T10:37:27.236Z</time></trkpt><trkpt lat="40.4242107" lon="9.1186688"><ele>264.66666666666663</ele><time>2026-03-22T10:37:28.236Z</time></trkpt><trkpt lat="40.4242402" lon="9.1188674"><ele>265.0</ele><time>2026-03-22T10:37:29.236Z</time></trkpt><trkpt lat="40.4243013" lon="9.1192238"><ele>264.25</ele><time>2026-03-22T10:37:31.236Z</time></trkpt><trkpt lat="40.4243288" lon="9.1193982"><ele>263.5</ele><time>2026-03-22T10:37:32.236Z</time></trkpt><trkpt lat="40.4243527" lon="9.1195659"><ele>262.75</ele><time>2026-03-22T10:37:33.236Z</time></trkpt><trkpt lat="40.4243825" lon="9.1197341"><ele>262.0</ele><time>2026-03-22T10:37:34.236Z</time></trkpt><trkpt lat="40.4244099" lon="9.1199007"><ele>259.3333333333333</ele><time>2026-03-22T10:37:35.236Z</time></trkpt><trkpt lat="40.4244393" lon="9.1200618"><ele>256.6666666666667</ele><time>2026-03-22T10:37:36.236Z</time></trkpt><trkpt lat="40.4244898" lon="9.1203895"><ele>254.0</ele><time>2026-03-22T10:37:38.236Z</time></trkpt><trkpt lat="40.4245487" lon="9.120716"><ele>254.5</ele><time>2026-03-22T10:37:40.236Z</time></trkpt><trkpt lat="40.4246365" lon="9.1210286"><ele>255.0</ele><time>2026-03-22T10:37:42.236Z</time></trkpt><trkpt lat="40.4247432" lon="9.121303"><ele>259.0</ele><time>2026-03-22T10:37:44.236Z</time></trkpt><trkpt lat="40.4249856" lon="9.1215715"><ele>263.0</ele><time>2026-03-22T10:37:46.236Z</time></trkpt><trkpt lat="40.4250919" lon="9.1217155"><ele>263.0</ele><time>2026-03-22T10:37:47.236Z</time></trkpt><trkpt lat="40.4253284" lon="9.1220157"><ele>263.0</ele><time>2026-03-22T10:37:49.236Z</time></trkpt><trkpt lat="40.4254459" lon="9.1221595"><ele>261.6666666666667</ele><time>2026-03-22T10:37:50.236Z</time></trkpt><trkpt lat="40.4255685" lon="9.1223212"><ele>260.3333333333333</ele><time>2026-03-22T10:37:51.236Z</time></trkpt><trkpt lat="40.4256993" lon="9.1224745"><ele>259.0</ele><time>2026-03-22T10:37:52.236Z</time></trkpt><trkpt lat="40.425831" lon="9.1226334"><ele>259.0</ele><time>2026-03-22T10:37:53.236Z</time></trkpt><trkpt lat="40.4260908" lon="9.1229351"><ele>259.0</ele><time>2026-03-22T10:37:55.236Z</time></trkpt><trkpt lat="40.4262795" lon="9.1231918"><ele>258.66666666666663</ele><time>2026-03-22T10:37:57.236Z</time></trkpt><trkpt lat="40.4263787" lon="9.1233243"><ele>258.3333333333333</ele><time>2026-03-22T10:37:58.236Z</time></trkpt><trkpt lat="40.4264526" lon="9.1234806"><ele>258.0</ele><time>2026-03-22T10:37:59.236Z</time></trkpt><trkpt lat="40.4265309" lon="9.1238376"><ele>259.5</ele><time>2026-03-22T10:38:01.236Z</time></trkpt><trkpt lat="40.4265741" lon="9.1242399"><ele>261.0</ele><time>2026-03-22T10:38:03.236Z</time></trkpt><trkpt lat="40.4266045" lon="9.1246801"><ele>262.0</ele><time>2026-03-22T10:38:05.236Z</time></trkpt><trkpt lat="40.4266548" lon="9.1251389"><ele>263.0</ele><time>2026-03-22T10:38:07.236Z</time></trkpt><trkpt lat="40.4266793" lon="9.125363"><ele>263.0</ele><time>2026-03-22T10:38:08.236Z</time></trkpt><trkpt lat="40.4267169" lon="9.1255756"><ele>263.0</ele><time>2026-03-22T10:38:09.236Z</time></trkpt><trkpt lat="40.4267598" lon="9.1257753"><ele>263.0</ele><time>2026-03-22T10:38:10.236Z</time></trkpt><trkpt lat="40.4268064" lon="9.1259708"><ele>263.0</ele><time>2026-03-22T10:38:11.236Z</time></trkpt><trkpt lat="40.4268533" lon="9.1261735"><ele>263.0</ele><time>2026-03-22T10:38:12.236Z</time></trkpt><trkpt lat="40.4269616" lon="9.1265843"><ele>263.0</ele><time>2026-03-22T10:38:14.236Z</time></trkpt><trkpt lat="40.4270109" lon="9.1267889"><ele>263.0</ele><time>2026-03-22T10:38:15.236Z</time></trkpt><trkpt lat="40.42709" lon="9.1272027"><ele>262.5</ele><time>2026-03-22T10:38:17.236Z</time></trkpt><trkpt lat="40.4271254" lon="9.1274046"><ele>262.0</ele><time>2026-03-22T10:38:18.236Z</time></trkpt><trkpt lat="40.4272356" lon="9.1278181"><ele>261.5</ele><time>2026-03-22T10:38:20.236Z</time></trkpt><trkpt lat="40.4272861" lon="9.1280193"><ele>261.0</ele><time>2026-03-22T10:38:21.236Z</time></trkpt><trkpt lat="40.427397" lon="9.1284523"><ele>261.0</ele><time>2026-03-22T10:38:23.236Z</time></trkpt><trkpt lat="40.4275029" lon="9.1289272"><ele>261.0</ele><time>2026-03-22T10:38:25.236Z</time></trkpt><trkpt lat="40.4276244" lon="9.1294172"><ele>261.0</ele><time>2026-03-22T10:38:27.236Z</time></trkpt><trkpt lat="40.4276918" lon="9.1296704"><ele>261.0</ele><time>2026-03-22T10:38:28.236Z</time></trkpt><trkpt lat="40.4278104" lon="9.1301903"><ele>261.5</ele><time>2026-03-22T10:38:30.236Z</time></trkpt><trkpt lat="40.4279386" lon="9.130705"><ele>262.0</ele><time>2026-03-22T10:38:32.236Z</time></trkpt><trkpt lat="40.4280699" lon="9.1312354"><ele>263.0</ele><time>2026-03-22T10:38:34.236Z</time></trkpt><trkpt lat="40.428136" lon="9.131506"><ele>264.0</ele><time>2026-03-22T10:38:35.236Z</time></trkpt><trkpt lat="40.4282623" lon="9.1320562"><ele>264.5</ele><time>2026-03-22T10:38:37.236Z</time></trkpt><trkpt lat="40.428388" lon="9.1326073"><ele>265.0</ele><time>2026-03-22T10:38:39.236Z</time></trkpt><trkpt lat="40.4285174" lon="9.1331502"><ele>266.0</ele><time>2026-03-22T10:38:41.236Z</time></trkpt><trkpt lat="40.4285784" lon="9.1334231"><ele>267.0</ele><time>2026-03-22T10:38:42.236Z</time></trkpt><trkpt lat="40.4286457" lon="9.1337007"><ele>268.0</ele><time>2026-03-22T10:38:43.236Z</time></trkpt><trkpt lat="40.4287125" lon="9.1339664"><ele>268.0</ele><time>2026-03-22T10:38:44.236Z</time></trkpt><trkpt lat="40.4288507" lon="9.1345109"><ele>268.0</ele><time>2026-03-22T10:38:46.236Z</time></trkpt><trkpt lat="40.4289818" lon="9.1350743"><ele>270.0</ele><time>2026-03-22T10:38:48.237Z</time></trkpt><trkpt lat="40.4291213" lon="9.1356454"><ele>270.0</ele><time>2026-03-22T10:38:50.236Z</time></trkpt><trkpt lat="40.4292546" lon="9.1362047"><ele>270.0</ele><time>2026-03-22T10:38:52.236Z</time></trkpt><trkpt lat="40.4293156" lon="9.1364654"><ele>271.0</ele><time>2026-03-22T10:38:53.236Z</time></trkpt><trkpt lat="40.4294463" lon="9.1369473"><ele>272.0</ele><time>2026-03-22T10:38:55.236Z</time></trkpt><trkpt lat="40.4295575" lon="9.1374249"><ele>272.33333333333337</ele><time>2026-03-22T10:38:57.236Z</time></trkpt><trkpt lat="40.4296108" lon="9.1376723"><ele>272.6666666666667</ele><time>2026-03-22T10:38:58.236Z</time></trkpt><trkpt lat="40.4296681" lon="9.1379263"><ele>273.0</ele><time>2026-03-22T10:38:59.236Z</time></trkpt><trkpt lat="40.4297213" lon="9.1381722"><ele>273.5</ele><time>2026-03-22T10:39:00.236Z</time></trkpt><trkpt lat="40.4298432" lon="9.1386793"><ele>274.0</ele><time>2026-03-22T10:39:02.236Z</time></trkpt><trkpt lat="40.429959" lon="9.1391849"><ele>274.0</ele><time>2026-03-22T10:39:04.236Z</time></trkpt><trkpt lat="40.4300791" lon="9.1396922"><ele>274.0</ele><time>2026-03-22T10:39:06.236Z</time></trkpt><trkpt lat="40.4301269" lon="9.139915"><ele>274.0</ele><time>2026-03-22T10:39:07.236Z</time></trkpt><trkpt lat="40.4302614" lon="9.1404317"><ele>274.0</ele><time>2026-03-22T10:39:09.236Z</time></trkpt><trkpt lat="40.4303838" lon="9.1409518"><ele>274.0</ele><time>2026-03-22T10:39:11.236Z</time></trkpt><trkpt lat="40.4305018" lon="9.141476"><ele>274.0</ele><time>2026-03-22T10:39:13.236Z</time></trkpt><trkpt lat="40.4306207" lon="9.1419807"><ele>274.0</ele><time>2026-03-22T10:39:15.236Z</time></trkpt><trkpt lat="40.4306798" lon="9.1422417"><ele>274.0</ele><time>2026-03-22T10:39:16.236Z</time></trkpt><trkpt lat="40.4307364" lon="9.1424908"><ele>274.0</ele><time>2026-03-22T10:39:17.236Z</time></trkpt><trkpt lat="40.430792" lon="9.1427336"><ele>275.0</ele><time>2026-03-22T10:39:18.236Z</time></trkpt><trkpt lat="40.4308498" lon="9.1429967"><ele>276.0</ele><time>2026-03-22T10:39:19.236Z</time></trkpt><trkpt lat="40.4309229" lon="9.1432291"><ele>277.0</ele><time>2026-03-22T10:39:20.236Z</time></trkpt><trkpt lat="40.4310671" lon="9.143717"><ele>279.5</ele><time>2026-03-22T10:39:22.236Z</time></trkpt><trkpt lat="40.431217" lon="9.1441907"><ele>282.0</ele><time>2026-03-22T10:39:24.236Z</time></trkpt><trkpt lat="40.4313774" lon="9.1446543"><ele>282.5</ele><time>2026-03-22T10:39:26.236Z</time></trkpt><trkpt lat="40.4314689" lon="9.1448945"><ele>283.0</ele><time>2026-03-22T10:39:27.236Z</time></trkpt><trkpt lat="40.4316431" lon="9.1453708"><ele>283.0</ele><time>2026-03-22T10:39:29.236Z</time></trkpt><trkpt lat="40.4317406" lon="9.1456091"><ele>283.0</ele><time>2026-03-22T10:39:30.236Z</time></trkpt><trkpt lat="40.4319204" lon="9.1460976"><ele>281.0</ele><time>2026-03-22T10:39:32.236Z</time></trkpt><trkpt lat="40.4320907" lon="9.1465897"><ele>279.0</ele><time>2026-03-22T10:39:34.236Z</time></trkpt><trkpt lat="40.4322649" lon="9.1470664"><ele>278.0</ele><time>2026-03-22T10:39:36.236Z</time></trkpt><trkpt lat="40.4324365" lon="9.1475333"><ele>277.0</ele><time>2026-03-22T10:39:38.236Z</time></trkpt><trkpt lat="40.4325965" lon="9.1479818"><ele>276.0</ele><time>2026-03-22T10:39:40.236Z</time></trkpt><trkpt lat="40.4327413" lon="9.1484005"><ele>275.0</ele><time>2026-03-22T10:39:42.236Z</time></trkpt><trkpt lat="40.4328844" lon="9.1488052"><ele>278.0</ele><time>2026-03-22T10:39:44.236Z</time></trkpt><trkpt lat="40.4330215" lon="9.1491873"><ele>281.0</ele><time>2026-03-22T10:39:46.236Z</time></trkpt><trkpt lat="40.4331608" lon="9.149558"><ele>282.0</ele><time>2026-03-22T10:39:48.236Z</time></trkpt><trkpt lat="40.4332883" lon="9.1499124"><ele>283.0</ele><time>2026-03-22T10:39:50.236Z</time></trkpt><trkpt lat="40.4333487" lon="9.1500757"><ele>284.0</ele><time>2026-03-22T10:39:51.236Z</time></trkpt><trkpt lat="40.4334182" lon="9.1502262"><ele>284.0</ele><time>2026-03-22T10:39:52.236Z</time></trkpt><trkpt lat="40.4335514" lon="9.1504822"><ele>284.0</ele><time>2026-03-22T10:39:54.236Z</time></trkpt><trkpt lat="40.4336697" lon="9.1506868"><ele>284.0</ele><time>2026-03-22T10:39:56.236Z</time></trkpt><trkpt lat="40.4338113" lon="9.1508877"><ele>286.0</ele><time>2026-03-22T10:39:58.236Z</time></trkpt><trkpt lat="40.4339639" lon="9.1511119"><ele>288.0</ele><time>2026-03-22T10:40:00.236Z</time></trkpt><trkpt lat="40.4341475" lon="9.1513692"><ele>288.5</ele><time>2026-03-22T10:40:02.236Z</time></trkpt><trkpt lat="40.4343438" lon="9.1516582"><ele>289.0</ele><time>2026-03-22T10:40:04.236Z</time></trkpt><trkpt lat="40.4344528" lon="9.1518067"><ele>289.0</ele><time>2026-03-22T10:40:05.236Z</time></trkpt><trkpt lat="40.4345658" lon="9.1519608"><ele>289.0</ele><time>2026-03-22T10:40:06.236Z</time></trkpt><trkpt lat="40.4348009" lon="9.1522761"><ele>291.0</ele><time>2026-03-22T10:40:08.236Z</time></trkpt><trkpt lat="40.4350377" lon="9.1526"><ele>293.0</ele><time>2026-03-22T10:40:10.236Z</time></trkpt><trkpt lat="40.435249" lon="9.1529056"><ele>293.0</ele><time>2026-03-22T10:40:12.236Z</time></trkpt><trkpt lat="40.43535" lon="9.1530509"><ele>293.0</ele><time>2026-03-22T10:40:13.236Z</time></trkpt><trkpt lat="40.4355516" lon="9.1533179"><ele>293.0</ele><time>2026-03-22T10:40:15.236Z</time></trkpt><trkpt lat="40.4358078" lon="9.1535316"><ele>295.5</ele><time>2026-03-22T10:40:17.236Z</time></trkpt><trkpt lat="40.4359512" lon="9.1536318"><ele>298.0</ele><time>2026-03-22T10:40:18.236Z</time></trkpt><trkpt lat="40.436264" lon="9.1538325"><ele>296.0</ele><time>2026-03-22T10:40:20.236Z</time></trkpt><trkpt lat="40.4365963" lon="9.1540651"><ele>294.0</ele><time>2026-03-22T10:40:22.236Z</time></trkpt><trkpt lat="40.4369618" lon="9.1542946"><ele>295.5</ele><time>2026-03-22T10:40:24.236Z</time></trkpt><trkpt lat="40.4373351" lon="9.154533"><ele>297.0</ele><time>2026-03-22T10:40:26.236Z</time></trkpt><trkpt lat="40.4377205" lon="9.1547716"><ele>297.5</ele><time>2026-03-22T10:40:28.236Z</time></trkpt><trkpt lat="40.438094" lon="9.1550066"><ele>298.0</ele><time>2026-03-22T10:40:30.236Z</time></trkpt><trkpt lat="40.438278" lon="9.1551266"><ele>298.0</ele><time>2026-03-22T10:40:31.236Z</time></trkpt><trkpt lat="40.4384544" lon="9.1552601"><ele>298.0</ele><time>2026-03-22T10:40:32.236Z</time></trkpt><trkpt lat="40.4386281" lon="9.1553532"><ele>298.0</ele><time>2026-03-22T10:40:33.236Z</time></trkpt><trkpt lat="40.4389633" lon="9.1557333"><ele>299.5</ele><time>2026-03-22T10:40:35.236Z</time></trkpt><trkpt lat="40.439304" lon="9.1560845"><ele>301.0</ele><time>2026-03-22T10:40:37.236Z</time></trkpt><trkpt lat="40.4394725" lon="9.1562617"><ele>303.3333333333333</ele><time>2026-03-22T10:40:38.236Z</time></trkpt><trkpt lat="40.4396447" lon="9.1564329"><ele>305.6666666666667</ele><time>2026-03-22T10:40:39.236Z</time></trkpt><trkpt lat="40.4398076" lon="9.1566008"><ele>308.0</ele><time>2026-03-22T10:40:40.236Z</time></trkpt><trkpt lat="40.4401087" lon="9.1569174"><ele>307.5</ele><time>2026-03-22T10:40:42.236Z</time></trkpt><trkpt lat="40.4404165" lon="9.1572411"><ele>307.0</ele><time>2026-03-22T10:40:44.236Z</time></trkpt><trkpt lat="40.4407383" lon="9.1575598"><ele>307.0</ele><time>2026-03-22T10:40:46.236Z</time></trkpt><trkpt lat="40.4410341" lon="9.1578574"><ele>307.0</ele><time>2026-03-22T10:40:48.236Z</time></trkpt><trkpt lat="40.4411725" lon="9.1580033"><ele>307.66666666666663</ele><time>2026-03-22T10:40:49.236Z</time></trkpt><trkpt lat="40.4413131" lon="9.1581488"><ele>308.3333333333333</ele><time>2026-03-22T10:40:50.236Z</time></trkpt><trkpt lat="40.4414498" lon="9.1582858"><ele>309.0</ele><time>2026-03-22T10:40:51.236Z</time></trkpt><trkpt lat="40.4417016" lon="9.1585393"><ele>309.0</ele><time>2026-03-22T10:40:53.236Z</time></trkpt><trkpt lat="40.4419222" lon="9.1587689"><ele>309.0</ele><time>2026-03-22T10:40:55.236Z</time></trkpt><trkpt lat="40.442115" lon="9.1589731"><ele>308.25</ele><time>2026-03-22T10:40:57.236Z</time></trkpt><trkpt lat="40.4422676" lon="9.1591311"><ele>307.5</ele><time>2026-03-22T10:40:59.236Z</time></trkpt><trkpt lat="40.442365" lon="9.159216"><ele>306.75</ele><time>2026-03-22T10:41:01.236Z</time></trkpt><trkpt lat="40.4424358" lon="9.1592533"><ele>306.0</ele><time>2026-03-22T10:41:04.236Z</time></trkpt><trkpt lat="40.4425188" lon="9.1592184"><ele>306.0</ele><time>2026-03-22T10:41:06.236Z</time></trkpt><trkpt lat="40.4425883" lon="9.1591366"><ele>306.0</ele><time>2026-03-22T10:41:07.236Z</time></trkpt><trkpt lat="40.4426706" lon="9.1590554"><ele>306.0</ele><time>2026-03-22T10:41:08.236Z</time></trkpt><trkpt lat="40.4427623" lon="9.158961"><ele>306.0</ele><time>2026-03-22T10:41:09.236Z</time></trkpt><trkpt lat="40.4428561" lon="9.158861"><ele>306.0</ele><time>2026-03-22T10:41:10.236Z</time></trkpt><trkpt lat="40.4429509" lon="9.1587483"><ele>310.5</ele><time>2026-03-22T10:41:11.236Z</time></trkpt><trkpt lat="40.4431379" lon="9.1585438"><ele>315.0</ele><time>2026-03-22T10:41:13.236Z</time></trkpt><trkpt lat="40.4433401" lon="9.1584126"><ele>315.0</ele><time>2026-03-22T10:41:15.236Z</time></trkpt><trkpt lat="40.4434592" lon="9.158377"><ele>315.0</ele><time>2026-03-22T10:41:16.236Z</time></trkpt><trkpt lat="40.4435764" lon="9.1583772"><ele>315.0</ele><time>2026-03-22T10:41:17.236Z</time></trkpt><trkpt lat="40.4436942" lon="9.158376"><ele>315.0</ele><time>2026-03-22T10:41:18.236Z</time></trkpt><trkpt lat="40.4438607" lon="9.1583958"><ele>315.6666666666667</ele><time>2026-03-22T10:41:19.236Z</time></trkpt><trkpt lat="40.4440207" lon="9.1584111"><ele>316.33333333333337</ele><time>2026-03-22T10:41:20.236Z</time></trkpt><trkpt lat="40.4441805" lon="9.1584298"><ele>317.0</ele><time>2026-03-22T10:41:21.236Z</time></trkpt><trkpt lat="40.4443357" lon="9.1584527"><ele>319.5</ele><time>2026-03-22T10:41:22.236Z</time></trkpt><trkpt lat="40.4446733" lon="9.158498"><ele>322.0</ele><time>2026-03-22T10:41:24.237Z</time></trkpt><trkpt lat="40.444847" lon="9.1585298"><ele>322.0</ele><time>2026-03-22T10:41:25.236Z</time></trkpt><trkpt lat="40.4451728" lon="9.1585812"><ele>322.0</ele><time>2026-03-22T10:41:27.236Z</time></trkpt><trkpt lat="40.4454549" lon="9.1586306"><ele>323.5</ele><time>2026-03-22T10:41:29.236Z</time></trkpt><trkpt lat="40.4457269" lon="9.1587356"><ele>325.0</ele><time>2026-03-22T10:41:31.236Z</time></trkpt><trkpt lat="40.4460004" lon="9.158812"><ele>325.0</ele><time>2026-03-22T10:41:33.236Z</time></trkpt><trkpt lat="40.446161" lon="9.1587573"><ele>325.0</ele><time>2026-03-22T10:41:34.236Z</time></trkpt><trkpt lat="40.4463042" lon="9.1586691"><ele>325.0</ele><time>2026-03-22T10:41:35.236Z</time></trkpt><trkpt lat="40.4464871" lon="9.1583963"><ele>327.5</ele><time>2026-03-22T10:41:36.236Z</time></trkpt><trkpt lat="40.4466483" lon="9.1582401"><ele>330.0</ele><time>2026-03-22T10:41:37.236Z</time></trkpt><trkpt lat="40.4469906" lon="9.1579111"><ele>332.0</ele><time>2026-03-22T10:41:39.236Z</time></trkpt><trkpt lat="40.44734" lon="9.1576047"><ele>334.0</ele><time>2026-03-22T10:41:41.236Z</time></trkpt><trkpt lat="40.4476467" lon="9.1573123"><ele>334.0</ele><time>2026-03-22T10:41:43.236Z</time></trkpt><trkpt lat="40.4477859" lon="9.1571815"><ele>334.0</ele><time>2026-03-22T10:41:44.236Z</time></trkpt><trkpt lat="40.4480343" lon="9.1569636"><ele>335.66666666666663</ele><time>2026-03-22T10:41:46.236Z</time></trkpt><trkpt lat="40.4481426" lon="9.1568693"><ele>337.3333333333333</ele><time>2026-03-22T10:41:47.236Z</time></trkpt><trkpt lat="40.4482463" lon="9.1567685"><ele>339.0</ele><time>2026-03-22T10:41:48.236Z</time></trkpt><trkpt lat="40.4484692" lon="9.1565763"><ele>338.0</ele><time>2026-03-22T10:41:50.236Z</time></trkpt><trkpt lat="40.4487161" lon="9.1563561"><ele>337.0</ele><time>2026-03-22T10:41:52.236Z</time></trkpt><trkpt lat="40.448992" lon="9.1561258"><ele>339.0</ele><time>2026-03-22T10:41:54.236Z</time></trkpt><trkpt lat="40.4491368" lon="9.1560033"><ele>341.0</ele><time>2026-03-22T10:41:55.236Z</time></trkpt><trkpt lat="40.4492793" lon="9.1558903"><ele>343.0</ele><time>2026-03-22T10:41:56.236Z</time></trkpt><trkpt lat="40.4494223" lon="9.1557847"><ele>342.0</ele><time>2026-03-22T10:41:57.236Z</time></trkpt><trkpt lat="40.4495529" lon="9.1556827"><ele>341.0</ele><time>2026-03-22T10:41:58.236Z</time></trkpt><trkpt lat="40.4498079" lon="9.1554727"><ele>342.33333333333337</ele><time>2026-03-22T10:42:00.236Z</time></trkpt><trkpt lat="40.450051" lon="9.155318"><ele>343.6666666666667</ele><time>2026-03-22T10:42:02.236Z</time></trkpt><trkpt lat="40.4501697" lon="9.1553029"><ele>345.0</ele><time>2026-03-22T10:42:03.236Z</time></trkpt><trkpt lat="40.4503891" lon="9.1553788"><ele>346.5</ele><time>2026-03-22T10:42:05.236Z</time></trkpt><trkpt lat="40.4505632" lon="9.1555835"><ele>348.0</ele><time>2026-03-22T10:42:07.236Z</time></trkpt><trkpt lat="40.4507207" lon="9.1558714"><ele>348.0</ele><time>2026-03-22T10:42:09.236Z</time></trkpt><trkpt lat="40.4508015" lon="9.1560345"><ele>348.0</ele><time>2026-03-22T10:42:10.236Z</time></trkpt><trkpt lat="40.4508905" lon="9.1562023"><ele>348.0</ele><time>2026-03-22T10:42:11.236Z</time></trkpt><trkpt lat="40.4509756" lon="9.1563695"><ele>348.0</ele><time>2026-03-22T10:42:12.236Z</time></trkpt><trkpt lat="40.4510549" lon="9.1565273"><ele>348.0</ele><time>2026-03-22T10:42:13.236Z</time></trkpt><trkpt lat="40.4511911" lon="9.156812"><ele>348.0</ele><time>2026-03-22T10:42:15.236Z</time></trkpt><trkpt lat="40.4512704" lon="9.1570955"><ele>349.6666666666667</ele><time>2026-03-22T10:42:17.236Z</time></trkpt><trkpt lat="40.4512701" lon="9.1574241"><ele>351.33333333333337</ele><time>2026-03-22T10:42:19.236Z</time></trkpt><trkpt lat="40.4512571" lon="9.1576104"><ele>353.0</ele><time>2026-03-22T10:42:20.236Z</time></trkpt><trkpt lat="40.4512206" lon="9.1580225"><ele>354.5</ele><time>2026-03-22T10:42:22.236Z</time></trkpt><trkpt lat="40.4511893" lon="9.1584631"><ele>356.0</ele><time>2026-03-22T10:42:24.236Z</time></trkpt><trkpt lat="40.4511449" lon="9.1588969"><ele>357.5</ele><time>2026-03-22T10:42:26.236Z</time></trkpt><trkpt lat="40.4511191" lon="9.1592983"><ele>359.0</ele><time>2026-03-22T10:42:28.236Z</time></trkpt><trkpt lat="40.4511063" lon="9.1596275"><ele>359.0</ele><time>2026-03-22T10:42:30.236Z</time></trkpt><trkpt lat="40.451119" lon="9.1597906"><ele>359.0</ele><time>2026-03-22T10:42:31.236Z</time></trkpt><trkpt lat="40.4512058" lon="9.16007"><ele>359.0</ele><time>2026-03-22T10:42:33.236Z</time></trkpt><trkpt lat="40.451412" lon="9.1602822"><ele>363.0</ele><time>2026-03-22T10:42:35.236Z</time></trkpt><trkpt lat="40.4515411" lon="9.160375"><ele>367.0</ele><time>2026-03-22T10:42:36.236Z</time></trkpt><trkpt lat="40.451831" lon="9.1605482"><ele>368.5</ele><time>2026-03-22T10:42:38.236Z</time></trkpt><trkpt lat="40.4520625" lon="9.1607014"><ele>370.0</ele><time>2026-03-22T10:42:40.236Z</time></trkpt><trkpt lat="40.4522217" lon="9.1608765"><ele>371.2</ele><time>2026-03-22T10:42:42.236Z</time></trkpt><trkpt lat="40.4522735" lon="9.1609788"><ele>372.4</ele><time>2026-03-22T10:42:43.236Z</time></trkpt><trkpt lat="40.4523151" lon="9.1610958"><ele>373.6</ele><time>2026-03-22T10:42:44.236Z</time></trkpt><trkpt lat="40.4523395" lon="9.1612315"><ele>374.8</ele><time>2026-03-22T10:42:45.236Z</time></trkpt><trkpt lat="40.4523583" lon="9.1613805"><ele>376.0</ele><time>2026-03-22T10:42:46.236Z</time></trkpt><trkpt lat="40.4523854" lon="9.161732"><ele>377.5</ele><time>2026-03-22T10:42:48.236Z</time></trkpt><trkpt lat="40.4524084" lon="9.1621013"><ele>379.0</ele><time>2026-03-22T10:42:50.236Z</time></trkpt><trkpt lat="40.4524661" lon="9.1624425"><ele>380.3333333333333</ele><time>2026-03-22T10:42:52.236Z</time></trkpt><trkpt lat="40.4525634" lon="9.1627843"><ele>381.6666666666667</ele><time>2026-03-22T10:42:54.236Z</time></trkpt><trkpt lat="40.4526438" lon="9.1629559"><ele>383.0</ele><time>2026-03-22T10:42:55.236Z</time></trkpt><trkpt lat="40.4528465" lon="9.1633587"><ele>385.0</ele><time>2026-03-22T10:42:57.236Z</time></trkpt><trkpt lat="40.4530524" lon="9.1637689"><ele>387.0</ele><time>2026-03-22T10:42:59.236Z</time></trkpt><trkpt lat="40.453256" lon="9.1641631"><ele>387.5</ele><time>2026-03-22T10:43:01.236Z</time></trkpt><trkpt lat="40.4534358" lon="9.164517"><ele>388.0</ele><time>2026-03-22T10:43:03.236Z</time></trkpt><trkpt lat="40.4536004" lon="9.1648394"><ele>387.0</ele><time>2026-03-22T10:43:05.236Z</time></trkpt><trkpt lat="40.4537419" lon="9.1651252"><ele>386.0</ele><time>2026-03-22T10:43:07.236Z</time></trkpt><trkpt lat="40.453853" lon="9.1654288"><ele>388.5</ele><time>2026-03-22T10:43:09.236Z</time></trkpt><trkpt lat="40.4539068" lon="9.1657509"><ele>391.0</ele><time>2026-03-22T10:43:11.236Z</time></trkpt><trkpt lat="40.4539086" lon="9.1661118"><ele>391.0</ele><time>2026-03-22T10:43:13.236Z</time></trkpt><trkpt lat="40.4538993" lon="9.1662899"><ele>391.0</ele><time>2026-03-22T10:43:14.236Z</time></trkpt><trkpt lat="40.4538842" lon="9.1666142"><ele>391.0</ele><time>2026-03-22T10:43:16.236Z</time></trkpt><trkpt lat="40.4538812" lon="9.1667601"><ele>390.75</ele><time>2026-03-22T10:43:17.236Z</time></trkpt><trkpt lat="40.4538822" lon="9.1668905"><ele>390.5</ele><time>2026-03-22T10:43:18.236Z</time></trkpt><trkpt lat="40.4538938" lon="9.1670229"><ele>390.25</ele><time>2026-03-22T10:43:19.236Z</time></trkpt><trkpt lat="40.4539117" lon="9.1671681"><ele>390.0</ele><time>2026-03-22T10:43:20.236Z</time></trkpt><trkpt lat="40.4540161" lon="9.1674691"><ele>391.0</ele><time>2026-03-22T10:43:22.236Z</time></trkpt><trkpt lat="40.454084" lon="9.1676185"><ele>392.0</ele><time>2026-03-22T10:43:23.236Z</time></trkpt><trkpt lat="40.4541742" lon="9.1677521"><ele>393.0</ele><time>2026-03-22T10:43:24.236Z</time></trkpt><trkpt lat="40.4543592" lon="9.1679718"><ele>393.0</ele><time>2026-03-22T10:43:26.236Z</time></trkpt><trkpt lat="40.4546086" lon="9.1681114"><ele>393.0</ele><time>2026-03-22T10:43:28.236Z</time></trkpt><trkpt lat="40.4549066" lon="9.1681834"><ele>394.25</ele><time>2026-03-22T10:43:30.236Z</time></trkpt><trkpt lat="40.4550436" lon="9.1682121"><ele>395.5</ele><time>2026-03-22T10:43:31.236Z</time></trkpt><trkpt lat="40.4551756" lon="9.1682444"><ele>396.75</ele><time>2026-03-22T10:43:32.236Z</time></trkpt><trkpt lat="40.4553004" lon="9.1682621"><ele>398.0</ele><time>2026-03-22T10:43:33.236Z</time></trkpt><trkpt lat="40.455409" lon="9.1682927"><ele>398.75</ele><time>2026-03-22T10:43:34.236Z</time></trkpt><trkpt lat="40.4555945" lon="9.1683366"><ele>399.5</ele><time>2026-03-22T10:43:36.236Z</time></trkpt><trkpt lat="40.4556992" lon="9.1683836"><ele>400.25</ele><time>2026-03-22T10:43:38.236Z</time></trkpt><trkpt lat="40.4557552" lon="9.1684582"><ele>401.0</ele><time>2026-03-22T10:43:41.236Z</time></trkpt><trkpt lat="40.455745" lon="9.1686651"><ele>401.0</ele><time>2026-03-22T10:43:44.236Z</time></trkpt><trkpt lat="40.4557333" lon="9.1687597"><ele>401.0</ele><time>2026-03-22T10:43:45.236Z</time></trkpt><trkpt lat="40.4557062" lon="9.1688775"><ele>401.0</ele><time>2026-03-22T10:43:46.236Z</time></trkpt><trkpt lat="40.4556465" lon="9.1691219"><ele>401.0</ele><time>2026-03-22T10:43:48.236Z</time></trkpt><trkpt lat="40.4556279" lon="9.1692473"><ele>401.66666666666663</ele><time>2026-03-22T10:43:49.236Z</time></trkpt><trkpt lat="40.4555833" lon="9.1694741"><ele>402.33333333333337</ele><time>2026-03-22T10:43:51.236Z</time></trkpt><trkpt lat="40.4555281" lon="9.1696725"><ele>403.0</ele><time>2026-03-22T10:43:53.236Z</time></trkpt><trkpt lat="40.4554771" lon="9.1698548"><ele>405.6666666666667</ele><time>2026-03-22T10:43:55.236Z</time></trkpt><trkpt lat="40.4554254" lon="9.1700526"><ele>408.33333333333337</ele><time>2026-03-22T10:43:57.236Z</time></trkpt><trkpt lat="40.455378" lon="9.1702526"><ele>411.0</ele><time>2026-03-22T10:43:59.236Z</time></trkpt><trkpt lat="40.4553883" lon="9.1704637"><ele>411.0</ele><time>2026-03-22T10:44:01.236Z</time></trkpt><trkpt lat="40.4554271" lon="9.1706868"><ele>411.0</ele><time>2026-03-22T10:44:03.236Z</time></trkpt><trkpt lat="40.4554514" lon="9.1707885"><ele>411.0</ele><time>2026-03-22T10:44:04.236Z</time></trkpt><trkpt lat="40.4554802" lon="9.1708762"><ele>411.0</ele><time>2026-03-22T10:44:05.236Z</time></trkpt><trkpt lat="40.4554786" lon="9.1709664"><ele>411.0</ele><time>2026-03-22T10:44:06.236Z</time></trkpt><trkpt lat="40.4555758" lon="9.1711602"><ele>411.20000000000005</ele><time>2026-03-22T10:44:08.236Z</time></trkpt><trkpt lat="40.4556753" lon="9.1713374"><ele>411.40000000000003</ele><time>2026-03-22T10:44:10.236Z</time></trkpt><trkpt lat="40.4557233" lon="9.1714208"><ele>411.6</ele><time>2026-03-22T10:44:11.236Z</time></trkpt><trkpt lat="40.4557729" lon="9.1714935"><ele>411.8</ele><time>2026-03-22T10:44:12.236Z</time></trkpt><trkpt lat="40.4558295" lon="9.1715725"><ele>412.0</ele><time>2026-03-22T10:44:13.236Z</time></trkpt><trkpt lat="40.4558644" lon="9.1716694"><ele>412.0</ele><time>2026-03-22T10:44:14.236Z</time></trkpt><trkpt lat="40.455905" lon="9.1717819"><ele>412.0</ele><time>2026-03-22T10:44:15.236Z</time></trkpt><trkpt lat="40.4559398" lon="9.1719366"><ele>412.0</ele><time>2026-03-22T10:44:16.236Z</time></trkpt><trkpt lat="40.455992" lon="9.1720644"><ele>412.0</ele><time>2026-03-22T10:44:17.236Z</time></trkpt><trkpt lat="40.4560387" lon="9.172202"><ele>412.0</ele><time>2026-03-22T10:44:18.236Z</time></trkpt><trkpt lat="40.4561064" lon="9.1723012"><ele>414.6666666666667</ele><time>2026-03-22T10:44:19.236Z</time></trkpt><trkpt lat="40.4561551" lon="9.1724137"><ele>417.33333333333337</ele><time>2026-03-22T10:44:20.236Z</time></trkpt><trkpt lat="40.4564388" lon="9.1722432"><ele>420.0</ele><time>2026-03-22T10:44:21.236Z</time></trkpt><trkpt lat="40.456556" lon="9.1722758"><ele>418.4</ele><time>2026-03-22T10:44:22.236Z</time></trkpt><trkpt lat="40.4566672" lon="9.1723163"><ele>416.8</ele><time>2026-03-22T10:44:23.236Z</time></trkpt><trkpt lat="40.4567418" lon="9.1723972"><ele>415.20000000000005</ele><time>2026-03-22T10:44:24.236Z</time></trkpt><trkpt lat="40.4568372" lon="9.1724673"><ele>413.6</ele><time>2026-03-22T10:44:25.236Z</time></trkpt><trkpt lat="40.4568934" lon="9.1725589"><ele>412.0</ele><time>2026-03-22T10:44:26.236Z</time></trkpt><trkpt lat="40.4569739" lon="9.1726283"><ele>412.0</ele><time>2026-03-22T10:44:27.236Z</time></trkpt><trkpt lat="40.4570179" lon="9.1727443"><ele>412.0</ele><time>2026-03-22T10:44:28.236Z</time></trkpt><trkpt lat="40.4570758" lon="9.172855"><ele>412.0</ele><time>2026-03-22T10:44:29.236Z</time></trkpt><trkpt lat="40.4571188" lon="9.172988"><ele>412.0</ele><time>2026-03-22T10:44:30.236Z</time></trkpt><trkpt lat="40.4571717" lon="9.1730995"><ele>412.0</ele><time>2026-03-22T10:44:31.236Z</time></trkpt><trkpt lat="40.4572263" lon="9.1732068"><ele>412.40000000000003</ele><time>2026-03-22T10:44:32.236Z</time></trkpt><trkpt lat="40.4573015" lon="9.1732986"><ele>412.8</ele><time>2026-03-22T10:44:33.236Z</time></trkpt><trkpt lat="40.4573852" lon="9.1734748"><ele>413.2</ele><time>2026-03-22T10:44:35.236Z</time></trkpt><trkpt lat="40.4573308" lon="9.1735712"><ele>413.6</ele><time>2026-03-22T10:44:36.236Z</time></trkpt><trkpt lat="40.4572888" lon="9.1736346"><ele>414.0</ele><time>2026-03-22T10:44:37.236Z</time></trkpt><trkpt lat="40.4571179" lon="9.1737332"><ele>415.33333333333337</ele><time>2026-03-22T10:44:39.236Z</time></trkpt><trkpt lat="40.4569148" lon="9.173719"><ele>416.6666666666667</ele><time>2026-03-22T10:44:41.236Z</time></trkpt><trkpt lat="40.4567966" lon="9.1737026"><ele>418.0</ele><time>2026-03-22T10:44:42.236Z</time></trkpt><trkpt lat="40.45658" lon="9.1736312"><ele>418.0</ele><time>2026-03-22T10:44:44.236Z</time></trkpt><trkpt lat="40.4563909" lon="9.1736063"><ele>418.0</ele><time>2026-03-22T10:44:46.236Z</time></trkpt><trkpt lat="40.4562957" lon="9.1736247"><ele>418.0</ele><time>2026-03-22T10:44:47.236Z</time></trkpt><trkpt lat="40.4562179" lon="9.1736932"><ele>418.0</ele><time>2026-03-22T10:44:48.236Z</time></trkpt><trkpt lat="40.456168" lon="9.1739143"><ele>422.0</ele><time>2026-03-22T10:44:50.236Z</time></trkpt><trkpt lat="40.4562161" lon="9.1741654"><ele>426.0</ele><time>2026-03-22T10:44:52.236Z</time></trkpt><trkpt lat="40.4563416" lon="9.1744694"><ele>426.0</ele><time>2026-03-22T10:44:54.236Z</time></trkpt><trkpt lat="40.4564763" lon="9.1747807"><ele>426.0</ele><time>2026-03-22T10:44:56.236Z</time></trkpt><trkpt lat="40.4565384" lon="9.1749427"><ele>426.0</ele><time>2026-03-22T10:44:57.236Z</time></trkpt><trkpt lat="40.4566882" lon="9.1752808"><ele>429.0</ele><time>2026-03-22T10:44:59.236Z</time></trkpt><trkpt lat="40.4568267" lon="9.1756497"><ele>432.0</ele><time>2026-03-22T10:45:01.236Z</time></trkpt><trkpt lat="40.4569688" lon="9.1760001"><ele>435.66666666666663</ele><time>2026-03-22T10:45:03.236Z</time></trkpt><trkpt lat="40.4570357" lon="9.1761483"><ele>439.3333333333333</ele><time>2026-03-22T10:45:04.236Z</time></trkpt><trkpt lat="40.4570917" lon="9.1763037"><ele>443.0</ele><time>2026-03-22T10:45:05.236Z</time></trkpt><trkpt lat="40.4572217" lon="9.1765444"><ele>443.0</ele><time>2026-03-22T10:45:07.236Z</time></trkpt><trkpt lat="40.4574714" lon="9.1767098"><ele>443.0</ele><time>2026-03-22T10:45:09.236Z</time></trkpt><trkpt lat="40.4576012" lon="9.1767531"><ele>443.0</ele><time>2026-03-22T10:45:10.236Z</time></trkpt><trkpt lat="40.4578475" lon="9.1768115"><ele>443.0</ele><time>2026-03-22T10:45:12.236Z</time></trkpt><trkpt lat="40.4580076" lon="9.1768869"><ele>443.0</ele><time>2026-03-22T10:45:14.236Z</time></trkpt><trkpt lat="40.4580412" lon="9.1770364"><ele>443.0</ele><time>2026-03-22T10:45:16.236Z</time></trkpt><trkpt lat="40.4579379" lon="9.1771535"><ele>443.0</ele><time>2026-03-22T10:45:18.236Z</time></trkpt><trkpt lat="40.4577538" lon="9.1771365"><ele>443.0</ele><time>2026-03-22T10:45:20.236Z</time></trkpt><trkpt lat="40.4576471" lon="9.1771301"><ele>442.99999999999994</ele><time>2026-03-22T10:45:21.236Z</time></trkpt><trkpt lat="40.4575516" lon="9.1771386"><ele>442.99999999999994</ele><time>2026-03-22T10:45:22.236Z</time></trkpt><trkpt lat="40.4573956" lon="9.1771823"><ele>443.0</ele><time>2026-03-22T10:45:24.236Z</time></trkpt><trkpt lat="40.4573291" lon="9.1772165"><ele>443.0</ele><time>2026-03-22T10:45:25.236Z</time></trkpt><trkpt lat="40.4575143" lon="9.1776711"><ele>450.0</ele><time>2026-03-22T10:45:28.236Z</time></trkpt><trkpt lat="40.4576513" lon="9.178007"><ele>457.0</ele><time>2026-03-22T10:45:30.236Z</time></trkpt><trkpt lat="40.4577658" lon="9.1783509"><ele>460.33333333333337</ele><time>2026-03-22T10:45:32.236Z</time></trkpt><trkpt lat="40.4576921" lon="9.1786146"><ele>463.66666666666663</ele><time>2026-03-22T10:45:34.236Z</time></trkpt><trkpt lat="40.457566" lon="9.1786724"><ele>467.0</ele><time>2026-03-22T10:45:36.236Z</time></trkpt><trkpt lat="40.4574226" lon="9.1785885"><ele>467.0</ele><time>2026-03-22T10:45:38.236Z</time></trkpt><trkpt lat="40.457259" lon="9.1786254"><ele>467.0</ele><time>2026-03-22T10:45:40.236Z</time></trkpt><trkpt lat="40.4571873" lon="9.1787919"><ele>467.0</ele><time>2026-03-22T10:45:42.236Z</time></trkpt><trkpt lat="40.4571945" lon="9.1789342"><ele>467.0</ele><time>2026-03-22T10:45:43.236Z</time></trkpt><trkpt lat="40.4572429" lon="9.1792355"><ele>470.5</ele><time>2026-03-22T10:45:45.236Z</time></trkpt><trkpt lat="40.457325" lon="9.1794931"><ele>474.0</ele><time>2026-03-22T10:45:47.236Z</time></trkpt><trkpt lat="40.4575762" lon="9.1796054"><ele>474.0</ele><time>2026-03-22T10:45:49.236Z</time></trkpt><trkpt lat="40.457752" lon="9.1797376"><ele>474.0</ele><time>2026-03-22T10:45:51.236Z</time></trkpt><trkpt lat="40.4578295" lon="9.1799498"><ele>474.0</ele><time>2026-03-22T10:45:53.236Z</time></trkpt><trkpt lat="40.4578401" lon="9.1800625"><ele>476.6</ele><time>2026-03-22T10:45:54.236Z</time></trkpt><trkpt lat="40.457836" lon="9.1801789"><ele>479.2</ele><time>2026-03-22T10:45:55.236Z</time></trkpt><trkpt lat="40.4577889" lon="9.1802878"><ele>481.80000000000007</ele><time>2026-03-22T10:45:56.236Z</time></trkpt><trkpt lat="40.4577218" lon="9.1803519"><ele>484.40000000000003</ele><time>2026-03-22T10:45:57.236Z</time></trkpt><trkpt lat="40.4576509" lon="9.1803776"><ele>487.0</ele><time>2026-03-22T10:45:58.236Z</time></trkpt><trkpt lat="40.4574914" lon="9.1803186"><ele>487.0</ele><time>2026-03-22T10:46:00.236Z</time></trkpt><trkpt lat="40.4573889" lon="9.180127"><ele>487.0</ele><time>2026-03-22T10:46:02.236Z</time></trkpt><trkpt lat="40.4572544" lon="9.179995"><ele>487.0</ele><time>2026-03-22T10:46:04.236Z</time></trkpt><trkpt lat="40.4571345" lon="9.1801231"><ele>487.0</ele><time>2026-03-22T10:46:06.236Z</time></trkpt><trkpt lat="40.4571462" lon="9.180357"><ele>487.0</ele><time>2026-03-22T10:46:08.236Z</time></trkpt><trkpt lat="40.4571973" lon="9.1804944"><ele>487.0</ele><time>2026-03-22T10:46:09.236Z</time></trkpt><trkpt lat="40.4572979" lon="9.1807975"><ele>490.0</ele><time>2026-03-22T10:46:11.236Z</time></trkpt><trkpt lat="40.4574365" lon="9.1810213"><ele>493.0</ele><time>2026-03-22T10:46:13.236Z</time></trkpt><trkpt lat="40.4575459" lon="9.181053"><ele>496.0</ele><time>2026-03-22T10:46:14.236Z</time></trkpt><trkpt lat="40.4576627" lon="9.1810519"><ele>499.0</ele><time>2026-03-22T10:46:15.236Z</time></trkpt><trkpt lat="40.4578243" lon="9.1809958"><ele>499.0</ele><time>2026-03-22T10:46:17.236Z</time></trkpt><trkpt lat="40.4579377" lon="9.1810127"><ele>499.0</ele><time>2026-03-22T10:46:19.236Z</time></trkpt><trkpt lat="40.457971" lon="9.1811299"><ele>499.0</ele><time>2026-03-22T10:46:20.236Z</time></trkpt><trkpt lat="40.4579914" lon="9.1812275"><ele>499.0</ele><time>2026-03-22T10:46:21.236Z</time></trkpt><trkpt lat="40.4579809" lon="9.181355"><ele>499.0</ele><time>2026-03-22T10:46:22.236Z</time></trkpt><trkpt lat="40.4579145" lon="9.1814496"><ele>502.0</ele><time>2026-03-22T10:46:23.236Z</time></trkpt><trkpt lat="40.4578477" lon="9.1815454"><ele>505.0</ele><time>2026-03-22T10:46:24.236Z</time></trkpt><trkpt lat="40.4577593" lon="9.1816031"><ele>508.0</ele><time>2026-03-22T10:46:25.236Z</time></trkpt><trkpt lat="40.4576653" lon="9.1816302"><ele>511.0</ele><time>2026-03-22T10:46:26.236Z</time></trkpt><trkpt lat="40.4575711" lon="9.1816197"><ele>514.0</ele><time>2026-03-22T10:46:27.236Z</time></trkpt><trkpt lat="40.4574718" lon="9.1815514"><ele>517.0</ele><time>2026-03-22T10:46:28.236Z</time></trkpt><trkpt lat="40.4573779" lon="9.1814688"><ele>520.0</ele><time>2026-03-22T10:46:29.236Z</time></trkpt><trkpt lat="40.4572652" lon="9.1813702"><ele>523.0</ele><time>2026-03-22T10:46:30.236Z</time></trkpt><trkpt lat="40.4571638" lon="9.1812418"><ele>526.0</ele><time>2026-03-22T10:46:31.236Z</time></trkpt><trkpt lat="40.457095" lon="9.1811121"><ele>526.0</ele><time>2026-03-22T10:46:32.236Z</time></trkpt><trkpt lat="40.4570401" lon="9.1809911"><ele>526.0</ele><time>2026-03-22T10:46:33.236Z</time></trkpt><trkpt lat="40.4569839" lon="9.1808894"><ele>526.0</ele><time>2026-03-22T10:46:34.236Z</time></trkpt><trkpt lat="40.4569245" lon="9.1808178"><ele>526.0</ele><time>2026-03-22T10:46:35.236Z</time></trkpt><trkpt lat="40.4568615" lon="9.1807843"><ele>526.0</ele><time>2026-03-22T10:46:36.236Z</time></trkpt><trkpt lat="40.4567863" lon="9.1808358"><ele>526.0</ele><time>2026-03-22T10:46:37.236Z</time></trkpt><trkpt lat="40.4567658" lon="9.1809182"><ele>526.0</ele><time>2026-03-22T10:46:38.236Z</time></trkpt><trkpt lat="40.4567703" lon="9.1810127"><ele>526.0</ele><time>2026-03-22T10:46:39.236Z</time></trkpt><trkpt lat="40.4568554" lon="9.1812272"><ele>526.0</ele><time>2026-03-22T10:46:41.236Z</time></trkpt><trkpt lat="40.4569143" lon="9.1813519"><ele>526.0</ele><time>2026-03-22T10:46:42.236Z</time></trkpt><trkpt lat="40.4569928" lon="9.1814975"><ele>530.0</ele><time>2026-03-22T10:46:43.236Z</time></trkpt><trkpt lat="40.457072" lon="9.1816514"><ele>534.0</ele><time>2026-03-22T10:46:44.236Z</time></trkpt><trkpt lat="40.4571647" lon="9.1818159"><ele>538.0</ele><time>2026-03-22T10:46:45.236Z</time></trkpt><trkpt lat="40.4572596" lon="9.1819772"><ele>536.3333333333334</ele><time>2026-03-22T10:46:46.236Z</time></trkpt><trkpt lat="40.4573624" lon="9.1821428"><ele>534.6666666666666</ele><time>2026-03-22T10:46:47.236Z</time></trkpt><trkpt lat="40.4574576" lon="9.1822876"><ele>533.0</ele><time>2026-03-22T10:46:48.236Z</time></trkpt><trkpt lat="40.4575581" lon="9.1824565"><ele>533.0</ele><time>2026-03-22T10:46:49.236Z</time></trkpt><trkpt lat="40.457669" lon="9.1826145"><ele>533.0</ele><time>2026-03-22T10:46:50.236Z</time></trkpt><trkpt lat="40.4579012" lon="9.182872"><ele>532.0</ele><time>2026-03-22T10:46:52.236Z</time></trkpt><trkpt lat="40.4581638" lon="9.1830734"><ele>531.0</ele><time>2026-03-22T10:46:54.236Z</time></trkpt><trkpt lat="40.4582635" lon="9.1831904"><ele>530.0</ele><time>2026-03-22T10:46:55.236Z</time></trkpt><trkpt lat="40.4583631" lon="9.1833057"><ele>532.0</ele><time>2026-03-22T10:46:56.236Z</time></trkpt><trkpt lat="40.4585298" lon="9.1834814"><ele>534.0</ele><time>2026-03-22T10:46:58.236Z</time></trkpt><trkpt lat="40.4587205" lon="9.1835037"><ele>536.0</ele><time>2026-03-22T10:47:00.236Z</time></trkpt><trkpt lat="40.4588276" lon="9.1833354"><ele>539.25</ele><time>2026-03-22T10:47:02.236Z</time></trkpt><trkpt lat="40.4588488" lon="9.1831986"><ele>542.5</ele><time>2026-03-22T10:47:03.236Z</time></trkpt><trkpt lat="40.4588547" lon="9.1830629"><ele>545.75</ele><time>2026-03-22T10:47:04.236Z</time></trkpt><trkpt lat="40.458862" lon="9.1829331"><ele>549.0</ele><time>2026-03-22T10:47:05.236Z</time></trkpt><trkpt lat="40.4589697" lon="9.1827817"><ele>549.0</ele><time>2026-03-22T10:47:07.236Z</time></trkpt><trkpt lat="40.4590412" lon="9.1827939"><ele>549.0</ele><time>2026-03-22T10:47:08.236Z</time></trkpt><trkpt lat="40.459099" lon="9.1828285"><ele>549.0</ele><time>2026-03-22T10:47:09.236Z</time></trkpt><trkpt lat="40.459174" lon="9.1830479"><ele>549.0</ele><time>2026-03-22T10:47:11.236Z</time></trkpt><trkpt lat="40.4591898" lon="9.1833289"><ele>549.6666666666666</ele><time>2026-03-22T10:47:13.236Z</time></trkpt><trkpt lat="40.4591224" lon="9.1835857"><ele>550.3333333333333</ele><time>2026-03-22T10:47:15.236Z</time></trkpt><trkpt lat="40.4590422" lon="9.1837174"><ele>551.0</ele><time>2026-03-22T10:47:16.236Z</time></trkpt><trkpt lat="40.458897" lon="9.1839683"><ele>553.0</ele><time>2026-03-22T10:47:18.236Z</time></trkpt><trkpt lat="40.4588553" lon="9.1841228"><ele>555.0</ele><time>2026-03-22T10:47:19.236Z</time></trkpt><trkpt lat="40.4588016" lon="9.1844305"><ele>557.0</ele><time>2026-03-22T10:47:21.236Z</time></trkpt><trkpt lat="40.4588212" lon="9.1847583"><ele>561.0</ele><time>2026-03-22T10:47:23.236Z</time></trkpt><trkpt lat="40.4589475" lon="9.1850866"><ele>565.0</ele><time>2026-03-22T10:47:25.236Z</time></trkpt><trkpt lat="40.4590519" lon="9.1853683"><ele>565.0</ele><time>2026-03-22T10:47:27.236Z</time></trkpt><trkpt lat="40.4591031" lon="9.1855979"><ele>565.0</ele><time>2026-03-22T10:47:29.236Z</time></trkpt><trkpt lat="40.4590156" lon="9.1857743"><ele>565.0</ele><time>2026-03-22T10:47:31.236Z</time></trkpt><trkpt lat="40.4588617" lon="9.1857455"><ele>565.6666666666667</ele><time>2026-03-22T10:47:33.236Z</time></trkpt><trkpt lat="40.4587268" lon="9.1855472"><ele>566.3333333333334</ele><time>2026-03-22T10:47:35.236Z</time></trkpt><trkpt lat="40.4586468" lon="9.1854317"><ele>567.0</ele><time>2026-03-22T10:47:36.236Z</time></trkpt><trkpt lat="40.4585506" lon="9.1853062"><ele>567.0</ele><time>2026-03-22T10:47:37.236Z</time></trkpt><trkpt lat="40.4584566" lon="9.1851593"><ele>567.0</ele><time>2026-03-22T10:47:38.236Z</time></trkpt><trkpt lat="40.4583613" lon="9.1850174"><ele>567.0</ele><time>2026-03-22T10:47:39.236Z</time></trkpt><trkpt lat="40.4581977" lon="9.184744"><ele>568.75</ele><time>2026-03-22T10:47:41.236Z</time></trkpt><trkpt lat="40.4580582" lon="9.1845893"><ele>570.5</ele><time>2026-03-22T10:47:43.236Z</time></trkpt><trkpt lat="40.4579125" lon="9.1846135"><ele>572.25</ele><time>2026-03-22T10:47:45.236Z</time></trkpt><trkpt lat="40.4578808" lon="9.1847098"><ele>574.0</ele><time>2026-03-22T10:47:46.236Z</time></trkpt><trkpt lat="40.4579093" lon="9.1849534"><ele>574.3333333333334</ele><time>2026-03-22T10:47:48.236Z</time></trkpt><trkpt lat="40.4579679" lon="9.1850932"><ele>574.6666666666666</ele><time>2026-03-22T10:47:49.236Z</time></trkpt><trkpt lat="40.4580705" lon="9.1854031"><ele>575.0</ele><time>2026-03-22T10:47:51.236Z</time></trkpt><trkpt lat="40.4581456" lon="9.1857821"><ele>575.0</ele><time>2026-03-22T10:47:53.236Z</time></trkpt><trkpt lat="40.458187" lon="9.1859653"><ele>575.0</ele><time>2026-03-22T10:47:54.236Z</time></trkpt><trkpt lat="40.4582499" lon="9.1862596"><ele>575.0</ele><time>2026-03-22T10:47:56.236Z</time></trkpt><trkpt lat="40.4582712" lon="9.1863778"><ele>577.8</ele><time>2026-03-22T10:47:57.236Z</time></trkpt><trkpt lat="40.4583958" lon="9.1865554"><ele>580.6</ele><time>2026-03-22T10:47:59.236Z</time></trkpt><trkpt lat="40.4584727" lon="9.1866611"><ele>583.4</ele><time>2026-03-22T10:48:01.236Z</time></trkpt><trkpt lat="40.4585301" lon="9.1866986"><ele>586.2</ele><time>2026-03-22T10:48:03.236Z</time></trkpt><trkpt lat="40.4586048" lon="9.1866874"><ele>589.0</ele><time>2026-03-22T10:49:57.244Z</time></trkpt><trkpt lat="40.4586091" lon="9.1865935"><ele>589.0</ele><time>2026-03-22T10:50:04.244Z</time></trkpt><trkpt lat="40.4585519" lon="9.1865461"><ele>589.0</ele><time>2026-03-22T10:50:05.244Z</time></trkpt><trkpt lat="40.4584885" lon="9.1864861"><ele>589.0</ele><time>2026-03-22T10:50:06.244Z</time></trkpt><trkpt lat="40.4584256" lon="9.1864062"><ele>589.0</ele><time>2026-03-22T10:50:07.244Z</time></trkpt><trkpt lat="40.4583756" lon="9.186316"><ele>589.0</ele><time>2026-03-22T10:50:08.244Z</time></trkpt><trkpt lat="40.4582759" lon="9.1861085"><ele>585.5</ele><time>2026-03-22T10:50:10.244Z</time></trkpt><trkpt lat="40.4582356" lon="9.18598"><ele>582.0</ele><time>2026-03-22T10:50:11.244Z</time></trkpt><trkpt lat="40.4581999" lon="9.1858431"><ele>578.5</ele><time>2026-03-22T10:50:12.244Z</time></trkpt><trkpt lat="40.4581335" lon="9.1855737"><ele>575.0</ele><time>2026-03-22T10:50:14.244Z</time></trkpt><trkpt lat="40.4581081" lon="9.1854416"><ele>573.4</ele><time>2026-03-22T10:50:15.244Z</time></trkpt><trkpt lat="40.4580761" lon="9.1853191"><ele>571.8</ele><time>2026-03-22T10:50:16.244Z</time></trkpt><trkpt lat="40.4580368" lon="9.1851971"><ele>570.2</ele><time>2026-03-22T10:50:17.244Z</time></trkpt><trkpt lat="40.4579992" lon="9.1850792"><ele>568.6</ele><time>2026-03-22T10:50:18.244Z</time></trkpt><trkpt lat="40.4579655" lon="9.1849755"><ele>567.0</ele><time>2026-03-22T10:50:19.244Z</time></trkpt><trkpt lat="40.4579325" lon="9.1848857"><ele>568.4</ele><time>2026-03-22T10:50:20.244Z</time></trkpt><trkpt lat="40.4579084" lon="9.1847994"><ele>569.8000000000001</ele><time>2026-03-22T10:50:21.244Z</time></trkpt><trkpt lat="40.4579083" lon="9.1847132"><ele>571.2</ele><time>2026-03-22T10:50:22.244Z</time></trkpt><trkpt lat="40.4579949" lon="9.184626"><ele>572.6</ele><time>2026-03-22T10:50:24.244Z</time></trkpt><trkpt lat="40.4581091" lon="9.1846907"><ele>574.0</ele><time>2026-03-22T10:50:26.244Z</time></trkpt><trkpt lat="40.4581753" lon="9.1847824"><ele>572.25</ele><time>2026-03-22T10:50:27.244Z</time></trkpt><trkpt lat="40.4582533" lon="9.1848961"><ele>570.5</ele><time>2026-03-22T10:50:28.244Z</time></trkpt><trkpt lat="40.4583413" lon="9.1850238"><ele>568.75</ele><time>2026-03-22T10:50:29.244Z</time></trkpt><trkpt lat="40.4584329" lon="9.1851604"><ele>567.0</ele><time>2026-03-22T10:50:30.244Z</time></trkpt><trkpt lat="40.4585291" lon="9.1853086"><ele>567.0</ele><time>2026-03-22T10:50:31.244Z</time></trkpt><trkpt lat="40.4586195" lon="9.1854522"><ele>567.0</ele><time>2026-03-22T10:50:32.244Z</time></trkpt><trkpt lat="40.4587024" lon="9.1855747"><ele>567.0</ele><time>2026-03-22T10:50:33.245Z</time></trkpt><trkpt lat="40.4587667" lon="9.1856845"><ele>567.0</ele><time>2026-03-22T10:50:34.244Z</time></trkpt><trkpt lat="40.4588373" lon="9.1857697"><ele>566.6666666666666</ele><time>2026-03-22T10:50:35.244Z</time></trkpt><trkpt lat="40.4589219" lon="9.1858242"><ele>566.3333333333334</ele><time>2026-03-22T10:50:36.244Z</time></trkpt><trkpt lat="40.4589977" lon="9.1858294"><ele>566.0</ele><time>2026-03-22T10:50:37.244Z</time></trkpt><trkpt lat="40.4590726" lon="9.185799"><ele>565.6666666666667</ele><time>2026-03-22T10:50:38.244Z</time></trkpt><trkpt lat="40.4591264" lon="9.1857244"><ele>565.3333333333334</ele><time>2026-03-22T10:50:39.244Z</time></trkpt><trkpt lat="40.4591511" lon="9.1856234"><ele>565.0</ele><time>2026-03-22T10:50:40.244Z</time></trkpt><trkpt lat="40.4591605" lon="9.1855026"><ele>565.0</ele><time>2026-03-22T10:50:41.244Z</time></trkpt><trkpt lat="40.4591208" lon="9.1853744"><ele>565.0</ele><time>2026-03-22T10:50:42.244Z</time></trkpt><trkpt lat="40.4590572" lon="9.1852347"><ele>565.0</ele><time>2026-03-22T10:50:43.244Z</time></trkpt><trkpt lat="40.4589944" lon="9.1850872"><ele>565.0</ele><time>2026-03-22T10:50:44.244Z</time></trkpt><trkpt lat="40.4589333" lon="9.1849368"><ele>563.0</ele><time>2026-03-22T10:50:45.244Z</time></trkpt><trkpt lat="40.4588856" lon="9.1847844"><ele>561.0</ele><time>2026-03-22T10:50:46.244Z</time></trkpt><trkpt lat="40.4588536" lon="9.1846264"><ele>559.0</ele><time>2026-03-22T10:50:47.244Z</time></trkpt><trkpt lat="40.4588407" lon="9.1844541"><ele>557.0</ele><time>2026-03-22T10:50:48.244Z</time></trkpt><trkpt lat="40.4588591" lon="9.1842925"><ele>557.0</ele><time>2026-03-22T10:50:49.244Z</time></trkpt><trkpt lat="40.4588953" lon="9.1841346"><ele>557.0</ele><time>2026-03-22T10:50:50.244Z</time></trkpt><trkpt lat="40.4589296" lon="9.1839921"><ele>557.0</ele><time>2026-03-22T10:50:51.244Z</time></trkpt><trkpt lat="40.4589888" lon="9.1838605"><ele>557.0</ele><time>2026-03-22T10:50:52.244Z</time></trkpt><trkpt lat="40.4590736" lon="9.1837461"><ele>555.5</ele><time>2026-03-22T10:50:53.244Z</time></trkpt><trkpt lat="40.45914" lon="9.1836178"><ele>554.0</ele><time>2026-03-22T10:50:54.244Z</time></trkpt><trkpt lat="40.4591967" lon="9.1835007"><ele>552.5</ele><time>2026-03-22T10:50:55.244Z</time></trkpt><trkpt lat="40.4592055" lon="9.1833406"><ele>551.0</ele><time>2026-03-22T10:50:56.244Z</time></trkpt><trkpt lat="40.4592066" lon="9.1831766"><ele>550.6</ele><time>2026-03-22T10:50:57.244Z</time></trkpt><trkpt lat="40.4591795" lon="9.1830367"><ele>550.2</ele><time>2026-03-22T10:50:58.244Z</time></trkpt><trkpt lat="40.4591478" lon="9.1829116"><ele>549.8</ele><time>2026-03-22T10:50:59.244Z</time></trkpt><trkpt lat="40.4591146" lon="9.1828058"><ele>549.4</ele><time>2026-03-22T10:51:00.244Z</time></trkpt><trkpt lat="40.4590711" lon="9.1827097"><ele>549.0</ele><time>2026-03-22T10:51:01.244Z</time></trkpt><trkpt lat="40.458956" lon="9.1827877"><ele>549.0</ele><time>2026-03-22T10:51:02.244Z</time></trkpt><trkpt lat="40.458899" lon="9.1828399"><ele>549.0</ele><time>2026-03-22T10:51:03.244Z</time></trkpt><trkpt lat="40.4588686" lon="9.1829311"><ele>549.0</ele><time>2026-03-22T10:51:04.244Z</time></trkpt><trkpt lat="40.458855" lon="9.1830457"><ele>549.0</ele><time>2026-03-22T10:51:05.244Z</time></trkpt><trkpt lat="40.4588496" lon="9.1831489"><ele>549.0</ele><time>2026-03-22T10:51:06.244Z</time></trkpt><trkpt lat="40.4588397" lon="9.1832803"><ele>549.0</ele><time>2026-03-22T10:51:07.244Z</time></trkpt><trkpt lat="40.4588045" lon="9.1833965"><ele>546.4</ele><time>2026-03-22T10:51:08.244Z</time></trkpt><trkpt lat="40.4587489" lon="9.1834843"><ele>543.8</ele><time>2026-03-22T10:51:09.244Z</time></trkpt><trkpt lat="40.4586632" lon="9.1835171"><ele>541.2</ele><time>2026-03-22T10:51:10.244Z</time></trkpt><trkpt lat="40.4585735" lon="9.1835009"><ele>538.6</ele><time>2026-03-22T10:51:11.244Z</time></trkpt><trkpt lat="40.4584898" lon="9.1834276"><ele>536.0</ele><time>2026-03-22T10:51:12.244Z</time></trkpt><trkpt lat="40.4584033" lon="9.1833195"><ele>536.0</ele><time>2026-03-22T10:51:13.244Z</time></trkpt><trkpt lat="40.4582993" lon="9.1832035"><ele>536.0</ele><time>2026-03-22T10:51:14.244Z</time></trkpt><trkpt lat="40.4581794" lon="9.183081"><ele>536.0</ele><time>2026-03-22T10:51:15.244Z</time></trkpt><trkpt lat="40.4580585" lon="9.1829648"><ele>536.0</ele><time>2026-03-22T10:51:16.244Z</time></trkpt><trkpt lat="40.4579272" lon="9.182858"><ele>534.5</ele><time>2026-03-22T10:51:17.244Z</time></trkpt><trkpt lat="40.4576777" lon="9.1825571"><ele>533.0</ele><time>2026-03-22T10:51:19.244Z</time></trkpt><trkpt lat="40.457454" lon="9.1822072"><ele>526.6666666666666</ele><time>2026-03-22T10:51:21.244Z</time></trkpt><trkpt lat="40.457346" lon="9.1820364"><ele>520.3333333333334</ele><time>2026-03-22T10:51:22.244Z</time></trkpt><trkpt lat="40.4572472" lon="9.1818654"><ele>514.0</ele><time>2026-03-22T10:51:23.244Z</time></trkpt><trkpt lat="40.457148" lon="9.1817067"><ele>517.0</ele><time>2026-03-22T10:51:24.244Z</time></trkpt><trkpt lat="40.4570626" lon="9.1815359"><ele>520.0</ele><time>2026-03-22T10:51:25.244Z</time></trkpt><trkpt lat="40.4569885" lon="9.1813886"><ele>523.0</ele><time>2026-03-22T10:51:26.244Z</time></trkpt><trkpt lat="40.45692" lon="9.1812589"><ele>526.0</ele><time>2026-03-22T10:51:27.244Z</time></trkpt><trkpt lat="40.4568131" lon="9.1810486"><ele>526.0</ele><time>2026-03-22T10:51:29.244Z</time></trkpt><trkpt lat="40.4567965" lon="9.1808772"><ele>526.0</ele><time>2026-03-22T10:51:31.244Z</time></trkpt><trkpt lat="40.4568857" lon="9.1808188"><ele>526.0</ele><time>2026-03-22T10:51:33.244Z</time></trkpt><trkpt lat="40.4569462" lon="9.1808468"><ele>526.0</ele><time>2026-03-22T10:51:34.244Z</time></trkpt><trkpt lat="40.4570454" lon="9.1810234"><ele>522.0</ele><time>2026-03-22T10:51:36.244Z</time></trkpt><trkpt lat="40.4571691" lon="9.1812713"><ele>518.0</ele><time>2026-03-22T10:51:38.244Z</time></trkpt><trkpt lat="40.4573031" lon="9.1814748"><ele>514.0</ele><time>2026-03-22T10:51:40.244Z</time></trkpt><trkpt lat="40.457512" lon="9.181643"><ele>514.0</ele><time>2026-03-22T10:51:42.244Z</time></trkpt><trkpt lat="40.4576348" lon="9.1816633"><ele>514.0</ele><time>2026-03-22T10:51:43.244Z</time></trkpt><trkpt lat="40.4577551" lon="9.1816505"><ele>514.0</ele><time>2026-03-22T10:51:44.244Z</time></trkpt><trkpt lat="40.4579251" lon="9.1814483"><ele>514.3333333333334</ele><time>2026-03-22T10:51:46.244Z</time></trkpt><trkpt lat="40.4579724" lon="9.1811973"><ele>514.6666666666666</ele><time>2026-03-22T10:51:48.244Z</time></trkpt><trkpt lat="40.4579258" lon="9.1810023"><ele>515.0</ele><time>2026-03-22T10:51:50.244Z</time></trkpt><trkpt lat="40.457825" lon="9.1809343"><ele>511.0</ele><time>2026-03-22T10:51:52.244Z</time></trkpt><trkpt lat="40.457698" lon="9.1809308"><ele>507.0</ele><time>2026-03-22T10:51:54.244Z</time></trkpt><trkpt lat="40.4575722" lon="9.1809341"><ele>503.0</ele><time>2026-03-22T10:51:55.244Z</time></trkpt><trkpt lat="40.4574658" lon="9.180906"><ele>499.0</ele><time>2026-03-22T10:51:56.244Z</time></trkpt><trkpt lat="40.4573589" lon="9.1808617"><ele>499.0</ele><time>2026-03-22T10:51:57.244Z</time></trkpt><trkpt lat="40.4572551" lon="9.1807541"><ele>499.0</ele><time>2026-03-22T10:51:58.244Z</time></trkpt><trkpt lat="40.4571756" lon="9.1805652"><ele>499.0</ele><time>2026-03-22T10:51:59.244Z</time></trkpt><trkpt lat="40.4571552" lon="9.1803099"><ele>496.0</ele><time>2026-03-22T10:52:01.244Z</time></trkpt><trkpt lat="40.4571585" lon="9.1800942"><ele>493.0</ele><time>2026-03-22T10:52:03.244Z</time></trkpt><trkpt lat="40.4572165" lon="9.1800465"><ele>490.0</ele><time>2026-03-22T10:52:04.244Z</time></trkpt><trkpt lat="40.4573419" lon="9.180105"><ele>487.0</ele><time>2026-03-22T10:52:06.244Z</time></trkpt><trkpt lat="40.4573908" lon="9.1801995"><ele>487.0</ele><time>2026-03-22T10:52:07.244Z</time></trkpt><trkpt lat="40.4575178" lon="9.1803836"><ele>487.0</ele><time>2026-03-22T10:52:09.244Z</time></trkpt><trkpt lat="40.4576949" lon="9.180416"><ele>487.0</ele><time>2026-03-22T10:52:11.244Z</time></trkpt><trkpt lat="40.4578369" lon="9.1802645"><ele>487.0</ele><time>2026-03-22T10:52:13.244Z</time></trkpt><trkpt lat="40.4579202" lon="9.1800365"><ele>487.0</ele><time>2026-03-22T10:52:15.244Z</time></trkpt><trkpt lat="40.4578936" lon="9.1797647"><ele>487.0</ele><time>2026-03-22T10:52:17.244Z</time></trkpt><trkpt lat="40.4578147" lon="9.1796324"><ele>483.75</ele><time>2026-03-22T10:52:18.244Z</time></trkpt><trkpt lat="40.4577468" lon="9.1795328"><ele>480.5</ele><time>2026-03-22T10:52:19.244Z</time></trkpt><trkpt lat="40.4575494" lon="9.1795187"><ele>477.25</ele><time>2026-03-22T10:52:20.244Z</time></trkpt><trkpt lat="40.4574323" lon="9.1794839"><ele>474.0</ele><time>2026-03-22T10:52:21.244Z</time></trkpt><trkpt lat="40.4573321" lon="9.179419"><ele>474.0</ele><time>2026-03-22T10:52:22.244Z</time></trkpt><trkpt lat="40.457233" lon="9.1793098"><ele>474.0</ele><time>2026-03-22T10:52:23.244Z</time></trkpt><trkpt lat="40.45727" lon="9.1790833"><ele>474.0</ele><time>2026-03-22T10:52:24.244Z</time></trkpt><trkpt lat="40.4572402" lon="9.1789339"><ele>474.0</ele><time>2026-03-22T10:52:25.244Z</time></trkpt><trkpt lat="40.4572135" lon="9.1788101"><ele>472.8333333333333</ele><time>2026-03-22T10:52:26.244Z</time></trkpt><trkpt lat="40.4572655" lon="9.1787242"><ele>471.66666666666663</ele><time>2026-03-22T10:52:27.244Z</time></trkpt><trkpt lat="40.4573282" lon="9.178669"><ele>470.5</ele><time>2026-03-22T10:52:28.244Z</time></trkpt><trkpt lat="40.4574045" lon="9.1786485"><ele>469.3333333333333</ele><time>2026-03-22T10:52:29.244Z</time></trkpt><trkpt lat="40.4574847" lon="9.178682"><ele>468.16666666666663</ele><time>2026-03-22T10:52:30.244Z</time></trkpt><trkpt lat="40.4575696" lon="9.1787266"><ele>467.0</ele><time>2026-03-22T10:52:31.244Z</time></trkpt><trkpt lat="40.4576543" lon="9.1787351"><ele>467.0</ele><time>2026-03-22T10:52:32.244Z</time></trkpt><trkpt lat="40.4577373" lon="9.1787112"><ele>467.00000000000006</ele><time>2026-03-22T10:52:33.244Z</time></trkpt><trkpt lat="40.4577982" lon="9.1786044"><ele>467.00000000000006</ele><time>2026-03-22T10:52:34.244Z</time></trkpt><trkpt lat="40.4578461" lon="9.1785172"><ele>467.0</ele><time>2026-03-22T10:52:35.244Z</time></trkpt><trkpt lat="40.4578727" lon="9.1784192"><ele>467.0</ele><time>2026-03-22T10:52:36.244Z</time></trkpt><trkpt lat="40.4578959" lon="9.1782875"><ele>464.5</ele><time>2026-03-22T10:52:37.244Z</time></trkpt><trkpt lat="40.457889" lon="9.1781646"><ele>462.0</ele><time>2026-03-22T10:52:38.244Z</time></trkpt><trkpt lat="40.4578409" lon="9.178027"><ele>459.5</ele><time>2026-03-22T10:52:39.244Z</time></trkpt><trkpt lat="40.4577452" lon="9.1778341"><ele>457.0</ele><time>2026-03-22T10:52:40.244Z</time></trkpt><trkpt lat="40.4576775" lon="9.1776924"><ele>457.0</ele><time>2026-03-22T10:52:41.244Z</time></trkpt><trkpt lat="40.457603" lon="9.1775603"><ele>457.00000000000006</ele><time>2026-03-22T10:52:42.244Z</time></trkpt><trkpt lat="40.4575544" lon="9.1774228"><ele>457.00000000000006</ele><time>2026-03-22T10:52:43.244Z</time></trkpt><trkpt lat="40.4575414" lon="9.1772989"><ele>457.0</ele><time>2026-03-22T10:52:44.244Z</time></trkpt><trkpt lat="40.4575583" lon="9.1771905"><ele>457.0</ele><time>2026-03-22T10:52:45.244Z</time></trkpt><trkpt lat="40.4576296" lon="9.1771394"><ele>455.8</ele><time>2026-03-22T10:52:46.244Z</time></trkpt><trkpt lat="40.4577309" lon="9.1771642"><ele>454.6</ele><time>2026-03-22T10:52:47.244Z</time></trkpt><trkpt lat="40.4578281" lon="9.1771931"><ele>453.40000000000003</ele><time>2026-03-22T10:52:48.244Z</time></trkpt><trkpt lat="40.4579215" lon="9.177198"><ele>452.20000000000005</ele><time>2026-03-22T10:52:49.244Z</time></trkpt><trkpt lat="40.4580051" lon="9.1771856"><ele>451.0</ele><time>2026-03-22T10:52:50.244Z</time></trkpt><trkpt lat="40.4581045" lon="9.1772012"><ele>451.0</ele><time>2026-03-22T10:52:51.244Z</time></trkpt><trkpt lat="40.4581316" lon="9.177104"><ele>451.0</ele><time>2026-03-22T10:52:52.244Z</time></trkpt><trkpt lat="40.4581556" lon="9.1769438"><ele>451.0</ele><time>2026-03-22T10:52:54.244Z</time></trkpt><trkpt lat="40.4580487" lon="9.1768342"><ele>451.0</ele><time>2026-03-22T10:52:55.244Z</time></trkpt><trkpt lat="40.4577254" lon="9.1767931"><ele>447.0</ele><time>2026-03-22T10:52:57.244Z</time></trkpt><trkpt lat="40.4574432" lon="9.1767048"><ele>443.0</ele><time>2026-03-22T10:52:59.244Z</time></trkpt><trkpt lat="40.4572432" lon="9.1764862"><ele>443.0</ele><time>2026-03-22T10:53:01.244Z</time></trkpt><trkpt lat="40.4571662" lon="9.176343"><ele>443.0</ele><time>2026-03-22T10:53:02.244Z</time></trkpt><trkpt lat="40.4570926" lon="9.1761801"><ele>443.0</ele><time>2026-03-22T10:53:03.244Z</time></trkpt><trkpt lat="40.4569192" lon="9.175784"><ele>439.3333333333333</ele><time>2026-03-22T10:53:05.244Z</time></trkpt><trkpt lat="40.4568475" lon="9.175598"><ele>435.66666666666663</ele><time>2026-03-22T10:53:06.244Z</time></trkpt><trkpt lat="40.4567767" lon="9.175417"><ele>432.0</ele><time>2026-03-22T10:53:07.244Z</time></trkpt><trkpt lat="40.4566362" lon="9.1750808"><ele>430.0</ele><time>2026-03-22T10:53:09.244Z</time></trkpt><trkpt lat="40.4564864" lon="9.1747529"><ele>428.0</ele><time>2026-03-22T10:53:11.244Z</time></trkpt><trkpt lat="40.4564126" lon="9.1745847"><ele>426.0</ele><time>2026-03-22T10:53:12.244Z</time></trkpt><trkpt lat="40.4563426" lon="9.1744224"><ele>426.25</ele><time>2026-03-22T10:53:13.244Z</time></trkpt><trkpt lat="40.4562816" lon="9.1742793"><ele>426.5</ele><time>2026-03-22T10:53:14.244Z</time></trkpt><trkpt lat="40.4561919" lon="9.1740288"><ele>426.75</ele><time>2026-03-22T10:53:16.244Z</time></trkpt><trkpt lat="40.4561758" lon="9.1739087"><ele>427.0</ele><time>2026-03-22T10:53:17.244Z</time></trkpt><trkpt lat="40.4561926" lon="9.1737973"><ele>425.20000000000005</ele><time>2026-03-22T10:53:18.244Z</time></trkpt><trkpt lat="40.4563156" lon="9.1736683"><ele>423.40000000000003</ele><time>2026-03-22T10:53:20.244Z</time></trkpt><trkpt lat="40.4564015" lon="9.1736311"><ele>421.6</ele><time>2026-03-22T10:53:21.244Z</time></trkpt><trkpt lat="40.4564917" lon="9.1736616"><ele>419.79999999999995</ele><time>2026-03-22T10:53:22.244Z</time></trkpt><trkpt lat="40.4565791" lon="9.1736766"><ele>418.0</ele><time>2026-03-22T10:53:23.244Z</time></trkpt><trkpt lat="40.4567736" lon="9.1737197"><ele>418.0</ele><time>2026-03-22T10:53:25.244Z</time></trkpt><trkpt lat="40.45687" lon="9.1737531"><ele>418.0</ele><time>2026-03-22T10:53:26.244Z</time></trkpt><trkpt lat="40.4569825" lon="9.1737685"><ele>418.0</ele><time>2026-03-22T10:53:27.244Z</time></trkpt><trkpt lat="40.4571738" lon="9.1738055"><ele>418.0</ele><time>2026-03-22T10:53:29.244Z</time></trkpt><trkpt lat="40.4573106" lon="9.1737553"><ele>417.2</ele><time>2026-03-22T10:53:31.244Z</time></trkpt><trkpt lat="40.4573551" lon="9.1736293"><ele>416.4</ele><time>2026-03-22T10:53:32.244Z</time></trkpt><trkpt lat="40.457374" lon="9.1735242"><ele>415.59999999999997</ele><time>2026-03-22T10:53:33.244Z</time></trkpt><trkpt lat="40.4573756" lon="9.1734324"><ele>414.79999999999995</ele><time>2026-03-22T10:53:34.244Z</time></trkpt><trkpt lat="40.4573144" lon="9.1732451"><ele>414.0</ele><time>2026-03-22T10:53:36.244Z</time></trkpt><trkpt lat="40.4572167" lon="9.1730691"><ele>413.6</ele><time>2026-03-22T10:53:38.244Z</time></trkpt><trkpt lat="40.4571715" lon="9.1729581"><ele>413.2</ele><time>2026-03-22T10:53:39.244Z</time></trkpt><trkpt lat="40.4571274" lon="9.1728569"><ele>412.8</ele><time>2026-03-22T10:53:40.244Z</time></trkpt><trkpt lat="40.4570791" lon="9.1727581"><ele>412.40000000000003</ele><time>2026-03-22T10:53:41.244Z</time></trkpt><trkpt lat="40.4570109" lon="9.1726691"><ele>412.0</ele><time>2026-03-22T10:53:42.244Z</time></trkpt><trkpt lat="40.4568903" lon="9.1724776"><ele>412.0</ele><time>2026-03-22T10:53:44.244Z</time></trkpt><trkpt lat="40.4568408" lon="9.1723867"><ele>412.0</ele><time>2026-03-22T10:53:45.244Z</time></trkpt><trkpt lat="40.4567772" lon="9.1723136"><ele>412.0</ele><time>2026-03-22T10:53:46.244Z</time></trkpt><trkpt lat="40.4566172" lon="9.1722123"><ele>412.0</ele><time>2026-03-22T10:53:48.244Z</time></trkpt><trkpt lat="40.4565108" lon="9.1721227"><ele>410.0</ele><time>2026-03-22T10:53:50.244Z</time></trkpt><trkpt lat="40.4565258" lon="9.17198"><ele>408.0</ele><time>2026-03-22T10:53:52.244Z</time></trkpt><trkpt lat="40.456574" lon="9.1719104"><ele>406.0</ele><time>2026-03-22T10:53:53.244Z</time></trkpt><trkpt lat="40.4566208" lon="9.171829"><ele>404.0</ele><time>2026-03-22T10:53:54.244Z</time></trkpt><trkpt lat="40.4567013" lon="9.1715688"><ele>402.75</ele><time>2026-03-22T10:53:57.244Z</time></trkpt><trkpt lat="40.4567127" lon="9.1713696"><ele>401.5</ele><time>2026-03-22T10:53:59.244Z</time></trkpt><trkpt lat="40.4566773" lon="9.1712675"><ele>400.25</ele><time>2026-03-22T10:54:00.244Z</time></trkpt><trkpt lat="40.4567112" lon="9.1711204"><ele>399.0</ele><time>2026-03-22T10:54:02.244Z</time></trkpt><trkpt lat="40.4567909" lon="9.1708471"><ele>399.0</ele><time>2026-03-22T10:54:05.244Z</time></trkpt><trkpt lat="40.4568458" lon="9.1707709"><ele>399.0</ele><time>2026-03-22T10:54:06.244Z</time></trkpt><trkpt lat="40.4569465" lon="9.1706069"><ele>399.0</ele><time>2026-03-22T10:54:08.244Z</time></trkpt><trkpt lat="40.4570582" lon="9.1704817"><ele>399.0</ele><time>2026-03-22T10:54:10.244Z</time></trkpt><trkpt lat="40.4571081" lon="9.1704194"><ele>397.75</ele><time>2026-03-22T10:54:11.244Z</time></trkpt><trkpt lat="40.4572186" lon="9.170258"><ele>396.5</ele><time>2026-03-22T10:54:14.244Z</time></trkpt><trkpt lat="40.4572854" lon="9.170187"><ele>395.25</ele><time>2026-03-22T10:54:16.244Z</time></trkpt><trkpt lat="40.4573592" lon="9.170069"><ele>394.0</ele><time>2026-03-22T10:54:18.244Z</time></trkpt><trkpt lat="40.4574895" lon="9.1699085"><ele>393.5</ele><time>2026-03-22T10:54:21.244Z</time></trkpt><trkpt lat="40.4575295" lon="9.1698146"><ele>393.0</ele><time>2026-03-22T10:54:22.244Z</time></trkpt><trkpt lat="40.4575801" lon="9.1696553"><ele>392.5</ele><time>2026-03-22T10:54:24.244Z</time></trkpt><trkpt lat="40.4576234" lon="9.1694071"><ele>392.0</ele><time>2026-03-22T10:54:26.244Z</time></trkpt><trkpt lat="40.4576688" lon="9.1691134"><ele>391.0</ele><time>2026-03-22T10:54:28.244Z</time></trkpt><trkpt lat="40.4576973" lon="9.1689688"><ele>390.0</ele><time>2026-03-22T10:54:29.244Z</time></trkpt><trkpt lat="40.4577577" lon="9.1687172"><ele>389.0</ele><time>2026-03-22T10:54:31.244Z</time></trkpt><trkpt lat="40.4578024" lon="9.1684899"><ele>389.0</ele><time>2026-03-22T10:54:33.244Z</time></trkpt><trkpt lat="40.4578405" lon="9.1683159"><ele>389.0</ele><time>2026-03-22T10:54:35.244Z</time></trkpt><trkpt lat="40.4578769" lon="9.1681879"><ele>389.0</ele><time>2026-03-22T10:54:37.244Z</time></trkpt><trkpt lat="40.4578365" lon="9.1681167"><ele>389.0</ele><time>2026-03-22T10:56:17.265Z</time></trkpt><trkpt lat="40.4578113" lon="9.168323"><ele>389.0</ele><time>2026-03-22T10:56:23.256Z</time></trkpt><trkpt lat="40.4577723" lon="9.1684928"><ele>389.0</ele><time>2026-03-22T10:56:25.258Z</time></trkpt><trkpt lat="40.4577519" lon="9.1686016"><ele>389.0</ele><time>2026-03-22T10:56:26.246Z</time></trkpt><trkpt lat="40.4577279" lon="9.1687154"><ele>389.0</ele><time>2026-03-22T10:56:27.246Z</time></trkpt><trkpt lat="40.4577059" lon="9.1688377"><ele>389.0</ele><time>2026-03-22T10:56:28.243Z</time></trkpt><trkpt lat="40.4576896" lon="9.1689531"><ele>389.49999999999994</ele><time>2026-03-22T10:56:29.244Z</time></trkpt><trkpt lat="40.4576669" lon="9.1690521"><ele>390.0</ele><time>2026-03-22T10:56:30.245Z</time></trkpt><trkpt lat="40.4576548" lon="9.1691431"><ele>390.5</ele><time>2026-03-22T10:56:31.244Z</time></trkpt><trkpt lat="40.4576395" lon="9.1692244"><ele>391.0</ele><time>2026-03-22T10:56:32.245Z</time></trkpt><trkpt lat="40.4575982" lon="9.1693406"><ele>391.49999999999994</ele><time>2026-03-22T10:56:34.272Z</time></trkpt><trkpt lat="40.4575344" lon="9.1693909"><ele>392.0</ele><time>2026-03-22T10:56:36.242Z</time></trkpt><trkpt lat="40.4574471" lon="9.1694025"><ele>392.0</ele><time>2026-03-22T10:56:38.253Z</time></trkpt><trkpt lat="40.4573578" lon="9.169364"><ele>392.0</ele><time>2026-03-22T10:56:40.259Z</time></trkpt><trkpt lat="40.4572303" lon="9.1692113"><ele>392.0</ele><time>2026-03-22T10:56:43.27Z</time></trkpt><trkpt lat="40.4571476" lon="9.1690117"><ele>392.0</ele><time>2026-03-22T10:56:45.26Z</time></trkpt><trkpt lat="40.4570504" lon="9.1688205"><ele>393.20000000000005</ele><time>2026-03-22T10:56:47.255Z</time></trkpt><trkpt lat="40.4569854" lon="9.1686538"><ele>394.4</ele><time>2026-03-22T10:56:49.254Z</time></trkpt><trkpt lat="40.4568721" lon="9.1685273"><ele>395.6</ele><time>2026-03-22T10:56:51.251Z</time></trkpt><trkpt lat="40.4568078" lon="9.1684774"><ele>396.79999999999995</ele><time>2026-03-22T10:56:52.243Z</time></trkpt><trkpt lat="40.4567333" lon="9.1684281"><ele>398.0</ele><time>2026-03-22T10:56:53.243Z</time></trkpt><trkpt lat="40.4566324" lon="9.1684233"><ele>397.99999999999994</ele><time>2026-03-22T10:56:54.241Z</time></trkpt><trkpt lat="40.4565426" lon="9.1684019"><ele>398.0</ele><time>2026-03-22T10:56:55.242Z</time></trkpt><trkpt lat="40.4564562" lon="9.168397"><ele>398.0</ele><time>2026-03-22T10:56:56.244Z</time></trkpt><trkpt lat="40.4563683" lon="9.1683976"><ele>398.0</ele><time>2026-03-22T10:56:57.245Z</time></trkpt><trkpt lat="40.4562931" lon="9.168365"><ele>397.99999999999994</ele><time>2026-03-22T10:56:58.243Z</time></trkpt><trkpt lat="40.4562239" lon="9.1683952"><ele>398.0</ele><time>2026-03-22T10:56:59.244Z</time></trkpt><trkpt lat="40.4561185" lon="9.1683907"><ele>398.59999999999997</ele><time>2026-03-22T10:57:01.245Z</time></trkpt><trkpt lat="40.4560243" lon="9.1683621"><ele>399.2</ele><time>2026-03-22T10:58:08.245Z</time></trkpt><trkpt lat="40.4559204" lon="9.1683241"><ele>399.8</ele><time>2026-03-22T10:58:10.258Z</time></trkpt><trkpt lat="40.4558414" lon="9.1683141"><ele>400.4</ele><time>2026-03-22T10:58:13.241Z</time></trkpt><trkpt lat="40.4557359" lon="9.1683369"><ele>401.0</ele><time>2026-03-22T10:58:19.242Z</time></trkpt><trkpt lat="40.4556689" lon="9.1683354"><ele>401.0</ele><time>2026-03-22T10:58:20.249Z</time></trkpt><trkpt lat="40.4555944" lon="9.1683229"><ele>401.0</ele><time>2026-03-22T10:58:21.243Z</time></trkpt><trkpt lat="40.4555099" lon="9.1682973"><ele>401.0</ele><time>2026-03-22T10:58:22.264Z</time></trkpt><trkpt lat="40.4552844" lon="9.1682385"><ele>401.0</ele><time>2026-03-22T10:58:24.256Z</time></trkpt><trkpt lat="40.4551782" lon="9.1682157"><ele>400.0</ele><time>2026-03-22T10:58:25.245Z</time></trkpt><trkpt lat="40.4550856" lon="9.1681965"><ele>399.0</ele><time>2026-03-22T10:58:26.256Z</time></trkpt><trkpt lat="40.4548727" lon="9.1681578"><ele>398.0</ele><time>2026-03-22T10:58:28.26Z</time></trkpt><trkpt lat="40.454663" lon="9.1681051"><ele>395.5</ele><time>2026-03-22T10:58:30.264Z</time></trkpt><trkpt lat="40.4544455" lon="9.1680127"><ele>393.0</ele><time>2026-03-22T10:58:32.243Z</time></trkpt><trkpt lat="40.4541638" lon="9.1677213"><ele>393.0</ele><time>2026-03-22T10:58:35.252Z</time></trkpt><trkpt lat="40.4540237" lon="9.1674644"><ele>393.0</ele><time>2026-03-22T10:58:37.261Z</time></trkpt><trkpt lat="40.4539191" lon="9.1671865"><ele>391.5</ele><time>2026-03-22T10:58:39.261Z</time></trkpt><trkpt lat="40.453886" lon="9.1668837"><ele>390.0</ele><time>2026-03-22T10:58:41.254Z</time></trkpt><trkpt lat="40.4539138" lon="9.1665875"><ele>390.25</ele><time>2026-03-22T10:58:43.255Z</time></trkpt><trkpt lat="40.4539243" lon="9.1664401"><ele>390.5</ele><time>2026-03-22T10:58:44.261Z</time></trkpt><trkpt lat="40.4539359" lon="9.1662771"><ele>390.75</ele><time>2026-03-22T10:58:45.244Z</time></trkpt><trkpt lat="40.4539373" lon="9.1660963"><ele>391.0</ele><time>2026-03-22T10:58:46.252Z</time></trkpt><trkpt lat="40.4539346" lon="9.1657516"><ele>392.0</ele><time>2026-03-22T10:58:48.258Z</time></trkpt><trkpt lat="40.453875" lon="9.1654151"><ele>393.0</ele><time>2026-03-22T10:58:50.264Z</time></trkpt><trkpt lat="40.4537517" lon="9.1650765"><ele>390.5</ele><time>2026-03-22T10:58:52.268Z</time></trkpt><trkpt lat="40.4535635" lon="9.1647145"><ele>388.0</ele><time>2026-03-22T10:58:54.244Z</time></trkpt><trkpt lat="40.453464" lon="9.164523"><ele>388.0</ele><time>2026-03-22T10:58:55.248Z</time></trkpt><trkpt lat="40.4533613" lon="9.164321"><ele>388.0</ele><time>2026-03-22T10:58:56.242Z</time></trkpt><trkpt lat="40.453157" lon="9.1639105"><ele>387.5</ele><time>2026-03-22T10:58:58.258Z</time></trkpt><trkpt lat="40.4529633" lon="9.1635047"><ele>387.0</ele><time>2026-03-22T10:59:00.27Z</time></trkpt><trkpt lat="40.4527841" lon="9.1631358"><ele>385.6666666666667</ele><time>2026-03-22T10:59:02.273Z</time></trkpt><trkpt lat="40.452696" lon="9.1629668"><ele>384.33333333333337</ele><time>2026-03-22T10:59:03.262Z</time></trkpt><trkpt lat="40.452612" lon="9.1628081"><ele>383.0</ele><time>2026-03-22T10:59:04.263Z</time></trkpt><trkpt lat="40.4524932" lon="9.1624963"><ele>381.0</ele><time>2026-03-22T10:59:06.26Z</time></trkpt><trkpt lat="40.4524442" lon="9.16213"><ele>379.0</ele><time>2026-03-22T10:59:08.269Z</time></trkpt><trkpt lat="40.4524109" lon="9.1617576"><ele>378.0</ele><time>2026-03-22T10:59:10.254Z</time></trkpt><trkpt lat="40.4524002" lon="9.1614305"><ele>377.0</ele><time>2026-03-22T10:59:12.274Z</time></trkpt><trkpt lat="40.4523895" lon="9.1611849"><ele>376.0</ele><time>2026-03-22T10:59:14.27Z</time></trkpt><trkpt lat="40.4524187" lon="9.1609789"><ele>376.0</ele><time>2026-03-22T10:59:16.253Z</time></trkpt><trkpt lat="40.4524142" lon="9.1608159"><ele>376.0</ele><time>2026-03-22T10:59:18.266Z</time></trkpt><trkpt lat="40.4522969" lon="9.1607301"><ele>376.0</ele><time>2026-03-22T10:59:20.26Z</time></trkpt><trkpt lat="40.4520954" lon="9.1606721"><ele>373.0</ele><time>2026-03-22T10:59:22.275Z</time></trkpt><trkpt lat="40.451846" lon="9.1605167"><ele>370.0</ele><time>2026-03-22T10:59:24.256Z</time></trkpt><trkpt lat="40.4517125" lon="9.1604419"><ele>367.0</ele><time>2026-03-22T10:59:25.261Z</time></trkpt><trkpt lat="40.4514738" lon="9.1602904"><ele>365.3333333333333</ele><time>2026-03-22T10:59:27.264Z</time></trkpt><trkpt lat="40.4512725" lon="9.1601064"><ele>363.6666666666667</ele><time>2026-03-22T10:59:29.246Z</time></trkpt><trkpt lat="40.4512032" lon="9.1599813"><ele>362.0</ele><time>2026-03-22T10:59:30.242Z</time></trkpt><trkpt lat="40.451154" lon="9.159844"><ele>361.0</ele><time>2026-03-22T10:59:31.24Z</time></trkpt><trkpt lat="40.4511287" lon="9.1596977"><ele>360.0</ele><time>2026-03-22T10:59:32.24Z</time></trkpt><trkpt lat="40.4511252" lon="9.1595247"><ele>359.0</ele><time>2026-03-22T10:59:33.254Z</time></trkpt><trkpt lat="40.4511488" lon="9.1591282"><ele>357.5</ele><time>2026-03-22T10:59:35.245Z</time></trkpt><trkpt lat="40.4511859" lon="9.1586758"><ele>356.0</ele><time>2026-03-22T10:59:37.249Z</time></trkpt><trkpt lat="40.4512233" lon="9.1582281"><ele>355.0</ele><time>2026-03-22T10:59:39.25Z</time></trkpt><trkpt lat="40.451238" lon="9.158017"><ele>354.0</ele><time>2026-03-22T10:59:40.244Z</time></trkpt><trkpt lat="40.4512575" lon="9.157817"><ele>353.0</ele><time>2026-03-22T10:59:41.246Z</time></trkpt><trkpt lat="40.4512774" lon="9.1576246"><ele>353.5</ele><time>2026-03-22T10:59:42.241Z</time></trkpt><trkpt lat="40.4512909" lon="9.1574314"><ele>354.0</ele><time>2026-03-22T10:59:43.256Z</time></trkpt><trkpt lat="40.4512997" lon="9.1572548"><ele>354.5</ele><time>2026-03-22T10:59:44.263Z</time></trkpt><trkpt lat="40.4512914" lon="9.1570914"><ele>355.0</ele><time>2026-03-22T10:59:45.259Z</time></trkpt><trkpt lat="40.4511941" lon="9.156758"><ele>351.5</ele><time>2026-03-22T10:59:47.272Z</time></trkpt><trkpt lat="40.4510244" lon="9.1564034"><ele>348.0</ele><time>2026-03-22T10:59:49.264Z</time></trkpt><trkpt lat="40.450835" lon="9.156036"><ele>348.0</ele><time>2026-03-22T10:59:51.259Z</time></trkpt><trkpt lat="40.4507532" lon="9.1558699"><ele>348.0</ele><time>2026-03-22T10:59:52.258Z</time></trkpt><trkpt lat="40.4506029" lon="9.1555802"><ele>348.0</ele><time>2026-03-22T10:59:54.275Z</time></trkpt><trkpt lat="40.4504332" lon="9.1553598"><ele>347.25</ele><time>2026-03-22T10:59:56.256Z</time></trkpt><trkpt lat="40.45033" lon="9.1553021"><ele>346.5</ele><time>2026-03-22T10:59:57.246Z</time></trkpt><trkpt lat="40.4502181" lon="9.155254"><ele>345.75</ele><time>2026-03-22T10:59:58.269Z</time></trkpt><trkpt lat="40.4500842" lon="9.1552857"><ele>345.0</ele><time>2026-03-22T10:59:59.259Z</time></trkpt><trkpt lat="40.4498364" lon="9.1553993"><ele>344.0</ele><time>2026-03-22T11:00:01.266Z</time></trkpt><trkpt lat="40.4495918" lon="9.1555998"><ele>343.0</ele><time>2026-03-22T11:00:03.243Z</time></trkpt><trkpt lat="40.4494228" lon="9.1557356"><ele>343.0</ele><time>2026-03-22T11:00:04.243Z</time></trkpt><trkpt lat="40.4492899" lon="9.1558203"><ele>343.0</ele><time>2026-03-22T11:00:05.259Z</time></trkpt><trkpt lat="40.4489391" lon="9.1560772"><ele>341.0</ele><time>2026-03-22T11:00:07.258Z</time></trkpt><trkpt lat="40.4487801" lon="9.1562003"><ele>339.0</ele><time>2026-03-22T11:00:08.246Z</time></trkpt><trkpt lat="40.4486264" lon="9.1563146"><ele>337.0</ele><time>2026-03-22T11:00:09.244Z</time></trkpt><trkpt lat="40.448468" lon="9.1564504"><ele>338.0</ele><time>2026-03-22T11:00:10.263Z</time></trkpt><trkpt lat="40.4483097" lon="9.1565659"><ele>339.0</ele><time>2026-03-22T11:00:11.264Z</time></trkpt><trkpt lat="40.4480072" lon="9.1568001"><ele>336.5</ele><time>2026-03-22T11:00:13.258Z</time></trkpt><trkpt lat="40.4477082" lon="9.1570293"><ele>334.0</ele><time>2026-03-22T11:00:15.255Z</time></trkpt><trkpt lat="40.4474136" lon="9.1573025"><ele>332.0</ele><time>2026-03-22T11:00:17.252Z</time></trkpt><trkpt lat="40.4471155" lon="9.1575005"><ele>330.0</ele><time>2026-03-22T11:00:19.261Z</time></trkpt><trkpt lat="40.4468085" lon="9.1577528"><ele>330.0</ele><time>2026-03-22T11:00:21.261Z</time></trkpt><trkpt lat="40.4465055" lon="9.1579793"><ele>330.0</ele><time>2026-03-22T11:00:23.262Z</time></trkpt><trkpt lat="40.4462115" lon="9.1581981"><ele>327.5</ele><time>2026-03-22T11:00:25.26Z</time></trkpt><trkpt lat="40.4459339" lon="9.1584343"><ele>325.0</ele><time>2026-03-22T11:00:27.258Z</time></trkpt><trkpt lat="40.4456526" lon="9.1585918"><ele>325.0</ele><time>2026-03-22T11:00:29.26Z</time></trkpt><trkpt lat="40.4454923" lon="9.158603"><ele>325.0</ele><time>2026-03-22T11:00:30.251Z</time></trkpt><trkpt lat="40.4451584" lon="9.1585759"><ele>323.5</ele><time>2026-03-22T11:00:32.261Z</time></trkpt><trkpt lat="40.4447811" lon="9.1585282"><ele>322.0</ele><time>2026-03-22T11:00:34.274Z</time></trkpt><trkpt lat="40.4444121" lon="9.1584739"><ele>320.3333333333333</ele><time>2026-03-22T11:00:36.241Z</time></trkpt><trkpt lat="40.4442366" lon="9.1584471"><ele>318.6666666666667</ele><time>2026-03-22T11:00:37.241Z</time></trkpt><trkpt lat="40.4440679" lon="9.1584214"><ele>317.0</ele><time>2026-03-22T11:00:38.241Z</time></trkpt><trkpt lat="40.4439024" lon="9.1583742"><ele>316.5</ele><time>2026-03-22T11:00:39.243Z</time></trkpt><trkpt lat="40.4437489" lon="9.1583665"><ele>316.0</ele><time>2026-03-22T11:00:40.243Z</time></trkpt><trkpt lat="40.4436027" lon="9.1583417"><ele>315.5</ele><time>2026-03-22T11:00:41.244Z</time></trkpt><trkpt lat="40.4434656" lon="9.1582788"><ele>315.0</ele><time>2026-03-22T11:00:42.242Z</time></trkpt><trkpt lat="40.443331" lon="9.1583555"><ele>315.0</ele><time>2026-03-22T11:00:43.242Z</time></trkpt><trkpt lat="40.4432072" lon="9.1583884"><ele>315.0</ele><time>2026-03-22T11:00:44.245Z</time></trkpt><trkpt lat="40.443088" lon="9.158499"><ele>315.0</ele><time>2026-03-22T11:00:45.244Z</time></trkpt><trkpt lat="40.4429831" lon="9.1586394"><ele>315.0</ele><time>2026-03-22T11:00:46.242Z</time></trkpt><trkpt lat="40.4428732" lon="9.1587715"><ele>314.0</ele><time>2026-03-22T11:00:47.244Z</time></trkpt><trkpt lat="40.4427533" lon="9.158891"><ele>313.0</ele><time>2026-03-22T11:00:48.245Z</time></trkpt><trkpt lat="40.4426376" lon="9.1590068"><ele>312.0</ele><time>2026-03-22T11:00:49.246Z</time></trkpt><trkpt lat="40.44253" lon="9.1591092"><ele>311.0</ele><time>2026-03-22T11:00:50.245Z</time></trkpt><trkpt lat="40.4424236" lon="9.1592192"><ele>310.0</ele><time>2026-03-22T11:00:51.245Z</time></trkpt><trkpt lat="40.4423139" lon="9.1593309"><ele>309.0</ele><time>2026-03-22T11:00:52.246Z</time></trkpt><trkpt lat="40.4421994" lon="9.1594781"><ele>308.0</ele><time>2026-03-22T11:00:53.245Z</time></trkpt><trkpt lat="40.4420797" lon="9.1596057"><ele>308.0</ele><time>2026-03-22T11:00:54.244Z</time></trkpt><trkpt lat="40.4419508" lon="9.1597277"><ele>308.0</ele><time>2026-03-22T11:00:55.246Z</time></trkpt><trkpt lat="40.4418189" lon="9.1598807"><ele>308.0</ele><time>2026-03-22T11:00:56.246Z</time></trkpt><trkpt lat="40.4416896" lon="9.1600342"><ele>307.33333333333337</ele><time>2026-03-22T11:00:57.246Z</time></trkpt><trkpt lat="40.441551" lon="9.1601783"><ele>306.6666666666667</ele><time>2026-03-22T11:00:58.244Z</time></trkpt><trkpt lat="40.441411" lon="9.160335"><ele>306.0</ele><time>2026-03-22T11:00:59.247Z</time></trkpt><trkpt lat="40.4412737" lon="9.1604945"><ele>306.0</ele><time>2026-03-22T11:01:00.247Z</time></trkpt><trkpt lat="40.4411281" lon="9.1606588"><ele>306.0</ele><time>2026-03-22T11:01:01.245Z</time></trkpt><trkpt lat="40.440983" lon="9.1608193"><ele>306.0</ele><time>2026-03-22T11:01:02.247Z</time></trkpt><trkpt lat="40.4408347" lon="9.1609818"><ele>305.0</ele><time>2026-03-22T11:01:03.246Z</time></trkpt><trkpt lat="40.4406869" lon="9.16114"><ele>304.0</ele><time>2026-03-22T11:01:04.247Z</time></trkpt><trkpt lat="40.44054" lon="9.1612989"><ele>303.0</ele><time>2026-03-22T11:01:05.247Z</time></trkpt><trkpt lat="40.4403931" lon="9.1614605"><ele>302.0</ele><time>2026-03-22T11:01:06.243Z</time></trkpt><trkpt lat="40.4401101" lon="9.1617684"><ele>301.0</ele><time>2026-03-22T11:01:08.258Z</time></trkpt><trkpt lat="40.4398285" lon="9.1620677"><ele>301.0</ele><time>2026-03-22T11:01:10.245Z</time></trkpt><trkpt lat="40.439696" lon="9.162208"><ele>301.0</ele><time>2026-03-22T11:01:11.243Z</time></trkpt><trkpt lat="40.4395734" lon="9.1623392"><ele>301.0</ele><time>2026-03-22T11:01:12.244Z</time></trkpt><trkpt lat="40.4394528" lon="9.1624857"><ele>299.0</ele><time>2026-03-22T11:01:13.242Z</time></trkpt><trkpt lat="40.439337" lon="9.1625908"><ele>297.0</ele><time>2026-03-22T11:01:14.257Z</time></trkpt><trkpt lat="40.4390527" lon="9.1627493"><ele>297.0</ele><time>2026-03-22T11:01:16.268Z</time></trkpt><trkpt lat="40.4389005" lon="9.1627892"><ele>297.0</ele><time>2026-03-22T11:01:17.269Z</time></trkpt><trkpt lat="40.4385534" lon="9.1628409"><ele>294.5</ele><time>2026-03-22T11:01:19.247Z</time></trkpt><trkpt lat="40.4381732" lon="9.1628553"><ele>292.0</ele><time>2026-03-22T11:01:21.261Z</time></trkpt><trkpt lat="40.4379733" lon="9.1628604"><ele>290.3333333333333</ele><time>2026-03-22T11:01:22.273Z</time></trkpt><trkpt lat="40.4377653" lon="9.1628676"><ele>288.6666666666667</ele><time>2026-03-22T11:01:23.253Z</time></trkpt><trkpt lat="40.4375565" lon="9.1628771"><ele>287.0</ele><time>2026-03-22T11:01:24.274Z</time></trkpt><trkpt lat="40.4373416" lon="9.162882"><ele>286.0</ele><time>2026-03-22T11:01:25.253Z</time></trkpt><trkpt lat="40.4371303" lon="9.1628913"><ele>285.0</ele><time>2026-03-22T11:01:26.257Z</time></trkpt><trkpt lat="40.4367324" lon="9.1629116"><ele>285.0</ele><time>2026-03-22T11:01:28.244Z</time></trkpt><trkpt lat="40.4365497" lon="9.1629159"><ele>285.0</ele><time>2026-03-22T11:01:29.267Z</time></trkpt><trkpt lat="40.4361889" lon="9.1629333"><ele>283.6666666666667</ele><time>2026-03-22T11:01:31.268Z</time></trkpt><trkpt lat="40.436016" lon="9.1629441"><ele>282.33333333333337</ele><time>2026-03-22T11:01:32.242Z</time></trkpt><trkpt lat="40.4358517" lon="9.1629535"><ele>281.0</ele><time>2026-03-22T11:01:33.243Z</time></trkpt><trkpt lat="40.4355349" lon="9.1629507"><ele>280.25</ele><time>2026-03-22T11:01:35.274Z</time></trkpt><trkpt lat="40.4353864" lon="9.162917"><ele>279.5</ele><time>2026-03-22T11:01:36.244Z</time></trkpt><trkpt lat="40.4352493" lon="9.1628488"><ele>278.75</ele><time>2026-03-22T11:01:37.277Z</time></trkpt><trkpt lat="40.4351281" lon="9.1627428"><ele>278.0</ele><time>2026-03-22T11:01:38.262Z</time></trkpt><trkpt lat="40.4350162" lon="9.1626125"><ele>278.0</ele><time>2026-03-22T11:01:39.269Z</time></trkpt><trkpt lat="40.4348243" lon="9.1622819"><ele>278.0</ele><time>2026-03-22T11:01:41.256Z</time></trkpt><trkpt lat="40.4346467" lon="9.1619623"><ele>278.0</ele><time>2026-03-22T11:01:43.263Z</time></trkpt><trkpt lat="40.4345602" lon="9.16181"><ele>278.0</ele><time>2026-03-22T11:01:44.246Z</time></trkpt><trkpt lat="40.4344772" lon="9.1616797"><ele>278.0</ele><time>2026-03-22T11:01:45.244Z</time></trkpt><trkpt lat="40.434391" lon="9.1615607"><ele>278.0</ele><time>2026-03-22T11:01:46.252Z</time></trkpt><trkpt lat="40.434297" lon="9.1614316"><ele>278.0</ele><time>2026-03-22T11:01:47.261Z</time></trkpt><trkpt lat="40.4342269" lon="9.1613628"><ele>278.0</ele><time>2026-03-22T11:01:48.256Z</time></trkpt><trkpt lat="40.4339809" lon="9.1612733"><ele>278.0</ele><time>2026-03-22T11:01:50.255Z</time></trkpt><trkpt lat="40.4338378" lon="9.1612579"><ele>277.5</ele><time>2026-03-22T11:01:51.249Z</time></trkpt><trkpt lat="40.4335253" lon="9.1611884"><ele>277.0</ele><time>2026-03-22T11:01:53.263Z</time></trkpt><trkpt lat="40.4333556" lon="9.1611575"><ele>277.0</ele><time>2026-03-22T11:01:54.244Z</time></trkpt><trkpt lat="40.4331883" lon="9.1611269"><ele>277.0</ele><time>2026-03-22T11:01:55.244Z</time></trkpt><trkpt lat="40.4330016" lon="9.1611099"><ele>277.0</ele><time>2026-03-22T11:01:56.245Z</time></trkpt><trkpt lat="40.4328109" lon="9.1610905"><ele>277.66666666666663</ele><time>2026-03-22T11:01:57.245Z</time></trkpt><trkpt lat="40.4326229" lon="9.1610598"><ele>278.3333333333333</ele><time>2026-03-22T11:01:58.245Z</time></trkpt><trkpt lat="40.4324255" lon="9.1610359"><ele>279.0</ele><time>2026-03-22T11:01:59.244Z</time></trkpt><trkpt lat="40.4322261" lon="9.1610125"><ele>280.0</ele><time>2026-03-22T11:02:00.246Z</time></trkpt><trkpt lat="40.4320253" lon="9.1609913"><ele>281.0</ele><time>2026-03-22T11:02:01.243Z</time></trkpt><trkpt lat="40.4318239" lon="9.1609692"><ele>282.0</ele><time>2026-03-22T11:02:02.247Z</time></trkpt><trkpt lat="40.4316203" lon="9.1609453"><ele>282.0</ele><time>2026-03-22T11:02:03.245Z</time></trkpt><trkpt lat="40.431416" lon="9.1609216"><ele>282.0</ele><time>2026-03-22T11:02:04.247Z</time></trkpt><trkpt lat="40.4312112" lon="9.1609006"><ele>282.0</ele><time>2026-03-22T11:02:05.244Z</time></trkpt><trkpt lat="40.4310084" lon="9.1608759"><ele>281.6666666666667</ele><time>2026-03-22T11:02:06.245Z</time></trkpt><trkpt lat="40.430804" lon="9.1608544"><ele>281.33333333333337</ele><time>2026-03-22T11:02:07.244Z</time></trkpt><trkpt lat="40.4305992" lon="9.1608271"><ele>281.0</ele><time>2026-03-22T11:02:08.244Z</time></trkpt><trkpt lat="40.4304018" lon="9.1608025"><ele>281.0</ele><time>2026-03-22T11:02:09.247Z</time></trkpt><trkpt lat="40.4302075" lon="9.1607801"><ele>281.0</ele><time>2026-03-22T11:02:10.246Z</time></trkpt><trkpt lat="40.4300131" lon="9.1607601"><ele>281.0</ele><time>2026-03-22T11:02:11.244Z</time></trkpt><trkpt lat="40.4298144" lon="9.1607395"><ele>282.33333333333337</ele><time>2026-03-22T11:02:12.246Z</time></trkpt><trkpt lat="40.4296209" lon="9.1607098"><ele>283.6666666666667</ele><time>2026-03-22T11:02:13.244Z</time></trkpt><trkpt lat="40.4294344" lon="9.1606842"><ele>285.0</ele><time>2026-03-22T11:02:14.246Z</time></trkpt><trkpt lat="40.4292664" lon="9.1606576"><ele>285.0</ele><time>2026-03-22T11:02:15.249Z</time></trkpt><trkpt lat="40.4290962" lon="9.1606393"><ele>285.0</ele><time>2026-03-22T11:02:16.247Z</time></trkpt><trkpt lat="40.4289392" lon="9.1606208"><ele>285.0</ele><time>2026-03-22T11:02:17.244Z</time></trkpt><trkpt lat="40.4287855" lon="9.1606203"><ele>285.0</ele><time>2026-03-22T11:02:18.244Z</time></trkpt><trkpt lat="40.428632" lon="9.1606417"><ele>285.0</ele><time>2026-03-22T11:02:19.242Z</time></trkpt><trkpt lat="40.4284864" lon="9.1606913"><ele>285.0</ele><time>2026-03-22T11:02:20.246Z</time></trkpt><trkpt lat="40.4283179" lon="9.1607481"><ele>285.0</ele><time>2026-03-22T11:02:21.244Z</time></trkpt><trkpt lat="40.4281481" lon="9.1608184"><ele>285.0</ele><time>2026-03-22T11:02:22.244Z</time></trkpt><trkpt lat="40.4279742" lon="9.1608974"><ele>285.0</ele><time>2026-03-22T11:02:23.245Z</time></trkpt><trkpt lat="40.4277996" lon="9.1609745"><ele>283.6666666666667</ele><time>2026-03-22T11:02:24.245Z</time></trkpt><trkpt lat="40.4276192" lon="9.1610573"><ele>282.33333333333337</ele><time>2026-03-22T11:02:25.251Z</time></trkpt><trkpt lat="40.4274296" lon="9.1611457"><ele>281.0</ele><time>2026-03-22T11:02:26.259Z</time></trkpt><trkpt lat="40.4272405" lon="9.1612337"><ele>281.5</ele><time>2026-03-22T11:02:27.263Z</time></trkpt><trkpt lat="40.4268464" lon="9.1614269"><ele>282.0</ele><time>2026-03-22T11:02:29.263Z</time></trkpt><trkpt lat="40.4264452" lon="9.1616186"><ele>283.5</ele><time>2026-03-22T11:02:31.263Z</time></trkpt><trkpt lat="40.4260374" lon="9.1618103"><ele>285.0</ele><time>2026-03-22T11:02:33.253Z</time></trkpt><trkpt lat="40.4256295" lon="9.1620008"><ele>287.0</ele><time>2026-03-22T11:02:35.253Z</time></trkpt><trkpt lat="40.4254294" lon="9.1621047"><ele>289.0</ele><time>2026-03-22T11:02:36.27Z</time></trkpt><trkpt lat="40.4250299" lon="9.1622942"><ele>290.5</ele><time>2026-03-22T11:02:38.264Z</time></trkpt><trkpt lat="40.4246395" lon="9.1624826"><ele>292.0</ele><time>2026-03-22T11:02:40.262Z</time></trkpt><trkpt lat="40.4244434" lon="9.1625734"><ele>292.0</ele><time>2026-03-22T11:02:41.245Z</time></trkpt><trkpt lat="40.4240736" lon="9.1627562"><ele>292.0</ele><time>2026-03-22T11:02:43.259Z</time></trkpt><trkpt lat="40.4237358" lon="9.1629054"><ele>293.5</ele><time>2026-03-22T11:02:45.266Z</time></trkpt><trkpt lat="40.4234226" lon="9.1630242"><ele>295.0</ele><time>2026-03-22T11:02:47.27Z</time></trkpt><trkpt lat="40.4230842" lon="9.1630639"><ele>294.5</ele><time>2026-03-22T11:02:49.244Z</time></trkpt><trkpt lat="40.4227309" lon="9.1630802"><ele>294.0</ele><time>2026-03-22T11:02:51.275Z</time></trkpt><trkpt lat="40.4225518" lon="9.1630808"><ele>294.0</ele><time>2026-03-22T11:02:52.245Z</time></trkpt><trkpt lat="40.4223763" lon="9.1630784"><ele>294.0</ele><time>2026-03-22T11:02:53.245Z</time></trkpt><trkpt lat="40.4222154" lon="9.1630754"><ele>294.0</ele><time>2026-03-22T11:02:54.247Z</time></trkpt><trkpt lat="40.4220537" lon="9.1630835"><ele>295.0</ele><time>2026-03-22T11:02:55.244Z</time></trkpt><trkpt lat="40.4219157" lon="9.1630791"><ele>296.0</ele><time>2026-03-22T11:02:56.258Z</time></trkpt><trkpt lat="40.4216474" lon="9.163116"><ele>297.0</ele><time>2026-03-22T11:02:58.262Z</time></trkpt><trkpt lat="40.4214105" lon="9.1632632"><ele>297.0</ele><time>2026-03-22T11:03:00.245Z</time></trkpt><trkpt lat="40.4213055" lon="9.1633968"><ele>297.0</ele><time>2026-03-22T11:03:01.267Z</time></trkpt><trkpt lat="40.4210849" lon="9.1636825"><ele>297.0</ele><time>2026-03-22T11:03:03.244Z</time></trkpt><trkpt lat="40.4209522" lon="9.1637992"><ele>297.0</ele><time>2026-03-22T11:03:04.244Z</time></trkpt><trkpt lat="40.420836" lon="9.1639453"><ele>297.0</ele><time>2026-03-22T11:03:05.246Z</time></trkpt><trkpt lat="40.4207141" lon="9.1640927"><ele>296.5</ele><time>2026-03-22T11:03:06.246Z</time></trkpt><trkpt lat="40.4206079" lon="9.1642234"><ele>296.0</ele><time>2026-03-22T11:03:07.247Z</time></trkpt><trkpt lat="40.4205012" lon="9.1643338"><ele>295.5</ele><time>2026-03-22T11:03:08.244Z</time></trkpt><trkpt lat="40.4203802" lon="9.1644291"><ele>295.0</ele><time>2026-03-22T11:03:09.247Z</time></trkpt><trkpt lat="40.4202544" lon="9.1645149"><ele>295.0</ele><time>2026-03-22T11:03:10.246Z</time></trkpt><trkpt lat="40.4201159" lon="9.1645877"><ele>295.0</ele><time>2026-03-22T11:03:11.246Z</time></trkpt><trkpt lat="40.4199648" lon="9.1646459"><ele>295.0</ele><time>2026-03-22T11:03:12.245Z</time></trkpt><trkpt lat="40.4198081" lon="9.1647117"><ele>295.0</ele><time>2026-03-22T11:03:13.246Z</time></trkpt><trkpt lat="40.4196529" lon="9.1647669"><ele>295.0</ele><time>2026-03-22T11:03:14.248Z</time></trkpt><trkpt lat="40.4195061" lon="9.1648133"><ele>295.0</ele><time>2026-03-22T11:03:15.247Z</time></trkpt><trkpt lat="40.4193549" lon="9.164877"><ele>299.3333333333333</ele><time>2026-03-22T11:03:16.245Z</time></trkpt><trkpt lat="40.4192018" lon="9.164938"><ele>303.6666666666667</ele><time>2026-03-22T11:03:17.245Z</time></trkpt><trkpt lat="40.4190627" lon="9.1650269"><ele>308.0</ele><time>2026-03-22T11:03:18.245Z</time></trkpt><trkpt lat="40.418927" lon="9.1651252"><ele>306.75</ele><time>2026-03-22T11:03:19.244Z</time></trkpt><trkpt lat="40.4187912" lon="9.1652348"><ele>305.5</ele><time>2026-03-22T11:03:20.244Z</time></trkpt><trkpt lat="40.4186898" lon="9.1653238"><ele>304.25</ele><time>2026-03-22T11:03:21.247Z</time></trkpt><trkpt lat="40.4185673" lon="9.165414"><ele>303.0</ele><time>2026-03-22T11:03:22.244Z</time></trkpt><trkpt lat="40.4184864" lon="9.1655226"><ele>303.0</ele><time>2026-03-22T11:03:23.247Z</time></trkpt><trkpt lat="40.4184254" lon="9.1656752"><ele>303.0</ele><time>2026-03-22T11:03:24.245Z</time></trkpt><trkpt lat="40.4183602" lon="9.16585"><ele>303.0</ele><time>2026-03-22T11:03:25.246Z</time></trkpt><trkpt lat="40.4183043" lon="9.1660142"><ele>303.0</ele><time>2026-03-22T11:03:26.246Z</time></trkpt><trkpt lat="40.4182384" lon="9.1661681"><ele>304.0</ele><time>2026-03-22T11:03:27.247Z</time></trkpt><trkpt lat="40.4181611" lon="9.1663075"><ele>305.0</ele><time>2026-03-22T11:03:28.246Z</time></trkpt><trkpt lat="40.4180832" lon="9.1664059"><ele>306.0</ele><time>2026-03-22T11:03:29.248Z</time></trkpt><trkpt lat="40.4179845" lon="9.1665071"><ele>307.0</ele><time>2026-03-22T11:03:30.246Z</time></trkpt><trkpt lat="40.4178351" lon="9.1665712"><ele>304.0</ele><time>2026-03-22T11:03:31.245Z</time></trkpt><trkpt lat="40.4176886" lon="9.1665959"><ele>301.0</ele><time>2026-03-22T11:03:32.245Z</time></trkpt><trkpt lat="40.4175513" lon="9.1666543"><ele>298.0</ele><time>2026-03-22T11:03:33.242Z</time></trkpt><trkpt lat="40.4174231" lon="9.1667143"><ele>295.0</ele><time>2026-03-22T11:03:34.261Z</time></trkpt><trkpt lat="40.417193" lon="9.1668224"><ele>297.0</ele><time>2026-03-22T11:03:36.243Z</time></trkpt><trkpt lat="40.4170863" lon="9.1668511"><ele>299.0</ele><time>2026-03-22T11:03:37.245Z</time></trkpt><trkpt lat="40.4169816" lon="9.1668438"><ele>301.0</ele><time>2026-03-22T11:03:38.248Z</time></trkpt><trkpt lat="40.4168768" lon="9.1667945"><ele>303.0</ele><time>2026-03-22T11:03:39.245Z</time></trkpt><trkpt lat="40.416776" lon="9.1667328"><ele>305.0</ele><time>2026-03-22T11:03:40.246Z</time></trkpt><trkpt lat="40.4166918" lon="9.1666325"><ele>304.75</ele><time>2026-03-22T11:03:41.245Z</time></trkpt><trkpt lat="40.4165988" lon="9.1665164"><ele>304.5</ele><time>2026-03-22T11:03:42.244Z</time></trkpt><trkpt lat="40.4165009" lon="9.1663873"><ele>304.25</ele><time>2026-03-22T11:03:43.245Z</time></trkpt><trkpt lat="40.4163969" lon="9.1662504"><ele>304.0</ele><time>2026-03-22T11:03:44.245Z</time></trkpt><trkpt lat="40.4162877" lon="9.1661187"><ele>304.0</ele><time>2026-03-22T11:03:45.247Z</time></trkpt><trkpt lat="40.4161758" lon="9.165989"><ele>304.0</ele><time>2026-03-22T11:03:46.245Z</time></trkpt><trkpt lat="40.4160504" lon="9.1658646"><ele>304.0</ele><time>2026-03-22T11:03:47.244Z</time></trkpt><trkpt lat="40.4159313" lon="9.1657421"><ele>305.3333333333333</ele><time>2026-03-22T11:03:48.25Z</time></trkpt><trkpt lat="40.4157842" lon="9.1656284"><ele>306.6666666666667</ele><time>2026-03-22T11:03:49.246Z</time></trkpt><trkpt lat="40.4156245" lon="9.1655265"><ele>308.0</ele><time>2026-03-22T11:03:50.247Z</time></trkpt><trkpt lat="40.4154619" lon="9.1654222"><ele>308.0</ele><time>2026-03-22T11:03:51.244Z</time></trkpt><trkpt lat="40.4152972" lon="9.1653181"><ele>308.0</ele><time>2026-03-22T11:03:52.247Z</time></trkpt><trkpt lat="40.4151463" lon="9.1652136"><ele>308.0</ele><time>2026-03-22T11:03:53.245Z</time></trkpt><trkpt lat="40.4150005" lon="9.1651246"><ele>308.0</ele><time>2026-03-22T11:03:54.246Z</time></trkpt><trkpt lat="40.414863" lon="9.1650406"><ele>308.0</ele><time>2026-03-22T11:03:55.246Z</time></trkpt><trkpt lat="40.4147322" lon="9.1649684"><ele>308.0</ele><time>2026-03-22T11:03:56.246Z</time></trkpt><trkpt lat="40.4145993" lon="9.1649094"><ele>308.0</ele><time>2026-03-22T11:03:57.246Z</time></trkpt><trkpt lat="40.4144646" lon="9.1648689"><ele>306.0</ele><time>2026-03-22T11:03:58.246Z</time></trkpt><trkpt lat="40.4143153" lon="9.1648567"><ele>304.0</ele><time>2026-03-22T11:03:59.245Z</time></trkpt><trkpt lat="40.4141617" lon="9.1648634"><ele>302.0</ele><time>2026-03-22T11:04:00.244Z</time></trkpt><trkpt lat="40.4140127" lon="9.1648613"><ele>302.0</ele><time>2026-03-22T11:04:01.243Z</time></trkpt><trkpt lat="40.4138744" lon="9.1648557"><ele>302.0</ele><time>2026-03-22T11:04:02.246Z</time></trkpt><trkpt lat="40.4137502" lon="9.1648589"><ele>302.0</ele><time>2026-03-22T11:04:03.245Z</time></trkpt><trkpt lat="40.4136341" lon="9.1648694"><ele>302.0</ele><time>2026-03-22T11:04:04.245Z</time></trkpt><trkpt lat="40.4135129" lon="9.1648981"><ele>305.33333333333337</ele><time>2026-03-22T11:04:05.245Z</time></trkpt><trkpt lat="40.4134153" lon="9.1649414"><ele>308.6666666666667</ele><time>2026-03-22T11:04:06.246Z</time></trkpt><trkpt lat="40.4133196" lon="9.1650363"><ele>312.0</ele><time>2026-03-22T11:04:07.264Z</time></trkpt><trkpt lat="40.4131644" lon="9.1653202"><ele>312.0</ele><time>2026-03-22T11:04:09.253Z</time></trkpt><trkpt lat="40.4131013" lon="9.1656555"><ele>312.0</ele><time>2026-03-22T11:04:11.261Z</time></trkpt><trkpt lat="40.4131079" lon="9.1658268"><ele>312.0</ele><time>2026-03-22T11:04:12.245Z</time></trkpt><trkpt lat="40.4132187" lon="9.1661522"><ele>313.6666666666667</ele><time>2026-03-22T11:04:14.265Z</time></trkpt><trkpt lat="40.4133121" lon="9.1665025"><ele>315.33333333333337</ele><time>2026-03-22T11:04:16.26Z</time></trkpt><trkpt lat="40.4133528" lon="9.1666629"><ele>317.0</ele><time>2026-03-22T11:04:17.273Z</time></trkpt><trkpt lat="40.413347" lon="9.1669684"><ele>317.0</ele><time>2026-03-22T11:04:19.241Z</time></trkpt><trkpt lat="40.4132175" lon="9.1672054"><ele>317.0</ele><time>2026-03-22T11:04:21.259Z</time></trkpt><trkpt lat="40.413004" lon="9.1673853"><ele>316.5</ele><time>2026-03-22T11:04:23.246Z</time></trkpt><trkpt lat="40.4127544" lon="9.1675877"><ele>316.0</ele><time>2026-03-22T11:04:25.266Z</time></trkpt><trkpt lat="40.4124587" lon="9.1677955"><ele>316.0</ele><time>2026-03-22T11:04:27.263Z</time></trkpt><trkpt lat="40.4123064" lon="9.1679045"><ele>316.0</ele><time>2026-03-22T11:04:28.247Z</time></trkpt><trkpt lat="40.4120134" lon="9.168183"><ele>320.0</ele><time>2026-03-22T11:04:30.26Z</time></trkpt><trkpt lat="40.411758" lon="9.1684318"><ele>324.0</ele><time>2026-03-22T11:04:32.246Z</time></trkpt><trkpt lat="40.4116011" lon="9.1685087"><ele>324.0</ele><time>2026-03-22T11:04:33.244Z</time></trkpt><trkpt lat="40.4114469" lon="9.16857"><ele>324.0</ele><time>2026-03-22T11:04:34.246Z</time></trkpt><trkpt lat="40.4112696" lon="9.1685752"><ele>324.0</ele><time>2026-03-22T11:04:35.245Z</time></trkpt><trkpt lat="40.4111027" lon="9.1685989"><ele>322.3333333333333</ele><time>2026-03-22T11:04:36.244Z</time></trkpt><trkpt lat="40.4109267" lon="9.1686275"><ele>320.66666666666663</ele><time>2026-03-22T11:04:37.244Z</time></trkpt><trkpt lat="40.4107447" lon="9.1686456"><ele>319.0</ele><time>2026-03-22T11:04:38.246Z</time></trkpt><trkpt lat="40.41056" lon="9.1686597"><ele>320.0</ele><time>2026-03-22T11:04:39.245Z</time></trkpt><trkpt lat="40.410363" lon="9.168692"><ele>321.0</ele><time>2026-03-22T11:04:40.244Z</time></trkpt><trkpt lat="40.410166" lon="9.1687159"><ele>322.0</ele><time>2026-03-22T11:04:41.245Z</time></trkpt><trkpt lat="40.4099669" lon="9.1687059"><ele>322.0</ele><time>2026-03-22T11:04:42.245Z</time></trkpt><trkpt lat="40.4097784" lon="9.1687219"><ele>322.0</ele><time>2026-03-22T11:04:43.247Z</time></trkpt><trkpt lat="40.4095829" lon="9.1687094"><ele>322.0</ele><time>2026-03-22T11:04:44.246Z</time></trkpt><trkpt lat="40.4093836" lon="9.1686862"><ele>321.66666666666663</ele><time>2026-03-22T11:04:45.244Z</time></trkpt><trkpt lat="40.4091744" lon="9.1686665"><ele>321.3333333333333</ele><time>2026-03-22T11:04:46.246Z</time></trkpt><trkpt lat="40.4089686" lon="9.1686482"><ele>321.0</ele><time>2026-03-22T11:04:47.245Z</time></trkpt><trkpt lat="40.4087705" lon="9.1685905"><ele>321.0</ele><time>2026-03-22T11:04:48.245Z</time></trkpt><trkpt lat="40.408602" lon="9.1686108"><ele>321.0</ele><time>2026-03-22T11:04:49.245Z</time></trkpt><trkpt lat="40.4084305" lon="9.1685979"><ele>321.0</ele><time>2026-03-22T11:04:50.246Z</time></trkpt><trkpt lat="40.40827" lon="9.1686023"><ele>321.0</ele><time>2026-03-22T11:04:51.244Z</time></trkpt><trkpt lat="40.4081081" lon="9.1686051"><ele>321.0</ele><time>2026-03-22T11:04:52.247Z</time></trkpt><trkpt lat="40.4079679" lon="9.1686373"><ele>321.0</ele><time>2026-03-22T11:04:53.245Z</time></trkpt><trkpt lat="40.4078268" lon="9.1686631"><ele>321.0</ele><time>2026-03-22T11:04:54.246Z</time></trkpt><trkpt lat="40.4076995" lon="9.1687892"><ele>321.0</ele><time>2026-03-22T11:04:55.245Z</time></trkpt><trkpt lat="40.407569" lon="9.1688469"><ele>321.0</ele><time>2026-03-22T11:04:56.244Z</time></trkpt><trkpt lat="40.4074308" lon="9.1689448"><ele>321.0</ele><time>2026-03-22T11:04:57.246Z</time></trkpt><trkpt lat="40.4072936" lon="9.1690636"><ele>323.0</ele><time>2026-03-22T11:04:58.245Z</time></trkpt><trkpt lat="40.4071585" lon="9.1692146"><ele>325.0</ele><time>2026-03-22T11:04:59.245Z</time></trkpt><trkpt lat="40.4070268" lon="9.1693901"><ele>327.0</ele><time>2026-03-22T11:05:00.245Z</time></trkpt><trkpt lat="40.4068695" lon="9.1695285"><ele>327.0</ele><time>2026-03-22T11:05:01.244Z</time></trkpt><trkpt lat="40.4067211" lon="9.169659"><ele>327.0</ele><time>2026-03-22T11:05:02.246Z</time></trkpt><trkpt lat="40.4065887" lon="9.169792"><ele>327.0</ele><time>2026-03-22T11:05:03.246Z</time></trkpt><trkpt lat="40.4063502" lon="9.1700136"><ele>330.3333333333333</ele><time>2026-03-22T11:05:05.276Z</time></trkpt><trkpt lat="40.4061254" lon="9.1701566"><ele>333.66666666666663</ele><time>2026-03-22T11:05:07.258Z</time></trkpt><trkpt lat="40.4060119" lon="9.1701257"><ele>337.0</ele><time>2026-03-22T11:05:08.247Z</time></trkpt><trkpt lat="40.4058953" lon="9.1700913"><ele>337.0</ele><time>2026-03-22T11:05:09.243Z</time></trkpt><trkpt lat="40.4057891" lon="9.1700414"><ele>337.0</ele><time>2026-03-22T11:05:10.244Z</time></trkpt><trkpt lat="40.4057032" lon="9.169964"><ele>337.0</ele><time>2026-03-22T11:05:11.246Z</time></trkpt><trkpt lat="40.4056186" lon="9.1698602"><ele>337.0</ele><time>2026-03-22T11:05:12.242Z</time></trkpt><trkpt lat="40.4055651" lon="9.169717"><ele>337.66666666666663</ele><time>2026-03-22T11:05:13.242Z</time></trkpt><trkpt lat="40.4055255" lon="9.1695636"><ele>338.3333333333333</ele><time>2026-03-22T11:05:14.249Z</time></trkpt><trkpt lat="40.4055001" lon="9.169397"><ele>339.0</ele><time>2026-03-22T11:05:15.265Z</time></trkpt><trkpt lat="40.4054765" lon="9.1690311"><ele>346.0</ele><time>2026-03-22T11:05:17.281Z</time></trkpt><trkpt lat="40.4054586" lon="9.1688172"><ele>353.0</ele><time>2026-03-22T11:05:18.267Z</time></trkpt><trkpt lat="40.4054383" lon="9.1683806"><ele>350.0</ele><time>2026-03-22T11:05:20.257Z</time></trkpt><trkpt lat="40.4054107" lon="9.1679934"><ele>347.0</ele><time>2026-03-22T11:05:22.259Z</time></trkpt><trkpt lat="40.4053604" lon="9.1676888"><ele>347.0</ele><time>2026-03-22T11:05:24.253Z</time></trkpt><trkpt lat="40.4052562" lon="9.1674612"><ele>347.0</ele><time>2026-03-22T11:05:26.243Z</time></trkpt><trkpt lat="40.4050465" lon="9.1673352"><ele>347.0</ele><time>2026-03-22T11:05:28.251Z</time></trkpt><trkpt lat="40.4047815" lon="9.1673602"><ele>348.0</ele><time>2026-03-22T11:05:30.29Z</time></trkpt><trkpt lat="40.4044875" lon="9.167432"><ele>349.0</ele><time>2026-03-22T11:05:32.265Z</time></trkpt><trkpt lat="40.4041624" lon="9.1675093"><ele>349.0</ele><time>2026-03-22T11:05:34.276Z</time></trkpt><trkpt lat="40.4038334" lon="9.167592"><ele>349.0</ele><time>2026-03-22T11:05:36.264Z</time></trkpt><trkpt lat="40.4035263" lon="9.167656"><ele>349.3333333333333</ele><time>2026-03-22T11:05:38.273Z</time></trkpt><trkpt lat="40.4032705" lon="9.1676216"><ele>349.6666666666667</ele><time>2026-03-22T11:05:40.261Z</time></trkpt><trkpt lat="40.4031599" lon="9.1675606"><ele>350.0</ele><time>2026-03-22T11:05:41.244Z</time></trkpt><trkpt lat="40.4030404" lon="9.1674725"><ele>350.25</ele><time>2026-03-22T11:05:42.243Z</time></trkpt><trkpt lat="40.4029047" lon="9.1673746"><ele>350.5</ele><time>2026-03-22T11:05:43.243Z</time></trkpt><trkpt lat="40.4027682" lon="9.1672928"><ele>350.75</ele><time>2026-03-22T11:05:44.241Z</time></trkpt><trkpt lat="40.4026415" lon="9.1672146"><ele>351.0</ele><time>2026-03-22T11:05:45.26Z</time></trkpt><trkpt lat="40.4025424" lon="9.1671179"><ele>354.0</ele><time>2026-03-22T11:05:46.259Z</time></trkpt><trkpt lat="40.4023511" lon="9.1668863"><ele>357.0</ele><time>2026-03-22T11:05:48.245Z</time></trkpt><trkpt lat="40.4021966" lon="9.1665532"><ele>357.5</ele><time>2026-03-22T11:05:50.264Z</time></trkpt><trkpt lat="40.4021313" lon="9.1663638"><ele>358.0</ele><time>2026-03-22T11:05:51.251Z</time></trkpt><trkpt lat="40.4019467" lon="9.1659639"><ele>358.5</ele><time>2026-03-22T11:05:53.27Z</time></trkpt><trkpt lat="40.401759" lon="9.16554"><ele>359.0</ele><time>2026-03-22T11:05:55.277Z</time></trkpt><trkpt lat="40.4015587" lon="9.1650738"><ele>360.0</ele><time>2026-03-22T11:05:57.243Z</time></trkpt><trkpt lat="40.4014605" lon="9.164857"><ele>361.0</ele><time>2026-03-22T11:05:58.26Z</time></trkpt><trkpt lat="40.4013733" lon="9.1646592"><ele>362.0</ele><time>2026-03-22T11:05:59.261Z</time></trkpt><trkpt lat="40.4012136" lon="9.1642829"><ele>362.0</ele><time>2026-03-22T11:06:01.257Z</time></trkpt><trkpt lat="40.4011436" lon="9.1641062"><ele>362.0</ele><time>2026-03-22T11:06:02.247Z</time></trkpt><trkpt lat="40.4010691" lon="9.1639344"><ele>362.0</ele><time>2026-03-22T11:06:03.277Z</time></trkpt><trkpt lat="40.4009639" lon="9.1636303"><ele>361.0</ele><time>2026-03-22T11:06:05.275Z</time></trkpt><trkpt lat="40.4006921" lon="9.163289"><ele>360.0</ele><time>2026-03-22T11:06:07.27Z</time></trkpt><trkpt lat="40.4004235" lon="9.1629403"><ele>361.3333333333333</ele><time>2026-03-22T11:06:09.254Z</time></trkpt><trkpt lat="40.4002969" lon="9.1627634"><ele>362.66666666666663</ele><time>2026-03-22T11:06:10.245Z</time></trkpt><trkpt lat="40.4001661" lon="9.1625917"><ele>364.0</ele><time>2026-03-22T11:06:11.268Z</time></trkpt><trkpt lat="40.4000208" lon="9.1624147"><ele>364.0</ele><time>2026-03-22T11:06:12.26Z</time></trkpt><trkpt lat="40.3997116" lon="9.1620623"><ele>364.0</ele><time>2026-03-22T11:06:14.265Z</time></trkpt><trkpt lat="40.3993825" lon="9.1617056"><ele>366.0</ele><time>2026-03-22T11:06:16.247Z</time></trkpt><trkpt lat="40.3992218" lon="9.1615214"><ele>368.0</ele><time>2026-03-22T11:06:17.246Z</time></trkpt><trkpt lat="40.3990713" lon="9.1613406"><ele>370.0</ele><time>2026-03-22T11:06:18.266Z</time></trkpt><trkpt lat="40.3989188" lon="9.161164"><ele>372.5</ele><time>2026-03-22T11:06:19.243Z</time></trkpt><trkpt lat="40.3986204" lon="9.1608164"><ele>375.0</ele><time>2026-03-22T11:06:21.242Z</time></trkpt><trkpt lat="40.398462" lon="9.1606667"><ele>375.0</ele><time>2026-03-22T11:06:22.246Z</time></trkpt><trkpt lat="40.3983105" lon="9.1604991"><ele>375.0</ele><time>2026-03-22T11:06:23.246Z</time></trkpt><trkpt lat="40.3981627" lon="9.1603293"><ele>375.0</ele><time>2026-03-22T11:06:24.246Z</time></trkpt><trkpt lat="40.3980183" lon="9.1601546"><ele>377.6666666666667</ele><time>2026-03-22T11:06:25.245Z</time></trkpt><trkpt lat="40.3978727" lon="9.1599813"><ele>380.33333333333337</ele><time>2026-03-22T11:06:26.247Z</time></trkpt><trkpt lat="40.3977309" lon="9.1598093"><ele>383.0</ele><time>2026-03-22T11:06:27.245Z</time></trkpt><trkpt lat="40.3975946" lon="9.1596486"><ele>383.0</ele><time>2026-03-22T11:06:28.246Z</time></trkpt><trkpt lat="40.3974754" lon="9.159499"><ele>383.0</ele><time>2026-03-22T11:06:29.247Z</time></trkpt><trkpt lat="40.3973595" lon="9.1593528"><ele>383.0</ele><time>2026-03-22T11:06:30.245Z</time></trkpt><trkpt lat="40.3972462" lon="9.1592211"><ele>384.0</ele><time>2026-03-22T11:06:31.245Z</time></trkpt><trkpt lat="40.3971402" lon="9.159096"><ele>385.0</ele><time>2026-03-22T11:06:32.246Z</time></trkpt><trkpt lat="40.3970387" lon="9.1589686"><ele>386.0</ele><time>2026-03-22T11:06:33.247Z</time></trkpt><trkpt lat="40.3969412" lon="9.1588436"><ele>387.0</ele><time>2026-03-22T11:06:34.247Z</time></trkpt><trkpt lat="40.3968474" lon="9.1587295"><ele>387.0</ele><time>2026-03-22T11:06:35.245Z</time></trkpt><trkpt lat="40.3967401" lon="9.1586344"><ele>387.0</ele><time>2026-03-22T11:06:36.244Z</time></trkpt><trkpt lat="40.3966255" lon="9.1585486"><ele>387.0</ele><time>2026-03-22T11:06:37.246Z</time></trkpt><trkpt lat="40.3964872" lon="9.158496"><ele>387.0</ele><time>2026-03-22T11:06:38.245Z</time></trkpt><trkpt lat="40.39634" lon="9.1584447"><ele>387.66666666666663</ele><time>2026-03-22T11:06:39.244Z</time></trkpt><trkpt lat="40.3961641" lon="9.1584302"><ele>388.3333333333333</ele><time>2026-03-22T11:06:40.245Z</time></trkpt><trkpt lat="40.3959831" lon="9.1583977"><ele>389.0</ele><time>2026-03-22T11:06:41.245Z</time></trkpt><trkpt lat="40.3957948" lon="9.1583632"><ele>389.0</ele><time>2026-03-22T11:06:42.246Z</time></trkpt><trkpt lat="40.3955948" lon="9.1583303"><ele>389.0</ele><time>2026-03-22T11:06:43.244Z</time></trkpt><trkpt lat="40.3953966" lon="9.1583095"><ele>389.0</ele><time>2026-03-22T11:06:44.244Z</time></trkpt><trkpt lat="40.395196" lon="9.1582857"><ele>390.66666666666663</ele><time>2026-03-22T11:06:45.246Z</time></trkpt><trkpt lat="40.3949961" lon="9.158261"><ele>392.33333333333337</ele><time>2026-03-22T11:06:46.246Z</time></trkpt><trkpt lat="40.3947921" lon="9.1582414"><ele>394.0</ele><time>2026-03-22T11:06:47.246Z</time></trkpt><trkpt lat="40.3946121" lon="9.1582107"><ele>392.33333333333337</ele><time>2026-03-22T11:06:48.245Z</time></trkpt><trkpt lat="40.3944371" lon="9.158186"><ele>390.66666666666663</ele><time>2026-03-22T11:06:49.244Z</time></trkpt><trkpt lat="40.3942706" lon="9.1581643"><ele>389.0</ele><time>2026-03-22T11:06:50.245Z</time></trkpt><trkpt lat="40.3941141" lon="9.158136"><ele>389.0</ele><time>2026-03-22T11:06:51.244Z</time></trkpt><trkpt lat="40.3939644" lon="9.1580748"><ele>389.0</ele><time>2026-03-22T11:06:52.245Z</time></trkpt><trkpt lat="40.393821" lon="9.1579772"><ele>389.0</ele><time>2026-03-22T11:06:53.258Z</time></trkpt><trkpt lat="40.3936816" lon="9.1578731"><ele>391.75</ele><time>2026-03-22T11:06:54.246Z</time></trkpt><trkpt lat="40.3935497" lon="9.1577693"><ele>394.5</ele><time>2026-03-22T11:06:55.246Z</time></trkpt><trkpt lat="40.3934289" lon="9.1576814"><ele>397.25</ele><time>2026-03-22T11:06:56.243Z</time></trkpt><trkpt lat="40.3933128" lon="9.15761"><ele>400.0</ele><time>2026-03-22T11:06:57.274Z</time></trkpt><trkpt lat="40.3932193" lon="9.157536"><ele>403.0</ele><time>2026-03-22T11:06:58.26Z</time></trkpt><trkpt lat="40.3929961" lon="9.1574208"><ele>406.0</ele><time>2026-03-22T11:07:00.265Z</time></trkpt><trkpt lat="40.392786" lon="9.1575181"><ele>406.0</ele><time>2026-03-22T11:07:02.256Z</time></trkpt><trkpt lat="40.3926759" lon="9.1577246"><ele>406.0</ele><time>2026-03-22T11:07:03.243Z</time></trkpt><trkpt lat="40.3925833" lon="9.1578887"><ele>406.0</ele><time>2026-03-22T11:07:04.256Z</time></trkpt><trkpt lat="40.3923797" lon="9.1582074"><ele>408.33333333333337</ele><time>2026-03-22T11:07:06.255Z</time></trkpt><trkpt lat="40.3922774" lon="9.1583661"><ele>410.66666666666663</ele><time>2026-03-22T11:07:07.257Z</time></trkpt><trkpt lat="40.3921851" lon="9.1585303"><ele>413.0</ele><time>2026-03-22T11:07:08.248Z</time></trkpt><trkpt lat="40.3921088" lon="9.1586926"><ele>413.0</ele><time>2026-03-22T11:07:09.258Z</time></trkpt><trkpt lat="40.3920237" lon="9.158873"><ele>413.0</ele><time>2026-03-22T11:07:10.256Z</time></trkpt><trkpt lat="40.3917616" lon="9.1591382"><ele>413.0</ele><time>2026-03-22T11:07:12.243Z</time></trkpt><trkpt lat="40.3914459" lon="9.1594275"><ele>413.0</ele><time>2026-03-22T11:07:14.247Z</time></trkpt><trkpt lat="40.3912649" lon="9.1594943"><ele>413.0</ele><time>2026-03-22T11:07:15.259Z</time></trkpt><trkpt lat="40.3910994" lon="9.1595885"><ele>413.0</ele><time>2026-03-22T11:07:16.258Z</time></trkpt><trkpt lat="40.3907955" lon="9.1597564"><ele>413.0</ele><time>2026-03-22T11:07:18.245Z</time></trkpt><trkpt lat="40.390598" lon="9.1596556"><ele>413.0</ele><time>2026-03-22T11:07:19.262Z</time></trkpt><trkpt lat="40.3902503" lon="9.1595997"><ele>414.5</ele><time>2026-03-22T11:07:21.272Z</time></trkpt><trkpt lat="40.3898972" lon="9.1595498"><ele>416.0</ele><time>2026-03-22T11:07:23.244Z</time></trkpt><trkpt lat="40.3897151" lon="9.1595402"><ele>418.0</ele><time>2026-03-22T11:07:24.244Z</time></trkpt><trkpt lat="40.3895358" lon="9.1595319"><ele>420.0</ele><time>2026-03-22T11:07:25.262Z</time></trkpt><trkpt lat="40.3891825" lon="9.1595007"><ele>420.0</ele><time>2026-03-22T11:07:27.266Z</time></trkpt><trkpt lat="40.3890122" lon="9.1594905"><ele>420.0</ele><time>2026-03-22T11:07:28.256Z</time></trkpt><trkpt lat="40.3888453" lon="9.1594803"><ele>420.0</ele><time>2026-03-22T11:07:29.243Z</time></trkpt><trkpt lat="40.3885238" lon="9.1594623"><ele>422.0</ele><time>2026-03-22T11:07:31.267Z</time></trkpt><trkpt lat="40.3881973" lon="9.1594614"><ele>424.0</ele><time>2026-03-22T11:07:33.257Z</time></trkpt><trkpt lat="40.388009" lon="9.1594606"><ele>426.5</ele><time>2026-03-22T11:07:34.258Z</time></trkpt><trkpt lat="40.3876613" lon="9.1595197"><ele>429.0</ele><time>2026-03-22T11:07:36.278Z</time></trkpt><trkpt lat="40.3873181" lon="9.1595824"><ele>432.0</ele><time>2026-03-22T11:07:38.261Z</time></trkpt><trkpt lat="40.3870413" lon="9.1597293"><ele>435.0</ele><time>2026-03-22T11:07:40.259Z</time></trkpt><trkpt lat="40.3867631" lon="9.1598557"><ele>435.0</ele><time>2026-03-22T11:07:42.252Z</time></trkpt><trkpt lat="40.3866114" lon="9.1599208"><ele>435.0</ele><time>2026-03-22T11:07:43.263Z</time></trkpt><trkpt lat="40.3864535" lon="9.1599934"><ele>435.0</ele><time>2026-03-22T11:07:44.264Z</time></trkpt><trkpt lat="40.3861029" lon="9.1599593"><ele>437.5</ele><time>2026-03-22T11:07:46.244Z</time></trkpt><trkpt lat="40.3857715" lon="9.1599045"><ele>440.0</ele><time>2026-03-22T11:07:48.27Z</time></trkpt><trkpt lat="40.3854958" lon="9.1598454"><ele>443.5</ele><time>2026-03-22T11:07:50.265Z</time></trkpt><trkpt lat="40.385221" lon="9.1598282"><ele>447.0</ele><time>2026-03-22T11:07:52.262Z</time></trkpt><trkpt lat="40.3849219" lon="9.1597821"><ele>451.0</ele><time>2026-03-22T11:07:54.258Z</time></trkpt><trkpt lat="40.3846322" lon="9.1599646"><ele>455.0</ele><time>2026-03-22T11:07:56.266Z</time></trkpt><trkpt lat="40.3843809" lon="9.1601086"><ele>455.0</ele><time>2026-03-22T11:07:58.242Z</time></trkpt><trkpt lat="40.3842697" lon="9.1602098"><ele>455.0</ele><time>2026-03-22T11:07:59.245Z</time></trkpt><trkpt lat="40.384187" lon="9.1603434"><ele>455.0</ele><time>2026-03-22T11:08:00.244Z</time></trkpt><trkpt lat="40.384078" lon="9.1603928"><ele>455.0</ele><time>2026-03-22T11:08:01.243Z</time></trkpt><trkpt lat="40.3839857" lon="9.1604617"><ele>455.0</ele><time>2026-03-22T11:08:02.245Z</time></trkpt><trkpt lat="40.3838952" lon="9.1605144"><ele>455.0</ele><time>2026-03-22T11:08:03.243Z</time></trkpt><trkpt lat="40.3838006" lon="9.1605868"><ele>455.0</ele><time>2026-03-22T11:08:04.244Z</time></trkpt><trkpt lat="40.3836883" lon="9.1606361"><ele>455.0</ele><time>2026-03-22T11:08:05.245Z</time></trkpt><trkpt lat="40.383573" lon="9.1606445"><ele>455.0</ele><time>2026-03-22T11:08:06.245Z</time></trkpt><trkpt lat="40.3834483" lon="9.1606959"><ele>455.25</ele><time>2026-03-22T11:08:07.244Z</time></trkpt><trkpt lat="40.3833167" lon="9.1607599"><ele>455.5</ele><time>2026-03-22T11:08:08.249Z</time></trkpt><trkpt lat="40.3831811" lon="9.1607905"><ele>455.75</ele><time>2026-03-22T11:08:09.246Z</time></trkpt><trkpt lat="40.3830492" lon="9.1608862"><ele>456.0</ele><time>2026-03-22T11:08:10.245Z</time></trkpt><trkpt lat="40.3829129" lon="9.1609275"><ele>457.66666666666663</ele><time>2026-03-22T11:08:11.245Z</time></trkpt><trkpt lat="40.3827656" lon="9.1609517"><ele>459.3333333333333</ele><time>2026-03-22T11:08:12.245Z</time></trkpt><trkpt lat="40.3826185" lon="9.1609986"><ele>461.0</ele><time>2026-03-22T11:08:13.244Z</time></trkpt><trkpt lat="40.3824645" lon="9.161041"><ele>461.0</ele><time>2026-03-22T11:08:14.245Z</time></trkpt><trkpt lat="40.3823113" lon="9.1610847"><ele>461.0</ele><time>2026-03-22T11:08:15.245Z</time></trkpt><trkpt lat="40.382161" lon="9.1611225"><ele>461.0</ele><time>2026-03-22T11:08:16.245Z</time></trkpt><trkpt lat="40.3820122" lon="9.1611613"><ele>462.0</ele><time>2026-03-22T11:08:17.247Z</time></trkpt><trkpt lat="40.381879" lon="9.1611701"><ele>463.0</ele><time>2026-03-22T11:08:18.247Z</time></trkpt><trkpt lat="40.3817314" lon="9.1612157"><ele>464.0</ele><time>2026-03-22T11:08:19.245Z</time></trkpt><trkpt lat="40.3815651" lon="9.1612339"><ele>464.0</ele><time>2026-03-22T11:08:20.244Z</time></trkpt><trkpt lat="40.3814014" lon="9.1612636"><ele>464.0</ele><time>2026-03-22T11:08:21.245Z</time></trkpt><trkpt lat="40.3812267" lon="9.1612117"><ele>464.0</ele><time>2026-03-22T11:08:22.244Z</time></trkpt><trkpt lat="40.381046" lon="9.1612013"><ele>464.3333333333333</ele><time>2026-03-22T11:08:23.245Z</time></trkpt><trkpt lat="40.3808619" lon="9.1612061"><ele>464.66666666666663</ele><time>2026-03-22T11:08:24.245Z</time></trkpt><trkpt lat="40.3806701" lon="9.1612061"><ele>465.0</ele><time>2026-03-22T11:08:25.247Z</time></trkpt><trkpt lat="40.3804834" lon="9.1612005"><ele>467.0</ele><time>2026-03-22T11:08:26.246Z</time></trkpt><trkpt lat="40.3802925" lon="9.1611719"><ele>469.0</ele><time>2026-03-22T11:08:27.246Z</time></trkpt><trkpt lat="40.3801038" lon="9.1611695"><ele>471.0</ele><time>2026-03-22T11:08:28.255Z</time></trkpt><trkpt lat="40.3797167" lon="9.1611418"><ele>471.0</ele><time>2026-03-22T11:08:30.287Z</time></trkpt><trkpt lat="40.3795243" lon="9.1611287"><ele>471.0</ele><time>2026-03-22T11:08:31.244Z</time></trkpt><trkpt lat="40.3793258" lon="9.1611196"><ele>471.0</ele><time>2026-03-22T11:08:32.244Z</time></trkpt><trkpt lat="40.3791395" lon="9.1611081"><ele>471.0</ele><time>2026-03-22T11:08:33.243Z</time></trkpt><trkpt lat="40.3789598" lon="9.1610959"><ele>471.0</ele><time>2026-03-22T11:08:34.255Z</time></trkpt><trkpt lat="40.3786265" lon="9.1610609"><ele>470.33333333333337</ele><time>2026-03-22T11:08:36.248Z</time></trkpt><trkpt lat="40.3784697" lon="9.1610605"><ele>469.6666666666667</ele><time>2026-03-22T11:08:37.257Z</time></trkpt><trkpt lat="40.3781894" lon="9.16101"><ele>469.0</ele><time>2026-03-22T11:08:39.254Z</time></trkpt><trkpt lat="40.377936" lon="9.1610205"><ele>469.0</ele><time>2026-03-22T11:08:41.267Z</time></trkpt><trkpt lat="40.3777288" lon="9.161148"><ele>469.0</ele><time>2026-03-22T11:08:43.242Z</time></trkpt><trkpt lat="40.3775817" lon="9.1614098"><ele>469.0</ele><time>2026-03-22T11:08:45.29Z</time></trkpt><trkpt lat="40.3775136" lon="9.1617549"><ele>469.0</ele><time>2026-03-22T11:08:47.27Z</time></trkpt><trkpt lat="40.3774725" lon="9.1621409"><ele>469.5</ele><time>2026-03-22T11:08:49.243Z</time></trkpt><trkpt lat="40.3774231" lon="9.1625705"><ele>470.0</ele><time>2026-03-22T11:08:51.273Z</time></trkpt><trkpt lat="40.3773853" lon="9.1629542"><ele>470.0</ele><time>2026-03-22T11:08:53.243Z</time></trkpt><trkpt lat="40.3773715" lon="9.1631478"><ele>470.0</ele><time>2026-03-22T11:08:54.256Z</time></trkpt><trkpt lat="40.3773713" lon="9.1633496"><ele>470.0</ele><time>2026-03-22T11:08:55.268Z</time></trkpt><trkpt lat="40.3774512" lon="9.1637978"><ele>473.0</ele><time>2026-03-22T11:08:57.242Z</time></trkpt><trkpt lat="40.3774977" lon="9.1640389"><ele>476.0</ele><time>2026-03-22T11:08:58.263Z</time></trkpt><trkpt lat="40.377607" lon="9.1645502"><ele>476.0</ele><time>2026-03-22T11:09:00.26Z</time></trkpt><trkpt lat="40.3776623" lon="9.1648126"><ele>476.0</ele><time>2026-03-22T11:09:01.263Z</time></trkpt><trkpt lat="40.3777037" lon="9.1650594"><ele>476.0</ele><time>2026-03-22T11:09:02.265Z</time></trkpt><trkpt lat="40.3777789" lon="9.1655001"><ele>477.5</ele><time>2026-03-22T11:09:04.259Z</time></trkpt><trkpt lat="40.3778129" lon="9.1656966"><ele>479.0</ele><time>2026-03-22T11:09:05.245Z</time></trkpt><trkpt lat="40.3778491" lon="9.1658852"><ele>480.5</ele><time>2026-03-22T11:09:06.245Z</time></trkpt><trkpt lat="40.3778914" lon="9.1660602"><ele>482.0</ele><time>2026-03-22T11:09:07.271Z</time></trkpt><trkpt lat="40.3779227" lon="9.1662194"><ele>482.0</ele><time>2026-03-22T11:09:08.267Z</time></trkpt><trkpt lat="40.3779605" lon="9.1663829"><ele>482.0</ele><time>2026-03-22T11:09:09.243Z</time></trkpt><trkpt lat="40.3780249" lon="9.166722"><ele>482.0</ele><time>2026-03-22T11:09:11.269Z</time></trkpt><trkpt lat="40.3780033" lon="9.167101"><ele>486.5</ele><time>2026-03-22T11:09:13.267Z</time></trkpt><trkpt lat="40.3779517" lon="9.1674944"><ele>491.0</ele><time>2026-03-22T11:09:15.256Z</time></trkpt><trkpt lat="40.3778795" lon="9.1679305"><ele>491.0</ele><time>2026-03-22T11:09:17.26Z</time></trkpt><trkpt lat="40.3778425" lon="9.1681284"><ele>491.0</ele><time>2026-03-22T11:09:18.245Z</time></trkpt><trkpt lat="40.3778166" lon="9.1683288"><ele>491.0</ele><time>2026-03-22T11:09:19.249Z</time></trkpt><trkpt lat="40.3777876" lon="9.1685358"><ele>492.0</ele><time>2026-03-22T11:09:20.262Z</time></trkpt><trkpt lat="40.3777331" lon="9.1689405"><ele>493.0</ele><time>2026-03-22T11:09:22.261Z</time></trkpt><trkpt lat="40.3776861" lon="9.1693318"><ele>493.5</ele><time>2026-03-22T11:09:24.262Z</time></trkpt><trkpt lat="40.3776309" lon="9.1697109"><ele>494.0</ele><time>2026-03-22T11:09:26.265Z</time></trkpt><trkpt lat="40.3776053" lon="9.1700495"><ele>494.0</ele><time>2026-03-22T11:09:28.271Z</time></trkpt><trkpt lat="40.3776175" lon="9.1703967"><ele>494.0</ele><time>2026-03-22T11:09:30.262Z</time></trkpt><trkpt lat="40.3776201" lon="9.1705597"><ele>494.0</ele><time>2026-03-22T11:09:31.258Z</time></trkpt><trkpt lat="40.3776272" lon="9.1707226"><ele>494.0</ele><time>2026-03-22T11:09:32.254Z</time></trkpt><trkpt lat="40.3776093" lon="9.1710316"><ele>494.0</ele><time>2026-03-22T11:09:34.275Z</time></trkpt><trkpt lat="40.3774785" lon="9.1712649"><ele>494.0</ele><time>2026-03-22T11:09:36.275Z</time></trkpt><trkpt lat="40.3773834" lon="9.1713633"><ele>494.0</ele><time>2026-03-22T11:09:37.272Z</time></trkpt><trkpt lat="40.37728" lon="9.1714457"><ele>494.0</ele><time>2026-03-22T11:09:38.276Z</time></trkpt><trkpt lat="40.3771788" lon="9.1715229"><ele>494.0</ele><time>2026-03-22T11:09:39.246Z</time></trkpt><trkpt lat="40.3770693" lon="9.1715649"><ele>497.0</ele><time>2026-03-22T11:09:40.246Z</time></trkpt><trkpt lat="40.3769516" lon="9.1715736"><ele>500.0</ele><time>2026-03-22T11:09:41.268Z</time></trkpt><trkpt lat="40.3768315" lon="9.1715713"><ele>503.0</ele><time>2026-03-22T11:09:42.266Z</time></trkpt><trkpt lat="40.3765818" lon="9.1714538"><ele>508.5</ele><time>2026-03-22T11:09:44.26Z</time></trkpt><trkpt lat="40.3763072" lon="9.1713177"><ele>514.0</ele><time>2026-03-22T11:09:46.269Z</time></trkpt><trkpt lat="40.3760455" lon="9.1711928"><ele>514.0</ele><time>2026-03-22T11:09:48.259Z</time></trkpt><trkpt lat="40.3757967" lon="9.1710404"><ele>514.0</ele><time>2026-03-22T11:09:50.271Z</time></trkpt><trkpt lat="40.3756669" lon="9.1709326"><ele>514.0</ele><time>2026-03-22T11:09:51.257Z</time></trkpt><trkpt lat="40.3754544" lon="9.1707252"><ele>520.0</ele><time>2026-03-22T11:09:53.269Z</time></trkpt><trkpt lat="40.3753391" lon="9.1706503"><ele>526.0</ele><time>2026-03-22T11:09:54.243Z</time></trkpt><trkpt lat="40.3752022" lon="9.1705909"><ele>532.0</ele><time>2026-03-22T11:09:55.262Z</time></trkpt><trkpt lat="40.3750583" lon="9.1705656"><ele>538.0</ele><time>2026-03-22T11:09:56.264Z</time></trkpt><trkpt lat="40.3749239" lon="9.1705577"><ele>538.0</ele><time>2026-03-22T11:09:57.247Z</time></trkpt><trkpt lat="40.3747906" lon="9.1705829"><ele>538.0</ele><time>2026-03-22T11:09:58.243Z</time></trkpt><trkpt lat="40.3746764" lon="9.1705722"><ele>538.0</ele><time>2026-03-22T11:09:59.243Z</time></trkpt><trkpt lat="40.3745622" lon="9.1706245"><ele>538.0</ele><time>2026-03-22T11:10:00.243Z</time></trkpt><trkpt lat="40.3744581" lon="9.1707104"><ele>530.5</ele><time>2026-03-22T11:10:01.265Z</time></trkpt><trkpt lat="40.37432" lon="9.170942"><ele>523.0</ele><time>2026-03-22T11:10:03.256Z</time></trkpt><trkpt lat="40.3742699" lon="9.1713233"><ele>523.0</ele><time>2026-03-22T11:10:05.258Z</time></trkpt><trkpt lat="40.374289" lon="9.1715069"><ele>523.0</ele><time>2026-03-22T11:10:06.243Z</time></trkpt><trkpt lat="40.3743345" lon="9.1716776"><ele>523.0</ele><time>2026-03-22T11:10:07.273Z</time></trkpt><trkpt lat="40.3743792" lon="9.1718416"><ele>523.0</ele><time>2026-03-22T11:10:08.264Z</time></trkpt><trkpt lat="40.374581" lon="9.1721575"><ele>521.5</ele><time>2026-03-22T11:10:10.258Z</time></trkpt><trkpt lat="40.3748329" lon="9.1725033"><ele>520.0</ele><time>2026-03-22T11:10:12.27Z</time></trkpt><trkpt lat="40.3749646" lon="9.1726791"><ele>520.0</ele><time>2026-03-22T11:10:13.246Z</time></trkpt><trkpt lat="40.375102" lon="9.1728603"><ele>520.0</ele><time>2026-03-22T11:10:14.244Z</time></trkpt><trkpt lat="40.3752429" lon="9.1730404"><ele>520.0</ele><time>2026-03-22T11:10:15.286Z</time></trkpt><trkpt lat="40.3753723" lon="9.1732091"><ele>522.0</ele><time>2026-03-22T11:10:16.272Z</time></trkpt><trkpt lat="40.3756438" lon="9.17351"><ele>524.0</ele><time>2026-03-22T11:10:18.277Z</time></trkpt><trkpt lat="40.3759712" lon="9.1737504"><ele>524.0</ele><time>2026-03-22T11:10:20.26Z</time></trkpt><trkpt lat="40.376318" lon="9.1739931"><ele>524.0</ele><time>2026-03-22T11:10:22.274Z</time></trkpt><trkpt lat="40.376651" lon="9.1742225"><ele>526.0</ele><time>2026-03-22T11:10:24.246Z</time></trkpt><trkpt lat="40.3768218" lon="9.1743311"><ele>528.0</ele><time>2026-03-22T11:10:25.26Z</time></trkpt><trkpt lat="40.3769906" lon="9.1744238"><ele>530.0</ele><time>2026-03-22T11:10:26.267Z</time></trkpt><trkpt lat="40.3773502" lon="9.1745601"><ele>530.0</ele><time>2026-03-22T11:10:28.271Z</time></trkpt><trkpt lat="40.3776707" lon="9.1746484"><ele>530.0</ele><time>2026-03-22T11:10:30.276Z</time></trkpt><trkpt lat="40.3779351" lon="9.1747232"><ele>529.5</ele><time>2026-03-22T11:10:32.264Z</time></trkpt><trkpt lat="40.3781572" lon="9.1748426"><ele>529.0</ele><time>2026-03-22T11:10:34.268Z</time></trkpt><trkpt lat="40.3783578" lon="9.1750454"><ele>537.0</ele><time>2026-03-22T11:10:36.254Z</time></trkpt><trkpt lat="40.3784518" lon="9.17537"><ele>545.0</ele><time>2026-03-22T11:10:38.261Z</time></trkpt><trkpt lat="40.3784469" lon="9.1756464"><ele>546.0</ele><time>2026-03-22T11:10:40.263Z</time></trkpt><trkpt lat="40.3783581" lon="9.1759186"><ele>547.0</ele><time>2026-03-22T11:10:42.266Z</time></trkpt><trkpt lat="40.3781791" lon="9.1761065"><ele>552.3333333333334</ele><time>2026-03-22T11:10:44.261Z</time></trkpt><trkpt lat="40.3779095" lon="9.1762067"><ele>557.6666666666666</ele><time>2026-03-22T11:10:46.265Z</time></trkpt><trkpt lat="40.3777681" lon="9.1762875"><ele>563.0</ele><time>2026-03-22T11:10:47.247Z</time></trkpt><trkpt lat="40.3776443" lon="9.1764377"><ele>559.3333333333333</ele><time>2026-03-22T11:10:48.246Z</time></trkpt><trkpt lat="40.37752" lon="9.1766047"><ele>555.6666666666666</ele><time>2026-03-22T11:10:49.243Z</time></trkpt><trkpt lat="40.3774064" lon="9.176788"><ele>552.0</ele><time>2026-03-22T11:10:50.273Z</time></trkpt><trkpt lat="40.3772121" lon="9.1771212"><ele>555.0</ele><time>2026-03-22T11:10:52.275Z</time></trkpt><trkpt lat="40.3770363" lon="9.1774042"><ele>558.0</ele><time>2026-03-22T11:10:54.27Z</time></trkpt><trkpt lat="40.3768239" lon="9.1775226"><ele>558.0</ele><time>2026-03-22T11:10:56.278Z</time></trkpt><trkpt lat="40.3765735" lon="9.177518"><ele>558.0</ele><time>2026-03-22T11:10:58.245Z</time></trkpt><trkpt lat="40.376437" lon="9.1775065"><ele>558.0</ele><time>2026-03-22T11:10:59.243Z</time></trkpt><trkpt lat="40.3762976" lon="9.1774837"><ele>561.3333333333334</ele><time>2026-03-22T11:11:00.243Z</time></trkpt><trkpt lat="40.3761517" lon="9.1774351"><ele>564.6666666666667</ele><time>2026-03-22T11:11:01.241Z</time></trkpt><trkpt lat="40.3760023" lon="9.1773994"><ele>568.0</ele><time>2026-03-22T11:11:02.242Z</time></trkpt><trkpt lat="40.3758431" lon="9.1773689"><ele>573.3333333333334</ele><time>2026-03-22T11:11:03.242Z</time></trkpt><trkpt lat="40.3756835" lon="9.1773425"><ele>578.6666666666666</ele><time>2026-03-22T11:11:04.242Z</time></trkpt><trkpt lat="40.3755197" lon="9.1773756"><ele>584.0</ele><time>2026-03-22T11:11:05.241Z</time></trkpt><trkpt lat="40.3753737" lon="9.1774259"><ele>584.0</ele><time>2026-03-22T11:11:06.243Z</time></trkpt><trkpt lat="40.3752361" lon="9.1774819"><ele>584.0</ele><time>2026-03-22T11:11:07.243Z</time></trkpt><trkpt lat="40.3751071" lon="9.1775658"><ele>584.0</ele><time>2026-03-22T11:11:08.244Z</time></trkpt><trkpt lat="40.3750057" lon="9.1776909"><ele>584.0</ele><time>2026-03-22T11:11:09.246Z</time></trkpt><trkpt lat="40.3749005" lon="9.1778235"><ele>584.0</ele><time>2026-03-22T11:11:10.245Z</time></trkpt><trkpt lat="40.3747983" lon="9.1779634"><ele>584.0</ele><time>2026-03-22T11:11:11.246Z</time></trkpt><trkpt lat="40.3747186" lon="9.178199"><ele>584.0</ele><time>2026-03-22T11:11:12.246Z</time></trkpt><trkpt lat="40.3746026" lon="9.1783655"><ele>590.3333333333333</ele><time>2026-03-22T11:11:13.246Z</time></trkpt><trkpt lat="40.3744902" lon="9.1785399"><ele>596.6666666666666</ele><time>2026-03-22T11:11:14.246Z</time></trkpt><trkpt lat="40.3743894" lon="9.1787056"><ele>603.0</ele><time>2026-03-22T11:11:15.247Z</time></trkpt><trkpt lat="40.3743065" lon="9.1788715"><ele>598.75</ele><time>2026-03-22T11:11:16.25Z</time></trkpt><trkpt lat="40.3742253" lon="9.1790191"><ele>594.5</ele><time>2026-03-22T11:11:17.244Z</time></trkpt><trkpt lat="40.3741291" lon="9.1791115"><ele>590.25</ele><time>2026-03-22T11:11:18.244Z</time></trkpt><trkpt lat="40.3740245" lon="9.1792048"><ele>586.0</ele><time>2026-03-22T11:11:19.244Z</time></trkpt><trkpt lat="40.3739244" lon="9.1793095"><ele>593.3333333333334</ele><time>2026-03-22T11:11:20.246Z</time></trkpt><trkpt lat="40.3738055" lon="9.1794002"><ele>600.6666666666666</ele><time>2026-03-22T11:11:21.244Z</time></trkpt><trkpt lat="40.373673" lon="9.1794779"><ele>608.0</ele><time>2026-03-22T11:11:22.244Z</time></trkpt><trkpt lat="40.373533" lon="9.1793391"><ele>608.0</ele><time>2026-03-22T11:11:23.245Z</time></trkpt><trkpt lat="40.3734014" lon="9.1793898"><ele>608.0</ele><time>2026-03-22T11:11:24.246Z</time></trkpt><trkpt lat="40.3732775" lon="9.1794901"><ele>608.0</ele><time>2026-03-22T11:11:25.246Z</time></trkpt><trkpt lat="40.3731561" lon="9.1796045"><ele>608.0</ele><time>2026-03-22T11:11:26.244Z</time></trkpt><trkpt lat="40.373055" lon="9.1797252"><ele>612.6666666666666</ele><time>2026-03-22T11:11:27.245Z</time></trkpt><trkpt lat="40.3729705" lon="9.1798371"><ele>617.3333333333334</ele><time>2026-03-22T11:11:28.245Z</time></trkpt><trkpt lat="40.3728668" lon="9.1801336"><ele>622.0</ele><time>2026-03-22T11:11:30.266Z</time></trkpt><trkpt lat="40.3728863" lon="9.1803275"><ele>622.0</ele><time>2026-03-22T11:11:31.257Z</time></trkpt><trkpt lat="40.3728863" lon="9.1807133"><ele>622.0</ele><time>2026-03-22T11:11:33.26Z</time></trkpt><trkpt lat="40.3728298" lon="9.1811044"><ele>622.0</ele><time>2026-03-22T11:11:35.267Z</time></trkpt><trkpt lat="40.3728444" lon="9.1815125"><ele>622.0</ele><time>2026-03-22T11:11:37.266Z</time></trkpt><trkpt lat="40.3729144" lon="9.1819158"><ele>620.5</ele><time>2026-03-22T11:11:39.282Z</time></trkpt><trkpt lat="40.373" lon="9.1822796"><ele>619.0</ele><time>2026-03-22T11:11:41.26Z</time></trkpt><trkpt lat="40.3731806" lon="9.1826"><ele>614.0</ele><time>2026-03-22T11:11:43.263Z</time></trkpt><trkpt lat="40.3733586" lon="9.1828633"><ele>609.0</ele><time>2026-03-22T11:11:45.259Z</time></trkpt><trkpt lat="40.3734145" lon="9.1831585"><ele>614.5</ele><time>2026-03-22T11:11:47.275Z</time></trkpt><trkpt lat="40.3734182" lon="9.1835018"><ele>620.0</ele><time>2026-03-22T11:11:49.246Z</time></trkpt><trkpt lat="40.3734134" lon="9.1838878"><ele>621.6666666666666</ele><time>2026-03-22T11:11:51.262Z</time></trkpt><trkpt lat="40.3734204" lon="9.1842744"><ele>623.3333333333334</ele><time>2026-03-22T11:11:53.261Z</time></trkpt><trkpt lat="40.3734292" lon="9.1844527"><ele>625.0</ele><time>2026-03-22T11:11:54.246Z</time></trkpt><trkpt lat="40.3734663" lon="9.1846244"><ele>625.0</ele><time>2026-03-22T11:11:55.243Z</time></trkpt><trkpt lat="40.373524" lon="9.1847868"><ele>625.0</ele><time>2026-03-22T11:11:56.26Z</time></trkpt><trkpt lat="40.3736038" lon="9.1849276"><ele>625.0</ele><time>2026-03-22T11:11:57.265Z</time></trkpt><trkpt lat="40.3737843" lon="9.1851449"><ele>624.5</ele><time>2026-03-22T11:11:59.243Z</time></trkpt><trkpt lat="40.3740073" lon="9.185208"><ele>624.0</ele><time>2026-03-22T11:12:01.269Z</time></trkpt><trkpt lat="40.3742494" lon="9.185211"><ele>624.0</ele><time>2026-03-22T11:12:03.261Z</time></trkpt><trkpt lat="40.374354" lon="9.1852563"><ele>624.0</ele><time>2026-03-22T11:12:04.244Z</time></trkpt><trkpt lat="40.3745043" lon="9.1854451"><ele>624.0</ele><time>2026-03-22T11:12:06.258Z</time></trkpt><trkpt lat="40.3745391" lon="9.1857449"><ele>625.5</ele><time>2026-03-22T11:12:08.266Z</time></trkpt><trkpt lat="40.3745986" lon="9.1860977"><ele>627.0</ele><time>2026-03-22T11:12:10.267Z</time></trkpt><trkpt lat="40.3747789" lon="9.1864416"><ele>633.5</ele><time>2026-03-22T11:12:12.265Z</time></trkpt><trkpt lat="40.374996" lon="9.1868069"><ele>640.0</ele><time>2026-03-22T11:12:14.259Z</time></trkpt><trkpt lat="40.3752075" lon="9.1871937"><ele>643.0</ele><time>2026-03-22T11:12:16.258Z</time></trkpt><trkpt lat="40.3753103" lon="9.187355"><ele>646.0</ele><time>2026-03-22T11:12:17.243Z</time></trkpt><trkpt lat="40.3755571" lon="9.1876696"><ele>646.3333333333334</ele><time>2026-03-22T11:12:19.243Z</time></trkpt><trkpt lat="40.375697" lon="9.1878376"><ele>646.6666666666666</ele><time>2026-03-22T11:12:20.243Z</time></trkpt><trkpt lat="40.3758506" lon="9.1880064"><ele>647.0</ele><time>2026-03-22T11:12:21.247Z</time></trkpt><trkpt lat="40.3759947" lon="9.1882007"><ele>648.0</ele><time>2026-03-22T11:12:22.26Z</time></trkpt><trkpt lat="40.3762622" lon="9.1885947"><ele>649.0</ele><time>2026-03-22T11:12:24.264Z</time></trkpt><trkpt lat="40.3765146" lon="9.1890009"><ele>653.5</ele><time>2026-03-22T11:12:26.259Z</time></trkpt><trkpt lat="40.376772" lon="9.1893772"><ele>658.0</ele><time>2026-03-22T11:12:28.246Z</time></trkpt><trkpt lat="40.3768771" lon="9.1895478"><ele>658.0</ele><time>2026-03-22T11:12:29.247Z</time></trkpt><trkpt lat="40.3769801" lon="9.1897006"><ele>658.0</ele><time>2026-03-22T11:12:30.266Z</time></trkpt><trkpt lat="40.3771393" lon="9.1899896"><ele>658.0</ele><time>2026-03-22T11:12:32.271Z</time></trkpt><trkpt lat="40.377211" lon="9.1903137"><ele>662.0</ele><time>2026-03-22T11:12:34.267Z</time></trkpt><trkpt lat="40.3772367" lon="9.1906845"><ele>666.0</ele><time>2026-03-22T11:12:36.249Z</time></trkpt><trkpt lat="40.3772549" lon="9.1910535"><ele>666.0</ele><time>2026-03-22T11:12:38.262Z</time></trkpt><trkpt lat="40.3772949" lon="9.1912314"><ele>666.0</ele><time>2026-03-22T11:12:39.266Z</time></trkpt><trkpt lat="40.3773532" lon="9.1913879"><ele>666.0</ele><time>2026-03-22T11:12:40.243Z</time></trkpt><trkpt lat="40.3774392" lon="9.1915316"><ele>666.0</ele><time>2026-03-22T11:12:41.253Z</time></trkpt><trkpt lat="40.3776499" lon="9.1918384"><ele>669.5</ele><time>2026-03-22T11:12:43.261Z</time></trkpt><trkpt lat="40.3778801" lon="9.1921785"><ele>673.0</ele><time>2026-03-22T11:12:45.263Z</time></trkpt><trkpt lat="40.3779997" lon="9.1923555"><ele>675.0</ele><time>2026-03-22T11:12:46.243Z</time></trkpt><trkpt lat="40.3781061" lon="9.1925125"><ele>677.0</ele><time>2026-03-22T11:12:47.268Z</time></trkpt><trkpt lat="40.3782989" lon="9.1928048"><ele>677.0</ele><time>2026-03-22T11:12:49.245Z</time></trkpt><trkpt lat="40.3783828" lon="9.192939"><ele>677.0</ele><time>2026-03-22T11:12:50.279Z</time></trkpt><trkpt lat="40.3784402" lon="9.1930818"><ele>677.0</ele><time>2026-03-22T11:12:51.275Z</time></trkpt><trkpt lat="40.3784844" lon="9.1932355"><ele>677.0</ele><time>2026-03-22T11:12:52.256Z</time></trkpt><trkpt lat="40.3785283" lon="9.193589"><ele>680.0</ele><time>2026-03-22T11:12:54.271Z</time></trkpt><trkpt lat="40.3785368" lon="9.1937888"><ele>683.0</ele><time>2026-03-22T11:12:55.26Z</time></trkpt><trkpt lat="40.378537" lon="9.1940108"><ele>686.0</ele><time>2026-03-22T11:12:56.266Z</time></trkpt><trkpt lat="40.3785327" lon="9.1942395"><ele>689.0</ele><time>2026-03-22T11:12:57.248Z</time></trkpt><trkpt lat="40.3785336" lon="9.1947224"><ele>692.0</ele><time>2026-03-22T11:12:59.257Z</time></trkpt><trkpt lat="40.3785539" lon="9.1949767"><ele>694.5</ele><time>2026-03-22T11:13:00.243Z</time></trkpt><trkpt lat="40.3786002" lon="9.1954716"><ele>697.0</ele><time>2026-03-22T11:13:02.249Z</time></trkpt><trkpt lat="40.378618" lon="9.1957106"><ele>698.0</ele><time>2026-03-22T11:13:03.243Z</time></trkpt><trkpt lat="40.378643" lon="9.1959327"><ele>699.0</ele><time>2026-03-22T11:13:04.263Z</time></trkpt><trkpt lat="40.3786832" lon="9.1963378"><ele>699.0</ele><time>2026-03-22T11:13:06.245Z</time></trkpt><trkpt lat="40.3786774" lon="9.1965488"><ele>699.0</ele><time>2026-03-22T11:13:07.244Z</time></trkpt><trkpt lat="40.3786595" lon="9.1967777"><ele>699.0</ele><time>2026-03-22T11:13:08.242Z</time></trkpt><trkpt lat="40.3786264" lon="9.1970285"><ele>697.0</ele><time>2026-03-22T11:13:09.259Z</time></trkpt><trkpt lat="40.3785681" lon="9.1975749"><ele>695.0</ele><time>2026-03-22T11:13:11.258Z</time></trkpt><trkpt lat="40.3785036" lon="9.1981453"><ele>695.5</ele><time>2026-03-22T11:13:13.266Z</time></trkpt><trkpt lat="40.3784519" lon="9.1987154"><ele>696.0</ele><time>2026-03-22T11:13:15.262Z</time></trkpt><trkpt lat="40.3784037" lon="9.1992142"><ele>696.5</ele><time>2026-03-22T11:13:17.243Z</time></trkpt><trkpt lat="40.3783504" lon="9.199654"><ele>697.0</ele><time>2026-03-22T11:13:19.251Z</time></trkpt><trkpt lat="40.3783258" lon="9.1998661"><ele>697.0</ele><time>2026-03-22T11:13:20.243Z</time></trkpt><trkpt lat="40.378296" lon="9.2000836"><ele>697.0</ele><time>2026-03-22T11:13:21.243Z</time></trkpt><trkpt lat="40.3782085" lon="9.2005513"><ele>697.0</ele><time>2026-03-22T11:13:23.251Z</time></trkpt><trkpt lat="40.3781352" lon="9.2007874"><ele>697.0</ele><time>2026-03-22T11:13:24.249Z</time></trkpt><trkpt lat="40.3780684" lon="9.2010265"><ele>697.0</ele><time>2026-03-22T11:13:25.246Z</time></trkpt><trkpt lat="40.3779298" lon="9.2015073"><ele>696.0</ele><time>2026-03-22T11:13:27.271Z</time></trkpt><trkpt lat="40.3778588" lon="9.201723"><ele>695.0</ele><time>2026-03-22T11:13:28.243Z</time></trkpt><trkpt lat="40.3777391" lon="9.2021282"><ele>695.0</ele><time>2026-03-22T11:13:30.258Z</time></trkpt><trkpt lat="40.3776718" lon="9.202301"><ele>695.0</ele><time>2026-03-22T11:13:31.244Z</time></trkpt><trkpt lat="40.3774771" lon="9.2026338"><ele>696.5</ele><time>2026-03-22T11:13:33.269Z</time></trkpt><trkpt lat="40.3772269" lon="9.2029696"><ele>698.0</ele><time>2026-03-22T11:13:35.259Z</time></trkpt><trkpt lat="40.3770774" lon="9.203131"><ele>699.0</ele><time>2026-03-22T11:13:36.243Z</time></trkpt><trkpt lat="40.3769168" lon="9.203298"><ele>700.0</ele><time>2026-03-22T11:13:37.245Z</time></trkpt><trkpt lat="40.376751" lon="9.203478"><ele>701.0</ele><time>2026-03-22T11:13:38.253Z</time></trkpt><trkpt lat="40.3766035" lon="9.2036433"><ele>701.0</ele><time>2026-03-22T11:13:39.257Z</time></trkpt><trkpt lat="40.3764549" lon="9.2038007"><ele>701.0</ele><time>2026-03-22T11:13:40.261Z</time></trkpt><trkpt lat="40.3761758" lon="9.2041341"><ele>704.0</ele><time>2026-03-22T11:13:42.277Z</time></trkpt><trkpt lat="40.375918" lon="9.2045386"><ele>707.0</ele><time>2026-03-22T11:13:44.254Z</time></trkpt><trkpt lat="40.375788" lon="9.204755"><ele>708.0</ele><time>2026-03-22T11:13:45.242Z</time></trkpt><trkpt lat="40.3756483" lon="9.2049735"><ele>709.0</ele><time>2026-03-22T11:13:46.245Z</time></trkpt><trkpt lat="40.3753768" lon="9.2054353"><ele>711.5</ele><time>2026-03-22T11:13:48.247Z</time></trkpt><trkpt lat="40.3751357" lon="9.205835"><ele>714.0</ele><time>2026-03-22T11:13:50.242Z</time></trkpt><trkpt lat="40.3749523" lon="9.2061194"><ele>714.0</ele><time>2026-03-22T11:13:52.244Z</time></trkpt><trkpt lat="40.3748899" lon="9.2062172"><ele>714.0</ele><time>2026-03-22T11:13:53.243Z</time></trkpt><trkpt lat="40.3748577" lon="9.2063058"><ele>714.0</ele><time>2026-03-22T11:13:54.288Z</time></trkpt><trkpt lat="40.3748306" lon="9.2063885"><ele>714.0</ele><time>2026-03-22T11:13:55.244Z</time></trkpt><trkpt lat="40.3748058" lon="9.2065091"><ele>714.0</ele><time>2026-03-22T11:13:57.245Z</time></trkpt><trkpt lat="40.3748032" lon="9.2066305"><ele>714.0</ele><time>2026-03-22T11:13:59.248Z</time></trkpt><trkpt lat="40.3748143" lon="9.2067128"><ele>714.8000000000001</ele><time>2026-03-22T11:14:00.244Z</time></trkpt><trkpt lat="40.3748228" lon="9.20682"><ele>715.6</ele><time>2026-03-22T11:14:01.251Z</time></trkpt><trkpt lat="40.3748418" lon="9.2069362"><ele>716.4</ele><time>2026-03-22T11:14:02.248Z</time></trkpt><trkpt lat="40.3748626" lon="9.207076"><ele>717.2</ele><time>2026-03-22T11:14:03.249Z</time></trkpt><trkpt lat="40.3749031" lon="9.2072349"><ele>718.0</ele><time>2026-03-22T11:14:04.246Z</time></trkpt><trkpt lat="40.3749529" lon="9.2074172"><ele>719.0</ele><time>2026-03-22T11:14:05.245Z</time></trkpt><trkpt lat="40.3750076" lon="9.2076187"><ele>720.0</ele><time>2026-03-22T11:14:06.248Z</time></trkpt><trkpt lat="40.3750755" lon="9.207829"><ele>721.0</ele><time>2026-03-22T11:14:07.244Z</time></trkpt><trkpt lat="40.3751539" lon="9.208051"><ele>722.3333333333334</ele><time>2026-03-22T11:14:08.246Z</time></trkpt><trkpt lat="40.3752259" lon="9.2082616"><ele>723.6666666666666</ele><time>2026-03-22T11:14:09.249Z</time></trkpt><trkpt lat="40.3753056" lon="9.2084866"><ele>725.0</ele><time>2026-03-22T11:14:10.246Z</time></trkpt><trkpt lat="40.3753839" lon="9.208726"><ele>725.0</ele><time>2026-03-22T11:14:11.245Z</time></trkpt><trkpt lat="40.3754578" lon="9.2089551"><ele>725.0</ele><time>2026-03-22T11:14:12.247Z</time></trkpt><trkpt lat="40.3755344" lon="9.2091674"><ele>725.0</ele><time>2026-03-22T11:14:13.245Z</time></trkpt><trkpt lat="40.3755927" lon="9.2093688"><ele>727.0</ele><time>2026-03-22T11:14:14.249Z</time></trkpt><trkpt lat="40.3756543" lon="9.2095784"><ele>729.0</ele><time>2026-03-22T11:14:15.247Z</time></trkpt><trkpt lat="40.3757115" lon="9.2098046"><ele>731.0</ele><time>2026-03-22T11:14:16.261Z</time></trkpt><trkpt lat="40.3757946" lon="9.2102821"><ele>734.0</ele><time>2026-03-22T11:14:18.278Z</time></trkpt><trkpt lat="40.3758366" lon="9.2108026"><ele>737.0</ele><time>2026-03-22T11:14:20.267Z</time></trkpt><trkpt lat="40.3758853" lon="9.2113438"><ele>736.6666666666666</ele><time>2026-03-22T11:14:22.275Z</time></trkpt><trkpt lat="40.375911" lon="9.2116057"><ele>736.3333333333334</ele><time>2026-03-22T11:14:23.246Z</time></trkpt><trkpt lat="40.3759418" lon="9.2118745"><ele>736.0</ele><time>2026-03-22T11:14:24.264Z</time></trkpt><trkpt lat="40.3760022" lon="9.2124231"><ele>736.0</ele><time>2026-03-22T11:14:26.245Z</time></trkpt><trkpt lat="40.3760368" lon="9.2126831"><ele>736.0</ele><time>2026-03-22T11:14:27.267Z</time></trkpt><trkpt lat="40.3760782" lon="9.2129297"><ele>736.0</ele><time>2026-03-22T11:14:28.247Z</time></trkpt><trkpt lat="40.3760918" lon="9.2131706"><ele>736.0</ele><time>2026-03-22T11:14:29.245Z</time></trkpt><trkpt lat="40.3761186" lon="9.2134163"><ele>736.0</ele><time>2026-03-22T11:14:30.243Z</time></trkpt><trkpt lat="40.376148" lon="9.2136584"><ele>736.0</ele><time>2026-03-22T11:14:31.244Z</time></trkpt><trkpt lat="40.3761961" lon="9.2138991"><ele>735.6666666666667</ele><time>2026-03-22T11:14:32.243Z</time></trkpt><trkpt lat="40.3762666" lon="9.2141358"><ele>735.3333333333334</ele><time>2026-03-22T11:14:33.244Z</time></trkpt><trkpt lat="40.3763493" lon="9.2143844"><ele>735.0</ele><time>2026-03-22T11:14:34.268Z</time></trkpt><trkpt lat="40.3764296" lon="9.2146173"><ele>734.3333333333334</ele><time>2026-03-22T11:14:35.244Z</time></trkpt><trkpt lat="40.3765046" lon="9.2148418"><ele>733.6666666666667</ele><time>2026-03-22T11:14:36.245Z</time></trkpt><trkpt lat="40.3765785" lon="9.2150571"><ele>733.0</ele><time>2026-03-22T11:14:37.246Z</time></trkpt><trkpt lat="40.3766477" lon="9.215256"><ele>733.0</ele><time>2026-03-22T11:14:38.245Z</time></trkpt><trkpt lat="40.3766973" lon="9.2154593"><ele>733.0</ele><time>2026-03-22T11:14:39.246Z</time></trkpt><trkpt lat="40.376729" lon="9.2156726"><ele>733.0</ele><time>2026-03-22T11:14:40.247Z</time></trkpt><trkpt lat="40.376712" lon="9.2163593"><ele>735.3333333333334</ele><time>2026-03-22T11:14:43.244Z</time></trkpt><trkpt lat="40.3766973" lon="9.2166132"><ele>737.6666666666666</ele><time>2026-03-22T11:14:44.244Z</time></trkpt><trkpt lat="40.3766746" lon="9.2168779"><ele>740.0</ele><time>2026-03-22T11:14:45.243Z</time></trkpt><trkpt lat="40.3766581" lon="9.2171602"><ele>741.3333333333333</ele><time>2026-03-22T11:14:46.242Z</time></trkpt><trkpt lat="40.3766351" lon="9.2174455"><ele>742.6666666666666</ele><time>2026-03-22T11:14:47.245Z</time></trkpt><trkpt lat="40.3766116" lon="9.2177305"><ele>744.0</ele><time>2026-03-22T11:14:48.248Z</time></trkpt><trkpt lat="40.3765873" lon="9.2180286"><ele>746.0</ele><time>2026-03-22T11:14:49.274Z</time></trkpt><trkpt lat="40.376549" lon="9.2186324"><ele>746.0</ele><time>2026-03-22T11:14:51.245Z</time></trkpt><trkpt lat="40.3765327" lon="9.2189226"><ele>746.0</ele><time>2026-03-22T11:14:52.248Z</time></trkpt><trkpt lat="40.3765126" lon="9.2192207"><ele>747.0</ele><time>2026-03-22T11:14:53.246Z</time></trkpt><trkpt lat="40.3764903" lon="9.2195163"><ele>748.0</ele><time>2026-03-22T11:14:54.246Z</time></trkpt><trkpt lat="40.3764631" lon="9.2198034"><ele>749.0</ele><time>2026-03-22T11:14:55.268Z</time></trkpt><trkpt lat="40.3764402" lon="9.2200888"><ele>751.0</ele><time>2026-03-22T11:14:56.264Z</time></trkpt><trkpt lat="40.3763934" lon="9.2206497"><ele>753.0</ele><time>2026-03-22T11:14:58.268Z</time></trkpt><trkpt lat="40.3763482" lon="9.2212529"><ele>755.3333333333334</ele><time>2026-03-22T11:15:00.244Z</time></trkpt><trkpt lat="40.3763296" lon="9.2215444"><ele>757.6666666666667</ele><time>2026-03-22T11:15:01.247Z</time></trkpt><trkpt lat="40.3763092" lon="9.2218218"><ele>760.0</ele><time>2026-03-22T11:15:02.246Z</time></trkpt><trkpt lat="40.3762857" lon="9.2220776"><ele>760.0</ele><time>2026-03-22T11:15:03.248Z</time></trkpt><trkpt lat="40.3762685" lon="9.2223096"><ele>760.0</ele><time>2026-03-22T11:15:04.246Z</time></trkpt><trkpt lat="40.376262" lon="9.2225349"><ele>760.0</ele><time>2026-03-22T11:15:05.246Z</time></trkpt><trkpt lat="40.3762609" lon="9.2227513"><ele>760.0</ele><time>2026-03-22T11:15:06.257Z</time></trkpt><trkpt lat="40.3762802" lon="9.2229853"><ele>760.0</ele><time>2026-03-22T11:15:07.245Z</time></trkpt><trkpt lat="40.3763167" lon="9.2232378"><ele>760.0</ele><time>2026-03-22T11:15:08.246Z</time></trkpt><trkpt lat="40.3763548" lon="9.2234899"><ele>760.3333333333334</ele><time>2026-03-22T11:15:09.246Z</time></trkpt><trkpt lat="40.3763439" lon="9.2237551"><ele>760.6666666666666</ele><time>2026-03-22T11:15:10.246Z</time></trkpt><trkpt lat="40.3763045" lon="9.2240318"><ele>761.0</ele><time>2026-03-22T11:15:11.247Z</time></trkpt><trkpt lat="40.3764054" lon="9.2242871"><ele>761.0</ele><time>2026-03-22T11:15:12.247Z</time></trkpt><trkpt lat="40.3764648" lon="9.2245637"><ele>761.0</ele><time>2026-03-22T11:15:13.246Z</time></trkpt><trkpt lat="40.3765066" lon="9.2248388"><ele>761.0</ele><time>2026-03-22T11:15:14.247Z</time></trkpt><trkpt lat="40.3765454" lon="9.2251024"><ele>763.0</ele><time>2026-03-22T11:15:15.245Z</time></trkpt><trkpt lat="40.3765903" lon="9.2253463"><ele>765.0</ele><time>2026-03-22T11:15:16.247Z</time></trkpt><trkpt lat="40.3766228" lon="9.2255587"><ele>767.0</ele><time>2026-03-22T11:15:17.244Z</time></trkpt><trkpt lat="40.3766496" lon="9.2257675"><ele>768.3333333333333</ele><time>2026-03-22T11:15:18.247Z</time></trkpt><trkpt lat="40.3766711" lon="9.2259725"><ele>769.6666666666666</ele><time>2026-03-22T11:15:19.248Z</time></trkpt><trkpt lat="40.3766812" lon="9.2261888"><ele>771.0</ele><time>2026-03-22T11:15:20.248Z</time></trkpt><trkpt lat="40.376684" lon="9.2264141"><ele>772.3333333333333</ele><time>2026-03-22T11:15:21.246Z</time></trkpt><trkpt lat="40.3766639" lon="9.2266495"><ele>773.6666666666666</ele><time>2026-03-22T11:15:22.246Z</time></trkpt><trkpt lat="40.3766593" lon="9.2268933"><ele>775.0</ele><time>2026-03-22T11:15:23.247Z</time></trkpt><trkpt lat="40.3766627" lon="9.2271359"><ele>775.3333333333333</ele><time>2026-03-22T11:15:24.246Z</time></trkpt><trkpt lat="40.3766655" lon="9.2273864"><ele>775.6666666666667</ele><time>2026-03-22T11:15:25.247Z</time></trkpt><trkpt lat="40.3766644" lon="9.2276194"><ele>776.0</ele><time>2026-03-22T11:15:26.246Z</time></trkpt><trkpt lat="40.3766624" lon="9.2278349"><ele>776.0</ele><time>2026-03-22T11:15:27.246Z</time></trkpt><trkpt lat="40.3766501" lon="9.2280558"><ele>776.0</ele><time>2026-03-22T11:15:28.247Z</time></trkpt><trkpt lat="40.3766203" lon="9.2282743"><ele>776.0</ele><time>2026-03-22T11:15:29.247Z</time></trkpt><trkpt lat="40.3765732" lon="9.2284977"><ele>776.0</ele><time>2026-03-22T11:15:30.248Z</time></trkpt><trkpt lat="40.3764978" lon="9.2287243"><ele>776.0</ele><time>2026-03-22T11:15:31.274Z</time></trkpt><trkpt lat="40.3764206" lon="9.2289546"><ele>776.0</ele><time>2026-03-22T11:15:32.244Z</time></trkpt><trkpt lat="40.3762428" lon="9.2294192"><ele>780.0</ele><time>2026-03-22T11:15:34.244Z</time></trkpt><trkpt lat="40.3761636" lon="9.2296416"><ele>784.0</ele><time>2026-03-22T11:15:35.244Z</time></trkpt><trkpt lat="40.3760855" lon="9.2298452"><ele>788.0</ele><time>2026-03-22T11:15:36.26Z</time></trkpt><trkpt lat="40.3759693" lon="9.2302064"><ele>788.0</ele><time>2026-03-22T11:15:38.275Z</time></trkpt><trkpt lat="40.3759309" lon="9.2305731"><ele>788.0</ele><time>2026-03-22T11:15:40.264Z</time></trkpt><trkpt lat="40.3759801" lon="9.2309581"><ele>788.0</ele><time>2026-03-22T11:15:42.264Z</time></trkpt><trkpt lat="40.376105" lon="9.2313755"><ele>788.0</ele><time>2026-03-22T11:15:44.245Z</time></trkpt><trkpt lat="40.3761787" lon="9.2315952"><ele>788.6666666666667</ele><time>2026-03-22T11:15:45.246Z</time></trkpt><trkpt lat="40.3762574" lon="9.2318209"><ele>789.3333333333333</ele><time>2026-03-22T11:15:46.248Z</time></trkpt><trkpt lat="40.3763337" lon="9.2320522"><ele>790.0</ele><time>2026-03-22T11:15:47.245Z</time></trkpt><trkpt lat="40.3764071" lon="9.2322967"><ele>790.6666666666666</ele><time>2026-03-22T11:15:48.246Z</time></trkpt><trkpt lat="40.3764852" lon="9.2325413"><ele>791.3333333333333</ele><time>2026-03-22T11:15:49.246Z</time></trkpt><trkpt lat="40.3765655" lon="9.2327959"><ele>792.0</ele><time>2026-03-22T11:15:50.247Z</time></trkpt><trkpt lat="40.3766501" lon="9.233052"><ele>793.6666666666667</ele><time>2026-03-22T11:15:51.244Z</time></trkpt><trkpt lat="40.3767286" lon="9.2333143"><ele>795.3333333333334</ele><time>2026-03-22T11:15:52.243Z</time></trkpt><trkpt lat="40.3768129" lon="9.2335763"><ele>797.0</ele><time>2026-03-22T11:15:53.243Z</time></trkpt><trkpt lat="40.376891" lon="9.2338386"><ele>797.0</ele><time>2026-03-22T11:15:54.243Z</time></trkpt><trkpt lat="40.3769723" lon="9.234109"><ele>797.0</ele><time>2026-03-22T11:15:55.243Z</time></trkpt><trkpt lat="40.3770548" lon="9.2343751"><ele>797.0</ele><time>2026-03-22T11:15:56.244Z</time></trkpt><trkpt lat="40.377139" lon="9.234626"><ele>798.0</ele><time>2026-03-22T11:15:57.242Z</time></trkpt><trkpt lat="40.3772195" lon="9.2348757"><ele>799.0</ele><time>2026-03-22T11:15:58.244Z</time></trkpt><trkpt lat="40.3772957" lon="9.2351136"><ele>800.0</ele><time>2026-03-22T11:15:59.251Z</time></trkpt><trkpt lat="40.3773761" lon="9.2353598"><ele>800.0</ele><time>2026-03-22T11:16:00.266Z</time></trkpt><trkpt lat="40.3774369" lon="9.2355911"><ele>800.0</ele><time>2026-03-22T11:16:01.26Z</time></trkpt><trkpt lat="40.3775269" lon="9.2360092"><ele>801.0</ele><time>2026-03-22T11:16:03.244Z</time></trkpt><trkpt lat="40.377576" lon="9.2361983"><ele>802.0</ele><time>2026-03-22T11:16:04.262Z</time></trkpt><trkpt lat="40.3776165" lon="9.2363805"><ele>803.0</ele><time>2026-03-22T11:16:05.26Z</time></trkpt><trkpt lat="40.377669" lon="9.2367739"><ele>803.6666666666667</ele><time>2026-03-22T11:16:07.274Z</time></trkpt><trkpt lat="40.3776462" lon="9.2369736"><ele>804.3333333333333</ele><time>2026-03-22T11:16:08.282Z</time></trkpt><trkpt lat="40.3775947" lon="9.2371713"><ele>805.0</ele><time>2026-03-22T11:16:09.291Z</time></trkpt><trkpt lat="40.3774463" lon="9.2375984"><ele>805.5</ele><time>2026-03-22T11:16:11.243Z</time></trkpt><trkpt lat="40.3772962" lon="9.2380671"><ele>806.0</ele><time>2026-03-22T11:16:13.258Z</time></trkpt><trkpt lat="40.3772187" lon="9.2383075"><ele>806.0</ele><time>2026-03-22T11:16:14.262Z</time></trkpt><trkpt lat="40.3770561" lon="9.2388155"><ele>806.0</ele><time>2026-03-22T11:16:16.26Z</time></trkpt><trkpt lat="40.3768784" lon="9.2393164"><ele>806.6666666666667</ele><time>2026-03-22T11:16:18.246Z</time></trkpt><trkpt lat="40.376789" lon="9.239573"><ele>807.3333333333333</ele><time>2026-03-22T11:16:19.247Z</time></trkpt><trkpt lat="40.3767181" lon="9.2397872"><ele>808.0</ele><time>2026-03-22T11:16:20.264Z</time></trkpt><trkpt lat="40.376652" lon="9.2399938"><ele>808.0</ele><time>2026-03-22T11:16:21.258Z</time></trkpt><trkpt lat="40.3765948" lon="9.2401968"><ele>808.0</ele><time>2026-03-22T11:16:22.25Z</time></trkpt><trkpt lat="40.3765191" lon="9.2405669"><ele>807.6666666666666</ele><time>2026-03-22T11:16:24.269Z</time></trkpt><trkpt lat="40.3765099" lon="9.2407756"><ele>807.3333333333333</ele><time>2026-03-22T11:16:25.266Z</time></trkpt><trkpt lat="40.3765203" lon="9.2409975"><ele>807.0</ele><time>2026-03-22T11:16:26.254Z</time></trkpt><trkpt lat="40.3765355" lon="9.2414952"><ele>806.5</ele><time>2026-03-22T11:16:28.274Z</time></trkpt><trkpt lat="40.3765522" lon="9.2420441"><ele>806.0</ele><time>2026-03-22T11:16:30.26Z</time></trkpt><trkpt lat="40.376559" lon="9.242329"><ele>805.3333333333334</ele><time>2026-03-22T11:16:31.267Z</time></trkpt><trkpt lat="40.3765699" lon="9.2426082"><ele>804.6666666666667</ele><time>2026-03-22T11:16:32.244Z</time></trkpt><trkpt lat="40.3765894" lon="9.2428743"><ele>804.0</ele><time>2026-03-22T11:16:33.244Z</time></trkpt><trkpt lat="40.376591" lon="9.2431149"><ele>803.5</ele><time>2026-03-22T11:16:34.258Z</time></trkpt><trkpt lat="40.376598" lon="9.2435747"><ele>803.0</ele><time>2026-03-22T11:16:36.244Z</time></trkpt><trkpt lat="40.3766049" lon="9.2437695"><ele>803.0</ele><time>2026-03-22T11:16:37.258Z</time></trkpt><trkpt lat="40.3766084" lon="9.2439517"><ele>803.0</ele><time>2026-03-22T11:16:38.265Z</time></trkpt><trkpt lat="40.3765508" lon="9.2442873"><ele>803.0</ele><time>2026-03-22T11:16:40.27Z</time></trkpt><trkpt lat="40.3765126" lon="9.2444488"><ele>797.5</ele><time>2026-03-22T11:16:41.259Z</time></trkpt><trkpt lat="40.3763114" lon="9.2447181"><ele>792.0</ele><time>2026-03-22T11:16:43.246Z</time></trkpt><trkpt lat="40.3760479" lon="9.2449397"><ele>792.0</ele><time>2026-03-22T11:16:45.279Z</time></trkpt><trkpt lat="40.3759153" lon="9.2450307"><ele>792.0</ele><time>2026-03-22T11:16:46.245Z</time></trkpt><trkpt lat="40.3757875" lon="9.2451168"><ele>792.0</ele><time>2026-03-22T11:16:47.244Z</time></trkpt><trkpt lat="40.3756909" lon="9.2452287"><ele>792.0</ele><time>2026-03-22T11:16:48.264Z</time></trkpt><trkpt lat="40.3756156" lon="9.2453546"><ele>793.0</ele><time>2026-03-22T11:16:49.249Z</time></trkpt><trkpt lat="40.3755271" lon="9.2456552"><ele>794.0</ele><time>2026-03-22T11:16:51.259Z</time></trkpt><trkpt lat="40.3755302" lon="9.2458659"><ele>795.0</ele><time>2026-03-22T11:16:52.247Z</time></trkpt><trkpt lat="40.3755269" lon="9.246083"><ele>795.0</ele><time>2026-03-22T11:16:53.245Z</time></trkpt><trkpt lat="40.3755221" lon="9.2463021"><ele>795.0</ele><time>2026-03-22T11:16:54.291Z</time></trkpt><trkpt lat="40.3755097" lon="9.2465023"><ele>795.0</ele><time>2026-03-22T11:16:55.265Z</time></trkpt><trkpt lat="40.3754246" lon="9.2468949"><ele>790.5</ele><time>2026-03-22T11:16:57.261Z</time></trkpt><trkpt lat="40.3753268" lon="9.2472564"><ele>786.0</ele><time>2026-03-22T11:16:59.264Z</time></trkpt><trkpt lat="40.3752589" lon="9.2475894"><ele>786.0</ele><time>2026-03-22T11:17:01.245Z</time></trkpt><trkpt lat="40.3752552" lon="9.247935"><ele>786.0</ele><time>2026-03-22T11:17:03.261Z</time></trkpt><trkpt lat="40.3752887" lon="9.2481078"><ele>786.0</ele><time>2026-03-22T11:17:04.244Z</time></trkpt><trkpt lat="40.3754527" lon="9.2484561"><ele>786.3333333333333</ele><time>2026-03-22T11:17:06.258Z</time></trkpt><trkpt lat="40.3755394" lon="9.2486334"><ele>786.6666666666666</ele><time>2026-03-22T11:17:07.278Z</time></trkpt><trkpt lat="40.3756232" lon="9.2488382"><ele>787.0</ele><time>2026-03-22T11:17:08.255Z</time></trkpt><trkpt lat="40.3758083" lon="9.2492818"><ele>787.0</ele><time>2026-03-22T11:17:10.265Z</time></trkpt><trkpt lat="40.3760007" lon="9.2497479"><ele>787.0</ele><time>2026-03-22T11:17:12.244Z</time></trkpt><trkpt lat="40.3762367" lon="9.2502296"><ele>789.0</ele><time>2026-03-22T11:17:14.265Z</time></trkpt><trkpt lat="40.376334" lon="9.2504511"><ele>791.0</ele><time>2026-03-22T11:17:15.281Z</time></trkpt><trkpt lat="40.3765172" lon="9.2508649"><ele>788.0</ele><time>2026-03-22T11:17:17.269Z</time></trkpt><trkpt lat="40.3766061" lon="9.2510626"><ele>785.0</ele><time>2026-03-22T11:17:18.244Z</time></trkpt><trkpt lat="40.3766895" lon="9.2512495"><ele>782.0</ele><time>2026-03-22T11:17:19.243Z</time></trkpt><trkpt lat="40.3767871" lon="9.2514343"><ele>785.0</ele><time>2026-03-22T11:17:20.245Z</time></trkpt><trkpt lat="40.3768125" lon="9.251633"><ele>788.0</ele><time>2026-03-22T11:17:21.256Z</time></trkpt><trkpt lat="40.376855" lon="9.2518516"><ele>791.0</ele><time>2026-03-22T11:17:22.266Z</time></trkpt><trkpt lat="40.3769234" lon="9.2522815"><ele>793.0</ele><time>2026-03-22T11:17:24.261Z</time></trkpt><trkpt lat="40.3769912" lon="9.2526889"><ele>795.0</ele><time>2026-03-22T11:17:26.246Z</time></trkpt><trkpt lat="40.377043" lon="9.2528795"><ele>795.0</ele><time>2026-03-22T11:17:27.244Z</time></trkpt><trkpt lat="40.377092" lon="9.2530481"><ele>795.0</ele><time>2026-03-22T11:17:28.246Z</time></trkpt><trkpt lat="40.377113" lon="9.2532132"><ele>795.0</ele><time>2026-03-22T11:17:29.246Z</time></trkpt><trkpt lat="40.3771082" lon="9.2533763"><ele>795.0</ele><time>2026-03-22T11:17:30.274Z</time></trkpt><trkpt lat="40.3770689" lon="9.2535291"><ele>795.0</ele><time>2026-03-22T11:17:31.245Z</time></trkpt><trkpt lat="40.3770135" lon="9.253664"><ele>795.0</ele><time>2026-03-22T11:17:32.246Z</time></trkpt><trkpt lat="40.3769405" lon="9.2537882"><ele>795.0</ele><time>2026-03-22T11:17:33.246Z</time></trkpt><trkpt lat="40.3768752" lon="9.2539673"><ele>795.0</ele><time>2026-03-22T11:17:34.259Z</time></trkpt><trkpt lat="40.3768143" lon="9.254106"><ele>795.0</ele><time>2026-03-22T11:17:35.261Z</time></trkpt><trkpt lat="40.3767032" lon="9.2544019"><ele>795.0</ele><time>2026-03-22T11:17:37.263Z</time></trkpt><trkpt lat="40.3766601" lon="9.2545426"><ele>795.0</ele><time>2026-03-22T11:17:38.251Z</time></trkpt><trkpt lat="40.3767386" lon="9.2548782"><ele>796.0</ele><time>2026-03-22T11:17:40.261Z</time></trkpt><trkpt lat="40.3769028" lon="9.2551818"><ele>797.0</ele><time>2026-03-22T11:17:42.265Z</time></trkpt><trkpt lat="40.3770991" lon="9.25551"><ele>794.0</ele><time>2026-03-22T11:17:44.263Z</time></trkpt><trkpt lat="40.3773153" lon="9.2558605"><ele>791.0</ele><time>2026-03-22T11:17:46.265Z</time></trkpt><trkpt lat="40.3775197" lon="9.2562691"><ele>793.5</ele><time>2026-03-22T11:17:48.247Z</time></trkpt><trkpt lat="40.3777034" lon="9.2567505"><ele>796.0</ele><time>2026-03-22T11:17:50.258Z</time></trkpt><trkpt lat="40.3778958" lon="9.2572555"><ele>799.0</ele><time>2026-03-22T11:17:52.26Z</time></trkpt><trkpt lat="40.3780059" lon="9.2575246"><ele>802.0</ele><time>2026-03-22T11:17:53.244Z</time></trkpt><trkpt lat="40.3781067" lon="9.2577799"><ele>796.0</ele><time>2026-03-22T11:17:54.263Z</time></trkpt><trkpt lat="40.3782057" lon="9.2580244"><ele>790.0</ele><time>2026-03-22T11:17:55.286Z</time></trkpt><trkpt lat="40.3783899" lon="9.2584866"><ele>790.0</ele><time>2026-03-22T11:17:57.267Z</time></trkpt><trkpt lat="40.3785502" lon="9.2589107"><ele>790.0</ele><time>2026-03-22T11:17:59.244Z</time></trkpt><trkpt lat="40.3786205" lon="9.2590919"><ele>789.5</ele><time>2026-03-22T11:18:00.246Z</time></trkpt><trkpt lat="40.378695" lon="9.2592615"><ele>789.0</ele><time>2026-03-22T11:18:01.246Z</time></trkpt><trkpt lat="40.3787883" lon="9.2594134"><ele>788.5</ele><time>2026-03-22T11:18:02.264Z</time></trkpt><trkpt lat="40.3788802" lon="9.2595527"><ele>788.0</ele><time>2026-03-22T11:18:03.273Z</time></trkpt><trkpt lat="40.3791235" lon="9.2597931"><ele>788.0</ele><time>2026-03-22T11:18:05.244Z</time></trkpt><trkpt lat="40.3792504" lon="9.259916"><ele>788.0</ele><time>2026-03-22T11:18:06.281Z</time></trkpt><trkpt lat="40.3793521" lon="9.2600449"><ele>788.0</ele><time>2026-03-22T11:18:07.27Z</time></trkpt><trkpt lat="40.3795322" lon="9.2602648"><ele>785.5</ele><time>2026-03-22T11:18:09.263Z</time></trkpt><trkpt lat="40.3796086" lon="9.2606706"><ele>783.0</ele><time>2026-03-22T11:18:11.26Z</time></trkpt><trkpt lat="40.3797706" lon="9.2609549"><ele>783.0</ele><time>2026-03-22T11:18:13.243Z</time></trkpt><trkpt lat="40.3798755" lon="9.2610488"><ele>783.0</ele><time>2026-03-22T11:18:14.285Z</time></trkpt><trkpt lat="40.379988" lon="9.2611211"><ele>783.0</ele><time>2026-03-22T11:18:15.264Z</time></trkpt><trkpt lat="40.3801503" lon="9.2611321"><ele>783.0</ele><time>2026-03-22T11:18:16.244Z</time></trkpt><trkpt lat="40.3804664" lon="9.2611777"><ele>780.0</ele><time>2026-03-22T11:18:18.245Z</time></trkpt><trkpt lat="40.3806653" lon="9.2612014"><ele>777.0</ele><time>2026-03-22T11:18:19.271Z</time></trkpt><trkpt lat="40.381026" lon="9.2612543"><ele>774.0</ele><time>2026-03-22T11:18:21.27Z</time></trkpt><trkpt lat="40.3813633" lon="9.2613143"><ele>771.0</ele><time>2026-03-22T11:18:23.274Z</time></trkpt><trkpt lat="40.3816977" lon="9.2614597"><ele>773.0</ele><time>2026-03-22T11:18:25.264Z</time></trkpt><trkpt lat="40.3820231" lon="9.2616429"><ele>775.0</ele><time>2026-03-22T11:18:27.293Z</time></trkpt><trkpt lat="40.3823141" lon="9.2618197"><ele>775.0</ele><time>2026-03-22T11:18:29.258Z</time></trkpt><trkpt lat="40.3825434" lon="9.2620408"><ele>775.0</ele><time>2026-03-22T11:18:31.265Z</time></trkpt><trkpt lat="40.3827059" lon="9.2623263"><ele>778.3333333333333</ele><time>2026-03-22T11:18:33.271Z</time></trkpt><trkpt lat="40.3827929" lon="9.262494"><ele>781.6666666666667</ele><time>2026-03-22T11:18:34.246Z</time></trkpt><trkpt lat="40.3828083" lon="9.2626954"><ele>785.0</ele><time>2026-03-22T11:18:35.245Z</time></trkpt><trkpt lat="40.382893" lon="9.2628785"><ele>785.0</ele><time>2026-03-22T11:18:36.244Z</time></trkpt><trkpt lat="40.382958" lon="9.2630684"><ele>785.0</ele><time>2026-03-22T11:18:37.259Z</time></trkpt><trkpt lat="40.3830841" lon="9.263417"><ele>781.5</ele><time>2026-03-22T11:18:39.265Z</time></trkpt><trkpt lat="40.3831534" lon="9.2637952"><ele>778.0</ele><time>2026-03-22T11:18:41.286Z</time></trkpt><trkpt lat="40.3831643" lon="9.2642324"><ele>778.0</ele><time>2026-03-22T11:18:43.244Z</time></trkpt><trkpt lat="40.3831589" lon="9.2644846"><ele>778.0</ele><time>2026-03-22T11:18:44.275Z</time></trkpt><trkpt lat="40.3831506" lon="9.2647425"><ele>778.0</ele><time>2026-03-22T11:18:45.284Z</time></trkpt><trkpt lat="40.383139" lon="9.2649979"><ele>777.5</ele><time>2026-03-22T11:18:46.257Z</time></trkpt><trkpt lat="40.3831279" lon="9.2652425"><ele>777.0</ele><time>2026-03-22T11:18:47.267Z</time></trkpt><trkpt lat="40.3831131" lon="9.2656977"><ele>777.0</ele><time>2026-03-22T11:18:49.245Z</time></trkpt><trkpt lat="40.3831219" lon="9.2659227"><ele>777.0</ele><time>2026-03-22T11:18:50.246Z</time></trkpt><trkpt lat="40.3831337" lon="9.2661487"><ele>777.0</ele><time>2026-03-22T11:18:51.246Z</time></trkpt><trkpt lat="40.3831798" lon="9.2663831"><ele>777.5</ele><time>2026-03-22T11:18:52.273Z</time></trkpt><trkpt lat="40.3832802" lon="9.2668663"><ele>778.0</ele><time>2026-03-22T11:18:54.258Z</time></trkpt><trkpt lat="40.383409" lon="9.2673809"><ele>779.0</ele><time>2026-03-22T11:18:56.278Z</time></trkpt><trkpt lat="40.3834669" lon="9.2676442"><ele>780.0</ele><time>2026-03-22T11:18:57.262Z</time></trkpt><trkpt lat="40.3835908" lon="9.268145"><ele>780.5</ele><time>2026-03-22T11:18:59.267Z</time></trkpt><trkpt lat="40.3836999" lon="9.2685882"><ele>781.0</ele><time>2026-03-22T11:19:01.272Z</time></trkpt><trkpt lat="40.3837766" lon="9.2689759"><ele>781.0</ele><time>2026-03-22T11:19:03.249Z</time></trkpt><trkpt lat="40.3837901" lon="9.2691547"><ele>781.0</ele><time>2026-03-22T11:19:04.271Z</time></trkpt><trkpt lat="40.3837647" lon="9.2693277"><ele>781.0</ele><time>2026-03-22T11:19:05.259Z</time></trkpt><trkpt lat="40.3836262" lon="9.2696791"><ele>779.6666666666666</ele><time>2026-03-22T11:19:07.271Z</time></trkpt><trkpt lat="40.3835372" lon="9.2698562"><ele>778.3333333333333</ele><time>2026-03-22T11:19:08.248Z</time></trkpt><trkpt lat="40.3834497" lon="9.270035"><ele>777.0</ele><time>2026-03-22T11:19:09.247Z</time></trkpt><trkpt lat="40.3833651" lon="9.2702032"><ele>777.0</ele><time>2026-03-22T11:19:10.26Z</time></trkpt><trkpt lat="40.3832919" lon="9.270362"><ele>777.0</ele><time>2026-03-22T11:19:11.282Z</time></trkpt><trkpt lat="40.3831911" lon="9.2706763"><ele>777.0</ele><time>2026-03-22T11:19:13.262Z</time></trkpt><trkpt lat="40.3831988" lon="9.2710455"><ele>776.0</ele><time>2026-03-22T11:19:15.267Z</time></trkpt><trkpt lat="40.3832817" lon="9.2714571"><ele>775.0</ele><time>2026-03-22T11:19:17.283Z</time></trkpt><trkpt lat="40.3833619" lon="9.2718546"><ele>775.0</ele><time>2026-03-22T11:19:19.256Z</time></trkpt><trkpt lat="40.3833996" lon="9.2722402"><ele>775.0</ele><time>2026-03-22T11:19:21.272Z</time></trkpt><trkpt lat="40.3833578" lon="9.2726494"><ele>774.0</ele><time>2026-03-22T11:19:23.262Z</time></trkpt><trkpt lat="40.3832755" lon="9.2731118"><ele>773.0</ele><time>2026-03-22T11:19:25.263Z</time></trkpt><trkpt lat="40.38318" lon="9.2736203"><ele>773.0</ele><time>2026-03-22T11:19:27.263Z</time></trkpt><trkpt lat="40.3830954" lon="9.2741085"><ele>773.0</ele><time>2026-03-22T11:19:29.27Z</time></trkpt><trkpt lat="40.383019" lon="9.2745355"><ele>773.5</ele><time>2026-03-22T11:19:31.271Z</time></trkpt><trkpt lat="40.3829845" lon="9.2749053"><ele>774.0</ele><time>2026-03-22T11:19:33.27Z</time></trkpt><trkpt lat="40.383025" lon="9.2752839"><ele>775.0</ele><time>2026-03-22T11:19:35.27Z</time></trkpt><trkpt lat="40.3831379" lon="9.2756988"><ele>776.0</ele><time>2026-03-22T11:19:37.262Z</time></trkpt><trkpt lat="40.3832908" lon="9.2761736"><ele>776.0</ele><time>2026-03-22T11:19:39.263Z</time></trkpt><trkpt lat="40.3834708" lon="9.2767086"><ele>776.0</ele><time>2026-03-22T11:19:41.261Z</time></trkpt><trkpt lat="40.3835603" lon="9.2769691"><ele>776.0</ele><time>2026-03-22T11:19:42.248Z</time></trkpt><trkpt lat="40.3836445" lon="9.2772168"><ele>776.0</ele><time>2026-03-22T11:19:43.247Z</time></trkpt><trkpt lat="40.3837174" lon="9.2774503"><ele>776.0</ele><time>2026-03-22T11:19:44.273Z</time></trkpt><trkpt lat="40.3837912" lon="9.2776534"><ele>776.5</ele><time>2026-03-22T11:19:45.263Z</time></trkpt><trkpt lat="40.3839117" lon="9.2780213"><ele>777.0</ele><time>2026-03-22T11:19:47.289Z</time></trkpt><trkpt lat="40.3840752" lon="9.2783294"><ele>777.0</ele><time>2026-03-22T11:19:49.244Z</time></trkpt><trkpt lat="40.3843261" lon="9.2786118"><ele>777.0</ele><time>2026-03-22T11:19:51.265Z</time></trkpt><trkpt lat="40.3844685" lon="9.2787482"><ele>774.0</ele><time>2026-03-22T11:19:52.261Z</time></trkpt><trkpt lat="40.3847481" lon="9.278996"><ele>771.0</ele><time>2026-03-22T11:19:54.243Z</time></trkpt><trkpt lat="40.3848608" lon="9.2791148"><ele>771.0</ele><time>2026-03-22T11:19:55.259Z</time></trkpt><trkpt lat="40.3849597" lon="9.2792532"><ele>771.0</ele><time>2026-03-22T11:19:56.266Z</time></trkpt><trkpt lat="40.3851021" lon="9.2795867"><ele>771.0</ele><time>2026-03-22T11:19:58.264Z</time></trkpt><trkpt lat="40.3851988" lon="9.2799972"><ele>768.6666666666666</ele><time>2026-03-22T11:20:00.272Z</time></trkpt><trkpt lat="40.3852593" lon="9.2801918"><ele>766.3333333333333</ele><time>2026-03-22T11:20:01.248Z</time></trkpt><trkpt lat="40.3853134" lon="9.2803776"><ele>764.0</ele><time>2026-03-22T11:20:02.261Z</time></trkpt><trkpt lat="40.3853972" lon="9.2807188"><ele>764.0</ele><time>2026-03-22T11:20:04.244Z</time></trkpt><trkpt lat="40.3854415" lon="9.2808906"><ele>764.0</ele><time>2026-03-22T11:20:05.245Z</time></trkpt><trkpt lat="40.3855453" lon="9.2810257"><ele>764.0</ele><time>2026-03-22T11:20:06.258Z</time></trkpt><trkpt lat="40.3856974" lon="9.2813041"><ele>764.0</ele><time>2026-03-22T11:20:08.261Z</time></trkpt><trkpt lat="40.3858026" lon="9.2814164"><ele>764.0</ele><time>2026-03-22T11:20:09.245Z</time></trkpt><trkpt lat="40.385872" lon="9.2815399"><ele>764.0</ele><time>2026-03-22T11:20:10.256Z</time></trkpt><trkpt lat="40.3859022" lon="9.2818232"><ele>762.3333333333333</ele><time>2026-03-22T11:20:12.259Z</time></trkpt><trkpt lat="40.3857943" lon="9.2820571"><ele>760.6666666666666</ele><time>2026-03-22T11:20:14.257Z</time></trkpt><trkpt lat="40.385661" lon="9.2822151"><ele>759.0</ele><time>2026-03-22T11:20:16.247Z</time></trkpt><trkpt lat="40.3855921" lon="9.2823096"><ele>758.2</ele><time>2026-03-22T11:20:18.268Z</time></trkpt><trkpt lat="40.3855396" lon="9.2823961"><ele>757.4000000000001</ele><time>2026-03-22T11:20:41.245Z</time></trkpt><trkpt lat="40.3854641" lon="9.2824498"><ele>756.6</ele><time>2026-03-22T11:20:45.244Z</time></trkpt><trkpt lat="40.3853672" lon="9.2822401"><ele>755.8</ele><time>2026-03-22T11:20:47.247Z</time></trkpt><trkpt lat="40.3853048" lon="9.2821524"><ele>755.0</ele><time>2026-03-22T11:20:48.249Z</time></trkpt><trkpt lat="40.3852311" lon="9.2820598"><ele>755.0</ele><time>2026-03-22T11:20:49.263Z</time></trkpt><trkpt lat="40.385068" lon="9.2818598"><ele>755.0</ele><time>2026-03-22T11:20:51.274Z</time></trkpt><trkpt lat="40.3848994" lon="9.2815885"><ele>755.0</ele><time>2026-03-22T11:20:53.263Z</time></trkpt><trkpt lat="40.3848104" lon="9.2814561"><ele>755.0</ele><time>2026-03-22T11:20:54.255Z</time></trkpt><trkpt lat="40.3847492" lon="9.2813347"><ele>755.0</ele><time>2026-03-22T11:20:55.268Z</time></trkpt><trkpt lat="40.3845906" lon="9.2810908"><ele>752.5</ele><time>2026-03-22T11:20:57.27Z</time></trkpt><trkpt lat="40.38433" lon="9.2809395"><ele>750.0</ele><time>2026-03-22T11:20:59.277Z</time></trkpt><trkpt lat="40.3840843" lon="9.2808405"><ele>750.0</ele><time>2026-03-22T11:21:01.266Z</time></trkpt><trkpt lat="40.3839305" lon="9.2808476"><ele>750.0</ele><time>2026-03-22T11:21:02.261Z</time></trkpt><trkpt lat="40.3836349" lon="9.2808247"><ele>749.3333333333334</ele><time>2026-03-22T11:21:04.27Z</time></trkpt><trkpt lat="40.3834729" lon="9.2807898"><ele>748.6666666666667</ele><time>2026-03-22T11:21:05.249Z</time></trkpt><trkpt lat="40.3833192" lon="9.280758"><ele>748.0</ele><time>2026-03-22T11:21:06.261Z</time></trkpt><trkpt lat="40.3830365" lon="9.2806948"><ele>747.6666666666667</ele><time>2026-03-22T11:21:08.259Z</time></trkpt><trkpt lat="40.3827809" lon="9.280655"><ele>747.3333333333334</ele><time>2026-03-22T11:21:10.264Z</time></trkpt><trkpt lat="40.3826679" lon="9.2806155"><ele>747.0</ele><time>2026-03-22T11:21:11.247Z</time></trkpt><trkpt lat="40.3825586" lon="9.2805907"><ele>747.0</ele><time>2026-03-22T11:21:12.249Z</time></trkpt><trkpt lat="40.3824707" lon="9.2804091"><ele>747.0</ele><time>2026-03-22T11:21:13.248Z</time></trkpt><trkpt lat="40.3823628" lon="9.2803016"><ele>747.0</ele><time>2026-03-22T11:21:14.264Z</time></trkpt><trkpt lat="40.382243" lon="9.2801786"><ele>743.0</ele><time>2026-03-22T11:21:15.249Z</time></trkpt><trkpt lat="40.3821017" lon="9.2800752"><ele>739.0</ele><time>2026-03-22T11:21:16.268Z</time></trkpt><trkpt lat="40.3818048" lon="9.2799009"><ele>739.0</ele><time>2026-03-22T11:21:18.261Z</time></trkpt><trkpt lat="40.3815482" lon="9.2798011"><ele>739.0</ele><time>2026-03-22T11:21:20.25Z</time></trkpt><trkpt lat="40.3814126" lon="9.2797683"><ele>739.0</ele><time>2026-03-22T11:21:21.25Z</time></trkpt><trkpt lat="40.3812704" lon="9.2797753"><ele>739.0</ele><time>2026-03-22T11:21:22.268Z</time></trkpt><trkpt lat="40.380972" lon="9.2797082"><ele>739.0</ele><time>2026-03-22T11:21:24.266Z</time></trkpt><trkpt lat="40.3807127" lon="9.2795443"><ele>735.5</ele><time>2026-03-22T11:21:26.256Z</time></trkpt><trkpt lat="40.3804761" lon="9.2794443"><ele>732.0</ele><time>2026-03-22T11:21:28.261Z</time></trkpt><trkpt lat="40.3802517" lon="9.2794633"><ele>732.0</ele><time>2026-03-22T11:21:30.278Z</time></trkpt><trkpt lat="40.3800481" lon="9.279466"><ele>732.0</ele><time>2026-03-22T11:21:32.25Z</time></trkpt><trkpt lat="40.3798875" lon="9.2792842"><ele>732.0</ele><time>2026-03-22T11:21:34.267Z</time></trkpt><trkpt lat="40.379731" lon="9.2790612"><ele>734.5</ele><time>2026-03-22T11:21:36.258Z</time></trkpt><trkpt lat="40.3794434" lon="9.2789675"><ele>737.0</ele><time>2026-03-22T11:21:38.264Z</time></trkpt><trkpt lat="40.3791739" lon="9.2789221"><ele>731.0</ele><time>2026-03-22T11:21:40.266Z</time></trkpt><trkpt lat="40.3788696" lon="9.2790141"><ele>725.0</ele><time>2026-03-22T11:21:42.261Z</time></trkpt><trkpt lat="40.3785422" lon="9.2790938"><ele>725.0</ele><time>2026-03-22T11:21:44.248Z</time></trkpt><trkpt lat="40.3783867" lon="9.2791061"><ele>725.0</ele><time>2026-03-22T11:21:45.278Z</time></trkpt><trkpt lat="40.3782405" lon="9.2791114"><ele>725.0</ele><time>2026-03-22T11:21:46.262Z</time></trkpt><trkpt lat="40.378101" lon="9.2791438"><ele>725.0</ele><time>2026-03-22T11:21:47.271Z</time></trkpt><trkpt lat="40.3779887" lon="9.2791836"><ele>725.0</ele><time>2026-03-22T11:21:48.27Z</time></trkpt><trkpt lat="40.3778805" lon="9.279267"><ele>725.0</ele><time>2026-03-22T11:21:49.273Z</time></trkpt><trkpt lat="40.3777172" lon="9.2795666"><ele>725.0</ele><time>2026-03-22T11:21:51.26Z</time></trkpt><trkpt lat="40.3776406" lon="9.2798968"><ele>723.6666666666666</ele><time>2026-03-22T11:21:53.26Z</time></trkpt><trkpt lat="40.3776158" lon="9.2800854"><ele>722.3333333333334</ele><time>2026-03-22T11:21:54.246Z</time></trkpt><trkpt lat="40.3775862" lon="9.2802857"><ele>721.0</ele><time>2026-03-22T11:21:55.247Z</time></trkpt><trkpt lat="40.3775385" lon="9.2804883"><ele>717.0</ele><time>2026-03-22T11:21:56.273Z</time></trkpt><trkpt lat="40.3774843" lon="9.2806959"><ele>713.0</ele><time>2026-03-22T11:21:57.259Z</time></trkpt><trkpt lat="40.3772988" lon="9.2811017"><ele>716.0</ele><time>2026-03-22T11:21:59.261Z</time></trkpt><trkpt lat="40.3770882" lon="9.2815026"><ele>719.0</ele><time>2026-03-22T11:22:01.259Z</time></trkpt><trkpt lat="40.3768985" lon="9.2818562"><ele>719.0</ele><time>2026-03-22T11:22:03.247Z</time></trkpt><trkpt lat="40.3767425" lon="9.2822335"><ele>719.0</ele><time>2026-03-22T11:22:05.263Z</time></trkpt><trkpt lat="40.3766913" lon="9.2824537"><ele>714.3333333333333</ele><time>2026-03-22T11:22:06.248Z</time></trkpt><trkpt lat="40.3766542" lon="9.2826994"><ele>709.6666666666666</ele><time>2026-03-22T11:22:07.259Z</time></trkpt><trkpt lat="40.3766207" lon="9.2829584"><ele>705.0</ele><time>2026-03-22T11:22:08.246Z</time></trkpt><trkpt lat="40.3765264" lon="9.2834981"><ele>706.0</ele><time>2026-03-22T11:22:10.277Z</time></trkpt><trkpt lat="40.3764597" lon="9.2837663"><ele>707.0</ele><time>2026-03-22T11:22:11.267Z</time></trkpt><trkpt lat="40.3763281" lon="9.2842655"><ele>707.0</ele><time>2026-03-22T11:22:13.267Z</time></trkpt><trkpt lat="40.3762794" lon="9.2845014"><ele>707.0</ele><time>2026-03-22T11:22:14.267Z</time></trkpt><trkpt lat="40.3762303" lon="9.2847142"><ele>707.0</ele><time>2026-03-22T11:22:15.248Z</time></trkpt><trkpt lat="40.376138" lon="9.2851228"><ele>705.6666666666666</ele><time>2026-03-22T11:22:17.282Z</time></trkpt><trkpt lat="40.3760416" lon="9.2854234"><ele>704.3333333333334</ele><time>2026-03-22T11:22:19.247Z</time></trkpt><trkpt lat="40.3759698" lon="9.2855327"><ele>703.0</ele><time>2026-03-22T11:22:20.247Z</time></trkpt><trkpt lat="40.3758617" lon="9.285612"><ele>701.3333333333334</ele><time>2026-03-22T11:22:21.264Z</time></trkpt><trkpt lat="40.3756108" lon="9.2856076"><ele>699.6666666666666</ele><time>2026-03-22T11:22:23.246Z</time></trkpt><trkpt lat="40.3754966" lon="9.2855589"><ele>698.0</ele><time>2026-03-22T11:22:24.248Z</time></trkpt><trkpt lat="40.3753703" lon="9.2854648"><ele>698.0</ele><time>2026-03-22T11:22:25.275Z</time></trkpt><trkpt lat="40.3752214" lon="9.2853712"><ele>698.0</ele><time>2026-03-22T11:22:26.245Z</time></trkpt><trkpt lat="40.3750863" lon="9.2852723"><ele>698.0</ele><time>2026-03-22T11:22:27.248Z</time></trkpt><trkpt lat="40.37493" lon="9.2851906"><ele>698.0</ele><time>2026-03-22T11:22:28.248Z</time></trkpt><trkpt lat="40.3747566" lon="9.2851317"><ele>698.0</ele><time>2026-03-22T11:22:29.246Z</time></trkpt><trkpt lat="40.3745574" lon="9.2851777"><ele>698.0</ele><time>2026-03-22T11:22:30.26Z</time></trkpt><trkpt lat="40.3741733" lon="9.2851719"><ele>696.6666666666666</ele><time>2026-03-22T11:22:32.267Z</time></trkpt><trkpt lat="40.3739947" lon="9.2851821"><ele>695.3333333333334</ele><time>2026-03-22T11:22:33.28Z</time></trkpt><trkpt lat="40.3738267" lon="9.2851744"><ele>694.0</ele><time>2026-03-22T11:22:34.266Z</time></trkpt><trkpt lat="40.3735178" lon="9.2851326"><ele>693.0</ele><time>2026-03-22T11:22:36.247Z</time></trkpt><trkpt lat="40.3733715" lon="9.2851215"><ele>692.0</ele><time>2026-03-22T11:22:37.255Z</time></trkpt><trkpt lat="40.3732315" lon="9.2851287"><ele>691.0</ele><time>2026-03-22T11:22:38.252Z</time></trkpt><trkpt lat="40.3729763" lon="9.2852506"><ele>690.3333333333334</ele><time>2026-03-22T11:22:40.256Z</time></trkpt><trkpt lat="40.3728508" lon="9.2853686"><ele>689.6666666666666</ele><time>2026-03-22T11:22:41.269Z</time></trkpt><trkpt lat="40.3727361" lon="9.2854863"><ele>689.0</ele><time>2026-03-22T11:22:42.26Z</time></trkpt><trkpt lat="40.3725205" lon="9.2856559"><ele>687.5</ele><time>2026-03-22T11:22:44.249Z</time></trkpt><trkpt lat="40.3722735" lon="9.285636"><ele>686.0</ele><time>2026-03-22T11:22:46.267Z</time></trkpt><trkpt lat="40.3719809" lon="9.2855067"><ele>686.0</ele><time>2026-03-22T11:22:48.256Z</time></trkpt><trkpt lat="40.3718131" lon="9.2854471"><ele>686.0</ele><time>2026-03-22T11:22:49.262Z</time></trkpt><trkpt lat="40.3714715" lon="9.2853221"><ele>684.6666666666666</ele><time>2026-03-22T11:22:51.247Z</time></trkpt><trkpt lat="40.3712981" lon="9.2852763"><ele>683.3333333333334</ele><time>2026-03-22T11:22:52.26Z</time></trkpt><trkpt lat="40.3711279" lon="9.2852429"><ele>682.0</ele><time>2026-03-22T11:22:53.275Z</time></trkpt><trkpt lat="40.3708096" lon="9.2852697"><ele>682.0</ele><time>2026-03-22T11:22:55.265Z</time></trkpt><trkpt lat="40.3705562" lon="9.2851694"><ele>682.0</ele><time>2026-03-22T11:22:57.264Z</time></trkpt><trkpt lat="40.3703874" lon="9.2849665"><ele>681.0</ele><time>2026-03-22T11:22:59.261Z</time></trkpt><trkpt lat="40.370155" lon="9.2848844"><ele>680.0</ele><time>2026-03-22T11:23:01.262Z</time></trkpt><trkpt lat="40.3700252" lon="9.2848908"><ele>679.0</ele><time>2026-03-22T11:23:02.249Z</time></trkpt><trkpt lat="40.3699114" lon="9.2850048"><ele>679.0</ele><time>2026-03-22T11:23:03.245Z</time></trkpt><trkpt lat="40.3697885" lon="9.2850856"><ele>679.0</ele><time>2026-03-22T11:23:04.264Z</time></trkpt><trkpt lat="40.3696561" lon="9.2851435"><ele>679.0</ele><time>2026-03-22T11:23:05.248Z</time></trkpt><trkpt lat="40.3695187" lon="9.2852108"><ele>679.0</ele><time>2026-03-22T11:23:06.267Z</time></trkpt><trkpt lat="40.3693816" lon="9.2851228"><ele>678.6666666666667</ele><time>2026-03-22T11:23:07.265Z</time></trkpt><trkpt lat="40.3691178" lon="9.2849612"><ele>678.3333333333334</ele><time>2026-03-22T11:23:09.261Z</time></trkpt><trkpt lat="40.3690146" lon="9.2848573"><ele>678.0</ele><time>2026-03-22T11:23:10.263Z</time></trkpt><trkpt lat="40.3687352" lon="9.2847254"><ele>678.0</ele><time>2026-03-22T11:23:12.257Z</time></trkpt><trkpt lat="40.3684805" lon="9.284579"><ele>678.0</ele><time>2026-03-22T11:23:14.246Z</time></trkpt><trkpt lat="40.3682771" lon="9.2846222"><ele>677.0</ele><time>2026-03-22T11:23:15.267Z</time></trkpt><trkpt lat="40.3680073" lon="9.2846761"><ele>676.0</ele><time>2026-03-22T11:23:17.279Z</time></trkpt><trkpt lat="40.3677578" lon="9.2848735"><ele>674.5</ele><time>2026-03-22T11:23:19.266Z</time></trkpt><trkpt lat="40.3676376" lon="9.2850234"><ele>673.0</ele><time>2026-03-22T11:23:20.245Z</time></trkpt><trkpt lat="40.367456" lon="9.2853635"><ele>673.0</ele><time>2026-03-22T11:23:22.259Z</time></trkpt><trkpt lat="40.3672992" lon="9.2856697"><ele>673.0</ele><time>2026-03-22T11:23:24.246Z</time></trkpt><trkpt lat="40.3671927" lon="9.2857685"><ele>673.0</ele><time>2026-03-22T11:23:25.266Z</time></trkpt><trkpt lat="40.3669152" lon="9.285872"><ele>673.0</ele><time>2026-03-22T11:23:27.261Z</time></trkpt><trkpt lat="40.3666013" lon="9.2859159"><ele>673.0</ele><time>2026-03-22T11:23:29.273Z</time></trkpt><trkpt lat="40.3664602" lon="9.2858968"><ele>673.0</ele><time>2026-03-22T11:23:30.26Z</time></trkpt><trkpt lat="40.3661948" lon="9.2859599"><ele>673.0</ele><time>2026-03-22T11:23:32.26Z</time></trkpt><trkpt lat="40.3660729" lon="9.2860459"><ele>673.0</ele><time>2026-03-22T11:23:33.244Z</time></trkpt><trkpt lat="40.365844" lon="9.2862848"><ele>673.0</ele><time>2026-03-22T11:23:35.246Z</time></trkpt><trkpt lat="40.3657349" lon="9.2864044"><ele>673.0</ele><time>2026-03-22T11:23:36.25Z</time></trkpt><trkpt lat="40.3656372" lon="9.2864833"><ele>673.0</ele><time>2026-03-22T11:23:37.245Z</time></trkpt><trkpt lat="40.3655357" lon="9.2865218"><ele>673.0</ele><time>2026-03-22T11:23:38.263Z</time></trkpt><trkpt lat="40.3653271" lon="9.2864749"><ele>671.75</ele><time>2026-03-22T11:23:40.252Z</time></trkpt><trkpt lat="40.3652292" lon="9.2863449"><ele>670.5</ele><time>2026-03-22T11:23:41.245Z</time></trkpt><trkpt lat="40.3651195" lon="9.2862318"><ele>669.25</ele><time>2026-03-22T11:23:42.269Z</time></trkpt><trkpt lat="40.3650458" lon="9.2861083"><ele>668.0</ele><time>2026-03-22T11:23:43.268Z</time></trkpt><trkpt lat="40.3648155" lon="9.2858469"><ele>666.0</ele><time>2026-03-22T11:23:45.279Z</time></trkpt><trkpt lat="40.3646399" lon="9.2857561"><ele>664.0</ele><time>2026-03-22T11:23:46.245Z</time></trkpt><trkpt lat="40.3644822" lon="9.2857001"><ele>662.0</ele><time>2026-03-22T11:23:47.27Z</time></trkpt><trkpt lat="40.364281" lon="9.2856074"><ele>662.3333333333333</ele><time>2026-03-22T11:23:48.257Z</time></trkpt><trkpt lat="40.3640746" lon="9.2855476"><ele>662.6666666666666</ele><time>2026-03-22T11:23:49.268Z</time></trkpt><trkpt lat="40.3638782" lon="9.2854982"><ele>663.0</ele><time>2026-03-22T11:23:50.267Z</time></trkpt><trkpt lat="40.3635524" lon="9.2853924"><ele>663.0</ele><time>2026-03-22T11:23:52.266Z</time></trkpt><trkpt lat="40.3632851" lon="9.285211"><ele>663.0</ele><time>2026-03-22T11:23:54.272Z</time></trkpt><trkpt lat="40.3631615" lon="9.285097"><ele>662.6666666666666</ele><time>2026-03-22T11:23:55.269Z</time></trkpt><trkpt lat="40.3630208" lon="9.2848416"><ele>662.3333333333333</ele><time>2026-03-22T11:23:57.265Z</time></trkpt><trkpt lat="40.3628277" lon="9.2848083"><ele>662.0</ele><time>2026-03-22T11:23:59.27Z</time></trkpt><trkpt lat="40.3626292" lon="9.2849528"><ele>662.0</ele><time>2026-03-22T11:24:01.26Z</time></trkpt><trkpt lat="40.3625175" lon="9.2850766"><ele>662.0</ele><time>2026-03-22T11:24:02.258Z</time></trkpt><trkpt lat="40.3624051" lon="9.2852022"><ele>662.0</ele><time>2026-03-22T11:24:03.287Z</time></trkpt><trkpt lat="40.3621692" lon="9.2855118"><ele>661.0</ele><time>2026-03-22T11:24:05.258Z</time></trkpt><trkpt lat="40.3619203" lon="9.2857813"><ele>660.0</ele><time>2026-03-22T11:24:07.247Z</time></trkpt><trkpt lat="40.3617345" lon="9.2859044"><ele>660.0</ele><time>2026-03-22T11:24:08.246Z</time></trkpt><trkpt lat="40.3613826" lon="9.2861449"><ele>660.0</ele><time>2026-03-22T11:24:10.248Z</time></trkpt><trkpt lat="40.3612235" lon="9.2862535"><ele>660.3333333333334</ele><time>2026-03-22T11:24:11.246Z</time></trkpt><trkpt lat="40.3610826" lon="9.2863249"><ele>660.6666666666667</ele><time>2026-03-22T11:24:12.276Z</time></trkpt><trkpt lat="40.3609615" lon="9.2864109"><ele>661.0</ele><time>2026-03-22T11:24:13.261Z</time></trkpt><trkpt lat="40.3607144" lon="9.2865419"><ele>658.75</ele><time>2026-03-22T11:24:15.268Z</time></trkpt><trkpt lat="40.3604898" lon="9.2865092"><ele>656.5</ele><time>2026-03-22T11:24:17.261Z</time></trkpt><trkpt lat="40.36042" lon="9.286422"><ele>654.25</ele><time>2026-03-22T11:24:18.246Z</time></trkpt><trkpt lat="40.3603812" lon="9.2863267"><ele>652.0</ele><time>2026-03-22T11:24:19.249Z</time></trkpt><trkpt lat="40.3603742" lon="9.2862265"><ele>651.75</ele><time>2026-03-22T11:24:20.266Z</time></trkpt><trkpt lat="40.3603782" lon="9.2861136"><ele>651.5</ele><time>2026-03-22T11:24:21.262Z</time></trkpt><trkpt lat="40.3603909" lon="9.2859606"><ele>651.25</ele><time>2026-03-22T11:24:22.258Z</time></trkpt><trkpt lat="40.3603983" lon="9.2858055"><ele>651.0</ele><time>2026-03-22T11:24:23.269Z</time></trkpt><trkpt lat="40.3603619" lon="9.2855208"><ele>652.0</ele><time>2026-03-22T11:24:25.257Z</time></trkpt><trkpt lat="40.3603649" lon="9.2854072"><ele>653.0</ele><time>2026-03-22T11:24:26.245Z</time></trkpt><trkpt lat="40.3600797" lon="9.2851854"><ele>654.0</ele><time>2026-03-22T11:24:28.259Z</time></trkpt><trkpt lat="40.3599074" lon="9.2849834"><ele>650.5</ele><time>2026-03-22T11:24:30.263Z</time></trkpt><trkpt lat="40.359636" lon="9.2846562"><ele>647.0</ele><time>2026-03-22T11:24:32.247Z</time></trkpt><trkpt lat="40.3595391" lon="9.2844711"><ele>647.0</ele><time>2026-03-22T11:24:33.283Z</time></trkpt><trkpt lat="40.3594409" lon="9.284316"><ele>647.0</ele><time>2026-03-22T11:24:34.27Z</time></trkpt><trkpt lat="40.3592739" lon="9.2840088"><ele>647.0</ele><time>2026-03-22T11:24:36.267Z</time></trkpt><trkpt lat="40.3591576" lon="9.283666"><ele>648.0</ele><time>2026-03-22T11:24:38.25Z</time></trkpt><trkpt lat="40.3591083" lon="9.2834604"><ele>649.0</ele><time>2026-03-22T11:24:39.245Z</time></trkpt><trkpt lat="40.3590541" lon="9.2832776"><ele>650.0</ele><time>2026-03-22T11:24:40.265Z</time></trkpt><trkpt lat="40.3589974" lon="9.2831545"><ele>651.0</ele><time>2026-03-22T11:24:41.262Z</time></trkpt><trkpt lat="40.3588859" lon="9.2828494"><ele>651.1999999999999</ele><time>2026-03-22T11:24:43.264Z</time></trkpt><trkpt lat="40.3588182" lon="9.2827748"><ele>651.4</ele><time>2026-03-22T11:24:44.246Z</time></trkpt><trkpt lat="40.3587325" lon="9.2827559"><ele>651.6</ele><time>2026-03-22T11:24:45.248Z</time></trkpt><trkpt lat="40.3586425" lon="9.2827772"><ele>651.8</ele><time>2026-03-22T11:24:46.255Z</time></trkpt><trkpt lat="40.3584983" lon="9.2828691"><ele>652.0</ele><time>2026-03-22T11:24:48.261Z</time></trkpt><trkpt lat="40.3583127" lon="9.2832257"><ele>649.0</ele><time>2026-03-22T11:24:50.246Z</time></trkpt><trkpt lat="40.3582397" lon="9.283396"><ele>646.0</ele><time>2026-03-22T11:24:51.245Z</time></trkpt><trkpt lat="40.3581815" lon="9.2837049"><ele>643.0</ele><time>2026-03-22T11:24:52.252Z</time></trkpt><trkpt lat="40.3581404" lon="9.2839167"><ele>640.5</ele><time>2026-03-22T11:24:53.251Z</time></trkpt><trkpt lat="40.3580859" lon="9.2844072"><ele>638.0</ele><time>2026-03-22T11:24:55.272Z</time></trkpt><trkpt lat="40.3580747" lon="9.2848391"><ele>642.5</ele><time>2026-03-22T11:24:57.255Z</time></trkpt><trkpt lat="40.3579841" lon="9.2852709"><ele>647.0</ele><time>2026-03-22T11:24:59.246Z</time></trkpt><trkpt lat="40.357904" lon="9.2854845"><ele>643.0</ele><time>2026-03-22T11:25:00.259Z</time></trkpt><trkpt lat="40.3577413" lon="9.285898"><ele>639.0</ele><time>2026-03-22T11:25:02.271Z</time></trkpt><trkpt lat="40.35765" lon="9.2861032"><ele>630.0</ele><time>2026-03-22T11:25:03.247Z</time></trkpt><trkpt lat="40.3574074" lon="9.2866686"><ele>630.0</ele><time>2026-03-22T11:25:06.287Z</time></trkpt><trkpt lat="40.3573663" lon="9.2868504"><ele>630.0</ele><time>2026-03-22T11:25:07.263Z</time></trkpt><trkpt lat="40.3572191" lon="9.2871547"><ele>630.0</ele><time>2026-03-22T11:25:09.249Z</time></trkpt><trkpt lat="40.3571083" lon="9.2872759"><ele>629.0</ele><time>2026-03-22T11:25:10.246Z</time></trkpt><trkpt lat="40.35698" lon="9.2873954"><ele>628.0</ele><time>2026-03-22T11:25:11.245Z</time></trkpt><trkpt lat="40.3568417" lon="9.287487"><ele>627.0</ele><time>2026-03-22T11:25:12.261Z</time></trkpt><trkpt lat="40.3567066" lon="9.287576"><ele>627.0</ele><time>2026-03-22T11:25:13.259Z</time></trkpt><trkpt lat="40.3563997" lon="9.2876894"><ele>627.0</ele><time>2026-03-22T11:25:15.261Z</time></trkpt><trkpt lat="40.3560904" lon="9.2878234"><ele>627.3333333333334</ele><time>2026-03-22T11:25:17.264Z</time></trkpt><trkpt lat="40.3559479" lon="9.2879086"><ele>627.6666666666667</ele><time>2026-03-22T11:25:18.247Z</time></trkpt><trkpt lat="40.3557842" lon="9.2879611"><ele>628.0</ele><time>2026-03-22T11:25:19.249Z</time></trkpt><trkpt lat="40.3556133" lon="9.2880035"><ele>626.0</ele><time>2026-03-22T11:25:20.266Z</time></trkpt><trkpt lat="40.3554378" lon="9.2880391"><ele>624.0</ele><time>2026-03-22T11:25:21.293Z</time></trkpt><trkpt lat="40.3550884" lon="9.2881945"><ele>619.0</ele><time>2026-03-22T11:25:23.262Z</time></trkpt><trkpt lat="40.3547767" lon="9.288357"><ele>614.0</ele><time>2026-03-22T11:25:25.263Z</time></trkpt><trkpt lat="40.3545111" lon="9.2885815"><ele>614.0</ele><time>2026-03-22T11:25:27.27Z</time></trkpt><trkpt lat="40.3544074" lon="9.2886989"><ele>614.0</ele><time>2026-03-22T11:25:28.271Z</time></trkpt><trkpt lat="40.3543119" lon="9.2888476"><ele>614.0</ele><time>2026-03-22T11:25:29.26Z</time></trkpt><trkpt lat="40.3541626" lon="9.2891459"><ele>612.6666666666666</ele><time>2026-03-22T11:25:31.248Z</time></trkpt><trkpt lat="40.3540925" lon="9.2892822"><ele>611.3333333333334</ele><time>2026-03-22T11:25:32.259Z</time></trkpt><trkpt lat="40.3538687" lon="9.289357"><ele>610.0</ele><time>2026-03-22T11:25:34.263Z</time></trkpt><trkpt lat="40.353745" lon="9.2893221"><ele>609.6666666666667</ele><time>2026-03-22T11:25:35.247Z</time></trkpt><trkpt lat="40.3536124" lon="9.2892666"><ele>609.3333333333334</ele><time>2026-03-22T11:25:36.259Z</time></trkpt><trkpt lat="40.3534845" lon="9.2891794"><ele>609.0</ele><time>2026-03-22T11:25:37.274Z</time></trkpt><trkpt lat="40.3532302" lon="9.2889212"><ele>609.0</ele><time>2026-03-22T11:25:39.275Z</time></trkpt><trkpt lat="40.3531032" lon="9.288763"><ele>609.0</ele><time>2026-03-22T11:25:40.246Z</time></trkpt><trkpt lat="40.3529534" lon="9.288432"><ele>605.0</ele><time>2026-03-22T11:25:42.269Z</time></trkpt><trkpt lat="40.3528423" lon="9.2881056"><ele>601.0</ele><time>2026-03-22T11:25:44.268Z</time></trkpt><trkpt lat="40.3528753" lon="9.2877656"><ele>600.6666666666667</ele><time>2026-03-22T11:25:46.263Z</time></trkpt><trkpt lat="40.3528641" lon="9.2876281"><ele>600.3333333333334</ele><time>2026-03-22T11:25:47.259Z</time></trkpt><trkpt lat="40.3527854" lon="9.2873982"><ele>600.0</ele><time>2026-03-22T11:25:49.247Z</time></trkpt><trkpt lat="40.3526192" lon="9.287356"><ele>600.0</ele><time>2026-03-22T11:25:51.255Z</time></trkpt><trkpt lat="40.3525221" lon="9.2873882"><ele>600.0</ele><time>2026-03-22T11:25:52.249Z</time></trkpt><trkpt lat="40.3524255" lon="9.2874604"><ele>600.0</ele><time>2026-03-22T11:25:53.248Z</time></trkpt><trkpt lat="40.352332" lon="9.2875505"><ele>600.0</ele><time>2026-03-22T11:25:54.252Z</time></trkpt><trkpt lat="40.3522014" lon="9.2878393"><ele>593.5</ele><time>2026-03-22T11:25:56.262Z</time></trkpt><trkpt lat="40.35216" lon="9.2882366"><ele>587.0</ele><time>2026-03-22T11:25:58.265Z</time></trkpt><trkpt lat="40.352119" lon="9.2886252"><ele>587.0</ele><time>2026-03-22T11:26:00.245Z</time></trkpt><trkpt lat="40.3520864" lon="9.2888098"><ele>587.0</ele><time>2026-03-22T11:26:01.268Z</time></trkpt><trkpt lat="40.3519304" lon="9.2891368"><ele>587.0</ele><time>2026-03-22T11:26:03.269Z</time></trkpt><trkpt lat="40.3518181" lon="9.289293"><ele>586.6666666666666</ele><time>2026-03-22T11:26:04.247Z</time></trkpt><trkpt lat="40.3516399" lon="9.2895911"><ele>586.3333333333334</ele><time>2026-03-22T11:26:06.247Z</time></trkpt><trkpt lat="40.3515667" lon="9.2896676"><ele>586.0</ele><time>2026-03-22T11:26:07.263Z</time></trkpt><trkpt lat="40.3513844" lon="9.2897718"><ele>583.6666666666667</ele><time>2026-03-22T11:26:09.251Z</time></trkpt><trkpt lat="40.3512003" lon="9.2896563"><ele>581.3333333333334</ele><time>2026-03-22T11:26:11.266Z</time></trkpt><trkpt lat="40.3510716" lon="9.2893947"><ele>579.0</ele><time>2026-03-22T11:26:13.261Z</time></trkpt><trkpt lat="40.3510211" lon="9.289264"><ele>579.0</ele><time>2026-03-22T11:26:14.266Z</time></trkpt><trkpt lat="40.3510222" lon="9.2891435"><ele>579.0</ele><time>2026-03-22T11:26:15.246Z</time></trkpt><trkpt lat="40.3511061" lon="9.2889191"><ele>579.0</ele><time>2026-03-22T11:26:17.262Z</time></trkpt><trkpt lat="40.3512075" lon="9.2887054"><ele>578.6666666666666</ele><time>2026-03-22T11:26:19.244Z</time></trkpt><trkpt lat="40.3511896" lon="9.2885035"><ele>578.3333333333333</ele><time>2026-03-22T11:26:21.271Z</time></trkpt><trkpt lat="40.3509048" lon="9.2884286"><ele>578.0</ele><time>2026-03-22T11:26:23.272Z</time></trkpt><trkpt lat="40.3507015" lon="9.2883812"><ele>578.0</ele><time>2026-03-22T11:26:25.281Z</time></trkpt><trkpt lat="40.3506319" lon="9.2882947"><ele>578.0</ele><time>2026-03-22T11:26:26.25Z</time></trkpt><trkpt lat="40.3505787" lon="9.2881601"><ele>578.0</ele><time>2026-03-22T11:26:27.247Z</time></trkpt><trkpt lat="40.3505177" lon="9.288028"><ele>578.0</ele><time>2026-03-22T11:26:28.264Z</time></trkpt><trkpt lat="40.350429" lon="9.2879183"><ele>575.0</ele><time>2026-03-22T11:26:29.248Z</time></trkpt><trkpt lat="40.3503526" lon="9.2878052"><ele>572.0</ele><time>2026-03-22T11:26:30.246Z</time></trkpt><trkpt lat="40.350126" lon="9.2876533"><ele>569.0</ele><time>2026-03-22T11:26:32.248Z</time></trkpt><trkpt lat="40.3500484" lon="9.2875237"><ele>569.0</ele><time>2026-03-22T11:26:33.247Z</time></trkpt><trkpt lat="40.3499822" lon="9.287361"><ele>569.0</ele><time>2026-03-22T11:26:34.264Z</time></trkpt><trkpt lat="40.3499099" lon="9.2872125"><ele>569.0</ele><time>2026-03-22T11:26:35.293Z</time></trkpt><trkpt lat="40.3498194" lon="9.2870978"><ele>569.0</ele><time>2026-03-22T11:26:36.264Z</time></trkpt><trkpt lat="40.3496202" lon="9.2869991"><ele>567.0</ele><time>2026-03-22T11:26:38.246Z</time></trkpt><trkpt lat="40.3495267" lon="9.2870037"><ele>565.0</ele><time>2026-03-22T11:26:39.264Z</time></trkpt><trkpt lat="40.3494153" lon="9.2870014"><ele>563.0</ele><time>2026-03-22T11:26:40.262Z</time></trkpt><trkpt lat="40.3492546" lon="9.2868609"><ele>561.0</ele><time>2026-03-22T11:26:42.264Z</time></trkpt><trkpt lat="40.3491393" lon="9.2865571"><ele>562.0</ele><time>2026-03-22T11:26:44.265Z</time></trkpt><trkpt lat="40.3490698" lon="9.2863638"><ele>563.0</ele><time>2026-03-22T11:26:45.286Z</time></trkpt><trkpt lat="40.3489912" lon="9.2861703"><ele>564.0</ele><time>2026-03-22T11:26:46.262Z</time></trkpt><trkpt lat="40.3488444" lon="9.2858158"><ele>559.5</ele><time>2026-03-22T11:26:48.268Z</time></trkpt><trkpt lat="40.348678" lon="9.2855306"><ele>555.0</ele><time>2026-03-22T11:26:50.263Z</time></trkpt><trkpt lat="40.3484727" lon="9.2853365"><ele>555.0</ele><time>2026-03-22T11:26:52.269Z</time></trkpt><trkpt lat="40.3482104" lon="9.2852588"><ele>555.0</ele><time>2026-03-22T11:26:54.267Z</time></trkpt><trkpt lat="40.34795" lon="9.2853339"><ele>555.5</ele><time>2026-03-22T11:26:56.27Z</time></trkpt><trkpt lat="40.3477608" lon="9.2855722"><ele>556.0</ele><time>2026-03-22T11:26:58.268Z</time></trkpt><trkpt lat="40.3476504" lon="9.2859536"><ele>556.0</ele><time>2026-03-22T11:27:00.249Z</time></trkpt><trkpt lat="40.3476106" lon="9.2861544"><ele>556.0</ele><time>2026-03-22T11:27:01.246Z</time></trkpt><trkpt lat="40.3475667" lon="9.2863527"><ele>556.0</ele><time>2026-03-22T11:27:02.267Z</time></trkpt><trkpt lat="40.3474466" lon="9.2867294"><ele>555.5</ele><time>2026-03-22T11:27:04.264Z</time></trkpt><trkpt lat="40.3472492" lon="9.2870928"><ele>555.0</ele><time>2026-03-22T11:27:06.259Z</time></trkpt><trkpt lat="40.3470866" lon="9.2874876"><ele>555.0</ele><time>2026-03-22T11:27:08.246Z</time></trkpt><trkpt lat="40.3470268" lon="9.2876963"><ele>555.0</ele><time>2026-03-22T11:27:09.259Z</time></trkpt><trkpt lat="40.3469702" lon="9.2879051"><ele>555.0</ele><time>2026-03-22T11:27:10.246Z</time></trkpt><trkpt lat="40.3469157" lon="9.2881207"><ele>552.5</ele><time>2026-03-22T11:27:11.259Z</time></trkpt><trkpt lat="40.3468825" lon="9.288346"><ele>550.0</ele><time>2026-03-22T11:27:12.265Z</time></trkpt><trkpt lat="40.3468563" lon="9.288771"><ele>548.5</ele><time>2026-03-22T11:27:14.284Z</time></trkpt><trkpt lat="40.3468234" lon="9.2889667"><ele>547.0</ele><time>2026-03-22T11:27:15.267Z</time></trkpt><trkpt lat="40.3466728" lon="9.2893158"><ele>547.0</ele><time>2026-03-22T11:27:17.273Z</time></trkpt><trkpt lat="40.3465104" lon="9.2896737"><ele>547.0</ele><time>2026-03-22T11:27:19.245Z</time></trkpt><trkpt lat="40.3463592" lon="9.2899943"><ele>545.0</ele><time>2026-03-22T11:27:21.26Z</time></trkpt><trkpt lat="40.346257" lon="9.2901483"><ele>543.0</ele><time>2026-03-22T11:27:22.266Z</time></trkpt><trkpt lat="40.3460293" lon="9.2904197"><ele>543.0</ele><time>2026-03-22T11:27:24.267Z</time></trkpt><trkpt lat="40.3458815" lon="9.2907128"><ele>543.0</ele><time>2026-03-22T11:27:26.268Z</time></trkpt><trkpt lat="40.3458402" lon="9.2911046"><ele>542.5</ele><time>2026-03-22T11:27:28.26Z</time></trkpt><trkpt lat="40.3458053" lon="9.2915775"><ele>542.0</ele><time>2026-03-22T11:27:30.256Z</time></trkpt><trkpt lat="40.3458131" lon="9.2920862"><ele>541.5</ele><time>2026-03-22T11:27:32.266Z</time></trkpt><trkpt lat="40.3458334" lon="9.2925818"><ele>541.0</ele><time>2026-03-22T11:27:34.249Z</time></trkpt><trkpt lat="40.3458324" lon="9.2928121"><ele>541.0</ele><time>2026-03-22T11:27:35.249Z</time></trkpt><trkpt lat="40.345836" lon="9.2930223"><ele>541.0</ele><time>2026-03-22T11:27:36.272Z</time></trkpt><trkpt lat="40.345876" lon="9.2934121"><ele>540.0</ele><time>2026-03-22T11:27:38.268Z</time></trkpt><trkpt lat="40.3458501" lon="9.2937697"><ele>539.0</ele><time>2026-03-22T11:27:40.247Z</time></trkpt><trkpt lat="40.3457503" lon="9.2941302"><ele>541.0</ele><time>2026-03-22T11:27:42.26Z</time></trkpt><trkpt lat="40.3455281" lon="9.2944222"><ele>543.0</ele><time>2026-03-22T11:27:44.268Z</time></trkpt><trkpt lat="40.3454096" lon="9.2945288"><ele>543.0</ele><time>2026-03-22T11:27:45.249Z</time></trkpt><trkpt lat="40.3452747" lon="9.2946006"><ele>543.0</ele><time>2026-03-22T11:27:46.26Z</time></trkpt><trkpt lat="40.3451268" lon="9.2946477"><ele>543.0</ele><time>2026-03-22T11:27:47.274Z</time></trkpt><trkpt lat="40.3449675" lon="9.2946619"><ele>542.5</ele><time>2026-03-22T11:27:48.259Z</time></trkpt><trkpt lat="40.3446214" lon="9.2946056"><ele>542.0</ele><time>2026-03-22T11:27:50.253Z</time></trkpt><trkpt lat="40.3444489" lon="9.2945569"><ele>542.0</ele><time>2026-03-22T11:27:51.271Z</time></trkpt><trkpt lat="40.3441278" lon="9.2944792"><ele>542.0</ele><time>2026-03-22T11:27:53.259Z</time></trkpt><trkpt lat="40.3439811" lon="9.2944511"><ele>541.25</ele><time>2026-03-22T11:27:54.249Z</time></trkpt><trkpt lat="40.3438373" lon="9.294467"><ele>540.5</ele><time>2026-03-22T11:27:55.248Z</time></trkpt><trkpt lat="40.3436991" lon="9.2944862"><ele>539.75</ele><time>2026-03-22T11:27:56.247Z</time></trkpt><trkpt lat="40.3435642" lon="9.2944875"><ele>539.0</ele><time>2026-03-22T11:27:57.245Z</time></trkpt><trkpt lat="40.3434261" lon="9.2944981"><ele>539.0</ele><time>2026-03-22T11:27:58.244Z</time></trkpt><trkpt lat="40.3433157" lon="9.2943924"><ele>539.0</ele><time>2026-03-22T11:27:59.246Z</time></trkpt><trkpt lat="40.343175" lon="9.294328"><ele>539.0</ele><time>2026-03-22T11:28:00.246Z</time></trkpt><trkpt lat="40.3430387" lon="9.2942346"><ele>539.0</ele><time>2026-03-22T11:28:01.245Z</time></trkpt><trkpt lat="40.3429182" lon="9.2940873"><ele>539.25</ele><time>2026-03-22T11:28:02.247Z</time></trkpt><trkpt lat="40.3427885" lon="9.2939801"><ele>539.5</ele><time>2026-03-22T11:28:03.244Z</time></trkpt><trkpt lat="40.3426706" lon="9.2939015"><ele>539.75</ele><time>2026-03-22T11:28:04.247Z</time></trkpt><trkpt lat="40.3425311" lon="9.293864"><ele>540.0</ele><time>2026-03-22T11:28:05.245Z</time></trkpt><trkpt lat="40.3423796" lon="9.2938685"><ele>538.6666666666666</ele><time>2026-03-22T11:28:06.25Z</time></trkpt><trkpt lat="40.3422131" lon="9.2938971"><ele>537.3333333333333</ele><time>2026-03-22T11:28:07.25Z</time></trkpt><trkpt lat="40.3420149" lon="9.2938954"><ele>536.0</ele><time>2026-03-22T11:28:08.25Z</time></trkpt><trkpt lat="40.3418059" lon="9.2939071"><ele>533.0</ele><time>2026-03-22T11:28:09.25Z</time></trkpt><trkpt lat="40.3415997" lon="9.2939585"><ele>530.0</ele><time>2026-03-22T11:28:10.248Z</time></trkpt><trkpt lat="40.3413811" lon="9.2939769"><ele>527.0</ele><time>2026-03-22T11:28:11.247Z</time></trkpt><trkpt lat="40.3411788" lon="9.2939851"><ele>526.6666666666666</ele><time>2026-03-22T11:28:12.249Z</time></trkpt><trkpt lat="40.3409927" lon="9.2940088"><ele>526.3333333333334</ele><time>2026-03-22T11:28:13.247Z</time></trkpt><trkpt lat="40.3408201" lon="9.2939952"><ele>526.0</ele><time>2026-03-22T11:28:14.248Z</time></trkpt><trkpt lat="40.3406428" lon="9.2940259"><ele>525.6666666666667</ele><time>2026-03-22T11:28:15.247Z</time></trkpt><trkpt lat="40.3404763" lon="9.2940502"><ele>525.3333333333334</ele><time>2026-03-22T11:28:16.25Z</time></trkpt><trkpt lat="40.3403233" lon="9.2940571"><ele>525.0</ele><time>2026-03-22T11:28:17.249Z</time></trkpt><trkpt lat="40.3401748" lon="9.2940643"><ele>525.0</ele><time>2026-03-22T11:28:18.25Z</time></trkpt><trkpt lat="40.3400204" lon="9.2940626"><ele>525.0</ele><time>2026-03-22T11:28:19.251Z</time></trkpt><trkpt lat="40.3398617" lon="9.2940325"><ele>525.0</ele><time>2026-03-22T11:28:20.248Z</time></trkpt><trkpt lat="40.3397103" lon="9.2939759"><ele>524.25</ele><time>2026-03-22T11:28:21.25Z</time></trkpt><trkpt lat="40.3395691" lon="9.2939116"><ele>523.5</ele><time>2026-03-22T11:28:22.248Z</time></trkpt><trkpt lat="40.3394348" lon="9.2938429"><ele>522.75</ele><time>2026-03-22T11:28:23.251Z</time></trkpt><trkpt lat="40.3393104" lon="9.2937492"><ele>522.0</ele><time>2026-03-22T11:28:24.248Z</time></trkpt><trkpt lat="40.3391921" lon="9.2936347"><ele>522.0</ele><time>2026-03-22T11:28:25.269Z</time></trkpt><trkpt lat="40.3390805" lon="9.2934978"><ele>522.0</ele><time>2026-03-22T11:28:26.269Z</time></trkpt><trkpt lat="40.3389701" lon="9.2933315"><ele>522.0</ele><time>2026-03-22T11:28:27.276Z</time></trkpt><trkpt lat="40.3387871" lon="9.2929169"><ele>517.5</ele><time>2026-03-22T11:28:29.25Z</time></trkpt><trkpt lat="40.3386588" lon="9.2924181"><ele>513.0</ele><time>2026-03-22T11:28:31.276Z</time></trkpt><trkpt lat="40.3385996" lon="9.2921584"><ele>512.5</ele><time>2026-03-22T11:28:32.267Z</time></trkpt><trkpt lat="40.3384964" lon="9.2917029"><ele>512.0</ele><time>2026-03-22T11:28:34.271Z</time></trkpt><trkpt lat="40.3383736" lon="9.2913293"><ele>512.0</ele><time>2026-03-22T11:28:36.265Z</time></trkpt><trkpt lat="40.3382081" lon="9.2910556"><ele>512.0</ele><time>2026-03-22T11:28:38.244Z</time></trkpt><trkpt lat="40.3380075" lon="9.2909337"><ele>512.0</ele><time>2026-03-22T11:28:40.266Z</time></trkpt><trkpt lat="40.3377226" lon="9.2909699"><ele>512.0</ele><time>2026-03-22T11:28:42.247Z</time></trkpt><trkpt lat="40.3375876" lon="9.2909673"><ele>512.0</ele><time>2026-03-22T11:28:43.246Z</time></trkpt><trkpt lat="40.337464" lon="9.2909558"><ele>512.0</ele><time>2026-03-22T11:28:44.27Z</time></trkpt><trkpt lat="40.3373639" lon="9.290846"><ele>512.0</ele><time>2026-03-22T11:28:45.258Z</time></trkpt><trkpt lat="40.3372636" lon="9.2907116"><ele>512.0</ele><time>2026-03-22T11:28:46.249Z</time></trkpt><trkpt lat="40.3371761" lon="9.2905653"><ele>512.0</ele><time>2026-03-22T11:28:47.249Z</time></trkpt><trkpt lat="40.3370826" lon="9.2903976"><ele>511.3333333333333</ele><time>2026-03-22T11:28:48.248Z</time></trkpt><trkpt lat="40.3369747" lon="9.2902273"><ele>510.66666666666663</ele><time>2026-03-22T11:28:49.247Z</time></trkpt><trkpt lat="40.3368882" lon="9.2900566"><ele>510.0</ele><time>2026-03-22T11:28:50.248Z</time></trkpt><trkpt lat="40.3367949" lon="9.2898862"><ele>511.0</ele><time>2026-03-22T11:28:51.249Z</time></trkpt><trkpt lat="40.3366487" lon="9.2897464"><ele>512.0</ele><time>2026-03-22T11:28:52.249Z</time></trkpt><trkpt lat="40.3364312" lon="9.2896718"><ele>513.0</ele><time>2026-03-22T11:28:53.249Z</time></trkpt><trkpt lat="40.336284" lon="9.2895548"><ele>510.66666666666663</ele><time>2026-03-22T11:28:54.248Z</time></trkpt><trkpt lat="40.3361302" lon="9.2894416"><ele>508.3333333333333</ele><time>2026-03-22T11:28:55.249Z</time></trkpt><trkpt lat="40.335975" lon="9.2893088"><ele>506.0</ele><time>2026-03-22T11:28:56.248Z</time></trkpt><trkpt lat="40.3358251" lon="9.2891567"><ele>506.0</ele><time>2026-03-22T11:28:57.248Z</time></trkpt><trkpt lat="40.3356902" lon="9.2889648"><ele>506.0</ele><time>2026-03-22T11:28:58.248Z</time></trkpt><trkpt lat="40.3355456" lon="9.2887822"><ele>506.0</ele><time>2026-03-22T11:28:59.248Z</time></trkpt><trkpt lat="40.335419" lon="9.2886052"><ele>504.0</ele><time>2026-03-22T11:29:00.248Z</time></trkpt><trkpt lat="40.3352984" lon="9.2884235"><ele>502.0</ele><time>2026-03-22T11:29:01.248Z</time></trkpt><trkpt lat="40.3351994" lon="9.2882186"><ele>500.0</ele><time>2026-03-22T11:29:02.248Z</time></trkpt><trkpt lat="40.3351276" lon="9.2879889"><ele>499.66666666666663</ele><time>2026-03-22T11:29:03.249Z</time></trkpt><trkpt lat="40.3350724" lon="9.2877546"><ele>499.33333333333337</ele><time>2026-03-22T11:29:04.247Z</time></trkpt><trkpt lat="40.3350222" lon="9.2875313"><ele>499.0</ele><time>2026-03-22T11:29:05.248Z</time></trkpt><trkpt lat="40.3349734" lon="9.2873321"><ele>497.33333333333337</ele><time>2026-03-22T11:29:06.247Z</time></trkpt><trkpt lat="40.3349521" lon="9.2871368"><ele>495.66666666666663</ele><time>2026-03-22T11:29:07.246Z</time></trkpt><trkpt lat="40.3349605" lon="9.286927"><ele>494.0</ele><time>2026-03-22T11:29:08.248Z</time></trkpt><trkpt lat="40.334997" lon="9.2867137"><ele>494.0</ele><time>2026-03-22T11:29:09.248Z</time></trkpt><trkpt lat="40.3350529" lon="9.2865071"><ele>494.0</ele><time>2026-03-22T11:29:10.248Z</time></trkpt><trkpt lat="40.3350756" lon="9.2863159"><ele>494.0</ele><time>2026-03-22T11:29:11.25Z</time></trkpt><trkpt lat="40.3350956" lon="9.2861354"><ele>493.3333333333333</ele><time>2026-03-22T11:29:12.248Z</time></trkpt><trkpt lat="40.3350968" lon="9.2859736"><ele>492.66666666666663</ele><time>2026-03-22T11:29:13.247Z</time></trkpt><trkpt lat="40.3349565" lon="9.2857776"><ele>492.0</ele><time>2026-03-22T11:29:14.247Z</time></trkpt><trkpt lat="40.3348806" lon="9.2856081"><ele>491.66666666666663</ele><time>2026-03-22T11:29:15.248Z</time></trkpt><trkpt lat="40.3347793" lon="9.2854426"><ele>491.3333333333333</ele><time>2026-03-22T11:29:16.247Z</time></trkpt><trkpt lat="40.3346019" lon="9.2853319"><ele>491.0</ele><time>2026-03-22T11:29:17.248Z</time></trkpt><trkpt lat="40.3344529" lon="9.2852377"><ele>489.0</ele><time>2026-03-22T11:29:18.265Z</time></trkpt><trkpt lat="40.334305" lon="9.2851842"><ele>487.0</ele><time>2026-03-22T11:29:19.262Z</time></trkpt><trkpt lat="40.3340118" lon="9.2851517"><ele>485.0</ele><time>2026-03-22T11:29:21.263Z</time></trkpt><trkpt lat="40.3338686" lon="9.2851527"><ele>485.0</ele><time>2026-03-22T11:29:22.293Z</time></trkpt><trkpt lat="40.3335926" lon="9.2851962"><ele>485.0</ele><time>2026-03-22T11:29:24.292Z</time></trkpt><trkpt lat="40.3333177" lon="9.2853053"><ele>484.5</ele><time>2026-03-22T11:29:26.272Z</time></trkpt><trkpt lat="40.3330195" lon="9.2854824"><ele>484.0</ele><time>2026-03-22T11:29:28.268Z</time></trkpt><trkpt lat="40.3326944" lon="9.2857431"><ele>483.5</ele><time>2026-03-22T11:29:30.26Z</time></trkpt><trkpt lat="40.3323232" lon="9.2860405"><ele>483.0</ele><time>2026-03-22T11:29:32.264Z</time></trkpt><trkpt lat="40.3321423" lon="9.2861782"><ele>483.0</ele><time>2026-03-22T11:29:33.247Z</time></trkpt><trkpt lat="40.3317746" lon="9.2864665"><ele>483.0</ele><time>2026-03-22T11:29:35.271Z</time></trkpt><trkpt lat="40.3315874" lon="9.2866219"><ele>483.0</ele><time>2026-03-22T11:29:36.273Z</time></trkpt><trkpt lat="40.3312145" lon="9.2869187"><ele>483.0</ele><time>2026-03-22T11:29:38.263Z</time></trkpt><trkpt lat="40.3308515" lon="9.2871935"><ele>483.0</ele><time>2026-03-22T11:29:40.266Z</time></trkpt><trkpt lat="40.3305156" lon="9.2874483"><ele>483.0</ele><time>2026-03-22T11:29:42.269Z</time></trkpt><trkpt lat="40.3303487" lon="9.2875922"><ele>483.0</ele><time>2026-03-22T11:29:43.247Z</time></trkpt><trkpt lat="40.3300341" lon="9.2878483"><ele>483.0</ele><time>2026-03-22T11:29:45.268Z</time></trkpt><trkpt lat="40.3297571" lon="9.2880851"><ele>483.33333333333337</ele><time>2026-03-22T11:29:47.262Z</time></trkpt><trkpt lat="40.3295238" lon="9.2883299"><ele>483.6666666666667</ele><time>2026-03-22T11:29:49.246Z</time></trkpt><trkpt lat="40.329418" lon="9.288441"><ele>484.0</ele><time>2026-03-22T11:29:50.25Z</time></trkpt><trkpt lat="40.3293242" lon="9.2885393"><ele>484.00000000000006</ele><time>2026-03-22T11:29:51.247Z</time></trkpt><trkpt lat="40.3292432" lon="9.2886366"><ele>484.0</ele><time>2026-03-22T11:29:52.249Z</time></trkpt><trkpt lat="40.3291759" lon="9.2887107"><ele>484.0</ele><time>2026-03-22T11:29:53.248Z</time></trkpt><trkpt lat="40.3291177" lon="9.2887739"><ele>484.0</ele><time>2026-03-22T11:29:54.248Z</time></trkpt><trkpt lat="40.329066" lon="9.2888462"><ele>484.00000000000006</ele><time>2026-03-22T11:29:55.248Z</time></trkpt><trkpt lat="40.3290049" lon="9.2888893"><ele>484.0</ele><time>2026-03-22T11:29:56.272Z</time></trkpt><trkpt lat="40.3288257" lon="9.2889302"><ele>484.4285714285714</ele><time>2026-03-22T11:29:59.248Z</time></trkpt><trkpt lat="40.3287483" lon="9.2889698"><ele>484.8571428571428</ele><time>2026-03-22T11:30:01.25Z</time></trkpt><trkpt lat="40.3286991" lon="9.2890243"><ele>485.2857142857143</ele><time>2026-03-22T11:30:30.248Z</time></trkpt><trkpt lat="40.3286517" lon="9.2890853"><ele>485.71428571428567</ele><time>2026-03-22T11:30:36.261Z</time></trkpt><trkpt lat="40.328577" lon="9.289087"><ele>486.1428571428571</ele><time>2026-03-22T11:30:58.25Z</time></trkpt><trkpt lat="40.3285119" lon="9.289125"><ele>486.57142857142856</ele><time>2026-03-22T11:31:03.248Z</time></trkpt><trkpt lat="40.3285793" lon="9.2891158"><ele>487.0</ele><time>2026-03-22T11:31:44.247Z</time></trkpt><trkpt lat="40.3286462" lon="9.2890853"><ele>487.0</ele><time>2026-03-22T11:31:51.246Z</time></trkpt><trkpt lat="40.328704" lon="9.2890387"><ele>487.0</ele><time>2026-03-22T11:33:15.256Z</time></trkpt><trkpt lat="40.3287173" lon="9.2891225"><ele>487.0</ele><time>2026-03-22T11:37:57.248Z</time></trkpt><trkpt lat="40.3287526" lon="9.2895035"><ele>487.0</ele><time>2026-03-22T11:38:01.248Z</time></trkpt><trkpt lat="40.3287564" lon="9.2897241"><ele>488.0</ele><time>2026-03-22T11:38:02.248Z</time></trkpt><trkpt lat="40.3287166" lon="9.290117"><ele>489.0</ele><time>2026-03-22T11:38:04.248Z</time></trkpt><trkpt lat="40.3286983" lon="9.2903281"><ele>489.0</ele><time>2026-03-22T11:38:05.248Z</time></trkpt><trkpt lat="40.3286726" lon="9.2905498"><ele>489.0</ele><time>2026-03-22T11:38:06.248Z</time></trkpt><trkpt lat="40.3286482" lon="9.2907683"><ele>489.0</ele><time>2026-03-22T11:38:07.248Z</time></trkpt><trkpt lat="40.3286285" lon="9.2909698"><ele>490.33333333333337</ele><time>2026-03-22T11:38:08.248Z</time></trkpt><trkpt lat="40.3286095" lon="9.2911638"><ele>491.6666666666667</ele><time>2026-03-22T11:38:09.248Z</time></trkpt><trkpt lat="40.3285915" lon="9.2913502"><ele>493.0</ele><time>2026-03-22T11:38:10.248Z</time></trkpt><trkpt lat="40.3285492" lon="9.2916907"><ele>493.4</ele><time>2026-03-22T11:38:12.248Z</time></trkpt><trkpt lat="40.3285199" lon="9.2918241"><ele>493.79999999999995</ele><time>2026-03-22T11:38:13.248Z</time></trkpt><trkpt lat="40.3284765" lon="9.2919452"><ele>494.2</ele><time>2026-03-22T11:38:14.248Z</time></trkpt><trkpt lat="40.3284236" lon="9.2920424"><ele>494.6</ele><time>2026-03-22T11:38:15.248Z</time></trkpt><trkpt lat="40.3283683" lon="9.2921243"><ele>495.0</ele><time>2026-03-22T11:38:16.248Z</time></trkpt><trkpt lat="40.3282987" lon="9.2921876"><ele>495.0</ele><time>2026-03-22T11:38:17.248Z</time></trkpt><trkpt lat="40.3281851" lon="9.2922185"><ele>495.0</ele><time>2026-03-22T11:38:18.248Z</time></trkpt><trkpt lat="40.3279333" lon="9.2922667"><ele>495.0</ele><time>2026-03-22T11:38:20.248Z</time></trkpt><trkpt lat="40.3276208" lon="9.2922741"><ele>498.0</ele><time>2026-03-22T11:38:22.248Z</time></trkpt><trkpt lat="40.3274428" lon="9.2922752"><ele>501.0</ele><time>2026-03-22T11:38:23.248Z</time></trkpt><trkpt lat="40.3270687" lon="9.2922522"><ele>501.0</ele><time>2026-03-22T11:38:25.248Z</time></trkpt><trkpt lat="40.3266961" lon="9.2922359"><ele>501.0</ele><time>2026-03-22T11:38:27.248Z</time></trkpt><trkpt lat="40.3263358" lon="9.2922139"><ele>503.5</ele><time>2026-03-22T11:38:29.248Z</time></trkpt><trkpt lat="40.3260397" lon="9.2921875"><ele>506.0</ele><time>2026-03-22T11:38:31.248Z</time></trkpt><trkpt lat="40.3257991" lon="9.2921254"><ele>506.0</ele><time>2026-03-22T11:38:33.248Z</time></trkpt><trkpt lat="40.3256142" lon="9.2920232"><ele>506.0</ele><time>2026-03-22T11:38:35.248Z</time></trkpt><trkpt lat="40.325492" lon="9.2918666"><ele>506.0</ele><time>2026-03-22T11:38:37.248Z</time></trkpt><trkpt lat="40.3254451" lon="9.2917835"><ele>507.1428571428572</ele><time>2026-03-22T11:38:38.248Z</time></trkpt><trkpt lat="40.3253901" lon="9.2917123"><ele>508.28571428571433</ele><time>2026-03-22T11:38:39.248Z</time></trkpt><trkpt lat="40.3253325" lon="9.2916581"><ele>509.42857142857144</ele><time>2026-03-22T11:38:40.248Z</time></trkpt><trkpt lat="40.3252609" lon="9.2916304"><ele>510.5714285714286</ele><time>2026-03-22T11:38:41.248Z</time></trkpt><trkpt lat="40.3251841" lon="9.2916187"><ele>511.7142857142858</ele><time>2026-03-22T11:38:42.248Z</time></trkpt><trkpt lat="40.3251136" lon="9.2916572"><ele>512.8571428571429</ele><time>2026-03-22T11:38:43.248Z</time></trkpt><trkpt lat="40.3250471" lon="9.29168"><ele>514.0</ele><time>2026-03-22T11:38:44.248Z</time></trkpt><trkpt lat="40.3249291" lon="9.2916903"><ele>514.0</ele><time>2026-03-22T11:38:46.248Z</time></trkpt><trkpt lat="40.324805" lon="9.2916418"><ele>514.0</ele><time>2026-03-22T11:38:48.248Z</time></trkpt><trkpt lat="40.3247584" lon="9.2915564"><ele>514.0</ele><time>2026-03-22T11:38:49.248Z</time></trkpt><trkpt lat="40.324703" lon="9.2914644"><ele>514.0</ele><time>2026-03-22T11:38:50.248Z</time></trkpt><trkpt lat="40.3246491" lon="9.2913605"><ele>514.0</ele><time>2026-03-22T11:38:51.248Z</time></trkpt><trkpt lat="40.3245902" lon="9.2912253"><ele>516.3333333333334</ele><time>2026-03-22T11:38:52.248Z</time></trkpt><trkpt lat="40.3245344" lon="9.2910686"><ele>518.6666666666666</ele><time>2026-03-22T11:38:53.248Z</time></trkpt><trkpt lat="40.3243932" lon="9.2907393"><ele>521.0</ele><time>2026-03-22T11:38:55.248Z</time></trkpt><trkpt lat="40.3243346" lon="9.2905849"><ele>521.0</ele><time>2026-03-22T11:38:56.248Z</time></trkpt><trkpt lat="40.3242818" lon="9.290421"><ele>521.0</ele><time>2026-03-22T11:38:57.248Z</time></trkpt><trkpt lat="40.3241951" lon="9.290023"><ele>519.5</ele><time>2026-03-22T11:38:59.248Z</time></trkpt><trkpt lat="40.3241081" lon="9.2895817"><ele>518.0</ele><time>2026-03-22T11:39:01.248Z</time></trkpt><trkpt lat="40.3240166" lon="9.2890898"><ele>516.0</ele><time>2026-03-22T11:39:03.248Z</time></trkpt><trkpt lat="40.3239456" lon="9.2885708"><ele>514.0</ele><time>2026-03-22T11:39:05.248Z</time></trkpt><trkpt lat="40.3238805" lon="9.2880799"><ele>519.5</ele><time>2026-03-22T11:39:07.248Z</time></trkpt><trkpt lat="40.32382" lon="9.2876349"><ele>525.0</ele><time>2026-03-22T11:39:09.248Z</time></trkpt><trkpt lat="40.3237967" lon="9.2872917"><ele>522.0</ele><time>2026-03-22T11:39:11.248Z</time></trkpt><trkpt lat="40.3237883" lon="9.2870138"><ele>519.0</ele><time>2026-03-22T11:39:13.248Z</time></trkpt><trkpt lat="40.3238509" lon="9.2867564"><ele>516.0</ele><time>2026-03-22T11:39:15.248Z</time></trkpt><trkpt lat="40.323925" lon="9.286659"><ele>513.3333333333334</ele><time>2026-03-22T11:39:16.248Z</time></trkpt><trkpt lat="40.3241072" lon="9.2864982"><ele>510.6666666666667</ele><time>2026-03-22T11:39:18.248Z</time></trkpt><trkpt lat="40.3242742" lon="9.2863217"><ele>508.0</ele><time>2026-03-22T11:39:20.248Z</time></trkpt><trkpt lat="40.3243868" lon="9.2860884"><ele>506.6666666666667</ele><time>2026-03-22T11:39:22.248Z</time></trkpt><trkpt lat="40.3244057" lon="9.2857773"><ele>505.33333333333337</ele><time>2026-03-22T11:39:24.248Z</time></trkpt><trkpt lat="40.3243882" lon="9.2856104"><ele>504.0</ele><time>2026-03-22T11:39:25.248Z</time></trkpt><trkpt lat="40.3243386" lon="9.2854297"><ele>503.5</ele><time>2026-03-22T11:39:26.248Z</time></trkpt><trkpt lat="40.3241852" lon="9.2850963"><ele>503.0</ele><time>2026-03-22T11:39:28.248Z</time></trkpt><trkpt lat="40.3239644" lon="9.2848187"><ele>506.5</ele><time>2026-03-22T11:39:30.248Z</time></trkpt><trkpt lat="40.3238384" lon="9.2847091"><ele>510.0</ele><time>2026-03-22T11:39:31.248Z</time></trkpt><trkpt lat="40.3235486" lon="9.2845656"><ele>510.0</ele><time>2026-03-22T11:39:33.248Z</time></trkpt><trkpt lat="40.3232116" lon="9.2844606"><ele>510.0</ele><time>2026-03-22T11:39:35.248Z</time></trkpt><trkpt lat="40.3228319" lon="9.284363"><ele>511.5</ele><time>2026-03-22T11:39:37.248Z</time></trkpt><trkpt lat="40.322456" lon="9.284262"><ele>513.0</ele><time>2026-03-22T11:39:39.248Z</time></trkpt><trkpt lat="40.3220682" lon="9.2841673"><ele>517.0</ele><time>2026-03-22T11:39:41.248Z</time></trkpt><trkpt lat="40.3216706" lon="9.2840627"><ele>521.0</ele><time>2026-03-22T11:39:43.248Z</time></trkpt><trkpt lat="40.3214696" lon="9.2840001"><ele>532.0</ele><time>2026-03-22T11:39:44.248Z</time></trkpt><trkpt lat="40.3210684" lon="9.2838795"><ele>543.0</ele><time>2026-03-22T11:39:46.248Z</time></trkpt><trkpt lat="40.311448" lon="9.2810908"><ele>542.0</ele><time>2026-03-22T11:40:28.248Z</time></trkpt><trkpt lat="40.3109166" lon="9.2809785"><ele>542.0</ele><time>2026-03-22T11:40:30.248Z</time></trkpt><trkpt lat="40.3106663" lon="9.2811009"><ele>542.0</ele><time>2026-03-22T11:40:31.248Z</time></trkpt><trkpt lat="40.3104651" lon="9.2811022"><ele>540.6666666666666</ele><time>2026-03-22T11:40:32.248Z</time></trkpt><trkpt lat="40.3102532" lon="9.281065"><ele>539.3333333333334</ele><time>2026-03-22T11:40:33.248Z</time></trkpt><trkpt lat="40.3100357" lon="9.2810344"><ele>538.0</ele><time>2026-03-22T11:40:34.248Z</time></trkpt><trkpt lat="40.3098197" lon="9.2809828"><ele>535.0</ele><time>2026-03-22T11:40:35.248Z</time></trkpt><trkpt lat="40.3093739" lon="9.2808761"><ele>535.0</ele><time>2026-03-22T11:40:37.248Z</time></trkpt><trkpt lat="40.3089196" lon="9.2807723"><ele>533.5</ele><time>2026-03-22T11:40:39.248Z</time></trkpt><trkpt lat="40.308689" lon="9.280723"><ele>532.0</ele><time>2026-03-22T11:40:40.248Z</time></trkpt><trkpt lat="40.3084673" lon="9.2806708"><ele>532.0</ele><time>2026-03-22T11:40:41.248Z</time></trkpt><trkpt lat="40.3082553" lon="9.2806156"><ele>532.0</ele><time>2026-03-22T11:40:42.248Z</time></trkpt><trkpt lat="40.3080427" lon="9.2805526"><ele>532.0</ele><time>2026-03-22T11:40:43.248Z</time></trkpt><trkpt lat="40.3076216" lon="9.2803776"><ele>533.0</ele><time>2026-03-22T11:40:45.248Z</time></trkpt><trkpt lat="40.3074134" lon="9.2802676"><ele>534.0</ele><time>2026-03-22T11:40:46.248Z</time></trkpt><trkpt lat="40.3070018" lon="9.2800236"><ele>534.5</ele><time>2026-03-22T11:40:48.248Z</time></trkpt><trkpt lat="40.3067986" lon="9.2798864"><ele>535.0</ele><time>2026-03-22T11:40:49.248Z</time></trkpt><trkpt lat="40.3065909" lon="9.2797433"><ele>535.5</ele><time>2026-03-22T11:40:50.248Z</time></trkpt><trkpt lat="40.3063875" lon="9.279592"><ele>536.0</ele><time>2026-03-22T11:40:51.248Z</time></trkpt><trkpt lat="40.3059673" lon="9.2792773"><ele>536.0</ele><time>2026-03-22T11:40:53.248Z</time></trkpt><trkpt lat="40.3057475" lon="9.2791158"><ele>536.0</ele><time>2026-03-22T11:40:54.248Z</time></trkpt><trkpt lat="40.3053218" lon="9.2787944"><ele>529.0</ele><time>2026-03-22T11:40:56.248Z</time></trkpt><trkpt lat="40.3049099" lon="9.2784761"><ele>526.0</ele><time>2026-03-22T11:40:58.248Z</time></trkpt><trkpt lat="40.3044991" lon="9.27817"><ele>524.0</ele><time>2026-03-22T11:41:00.248Z</time></trkpt><trkpt lat="40.3040916" lon="9.2778691"><ele>523.0</ele><time>2026-03-22T11:41:02.248Z</time></trkpt><trkpt lat="40.3036924" lon="9.2775622"><ele>521.0</ele><time>2026-03-22T11:41:04.248Z</time></trkpt><trkpt lat="40.3033054" lon="9.2772525"><ele>521.0</ele><time>2026-03-22T11:41:06.248Z</time></trkpt><trkpt lat="40.3029134" lon="9.2769465"><ele>521.0</ele><time>2026-03-22T11:41:08.248Z</time></trkpt><trkpt lat="40.3025137" lon="9.2766422"><ele>519.0</ele><time>2026-03-22T11:41:10.248Z</time></trkpt><trkpt lat="40.3021011" lon="9.2763458"><ele>519.0</ele><time>2026-03-22T11:41:12.248Z</time></trkpt><trkpt lat="40.3016871" lon="9.2760343"><ele>517.0</ele><time>2026-03-22T11:41:14.248Z</time></trkpt><trkpt lat="40.3012983" lon="9.2757356"><ele>517.6666666666667</ele><time>2026-03-22T11:41:16.248Z</time></trkpt><trkpt lat="40.3011062" lon="9.2755857"><ele>518.3333333333334</ele><time>2026-03-22T11:41:17.248Z</time></trkpt><trkpt lat="40.3009164" lon="9.2754288"><ele>519.0</ele><time>2026-03-22T11:41:18.248Z</time></trkpt><trkpt lat="40.3005505" lon="9.2750938"><ele>518.0</ele><time>2026-03-22T11:41:20.248Z</time></trkpt><trkpt lat="40.3002056" lon="9.2747252"><ele>517.0</ele><time>2026-03-22T11:41:22.249Z</time></trkpt><trkpt lat="40.2998767" lon="9.2743252"><ele>516.5</ele><time>2026-03-22T11:41:24.248Z</time></trkpt><trkpt lat="40.2995516" lon="9.2739194"><ele>516.0</ele><time>2026-03-22T11:41:26.248Z</time></trkpt><trkpt lat="40.2992246" lon="9.2735021"><ele>516.0</ele><time>2026-03-22T11:41:28.248Z</time></trkpt><trkpt lat="40.298893" lon="9.2730834"><ele>516.0</ele><time>2026-03-22T11:41:30.248Z</time></trkpt><trkpt lat="40.298566" lon="9.2726516"><ele>516.0</ele><time>2026-03-22T11:41:32.248Z</time></trkpt><trkpt lat="40.2982353" lon="9.272223"><ele>516.0</ele><time>2026-03-22T11:41:34.248Z</time></trkpt><trkpt lat="40.2979014" lon="9.2717977"><ele>520.0</ele><time>2026-03-22T11:41:36.248Z</time></trkpt><trkpt lat="40.2975636" lon="9.2713808"><ele>519.0</ele><time>2026-03-22T11:41:38.248Z</time></trkpt><trkpt lat="40.2972315" lon="9.2709523"><ele>524.0</ele><time>2026-03-22T11:41:40.248Z</time></trkpt><trkpt lat="40.2969009" lon="9.2705204"><ele>524.0</ele><time>2026-03-22T11:41:42.248Z</time></trkpt><trkpt lat="40.296571" lon="9.2700828"><ele>525.0</ele><time>2026-03-22T11:41:44.248Z</time></trkpt><trkpt lat="40.2962378" lon="9.2696525"><ele>525.0</ele><time>2026-03-22T11:41:46.248Z</time></trkpt><trkpt lat="40.2960689" lon="9.2694347"><ele>525.0</ele><time>2026-03-22T11:41:47.248Z</time></trkpt><trkpt lat="40.2957254" lon="9.2689864"><ele>525.5</ele><time>2026-03-22T11:41:49.248Z</time></trkpt><trkpt lat="40.295553" lon="9.2687644"><ele>526.0</ele><time>2026-03-22T11:41:50.248Z</time></trkpt><trkpt lat="40.2953812" lon="9.2685421"><ele>526.0</ele><time>2026-03-22T11:41:51.248Z</time></trkpt><trkpt lat="40.2952017" lon="9.268316"><ele>526.0</ele><time>2026-03-22T11:41:52.248Z</time></trkpt><trkpt lat="40.2950242" lon="9.2680841"><ele>527.5</ele><time>2026-03-22T11:41:53.248Z</time></trkpt><trkpt lat="40.2948396" lon="9.2678547"><ele>529.0</ele><time>2026-03-22T11:41:54.248Z</time></trkpt><trkpt lat="40.2946581" lon="9.2676203"><ele>529.0</ele><time>2026-03-22T11:41:55.248Z</time></trkpt><trkpt lat="40.2944706" lon="9.2673898"><ele>529.0</ele><time>2026-03-22T11:41:56.248Z</time></trkpt><trkpt lat="40.2940893" lon="9.2669236"><ele>534.0</ele><time>2026-03-22T11:41:58.248Z</time></trkpt><trkpt lat="40.2936871" lon="9.2664685"><ele>534.5</ele><time>2026-03-22T11:42:00.248Z</time></trkpt><trkpt lat="40.2934874" lon="9.2662384"><ele>535.0</ele><time>2026-03-22T11:42:01.248Z</time></trkpt><trkpt lat="40.2932894" lon="9.2660164"><ele>540.0</ele><time>2026-03-22T11:42:02.248Z</time></trkpt><trkpt lat="40.2928859" lon="9.2655691"><ele>540.0</ele><time>2026-03-22T11:42:04.248Z</time></trkpt><trkpt lat="40.2924652" lon="9.2651391"><ele>541.5</ele><time>2026-03-22T11:42:06.248Z</time></trkpt><trkpt lat="40.2922528" lon="9.2649317"><ele>543.0</ele><time>2026-03-22T11:42:07.248Z</time></trkpt><trkpt lat="40.2918138" lon="9.2645398"><ele>547.0</ele><time>2026-03-22T11:42:09.248Z</time></trkpt><trkpt lat="40.2913706" lon="9.2641641"><ele>549.0</ele><time>2026-03-22T11:42:11.248Z</time></trkpt><trkpt lat="40.2909406" lon="9.2637958"><ele>549.0</ele><time>2026-03-22T11:42:13.248Z</time></trkpt><trkpt lat="40.290718" lon="9.2636263"><ele>549.0</ele><time>2026-03-22T11:42:14.248Z</time></trkpt><trkpt lat="40.2902848" lon="9.2632752"><ele>553.0</ele><time>2026-03-22T11:42:16.248Z</time></trkpt><trkpt lat="40.2900623" lon="9.2631152"><ele>557.0</ele><time>2026-03-22T11:42:17.248Z</time></trkpt><trkpt lat="40.2896174" lon="9.2628146"><ele>560.0</ele><time>2026-03-22T11:42:19.248Z</time></trkpt><trkpt lat="40.289223" lon="9.2625701"><ele>563.0</ele><time>2026-03-22T11:42:21.248Z</time></trkpt><trkpt lat="40.2888402" lon="9.2623475"><ele>564.0</ele><time>2026-03-22T11:42:23.248Z</time></trkpt><trkpt lat="40.2886459" lon="9.2622368"><ele>565.0</ele><time>2026-03-22T11:42:24.248Z</time></trkpt><trkpt lat="40.2884457" lon="9.2621329"><ele>566.0</ele><time>2026-03-22T11:42:25.248Z</time></trkpt><trkpt lat="40.2882424" lon="9.2620314"><ele>566.3333333333333</ele><time>2026-03-22T11:42:26.248Z</time></trkpt><trkpt lat="40.2880386" lon="9.2619287"><ele>566.6666666666666</ele><time>2026-03-22T11:42:27.248Z</time></trkpt><trkpt lat="40.2878316" lon="9.261831"><ele>567.0</ele><time>2026-03-22T11:42:28.248Z</time></trkpt><trkpt lat="40.2874119" lon="9.261634"><ele>568.0</ele><time>2026-03-22T11:42:30.248Z</time></trkpt><trkpt lat="40.2871999" lon="9.2615383"><ele>569.0</ele><time>2026-03-22T11:42:31.248Z</time></trkpt><trkpt lat="40.2867674" lon="9.2613554"><ele>572.0</ele><time>2026-03-22T11:42:33.248Z</time></trkpt><trkpt lat="40.2865516" lon="9.2612686"><ele>575.0</ele><time>2026-03-22T11:42:34.248Z</time></trkpt><trkpt lat="40.2861118" lon="9.2611136"><ele>575.0</ele><time>2026-03-22T11:42:36.248Z</time></trkpt><trkpt lat="40.2858921" lon="9.2610408"><ele>575.0</ele><time>2026-03-22T11:42:37.248Z</time></trkpt><trkpt lat="40.2854428" lon="9.2609083"><ele>573.0</ele><time>2026-03-22T11:42:39.248Z</time></trkpt><trkpt lat="40.2849904" lon="9.2607905"><ele>573.0</ele><time>2026-03-22T11:42:41.248Z</time></trkpt><trkpt lat="40.2847633" lon="9.2607322"><ele>573.0</ele><time>2026-03-22T11:42:42.248Z</time></trkpt><trkpt lat="40.2843085" lon="9.2606232"><ele>574.5</ele><time>2026-03-22T11:42:44.248Z</time></trkpt><trkpt lat="40.2840812" lon="9.2605701"><ele>576.0</ele><time>2026-03-22T11:42:45.248Z</time></trkpt><trkpt lat="40.2838532" lon="9.2605182"><ele>579.0</ele><time>2026-03-22T11:42:46.248Z</time></trkpt><trkpt lat="40.2833953" lon="9.2604304"><ele>578.0</ele><time>2026-03-22T11:42:48.248Z</time></trkpt><trkpt lat="40.2829402" lon="9.2603423"><ele>578.0</ele><time>2026-03-22T11:42:50.248Z</time></trkpt><trkpt lat="40.2824785" lon="9.2602643"><ele>577.0</ele><time>2026-03-22T11:42:52.248Z</time></trkpt><trkpt lat="40.2820218" lon="9.2601751"><ele>577.0</ele><time>2026-03-22T11:42:54.249Z</time></trkpt><trkpt lat="40.281567" lon="9.2600813"><ele>583.0</ele><time>2026-03-22T11:42:56.248Z</time></trkpt><trkpt lat="40.2811143" lon="9.2599903"><ele>583.0</ele><time>2026-03-22T11:42:58.248Z</time></trkpt><trkpt lat="40.2808848" lon="9.2599427"><ele>583.0</ele><time>2026-03-22T11:42:59.248Z</time></trkpt><trkpt lat="40.280656" lon="9.2598985"><ele>586.0</ele><time>2026-03-22T11:43:00.248Z</time></trkpt><trkpt lat="40.2801924" lon="9.2598053"><ele>593.0</ele><time>2026-03-22T11:43:02.248Z</time></trkpt><trkpt lat="40.2797222" lon="9.2597176"><ele>593.0</ele><time>2026-03-22T11:43:04.248Z</time></trkpt><trkpt lat="40.2794879" lon="9.2596746"><ele>593.0</ele><time>2026-03-22T11:43:05.248Z</time></trkpt><trkpt lat="40.2790098" lon="9.2595878"><ele>589.0</ele><time>2026-03-22T11:43:07.248Z</time></trkpt><trkpt lat="40.2785437" lon="9.2594921"><ele>584.0</ele><time>2026-03-22T11:43:09.248Z</time></trkpt><trkpt lat="40.2780871" lon="9.2593697"><ele>584.0</ele><time>2026-03-22T11:43:11.248Z</time></trkpt><trkpt lat="40.2776305" lon="9.2592464"><ele>579.0</ele><time>2026-03-22T11:43:13.248Z</time></trkpt><trkpt lat="40.277175" lon="9.2590985"><ele>582.0</ele><time>2026-03-22T11:43:15.248Z</time></trkpt><trkpt lat="40.2767219" lon="9.2589501"><ele>582.0</ele><time>2026-03-22T11:43:17.248Z</time></trkpt><trkpt lat="40.2764996" lon="9.2588627"><ele>582.0</ele><time>2026-03-22T11:43:18.248Z</time></trkpt><trkpt lat="40.2762751" lon="9.2587679"><ele>580.5</ele><time>2026-03-22T11:43:19.248Z</time></trkpt><trkpt lat="40.2760531" lon="9.2586646"><ele>579.0</ele><time>2026-03-22T11:43:20.248Z</time></trkpt><trkpt lat="40.275616" lon="9.258437"><ele>582.5</ele><time>2026-03-22T11:43:22.248Z</time></trkpt><trkpt lat="40.2753981" lon="9.258316"><ele>586.0</ele><time>2026-03-22T11:43:23.248Z</time></trkpt><trkpt lat="40.2749675" lon="9.2580602"><ele>592.0</ele><time>2026-03-22T11:43:25.248Z</time></trkpt><trkpt lat="40.2745419" lon="9.2577786"><ele>592.0</ele><time>2026-03-22T11:43:27.248Z</time></trkpt><trkpt lat="40.274124" lon="9.2574701"><ele>594.0</ele><time>2026-03-22T11:43:29.248Z</time></trkpt><trkpt lat="40.2737085" lon="9.2571402"><ele>594.0</ele><time>2026-03-22T11:43:31.248Z</time></trkpt><trkpt lat="40.2735022" lon="9.2569658"><ele>594.0</ele><time>2026-03-22T11:43:32.248Z</time></trkpt><trkpt lat="40.2732973" lon="9.2567845"><ele>596.5</ele><time>2026-03-22T11:43:33.248Z</time></trkpt><trkpt lat="40.2730948" lon="9.2565989"><ele>599.0</ele><time>2026-03-22T11:43:34.248Z</time></trkpt><trkpt lat="40.272898" lon="9.2564007"><ele>594.0</ele><time>2026-03-22T11:43:35.248Z</time></trkpt><trkpt lat="40.272696" lon="9.2562008"><ele>589.0</ele><time>2026-03-22T11:43:36.248Z</time></trkpt><trkpt lat="40.2724942" lon="9.255998"><ele>589.0</ele><time>2026-03-22T11:43:37.248Z</time></trkpt><trkpt lat="40.2722903" lon="9.2557926"><ele>589.0</ele><time>2026-03-22T11:43:38.248Z</time></trkpt><trkpt lat="40.272092" lon="9.2555828"><ele>588.5</ele><time>2026-03-22T11:43:39.248Z</time></trkpt><trkpt lat="40.2718981" lon="9.2553658"><ele>588.0</ele><time>2026-03-22T11:43:40.248Z</time></trkpt><trkpt lat="40.2717011" lon="9.2551488"><ele>578.0</ele><time>2026-03-22T11:43:41.248Z</time></trkpt><trkpt lat="40.2713104" lon="9.2547113"><ele>578.0</ele><time>2026-03-22T11:43:43.248Z</time></trkpt><trkpt lat="40.2709208" lon="9.254257"><ele>569.0</ele><time>2026-03-22T11:43:45.248Z</time></trkpt><trkpt lat="40.2705311" lon="9.2538058"><ele>569.0</ele><time>2026-03-22T11:43:47.248Z</time></trkpt><trkpt lat="40.2701509" lon="9.2533702"><ele>570.0</ele><time>2026-03-22T11:43:49.248Z</time></trkpt><trkpt lat="40.2697804" lon="9.2529334"><ele>566.0</ele><time>2026-03-22T11:43:51.248Z</time></trkpt><trkpt lat="40.2693908" lon="9.2525393"><ele>583.0</ele><time>2026-03-22T11:43:53.248Z</time></trkpt><trkpt lat="40.2690038" lon="9.2521892"><ele>564.0</ele><time>2026-03-22T11:43:55.248Z</time></trkpt><trkpt lat="40.2686038" lon="9.2518582"><ele>564.0</ele><time>2026-03-22T11:43:57.248Z</time></trkpt><trkpt lat="40.2681776" lon="9.2515582"><ele>564.0</ele><time>2026-03-22T11:43:59.248Z</time></trkpt><trkpt lat="40.2677544" lon="9.2512967"><ele>564.0</ele><time>2026-03-22T11:44:01.248Z</time></trkpt><trkpt lat="40.2673583" lon="9.2510721"><ele>564.0</ele><time>2026-03-22T11:44:03.248Z</time></trkpt><trkpt lat="40.2669546" lon="9.250854"><ele>558.5</ele><time>2026-03-22T11:44:05.248Z</time></trkpt><trkpt lat="40.2667448" lon="9.2507483"><ele>553.0</ele><time>2026-03-22T11:44:06.248Z</time></trkpt><trkpt lat="40.2665294" lon="9.2506429"><ele>549.0</ele><time>2026-03-22T11:44:07.248Z</time></trkpt><trkpt lat="40.2663072" lon="9.2505383"><ele>545.0</ele><time>2026-03-22T11:44:08.248Z</time></trkpt><trkpt lat="40.2658571" lon="9.2503228"><ele>543.0</ele><time>2026-03-22T11:44:10.248Z</time></trkpt><trkpt lat="40.265439" lon="9.2501283"><ele>541.0</ele><time>2026-03-22T11:44:12.248Z</time></trkpt><trkpt lat="40.2650588" lon="9.2499417"><ele>541.0</ele><time>2026-03-22T11:44:14.248Z</time></trkpt><trkpt lat="40.2646605" lon="9.2497464"><ele>541.0</ele><time>2026-03-22T11:44:16.248Z</time></trkpt><trkpt lat="40.2644528" lon="9.2496419"><ele>541.0</ele><time>2026-03-22T11:44:17.248Z</time></trkpt><trkpt lat="40.2642429" lon="9.2495351"><ele>541.0</ele><time>2026-03-22T11:44:18.248Z</time></trkpt><trkpt lat="40.2640292" lon="9.2494259"><ele>538.0</ele><time>2026-03-22T11:44:19.248Z</time></trkpt><trkpt lat="40.2635864" lon="9.2492075"><ele>538.0</ele><time>2026-03-22T11:44:21.248Z</time></trkpt><trkpt lat="40.263132" lon="9.2489789"><ele>540.0</ele><time>2026-03-22T11:44:23.248Z</time></trkpt><trkpt lat="40.262902" lon="9.248866"><ele>542.0</ele><time>2026-03-22T11:44:24.248Z</time></trkpt><trkpt lat="40.2624346" lon="9.2486297"><ele>538.5</ele><time>2026-03-22T11:44:26.248Z</time></trkpt><trkpt lat="40.2621972" lon="9.248511"><ele>535.0</ele><time>2026-03-22T11:44:27.248Z</time></trkpt><trkpt lat="40.2617252" lon="9.2482752"><ele>535.0</ele><time>2026-03-22T11:44:29.248Z</time></trkpt><trkpt lat="40.2612447" lon="9.248046"><ele>535.0</ele><time>2026-03-22T11:44:31.248Z</time></trkpt><trkpt lat="40.2607621" lon="9.2478109"><ele>529.0</ele><time>2026-03-22T11:44:33.248Z</time></trkpt><trkpt lat="40.2602806" lon="9.247584"><ele>529.0</ele><time>2026-03-22T11:44:35.248Z</time></trkpt><trkpt lat="40.2598111" lon="9.2473568"><ele>521.0</ele><time>2026-03-22T11:44:37.248Z</time></trkpt><trkpt lat="40.2593447" lon="9.2471339"><ele>521.0</ele><time>2026-03-22T11:44:39.248Z</time></trkpt><trkpt lat="40.2591151" lon="9.2470239"><ele>521.0</ele><time>2026-03-22T11:44:40.248Z</time></trkpt><trkpt lat="40.2588912" lon="9.2469168"><ele>516.0</ele><time>2026-03-22T11:44:41.248Z</time></trkpt><trkpt lat="40.2586752" lon="9.2468141"><ele>511.0</ele><time>2026-03-22T11:44:42.248Z</time></trkpt><trkpt lat="40.2584639" lon="9.2467241"><ele>511.0</ele><time>2026-03-22T11:44:43.248Z</time></trkpt><trkpt lat="40.2582543" lon="9.24665"><ele>511.0</ele><time>2026-03-22T11:44:44.248Z</time></trkpt><trkpt lat="40.2580496" lon="9.2465898"><ele>511.0</ele><time>2026-03-22T11:44:45.248Z</time></trkpt><trkpt lat="40.2578429" lon="9.2465408"><ele>508.0</ele><time>2026-03-22T11:44:46.248Z</time></trkpt><trkpt lat="40.2576325" lon="9.2465066"><ele>505.0</ele><time>2026-03-22T11:44:47.248Z</time></trkpt><trkpt lat="40.2574229" lon="9.2464794"><ele>502.0</ele><time>2026-03-22T11:44:48.248Z</time></trkpt><trkpt lat="40.2572107" lon="9.246467"><ele>495.6666666666667</ele><time>2026-03-22T11:44:49.248Z</time></trkpt><trkpt lat="40.2569971" lon="9.2464668"><ele>489.33333333333337</ele><time>2026-03-22T11:44:50.248Z</time></trkpt><trkpt lat="40.2567775" lon="9.2464789"><ele>483.0</ele><time>2026-03-22T11:44:51.248Z</time></trkpt><trkpt lat="40.256558" lon="9.2465063"><ele>469.66666666666663</ele><time>2026-03-22T11:44:52.248Z</time></trkpt><trkpt lat="40.2563416" lon="9.2465487"><ele>456.3333333333333</ele><time>2026-03-22T11:44:53.248Z</time></trkpt><trkpt lat="40.2561247" lon="9.2466115"><ele>443.0</ele><time>2026-03-22T11:44:54.248Z</time></trkpt><trkpt lat="40.2559084" lon="9.24669"><ele>443.0</ele><time>2026-03-22T11:44:55.248Z</time></trkpt><trkpt lat="40.2556899" lon="9.2467786"><ele>443.0</ele><time>2026-03-22T11:44:56.248Z</time></trkpt><trkpt lat="40.2554762" lon="9.2468793"><ele>440.0</ele><time>2026-03-22T11:44:57.248Z</time></trkpt><trkpt lat="40.2552676" lon="9.2469974"><ele>437.0</ele><time>2026-03-22T11:44:58.248Z</time></trkpt><trkpt lat="40.2550661" lon="9.2471259"><ele>437.0</ele><time>2026-03-22T11:44:59.248Z</time></trkpt><trkpt lat="40.2548708" lon="9.247269"><ele>437.0</ele><time>2026-03-22T11:45:00.248Z</time></trkpt><trkpt lat="40.2546754" lon="9.2474217"><ele>455.0</ele><time>2026-03-22T11:45:01.248Z</time></trkpt><trkpt lat="40.2544905" lon="9.2475843"><ele>473.0</ele><time>2026-03-22T11:45:02.248Z</time></trkpt><trkpt lat="40.2543062" lon="9.2477649"><ele>473.0</ele><time>2026-03-22T11:45:03.248Z</time></trkpt><trkpt lat="40.254132" lon="9.2479603"><ele>473.0</ele><time>2026-03-22T11:45:04.248Z</time></trkpt><trkpt lat="40.2539614" lon="9.2481544"><ele>485.5</ele><time>2026-03-22T11:45:05.248Z</time></trkpt><trkpt lat="40.2537898" lon="9.2483709"><ele>498.0</ele><time>2026-03-22T11:45:06.248Z</time></trkpt><trkpt lat="40.2536345" lon="9.2485887"><ele>498.0</ele><time>2026-03-22T11:45:07.248Z</time></trkpt><trkpt lat="40.2534729" lon="9.2488212"><ele>498.0</ele><time>2026-03-22T11:45:08.248Z</time></trkpt><trkpt lat="40.2533137" lon="9.2490537"><ele>501.0</ele><time>2026-03-22T11:45:09.248Z</time></trkpt><trkpt lat="40.253149" lon="9.2492957"><ele>504.0</ele><time>2026-03-22T11:45:10.247Z</time></trkpt><trkpt lat="40.2529807" lon="9.2495469"><ele>514.5</ele><time>2026-03-22T11:45:11.248Z</time></trkpt><trkpt lat="40.2528051" lon="9.2497994"><ele>525.0</ele><time>2026-03-22T11:45:12.248Z</time></trkpt><trkpt lat="40.2526259" lon="9.250058"><ele>525.0</ele><time>2026-03-22T11:45:13.248Z</time></trkpt><trkpt lat="40.2524398" lon="9.2503169"><ele>525.0</ele><time>2026-03-22T11:45:14.248Z</time></trkpt><trkpt lat="40.2522645" lon="9.2505688"><ele>532.5</ele><time>2026-03-22T11:45:15.248Z</time></trkpt><trkpt lat="40.2520769" lon="9.2508401"><ele>540.0</ele><time>2026-03-22T11:45:16.248Z</time></trkpt><trkpt lat="40.2517277" lon="9.2513594"><ele>538.0</ele><time>2026-03-22T11:45:18.248Z</time></trkpt><trkpt lat="40.251562" lon="9.2515892"><ele>536.0</ele><time>2026-03-22T11:45:19.248Z</time></trkpt><trkpt lat="40.2512458" lon="9.2520444"><ele>510.0</ele><time>2026-03-22T11:45:21.248Z</time></trkpt><trkpt lat="40.250941" lon="9.2525015"><ele>510.0</ele><time>2026-03-22T11:45:23.248Z</time></trkpt><trkpt lat="40.2507841" lon="9.2527271"><ele>510.0</ele><time>2026-03-22T11:45:24.248Z</time></trkpt><trkpt lat="40.2504603" lon="9.2531863"><ele>482.0</ele><time>2026-03-22T11:45:26.248Z</time></trkpt><trkpt lat="40.2501427" lon="9.2536691"><ele>473.0</ele><time>2026-03-22T11:45:28.248Z</time></trkpt><trkpt lat="40.2498202" lon="9.254152"><ele>478.0</ele><time>2026-03-22T11:45:30.248Z</time></trkpt><trkpt lat="40.2494776" lon="9.2546516"><ele>482.0</ele><time>2026-03-22T11:45:32.248Z</time></trkpt><trkpt lat="40.249136" lon="9.2551345"><ele>458.0</ele><time>2026-03-22T11:45:34.248Z</time></trkpt><trkpt lat="40.2487751" lon="9.2556189"><ele>504.0</ele><time>2026-03-22T11:45:36.248Z</time></trkpt><trkpt lat="40.2484076" lon="9.2560973"><ele>504.0</ele><time>2026-03-22T11:45:38.248Z</time></trkpt><trkpt lat="40.248225" lon="9.2563285"><ele>504.0</ele><time>2026-03-22T11:45:39.248Z</time></trkpt><trkpt lat="40.248037" lon="9.2565555"><ele>525.0</ele><time>2026-03-22T11:45:40.248Z</time></trkpt><trkpt lat="40.2476568" lon="9.2569932"><ele>544.0</ele><time>2026-03-22T11:45:42.248Z</time></trkpt><trkpt lat="40.247293" lon="9.2573933"><ele>544.0</ele><time>2026-03-22T11:45:44.248Z</time></trkpt><trkpt lat="40.2469232" lon="9.2577761"><ele>552.0</ele><time>2026-03-22T11:45:46.248Z</time></trkpt><trkpt lat="40.2465584" lon="9.2581558"><ele>553.5</ele><time>2026-03-22T11:45:48.248Z</time></trkpt><trkpt lat="40.2463649" lon="9.2583389"><ele>555.0</ele><time>2026-03-22T11:45:49.248Z</time></trkpt><trkpt lat="40.2461634" lon="9.2585204"><ele>555.0</ele><time>2026-03-22T11:45:50.248Z</time></trkpt><trkpt lat="40.2457654" lon="9.2588727"><ele>554.5</ele><time>2026-03-22T11:45:52.248Z</time></trkpt><trkpt lat="40.2455621" lon="9.259047"><ele>554.0</ele><time>2026-03-22T11:45:53.248Z</time></trkpt><trkpt lat="40.2453578" lon="9.2592141"><ele>554.0</ele><time>2026-03-22T11:45:54.248Z</time></trkpt><trkpt lat="40.2451514" lon="9.2593854"><ele>554.0</ele><time>2026-03-22T11:45:55.248Z</time></trkpt><trkpt lat="40.2447419" lon="9.2597265"><ele>560.0</ele><time>2026-03-22T11:45:57.248Z</time></trkpt><trkpt lat="40.2445318" lon="9.2598949"><ele>566.0</ele><time>2026-03-22T11:45:58.248Z</time></trkpt><trkpt lat="40.2443196" lon="9.2600638"><ele>582.0</ele><time>2026-03-22T11:45:59.248Z</time></trkpt><trkpt lat="40.2439081" lon="9.2604135"><ele>590.0</ele><time>2026-03-22T11:46:01.248Z</time></trkpt><trkpt lat="40.2435379" lon="9.2607599"><ele>602.0</ele><time>2026-03-22T11:46:03.248Z</time></trkpt><trkpt lat="40.2377376" lon="9.2653862"><ele>602.0</ele><time>2026-03-22T11:46:34.248Z</time></trkpt><trkpt lat="40.237554" lon="9.2655001"><ele>602.0</ele><time>2026-03-22T11:46:35.248Z</time></trkpt><trkpt lat="40.2373723" lon="9.2655967"><ele>602.0</ele><time>2026-03-22T11:46:36.248Z</time></trkpt><trkpt lat="40.2370128" lon="9.2657546"><ele>598.0</ele><time>2026-03-22T11:46:38.248Z</time></trkpt><trkpt lat="40.2368301" lon="9.2658275"><ele>594.0</ele><time>2026-03-22T11:46:39.248Z</time></trkpt><trkpt lat="40.2366391" lon="9.2658875"><ele>590.0</ele><time>2026-03-22T11:46:40.248Z</time></trkpt><trkpt lat="40.2362544" lon="9.2659643"><ele>590.0</ele><time>2026-03-22T11:46:42.248Z</time></trkpt><trkpt lat="40.236058" lon="9.2659765"><ele>590.0</ele><time>2026-03-22T11:46:43.248Z</time></trkpt><trkpt lat="40.2358621" lon="9.2659799"><ele>590.0</ele><time>2026-03-22T11:46:44.248Z</time></trkpt><trkpt lat="40.2354636" lon="9.2659372"><ele>591.0</ele><time>2026-03-22T11:46:46.248Z</time></trkpt><trkpt lat="40.2350672" lon="9.2658497"><ele>592.0</ele><time>2026-03-22T11:46:48.248Z</time></trkpt><trkpt lat="40.2346699" lon="9.265704"><ele>597.5</ele><time>2026-03-22T11:46:50.248Z</time></trkpt><trkpt lat="40.2342578" lon="9.2655113"><ele>603.0</ele><time>2026-03-22T11:46:52.248Z</time></trkpt><trkpt lat="40.2338248" lon="9.2652754"><ele>603.0</ele><time>2026-03-22T11:46:54.248Z</time></trkpt><trkpt lat="40.2333965" lon="9.2650527"><ele>603.0</ele><time>2026-03-22T11:46:56.248Z</time></trkpt><trkpt lat="40.2331882" lon="9.2649461"><ele>603.0</ele><time>2026-03-22T11:46:57.248Z</time></trkpt><trkpt lat="40.2329771" lon="9.2648333"><ele>602.0</ele><time>2026-03-22T11:46:58.248Z</time></trkpt><trkpt lat="40.2325558" lon="9.2646199"><ele>600.0</ele><time>2026-03-22T11:47:00.248Z</time></trkpt><trkpt lat="40.2321436" lon="9.2644135"><ele>598.0</ele><time>2026-03-22T11:47:02.248Z</time></trkpt><trkpt lat="40.2317585" lon="9.2642015"><ele>598.0</ele><time>2026-03-22T11:47:04.248Z</time></trkpt><trkpt lat="40.2315699" lon="9.2641008"><ele>598.0</ele><time>2026-03-22T11:47:05.248Z</time></trkpt><trkpt lat="40.2313878" lon="9.2639947"><ele>598.0</ele><time>2026-03-22T11:47:06.248Z</time></trkpt><trkpt lat="40.2312005" lon="9.2638883"><ele>598.3333333333334</ele><time>2026-03-22T11:47:07.249Z</time></trkpt><trkpt lat="40.2310192" lon="9.2637761"><ele>598.6666666666666</ele><time>2026-03-22T11:47:08.248Z</time></trkpt><trkpt lat="40.2308452" lon="9.2636751"><ele>599.0</ele><time>2026-03-22T11:47:09.248Z</time></trkpt><trkpt lat="40.2306797" lon="9.2635866"><ele>600.3333333333333</ele><time>2026-03-22T11:47:10.248Z</time></trkpt><trkpt lat="40.2305234" lon="9.2634903"><ele>601.6666666666666</ele><time>2026-03-22T11:47:11.248Z</time></trkpt><trkpt lat="40.2303758" lon="9.2634108"><ele>603.0</ele><time>2026-03-22T11:47:12.248Z</time></trkpt><trkpt lat="40.2302427" lon="9.2633353"><ele>603.0</ele><time>2026-03-22T11:47:13.248Z</time></trkpt><trkpt lat="40.2301187" lon="9.2632651"><ele>603.0</ele><time>2026-03-22T11:47:14.248Z</time></trkpt><trkpt lat="40.2299339" lon="9.2630813"><ele>603.0</ele><time>2026-03-22T11:47:16.248Z</time></trkpt><trkpt lat="40.229845" lon="9.2628273"><ele>604.6666666666666</ele><time>2026-03-22T11:47:18.248Z</time></trkpt><trkpt lat="40.2298802" lon="9.2625357"><ele>606.3333333333333</ele><time>2026-03-22T11:47:20.248Z</time></trkpt><trkpt lat="40.2299454" lon="9.2624214"><ele>608.0</ele><time>2026-03-22T11:47:21.248Z</time></trkpt><trkpt lat="40.2301436" lon="9.2622832"><ele>608.0</ele><time>2026-03-22T11:47:23.248Z</time></trkpt><trkpt lat="40.2303664" lon="9.2623017"><ele>608.0</ele><time>2026-03-22T11:47:25.248Z</time></trkpt><trkpt lat="40.2305428" lon="9.2625147"><ele>608.0</ele><time>2026-03-22T11:47:27.248Z</time></trkpt><trkpt lat="40.2306315" lon="9.2628459"><ele>608.0</ele><time>2026-03-22T11:47:29.248Z</time></trkpt><trkpt lat="40.2306539" lon="9.2632968"><ele>603.5</ele><time>2026-03-22T11:47:31.248Z</time></trkpt><trkpt lat="40.2306553" lon="9.2637885"><ele>599.0</ele><time>2026-03-22T11:47:33.248Z</time></trkpt><trkpt lat="40.2306191" lon="9.2642681"><ele>599.0</ele><time>2026-03-22T11:47:35.248Z</time></trkpt><trkpt lat="40.2306075" lon="9.2646785"><ele>599.0</ele><time>2026-03-22T11:47:37.248Z</time></trkpt><trkpt lat="40.2305844" lon="9.2648629"><ele>598.0</ele><time>2026-03-22T11:47:38.248Z</time></trkpt><trkpt lat="40.2305904" lon="9.265018"><ele>597.0</ele><time>2026-03-22T11:47:39.248Z</time></trkpt><trkpt lat="40.2305884" lon="9.2651587"><ele>596.0</ele><time>2026-03-22T11:47:40.248Z</time></trkpt><trkpt lat="40.2305678" lon="9.2652817"><ele>595.0</ele><time>2026-03-22T11:47:41.248Z</time></trkpt><trkpt lat="40.230486" lon="9.2654912"><ele>588.5</ele><time>2026-03-22T11:47:43.248Z</time></trkpt><trkpt lat="40.2303327" lon="9.2657023"><ele>582.0</ele><time>2026-03-22T11:47:45.248Z</time></trkpt><trkpt lat="40.230112" lon="9.2659253"><ele>582.0</ele><time>2026-03-22T11:47:47.248Z</time></trkpt><trkpt lat="40.229861" lon="9.2661365"><ele>582.0</ele><time>2026-03-22T11:47:49.248Z</time></trkpt><trkpt lat="40.2295666" lon="9.2663074"><ele>574.0</ele><time>2026-03-22T11:47:51.248Z</time></trkpt><trkpt lat="40.2292269" lon="9.2664508"><ele>566.0</ele><time>2026-03-22T11:47:53.248Z</time></trkpt><trkpt lat="40.2288572" lon="9.2665991"><ele>564.5</ele><time>2026-03-22T11:47:55.248Z</time></trkpt><trkpt lat="40.2284809" lon="9.266732"><ele>563.0</ele><time>2026-03-22T11:47:57.248Z</time></trkpt><trkpt lat="40.228077" lon="9.2668366"><ele>562.0</ele><time>2026-03-22T11:47:59.248Z</time></trkpt><trkpt lat="40.2276431" lon="9.2669044"><ele>561.0</ele><time>2026-03-22T11:48:01.248Z</time></trkpt><trkpt lat="40.2271987" lon="9.2669666"><ele>561.0</ele><time>2026-03-22T11:48:03.248Z</time></trkpt><trkpt lat="40.2267406" lon="9.2670428"><ele>559.0</ele><time>2026-03-22T11:48:05.248Z</time></trkpt><trkpt lat="40.2262757" lon="9.2671203"><ele>559.0</ele><time>2026-03-22T11:48:07.248Z</time></trkpt><trkpt lat="40.2258314" lon="9.267188"><ele>559.0</ele><time>2026-03-22T11:48:09.248Z</time></trkpt><trkpt lat="40.2256225" lon="9.2672146"><ele>558.3333333333334</ele><time>2026-03-22T11:48:10.248Z</time></trkpt><trkpt lat="40.225418" lon="9.2672422"><ele>557.6666666666666</ele><time>2026-03-22T11:48:11.248Z</time></trkpt><trkpt lat="40.2252147" lon="9.2672678"><ele>557.0</ele><time>2026-03-22T11:48:12.248Z</time></trkpt><trkpt lat="40.2250224" lon="9.2672911"><ele>559.6666666666666</ele><time>2026-03-22T11:48:13.248Z</time></trkpt><trkpt lat="40.2248296" lon="9.2673131"><ele>562.3333333333334</ele><time>2026-03-22T11:48:14.248Z</time></trkpt><trkpt lat="40.2246447" lon="9.2673178"><ele>565.0</ele><time>2026-03-22T11:48:15.248Z</time></trkpt><trkpt lat="40.2243053" lon="9.2672966"><ele>564.0</ele><time>2026-03-22T11:48:17.248Z</time></trkpt><trkpt lat="40.2239787" lon="9.2672654"><ele>563.0</ele><time>2026-03-22T11:48:19.248Z</time></trkpt><trkpt lat="40.2238206" lon="9.2672914"><ele>568.0</ele><time>2026-03-22T11:48:20.248Z</time></trkpt><trkpt lat="40.2236676" lon="9.2673199"><ele>573.0</ele><time>2026-03-22T11:48:21.248Z</time></trkpt><trkpt lat="40.2233653" lon="9.267489"><ele>568.5</ele><time>2026-03-22T11:48:23.248Z</time></trkpt><trkpt lat="40.2230522" lon="9.2677056"><ele>564.0</ele><time>2026-03-22T11:48:25.248Z</time></trkpt><trkpt lat="40.2227309" lon="9.2679601"><ele>570.0</ele><time>2026-03-22T11:48:27.248Z</time></trkpt><trkpt lat="40.2223896" lon="9.268223"><ele>576.0</ele><time>2026-03-22T11:48:29.248Z</time></trkpt><trkpt lat="40.2220654" lon="9.268445"><ele>576.0</ele><time>2026-03-22T11:48:31.248Z</time></trkpt><trkpt lat="40.2217667" lon="9.2686953"><ele>576.0</ele><time>2026-03-22T11:48:33.248Z</time></trkpt><trkpt lat="40.2214791" lon="9.2689516"><ele>579.0</ele><time>2026-03-22T11:48:35.248Z</time></trkpt><trkpt lat="40.2212444" lon="9.2692529"><ele>582.0</ele><time>2026-03-22T11:48:37.248Z</time></trkpt><trkpt lat="40.221052" lon="9.269607"><ele>585.0</ele><time>2026-03-22T11:48:39.248Z</time></trkpt><trkpt lat="40.2209263" lon="9.2700213"><ele>588.0</ele><time>2026-03-22T11:48:41.248Z</time></trkpt><trkpt lat="40.2208536" lon="9.2705026"><ele>587.5</ele><time>2026-03-22T11:48:43.248Z</time></trkpt><trkpt lat="40.2208169" lon="9.2707483"><ele>587.0</ele><time>2026-03-22T11:48:44.248Z</time></trkpt><trkpt lat="40.2207473" lon="9.2712578"><ele>586.3333333333333</ele><time>2026-03-22T11:48:46.248Z</time></trkpt><trkpt lat="40.2207" lon="9.2715242"><ele>585.6666666666666</ele><time>2026-03-22T11:48:47.248Z</time></trkpt><trkpt lat="40.2206598" lon="9.2717924"><ele>585.0</ele><time>2026-03-22T11:48:48.248Z</time></trkpt><trkpt lat="40.2206201" lon="9.2720586"><ele>587.0</ele><time>2026-03-22T11:48:49.248Z</time></trkpt><trkpt lat="40.2205354" lon="9.2725746"><ele>589.0</ele><time>2026-03-22T11:48:51.248Z</time></trkpt><trkpt lat="40.2204622" lon="9.2730342"><ele>590.0</ele><time>2026-03-22T11:48:53.248Z</time></trkpt><trkpt lat="40.2204303" lon="9.2732566"><ele>591.0</ele><time>2026-03-22T11:48:54.248Z</time></trkpt><trkpt lat="40.2203963" lon="9.2734431"><ele>592.0</ele><time>2026-03-22T11:48:55.248Z</time></trkpt><trkpt lat="40.2203603" lon="9.2736248"><ele>592.0</ele><time>2026-03-22T11:48:56.248Z</time></trkpt><trkpt lat="40.2203187" lon="9.2738015"><ele>592.0</ele><time>2026-03-22T11:48:57.248Z</time></trkpt><trkpt lat="40.2202621" lon="9.2739637"><ele>592.0</ele><time>2026-03-22T11:48:58.248Z</time></trkpt><trkpt lat="40.2202007" lon="9.2741378"><ele>592.0</ele><time>2026-03-22T11:48:59.248Z</time></trkpt><trkpt lat="40.2201325" lon="9.2743061"><ele>592.75</ele><time>2026-03-22T11:49:00.248Z</time></trkpt><trkpt lat="40.2200646" lon="9.2744723"><ele>593.5</ele><time>2026-03-22T11:49:01.248Z</time></trkpt><trkpt lat="40.2199958" lon="9.2746312"><ele>594.25</ele><time>2026-03-22T11:49:02.248Z</time></trkpt><trkpt lat="40.2199436" lon="9.2748013"><ele>595.0</ele><time>2026-03-22T11:49:03.248Z</time></trkpt><trkpt lat="40.2198679" lon="9.2749576"><ele>596.25</ele><time>2026-03-22T11:49:04.248Z</time></trkpt><trkpt lat="40.2198031" lon="9.2751245"><ele>597.5</ele><time>2026-03-22T11:49:05.248Z</time></trkpt><trkpt lat="40.219723" lon="9.2753145"><ele>598.75</ele><time>2026-03-22T11:49:06.248Z</time></trkpt><trkpt lat="40.2196514" lon="9.275473"><ele>600.0</ele><time>2026-03-22T11:49:07.248Z</time></trkpt><trkpt lat="40.2195924" lon="9.2756348"><ele>600.5</ele><time>2026-03-22T11:49:08.248Z</time></trkpt><trkpt lat="40.219517" lon="9.2758426"><ele>601.0</ele><time>2026-03-22T11:49:09.248Z</time></trkpt><trkpt lat="40.2194586" lon="9.2759447"><ele>601.5</ele><time>2026-03-22T11:49:10.248Z</time></trkpt><trkpt lat="40.2193979" lon="9.2760898"><ele>602.0</ele><time>2026-03-22T11:49:11.248Z</time></trkpt><trkpt lat="40.2193264" lon="9.2762706"><ele>602.0</ele><time>2026-03-22T11:49:12.248Z</time></trkpt><trkpt lat="40.2192577" lon="9.2764182"><ele>602.0</ele><time>2026-03-22T11:49:13.248Z</time></trkpt><trkpt lat="40.2191868" lon="9.2765442"><ele>602.0</ele><time>2026-03-22T11:49:14.248Z</time></trkpt><trkpt lat="40.2191234" lon="9.2766905"><ele>602.0</ele><time>2026-03-22T11:49:15.248Z</time></trkpt><trkpt lat="40.2190641" lon="9.2768718"><ele>602.5</ele><time>2026-03-22T11:49:16.248Z</time></trkpt><trkpt lat="40.2189987" lon="9.2770295"><ele>603.0</ele><time>2026-03-22T11:49:17.248Z</time></trkpt><trkpt lat="40.2189437" lon="9.2771328"><ele>603.5</ele><time>2026-03-22T11:49:18.248Z</time></trkpt><trkpt lat="40.2188659" lon="9.2772561"><ele>604.0</ele><time>2026-03-22T11:49:19.248Z</time></trkpt><trkpt lat="40.2188059" lon="9.2773639"><ele>606.25</ele><time>2026-03-22T11:49:20.248Z</time></trkpt><trkpt lat="40.2187202" lon="9.2775289"><ele>608.5</ele><time>2026-03-22T11:49:21.248Z</time></trkpt><trkpt lat="40.2186396" lon="9.2776154"><ele>610.75</ele><time>2026-03-22T11:49:22.248Z</time></trkpt><trkpt lat="40.2185802" lon="9.2777365"><ele>613.0</ele><time>2026-03-22T11:49:23.248Z</time></trkpt><trkpt lat="40.2185023" lon="9.2779498"><ele>613.0</ele><time>2026-03-22T11:49:24.248Z</time></trkpt><trkpt lat="40.2184109" lon="9.278072"><ele>613.0</ele><time>2026-03-22T11:49:25.248Z</time></trkpt><trkpt lat="40.2181865" lon="9.2782771"><ele>613.0</ele><time>2026-03-22T11:49:27.248Z</time></trkpt><trkpt lat="40.2180084" lon="9.2785162"><ele>613.75</ele><time>2026-03-22T11:49:29.248Z</time></trkpt><trkpt lat="40.2178371" lon="9.2787263"><ele>614.5</ele><time>2026-03-22T11:49:31.248Z</time></trkpt><trkpt lat="40.2177545" lon="9.2788206"><ele>615.25</ele><time>2026-03-22T11:49:32.248Z</time></trkpt><trkpt lat="40.2176944" lon="9.2789247"><ele>616.0</ele><time>2026-03-22T11:49:33.248Z</time></trkpt><trkpt lat="40.2176066" lon="9.2791185"><ele>616.3333333333334</ele><time>2026-03-22T11:49:35.248Z</time></trkpt><trkpt lat="40.2175112" lon="9.2793688"><ele>616.6666666666666</ele><time>2026-03-22T11:49:37.248Z</time></trkpt><trkpt lat="40.2174223" lon="9.2795549"><ele>617.0</ele><time>2026-03-22T11:49:39.248Z</time></trkpt><trkpt lat="40.217338" lon="9.279689"><ele>618.6</ele><time>2026-03-22T11:49:41.248Z</time></trkpt><trkpt lat="40.2172664" lon="9.2797841"><ele>620.2</ele><time>2026-03-22T11:49:43.248Z</time></trkpt><trkpt lat="40.2171863" lon="9.2798613"><ele>621.8</ele><time>2026-03-22T11:49:45.248Z</time></trkpt><trkpt lat="40.2170605" lon="9.2799133"><ele>623.4</ele><time>2026-03-22T11:49:47.248Z</time></trkpt><trkpt lat="40.2169946" lon="9.2799392"><ele>625.0</ele><time>2026-03-22T11:49:48.248Z</time></trkpt><trkpt lat="40.2169215" lon="9.2799572"><ele>625.0</ele><time>2026-03-22T11:49:49.248Z</time></trkpt><trkpt lat="40.2167457" lon="9.2799438"><ele>625.0</ele><time>2026-03-22T11:49:51.248Z</time></trkpt><trkpt lat="40.2165396" lon="9.2799067"><ele>625.0</ele><time>2026-03-22T11:49:53.248Z</time></trkpt><trkpt lat="40.2163349" lon="9.2798353"><ele>624.6666666666667</ele><time>2026-03-22T11:49:55.248Z</time></trkpt><trkpt lat="40.2162271" lon="9.2798053"><ele>624.3333333333334</ele><time>2026-03-22T11:49:56.248Z</time></trkpt><trkpt lat="40.2161021" lon="9.2797601"><ele>624.0</ele><time>2026-03-22T11:49:57.248Z</time></trkpt><trkpt lat="40.2158538" lon="9.2796061"><ele>628.5</ele><time>2026-03-22T11:49:59.248Z</time></trkpt><trkpt lat="40.2156318" lon="9.2794785"><ele>633.0</ele><time>2026-03-22T11:50:01.248Z</time></trkpt><trkpt lat="40.2154029" lon="9.2794153"><ele>633.0</ele><time>2026-03-22T11:50:03.248Z</time></trkpt><trkpt lat="40.2152105" lon="9.2793641"><ele>633.0</ele><time>2026-03-22T11:50:05.248Z</time></trkpt><trkpt lat="40.2150073" lon="9.2793602"><ele>633.0</ele><time>2026-03-22T11:50:07.248Z</time></trkpt><trkpt lat="40.2148053" lon="9.2794073"><ele>635.3333333333334</ele><time>2026-03-22T11:50:09.248Z</time></trkpt><trkpt lat="40.2146396" lon="9.2795042"><ele>637.6666666666667</ele><time>2026-03-22T11:50:11.248Z</time></trkpt><trkpt lat="40.2144802" lon="9.2796378"><ele>640.0</ele><time>2026-03-22T11:50:13.248Z</time></trkpt><trkpt lat="40.2143721" lon="9.2799363"><ele>640.3333333333334</ele><time>2026-03-22T11:50:15.248Z</time></trkpt><trkpt lat="40.2143041" lon="9.2801009"><ele>640.6666666666666</ele><time>2026-03-22T11:50:16.248Z</time></trkpt><trkpt lat="40.2141984" lon="9.2804114"><ele>641.0</ele><time>2026-03-22T11:50:18.248Z</time></trkpt><trkpt lat="40.2141492" lon="9.2805521"><ele>641.75</ele><time>2026-03-22T11:50:19.248Z</time></trkpt><trkpt lat="40.2140966" lon="9.2806864"><ele>642.5</ele><time>2026-03-22T11:50:20.248Z</time></trkpt><trkpt lat="40.2140022" lon="9.2809263"><ele>643.25</ele><time>2026-03-22T11:50:22.248Z</time></trkpt><trkpt lat="40.2139674" lon="9.2810249"><ele>644.0</ele><time>2026-03-22T11:50:23.248Z</time></trkpt><trkpt lat="40.2138994" lon="9.2812252"><ele>643.8000000000001</ele><time>2026-03-22T11:50:25.248Z</time></trkpt><trkpt lat="40.2138353" lon="9.2813785"><ele>643.6</ele><time>2026-03-22T11:50:27.248Z</time></trkpt><trkpt lat="40.2137955" lon="9.2814598"><ele>643.4</ele><time>2026-03-22T11:50:30.248Z</time></trkpt><trkpt lat="40.2137295" lon="9.2815255"><ele>643.2</ele><time>2026-03-22T11:50:35.248Z</time></trkpt><trkpt lat="40.2137058" lon="9.2816973"><ele>643.0</ele><time>2026-03-22T11:50:37.248Z</time></trkpt><trkpt lat="40.2136553" lon="9.2818118"><ele>643.0</ele><time>2026-03-22T11:50:39.248Z</time></trkpt><trkpt lat="40.2135811" lon="9.2820267"><ele>643.0</ele><time>2026-03-22T11:50:41.248Z</time></trkpt><trkpt lat="40.2135034" lon="9.2821801"><ele>643.0</ele><time>2026-03-22T11:50:43.248Z</time></trkpt><trkpt lat="40.2134742" lon="9.2822789"><ele>643.0</ele><time>2026-03-22T11:50:44.248Z</time></trkpt><trkpt lat="40.2134365" lon="9.2823752"><ele>642.8333333333334</ele><time>2026-03-22T11:50:45.248Z</time></trkpt><trkpt lat="40.2133967" lon="9.2824583"><ele>642.6666666666667</ele><time>2026-03-22T11:50:46.248Z</time></trkpt><trkpt lat="40.2133651" lon="9.2825301"><ele>642.5</ele><time>2026-03-22T11:50:47.248Z</time></trkpt><trkpt lat="40.2132777" lon="9.2826242"><ele>642.3333333333334</ele><time>2026-03-22T11:50:49.248Z</time></trkpt><trkpt lat="40.2132273" lon="9.2826837"><ele>642.1666666666666</ele><time>2026-03-22T11:50:50.248Z</time></trkpt><trkpt lat="40.2131263" lon="9.2827711"><ele>642.0</ele><time>2026-03-22T11:50:52.248Z</time></trkpt><trkpt lat="40.2130444" lon="9.2828151"><ele>642.0</ele><time>2026-03-22T11:50:54.248Z</time></trkpt><trkpt lat="40.2129831" lon="9.282839"><ele>642.0</ele><time>2026-03-22T11:50:55.248Z</time></trkpt><trkpt lat="40.2129224" lon="9.2828742"><ele>642.0</ele><time>2026-03-22T11:50:56.248Z</time></trkpt><trkpt lat="40.2128428" lon="9.2828835"><ele>642.0</ele><time>2026-03-22T11:50:57.248Z</time></trkpt><trkpt lat="40.2127781" lon="9.2829098"><ele>642.0</ele><time>2026-03-22T11:50:58.248Z</time></trkpt><trkpt lat="40.2126968" lon="9.2829411"><ele>642.0</ele><time>2026-03-22T11:50:59.248Z</time></trkpt><trkpt lat="40.2124961" lon="9.2829618"><ele>642.0</ele><time>2026-03-22T11:51:01.248Z</time></trkpt><trkpt lat="40.2123416" lon="9.2830222"><ele>642.0</ele><time>2026-03-22T11:51:03.248Z</time></trkpt><trkpt lat="40.2121781" lon="9.2830442"><ele>642.0</ele><time>2026-03-22T11:51:05.248Z</time></trkpt><trkpt lat="40.2120293" lon="9.2830589"><ele>641.8</ele><time>2026-03-22T11:51:07.248Z</time></trkpt><trkpt lat="40.2119565" lon="9.2830734"><ele>641.6</ele><time>2026-03-22T11:51:08.248Z</time></trkpt><trkpt lat="40.2118924" lon="9.2830853"><ele>641.4</ele><time>2026-03-22T11:51:09.248Z</time></trkpt><trkpt lat="40.211829" lon="9.2831058"><ele>641.1999999999999</ele><time>2026-03-22T11:51:10.248Z</time></trkpt><trkpt lat="40.2116937" lon="9.2832363"><ele>641.0</ele><time>2026-03-22T11:51:13.248Z</time></trkpt><trkpt lat="40.2116936" lon="9.2834556"><ele>641.0</ele><time>2026-03-22T11:51:15.248Z</time></trkpt><trkpt lat="40.211668" lon="9.2836343"><ele>641.0</ele><time>2026-03-22T11:51:17.248Z</time></trkpt><trkpt lat="40.2116376" lon="9.2837604"><ele>641.0</ele><time>2026-03-22T11:51:19.248Z</time></trkpt><trkpt lat="40.2115786" lon="9.2838232"><ele>641.0</ele><time>2026-03-22T11:51:31.248Z</time></trkpt><trkpt lat="40.2115051" lon="9.2839014"><ele>641.0</ele><time>2026-03-22T11:51:34.248Z</time></trkpt><trkpt lat="40.2114411" lon="9.2839485"><ele>641.0</ele><time>2026-03-22T11:51:36.248Z</time></trkpt><trkpt lat="40.2113552" lon="9.2839702"><ele>641.0</ele><time>2026-03-22T11:51:38.248Z</time></trkpt><trkpt lat="40.2112474" lon="9.2839198"><ele>641.0</ele><time>2026-03-22T11:51:42.248Z</time></trkpt><trkpt lat="40.2111587" lon="9.2839061"><ele>641.0</ele><time>2026-03-22T11:51:45.248Z</time></trkpt><trkpt lat="40.2110812" lon="9.2838598"><ele>641.0</ele><time>2026-03-22T11:51:48.248Z</time></trkpt><trkpt lat="40.2111241" lon="9.2837966"><ele>641.0</ele><time>2026-03-22T11:52:11.248Z</time></trkpt><trkpt lat="40.211178" lon="9.2838851"><ele>641.0</ele><time>2026-03-22T11:54:22.252Z</time></trkpt><trkpt lat="40.2114473" lon="9.2839192"><ele>641.0</ele><time>2026-03-22T11:54:27.252Z</time></trkpt><trkpt lat="40.211559" lon="9.2839444"><ele>641.0</ele><time>2026-03-22T11:54:29.252Z</time></trkpt><trkpt lat="40.2116551" lon="9.2839696"><ele>641.0</ele><time>2026-03-22T11:54:31.252Z</time></trkpt><trkpt lat="40.211749" lon="9.2839761"><ele>641.0</ele><time>2026-03-22T11:54:33.252Z</time></trkpt><trkpt lat="40.2118402" lon="9.2839709"><ele>641.0</ele><time>2026-03-22T11:54:35.252Z</time></trkpt><trkpt lat="40.2119143" lon="9.2839586"><ele>641.0</ele><time>2026-03-22T11:54:37.252Z</time></trkpt><trkpt lat="40.2120467" lon="9.2839457"><ele>641.0</ele><time>2026-03-22T11:54:40.252Z</time></trkpt><trkpt lat="40.2121508" lon="9.2839203"><ele>641.0</ele><time>2026-03-22T11:54:42.252Z</time></trkpt><trkpt lat="40.2122552" lon="9.2838836"><ele>641.0</ele><time>2026-03-22T11:54:44.252Z</time></trkpt><trkpt lat="40.2123525" lon="9.2838668"><ele>641.0</ele><time>2026-03-22T11:54:46.252Z</time></trkpt><trkpt lat="40.212438" lon="9.2838842"><ele>641.0</ele><time>2026-03-22T11:54:48.252Z</time></trkpt><trkpt lat="40.2125298" lon="9.2838986"><ele>641.0</ele><time>2026-03-22T11:54:50.252Z</time></trkpt><trkpt lat="40.2126219" lon="9.2839155"><ele>642.0</ele><time>2026-03-22T11:54:52.252Z</time></trkpt><trkpt lat="40.2127067" lon="9.2839186"><ele>643.0</ele><time>2026-03-22T11:54:54.252Z</time></trkpt><trkpt lat="40.212783" lon="9.2839224"><ele>644.0</ele><time>2026-03-22T11:54:56.252Z</time></trkpt><trkpt lat="40.2128461" lon="9.283916"><ele>645.0</ele><time>2026-03-22T11:54:58.252Z</time></trkpt><trkpt lat="40.2129193" lon="9.2839111"><ele>646.0</ele><time>2026-03-22T11:55:00.252Z</time></trkpt><trkpt lat="40.2129998" lon="9.2839192"><ele>647.0</ele><time>2026-03-22T11:55:02.252Z</time></trkpt><trkpt lat="40.2130859" lon="9.2839448"><ele>647.0</ele><time>2026-03-22T11:55:04.252Z</time></trkpt><trkpt lat="40.213184" lon="9.2839173"><ele>647.0</ele><time>2026-03-22T11:55:06.252Z</time></trkpt><trkpt lat="40.213284" lon="9.2838879"><ele>647.0</ele><time>2026-03-22T11:55:08.252Z</time></trkpt><trkpt lat="40.2133646" lon="9.2838735"><ele>647.0</ele><time>2026-03-22T11:55:10.252Z</time></trkpt><trkpt lat="40.2134358" lon="9.28385"><ele>647.0</ele><time>2026-03-22T11:55:12.252Z</time></trkpt><trkpt lat="40.2135278" lon="9.2838282"><ele>647.0</ele><time>2026-03-22T11:55:14.252Z</time></trkpt><trkpt lat="40.2136636" lon="9.2838182"><ele>647.0</ele><time>2026-03-22T11:55:17.252Z</time></trkpt><trkpt lat="40.2137422" lon="9.2838303"><ele>647.0</ele><time>2026-03-22T11:55:19.252Z</time></trkpt><trkpt lat="40.2138262" lon="9.2838357"><ele>647.0</ele><time>2026-03-22T11:55:22.252Z</time></trkpt><trkpt lat="40.2139057" lon="9.2838415"><ele>647.0</ele><time>2026-03-22T11:55:25.252Z</time></trkpt><trkpt lat="40.2139907" lon="9.2838331"><ele>647.0</ele><time>2026-03-22T11:55:28.252Z</time></trkpt><trkpt lat="40.2140694" lon="9.2838242"><ele>647.0</ele><time>2026-03-22T11:55:31.252Z</time></trkpt><trkpt lat="40.2141419" lon="9.2838029"><ele>647.0</ele><time>2026-03-22T11:57:05.252Z</time></trkpt><trkpt lat="40.2140565" lon="9.2837775"><ele>647.0</ele><time>2026-03-22T11:57:14.252Z</time></trkpt><trkpt lat="40.2139942" lon="9.2838285"><ele>647.0</ele><time>2026-03-22T11:57:19.225Z</time></trkpt><trkpt lat="40.213924" lon="9.2838483"><ele>647.0</ele><time>2026-03-22T11:57:23.239Z</time></trkpt><trkpt lat="40.2138527" lon="9.2838251"><ele>647.0</ele><time>2026-03-22T11:57:28.257Z</time></trkpt><trkpt lat="40.2137853" lon="9.2838302"><ele>647.0</ele><time>2026-03-22T11:57:34.223Z</time></trkpt><trkpt lat="40.2137221" lon="9.2838571"><ele>647.0</ele><time>2026-03-22T11:57:43.257Z</time></trkpt><trkpt lat="40.2137491" lon="9.2839355"><ele>651.0</ele><time>2026-03-22T11:58:59.257Z</time></trkpt></trkseg></trk></gpx>